<?xml version="1.0" encoding="UTF-8" standalone="no" ?>
<gpx xmlns="http://www.topografix.com/GPX/1/1" xmlns:xsi="http://www.w3.org/2001/XMLSchema-instance" xsi:schemaLocation="http://www.topografix.com/GPX/1/1 http://www.topografix.com/GPX/1/1/gpx.xsd" version="1.1" creator="VisuGPX - https://www.visugpx.com">
  <metadata>
    <name>Soleil de plomb</name>
    <desc><![CDATA[Soleil de plomb]]></desc>
  </metadata>
  <trk>
    <name><![CDATA[08/06/2014 9:12]]></name>
    <desc><![CDATA[]]></desc>
    <trkseg>
      <trkpt lat="47.51797" lon="6.7749">
        <ele>364.2</ele>
        <time>2014-06-08T07:12:57.000Z</time>
      </trkpt>
      <trkpt lat="47.51797" lon="6.77495">
        <ele>365</ele>
        <time>2014-06-08T07:12:59.000Z</time>
      </trkpt>
      <trkpt lat="47.51797" lon="6.775">
        <ele>363</ele>
        <time>2014-06-08T07:13:00.000Z</time>
      </trkpt>
      <trkpt lat="47.51797" lon="6.77506">
        <ele>358.7</ele>
        <time>2014-06-08T07:13:04.000Z</time>
      </trkpt>
      <trkpt lat="47.51796" lon="6.77508">
        <ele>361</ele>
        <time>2014-06-08T07:13:05.000Z</time>
      </trkpt>
      <trkpt lat="47.51796" lon="6.77505">
        <ele>365</ele>
        <time>2014-06-08T07:14:17.000Z</time>
      </trkpt>
      <trkpt lat="47.51802" lon="6.77482">
        <ele>384.5</ele>
        <time>2014-06-08T07:14:18.000Z</time>
      </trkpt>
      <trkpt lat="47.51804" lon="6.77485">
        <ele>404.5</ele>
        <time>2014-06-08T07:17:57.000Z</time>
      </trkpt>
      <trkpt lat="47.51805" lon="6.77487">
        <ele>394.2</ele>
        <time>2014-06-08T07:17:58.000Z</time>
      </trkpt>
      <trkpt lat="47.51805" lon="6.77492">
        <ele>389.8</ele>
        <time>2014-06-08T07:18:00.000Z</time>
      </trkpt>
      <trkpt lat="47.51803" lon="6.77494">
        <ele>389.1</ele>
        <time>2014-06-08T07:18:01.000Z</time>
      </trkpt>
      <trkpt lat="47.51801" lon="6.77495">
        <ele>388.3</ele>
        <time>2014-06-08T07:18:02.000Z</time>
      </trkpt>
      <trkpt lat="47.51797" lon="6.77495">
        <ele>387.3</ele>
        <time>2014-06-08T07:18:03.000Z</time>
      </trkpt>
      <trkpt lat="47.51794" lon="6.77494">
        <ele>387.7</ele>
        <time>2014-06-08T07:18:04.000Z</time>
      </trkpt>
      <trkpt lat="47.51791" lon="6.77492">
        <ele>387.2</ele>
        <time>2014-06-08T07:18:05.000Z</time>
      </trkpt>
      <trkpt lat="47.51788" lon="6.7749">
        <ele>386.7</ele>
        <time>2014-06-08T07:18:06.000Z</time>
      </trkpt>
      <trkpt lat="47.51785" lon="6.77488">
        <ele>387</ele>
        <time>2014-06-08T07:18:07.000Z</time>
      </trkpt>
      <trkpt lat="47.51782" lon="6.77486">
        <ele>386.9</ele>
        <time>2014-06-08T07:18:08.000Z</time>
      </trkpt>
      <trkpt lat="47.51778" lon="6.77484">
        <ele>387</ele>
        <time>2014-06-08T07:18:09.000Z</time>
      </trkpt>
      <trkpt lat="47.51775" lon="6.77483">
        <ele>386.8</ele>
        <time>2014-06-08T07:18:10.000Z</time>
      </trkpt>
      <trkpt lat="47.51771" lon="6.77482">
        <ele>386.6</ele>
        <time>2014-06-08T07:18:11.000Z</time>
      </trkpt>
      <trkpt lat="47.51767" lon="6.77481">
        <ele>386.9</ele>
        <time>2014-06-08T07:18:12.000Z</time>
      </trkpt>
      <trkpt lat="47.51764" lon="6.7748">
        <ele>386.9</ele>
        <time>2014-06-08T07:18:13.000Z</time>
      </trkpt>
      <trkpt lat="47.5176" lon="6.77479">
        <ele>386.8</ele>
        <time>2014-06-08T07:18:14.000Z</time>
      </trkpt>
      <trkpt lat="47.51757" lon="6.77478">
        <ele>387.1</ele>
        <time>2014-06-08T07:18:15.000Z</time>
      </trkpt>
      <trkpt lat="47.51754" lon="6.77477">
        <ele>387.4</ele>
        <time>2014-06-08T07:18:16.000Z</time>
      </trkpt>
      <trkpt lat="47.5175" lon="6.77477">
        <ele>388.8</ele>
        <time>2014-06-08T07:18:17.000Z</time>
      </trkpt>
      <trkpt lat="47.51747" lon="6.77476">
        <ele>388.8</ele>
        <time>2014-06-08T07:18:18.000Z</time>
      </trkpt>
      <trkpt lat="47.51744" lon="6.77475">
        <ele>388.1</ele>
        <time>2014-06-08T07:18:19.000Z</time>
      </trkpt>
      <trkpt lat="47.5174" lon="6.77475">
        <ele>387.7</ele>
        <time>2014-06-08T07:18:20.000Z</time>
      </trkpt>
      <trkpt lat="47.51736" lon="6.77474">
        <ele>387.3</ele>
        <time>2014-06-08T07:18:21.000Z</time>
      </trkpt>
      <trkpt lat="47.51732" lon="6.77474">
        <ele>387</ele>
        <time>2014-06-08T07:18:22.000Z</time>
      </trkpt>
      <trkpt lat="47.51728" lon="6.77476">
        <ele>388.2</ele>
        <time>2014-06-08T07:18:23.000Z</time>
      </trkpt>
      <trkpt lat="47.51724" lon="6.7748">
        <ele>388.9</ele>
        <time>2014-06-08T07:18:24.000Z</time>
      </trkpt>
      <trkpt lat="47.51721" lon="6.77484">
        <ele>389.7</ele>
        <time>2014-06-08T07:18:25.000Z</time>
      </trkpt>
      <trkpt lat="47.51718" lon="6.7749">
        <ele>388.2</ele>
        <time>2014-06-08T07:18:26.000Z</time>
      </trkpt>
      <trkpt lat="47.5172" lon="6.77504">
        <ele>388.2</ele>
        <time>2014-06-08T07:18:27.000Z</time>
      </trkpt>
      <trkpt lat="47.51718" lon="6.7751">
        <ele>388.1</ele>
        <time>2014-06-08T07:18:28.000Z</time>
      </trkpt>
      <trkpt lat="47.51717" lon="6.77516">
        <ele>388.1</ele>
        <time>2014-06-08T07:18:29.000Z</time>
      </trkpt>
      <trkpt lat="47.51717" lon="6.77525">
        <ele>388.2</ele>
        <time>2014-06-08T07:18:30.000Z</time>
      </trkpt>
      <trkpt lat="47.51716" lon="6.77532">
        <ele>388.5</ele>
        <time>2014-06-08T07:18:31.000Z</time>
      </trkpt>
      <trkpt lat="47.51715" lon="6.7754">
        <ele>388.6</ele>
        <time>2014-06-08T07:18:32.000Z</time>
      </trkpt>
      <trkpt lat="47.51713" lon="6.77545">
        <ele>388.9</ele>
        <time>2014-06-08T07:18:33.000Z</time>
      </trkpt>
      <trkpt lat="47.5171" lon="6.77549">
        <ele>388.7</ele>
        <time>2014-06-08T07:18:34.000Z</time>
      </trkpt>
      <trkpt lat="47.51705" lon="6.77549">
        <ele>389.2</ele>
        <time>2014-06-08T07:18:35.000Z</time>
      </trkpt>
      <trkpt lat="47.51701" lon="6.77545">
        <ele>389</ele>
        <time>2014-06-08T07:18:36.000Z</time>
      </trkpt>
      <trkpt lat="47.51698" lon="6.77541">
        <ele>388.8</ele>
        <time>2014-06-08T07:18:37.000Z</time>
      </trkpt>
      <trkpt lat="47.51694" lon="6.77537">
        <ele>388.5</ele>
        <time>2014-06-08T07:18:38.000Z</time>
      </trkpt>
      <trkpt lat="47.51654" lon="6.77494">
        <ele>384.2</ele>
        <time>2014-06-08T07:18:45.786Z</time>
      </trkpt>
      <trkpt lat="47.51648" lon="6.77488">
        <ele>383.8</ele>
        <time>2014-06-08T07:18:47.000Z</time>
      </trkpt>
      <trkpt lat="47.51643" lon="6.77482">
        <ele>383.2</ele>
        <time>2014-06-08T07:18:48.000Z</time>
      </trkpt>
      <trkpt lat="47.51638" lon="6.77475">
        <ele>383.1</ele>
        <time>2014-06-08T07:18:49.000Z</time>
      </trkpt>
      <trkpt lat="47.51633" lon="6.77468">
        <ele>383</ele>
        <time>2014-06-08T07:18:50.000Z</time>
      </trkpt>
      <trkpt lat="47.51628" lon="6.77461">
        <ele>382.7</ele>
        <time>2014-06-08T07:18:51.000Z</time>
      </trkpt>
      <trkpt lat="47.51623" lon="6.77455">
        <ele>382.4</ele>
        <time>2014-06-08T07:18:52.000Z</time>
      </trkpt>
      <trkpt lat="47.51618" lon="6.77448">
        <ele>381.7</ele>
        <time>2014-06-08T07:18:53.000Z</time>
      </trkpt>
      <trkpt lat="47.51612" lon="6.77441">
        <ele>380.9</ele>
        <time>2014-06-08T07:18:54.000Z</time>
      </trkpt>
      <trkpt lat="47.51607" lon="6.77434">
        <ele>380.8</ele>
        <time>2014-06-08T07:18:55.000Z</time>
      </trkpt>
      <trkpt lat="47.51601" lon="6.77428">
        <ele>380.5</ele>
        <time>2014-06-08T07:18:56.000Z</time>
      </trkpt>
      <trkpt lat="47.51595" lon="6.77421">
        <ele>379.7</ele>
        <time>2014-06-08T07:18:57.000Z</time>
      </trkpt>
      <trkpt lat="47.51589" lon="6.77413">
        <ele>379</ele>
        <time>2014-06-08T07:18:58.000Z</time>
      </trkpt>
      <trkpt lat="47.51583" lon="6.77406">
        <ele>378.3</ele>
        <time>2014-06-08T07:18:59.000Z</time>
      </trkpt>
      <trkpt lat="47.51577" lon="6.77398">
        <ele>378</ele>
        <time>2014-06-08T07:19:00.000Z</time>
      </trkpt>
      <trkpt lat="47.5157" lon="6.7739">
        <ele>377.9</ele>
        <time>2014-06-08T07:19:01.000Z</time>
      </trkpt>
      <trkpt lat="47.51564" lon="6.77382">
        <ele>377.5</ele>
        <time>2014-06-08T07:19:02.000Z</time>
      </trkpt>
      <trkpt lat="47.51558" lon="6.77375">
        <ele>377.1</ele>
        <time>2014-06-08T07:19:03.000Z</time>
      </trkpt>
      <trkpt lat="47.51551" lon="6.77367">
        <ele>376.4</ele>
        <time>2014-06-08T07:19:04.000Z</time>
      </trkpt>
      <trkpt lat="47.51544" lon="6.77359">
        <ele>376.1</ele>
        <time>2014-06-08T07:19:05.000Z</time>
      </trkpt>
      <trkpt lat="47.51537" lon="6.77351">
        <ele>375.6</ele>
        <time>2014-06-08T07:19:06.000Z</time>
      </trkpt>
      <trkpt lat="47.5153" lon="6.77343">
        <ele>374.5</ele>
        <time>2014-06-08T07:19:07.000Z</time>
      </trkpt>
      <trkpt lat="47.51522" lon="6.77334">
        <ele>373.8</ele>
        <time>2014-06-08T07:19:08.000Z</time>
      </trkpt>
      <trkpt lat="47.51515" lon="6.77325">
        <ele>373.1</ele>
        <time>2014-06-08T07:19:09.000Z</time>
      </trkpt>
      <trkpt lat="47.51507" lon="6.77317">
        <ele>372.2</ele>
        <time>2014-06-08T07:19:10.000Z</time>
      </trkpt>
      <trkpt lat="47.51501" lon="6.77308">
        <ele>371.2</ele>
        <time>2014-06-08T07:19:11.000Z</time>
      </trkpt>
      <trkpt lat="47.51495" lon="6.77298">
        <ele>370.4</ele>
        <time>2014-06-08T07:19:12.000Z</time>
      </trkpt>
      <trkpt lat="47.5149" lon="6.77286">
        <ele>370.7</ele>
        <time>2014-06-08T07:19:13.000Z</time>
      </trkpt>
      <trkpt lat="47.51487" lon="6.77275">
        <ele>369.8</ele>
        <time>2014-06-08T07:19:14.000Z</time>
      </trkpt>
      <trkpt lat="47.51484" lon="6.77263">
        <ele>369.4</ele>
        <time>2014-06-08T07:19:15.000Z</time>
      </trkpt>
      <trkpt lat="47.51483" lon="6.77251">
        <ele>369.3</ele>
        <time>2014-06-08T07:19:16.000Z</time>
      </trkpt>
      <trkpt lat="47.51482" lon="6.77239">
        <ele>369</ele>
        <time>2014-06-08T07:19:17.000Z</time>
      </trkpt>
      <trkpt lat="47.51482" lon="6.77228">
        <ele>369.2</ele>
        <time>2014-06-08T07:19:18.000Z</time>
      </trkpt>
      <trkpt lat="47.5148" lon="6.77217">
        <ele>368.7</ele>
        <time>2014-06-08T07:19:19.000Z</time>
      </trkpt>
      <trkpt lat="47.51477" lon="6.77208">
        <ele>369.1</ele>
        <time>2014-06-08T07:19:20.000Z</time>
      </trkpt>
      <trkpt lat="47.51471" lon="6.77202">
        <ele>369.1</ele>
        <time>2014-06-08T07:19:21.000Z</time>
      </trkpt>
      <trkpt lat="47.51465" lon="6.77197">
        <ele>368.9</ele>
        <time>2014-06-08T07:19:22.000Z</time>
      </trkpt>
      <trkpt lat="47.51455" lon="6.772">
        <ele>366.9</ele>
        <time>2014-06-08T07:19:23.000Z</time>
      </trkpt>
      <trkpt lat="47.51447" lon="6.77203">
        <ele>367.1</ele>
        <time>2014-06-08T07:19:24.000Z</time>
      </trkpt>
      <trkpt lat="47.51439" lon="6.77207">
        <ele>367.3</ele>
        <time>2014-06-08T07:19:25.000Z</time>
      </trkpt>
      <trkpt lat="47.51431" lon="6.77211">
        <ele>367.7</ele>
        <time>2014-06-08T07:19:26.000Z</time>
      </trkpt>
      <trkpt lat="47.51423" lon="6.77216">
        <ele>367.8</ele>
        <time>2014-06-08T07:19:27.000Z</time>
      </trkpt>
      <trkpt lat="47.51416" lon="6.77219">
        <ele>368.6</ele>
        <time>2014-06-08T07:19:28.000Z</time>
      </trkpt>
      <trkpt lat="47.51409" lon="6.77222">
        <ele>368.6</ele>
        <time>2014-06-08T07:19:29.000Z</time>
      </trkpt>
      <trkpt lat="47.51402" lon="6.77226">
        <ele>368.8</ele>
        <time>2014-06-08T07:19:30.000Z</time>
      </trkpt>
      <trkpt lat="47.51395" lon="6.77229">
        <ele>369.3</ele>
        <time>2014-06-08T07:19:31.000Z</time>
      </trkpt>
      <trkpt lat="47.51389" lon="6.77233">
        <ele>369.6</ele>
        <time>2014-06-08T07:19:32.000Z</time>
      </trkpt>
      <trkpt lat="47.51384" lon="6.77237">
        <ele>369.3</ele>
        <time>2014-06-08T07:19:33.000Z</time>
      </trkpt>
      <trkpt lat="47.51379" lon="6.7724">
        <ele>370.3</ele>
        <time>2014-06-08T07:19:34.000Z</time>
      </trkpt>
      <trkpt lat="47.51373" lon="6.77243">
        <ele>370.2</ele>
        <time>2014-06-08T07:19:35.000Z</time>
      </trkpt>
      <trkpt lat="47.51369" lon="6.77246">
        <ele>370.6</ele>
        <time>2014-06-08T07:19:36.000Z</time>
      </trkpt>
      <trkpt lat="47.51365" lon="6.77249">
        <ele>371</ele>
        <time>2014-06-08T07:19:37.000Z</time>
      </trkpt>
      <trkpt lat="47.51361" lon="6.77253">
        <ele>371.8</ele>
        <time>2014-06-08T07:19:38.000Z</time>
      </trkpt>
      <trkpt lat="47.51357" lon="6.77255">
        <ele>372</ele>
        <time>2014-06-08T07:19:39.000Z</time>
      </trkpt>
      <trkpt lat="47.5133" lon="6.77278">
        <ele>375.2</ele>
        <time>2014-06-08T07:19:47.000Z</time>
      </trkpt>
      <trkpt lat="47.51326" lon="6.7728">
        <ele>375.6</ele>
        <time>2014-06-08T07:19:48.000Z</time>
      </trkpt>
      <trkpt lat="47.51323" lon="6.77279">
        <ele>376</ele>
        <time>2014-06-08T07:19:49.000Z</time>
      </trkpt>
      <trkpt lat="47.51319" lon="6.7728">
        <ele>375.3</ele>
        <time>2014-06-08T07:19:50.000Z</time>
      </trkpt>
      <trkpt lat="47.51314" lon="6.77279">
        <ele>375.1</ele>
        <time>2014-06-08T07:19:51.000Z</time>
      </trkpt>
      <trkpt lat="47.51309" lon="6.77277">
        <ele>375.5</ele>
        <time>2014-06-08T07:19:52.000Z</time>
      </trkpt>
      <trkpt lat="47.51305" lon="6.77275">
        <ele>376.3</ele>
        <time>2014-06-08T07:19:53.000Z</time>
      </trkpt>
      <trkpt lat="47.513" lon="6.77274">
        <ele>377.1</ele>
        <time>2014-06-08T07:19:54.000Z</time>
      </trkpt>
      <trkpt lat="47.51296" lon="6.77272">
        <ele>377.8</ele>
        <time>2014-06-08T07:19:55.000Z</time>
      </trkpt>
      <trkpt lat="47.51292" lon="6.7727">
        <ele>378.7</ele>
        <time>2014-06-08T07:19:56.000Z</time>
      </trkpt>
      <trkpt lat="47.51288" lon="6.77268">
        <ele>380</ele>
        <time>2014-06-08T07:19:57.000Z</time>
      </trkpt>
      <trkpt lat="47.51285" lon="6.77265">
        <ele>380.6</ele>
        <time>2014-06-08T07:19:58.000Z</time>
      </trkpt>
      <trkpt lat="47.51281" lon="6.77263">
        <ele>380</ele>
        <time>2014-06-08T07:19:59.000Z</time>
      </trkpt>
      <trkpt lat="47.51278" lon="6.77261">
        <ele>380.2</ele>
        <time>2014-06-08T07:20:00.000Z</time>
      </trkpt>
      <trkpt lat="47.51274" lon="6.77259">
        <ele>380.5</ele>
        <time>2014-06-08T07:20:00.999Z</time>
      </trkpt>
      <trkpt lat="47.51271" lon="6.77256">
        <ele>380.7</ele>
        <time>2014-06-08T07:20:02.000Z</time>
      </trkpt>
      <trkpt lat="47.51267" lon="6.77254">
        <ele>380.9</ele>
        <time>2014-06-08T07:20:03.000Z</time>
      </trkpt>
      <trkpt lat="47.51265" lon="6.77248">
        <ele>382.3</ele>
        <time>2014-06-08T07:20:04.000Z</time>
      </trkpt>
      <trkpt lat="47.51261" lon="6.77244">
        <ele>382.6</ele>
        <time>2014-06-08T07:20:05.000Z</time>
      </trkpt>
      <trkpt lat="47.51257" lon="6.77239">
        <ele>382.8</ele>
        <time>2014-06-08T07:20:06.000Z</time>
      </trkpt>
      <trkpt lat="47.51253" lon="6.77234">
        <ele>382.7</ele>
        <time>2014-06-08T07:20:07.000Z</time>
      </trkpt>
      <trkpt lat="47.51249" lon="6.77227">
        <ele>383.1</ele>
        <time>2014-06-08T07:20:08.000Z</time>
      </trkpt>
      <trkpt lat="47.51247" lon="6.77222">
        <ele>383.1</ele>
        <time>2014-06-08T07:20:09.000Z</time>
      </trkpt>
      <trkpt lat="47.51242" lon="6.77216">
        <ele>383.8</ele>
        <time>2014-06-08T07:20:10.000Z</time>
      </trkpt>
      <trkpt lat="47.51238" lon="6.77209">
        <ele>383.5</ele>
        <time>2014-06-08T07:20:11.000Z</time>
      </trkpt>
      <trkpt lat="47.51235" lon="6.77202">
        <ele>384.3</ele>
        <time>2014-06-08T07:20:11.999Z</time>
      </trkpt>
      <trkpt lat="47.51231" lon="6.77194">
        <ele>383.6</ele>
        <time>2014-06-08T07:20:13.000Z</time>
      </trkpt>
      <trkpt lat="47.51227" lon="6.77187">
        <ele>384</ele>
        <time>2014-06-08T07:20:14.000Z</time>
      </trkpt>
      <trkpt lat="47.51224" lon="6.77178">
        <ele>383.4</ele>
        <time>2014-06-08T07:20:15.000Z</time>
      </trkpt>
      <trkpt lat="47.5122" lon="6.77171">
        <ele>383.7</ele>
        <time>2014-06-08T07:20:16.000Z</time>
      </trkpt>
      <trkpt lat="47.51216" lon="6.77164">
        <ele>383.7</ele>
        <time>2014-06-08T07:20:17.000Z</time>
      </trkpt>
      <trkpt lat="47.51206" lon="6.77157">
        <ele>379.5</ele>
        <time>2014-06-08T07:20:18.000Z</time>
      </trkpt>
      <trkpt lat="47.51202" lon="6.7715">
        <ele>379.6</ele>
        <time>2014-06-08T07:20:19.000Z</time>
      </trkpt>
      <trkpt lat="47.51198" lon="6.77142">
        <ele>378.8</ele>
        <time>2014-06-08T07:20:20.000Z</time>
      </trkpt>
      <trkpt lat="47.51194" lon="6.77134">
        <ele>377.7</ele>
        <time>2014-06-08T07:20:21.000Z</time>
      </trkpt>
      <trkpt lat="47.51189" lon="6.77126">
        <ele>377</ele>
        <time>2014-06-08T07:20:22.000Z</time>
      </trkpt>
      <trkpt lat="47.51185" lon="6.77118">
        <ele>377.7</ele>
        <time>2014-06-08T07:20:23.000Z</time>
      </trkpt>
      <trkpt lat="47.51181" lon="6.77109">
        <ele>375.7</ele>
        <time>2014-06-08T07:20:24.000Z</time>
      </trkpt>
      <trkpt lat="47.51176" lon="6.77101">
        <ele>375.9</ele>
        <time>2014-06-08T07:20:25.000Z</time>
      </trkpt>
      <trkpt lat="47.51173" lon="6.77092">
        <ele>376</ele>
        <time>2014-06-08T07:20:26.000Z</time>
      </trkpt>
      <trkpt lat="47.51169" lon="6.77083">
        <ele>375.2</ele>
        <time>2014-06-08T07:20:27.000Z</time>
      </trkpt>
      <trkpt lat="47.51164" lon="6.77074">
        <ele>374.6</ele>
        <time>2014-06-08T07:20:28.000Z</time>
      </trkpt>
      <trkpt lat="47.51159" lon="6.77066">
        <ele>374.5</ele>
        <time>2014-06-08T07:20:29.000Z</time>
      </trkpt>
      <trkpt lat="47.51154" lon="6.77059">
        <ele>374.7</ele>
        <time>2014-06-08T07:20:30.000Z</time>
      </trkpt>
      <trkpt lat="47.51148" lon="6.77053">
        <ele>375</ele>
        <time>2014-06-08T07:20:31.000Z</time>
      </trkpt>
      <trkpt lat="47.51141" lon="6.77047">
        <ele>375.4</ele>
        <time>2014-06-08T07:20:32.000Z</time>
      </trkpt>
      <trkpt lat="47.51134" lon="6.77041">
        <ele>375.6</ele>
        <time>2014-06-08T07:20:33.000Z</time>
      </trkpt>
      <trkpt lat="47.51127" lon="6.77037">
        <ele>374.8</ele>
        <time>2014-06-08T07:20:34.000Z</time>
      </trkpt>
      <trkpt lat="47.51121" lon="6.77031">
        <ele>374.8</ele>
        <time>2014-06-08T07:20:35.000Z</time>
      </trkpt>
      <trkpt lat="47.51115" lon="6.77026">
        <ele>375.3</ele>
        <time>2014-06-08T07:20:36.000Z</time>
      </trkpt>
      <trkpt lat="47.51109" lon="6.7702">
        <ele>374.7</ele>
        <time>2014-06-08T07:20:37.000Z</time>
      </trkpt>
      <trkpt lat="47.51103" lon="6.77014">
        <ele>374.1</ele>
        <time>2014-06-08T07:20:38.000Z</time>
      </trkpt>
      <trkpt lat="47.51097" lon="6.77008">
        <ele>373.8</ele>
        <time>2014-06-08T07:20:39.000Z</time>
      </trkpt>
      <trkpt lat="47.51049" lon="6.76971">
        <ele>371.3</ele>
        <time>2014-06-08T07:20:47.000Z</time>
      </trkpt>
      <trkpt lat="47.51043" lon="6.76965">
        <ele>371.3</ele>
        <time>2014-06-08T07:20:48.000Z</time>
      </trkpt>
      <trkpt lat="47.51036" lon="6.76958">
        <ele>370.7</ele>
        <time>2014-06-08T07:20:48.999Z</time>
      </trkpt>
      <trkpt lat="47.5103" lon="6.76954">
        <ele>370.2</ele>
        <time>2014-06-08T07:20:50.000Z</time>
      </trkpt>
      <trkpt lat="47.51024" lon="6.76949">
        <ele>369.9</ele>
        <time>2014-06-08T07:20:51.000Z</time>
      </trkpt>
      <trkpt lat="47.51019" lon="6.76945">
        <ele>370.3</ele>
        <time>2014-06-08T07:20:52.000Z</time>
      </trkpt>
      <trkpt lat="47.51014" lon="6.76941">
        <ele>370</ele>
        <time>2014-06-08T07:20:53.000Z</time>
      </trkpt>
      <trkpt lat="47.51011" lon="6.76936">
        <ele>371.4</ele>
        <time>2014-06-08T07:20:54.000Z</time>
      </trkpt>
      <trkpt lat="47.51009" lon="6.7693">
        <ele>372.5</ele>
        <time>2014-06-08T07:20:55.000Z</time>
      </trkpt>
      <trkpt lat="47.51005" lon="6.76926">
        <ele>373.1</ele>
        <time>2014-06-08T07:20:56.000Z</time>
      </trkpt>
      <trkpt lat="47.51" lon="6.76923">
        <ele>373.5</ele>
        <time>2014-06-08T07:20:56.999Z</time>
      </trkpt>
      <trkpt lat="47.50996" lon="6.76919">
        <ele>373.6</ele>
        <time>2014-06-08T07:20:58.000Z</time>
      </trkpt>
      <trkpt lat="47.50991" lon="6.76914">
        <ele>373.4</ele>
        <time>2014-06-08T07:20:58.999Z</time>
      </trkpt>
      <trkpt lat="47.5099" lon="6.76907">
        <ele>371.8</ele>
        <time>2014-06-08T07:21:00.000Z</time>
      </trkpt>
      <trkpt lat="47.50987" lon="6.76901">
        <ele>372.2</ele>
        <time>2014-06-08T07:21:01.000Z</time>
      </trkpt>
      <trkpt lat="47.50983" lon="6.76897">
        <ele>371.9</ele>
        <time>2014-06-08T07:21:02.000Z</time>
      </trkpt>
      <trkpt lat="47.50979" lon="6.76895">
        <ele>372</ele>
        <time>2014-06-08T07:21:03.000Z</time>
      </trkpt>
      <trkpt lat="47.50976" lon="6.76894">
        <ele>371.9</ele>
        <time>2014-06-08T07:21:04.000Z</time>
      </trkpt>
      <trkpt lat="47.50967" lon="6.76894">
        <ele>370.8</ele>
        <time>2014-06-08T07:21:05.000Z</time>
      </trkpt>
      <trkpt lat="47.50964" lon="6.76892">
        <ele>370.4</ele>
        <time>2014-06-08T07:21:06.000Z</time>
      </trkpt>
      <trkpt lat="47.5096" lon="6.76891">
        <ele>370.7</ele>
        <time>2014-06-08T07:21:07.000Z</time>
      </trkpt>
      <trkpt lat="47.50955" lon="6.76887">
        <ele>371.6</ele>
        <time>2014-06-08T07:21:08.000Z</time>
      </trkpt>
      <trkpt lat="47.50951" lon="6.76884">
        <ele>372.1</ele>
        <time>2014-06-08T07:21:09.000Z</time>
      </trkpt>
      <trkpt lat="47.50945" lon="6.7688">
        <ele>371.7</ele>
        <time>2014-06-08T07:21:10.000Z</time>
      </trkpt>
      <trkpt lat="47.50943" lon="6.76875">
        <ele>371.5</ele>
        <time>2014-06-08T07:21:11.000Z</time>
      </trkpt>
      <trkpt lat="47.50937" lon="6.76871">
        <ele>370.9</ele>
        <time>2014-06-08T07:21:12.000Z</time>
      </trkpt>
      <trkpt lat="47.50933" lon="6.76866">
        <ele>370.5</ele>
        <time>2014-06-08T07:21:13.000Z</time>
      </trkpt>
      <trkpt lat="47.5093" lon="6.76862">
        <ele>371.5</ele>
        <time>2014-06-08T07:21:14.000Z</time>
      </trkpt>
      <trkpt lat="47.50926" lon="6.76857">
        <ele>371.6</ele>
        <time>2014-06-08T07:21:15.000Z</time>
      </trkpt>
      <trkpt lat="47.50921" lon="6.76853">
        <ele>370.8</ele>
        <time>2014-06-08T07:21:16.000Z</time>
      </trkpt>
      <trkpt lat="47.50918" lon="6.76847">
        <ele>369.6</ele>
        <time>2014-06-08T07:21:17.000Z</time>
      </trkpt>
      <trkpt lat="47.50914" lon="6.76842">
        <ele>368.6</ele>
        <time>2014-06-08T07:21:18.000Z</time>
      </trkpt>
      <trkpt lat="47.50911" lon="6.76835">
        <ele>368.7</ele>
        <time>2014-06-08T07:21:19.000Z</time>
      </trkpt>
      <trkpt lat="47.50908" lon="6.76829">
        <ele>368.6</ele>
        <time>2014-06-08T07:21:20.000Z</time>
      </trkpt>
      <trkpt lat="47.50905" lon="6.76823">
        <ele>368.5</ele>
        <time>2014-06-08T07:21:21.000Z</time>
      </trkpt>
      <trkpt lat="47.50902" lon="6.76817">
        <ele>368.4</ele>
        <time>2014-06-08T07:21:22.000Z</time>
      </trkpt>
      <trkpt lat="47.50899" lon="6.7681">
        <ele>368.2</ele>
        <time>2014-06-08T07:21:23.000Z</time>
      </trkpt>
      <trkpt lat="47.50896" lon="6.76802">
        <ele>367.9</ele>
        <time>2014-06-08T07:21:24.000Z</time>
      </trkpt>
      <trkpt lat="47.50893" lon="6.76797">
        <ele>368.1</ele>
        <time>2014-06-08T07:21:25.000Z</time>
      </trkpt>
      <trkpt lat="47.50891" lon="6.76792">
        <ele>369</ele>
        <time>2014-06-08T07:21:26.000Z</time>
      </trkpt>
      <trkpt lat="47.5089" lon="6.76786">
        <ele>369.9</ele>
        <time>2014-06-08T07:21:26.999Z</time>
      </trkpt>
      <trkpt lat="47.50887" lon="6.76781">
        <ele>369.7</ele>
        <time>2014-06-08T07:21:28.000Z</time>
      </trkpt>
      <trkpt lat="47.50885" lon="6.76776">
        <ele>369.9</ele>
        <time>2014-06-08T07:21:29.000Z</time>
      </trkpt>
      <trkpt lat="47.50882" lon="6.76769">
        <ele>370.3</ele>
        <time>2014-06-08T07:21:30.000Z</time>
      </trkpt>
      <trkpt lat="47.50879" lon="6.76764">
        <ele>370.3</ele>
        <time>2014-06-08T07:21:31.000Z</time>
      </trkpt>
      <trkpt lat="47.50878" lon="6.76758">
        <ele>371.9</ele>
        <time>2014-06-08T07:21:32.000Z</time>
      </trkpt>
      <trkpt lat="47.50875" lon="6.76752">
        <ele>371.8</ele>
        <time>2014-06-08T07:21:33.000Z</time>
      </trkpt>
      <trkpt lat="47.50872" lon="6.76747">
        <ele>371.2</ele>
        <time>2014-06-08T07:21:34.000Z</time>
      </trkpt>
      <trkpt lat="47.50871" lon="6.76741">
        <ele>372.1</ele>
        <time>2014-06-08T07:21:35.000Z</time>
      </trkpt>
      <trkpt lat="47.50869" lon="6.76736">
        <ele>372.4</ele>
        <time>2014-06-08T07:21:36.000Z</time>
      </trkpt>
      <trkpt lat="47.50868" lon="6.7673">
        <ele>372.7</ele>
        <time>2014-06-08T07:21:37.000Z</time>
      </trkpt>
      <trkpt lat="47.50866" lon="6.76724">
        <ele>373.1</ele>
        <time>2014-06-08T07:21:38.000Z</time>
      </trkpt>
      <trkpt lat="47.50865" lon="6.76719">
        <ele>373.2</ele>
        <time>2014-06-08T07:21:39.000Z</time>
      </trkpt>
      <trkpt lat="47.50863" lon="6.76713">
        <ele>374.2</ele>
        <time>2014-06-08T07:21:40.000Z</time>
      </trkpt>
      <trkpt lat="47.50851" lon="6.76674">
        <ele>379.9</ele>
        <time>2014-06-08T07:21:48.000Z</time>
      </trkpt>
      <trkpt lat="47.50849" lon="6.76669">
        <ele>380.5</ele>
        <time>2014-06-08T07:21:49.000Z</time>
      </trkpt>
      <trkpt lat="47.50847" lon="6.76665">
        <ele>382.4</ele>
        <time>2014-06-08T07:21:50.000Z</time>
      </trkpt>
      <trkpt lat="47.50845" lon="6.76662">
        <ele>382.7</ele>
        <time>2014-06-08T07:21:51.000Z</time>
      </trkpt>
      <trkpt lat="47.50843" lon="6.76657">
        <ele>382.3</ele>
        <time>2014-06-08T07:21:52.000Z</time>
      </trkpt>
      <trkpt lat="47.50841" lon="6.76654">
        <ele>382.1</ele>
        <time>2014-06-08T07:21:53.000Z</time>
      </trkpt>
      <trkpt lat="47.50838" lon="6.76649">
        <ele>380.2</ele>
        <time>2014-06-08T07:21:54.000Z</time>
      </trkpt>
      <trkpt lat="47.50835" lon="6.76645">
        <ele>380.8</ele>
        <time>2014-06-08T07:21:55.000Z</time>
      </trkpt>
      <trkpt lat="47.50832" lon="6.7664">
        <ele>381</ele>
        <time>2014-06-08T07:21:56.000Z</time>
      </trkpt>
      <trkpt lat="47.5083" lon="6.76636">
        <ele>382.7</ele>
        <time>2014-06-08T07:21:57.000Z</time>
      </trkpt>
      <trkpt lat="47.50828" lon="6.76632">
        <ele>384</ele>
        <time>2014-06-08T07:21:58.000Z</time>
      </trkpt>
      <trkpt lat="47.50826" lon="6.76628">
        <ele>384.2</ele>
        <time>2014-06-08T07:21:59.000Z</time>
      </trkpt>
      <trkpt lat="47.50825" lon="6.76623">
        <ele>386.1</ele>
        <time>2014-06-08T07:22:00.000Z</time>
      </trkpt>
      <trkpt lat="47.50823" lon="6.76619">
        <ele>387.1</ele>
        <time>2014-06-08T07:22:01.000Z</time>
      </trkpt>
      <trkpt lat="47.50821" lon="6.76615">
        <ele>388.1</ele>
        <time>2014-06-08T07:22:02.000Z</time>
      </trkpt>
      <trkpt lat="47.5082" lon="6.7661">
        <ele>387.6</ele>
        <time>2014-06-08T07:22:03.000Z</time>
      </trkpt>
      <trkpt lat="47.50819" lon="6.76606">
        <ele>388.5</ele>
        <time>2014-06-08T07:22:04.000Z</time>
      </trkpt>
      <trkpt lat="47.50818" lon="6.76601">
        <ele>388.4</ele>
        <time>2014-06-08T07:22:05.000Z</time>
      </trkpt>
      <trkpt lat="47.50817" lon="6.76597">
        <ele>388.5</ele>
        <time>2014-06-08T07:22:06.000Z</time>
      </trkpt>
      <trkpt lat="47.50814" lon="6.76592">
        <ele>387</ele>
        <time>2014-06-08T07:22:08.000Z</time>
      </trkpt>
      <trkpt lat="47.50812" lon="6.76593">
        <ele>387.3</ele>
        <time>2014-06-08T07:22:09.000Z</time>
      </trkpt>
      <trkpt lat="47.5081" lon="6.76595">
        <ele>386.9</ele>
        <time>2014-06-08T07:22:10.000Z</time>
      </trkpt>
      <trkpt lat="47.50808" lon="6.76596">
        <ele>387.4</ele>
        <time>2014-06-08T07:22:11.000Z</time>
      </trkpt>
      <trkpt lat="47.50804" lon="6.76594">
        <ele>387.7</ele>
        <time>2014-06-08T07:22:13.000Z</time>
      </trkpt>
      <trkpt lat="47.50802" lon="6.7659">
        <ele>387.8</ele>
        <time>2014-06-08T07:22:14.000Z</time>
      </trkpt>
      <trkpt lat="47.508" lon="6.76586">
        <ele>387.9</ele>
        <time>2014-06-08T07:22:15.000Z</time>
      </trkpt>
      <trkpt lat="47.50798" lon="6.76583">
        <ele>387.9</ele>
        <time>2014-06-08T07:22:16.000Z</time>
      </trkpt>
      <trkpt lat="47.50794" lon="6.76579">
        <ele>388.5</ele>
        <time>2014-06-08T07:22:18.000Z</time>
      </trkpt>
      <trkpt lat="47.50792" lon="6.76579">
        <ele>390.7</ele>
        <time>2014-06-08T07:22:19.000Z</time>
      </trkpt>
      <trkpt lat="47.50789" lon="6.76582">
        <ele>393.6</ele>
        <time>2014-06-08T07:22:23.000Z</time>
      </trkpt>
      <trkpt lat="47.50788" lon="6.76583">
        <ele>393.7</ele>
        <time>2014-06-08T07:22:24.000Z</time>
      </trkpt>
      <trkpt lat="47.50785" lon="6.76583">
        <ele>394.8</ele>
        <time>2014-06-08T07:22:26.000Z</time>
      </trkpt>
      <trkpt lat="47.50782" lon="6.76583">
        <ele>394.2</ele>
        <time>2014-06-08T07:22:27.000Z</time>
      </trkpt>
      <trkpt lat="47.5078" lon="6.76583">
        <ele>394.7</ele>
        <time>2014-06-08T07:22:28.000Z</time>
      </trkpt>
      <trkpt lat="47.50777" lon="6.76584">
        <ele>394.4</ele>
        <time>2014-06-08T07:22:29.000Z</time>
      </trkpt>
      <trkpt lat="47.50774" lon="6.76585">
        <ele>393.8</ele>
        <time>2014-06-08T07:22:30.000Z</time>
      </trkpt>
      <trkpt lat="47.50771" lon="6.76586">
        <ele>393.7</ele>
        <time>2014-06-08T07:22:31.000Z</time>
      </trkpt>
      <trkpt lat="47.50768" lon="6.76587">
        <ele>393</ele>
        <time>2014-06-08T07:22:32.000Z</time>
      </trkpt>
      <trkpt lat="47.50764" lon="6.76588">
        <ele>392.8</ele>
        <time>2014-06-08T07:22:33.000Z</time>
      </trkpt>
      <trkpt lat="47.50761" lon="6.76588">
        <ele>392.3</ele>
        <time>2014-06-08T07:22:34.000Z</time>
      </trkpt>
      <trkpt lat="47.50758" lon="6.76589">
        <ele>391.9</ele>
        <time>2014-06-08T07:22:35.000Z</time>
      </trkpt>
      <trkpt lat="47.50754" lon="6.76589">
        <ele>392</ele>
        <time>2014-06-08T07:22:36.000Z</time>
      </trkpt>
      <trkpt lat="47.50751" lon="6.76589">
        <ele>392.2</ele>
        <time>2014-06-08T07:22:37.000Z</time>
      </trkpt>
      <trkpt lat="47.50748" lon="6.76589">
        <ele>392.2</ele>
        <time>2014-06-08T07:22:38.000Z</time>
      </trkpt>
      <trkpt lat="47.50745" lon="6.7659">
        <ele>391.5</ele>
        <time>2014-06-08T07:22:39.000Z</time>
      </trkpt>
      <trkpt lat="47.50717" lon="6.76588">
        <ele>393.4</ele>
        <time>2014-06-08T07:22:48.000Z</time>
      </trkpt>
      <trkpt lat="47.50714" lon="6.76587">
        <ele>394.1</ele>
        <time>2014-06-08T07:22:49.000Z</time>
      </trkpt>
      <trkpt lat="47.50711" lon="6.76587">
        <ele>394.6</ele>
        <time>2014-06-08T07:22:50.000Z</time>
      </trkpt>
      <trkpt lat="47.50708" lon="6.76586">
        <ele>394.4</ele>
        <time>2014-06-08T07:22:51.000Z</time>
      </trkpt>
      <trkpt lat="47.50704" lon="6.76585">
        <ele>394.7</ele>
        <time>2014-06-08T07:22:52.000Z</time>
      </trkpt>
      <trkpt lat="47.50701" lon="6.76585">
        <ele>394.6</ele>
        <time>2014-06-08T07:22:53.000Z</time>
      </trkpt>
      <trkpt lat="47.50698" lon="6.76585">
        <ele>395</ele>
        <time>2014-06-08T07:22:54.000Z</time>
      </trkpt>
      <trkpt lat="47.50694" lon="6.76585">
        <ele>395.1</ele>
        <time>2014-06-08T07:22:55.000Z</time>
      </trkpt>
      <trkpt lat="47.50691" lon="6.76585">
        <ele>395.1</ele>
        <time>2014-06-08T07:22:56.000Z</time>
      </trkpt>
      <trkpt lat="47.50688" lon="6.76585">
        <ele>395.3</ele>
        <time>2014-06-08T07:22:57.000Z</time>
      </trkpt>
      <trkpt lat="47.50684" lon="6.76586">
        <ele>395.4</ele>
        <time>2014-06-08T07:22:58.000Z</time>
      </trkpt>
      <trkpt lat="47.50681" lon="6.76586">
        <ele>395.6</ele>
        <time>2014-06-08T07:22:59.000Z</time>
      </trkpt>
      <trkpt lat="47.50677" lon="6.76587">
        <ele>395.8</ele>
        <time>2014-06-08T07:23:00.000Z</time>
      </trkpt>
      <trkpt lat="47.50674" lon="6.76587">
        <ele>395.8</ele>
        <time>2014-06-08T07:23:01.000Z</time>
      </trkpt>
      <trkpt lat="47.50671" lon="6.76588">
        <ele>395.8</ele>
        <time>2014-06-08T07:23:02.000Z</time>
      </trkpt>
      <trkpt lat="47.50668" lon="6.76589">
        <ele>395.8</ele>
        <time>2014-06-08T07:23:03.000Z</time>
      </trkpt>
      <trkpt lat="47.50664" lon="6.7659">
        <ele>395.8</ele>
        <time>2014-06-08T07:23:04.000Z</time>
      </trkpt>
      <trkpt lat="47.50661" lon="6.76592">
        <ele>395.9</ele>
        <time>2014-06-08T07:23:05.000Z</time>
      </trkpt>
      <trkpt lat="47.50658" lon="6.76593">
        <ele>395.8</ele>
        <time>2014-06-08T07:23:06.000Z</time>
      </trkpt>
      <trkpt lat="47.50655" lon="6.76594">
        <ele>396</ele>
        <time>2014-06-08T07:23:07.000Z</time>
      </trkpt>
      <trkpt lat="47.50651" lon="6.76595">
        <ele>396.3</ele>
        <time>2014-06-08T07:23:08.000Z</time>
      </trkpt>
      <trkpt lat="47.50648" lon="6.76596">
        <ele>396.3</ele>
        <time>2014-06-08T07:23:09.000Z</time>
      </trkpt>
      <trkpt lat="47.50645" lon="6.76597">
        <ele>396.3</ele>
        <time>2014-06-08T07:23:10.000Z</time>
      </trkpt>
      <trkpt lat="47.50641" lon="6.76599">
        <ele>396.3</ele>
        <time>2014-06-08T07:23:11.000Z</time>
      </trkpt>
      <trkpt lat="47.50638" lon="6.76601">
        <ele>395.8</ele>
        <time>2014-06-08T07:23:12.000Z</time>
      </trkpt>
      <trkpt lat="47.50635" lon="6.76603">
        <ele>396</ele>
        <time>2014-06-08T07:23:13.000Z</time>
      </trkpt>
      <trkpt lat="47.50631" lon="6.76605">
        <ele>396.2</ele>
        <time>2014-06-08T07:23:14.000Z</time>
      </trkpt>
      <trkpt lat="47.50628" lon="6.76607">
        <ele>396.4</ele>
        <time>2014-06-08T07:23:15.000Z</time>
      </trkpt>
      <trkpt lat="47.50626" lon="6.76609">
        <ele>396.6</ele>
        <time>2014-06-08T07:23:16.000Z</time>
      </trkpt>
      <trkpt lat="47.50623" lon="6.76611">
        <ele>396.6</ele>
        <time>2014-06-08T07:23:17.000Z</time>
      </trkpt>
      <trkpt lat="47.5062" lon="6.76613">
        <ele>396.7</ele>
        <time>2014-06-08T07:23:18.000Z</time>
      </trkpt>
      <trkpt lat="47.50617" lon="6.76615">
        <ele>396.8</ele>
        <time>2014-06-08T07:23:19.000Z</time>
      </trkpt>
      <trkpt lat="47.50613" lon="6.76616">
        <ele>396.7</ele>
        <time>2014-06-08T07:23:20.000Z</time>
      </trkpt>
      <trkpt lat="47.5061" lon="6.76618">
        <ele>397</ele>
        <time>2014-06-08T07:23:21.000Z</time>
      </trkpt>
      <trkpt lat="47.50607" lon="6.7662">
        <ele>397.4</ele>
        <time>2014-06-08T07:23:22.000Z</time>
      </trkpt>
      <trkpt lat="47.50604" lon="6.76621">
        <ele>397.7</ele>
        <time>2014-06-08T07:23:23.000Z</time>
      </trkpt>
      <trkpt lat="47.50601" lon="6.76622">
        <ele>397.8</ele>
        <time>2014-06-08T07:23:24.000Z</time>
      </trkpt>
      <trkpt lat="47.50597" lon="6.76623">
        <ele>398.1</ele>
        <time>2014-06-08T07:23:25.000Z</time>
      </trkpt>
      <trkpt lat="47.50594" lon="6.76624">
        <ele>398.2</ele>
        <time>2014-06-08T07:23:26.000Z</time>
      </trkpt>
      <trkpt lat="47.50591" lon="6.76625">
        <ele>398.6</ele>
        <time>2014-06-08T07:23:27.000Z</time>
      </trkpt>
      <trkpt lat="47.50588" lon="6.76626">
        <ele>398.8</ele>
        <time>2014-06-08T07:23:28.000Z</time>
      </trkpt>
      <trkpt lat="47.50584" lon="6.76627">
        <ele>399.1</ele>
        <time>2014-06-08T07:23:29.000Z</time>
      </trkpt>
      <trkpt lat="47.50581" lon="6.76628">
        <ele>399.3</ele>
        <time>2014-06-08T07:23:30.000Z</time>
      </trkpt>
      <trkpt lat="47.50577" lon="6.7663">
        <ele>399.9</ele>
        <time>2014-06-08T07:23:31.000Z</time>
      </trkpt>
      <trkpt lat="47.50574" lon="6.76631">
        <ele>400.2</ele>
        <time>2014-06-08T07:23:32.000Z</time>
      </trkpt>
      <trkpt lat="47.5057" lon="6.76632">
        <ele>400.4</ele>
        <time>2014-06-08T07:23:33.000Z</time>
      </trkpt>
      <trkpt lat="47.50567" lon="6.76632">
        <ele>400.5</ele>
        <time>2014-06-08T07:23:34.000Z</time>
      </trkpt>
      <trkpt lat="47.50564" lon="6.76633">
        <ele>400.8</ele>
        <time>2014-06-08T07:23:35.000Z</time>
      </trkpt>
      <trkpt lat="47.50561" lon="6.76634">
        <ele>401.1</ele>
        <time>2014-06-08T07:23:36.000Z</time>
      </trkpt>
      <trkpt lat="47.50557" lon="6.76635">
        <ele>401.3</ele>
        <time>2014-06-08T07:23:37.000Z</time>
      </trkpt>
      <trkpt lat="47.50554" lon="6.76636">
        <ele>401.5</ele>
        <time>2014-06-08T07:23:38.000Z</time>
      </trkpt>
      <trkpt lat="47.50551" lon="6.76637">
        <ele>401.7</ele>
        <time>2014-06-08T07:23:39.000Z</time>
      </trkpt>
      <trkpt lat="47.50547" lon="6.76638">
        <ele>401.7</ele>
        <time>2014-06-08T07:23:40.000Z</time>
      </trkpt>
      <trkpt lat="47.50516" lon="6.76647">
        <ele>403.1</ele>
        <time>2014-06-08T07:23:48.000Z</time>
      </trkpt>
      <trkpt lat="47.50509" lon="6.76649">
        <ele>402.3</ele>
        <time>2014-06-08T07:23:49.000Z</time>
      </trkpt>
      <trkpt lat="47.50504" lon="6.76651">
        <ele>402.1</ele>
        <time>2014-06-08T07:23:50.000Z</time>
      </trkpt>
      <trkpt lat="47.50499" lon="6.76652">
        <ele>402.1</ele>
        <time>2014-06-08T07:23:51.000Z</time>
      </trkpt>
      <trkpt lat="47.50494" lon="6.76654">
        <ele>401.9</ele>
        <time>2014-06-08T07:23:52.000Z</time>
      </trkpt>
      <trkpt lat="47.50489" lon="6.76657">
        <ele>401.9</ele>
        <time>2014-06-08T07:23:53.000Z</time>
      </trkpt>
      <trkpt lat="47.50484" lon="6.76658">
        <ele>401.9</ele>
        <time>2014-06-08T07:23:54.000Z</time>
      </trkpt>
      <trkpt lat="47.50478" lon="6.7666">
        <ele>402.1</ele>
        <time>2014-06-08T07:23:55.000Z</time>
      </trkpt>
      <trkpt lat="47.50473" lon="6.76662">
        <ele>401.6</ele>
        <time>2014-06-08T07:23:56.000Z</time>
      </trkpt>
      <trkpt lat="47.50468" lon="6.76664">
        <ele>401.6</ele>
        <time>2014-06-08T07:23:57.000Z</time>
      </trkpt>
      <trkpt lat="47.50463" lon="6.76666">
        <ele>401.3</ele>
        <time>2014-06-08T07:23:58.000Z</time>
      </trkpt>
      <trkpt lat="47.50458" lon="6.76669">
        <ele>401.1</ele>
        <time>2014-06-08T07:23:59.000Z</time>
      </trkpt>
      <trkpt lat="47.50453" lon="6.76671">
        <ele>401.3</ele>
        <time>2014-06-08T07:24:00.000Z</time>
      </trkpt>
      <trkpt lat="47.50449" lon="6.76673">
        <ele>401.3</ele>
        <time>2014-06-08T07:24:01.000Z</time>
      </trkpt>
      <trkpt lat="47.50444" lon="6.76674">
        <ele>401.1</ele>
        <time>2014-06-08T07:24:02.000Z</time>
      </trkpt>
      <trkpt lat="47.50439" lon="6.76676">
        <ele>401.2</ele>
        <time>2014-06-08T07:24:03.000Z</time>
      </trkpt>
      <trkpt lat="47.50434" lon="6.76679">
        <ele>401.3</ele>
        <time>2014-06-08T07:24:04.000Z</time>
      </trkpt>
      <trkpt lat="47.50429" lon="6.7668">
        <ele>400.8</ele>
        <time>2014-06-08T07:24:05.000Z</time>
      </trkpt>
      <trkpt lat="47.50424" lon="6.76683">
        <ele>400.7</ele>
        <time>2014-06-08T07:24:05.999Z</time>
      </trkpt>
      <trkpt lat="47.5042" lon="6.76684">
        <ele>401.4</ele>
        <time>2014-06-08T07:24:07.000Z</time>
      </trkpt>
      <trkpt lat="47.50414" lon="6.76686">
        <ele>401.1</ele>
        <time>2014-06-08T07:24:08.000Z</time>
      </trkpt>
      <trkpt lat="47.50409" lon="6.76688">
        <ele>401.1</ele>
        <time>2014-06-08T07:24:09.000Z</time>
      </trkpt>
      <trkpt lat="47.50404" lon="6.7669">
        <ele>401</ele>
        <time>2014-06-08T07:24:10.000Z</time>
      </trkpt>
      <trkpt lat="47.504" lon="6.76692">
        <ele>401</ele>
        <time>2014-06-08T07:24:11.000Z</time>
      </trkpt>
      <trkpt lat="47.50395" lon="6.76694">
        <ele>401</ele>
        <time>2014-06-08T07:24:12.000Z</time>
      </trkpt>
      <trkpt lat="47.5039" lon="6.76696">
        <ele>401.3</ele>
        <time>2014-06-08T07:24:13.000Z</time>
      </trkpt>
      <trkpt lat="47.50386" lon="6.76698">
        <ele>401.1</ele>
        <time>2014-06-08T07:24:14.000Z</time>
      </trkpt>
      <trkpt lat="47.50381" lon="6.76699">
        <ele>401.3</ele>
        <time>2014-06-08T07:24:15.000Z</time>
      </trkpt>
      <trkpt lat="47.50377" lon="6.76701">
        <ele>401.3</ele>
        <time>2014-06-08T07:24:16.000Z</time>
      </trkpt>
      <trkpt lat="47.50372" lon="6.76704">
        <ele>401.5</ele>
        <time>2014-06-08T07:24:17.000Z</time>
      </trkpt>
      <trkpt lat="47.50368" lon="6.76706">
        <ele>401.4</ele>
        <time>2014-06-08T07:24:18.000Z</time>
      </trkpt>
      <trkpt lat="47.50363" lon="6.76708">
        <ele>401.4</ele>
        <time>2014-06-08T07:24:19.000Z</time>
      </trkpt>
      <trkpt lat="47.50359" lon="6.7671">
        <ele>401.3</ele>
        <time>2014-06-08T07:24:20.000Z</time>
      </trkpt>
      <trkpt lat="47.50354" lon="6.76712">
        <ele>401.4</ele>
        <time>2014-06-08T07:24:21.000Z</time>
      </trkpt>
      <trkpt lat="47.5035" lon="6.76715">
        <ele>401.2</ele>
        <time>2014-06-08T07:24:22.000Z</time>
      </trkpt>
      <trkpt lat="47.50345" lon="6.76716">
        <ele>400.8</ele>
        <time>2014-06-08T07:24:23.000Z</time>
      </trkpt>
      <trkpt lat="47.50341" lon="6.76718">
        <ele>400.9</ele>
        <time>2014-06-08T07:24:24.000Z</time>
      </trkpt>
      <trkpt lat="47.50337" lon="6.76719">
        <ele>401.4</ele>
        <time>2014-06-08T07:24:25.000Z</time>
      </trkpt>
      <trkpt lat="47.50332" lon="6.76721">
        <ele>401.5</ele>
        <time>2014-06-08T07:24:26.000Z</time>
      </trkpt>
      <trkpt lat="47.50328" lon="6.76722">
        <ele>402.5</ele>
        <time>2014-06-08T07:24:27.000Z</time>
      </trkpt>
      <trkpt lat="47.50323" lon="6.76724">
        <ele>402.4</ele>
        <time>2014-06-08T07:24:28.000Z</time>
      </trkpt>
      <trkpt lat="47.50319" lon="6.76725">
        <ele>402.5</ele>
        <time>2014-06-08T07:24:29.000Z</time>
      </trkpt>
      <trkpt lat="47.50315" lon="6.76727">
        <ele>401.9</ele>
        <time>2014-06-08T07:24:30.000Z</time>
      </trkpt>
      <trkpt lat="47.50311" lon="6.76729">
        <ele>402.4</ele>
        <time>2014-06-08T07:24:31.000Z</time>
      </trkpt>
      <trkpt lat="47.50307" lon="6.76731">
        <ele>402.6</ele>
        <time>2014-06-08T07:24:32.000Z</time>
      </trkpt>
      <trkpt lat="47.50302" lon="6.7673">
        <ele>401.1</ele>
        <time>2014-06-08T07:24:33.000Z</time>
      </trkpt>
      <trkpt lat="47.50299" lon="6.76732">
        <ele>400.7</ele>
        <time>2014-06-08T07:24:34.000Z</time>
      </trkpt>
      <trkpt lat="47.50296" lon="6.76732">
        <ele>400.7</ele>
        <time>2014-06-08T07:24:35.000Z</time>
      </trkpt>
      <trkpt lat="47.50293" lon="6.76731">
        <ele>403.5</ele>
        <time>2014-06-08T07:24:36.000Z</time>
      </trkpt>
      <trkpt lat="47.50288" lon="6.76732">
        <ele>403.6</ele>
        <time>2014-06-08T07:24:37.000Z</time>
      </trkpt>
      <trkpt lat="47.50284" lon="6.76733">
        <ele>403.8</ele>
        <time>2014-06-08T07:24:38.000Z</time>
      </trkpt>
      <trkpt lat="47.5028" lon="6.76735">
        <ele>403.8</ele>
        <time>2014-06-08T07:24:39.000Z</time>
      </trkpt>
      <trkpt lat="47.5025" lon="6.76742">
        <ele>407.1</ele>
        <time>2014-06-08T07:24:47.000Z</time>
      </trkpt>
      <trkpt lat="47.50247" lon="6.7674">
        <ele>408.2</ele>
        <time>2014-06-08T07:24:48.000Z</time>
      </trkpt>
      <trkpt lat="47.50245" lon="6.76737">
        <ele>408</ele>
        <time>2014-06-08T07:24:49.000Z</time>
      </trkpt>
      <trkpt lat="47.50243" lon="6.76733">
        <ele>408.1</ele>
        <time>2014-06-08T07:24:50.000Z</time>
      </trkpt>
      <trkpt lat="47.50241" lon="6.76727">
        <ele>408.5</ele>
        <time>2014-06-08T07:24:51.000Z</time>
      </trkpt>
      <trkpt lat="47.50239" lon="6.76722">
        <ele>408.4</ele>
        <time>2014-06-08T07:24:52.000Z</time>
      </trkpt>
      <trkpt lat="47.50237" lon="6.76717">
        <ele>408.4</ele>
        <time>2014-06-08T07:24:53.000Z</time>
      </trkpt>
      <trkpt lat="47.50235" lon="6.76712">
        <ele>408.1</ele>
        <time>2014-06-08T07:24:54.000Z</time>
      </trkpt>
      <trkpt lat="47.50233" lon="6.76707">
        <ele>408.2</ele>
        <time>2014-06-08T07:24:55.000Z</time>
      </trkpt>
      <trkpt lat="47.50231" lon="6.76702">
        <ele>408.1</ele>
        <time>2014-06-08T07:24:56.000Z</time>
      </trkpt>
      <trkpt lat="47.50229" lon="6.76697">
        <ele>408.3</ele>
        <time>2014-06-08T07:24:57.000Z</time>
      </trkpt>
      <trkpt lat="47.50228" lon="6.76692">
        <ele>408.2</ele>
        <time>2014-06-08T07:24:58.000Z</time>
      </trkpt>
      <trkpt lat="47.50226" lon="6.76687">
        <ele>408.4</ele>
        <time>2014-06-08T07:24:59.000Z</time>
      </trkpt>
      <trkpt lat="47.50224" lon="6.76682">
        <ele>408.5</ele>
        <time>2014-06-08T07:25:00.000Z</time>
      </trkpt>
      <trkpt lat="47.50222" lon="6.76677">
        <ele>408.5</ele>
        <time>2014-06-08T07:25:01.000Z</time>
      </trkpt>
      <trkpt lat="47.5022" lon="6.76672">
        <ele>408.2</ele>
        <time>2014-06-08T07:25:02.000Z</time>
      </trkpt>
      <trkpt lat="47.50219" lon="6.76667">
        <ele>408.3</ele>
        <time>2014-06-08T07:25:03.000Z</time>
      </trkpt>
      <trkpt lat="47.50217" lon="6.76661">
        <ele>408.3</ele>
        <time>2014-06-08T07:25:04.000Z</time>
      </trkpt>
      <trkpt lat="47.50215" lon="6.76656">
        <ele>408</ele>
        <time>2014-06-08T07:25:05.000Z</time>
      </trkpt>
      <trkpt lat="47.50214" lon="6.7665">
        <ele>407.7</ele>
        <time>2014-06-08T07:25:06.000Z</time>
      </trkpt>
      <trkpt lat="47.50212" lon="6.76644">
        <ele>407.8</ele>
        <time>2014-06-08T07:25:07.000Z</time>
      </trkpt>
      <trkpt lat="47.5021" lon="6.76639">
        <ele>407.6</ele>
        <time>2014-06-08T07:25:08.000Z</time>
      </trkpt>
      <trkpt lat="47.50208" lon="6.76633">
        <ele>407.5</ele>
        <time>2014-06-08T07:25:09.000Z</time>
      </trkpt>
      <trkpt lat="47.50207" lon="6.76628">
        <ele>407.5</ele>
        <time>2014-06-08T07:25:10.000Z</time>
      </trkpt>
      <trkpt lat="47.50205" lon="6.76622">
        <ele>406.8</ele>
        <time>2014-06-08T07:25:11.000Z</time>
      </trkpt>
      <trkpt lat="47.50203" lon="6.76617">
        <ele>406</ele>
        <time>2014-06-08T07:25:12.000Z</time>
      </trkpt>
      <trkpt lat="47.50201" lon="6.76612">
        <ele>405.8</ele>
        <time>2014-06-08T07:25:13.000Z</time>
      </trkpt>
      <trkpt lat="47.50199" lon="6.76607">
        <ele>405.6</ele>
        <time>2014-06-08T07:25:14.000Z</time>
      </trkpt>
      <trkpt lat="47.50197" lon="6.76602">
        <ele>404.6</ele>
        <time>2014-06-08T07:25:15.000Z</time>
      </trkpt>
      <trkpt lat="47.50196" lon="6.76598">
        <ele>403.9</ele>
        <time>2014-06-08T07:25:16.000Z</time>
      </trkpt>
      <trkpt lat="47.50196" lon="6.76595">
        <ele>403.6</ele>
        <time>2014-06-08T07:25:17.000Z</time>
      </trkpt>
      <trkpt lat="47.50195" lon="6.7659">
        <ele>401.5</ele>
        <time>2014-06-08T07:25:20.000Z</time>
      </trkpt>
      <trkpt lat="47.50194" lon="6.76588">
        <ele>400</ele>
        <time>2014-06-08T07:25:21.000Z</time>
      </trkpt>
      <trkpt lat="47.50192" lon="6.76583">
        <ele>399.8</ele>
        <time>2014-06-08T07:25:25.000Z</time>
      </trkpt>
      <trkpt lat="47.50193" lon="6.76581">
        <ele>399.5</ele>
        <time>2014-06-08T07:25:26.000Z</time>
      </trkpt>
      <trkpt lat="47.50194" lon="6.76579">
        <ele>399.5</ele>
        <time>2014-06-08T07:25:27.000Z</time>
      </trkpt>
      <trkpt lat="47.50197" lon="6.76579">
        <ele>401</ele>
        <time>2014-06-08T07:25:28.000Z</time>
      </trkpt>
      <trkpt lat="47.50202" lon="6.7658">
        <ele>400.6</ele>
        <time>2014-06-08T07:25:29.000Z</time>
      </trkpt>
      <trkpt lat="47.50206" lon="6.76581">
        <ele>400.7</ele>
        <time>2014-06-08T07:25:30.000Z</time>
      </trkpt>
      <trkpt lat="47.50211" lon="6.76583">
        <ele>401.1</ele>
        <time>2014-06-08T07:25:31.000Z</time>
      </trkpt>
      <trkpt lat="47.50216" lon="6.76583">
        <ele>403.1</ele>
        <time>2014-06-08T07:25:32.000Z</time>
      </trkpt>
      <trkpt lat="47.5022" lon="6.76582">
        <ele>402.9</ele>
        <time>2014-06-08T07:25:33.000Z</time>
      </trkpt>
      <trkpt lat="47.50223" lon="6.76577">
        <ele>403.1</ele>
        <time>2014-06-08T07:25:34.000Z</time>
      </trkpt>
      <trkpt lat="47.50226" lon="6.76571">
        <ele>402.8</ele>
        <time>2014-06-08T07:25:35.000Z</time>
      </trkpt>
      <trkpt lat="47.50227" lon="6.76563">
        <ele>402.6</ele>
        <time>2014-06-08T07:25:36.000Z</time>
      </trkpt>
      <trkpt lat="47.50224" lon="6.7654">
        <ele>402.1</ele>
        <time>2014-06-08T07:25:37.000Z</time>
      </trkpt>
      <trkpt lat="47.5022" lon="6.76527">
        <ele>401.9</ele>
        <time>2014-06-08T07:25:38.000Z</time>
      </trkpt>
      <trkpt lat="47.50217" lon="6.76517">
        <ele>401.4</ele>
        <time>2014-06-08T07:25:39.000Z</time>
      </trkpt>
      <trkpt lat="47.50196" lon="6.76421">
        <ele>401.5</ele>
        <time>2014-06-08T07:25:47.000Z</time>
      </trkpt>
      <trkpt lat="47.50195" lon="6.7641">
        <ele>403.7</ele>
        <time>2014-06-08T07:25:48.000Z</time>
      </trkpt>
      <trkpt lat="47.50188" lon="6.76395">
        <ele>401.8</ele>
        <time>2014-06-08T07:25:49.000Z</time>
      </trkpt>
      <trkpt lat="47.50187" lon="6.76386">
        <ele>402</ele>
        <time>2014-06-08T07:25:49.999Z</time>
      </trkpt>
      <trkpt lat="47.50177" lon="6.76374">
        <ele>400.1</ele>
        <time>2014-06-08T07:25:51.000Z</time>
      </trkpt>
      <trkpt lat="47.50172" lon="6.76363">
        <ele>399</ele>
        <time>2014-06-08T07:25:52.000Z</time>
      </trkpt>
      <trkpt lat="47.50171" lon="6.76353">
        <ele>398.3</ele>
        <time>2014-06-08T07:25:53.000Z</time>
      </trkpt>
      <trkpt lat="47.50169" lon="6.76343">
        <ele>400.5</ele>
        <time>2014-06-08T07:25:54.000Z</time>
      </trkpt>
      <trkpt lat="47.50168" lon="6.76334">
        <ele>402.1</ele>
        <time>2014-06-08T07:25:54.999Z</time>
      </trkpt>
      <trkpt lat="47.50165" lon="6.76322">
        <ele>402.2</ele>
        <time>2014-06-08T07:25:56.000Z</time>
      </trkpt>
      <trkpt lat="47.50164" lon="6.76312">
        <ele>402.5</ele>
        <time>2014-06-08T07:25:57.001Z</time>
      </trkpt>
      <trkpt lat="47.5016" lon="6.76307">
        <ele>401.8</ele>
        <time>2014-06-08T07:25:58.000Z</time>
      </trkpt>
      <trkpt lat="47.5016" lon="6.76293">
        <ele>401</ele>
        <time>2014-06-08T07:25:59.000Z</time>
      </trkpt>
      <trkpt lat="47.5016" lon="6.76282">
        <ele>403.2</ele>
        <time>2014-06-08T07:26:00.000Z</time>
      </trkpt>
      <trkpt lat="47.5016" lon="6.7627">
        <ele>403.1</ele>
        <time>2014-06-08T07:26:01.000Z</time>
      </trkpt>
      <trkpt lat="47.50159" lon="6.7626">
        <ele>403.4</ele>
        <time>2014-06-08T07:26:02.000Z</time>
      </trkpt>
      <trkpt lat="47.50156" lon="6.76251">
        <ele>402.4</ele>
        <time>2014-06-08T07:26:03.000Z</time>
      </trkpt>
      <trkpt lat="47.50154" lon="6.76241">
        <ele>401.8</ele>
        <time>2014-06-08T07:26:04.000Z</time>
      </trkpt>
      <trkpt lat="47.50151" lon="6.76232">
        <ele>401.1</ele>
        <time>2014-06-08T07:26:05.000Z</time>
      </trkpt>
      <trkpt lat="47.50149" lon="6.76222">
        <ele>400.2</ele>
        <time>2014-06-08T07:26:06.000Z</time>
      </trkpt>
      <trkpt lat="47.50145" lon="6.7621">
        <ele>399.6</ele>
        <time>2014-06-08T07:26:07.000Z</time>
      </trkpt>
      <trkpt lat="47.50143" lon="6.76201">
        <ele>399.1</ele>
        <time>2014-06-08T07:26:07.998Z</time>
      </trkpt>
      <trkpt lat="47.5014" lon="6.76185">
        <ele>399.4</ele>
        <time>2014-06-08T07:26:09.000Z</time>
      </trkpt>
      <trkpt lat="47.50137" lon="6.76175">
        <ele>399.4</ele>
        <time>2014-06-08T07:26:10.000Z</time>
      </trkpt>
      <trkpt lat="47.50134" lon="6.76164">
        <ele>399.4</ele>
        <time>2014-06-08T07:26:11.000Z</time>
      </trkpt>
      <trkpt lat="47.50131" lon="6.76153">
        <ele>398.8</ele>
        <time>2014-06-08T07:26:12.000Z</time>
      </trkpt>
      <trkpt lat="47.50123" lon="6.76142">
        <ele>398</ele>
        <time>2014-06-08T07:26:13.000Z</time>
      </trkpt>
      <trkpt lat="47.50121" lon="6.76133">
        <ele>398.1</ele>
        <time>2014-06-08T07:26:14.000Z</time>
      </trkpt>
      <trkpt lat="47.5012" lon="6.7612">
        <ele>397.8</ele>
        <time>2014-06-08T07:26:15.000Z</time>
      </trkpt>
      <trkpt lat="47.50119" lon="6.76108">
        <ele>397.4</ele>
        <time>2014-06-08T07:26:16.000Z</time>
      </trkpt>
      <trkpt lat="47.50117" lon="6.76097">
        <ele>396.8</ele>
        <time>2014-06-08T07:26:17.000Z</time>
      </trkpt>
      <trkpt lat="47.50116" lon="6.76082">
        <ele>396.8</ele>
        <time>2014-06-08T07:26:18.000Z</time>
      </trkpt>
      <trkpt lat="47.50113" lon="6.76071">
        <ele>397.3</ele>
        <time>2014-06-08T07:26:19.000Z</time>
      </trkpt>
      <trkpt lat="47.50111" lon="6.76055">
        <ele>396.1</ele>
        <time>2014-06-08T07:26:20.000Z</time>
      </trkpt>
      <trkpt lat="47.50107" lon="6.76037">
        <ele>396.2</ele>
        <time>2014-06-08T07:26:21.000Z</time>
      </trkpt>
      <trkpt lat="47.50103" lon="6.76024">
        <ele>396.2</ele>
        <time>2014-06-08T07:26:22.000Z</time>
      </trkpt>
      <trkpt lat="47.50101" lon="6.76011">
        <ele>397.9</ele>
        <time>2014-06-08T07:26:23.000Z</time>
      </trkpt>
      <trkpt lat="47.50103" lon="6.75994">
        <ele>395.6</ele>
        <time>2014-06-08T07:26:24.000Z</time>
      </trkpt>
      <trkpt lat="47.50096" lon="6.75982">
        <ele>394.2</ele>
        <time>2014-06-08T07:26:25.000Z</time>
      </trkpt>
      <trkpt lat="47.50092" lon="6.75974">
        <ele>393</ele>
        <time>2014-06-08T07:26:26.000Z</time>
      </trkpt>
      <trkpt lat="47.50088" lon="6.75964">
        <ele>391</ele>
        <time>2014-06-08T07:26:27.000Z</time>
      </trkpt>
      <trkpt lat="47.50085" lon="6.75953">
        <ele>390.3</ele>
        <time>2014-06-08T07:26:28.000Z</time>
      </trkpt>
      <trkpt lat="47.5008" lon="6.75942">
        <ele>389.9</ele>
        <time>2014-06-08T07:26:29.000Z</time>
      </trkpt>
      <trkpt lat="47.50075" lon="6.75932">
        <ele>391.1</ele>
        <time>2014-06-08T07:26:30.000Z</time>
      </trkpt>
      <trkpt lat="47.5007" lon="6.75923">
        <ele>391.8</ele>
        <time>2014-06-08T07:26:31.000Z</time>
      </trkpt>
      <trkpt lat="47.50066" lon="6.75914">
        <ele>391.2</ele>
        <time>2014-06-08T07:26:32.000Z</time>
      </trkpt>
      <trkpt lat="47.50061" lon="6.75905">
        <ele>390.3</ele>
        <time>2014-06-08T07:26:33.000Z</time>
      </trkpt>
      <trkpt lat="47.50056" lon="6.75897">
        <ele>390</ele>
        <time>2014-06-08T07:26:34.000Z</time>
      </trkpt>
      <trkpt lat="47.50049" lon="6.75889">
        <ele>389</ele>
        <time>2014-06-08T07:26:35.000Z</time>
      </trkpt>
      <trkpt lat="47.50043" lon="6.75879">
        <ele>388.4</ele>
        <time>2014-06-08T07:26:36.000Z</time>
      </trkpt>
      <trkpt lat="47.50038" lon="6.7587">
        <ele>387.3</ele>
        <time>2014-06-08T07:26:37.000Z</time>
      </trkpt>
      <trkpt lat="47.50033" lon="6.75862">
        <ele>386.1</ele>
        <time>2014-06-08T07:26:38.000Z</time>
      </trkpt>
      <trkpt lat="47.50029" lon="6.75853">
        <ele>385.4</ele>
        <time>2014-06-08T07:26:39.000Z</time>
      </trkpt>
      <trkpt lat="47.49997" lon="6.75785">
        <ele>384.5</ele>
        <time>2014-06-08T07:26:47.000Z</time>
      </trkpt>
      <trkpt lat="47.49986" lon="6.75769">
        <ele>384.2</ele>
        <time>2014-06-08T07:26:48.000Z</time>
      </trkpt>
      <trkpt lat="47.4998" lon="6.75755">
        <ele>384.4</ele>
        <time>2014-06-08T07:26:49.000Z</time>
      </trkpt>
      <trkpt lat="47.49974" lon="6.75745">
        <ele>383.5</ele>
        <time>2014-06-08T07:26:50.000Z</time>
      </trkpt>
      <trkpt lat="47.49969" lon="6.7574">
        <ele>382.9</ele>
        <time>2014-06-08T07:26:51.000Z</time>
      </trkpt>
      <trkpt lat="47.49958" lon="6.75733">
        <ele>381.7</ele>
        <time>2014-06-08T07:26:52.000Z</time>
      </trkpt>
      <trkpt lat="47.49949" lon="6.75723">
        <ele>379</ele>
        <time>2014-06-08T07:26:53.000Z</time>
      </trkpt>
      <trkpt lat="47.49941" lon="6.75713">
        <ele>375.2</ele>
        <time>2014-06-08T07:26:54.000Z</time>
      </trkpt>
      <trkpt lat="47.49933" lon="6.75712">
        <ele>374.3</ele>
        <time>2014-06-08T07:26:55.000Z</time>
      </trkpt>
      <trkpt lat="47.49919" lon="6.75711">
        <ele>372.7</ele>
        <time>2014-06-08T07:26:56.000Z</time>
      </trkpt>
      <trkpt lat="47.49911" lon="6.75711">
        <ele>371.9</ele>
        <time>2014-06-08T07:26:57.000Z</time>
      </trkpt>
      <trkpt lat="47.49902" lon="6.75712">
        <ele>372.3</ele>
        <time>2014-06-08T07:26:58.000Z</time>
      </trkpt>
      <trkpt lat="47.49893" lon="6.75713">
        <ele>371.7</ele>
        <time>2014-06-08T07:26:59.000Z</time>
      </trkpt>
      <trkpt lat="47.49881" lon="6.75715">
        <ele>369.8</ele>
        <time>2014-06-08T07:27:00.000Z</time>
      </trkpt>
      <trkpt lat="47.4987" lon="6.75716">
        <ele>369.6</ele>
        <time>2014-06-08T07:27:01.000Z</time>
      </trkpt>
      <trkpt lat="47.4986" lon="6.75716">
        <ele>368.2</ele>
        <time>2014-06-08T07:27:02.000Z</time>
      </trkpt>
      <trkpt lat="47.49846" lon="6.7572">
        <ele>367.9</ele>
        <time>2014-06-08T07:27:03.000Z</time>
      </trkpt>
      <trkpt lat="47.49836" lon="6.75721">
        <ele>367.7</ele>
        <time>2014-06-08T07:27:04.000Z</time>
      </trkpt>
      <trkpt lat="47.49825" lon="6.75724">
        <ele>367.1</ele>
        <time>2014-06-08T07:27:05.000Z</time>
      </trkpt>
      <trkpt lat="47.49815" lon="6.75727">
        <ele>366.9</ele>
        <time>2014-06-08T07:27:06.000Z</time>
      </trkpt>
      <trkpt lat="47.49806" lon="6.75729">
        <ele>366.6</ele>
        <time>2014-06-08T07:27:07.000Z</time>
      </trkpt>
      <trkpt lat="47.49797" lon="6.75734">
        <ele>366.6</ele>
        <time>2014-06-08T07:27:08.000Z</time>
      </trkpt>
      <trkpt lat="47.49788" lon="6.75735">
        <ele>365.8</ele>
        <time>2014-06-08T07:27:09.000Z</time>
      </trkpt>
      <trkpt lat="47.49778" lon="6.7574">
        <ele>365.1</ele>
        <time>2014-06-08T07:27:10.000Z</time>
      </trkpt>
      <trkpt lat="47.49767" lon="6.75743">
        <ele>365</ele>
        <time>2014-06-08T07:27:11.000Z</time>
      </trkpt>
      <trkpt lat="47.49758" lon="6.75744">
        <ele>364.1</ele>
        <time>2014-06-08T07:27:12.000Z</time>
      </trkpt>
      <trkpt lat="47.49749" lon="6.75747">
        <ele>361</ele>
        <time>2014-06-08T07:27:13.000Z</time>
      </trkpt>
      <trkpt lat="47.4974" lon="6.75749">
        <ele>360.8</ele>
        <time>2014-06-08T07:27:14.000Z</time>
      </trkpt>
      <trkpt lat="47.49733" lon="6.75754">
        <ele>358</ele>
        <time>2014-06-08T07:27:15.000Z</time>
      </trkpt>
      <trkpt lat="47.49725" lon="6.75758">
        <ele>356.6</ele>
        <time>2014-06-08T07:27:16.000Z</time>
      </trkpt>
      <trkpt lat="47.49717" lon="6.7576">
        <ele>355.9</ele>
        <time>2014-06-08T07:27:17.000Z</time>
      </trkpt>
      <trkpt lat="47.49709" lon="6.75763">
        <ele>353.6</ele>
        <time>2014-06-08T07:27:18.000Z</time>
      </trkpt>
      <trkpt lat="47.49701" lon="6.75766">
        <ele>352.2</ele>
        <time>2014-06-08T07:27:19.000Z</time>
      </trkpt>
      <trkpt lat="47.49693" lon="6.75768">
        <ele>352.1</ele>
        <time>2014-06-08T07:27:20.000Z</time>
      </trkpt>
      <trkpt lat="47.49687" lon="6.75768">
        <ele>352.2</ele>
        <time>2014-06-08T07:27:21.000Z</time>
      </trkpt>
      <trkpt lat="47.4968" lon="6.7577">
        <ele>352.8</ele>
        <time>2014-06-08T07:27:22.000Z</time>
      </trkpt>
      <trkpt lat="47.49672" lon="6.75771">
        <ele>352.7</ele>
        <time>2014-06-08T07:27:23.000Z</time>
      </trkpt>
      <trkpt lat="47.4966" lon="6.75768">
        <ele>351.2</ele>
        <time>2014-06-08T07:27:24.000Z</time>
      </trkpt>
      <trkpt lat="47.49652" lon="6.75766">
        <ele>351.8</ele>
        <time>2014-06-08T07:27:25.000Z</time>
      </trkpt>
      <trkpt lat="47.49644" lon="6.75765">
        <ele>351.4</ele>
        <time>2014-06-08T07:27:26.000Z</time>
      </trkpt>
      <trkpt lat="47.49636" lon="6.75764">
        <ele>351</ele>
        <time>2014-06-08T07:27:27.000Z</time>
      </trkpt>
      <trkpt lat="47.49626" lon="6.75763">
        <ele>350.8</ele>
        <time>2014-06-08T07:27:28.000Z</time>
      </trkpt>
      <trkpt lat="47.49614" lon="6.75764">
        <ele>350.9</ele>
        <time>2014-06-08T07:27:29.000Z</time>
      </trkpt>
      <trkpt lat="47.49606" lon="6.75766">
        <ele>350.4</ele>
        <time>2014-06-08T07:27:30.000Z</time>
      </trkpt>
      <trkpt lat="47.49598" lon="6.75765">
        <ele>349.3</ele>
        <time>2014-06-08T07:27:31.000Z</time>
      </trkpt>
      <trkpt lat="47.4959" lon="6.75767">
        <ele>349.3</ele>
        <time>2014-06-08T07:27:32.000Z</time>
      </trkpt>
      <trkpt lat="47.49581" lon="6.75766">
        <ele>347.7</ele>
        <time>2014-06-08T07:27:33.000Z</time>
      </trkpt>
      <trkpt lat="47.49573" lon="6.75775">
        <ele>345.2</ele>
        <time>2014-06-08T07:27:34.000Z</time>
      </trkpt>
      <trkpt lat="47.49578" lon="6.75774">
        <ele>344.6</ele>
        <time>2014-06-08T07:27:35.000Z</time>
      </trkpt>
      <trkpt lat="47.49574" lon="6.75776">
        <ele>341.8</ele>
        <time>2014-06-08T07:32:10.000Z</time>
      </trkpt>
      <trkpt lat="47.49574" lon="6.75776">
        <ele>341.7</ele>
        <time>2014-06-08T07:32:11.000Z</time>
      </trkpt>
      <trkpt lat="47.49574" lon="6.7577">
        <ele>337.1</ele>
        <time>2014-06-08T07:39:05.000Z</time>
      </trkpt>
      <trkpt lat="47.49574" lon="6.7577">
        <ele>337</ele>
        <time>2014-06-08T07:39:06.000Z</time>
      </trkpt>
      <trkpt lat="47.4957" lon="6.75771">
        <ele>340</ele>
        <time>2014-06-08T07:57:02.000Z</time>
      </trkpt>
      <trkpt lat="47.49569" lon="6.75771">
        <ele>339.7</ele>
        <time>2014-06-08T07:57:03.000Z</time>
      </trkpt>
      <trkpt lat="47.49571" lon="6.75776">
        <ele>342.4</ele>
        <time>2014-06-08T08:04:10.000Z</time>
      </trkpt>
      <trkpt lat="47.49572" lon="6.75777">
        <ele>341.3</ele>
        <time>2014-06-08T08:04:11.000Z</time>
      </trkpt>
      <trkpt lat="47.49572" lon="6.7577">
        <ele>341</ele>
        <time>2014-06-08T08:11:26.000Z</time>
      </trkpt>
      <trkpt lat="47.49573" lon="6.75768">
        <ele>340.5</ele>
        <time>2014-06-08T08:11:27.000Z</time>
      </trkpt>
      <trkpt lat="47.49576" lon="6.75773">
        <ele>337.8</ele>
        <time>2014-06-08T08:11:56.000Z</time>
      </trkpt>
      <trkpt lat="47.49576" lon="6.75774">
        <ele>337.8</ele>
        <time>2014-06-08T08:11:57.000Z</time>
      </trkpt>
      <trkpt lat="47.49579" lon="6.75774">
        <ele>345.6</ele>
        <time>2014-06-08T08:12:37.000Z</time>
      </trkpt>
      <trkpt lat="47.49581" lon="6.75775">
        <ele>347.9</ele>
        <time>2014-06-08T08:12:38.000Z</time>
      </trkpt>
      <trkpt lat="47.49582" lon="6.75775">
        <ele>345</ele>
        <time>2014-06-08T08:12:39.000Z</time>
      </trkpt>
      <trkpt lat="47.49591" lon="6.75776">
        <ele>350.1</ele>
        <time>2014-06-08T08:12:47.000Z</time>
      </trkpt>
      <trkpt lat="47.49594" lon="6.75775">
        <ele>353.8</ele>
        <time>2014-06-08T08:12:50.000Z</time>
      </trkpt>
      <trkpt lat="47.49596" lon="6.75775">
        <ele>354.2</ele>
        <time>2014-06-08T08:12:51.000Z</time>
      </trkpt>
      <trkpt lat="47.496" lon="6.75775">
        <ele>357.1</ele>
        <time>2014-06-08T08:12:53.000Z</time>
      </trkpt>
      <trkpt lat="47.49601" lon="6.75775">
        <ele>358.9</ele>
        <time>2014-06-08T08:12:54.000Z</time>
      </trkpt>
      <trkpt lat="47.49605" lon="6.75776">
        <ele>359.4</ele>
        <time>2014-06-08T08:12:56.000Z</time>
      </trkpt>
      <trkpt lat="47.49607" lon="6.75777">
        <ele>361.2</ele>
        <time>2014-06-08T08:12:57.000Z</time>
      </trkpt>
      <trkpt lat="47.49611" lon="6.75778">
        <ele>363</ele>
        <time>2014-06-08T08:12:59.000Z</time>
      </trkpt>
      <trkpt lat="47.49613" lon="6.75778">
        <ele>364.1</ele>
        <time>2014-06-08T08:13:00.000Z</time>
      </trkpt>
      <trkpt lat="47.49617" lon="6.75778">
        <ele>366.7</ele>
        <time>2014-06-08T08:13:02.000Z</time>
      </trkpt>
      <trkpt lat="47.49618" lon="6.75778">
        <ele>369.2</ele>
        <time>2014-06-08T08:13:03.000Z</time>
      </trkpt>
      <trkpt lat="47.49622" lon="6.75779">
        <ele>371.4</ele>
        <time>2014-06-08T08:13:06.000Z</time>
      </trkpt>
      <trkpt lat="47.49623" lon="6.75779">
        <ele>372</ele>
        <time>2014-06-08T08:13:07.000Z</time>
      </trkpt>
      <trkpt lat="47.49628" lon="6.75778">
        <ele>375.5</ele>
        <time>2014-06-08T08:13:10.000Z</time>
      </trkpt>
      <trkpt lat="47.49629" lon="6.75777">
        <ele>375.9</ele>
        <time>2014-06-08T08:13:11.000Z</time>
      </trkpt>
      <trkpt lat="47.49633" lon="6.75776">
        <ele>377.3</ele>
        <time>2014-06-08T08:13:14.000Z</time>
      </trkpt>
      <trkpt lat="47.49635" lon="6.75776">
        <ele>373.9</ele>
        <time>2014-06-08T08:13:15.000Z</time>
      </trkpt>
      <trkpt lat="47.49639" lon="6.75776">
        <ele>370.6</ele>
        <time>2014-06-08T08:13:17.000Z</time>
      </trkpt>
      <trkpt lat="47.4964" lon="6.75776">
        <ele>372.1</ele>
        <time>2014-06-08T08:13:18.000Z</time>
      </trkpt>
      <trkpt lat="47.49644" lon="6.75775">
        <ele>373.5</ele>
        <time>2014-06-08T08:13:20.000Z</time>
      </trkpt>
      <trkpt lat="47.49646" lon="6.75774">
        <ele>373.7</ele>
        <time>2014-06-08T08:13:21.000Z</time>
      </trkpt>
      <trkpt lat="47.4965" lon="6.75772">
        <ele>379</ele>
        <time>2014-06-08T08:13:23.000Z</time>
      </trkpt>
      <trkpt lat="47.49651" lon="6.75772">
        <ele>381.2</ele>
        <time>2014-06-08T08:13:24.000Z</time>
      </trkpt>
      <trkpt lat="47.49655" lon="6.75771">
        <ele>385</ele>
        <time>2014-06-08T08:13:27.000Z</time>
      </trkpt>
      <trkpt lat="47.49657" lon="6.75771">
        <ele>388.8</ele>
        <time>2014-06-08T08:13:28.000Z</time>
      </trkpt>
      <trkpt lat="47.49659" lon="6.75771">
        <ele>389.2</ele>
        <time>2014-06-08T08:13:29.000Z</time>
      </trkpt>
      <trkpt lat="47.49661" lon="6.75771">
        <ele>389.9</ele>
        <time>2014-06-08T08:13:30.000Z</time>
      </trkpt>
      <trkpt lat="47.49664" lon="6.7577">
        <ele>390.1</ele>
        <time>2014-06-08T08:13:31.000Z</time>
      </trkpt>
      <trkpt lat="47.49666" lon="6.75769">
        <ele>390.9</ele>
        <time>2014-06-08T08:13:32.000Z</time>
      </trkpt>
      <trkpt lat="47.49669" lon="6.75769">
        <ele>389.9</ele>
        <time>2014-06-08T08:13:33.000Z</time>
      </trkpt>
      <trkpt lat="47.49672" lon="6.75769">
        <ele>387.2</ele>
        <time>2014-06-08T08:13:34.000Z</time>
      </trkpt>
      <trkpt lat="47.49675" lon="6.75769">
        <ele>386.1</ele>
        <time>2014-06-08T08:13:35.000Z</time>
      </trkpt>
      <trkpt lat="47.49679" lon="6.7577">
        <ele>384.8</ele>
        <time>2014-06-08T08:13:36.000Z</time>
      </trkpt>
      <trkpt lat="47.49682" lon="6.75771">
        <ele>383.9</ele>
        <time>2014-06-08T08:13:37.000Z</time>
      </trkpt>
      <trkpt lat="47.49685" lon="6.75771">
        <ele>385.7</ele>
        <time>2014-06-08T08:13:38.000Z</time>
      </trkpt>
      <trkpt lat="47.49688" lon="6.75772">
        <ele>385.8</ele>
        <time>2014-06-08T08:13:39.000Z</time>
      </trkpt>
      <trkpt lat="47.49713" lon="6.75768">
        <ele>383.7</ele>
        <time>2014-06-08T08:13:47.000Z</time>
      </trkpt>
      <trkpt lat="47.49717" lon="6.75769">
        <ele>382.4</ele>
        <time>2014-06-08T08:13:48.000Z</time>
      </trkpt>
      <trkpt lat="47.49721" lon="6.75769">
        <ele>384.5</ele>
        <time>2014-06-08T08:13:49.000Z</time>
      </trkpt>
      <trkpt lat="47.49725" lon="6.75769">
        <ele>382.1</ele>
        <time>2014-06-08T08:13:50.000Z</time>
      </trkpt>
      <trkpt lat="47.49729" lon="6.75769">
        <ele>380.6</ele>
        <time>2014-06-08T08:13:51.000Z</time>
      </trkpt>
      <trkpt lat="47.49732" lon="6.75767">
        <ele>382.2</ele>
        <time>2014-06-08T08:13:52.000Z</time>
      </trkpt>
      <trkpt lat="47.49735" lon="6.75766">
        <ele>382.8</ele>
        <time>2014-06-08T08:13:53.000Z</time>
      </trkpt>
      <trkpt lat="47.49738" lon="6.75764">
        <ele>384.1</ele>
        <time>2014-06-08T08:13:54.000Z</time>
      </trkpt>
      <trkpt lat="47.49741" lon="6.75763">
        <ele>383.9</ele>
        <time>2014-06-08T08:13:55.000Z</time>
      </trkpt>
      <trkpt lat="47.49744" lon="6.75762">
        <ele>383.7</ele>
        <time>2014-06-08T08:13:56.000Z</time>
      </trkpt>
      <trkpt lat="47.49746" lon="6.75761">
        <ele>387</ele>
        <time>2014-06-08T08:13:57.000Z</time>
      </trkpt>
      <trkpt lat="47.49749" lon="6.7576">
        <ele>387.2</ele>
        <time>2014-06-08T08:13:58.000Z</time>
      </trkpt>
      <trkpt lat="47.49752" lon="6.75759">
        <ele>388.5</ele>
        <time>2014-06-08T08:13:59.000Z</time>
      </trkpt>
      <trkpt lat="47.49754" lon="6.75757">
        <ele>388.3</ele>
        <time>2014-06-08T08:14:00.000Z</time>
      </trkpt>
      <trkpt lat="47.49757" lon="6.75756">
        <ele>388.2</ele>
        <time>2014-06-08T08:14:01.000Z</time>
      </trkpt>
      <trkpt lat="47.4976" lon="6.75755">
        <ele>386.7</ele>
        <time>2014-06-08T08:14:02.000Z</time>
      </trkpt>
      <trkpt lat="47.49762" lon="6.75755">
        <ele>386</ele>
        <time>2014-06-08T08:14:03.000Z</time>
      </trkpt>
      <trkpt lat="47.49766" lon="6.75754">
        <ele>389.1</ele>
        <time>2014-06-08T08:14:05.000Z</time>
      </trkpt>
      <trkpt lat="47.49768" lon="6.75753">
        <ele>388.8</ele>
        <time>2014-06-08T08:14:06.000Z</time>
      </trkpt>
      <trkpt lat="47.49771" lon="6.75751">
        <ele>389.7</ele>
        <time>2014-06-08T08:14:08.000Z</time>
      </trkpt>
      <trkpt lat="47.49772" lon="6.75749">
        <ele>390.2</ele>
        <time>2014-06-08T08:14:09.000Z</time>
      </trkpt>
      <trkpt lat="47.49775" lon="6.75746">
        <ele>392.2</ele>
        <time>2014-06-08T08:14:11.000Z</time>
      </trkpt>
      <trkpt lat="47.49776" lon="6.75745">
        <ele>392.5</ele>
        <time>2014-06-08T08:14:12.000Z</time>
      </trkpt>
      <trkpt lat="47.4978" lon="6.75743">
        <ele>394.5</ele>
        <time>2014-06-08T08:14:14.000Z</time>
      </trkpt>
      <trkpt lat="47.49782" lon="6.75743">
        <ele>394</ele>
        <time>2014-06-08T08:14:15.000Z</time>
      </trkpt>
      <trkpt lat="47.49785" lon="6.75741">
        <ele>392.4</ele>
        <time>2014-06-08T08:14:17.000Z</time>
      </trkpt>
      <trkpt lat="47.49787" lon="6.75741">
        <ele>393</ele>
        <time>2014-06-08T08:14:18.000Z</time>
      </trkpt>
      <trkpt lat="47.4979" lon="6.75739">
        <ele>396.8</ele>
        <time>2014-06-08T08:14:21.000Z</time>
      </trkpt>
      <trkpt lat="47.49792" lon="6.75739">
        <ele>396.8</ele>
        <time>2014-06-08T08:14:22.000Z</time>
      </trkpt>
      <trkpt lat="47.49796" lon="6.75737">
        <ele>393.9</ele>
        <time>2014-06-08T08:14:24.000Z</time>
      </trkpt>
      <trkpt lat="47.49798" lon="6.75737">
        <ele>395</ele>
        <time>2014-06-08T08:14:25.000Z</time>
      </trkpt>
      <trkpt lat="47.49802" lon="6.75735">
        <ele>397.4</ele>
        <time>2014-06-08T08:14:27.000Z</time>
      </trkpt>
      <trkpt lat="47.49804" lon="6.75734">
        <ele>399.2</ele>
        <time>2014-06-08T08:14:28.000Z</time>
      </trkpt>
      <trkpt lat="47.49808" lon="6.75733">
        <ele>400.6</ele>
        <time>2014-06-08T08:14:30.000Z</time>
      </trkpt>
      <trkpt lat="47.4981" lon="6.75732">
        <ele>400.7</ele>
        <time>2014-06-08T08:14:31.000Z</time>
      </trkpt>
      <trkpt lat="47.49814" lon="6.75731">
        <ele>402.3</ele>
        <time>2014-06-08T08:14:33.000Z</time>
      </trkpt>
      <trkpt lat="47.49816" lon="6.7573">
        <ele>402.6</ele>
        <time>2014-06-08T08:14:34.000Z</time>
      </trkpt>
      <trkpt lat="47.49819" lon="6.7573">
        <ele>401.9</ele>
        <time>2014-06-08T08:14:39.000Z</time>
      </trkpt>
      <trkpt lat="47.49821" lon="6.75728">
        <ele>404.7</ele>
        <time>2014-06-08T08:14:42.000Z</time>
      </trkpt>
      <trkpt lat="47.49824" lon="6.75728">
        <ele>406</ele>
        <time>2014-06-08T08:14:44.000Z</time>
      </trkpt>
      <trkpt lat="47.49825" lon="6.75727">
        <ele>405.3</ele>
        <time>2014-06-08T08:14:45.000Z</time>
      </trkpt>
      <trkpt lat="47.49828" lon="6.75726">
        <ele>408.8</ele>
        <time>2014-06-08T08:14:47.000Z</time>
      </trkpt>
      <trkpt lat="47.4983" lon="6.75725">
        <ele>409.2</ele>
        <time>2014-06-08T08:14:48.000Z</time>
      </trkpt>
      <trkpt lat="47.49833" lon="6.75724">
        <ele>407.6</ele>
        <time>2014-06-08T08:14:50.000Z</time>
      </trkpt>
      <trkpt lat="47.49835" lon="6.75724">
        <ele>407.6</ele>
        <time>2014-06-08T08:14:51.000Z</time>
      </trkpt>
      <trkpt lat="47.49836" lon="6.75721">
        <ele>406.7</ele>
        <time>2014-06-08T08:14:53.000Z</time>
      </trkpt>
      <trkpt lat="47.49838" lon="6.75719">
        <ele>406.8</ele>
        <time>2014-06-08T08:14:54.000Z</time>
      </trkpt>
      <trkpt lat="47.49841" lon="6.75718">
        <ele>408.8</ele>
        <time>2014-06-08T08:14:56.000Z</time>
      </trkpt>
      <trkpt lat="47.49842" lon="6.75718">
        <ele>408</ele>
        <time>2014-06-08T08:14:57.000Z</time>
      </trkpt>
      <trkpt lat="47.49847" lon="6.75718">
        <ele>409.3</ele>
        <time>2014-06-08T08:15:00.000Z</time>
      </trkpt>
      <trkpt lat="47.49848" lon="6.75719">
        <ele>410.6</ele>
        <time>2014-06-08T08:15:01.000Z</time>
      </trkpt>
      <trkpt lat="47.49851" lon="6.75718">
        <ele>410.1</ele>
        <time>2014-06-08T08:15:03.000Z</time>
      </trkpt>
      <trkpt lat="47.49853" lon="6.75717">
        <ele>409.5</ele>
        <time>2014-06-08T08:15:04.000Z</time>
      </trkpt>
      <trkpt lat="47.49857" lon="6.75714">
        <ele>409.1</ele>
        <time>2014-06-08T08:15:06.000Z</time>
      </trkpt>
      <trkpt lat="47.49859" lon="6.75713">
        <ele>408.8</ele>
        <time>2014-06-08T08:15:07.000Z</time>
      </trkpt>
      <trkpt lat="47.49863" lon="6.75711">
        <ele>408.1</ele>
        <time>2014-06-08T08:15:09.000Z</time>
      </trkpt>
      <trkpt lat="47.49865" lon="6.75711">
        <ele>406.9</ele>
        <time>2014-06-08T08:15:10.000Z</time>
      </trkpt>
      <trkpt lat="47.49867" lon="6.75711">
        <ele>405.9</ele>
        <time>2014-06-08T08:15:12.000Z</time>
      </trkpt>
      <trkpt lat="47.49869" lon="6.75711">
        <ele>404.6</ele>
        <time>2014-06-08T08:15:13.000Z</time>
      </trkpt>
      <trkpt lat="47.49872" lon="6.75709">
        <ele>405.2</ele>
        <time>2014-06-08T08:15:15.000Z</time>
      </trkpt>
      <trkpt lat="47.49874" lon="6.75709">
        <ele>405.6</ele>
        <time>2014-06-08T08:15:16.000Z</time>
      </trkpt>
      <trkpt lat="47.49877" lon="6.75708">
        <ele>403.1</ele>
        <time>2014-06-08T08:15:18.000Z</time>
      </trkpt>
      <trkpt lat="47.49879" lon="6.75707">
        <ele>400.6</ele>
        <time>2014-06-08T08:15:19.000Z</time>
      </trkpt>
      <trkpt lat="47.49883" lon="6.75706">
        <ele>397.3</ele>
        <time>2014-06-08T08:15:21.000Z</time>
      </trkpt>
      <trkpt lat="47.49885" lon="6.75706">
        <ele>397</ele>
        <time>2014-06-08T08:15:22.000Z</time>
      </trkpt>
      <trkpt lat="47.49888" lon="6.75705">
        <ele>396.5</ele>
        <time>2014-06-08T08:15:24.000Z</time>
      </trkpt>
      <trkpt lat="47.4989" lon="6.75705">
        <ele>395.5</ele>
        <time>2014-06-08T08:15:25.000Z</time>
      </trkpt>
      <trkpt lat="47.49894" lon="6.75707">
        <ele>394</ele>
        <time>2014-06-08T08:15:27.000Z</time>
      </trkpt>
      <trkpt lat="47.49897" lon="6.75708">
        <ele>393</ele>
        <time>2014-06-08T08:15:28.000Z</time>
      </trkpt>
      <trkpt lat="47.49899" lon="6.75709">
        <ele>392.3</ele>
        <time>2014-06-08T08:15:29.000Z</time>
      </trkpt>
      <trkpt lat="47.49901" lon="6.7571">
        <ele>391.7</ele>
        <time>2014-06-08T08:15:30.000Z</time>
      </trkpt>
      <trkpt lat="47.49904" lon="6.75711">
        <ele>391.7</ele>
        <time>2014-06-08T08:15:31.000Z</time>
      </trkpt>
      <trkpt lat="47.49906" lon="6.75713">
        <ele>391.2</ele>
        <time>2014-06-08T08:15:32.000Z</time>
      </trkpt>
      <trkpt lat="47.4991" lon="6.75715">
        <ele>390.7</ele>
        <time>2014-06-08T08:15:34.000Z</time>
      </trkpt>
      <trkpt lat="47.49911" lon="6.75717">
        <ele>391.7</ele>
        <time>2014-06-08T08:15:35.000Z</time>
      </trkpt>
      <trkpt lat="47.49915" lon="6.75718">
        <ele>393.7</ele>
        <time>2014-06-08T08:15:37.000Z</time>
      </trkpt>
      <trkpt lat="47.49917" lon="6.75719">
        <ele>392.6</ele>
        <time>2014-06-08T08:15:38.000Z</time>
      </trkpt>
      <trkpt lat="47.49918" lon="6.75721">
        <ele>392.1</ele>
        <time>2014-06-08T08:15:39.000Z</time>
      </trkpt>
      <trkpt lat="47.4992" lon="6.75724">
        <ele>391.6</ele>
        <time>2014-06-08T08:15:40.902Z</time>
      </trkpt>
      <trkpt lat="47.49923" lon="6.75728">
        <ele>390.7</ele>
        <time>2014-06-08T08:15:43.000Z</time>
      </trkpt>
      <trkpt lat="47.49925" lon="6.75731">
        <ele>391.9</ele>
        <time>2014-06-08T08:15:44.000Z</time>
      </trkpt>
      <trkpt lat="47.49927" lon="6.75733">
        <ele>391.9</ele>
        <time>2014-06-08T08:15:45.000Z</time>
      </trkpt>
      <trkpt lat="47.49929" lon="6.75735">
        <ele>393.2</ele>
        <time>2014-06-08T08:15:46.000Z</time>
      </trkpt>
      <trkpt lat="47.49932" lon="6.75739">
        <ele>396.6</ele>
        <time>2014-06-08T08:15:48.000Z</time>
      </trkpt>
      <trkpt lat="47.49933" lon="6.75741">
        <ele>396</ele>
        <time>2014-06-08T08:15:49.000Z</time>
      </trkpt>
      <trkpt lat="47.49936" lon="6.75745">
        <ele>397.5</ele>
        <time>2014-06-08T08:15:51.000Z</time>
      </trkpt>
      <trkpt lat="47.49938" lon="6.75746">
        <ele>400.8</ele>
        <time>2014-06-08T08:15:52.000Z</time>
      </trkpt>
      <trkpt lat="47.49941" lon="6.75749">
        <ele>404.1</ele>
        <time>2014-06-08T08:15:55.000Z</time>
      </trkpt>
      <trkpt lat="47.49942" lon="6.75751">
        <ele>403.2</ele>
        <time>2014-06-08T08:15:56.000Z</time>
      </trkpt>
      <trkpt lat="47.49945" lon="6.75754">
        <ele>401.9</ele>
        <time>2014-06-08T08:15:58.000Z</time>
      </trkpt>
      <trkpt lat="47.49946" lon="6.75756">
        <ele>401.4</ele>
        <time>2014-06-08T08:15:59.000Z</time>
      </trkpt>
      <trkpt lat="47.4995" lon="6.75758">
        <ele>405</ele>
        <time>2014-06-08T08:16:01.000Z</time>
      </trkpt>
      <trkpt lat="47.49951" lon="6.75759">
        <ele>405.3</ele>
        <time>2014-06-08T08:16:02.000Z</time>
      </trkpt>
      <trkpt lat="47.49955" lon="6.75762">
        <ele>409.9</ele>
        <time>2014-06-08T08:16:05.000Z</time>
      </trkpt>
      <trkpt lat="47.49956" lon="6.75762">
        <ele>410</ele>
        <time>2014-06-08T08:16:06.000Z</time>
      </trkpt>
      <trkpt lat="47.49959" lon="6.75767">
        <ele>412.4</ele>
        <time>2014-06-08T08:16:10.000Z</time>
      </trkpt>
      <trkpt lat="47.4996" lon="6.75769">
        <ele>412.5</ele>
        <time>2014-06-08T08:16:11.000Z</time>
      </trkpt>
      <trkpt lat="47.49962" lon="6.75773">
        <ele>412.9</ele>
        <time>2014-06-08T08:16:13.000Z</time>
      </trkpt>
      <trkpt lat="47.49963" lon="6.75776">
        <ele>414.6</ele>
        <time>2014-06-08T08:16:14.000Z</time>
      </trkpt>
      <trkpt lat="47.49964" lon="6.75779">
        <ele>414.1</ele>
        <time>2014-06-08T08:16:15.000Z</time>
      </trkpt>
      <trkpt lat="47.49965" lon="6.75782">
        <ele>415</ele>
        <time>2014-06-08T08:16:16.000Z</time>
      </trkpt>
      <trkpt lat="47.49967" lon="6.75785">
        <ele>417.4</ele>
        <time>2014-06-08T08:16:17.000Z</time>
      </trkpt>
      <trkpt lat="47.49968" lon="6.75787">
        <ele>418.3</ele>
        <time>2014-06-08T08:16:18.000Z</time>
      </trkpt>
      <trkpt lat="47.49971" lon="6.75791">
        <ele>418.9</ele>
        <time>2014-06-08T08:16:20.000Z</time>
      </trkpt>
      <trkpt lat="47.49973" lon="6.75793">
        <ele>418.4</ele>
        <time>2014-06-08T08:16:21.000Z</time>
      </trkpt>
      <trkpt lat="47.49975" lon="6.75797">
        <ele>417.6</ele>
        <time>2014-06-08T08:16:23.000Z</time>
      </trkpt>
      <trkpt lat="47.49977" lon="6.75798">
        <ele>416</ele>
        <time>2014-06-08T08:16:24.000Z</time>
      </trkpt>
      <trkpt lat="47.49981" lon="6.75802">
        <ele>414.5</ele>
        <time>2014-06-08T08:16:26.000Z</time>
      </trkpt>
      <trkpt lat="47.49983" lon="6.75804">
        <ele>414.2</ele>
        <time>2014-06-08T08:16:27.000Z</time>
      </trkpt>
      <trkpt lat="47.49986" lon="6.75808">
        <ele>417.6</ele>
        <time>2014-06-08T08:16:29.000Z</time>
      </trkpt>
      <trkpt lat="47.49987" lon="6.7581">
        <ele>417.6</ele>
        <time>2014-06-08T08:16:30.000Z</time>
      </trkpt>
      <trkpt lat="47.49989" lon="6.75814">
        <ele>415.6</ele>
        <time>2014-06-08T08:16:32.000Z</time>
      </trkpt>
      <trkpt lat="47.4999" lon="6.75816">
        <ele>416.9</ele>
        <time>2014-06-08T08:16:33.000Z</time>
      </trkpt>
      <trkpt lat="47.49992" lon="6.75821">
        <ele>414.3</ele>
        <time>2014-06-08T08:16:36.000Z</time>
      </trkpt>
      <trkpt lat="47.49992" lon="6.75823">
        <ele>413.9</ele>
        <time>2014-06-08T08:16:37.000Z</time>
      </trkpt>
      <trkpt lat="47.49994" lon="6.75827">
        <ele>419.8</ele>
        <time>2014-06-08T08:16:39.000Z</time>
      </trkpt>
      <trkpt lat="47.49995" lon="6.75829">
        <ele>420.5</ele>
        <time>2014-06-08T08:16:40.000Z</time>
      </trkpt>
      <trkpt lat="47.50005" lon="6.75845">
        <ele>420.7</ele>
        <time>2014-06-08T08:16:48.000Z</time>
      </trkpt>
      <trkpt lat="47.50008" lon="6.75849">
        <ele>422.5</ele>
        <time>2014-06-08T08:16:50.000Z</time>
      </trkpt>
      <trkpt lat="47.50009" lon="6.75854">
        <ele>422.7</ele>
        <time>2014-06-08T08:16:51.000Z</time>
      </trkpt>
      <trkpt lat="47.5001" lon="6.75858">
        <ele>427.5</ele>
        <time>2014-06-08T08:16:52.999Z</time>
      </trkpt>
      <trkpt lat="47.50012" lon="6.75861">
        <ele>425.2</ele>
        <time>2014-06-08T08:16:54.000Z</time>
      </trkpt>
      <trkpt lat="47.50014" lon="6.75864">
        <ele>423.8</ele>
        <time>2014-06-08T08:16:55.000Z</time>
      </trkpt>
      <trkpt lat="47.50016" lon="6.75867">
        <ele>424.3</ele>
        <time>2014-06-08T08:16:56.000Z</time>
      </trkpt>
      <trkpt lat="47.50018" lon="6.75869">
        <ele>420.9</ele>
        <time>2014-06-08T08:16:57.000Z</time>
      </trkpt>
      <trkpt lat="47.50021" lon="6.75873">
        <ele>417.4</ele>
        <time>2014-06-08T08:16:58.000Z</time>
      </trkpt>
      <trkpt lat="47.50023" lon="6.75877">
        <ele>415.5</ele>
        <time>2014-06-08T08:16:59.000Z</time>
      </trkpt>
      <trkpt lat="47.50025" lon="6.75881">
        <ele>413.9</ele>
        <time>2014-06-08T08:17:00.000Z</time>
      </trkpt>
      <trkpt lat="47.50027" lon="6.75884">
        <ele>411.7</ele>
        <time>2014-06-08T08:17:01.000Z</time>
      </trkpt>
      <trkpt lat="47.50029" lon="6.75887">
        <ele>411</ele>
        <time>2014-06-08T08:17:02.000Z</time>
      </trkpt>
      <trkpt lat="47.50032" lon="6.75891">
        <ele>418.6</ele>
        <time>2014-06-08T08:17:06.999Z</time>
      </trkpt>
      <trkpt lat="47.50034" lon="6.75891">
        <ele>420.7</ele>
        <time>2014-06-08T08:17:08.000Z</time>
      </trkpt>
      <trkpt lat="47.50039" lon="6.75892">
        <ele>421.1</ele>
        <time>2014-06-08T08:17:10.999Z</time>
      </trkpt>
      <trkpt lat="47.50042" lon="6.75899">
        <ele>417</ele>
        <time>2014-06-08T08:17:12.000Z</time>
      </trkpt>
      <trkpt lat="47.50044" lon="6.75904">
        <ele>415.7</ele>
        <time>2014-06-08T08:17:13.000Z</time>
      </trkpt>
      <trkpt lat="47.50046" lon="6.75908">
        <ele>414</ele>
        <time>2014-06-08T08:17:14.000Z</time>
      </trkpt>
      <trkpt lat="47.50047" lon="6.75913">
        <ele>413.1</ele>
        <time>2014-06-08T08:17:15.000Z</time>
      </trkpt>
      <trkpt lat="47.50049" lon="6.75917">
        <ele>413.8</ele>
        <time>2014-06-08T08:17:16.000Z</time>
      </trkpt>
      <trkpt lat="47.50051" lon="6.75922">
        <ele>414.7</ele>
        <time>2014-06-08T08:17:17.000Z</time>
      </trkpt>
      <trkpt lat="47.50053" lon="6.75927">
        <ele>414.7</ele>
        <time>2014-06-08T08:17:18.000Z</time>
      </trkpt>
      <trkpt lat="47.50054" lon="6.7593">
        <ele>415.5</ele>
        <time>2014-06-08T08:17:19.000Z</time>
      </trkpt>
      <trkpt lat="47.50058" lon="6.75936">
        <ele>412.9</ele>
        <time>2014-06-08T08:17:20.000Z</time>
      </trkpt>
      <trkpt lat="47.5006" lon="6.75939">
        <ele>413.3</ele>
        <time>2014-06-08T08:17:21.000Z</time>
      </trkpt>
      <trkpt lat="47.50061" lon="6.75943">
        <ele>412.1</ele>
        <time>2014-06-08T08:17:22.000Z</time>
      </trkpt>
      <trkpt lat="47.50062" lon="6.75946">
        <ele>411.4</ele>
        <time>2014-06-08T08:17:23.000Z</time>
      </trkpt>
      <trkpt lat="47.50063" lon="6.75949">
        <ele>410</ele>
        <time>2014-06-08T08:17:24.000Z</time>
      </trkpt>
      <trkpt lat="47.50065" lon="6.75952">
        <ele>409.3</ele>
        <time>2014-06-08T08:17:25.000Z</time>
      </trkpt>
      <trkpt lat="47.50066" lon="6.75956">
        <ele>407.6</ele>
        <time>2014-06-08T08:17:26.000Z</time>
      </trkpt>
      <trkpt lat="47.50069" lon="6.75958">
        <ele>408.7</ele>
        <time>2014-06-08T08:17:27.000Z</time>
      </trkpt>
      <trkpt lat="47.50071" lon="6.7596">
        <ele>408.8</ele>
        <time>2014-06-08T08:17:28.000Z</time>
      </trkpt>
      <trkpt lat="47.50074" lon="6.75962">
        <ele>409</ele>
        <time>2014-06-08T08:17:29.000Z</time>
      </trkpt>
      <trkpt lat="47.50076" lon="6.75964">
        <ele>408.4</ele>
        <time>2014-06-08T08:17:30.000Z</time>
      </trkpt>
      <trkpt lat="47.50079" lon="6.75967">
        <ele>408</ele>
        <time>2014-06-08T08:17:31.000Z</time>
      </trkpt>
      <trkpt lat="47.50081" lon="6.75972">
        <ele>405.9</ele>
        <time>2014-06-08T08:17:32.000Z</time>
      </trkpt>
      <trkpt lat="47.50085" lon="6.75976">
        <ele>404.3</ele>
        <time>2014-06-08T08:17:33.000Z</time>
      </trkpt>
      <trkpt lat="47.50088" lon="6.7598">
        <ele>404</ele>
        <time>2014-06-08T08:17:34.000Z</time>
      </trkpt>
      <trkpt lat="47.50091" lon="6.75985">
        <ele>404.5</ele>
        <time>2014-06-08T08:17:35.000Z</time>
      </trkpt>
      <trkpt lat="47.50094" lon="6.75989">
        <ele>408.3</ele>
        <time>2014-06-08T08:17:36.000Z</time>
      </trkpt>
      <trkpt lat="47.50096" lon="6.75991">
        <ele>410.3</ele>
        <time>2014-06-08T08:17:37.000Z</time>
      </trkpt>
      <trkpt lat="47.50097" lon="6.75996">
        <ele>410.4</ele>
        <time>2014-06-08T08:17:38.000Z</time>
      </trkpt>
      <trkpt lat="47.50098" lon="6.75999">
        <ele>409.3</ele>
        <time>2014-06-08T08:17:39.000Z</time>
      </trkpt>
      <trkpt lat="47.50101" lon="6.76024">
        <ele>414.5</ele>
        <time>2014-06-08T08:17:47.000Z</time>
      </trkpt>
      <trkpt lat="47.50101" lon="6.76029">
        <ele>416.8</ele>
        <time>2014-06-08T08:17:49.000Z</time>
      </trkpt>
      <trkpt lat="47.50101" lon="6.76031">
        <ele>417.7</ele>
        <time>2014-06-08T08:17:50.000Z</time>
      </trkpt>
      <trkpt lat="47.501" lon="6.76037">
        <ele>429.6</ele>
        <time>2014-06-08T08:17:53.000Z</time>
      </trkpt>
      <trkpt lat="47.50098" lon="6.76038">
        <ele>433.1</ele>
        <time>2014-06-08T08:17:54.000Z</time>
      </trkpt>
      <trkpt lat="47.50099" lon="6.76043">
        <ele>440.2</ele>
        <time>2014-06-08T08:17:58.000Z</time>
      </trkpt>
      <trkpt lat="47.50099" lon="6.76045">
        <ele>443.6</ele>
        <time>2014-06-08T08:17:59.000Z</time>
      </trkpt>
      <trkpt lat="47.50099" lon="6.76047">
        <ele>445.7</ele>
        <time>2014-06-08T08:18:00.000Z</time>
      </trkpt>
      <trkpt lat="47.50102" lon="6.76053">
        <ele>445.4</ele>
        <time>2014-06-08T08:18:01.000Z</time>
      </trkpt>
      <trkpt lat="47.50103" lon="6.76057">
        <ele>444.8</ele>
        <time>2014-06-08T08:18:02.000Z</time>
      </trkpt>
      <trkpt lat="47.50104" lon="6.76062">
        <ele>443.6</ele>
        <time>2014-06-08T08:18:03.000Z</time>
      </trkpt>
      <trkpt lat="47.50104" lon="6.76064">
        <ele>444.8</ele>
        <time>2014-06-08T08:18:04.000Z</time>
      </trkpt>
      <trkpt lat="47.50105" lon="6.7607">
        <ele>443</ele>
        <time>2014-06-08T08:18:05.000Z</time>
      </trkpt>
      <trkpt lat="47.50105" lon="6.76073">
        <ele>447.4</ele>
        <time>2014-06-08T08:18:06.000Z</time>
      </trkpt>
      <trkpt lat="47.50106" lon="6.76077">
        <ele>445.8</ele>
        <time>2014-06-08T08:18:07.000Z</time>
      </trkpt>
      <trkpt lat="47.50107" lon="6.76082">
        <ele>447.2</ele>
        <time>2014-06-08T08:18:09.000Z</time>
      </trkpt>
      <trkpt lat="47.50108" lon="6.76085">
        <ele>447.4</ele>
        <time>2014-06-08T08:18:10.000Z</time>
      </trkpt>
      <trkpt lat="47.50108" lon="6.76091">
        <ele>445.3</ele>
        <time>2014-06-08T08:18:12.000Z</time>
      </trkpt>
      <trkpt lat="47.50109" lon="6.76095">
        <ele>444.4</ele>
        <time>2014-06-08T08:18:13.000Z</time>
      </trkpt>
      <trkpt lat="47.5011" lon="6.76099">
        <ele>442.8</ele>
        <time>2014-06-08T08:18:14.000Z</time>
      </trkpt>
      <trkpt lat="47.50112" lon="6.76103">
        <ele>441.4</ele>
        <time>2014-06-08T08:18:15.000Z</time>
      </trkpt>
      <trkpt lat="47.50114" lon="6.76107">
        <ele>440.5</ele>
        <time>2014-06-08T08:18:16.000Z</time>
      </trkpt>
      <trkpt lat="47.50117" lon="6.76111">
        <ele>438</ele>
        <time>2014-06-08T08:18:17.000Z</time>
      </trkpt>
      <trkpt lat="47.50119" lon="6.76112">
        <ele>438.3</ele>
        <time>2014-06-08T08:18:18.000Z</time>
      </trkpt>
      <trkpt lat="47.50121" lon="6.76117">
        <ele>437.6</ele>
        <time>2014-06-08T08:18:19.000Z</time>
      </trkpt>
      <trkpt lat="47.50121" lon="6.76121">
        <ele>436.4</ele>
        <time>2014-06-08T08:18:20.000Z</time>
      </trkpt>
      <trkpt lat="47.50122" lon="6.76125">
        <ele>435.8</ele>
        <time>2014-06-08T08:18:21.000Z</time>
      </trkpt>
      <trkpt lat="47.50122" lon="6.76129">
        <ele>429.7</ele>
        <time>2014-06-08T08:18:22.000Z</time>
      </trkpt>
      <trkpt lat="47.50122" lon="6.76133">
        <ele>427.9</ele>
        <time>2014-06-08T08:18:23.000Z</time>
      </trkpt>
      <trkpt lat="47.50122" lon="6.76137">
        <ele>428.1</ele>
        <time>2014-06-08T08:18:24.000Z</time>
      </trkpt>
      <trkpt lat="47.50122" lon="6.76141">
        <ele>427.8</ele>
        <time>2014-06-08T08:18:25.000Z</time>
      </trkpt>
      <trkpt lat="47.50122" lon="6.76142">
        <ele>429.6</ele>
        <time>2014-06-08T08:18:26.000Z</time>
      </trkpt>
      <trkpt lat="47.50121" lon="6.7615">
        <ele>428.3</ele>
        <time>2014-06-08T08:18:27.000Z</time>
      </trkpt>
      <trkpt lat="47.50121" lon="6.76155">
        <ele>429.1</ele>
        <time>2014-06-08T08:18:28.000Z</time>
      </trkpt>
      <trkpt lat="47.50121" lon="6.7616">
        <ele>428</ele>
        <time>2014-06-08T08:18:29.000Z</time>
      </trkpt>
      <trkpt lat="47.50121" lon="6.76165">
        <ele>428.6</ele>
        <time>2014-06-08T08:18:30.000Z</time>
      </trkpt>
      <trkpt lat="47.50121" lon="6.76168">
        <ele>429.2</ele>
        <time>2014-06-08T08:18:31.000Z</time>
      </trkpt>
      <trkpt lat="47.50122" lon="6.76178">
        <ele>426</ele>
        <time>2014-06-08T08:18:32.000Z</time>
      </trkpt>
      <trkpt lat="47.50122" lon="6.76181">
        <ele>426.1</ele>
        <time>2014-06-08T08:18:32.998Z</time>
      </trkpt>
      <trkpt lat="47.50124" lon="6.76188">
        <ele>429.8</ele>
        <time>2014-06-08T08:18:34.000Z</time>
      </trkpt>
      <trkpt lat="47.50124" lon="6.76192">
        <ele>431</ele>
        <time>2014-06-08T08:18:35.000Z</time>
      </trkpt>
      <trkpt lat="47.50125" lon="6.76196">
        <ele>430.4</ele>
        <time>2014-06-08T08:18:36.000Z</time>
      </trkpt>
      <trkpt lat="47.50126" lon="6.762">
        <ele>429.3</ele>
        <time>2014-06-08T08:18:37.000Z</time>
      </trkpt>
      <trkpt lat="47.50127" lon="6.76202">
        <ele>429.7</ele>
        <time>2014-06-08T08:18:37.999Z</time>
      </trkpt>
      <trkpt lat="47.50129" lon="6.76211">
        <ele>431.5</ele>
        <time>2014-06-08T08:18:39.000Z</time>
      </trkpt>
      <trkpt lat="47.50131" lon="6.76227">
        <ele>430.3</ele>
        <time>2014-06-08T08:18:42.000Z</time>
      </trkpt>
      <trkpt lat="47.50132" lon="6.76231">
        <ele>430.7</ele>
        <time>2014-06-08T08:18:43.000Z</time>
      </trkpt>
      <trkpt lat="47.50133" lon="6.76236">
        <ele>427.4</ele>
        <time>2014-06-08T08:18:44.000Z</time>
      </trkpt>
      <trkpt lat="47.50134" lon="6.76242">
        <ele>428.1</ele>
        <time>2014-06-08T08:18:46.000Z</time>
      </trkpt>
      <trkpt lat="47.50134" lon="6.76244">
        <ele>425.9</ele>
        <time>2014-06-08T08:18:47.000Z</time>
      </trkpt>
      <trkpt lat="47.50135" lon="6.76248">
        <ele>425.1</ele>
        <time>2014-06-08T08:18:48.000Z</time>
      </trkpt>
      <trkpt lat="47.50135" lon="6.76252">
        <ele>425</ele>
        <time>2014-06-08T08:18:49.000Z</time>
      </trkpt>
      <trkpt lat="47.50136" lon="6.76256">
        <ele>426.3</ele>
        <time>2014-06-08T08:18:50.000Z</time>
      </trkpt>
      <trkpt lat="47.50137" lon="6.76261">
        <ele>426</ele>
        <time>2014-06-08T08:18:51.000Z</time>
      </trkpt>
      <trkpt lat="47.50139" lon="6.76264">
        <ele>426.3</ele>
        <time>2014-06-08T08:18:52.000Z</time>
      </trkpt>
      <trkpt lat="47.5014" lon="6.76268">
        <ele>424.8</ele>
        <time>2014-06-08T08:18:53.000Z</time>
      </trkpt>
      <trkpt lat="47.50141" lon="6.76273">
        <ele>423.3</ele>
        <time>2014-06-08T08:18:55.000Z</time>
      </trkpt>
      <trkpt lat="47.50142" lon="6.76277">
        <ele>422</ele>
        <time>2014-06-08T08:18:56.000Z</time>
      </trkpt>
      <trkpt lat="47.50142" lon="6.76279">
        <ele>421.8</ele>
        <time>2014-06-08T08:18:57.001Z</time>
      </trkpt>
      <trkpt lat="47.50144" lon="6.76288">
        <ele>419.8</ele>
        <time>2014-06-08T08:18:58.000Z</time>
      </trkpt>
      <trkpt lat="47.50145" lon="6.76295">
        <ele>417.2</ele>
        <time>2014-06-08T08:18:59.000Z</time>
      </trkpt>
      <trkpt lat="47.50146" lon="6.76301">
        <ele>420.8</ele>
        <time>2014-06-08T08:19:00.000Z</time>
      </trkpt>
      <trkpt lat="47.50148" lon="6.76306">
        <ele>421.6</ele>
        <time>2014-06-08T08:19:01.000Z</time>
      </trkpt>
      <trkpt lat="47.50149" lon="6.76311">
        <ele>420.1</ele>
        <time>2014-06-08T08:19:02.000Z</time>
      </trkpt>
      <trkpt lat="47.5015" lon="6.76315">
        <ele>419.9</ele>
        <time>2014-06-08T08:19:03.000Z</time>
      </trkpt>
      <trkpt lat="47.50152" lon="6.76318">
        <ele>419.8</ele>
        <time>2014-06-08T08:19:04.000Z</time>
      </trkpt>
      <trkpt lat="47.50153" lon="6.76321">
        <ele>419.5</ele>
        <time>2014-06-08T08:19:05.000Z</time>
      </trkpt>
      <trkpt lat="47.50155" lon="6.76325">
        <ele>425</ele>
        <time>2014-06-08T08:19:07.000Z</time>
      </trkpt>
      <trkpt lat="47.50156" lon="6.76327">
        <ele>427.5</ele>
        <time>2014-06-08T08:19:08.000Z</time>
      </trkpt>
      <trkpt lat="47.50159" lon="6.76332">
        <ele>436.1</ele>
        <time>2014-06-08T08:19:10.999Z</time>
      </trkpt>
      <trkpt lat="47.50161" lon="6.76338">
        <ele>435.5</ele>
        <time>2014-06-08T08:19:12.000Z</time>
      </trkpt>
      <trkpt lat="47.50163" lon="6.76342">
        <ele>435.5</ele>
        <time>2014-06-08T08:19:13.000Z</time>
      </trkpt>
      <trkpt lat="47.50164" lon="6.76347">
        <ele>436.2</ele>
        <time>2014-06-08T08:19:14.000Z</time>
      </trkpt>
      <trkpt lat="47.50166" lon="6.76351">
        <ele>435.6</ele>
        <time>2014-06-08T08:19:15.000Z</time>
      </trkpt>
      <trkpt lat="47.50172" lon="6.76364">
        <ele>437.4</ele>
        <time>2014-06-08T08:19:16.000Z</time>
      </trkpt>
      <trkpt lat="47.50175" lon="6.76368">
        <ele>437.2</ele>
        <time>2014-06-08T08:19:17.000Z</time>
      </trkpt>
      <trkpt lat="47.50179" lon="6.76371">
        <ele>436.4</ele>
        <time>2014-06-08T08:19:18.000Z</time>
      </trkpt>
      <trkpt lat="47.50182" lon="6.76375">
        <ele>436.6</ele>
        <time>2014-06-08T08:19:19.000Z</time>
      </trkpt>
      <trkpt lat="47.50184" lon="6.76376">
        <ele>436.3</ele>
        <time>2014-06-08T08:19:20.000Z</time>
      </trkpt>
      <trkpt lat="47.50181" lon="6.76384">
        <ele>439.5</ele>
        <time>2014-06-08T08:19:21.000Z</time>
      </trkpt>
      <trkpt lat="47.50179" lon="6.76388">
        <ele>440.1</ele>
        <time>2014-06-08T08:19:22.000Z</time>
      </trkpt>
      <trkpt lat="47.5018" lon="6.76395">
        <ele>439.7</ele>
        <time>2014-06-08T08:19:23.000Z</time>
      </trkpt>
      <trkpt lat="47.5018" lon="6.76402">
        <ele>437.8</ele>
        <time>2014-06-08T08:19:24.000Z</time>
      </trkpt>
      <trkpt lat="47.50183" lon="6.76407">
        <ele>439</ele>
        <time>2014-06-08T08:19:25.000Z</time>
      </trkpt>
      <trkpt lat="47.50184" lon="6.76411">
        <ele>439.2</ele>
        <time>2014-06-08T08:19:26.000Z</time>
      </trkpt>
      <trkpt lat="47.50185" lon="6.76413">
        <ele>438.7</ele>
        <time>2014-06-08T08:19:27.000Z</time>
      </trkpt>
      <trkpt lat="47.50188" lon="6.76415">
        <ele>443.9</ele>
        <time>2014-06-08T08:19:32.000Z</time>
      </trkpt>
      <trkpt lat="47.50189" lon="6.76419">
        <ele>442</ele>
        <time>2014-06-08T08:19:33.000Z</time>
      </trkpt>
      <trkpt lat="47.50191" lon="6.76424">
        <ele>447.1</ele>
        <time>2014-06-08T08:19:34.999Z</time>
      </trkpt>
      <trkpt lat="47.50193" lon="6.7643">
        <ele>446.8</ele>
        <time>2014-06-08T08:19:36.000Z</time>
      </trkpt>
      <trkpt lat="47.50194" lon="6.76434">
        <ele>447.3</ele>
        <time>2014-06-08T08:19:37.000Z</time>
      </trkpt>
      <trkpt lat="47.50195" lon="6.76436">
        <ele>447.3</ele>
        <time>2014-06-08T08:19:38.000Z</time>
      </trkpt>
      <trkpt lat="47.50197" lon="6.76442">
        <ele>446.6</ele>
        <time>2014-06-08T08:19:39.000Z</time>
      </trkpt>
      <trkpt lat="47.50199" lon="6.76452">
        <ele>447.3</ele>
        <time>2014-06-08T08:19:42.000Z</time>
      </trkpt>
      <trkpt lat="47.502" lon="6.76456">
        <ele>446.8</ele>
        <time>2014-06-08T08:19:43.000Z</time>
      </trkpt>
      <trkpt lat="47.502" lon="6.76459">
        <ele>447</ele>
        <time>2014-06-08T08:19:44.000Z</time>
      </trkpt>
      <trkpt lat="47.50201" lon="6.76463">
        <ele>443</ele>
        <time>2014-06-08T08:19:45.000Z</time>
      </trkpt>
      <trkpt lat="47.50202" lon="6.76466">
        <ele>443.3</ele>
        <time>2014-06-08T08:19:46.000Z</time>
      </trkpt>
      <trkpt lat="47.50204" lon="6.76472">
        <ele>444.3</ele>
        <time>2014-06-08T08:19:48.000Z</time>
      </trkpt>
      <trkpt lat="47.50205" lon="6.76475">
        <ele>444.1</ele>
        <time>2014-06-08T08:19:49.000Z</time>
      </trkpt>
      <trkpt lat="47.50207" lon="6.7648">
        <ele>448</ele>
        <time>2014-06-08T08:19:51.000Z</time>
      </trkpt>
      <trkpt lat="47.50207" lon="6.76482">
        <ele>450.3</ele>
        <time>2014-06-08T08:19:52.001Z</time>
      </trkpt>
      <trkpt lat="47.50206" lon="6.76487">
        <ele>449.5</ele>
        <time>2014-06-08T08:19:54.000Z</time>
      </trkpt>
      <trkpt lat="47.50207" lon="6.76489">
        <ele>450.7</ele>
        <time>2014-06-08T08:19:55.000Z</time>
      </trkpt>
      <trkpt lat="47.50209" lon="6.76493">
        <ele>456</ele>
        <time>2014-06-08T08:19:59.000Z</time>
      </trkpt>
      <trkpt lat="47.5021" lon="6.76495">
        <ele>454.8</ele>
        <time>2014-06-08T08:20:00.000Z</time>
      </trkpt>
      <trkpt lat="47.50211" lon="6.76498">
        <ele>454.6</ele>
        <time>2014-06-08T08:20:01.000Z</time>
      </trkpt>
      <trkpt lat="47.50211" lon="6.76501">
        <ele>450.2</ele>
        <time>2014-06-08T08:20:02.000Z</time>
      </trkpt>
      <trkpt lat="47.50212" lon="6.76507">
        <ele>451.8</ele>
        <time>2014-06-08T08:20:03.999Z</time>
      </trkpt>
      <trkpt lat="47.50214" lon="6.76512">
        <ele>448.3</ele>
        <time>2014-06-08T08:20:05.000Z</time>
      </trkpt>
      <trkpt lat="47.50218" lon="6.76513">
        <ele>447.5</ele>
        <time>2014-06-08T08:20:07.001Z</time>
      </trkpt>
      <trkpt lat="47.50222" lon="6.76513">
        <ele>446.7</ele>
        <time>2014-06-08T08:20:08.000Z</time>
      </trkpt>
      <trkpt lat="47.50225" lon="6.76514">
        <ele>444.8</ele>
        <time>2014-06-08T08:20:09.000Z</time>
      </trkpt>
      <trkpt lat="47.50227" lon="6.76515">
        <ele>444.5</ele>
        <time>2014-06-08T08:20:10.000Z</time>
      </trkpt>
      <trkpt lat="47.50231" lon="6.76517">
        <ele>443.9</ele>
        <time>2014-06-08T08:20:12.000Z</time>
      </trkpt>
      <trkpt lat="47.50232" lon="6.76521">
        <ele>442.1</ele>
        <time>2014-06-08T08:20:13.000Z</time>
      </trkpt>
      <trkpt lat="47.50234" lon="6.76525">
        <ele>440.4</ele>
        <time>2014-06-08T08:20:18.000Z</time>
      </trkpt>
      <trkpt lat="47.50235" lon="6.76526">
        <ele>440.1</ele>
        <time>2014-06-08T08:20:19.000Z</time>
      </trkpt>
      <trkpt lat="47.50238" lon="6.76528">
        <ele>437.6</ele>
        <time>2014-06-08T08:20:23.000Z</time>
      </trkpt>
      <trkpt lat="47.50239" lon="6.76528">
        <ele>437.6</ele>
        <time>2014-06-08T08:20:24.000Z</time>
      </trkpt>
      <trkpt lat="47.50244" lon="6.7653">
        <ele>435.2</ele>
        <time>2014-06-08T08:20:26.000Z</time>
      </trkpt>
      <trkpt lat="47.50247" lon="6.7653">
        <ele>434.9</ele>
        <time>2014-06-08T08:20:27.000Z</time>
      </trkpt>
      <trkpt lat="47.5025" lon="6.7653">
        <ele>435</ele>
        <time>2014-06-08T08:20:28.000Z</time>
      </trkpt>
      <trkpt lat="47.50254" lon="6.76529">
        <ele>437.9</ele>
        <time>2014-06-08T08:20:29.000Z</time>
      </trkpt>
      <trkpt lat="47.50259" lon="6.76528">
        <ele>439.6</ele>
        <time>2014-06-08T08:20:30.000Z</time>
      </trkpt>
      <trkpt lat="47.50264" lon="6.76527">
        <ele>434.1</ele>
        <time>2014-06-08T08:20:31.000Z</time>
      </trkpt>
      <trkpt lat="47.50271" lon="6.76527">
        <ele>430.3</ele>
        <time>2014-06-08T08:20:32.000Z</time>
      </trkpt>
      <trkpt lat="47.50276" lon="6.76528">
        <ele>434.7</ele>
        <time>2014-06-08T08:20:33.000Z</time>
      </trkpt>
      <trkpt lat="47.50282" lon="6.76528">
        <ele>435.2</ele>
        <time>2014-06-08T08:20:34.000Z</time>
      </trkpt>
      <trkpt lat="47.50287" lon="6.76528">
        <ele>435.5</ele>
        <time>2014-06-08T08:20:35.000Z</time>
      </trkpt>
      <trkpt lat="47.50301" lon="6.76526">
        <ele>433.1</ele>
        <time>2014-06-08T08:20:36.000Z</time>
      </trkpt>
      <trkpt lat="47.50308" lon="6.76522">
        <ele>432.3</ele>
        <time>2014-06-08T08:20:37.000Z</time>
      </trkpt>
      <trkpt lat="47.50314" lon="6.76519">
        <ele>430.2</ele>
        <time>2014-06-08T08:20:38.000Z</time>
      </trkpt>
      <trkpt lat="47.50318" lon="6.76518">
        <ele>431.5</ele>
        <time>2014-06-08T08:20:39.000Z</time>
      </trkpt>
      <trkpt lat="47.50336" lon="6.76495">
        <ele>419.7</ele>
        <time>2014-06-08T08:20:47.000Z</time>
      </trkpt>
      <trkpt lat="47.50339" lon="6.76487">
        <ele>418.5</ele>
        <time>2014-06-08T08:20:48.000Z</time>
      </trkpt>
      <trkpt lat="47.50341" lon="6.76479">
        <ele>418</ele>
        <time>2014-06-08T08:20:49.000Z</time>
      </trkpt>
      <trkpt lat="47.50344" lon="6.76473">
        <ele>415.7</ele>
        <time>2014-06-08T08:20:50.000Z</time>
      </trkpt>
      <trkpt lat="47.50347" lon="6.76468">
        <ele>414.7</ele>
        <time>2014-06-08T08:20:51.000Z</time>
      </trkpt>
      <trkpt lat="47.5035" lon="6.76462">
        <ele>413.2</ele>
        <time>2014-06-08T08:20:52.000Z</time>
      </trkpt>
      <trkpt lat="47.50352" lon="6.76458">
        <ele>412.1</ele>
        <time>2014-06-08T08:20:53.000Z</time>
      </trkpt>
      <trkpt lat="47.50354" lon="6.76452">
        <ele>410.8</ele>
        <time>2014-06-08T08:20:54.000Z</time>
      </trkpt>
      <trkpt lat="47.50355" lon="6.76445">
        <ele>410</ele>
        <time>2014-06-08T08:20:55.000Z</time>
      </trkpt>
      <trkpt lat="47.50357" lon="6.76439">
        <ele>408.8</ele>
        <time>2014-06-08T08:20:56.000Z</time>
      </trkpt>
      <trkpt lat="47.50358" lon="6.76432">
        <ele>407.4</ele>
        <time>2014-06-08T08:20:57.000Z</time>
      </trkpt>
      <trkpt lat="47.5036" lon="6.76426">
        <ele>407.1</ele>
        <time>2014-06-08T08:20:58.000Z</time>
      </trkpt>
      <trkpt lat="47.50362" lon="6.76423">
        <ele>407.1</ele>
        <time>2014-06-08T08:20:59.000Z</time>
      </trkpt>
      <trkpt lat="47.50364" lon="6.76418">
        <ele>413.3</ele>
        <time>2014-06-08T08:21:01.000Z</time>
      </trkpt>
      <trkpt lat="47.50366" lon="6.76416">
        <ele>413.3</ele>
        <time>2014-06-08T08:21:02.000Z</time>
      </trkpt>
      <trkpt lat="47.50368" lon="6.76413">
        <ele>411.8</ele>
        <time>2014-06-08T08:21:03.000Z</time>
      </trkpt>
      <trkpt lat="47.5037" lon="6.76408">
        <ele>413.2</ele>
        <time>2014-06-08T08:21:04.000Z</time>
      </trkpt>
      <trkpt lat="47.50372" lon="6.76405">
        <ele>413.8</ele>
        <time>2014-06-08T08:21:05.000Z</time>
      </trkpt>
      <trkpt lat="47.50372" lon="6.76401">
        <ele>417.5</ele>
        <time>2014-06-08T08:21:06.000Z</time>
      </trkpt>
      <trkpt lat="47.50374" lon="6.76397">
        <ele>418.8</ele>
        <time>2014-06-08T08:21:07.000Z</time>
      </trkpt>
      <trkpt lat="47.50375" lon="6.76393">
        <ele>417.7</ele>
        <time>2014-06-08T08:21:08.000Z</time>
      </trkpt>
      <trkpt lat="47.50376" lon="6.76388">
        <ele>417</ele>
        <time>2014-06-08T08:21:09.000Z</time>
      </trkpt>
      <trkpt lat="47.50377" lon="6.76383">
        <ele>416.7</ele>
        <time>2014-06-08T08:21:10.000Z</time>
      </trkpt>
      <trkpt lat="47.50379" lon="6.76378">
        <ele>418</ele>
        <time>2014-06-08T08:21:11.000Z</time>
      </trkpt>
      <trkpt lat="47.5038" lon="6.76373">
        <ele>418.1</ele>
        <time>2014-06-08T08:21:12.000Z</time>
      </trkpt>
      <trkpt lat="47.50381" lon="6.76369">
        <ele>419.7</ele>
        <time>2014-06-08T08:21:13.000Z</time>
      </trkpt>
      <trkpt lat="47.50382" lon="6.76366">
        <ele>419.7</ele>
        <time>2014-06-08T08:21:14.000Z</time>
      </trkpt>
      <trkpt lat="47.50384" lon="6.76363">
        <ele>418.8</ele>
        <time>2014-06-08T08:21:15.000Z</time>
      </trkpt>
      <trkpt lat="47.50385" lon="6.7636">
        <ele>417.7</ele>
        <time>2014-06-08T08:21:16.000Z</time>
      </trkpt>
      <trkpt lat="47.50386" lon="6.76356">
        <ele>418</ele>
        <time>2014-06-08T08:21:17.000Z</time>
      </trkpt>
      <trkpt lat="47.50388" lon="6.76353">
        <ele>418.2</ele>
        <time>2014-06-08T08:21:18.000Z</time>
      </trkpt>
      <trkpt lat="47.50389" lon="6.76349">
        <ele>418.5</ele>
        <time>2014-06-08T08:21:19.000Z</time>
      </trkpt>
      <trkpt lat="47.50391" lon="6.76346">
        <ele>417.9</ele>
        <time>2014-06-08T08:21:20.000Z</time>
      </trkpt>
      <trkpt lat="47.50392" lon="6.76343">
        <ele>417.3</ele>
        <time>2014-06-08T08:21:21.000Z</time>
      </trkpt>
      <trkpt lat="47.50394" lon="6.7634">
        <ele>416.7</ele>
        <time>2014-06-08T08:21:22.000Z</time>
      </trkpt>
      <trkpt lat="47.50395" lon="6.76336">
        <ele>416.9</ele>
        <time>2014-06-08T08:21:23.000Z</time>
      </trkpt>
      <trkpt lat="47.50396" lon="6.76333">
        <ele>415.4</ele>
        <time>2014-06-08T08:21:24.000Z</time>
      </trkpt>
      <trkpt lat="47.50396" lon="6.76329">
        <ele>417.7</ele>
        <time>2014-06-08T08:21:25.000Z</time>
      </trkpt>
      <trkpt lat="47.50396" lon="6.76326">
        <ele>418</ele>
        <time>2014-06-08T08:21:26.000Z</time>
      </trkpt>
      <trkpt lat="47.50397" lon="6.76322">
        <ele>418.3</ele>
        <time>2014-06-08T08:21:27.000Z</time>
      </trkpt>
      <trkpt lat="47.50398" lon="6.76318">
        <ele>418.3</ele>
        <time>2014-06-08T08:21:28.000Z</time>
      </trkpt>
      <trkpt lat="47.50399" lon="6.76314">
        <ele>422.2</ele>
        <time>2014-06-08T08:21:30.000Z</time>
      </trkpt>
      <trkpt lat="47.504" lon="6.76313">
        <ele>423.6</ele>
        <time>2014-06-08T08:21:31.000Z</time>
      </trkpt>
      <trkpt lat="47.50403" lon="6.7631">
        <ele>426.6</ele>
        <time>2014-06-08T08:21:35.000Z</time>
      </trkpt>
      <trkpt lat="47.50404" lon="6.76308">
        <ele>426.1</ele>
        <time>2014-06-08T08:21:36.000Z</time>
      </trkpt>
      <trkpt lat="47.50406" lon="6.76304">
        <ele>427.4</ele>
        <time>2014-06-08T08:21:38.000Z</time>
      </trkpt>
      <trkpt lat="47.50407" lon="6.76303">
        <ele>428</ele>
        <time>2014-06-08T08:21:39.000Z</time>
      </trkpt>
      <trkpt lat="47.50412" lon="6.76297">
        <ele>422.4</ele>
        <time>2014-06-08T08:21:47.000Z</time>
      </trkpt>
      <trkpt lat="47.50414" lon="6.76293">
        <ele>422.7</ele>
        <time>2014-06-08T08:21:50.000Z</time>
      </trkpt>
      <trkpt lat="47.50415" lon="6.76291">
        <ele>423.2</ele>
        <time>2014-06-08T08:21:51.000Z</time>
      </trkpt>
      <trkpt lat="47.50417" lon="6.76287">
        <ele>424</ele>
        <time>2014-06-08T08:21:53.000Z</time>
      </trkpt>
      <trkpt lat="47.50418" lon="6.76285">
        <ele>423.1</ele>
        <time>2014-06-08T08:21:54.000Z</time>
      </trkpt>
      <trkpt lat="47.5042" lon="6.76282">
        <ele>422.9</ele>
        <time>2014-06-08T08:21:55.000Z</time>
      </trkpt>
      <trkpt lat="47.50421" lon="6.76278">
        <ele>421.9</ele>
        <time>2014-06-08T08:21:56.000Z</time>
      </trkpt>
      <trkpt lat="47.50423" lon="6.76275">
        <ele>422.7</ele>
        <time>2014-06-08T08:21:57.000Z</time>
      </trkpt>
      <trkpt lat="47.50424" lon="6.76272">
        <ele>422.4</ele>
        <time>2014-06-08T08:21:58.000Z</time>
      </trkpt>
      <trkpt lat="47.50426" lon="6.76269">
        <ele>423.3</ele>
        <time>2014-06-08T08:21:59.000Z</time>
      </trkpt>
      <trkpt lat="47.50428" lon="6.76267">
        <ele>423.8</ele>
        <time>2014-06-08T08:22:00.000Z</time>
      </trkpt>
      <trkpt lat="47.5043" lon="6.76264">
        <ele>423</ele>
        <time>2014-06-08T08:22:01.000Z</time>
      </trkpt>
      <trkpt lat="47.50431" lon="6.76262">
        <ele>421.2</ele>
        <time>2014-06-08T08:22:02.000Z</time>
      </trkpt>
      <trkpt lat="47.50434" lon="6.76256">
        <ele>421.8</ele>
        <time>2014-06-08T08:22:04.000Z</time>
      </trkpt>
      <trkpt lat="47.50435" lon="6.76254">
        <ele>422.1</ele>
        <time>2014-06-08T08:22:05.000Z</time>
      </trkpt>
      <trkpt lat="47.50437" lon="6.76252">
        <ele>421.3</ele>
        <time>2014-06-08T08:22:07.000Z</time>
      </trkpt>
      <trkpt lat="47.50439" lon="6.76251">
        <ele>420.9</ele>
        <time>2014-06-08T08:22:08.000Z</time>
      </trkpt>
      <trkpt lat="47.50441" lon="6.76246">
        <ele>418.1</ele>
        <time>2014-06-08T08:22:10.000Z</time>
      </trkpt>
      <trkpt lat="47.50443" lon="6.76244">
        <ele>416.9</ele>
        <time>2014-06-08T08:22:11.000Z</time>
      </trkpt>
      <trkpt lat="47.50447" lon="6.76242">
        <ele>418.1</ele>
        <time>2014-06-08T08:22:13.000Z</time>
      </trkpt>
      <trkpt lat="47.50448" lon="6.76242">
        <ele>420.8</ele>
        <time>2014-06-08T08:22:14.000Z</time>
      </trkpt>
      <trkpt lat="47.50452" lon="6.7624">
        <ele>421.5</ele>
        <time>2014-06-08T08:22:16.000Z</time>
      </trkpt>
      <trkpt lat="47.50454" lon="6.76239">
        <ele>418.7</ele>
        <time>2014-06-08T08:22:17.000Z</time>
      </trkpt>
      <trkpt lat="47.50457" lon="6.76238">
        <ele>419.8</ele>
        <time>2014-06-08T08:22:18.000Z</time>
      </trkpt>
      <trkpt lat="47.50459" lon="6.76237">
        <ele>417.1</ele>
        <time>2014-06-08T08:22:19.000Z</time>
      </trkpt>
      <trkpt lat="47.50463" lon="6.76235">
        <ele>418.2</ele>
        <time>2014-06-08T08:22:21.000Z</time>
      </trkpt>
      <trkpt lat="47.50464" lon="6.76234">
        <ele>417.2</ele>
        <time>2014-06-08T08:22:22.000Z</time>
      </trkpt>
      <trkpt lat="47.50467" lon="6.76232">
        <ele>417.1</ele>
        <time>2014-06-08T08:22:24.000Z</time>
      </trkpt>
      <trkpt lat="47.50469" lon="6.76231">
        <ele>416.8</ele>
        <time>2014-06-08T08:22:25.000Z</time>
      </trkpt>
      <trkpt lat="47.50473" lon="6.76229">
        <ele>417</ele>
        <time>2014-06-08T08:22:27.000Z</time>
      </trkpt>
      <trkpt lat="47.50475" lon="6.76226">
        <ele>415.9</ele>
        <time>2014-06-08T08:22:28.000Z</time>
      </trkpt>
      <trkpt lat="47.50477" lon="6.76224">
        <ele>419.5</ele>
        <time>2014-06-08T08:22:29.000Z</time>
      </trkpt>
      <trkpt lat="47.50479" lon="6.76223">
        <ele>420.3</ele>
        <time>2014-06-08T08:22:30.000Z</time>
      </trkpt>
      <trkpt lat="47.50483" lon="6.76222">
        <ele>422.5</ele>
        <time>2014-06-08T08:22:32.000Z</time>
      </trkpt>
      <trkpt lat="47.50484" lon="6.76221">
        <ele>422.2</ele>
        <time>2014-06-08T08:22:33.000Z</time>
      </trkpt>
      <trkpt lat="47.50488" lon="6.76218">
        <ele>425.5</ele>
        <time>2014-06-08T08:22:35.000Z</time>
      </trkpt>
      <trkpt lat="47.5049" lon="6.76218">
        <ele>425.7</ele>
        <time>2014-06-08T08:22:36.000Z</time>
      </trkpt>
      <trkpt lat="47.50494" lon="6.76216">
        <ele>427.4</ele>
        <time>2014-06-08T08:22:38.000Z</time>
      </trkpt>
      <trkpt lat="47.50495" lon="6.76215">
        <ele>429.1</ele>
        <time>2014-06-08T08:22:39.000Z</time>
      </trkpt>
      <trkpt lat="47.50501" lon="6.76214">
        <ele>430.2</ele>
        <time>2014-06-08T08:22:42.000Z</time>
      </trkpt>
      <trkpt lat="47.50503" lon="6.76209">
        <ele>428.9</ele>
        <time>2014-06-08T08:22:46.000Z</time>
      </trkpt>
      <trkpt lat="47.50504" lon="6.76208">
        <ele>429.5</ele>
        <time>2014-06-08T08:22:47.000Z</time>
      </trkpt>
      <trkpt lat="47.50507" lon="6.76205">
        <ele>431.8</ele>
        <time>2014-06-08T08:22:52.000Z</time>
      </trkpt>
      <trkpt lat="47.50507" lon="6.76204">
        <ele>431.4</ele>
        <time>2014-06-08T08:22:53.000Z</time>
      </trkpt>
      <trkpt lat="47.5051" lon="6.76203">
        <ele>429.8</ele>
        <time>2014-06-08T08:22:56.000Z</time>
      </trkpt>
      <trkpt lat="47.50512" lon="6.76203">
        <ele>431.8</ele>
        <time>2014-06-08T08:22:57.000Z</time>
      </trkpt>
      <trkpt lat="47.50516" lon="6.76202">
        <ele>430.8</ele>
        <time>2014-06-08T08:22:59.000Z</time>
      </trkpt>
      <trkpt lat="47.50519" lon="6.762">
        <ele>430</ele>
        <time>2014-06-08T08:23:00.000Z</time>
      </trkpt>
      <trkpt lat="47.50522" lon="6.76198">
        <ele>430.6</ele>
        <time>2014-06-08T08:23:01.000Z</time>
      </trkpt>
      <trkpt lat="47.50526" lon="6.76195">
        <ele>429.2</ele>
        <time>2014-06-08T08:23:02.000Z</time>
      </trkpt>
      <trkpt lat="47.5053" lon="6.76192">
        <ele>429.2</ele>
        <time>2014-06-08T08:23:03.000Z</time>
      </trkpt>
      <trkpt lat="47.50534" lon="6.76189">
        <ele>428.6</ele>
        <time>2014-06-08T08:23:04.000Z</time>
      </trkpt>
      <trkpt lat="47.50538" lon="6.76186">
        <ele>425.6</ele>
        <time>2014-06-08T08:23:05.000Z</time>
      </trkpt>
      <trkpt lat="47.50542" lon="6.76182">
        <ele>423.8</ele>
        <time>2014-06-08T08:23:06.000Z</time>
      </trkpt>
      <trkpt lat="47.50545" lon="6.76178">
        <ele>422.6</ele>
        <time>2014-06-08T08:23:07.000Z</time>
      </trkpt>
      <trkpt lat="47.50549" lon="6.76175">
        <ele>421.9</ele>
        <time>2014-06-08T08:23:08.000Z</time>
      </trkpt>
      <trkpt lat="47.50551" lon="6.76172">
        <ele>422.2</ele>
        <time>2014-06-08T08:23:09.000Z</time>
      </trkpt>
      <trkpt lat="47.50553" lon="6.76169">
        <ele>422.9</ele>
        <time>2014-06-08T08:23:10.000Z</time>
      </trkpt>
      <trkpt lat="47.50555" lon="6.76166">
        <ele>425.2</ele>
        <time>2014-06-08T08:23:11.000Z</time>
      </trkpt>
      <trkpt lat="47.50558" lon="6.76162">
        <ele>424.2</ele>
        <time>2014-06-08T08:23:13.000Z</time>
      </trkpt>
      <trkpt lat="47.5056" lon="6.76161">
        <ele>427.5</ele>
        <time>2014-06-08T08:23:14.000Z</time>
      </trkpt>
      <trkpt lat="47.50563" lon="6.76159">
        <ele>426.9</ele>
        <time>2014-06-08T08:23:15.000Z</time>
      </trkpt>
      <trkpt lat="47.50567" lon="6.76157">
        <ele>425.5</ele>
        <time>2014-06-08T08:23:16.000Z</time>
      </trkpt>
      <trkpt lat="47.50572" lon="6.76155">
        <ele>423.3</ele>
        <time>2014-06-08T08:23:17.000Z</time>
      </trkpt>
      <trkpt lat="47.50577" lon="6.76153">
        <ele>422.4</ele>
        <time>2014-06-08T08:23:18.000Z</time>
      </trkpt>
      <trkpt lat="47.50582" lon="6.76152">
        <ele>421.8</ele>
        <time>2014-06-08T08:23:19.000Z</time>
      </trkpt>
      <trkpt lat="47.50594" lon="6.76149">
        <ele>418.2</ele>
        <time>2014-06-08T08:23:20.000Z</time>
      </trkpt>
      <trkpt lat="47.50601" lon="6.76147">
        <ele>416.6</ele>
        <time>2014-06-08T08:23:21.000Z</time>
      </trkpt>
      <trkpt lat="47.50608" lon="6.76145">
        <ele>415.8</ele>
        <time>2014-06-08T08:23:22.000Z</time>
      </trkpt>
      <trkpt lat="47.50616" lon="6.76143">
        <ele>415.6</ele>
        <time>2014-06-08T08:23:23.000Z</time>
      </trkpt>
      <trkpt lat="47.50623" lon="6.76144">
        <ele>414.7</ele>
        <time>2014-06-08T08:23:24.000Z</time>
      </trkpt>
      <trkpt lat="47.50629" lon="6.76142">
        <ele>414.1</ele>
        <time>2014-06-08T08:23:25.000Z</time>
      </trkpt>
      <trkpt lat="47.50636" lon="6.76143">
        <ele>413.7</ele>
        <time>2014-06-08T08:23:26.000Z</time>
      </trkpt>
      <trkpt lat="47.50643" lon="6.76144">
        <ele>413.5</ele>
        <time>2014-06-08T08:23:27.000Z</time>
      </trkpt>
      <trkpt lat="47.50649" lon="6.76152">
        <ele>411.3</ele>
        <time>2014-06-08T08:23:28.000Z</time>
      </trkpt>
      <trkpt lat="47.50655" lon="6.76154">
        <ele>408.9</ele>
        <time>2014-06-08T08:23:29.000Z</time>
      </trkpt>
      <trkpt lat="47.5066" lon="6.76159">
        <ele>409</ele>
        <time>2014-06-08T08:23:30.000Z</time>
      </trkpt>
      <trkpt lat="47.50665" lon="6.76162">
        <ele>407.9</ele>
        <time>2014-06-08T08:23:31.000Z</time>
      </trkpt>
      <trkpt lat="47.50668" lon="6.76161">
        <ele>407.7</ele>
        <time>2014-06-08T08:23:32.000Z</time>
      </trkpt>
      <trkpt lat="47.5067" lon="6.76163">
        <ele>406.9</ele>
        <time>2014-06-08T08:23:33.000Z</time>
      </trkpt>
      <trkpt lat="47.50673" lon="6.76166">
        <ele>406</ele>
        <time>2014-06-08T08:23:34.000Z</time>
      </trkpt>
      <trkpt lat="47.50675" lon="6.76169">
        <ele>406.1</ele>
        <time>2014-06-08T08:23:35.000Z</time>
      </trkpt>
      <trkpt lat="47.50677" lon="6.76171">
        <ele>405.3</ele>
        <time>2014-06-08T08:23:36.000Z</time>
      </trkpt>
      <trkpt lat="47.50681" lon="6.76173">
        <ele>404.9</ele>
        <time>2014-06-08T08:23:37.000Z</time>
      </trkpt>
      <trkpt lat="47.50689" lon="6.76174">
        <ele>409.3</ele>
        <time>2014-06-08T08:23:38.000Z</time>
      </trkpt>
      <trkpt lat="47.50694" lon="6.76173">
        <ele>408.5</ele>
        <time>2014-06-08T08:23:39.000Z</time>
      </trkpt>
      <trkpt lat="47.50703" lon="6.76178">
        <ele>408.1</ele>
        <time>2014-06-08T08:23:42.000Z</time>
      </trkpt>
      <trkpt lat="47.50701" lon="6.76182">
        <ele>404.6</ele>
        <time>2014-06-08T08:23:46.000Z</time>
      </trkpt>
      <trkpt lat="47.50702" lon="6.76188">
        <ele>397.1</ele>
        <time>2014-06-08T08:23:47.000Z</time>
      </trkpt>
      <trkpt lat="47.50706" lon="6.76191">
        <ele>391.2</ele>
        <time>2014-06-08T08:23:49.000Z</time>
      </trkpt>
      <trkpt lat="47.50707" lon="6.7619">
        <ele>389.2</ele>
        <time>2014-06-08T08:23:50.000Z</time>
      </trkpt>
      <trkpt lat="47.50712" lon="6.76186">
        <ele>388.9</ele>
        <time>2014-06-08T08:23:51.000Z</time>
      </trkpt>
      <trkpt lat="47.50713" lon="6.76182">
        <ele>386</ele>
        <time>2014-06-08T08:23:52.000Z</time>
      </trkpt>
      <trkpt lat="47.50714" lon="6.76179">
        <ele>384.3</ele>
        <time>2014-06-08T08:23:53.000Z</time>
      </trkpt>
      <trkpt lat="47.50716" lon="6.76174">
        <ele>384.2</ele>
        <time>2014-06-08T08:23:54.000Z</time>
      </trkpt>
      <trkpt lat="47.50716" lon="6.76169">
        <ele>384.4</ele>
        <time>2014-06-08T08:23:55.000Z</time>
      </trkpt>
      <trkpt lat="47.50717" lon="6.76163">
        <ele>382.1</ele>
        <time>2014-06-08T08:23:56.000Z</time>
      </trkpt>
      <trkpt lat="47.50717" lon="6.76158">
        <ele>382.3</ele>
        <time>2014-06-08T08:23:57.000Z</time>
      </trkpt>
      <trkpt lat="47.50718" lon="6.76152">
        <ele>383.3</ele>
        <time>2014-06-08T08:23:58.000Z</time>
      </trkpt>
      <trkpt lat="47.50718" lon="6.76146">
        <ele>384.6</ele>
        <time>2014-06-08T08:23:59.000Z</time>
      </trkpt>
      <trkpt lat="47.50723" lon="6.7614">
        <ele>380.1</ele>
        <time>2014-06-08T08:24:00.000Z</time>
      </trkpt>
      <trkpt lat="47.50724" lon="6.76136">
        <ele>380.1</ele>
        <time>2014-06-08T08:24:01.000Z</time>
      </trkpt>
      <trkpt lat="47.50726" lon="6.76131">
        <ele>380.3</ele>
        <time>2014-06-08T08:24:02.000Z</time>
      </trkpt>
      <trkpt lat="47.50729" lon="6.76125">
        <ele>381.5</ele>
        <time>2014-06-08T08:24:03.000Z</time>
      </trkpt>
      <trkpt lat="47.50731" lon="6.7612">
        <ele>381.3</ele>
        <time>2014-06-08T08:24:04.000Z</time>
      </trkpt>
      <trkpt lat="47.50733" lon="6.76114">
        <ele>381.1</ele>
        <time>2014-06-08T08:24:05.000Z</time>
      </trkpt>
      <trkpt lat="47.50734" lon="6.76109">
        <ele>380.9</ele>
        <time>2014-06-08T08:24:06.000Z</time>
      </trkpt>
      <trkpt lat="47.50736" lon="6.76103">
        <ele>380.8</ele>
        <time>2014-06-08T08:24:07.000Z</time>
      </trkpt>
      <trkpt lat="47.50738" lon="6.76101">
        <ele>380.8</ele>
        <time>2014-06-08T08:24:08.000Z</time>
      </trkpt>
      <trkpt lat="47.50739" lon="6.76099">
        <ele>381.6</ele>
        <time>2014-06-08T08:24:09.000Z</time>
      </trkpt>
      <trkpt lat="47.5074" lon="6.76095">
        <ele>381.9</ele>
        <time>2014-06-08T08:24:10.000Z</time>
      </trkpt>
      <trkpt lat="47.50742" lon="6.76093">
        <ele>382.6</ele>
        <time>2014-06-08T08:24:11.000Z</time>
      </trkpt>
      <trkpt lat="47.50743" lon="6.7609">
        <ele>382.8</ele>
        <time>2014-06-08T08:24:12.000Z</time>
      </trkpt>
      <trkpt lat="47.50745" lon="6.76087">
        <ele>384</ele>
        <time>2014-06-08T08:24:13.000Z</time>
      </trkpt>
      <trkpt lat="47.50746" lon="6.76083">
        <ele>385.7</ele>
        <time>2014-06-08T08:24:14.000Z</time>
      </trkpt>
      <trkpt lat="47.50747" lon="6.76079">
        <ele>386.7</ele>
        <time>2014-06-08T08:24:15.000Z</time>
      </trkpt>
      <trkpt lat="47.50748" lon="6.76074">
        <ele>387.4</ele>
        <time>2014-06-08T08:24:16.000Z</time>
      </trkpt>
      <trkpt lat="47.5075" lon="6.7607">
        <ele>386.8</ele>
        <time>2014-06-08T08:24:17.000Z</time>
      </trkpt>
      <trkpt lat="47.50752" lon="6.76066">
        <ele>386.4</ele>
        <time>2014-06-08T08:24:18.000Z</time>
      </trkpt>
      <trkpt lat="47.50754" lon="6.76063">
        <ele>388.4</ele>
        <time>2014-06-08T08:24:19.000Z</time>
      </trkpt>
      <trkpt lat="47.50756" lon="6.76059">
        <ele>389.4</ele>
        <time>2014-06-08T08:24:20.000Z</time>
      </trkpt>
      <trkpt lat="47.50757" lon="6.76056">
        <ele>390.7</ele>
        <time>2014-06-08T08:24:21.000Z</time>
      </trkpt>
      <trkpt lat="47.50758" lon="6.76052">
        <ele>390.8</ele>
        <time>2014-06-08T08:24:23.000Z</time>
      </trkpt>
      <trkpt lat="47.50759" lon="6.7605">
        <ele>390</ele>
        <time>2014-06-08T08:24:24.000Z</time>
      </trkpt>
      <trkpt lat="47.50762" lon="6.76046">
        <ele>385.5</ele>
        <time>2014-06-08T08:24:27.000Z</time>
      </trkpt>
      <trkpt lat="47.50763" lon="6.76045">
        <ele>384.3</ele>
        <time>2014-06-08T08:24:28.000Z</time>
      </trkpt>
      <trkpt lat="47.50766" lon="6.76041">
        <ele>386</ele>
        <time>2014-06-08T08:24:31.000Z</time>
      </trkpt>
      <trkpt lat="47.50767" lon="6.7604">
        <ele>388</ele>
        <time>2014-06-08T08:24:32.000Z</time>
      </trkpt>
      <trkpt lat="47.50769" lon="6.76036">
        <ele>390.2</ele>
        <time>2014-06-08T08:24:34.000Z</time>
      </trkpt>
      <trkpt lat="47.5077" lon="6.76033">
        <ele>391.1</ele>
        <time>2014-06-08T08:24:35.000Z</time>
      </trkpt>
      <trkpt lat="47.50772" lon="6.76028">
        <ele>394.1</ele>
        <time>2014-06-08T08:24:37.000Z</time>
      </trkpt>
      <trkpt lat="47.50773" lon="6.76026">
        <ele>393.5</ele>
        <time>2014-06-08T08:24:38.000Z</time>
      </trkpt>
      <trkpt lat="47.50774" lon="6.76024">
        <ele>393.2</ele>
        <time>2014-06-08T08:24:39.000Z</time>
      </trkpt>
      <trkpt lat="47.50777" lon="6.7602">
        <ele>392.8</ele>
        <time>2014-06-08T08:24:42.000Z</time>
      </trkpt>
      <trkpt lat="47.50779" lon="6.76015">
        <ele>394.6</ele>
        <time>2014-06-08T08:24:44.000Z</time>
      </trkpt>
      <trkpt lat="47.5078" lon="6.76013">
        <ele>395.6</ele>
        <time>2014-06-08T08:24:45.000Z</time>
      </trkpt>
      <trkpt lat="47.50784" lon="6.76014">
        <ele>391.5</ele>
        <time>2014-06-08T08:24:48.000Z</time>
      </trkpt>
      <trkpt lat="47.50786" lon="6.76015">
        <ele>391.1</ele>
        <time>2014-06-08T08:24:49.000Z</time>
      </trkpt>
      <trkpt lat="47.50788" lon="6.76014">
        <ele>390.9</ele>
        <time>2014-06-08T08:24:50.000Z</time>
      </trkpt>
      <trkpt lat="47.50791" lon="6.76013">
        <ele>391.1</ele>
        <time>2014-06-08T08:24:51.000Z</time>
      </trkpt>
      <trkpt lat="47.50795" lon="6.76012">
        <ele>391.2</ele>
        <time>2014-06-08T08:24:53.000Z</time>
      </trkpt>
      <trkpt lat="47.50796" lon="6.76011">
        <ele>392.2</ele>
        <time>2014-06-08T08:24:54.000Z</time>
      </trkpt>
      <trkpt lat="47.508" lon="6.76007">
        <ele>397.1</ele>
        <time>2014-06-08T08:24:57.000Z</time>
      </trkpt>
      <trkpt lat="47.508" lon="6.76007">
        <ele>396.1</ele>
        <time>2014-06-08T08:24:58.000Z</time>
      </trkpt>
      <trkpt lat="47.50801" lon="6.76002">
        <ele>399.3</ele>
        <time>2014-06-08T08:25:02.000Z</time>
      </trkpt>
      <trkpt lat="47.50802" lon="6.75998">
        <ele>399.7</ele>
        <time>2014-06-08T08:25:03.000Z</time>
      </trkpt>
      <trkpt lat="47.50802" lon="6.75993">
        <ele>403.9</ele>
        <time>2014-06-08T08:25:04.000Z</time>
      </trkpt>
      <trkpt lat="47.50802" lon="6.75989">
        <ele>404.7</ele>
        <time>2014-06-08T08:25:05.000Z</time>
      </trkpt>
      <trkpt lat="47.50802" lon="6.75985">
        <ele>405.9</ele>
        <time>2014-06-08T08:25:06.000Z</time>
      </trkpt>
      <trkpt lat="47.50802" lon="6.7598">
        <ele>407.3</ele>
        <time>2014-06-08T08:25:07.000Z</time>
      </trkpt>
      <trkpt lat="47.50803" lon="6.75975">
        <ele>408.5</ele>
        <time>2014-06-08T08:25:08.000Z</time>
      </trkpt>
      <trkpt lat="47.50803" lon="6.7597">
        <ele>408.6</ele>
        <time>2014-06-08T08:25:09.000Z</time>
      </trkpt>
      <trkpt lat="47.50803" lon="6.75964">
        <ele>409.4</ele>
        <time>2014-06-08T08:25:10.000Z</time>
      </trkpt>
      <trkpt lat="47.50802" lon="6.75959">
        <ele>410.1</ele>
        <time>2014-06-08T08:25:11.000Z</time>
      </trkpt>
      <trkpt lat="47.50801" lon="6.75954">
        <ele>412.4</ele>
        <time>2014-06-08T08:25:12.000Z</time>
      </trkpt>
      <trkpt lat="47.50801" lon="6.75949">
        <ele>414.2</ele>
        <time>2014-06-08T08:25:13.000Z</time>
      </trkpt>
      <trkpt lat="47.508" lon="6.75945">
        <ele>416.4</ele>
        <time>2014-06-08T08:25:14.000Z</time>
      </trkpt>
      <trkpt lat="47.50799" lon="6.75941">
        <ele>415.9</ele>
        <time>2014-06-08T08:25:15.000Z</time>
      </trkpt>
      <trkpt lat="47.50799" lon="6.75936">
        <ele>416.8</ele>
        <time>2014-06-08T08:25:16.000Z</time>
      </trkpt>
      <trkpt lat="47.50799" lon="6.75932">
        <ele>416.5</ele>
        <time>2014-06-08T08:25:17.000Z</time>
      </trkpt>
      <trkpt lat="47.50799" lon="6.75926">
        <ele>418.4</ele>
        <time>2014-06-08T08:25:19.000Z</time>
      </trkpt>
      <trkpt lat="47.50799" lon="6.75924">
        <ele>418.9</ele>
        <time>2014-06-08T08:25:20.000Z</time>
      </trkpt>
      <trkpt lat="47.50799" lon="6.7592">
        <ele>420.7</ele>
        <time>2014-06-08T08:25:22.000Z</time>
      </trkpt>
      <trkpt lat="47.50799" lon="6.75917">
        <ele>421</ele>
        <time>2014-06-08T08:25:23.000Z</time>
      </trkpt>
      <trkpt lat="47.50799" lon="6.75913">
        <ele>422.2</ele>
        <time>2014-06-08T08:25:24.000Z</time>
      </trkpt>
      <trkpt lat="47.508" lon="6.7591">
        <ele>423.7</ele>
        <time>2014-06-08T08:25:25.000Z</time>
      </trkpt>
      <trkpt lat="47.508" lon="6.75906">
        <ele>424.2</ele>
        <time>2014-06-08T08:25:26.000Z</time>
      </trkpt>
      <trkpt lat="47.50801" lon="6.75902">
        <ele>425.6</ele>
        <time>2014-06-08T08:25:27.000Z</time>
      </trkpt>
      <trkpt lat="47.50802" lon="6.75899">
        <ele>425.7</ele>
        <time>2014-06-08T08:25:28.000Z</time>
      </trkpt>
      <trkpt lat="47.50803" lon="6.75895">
        <ele>424.8</ele>
        <time>2014-06-08T08:25:29.000Z</time>
      </trkpt>
      <trkpt lat="47.50804" lon="6.75891">
        <ele>424.2</ele>
        <time>2014-06-08T08:25:30.000Z</time>
      </trkpt>
      <trkpt lat="47.50804" lon="6.75886">
        <ele>421.8</ele>
        <time>2014-06-08T08:25:31.000Z</time>
      </trkpt>
      <trkpt lat="47.50803" lon="6.75881">
        <ele>420.8</ele>
        <time>2014-06-08T08:25:32.000Z</time>
      </trkpt>
      <trkpt lat="47.50802" lon="6.75875">
        <ele>420.3</ele>
        <time>2014-06-08T08:25:33.000Z</time>
      </trkpt>
      <trkpt lat="47.50801" lon="6.75869">
        <ele>420.1</ele>
        <time>2014-06-08T08:25:34.000Z</time>
      </trkpt>
      <trkpt lat="47.508" lon="6.75863">
        <ele>418.6</ele>
        <time>2014-06-08T08:25:35.000Z</time>
      </trkpt>
      <trkpt lat="47.508" lon="6.75857">
        <ele>418.7</ele>
        <time>2014-06-08T08:25:36.000Z</time>
      </trkpt>
      <trkpt lat="47.508" lon="6.75851">
        <ele>417.5</ele>
        <time>2014-06-08T08:25:37.000Z</time>
      </trkpt>
      <trkpt lat="47.508" lon="6.75845">
        <ele>420.4</ele>
        <time>2014-06-08T08:25:38.000Z</time>
      </trkpt>
      <trkpt lat="47.50799" lon="6.75839">
        <ele>421.6</ele>
        <time>2014-06-08T08:25:39.000Z</time>
      </trkpt>
      <trkpt lat="47.50798" lon="6.75828">
        <ele>423.4</ele>
        <time>2014-06-08T08:25:42.000Z</time>
      </trkpt>
      <trkpt lat="47.50799" lon="6.75822">
        <ele>425.2</ele>
        <time>2014-06-08T08:25:44.000Z</time>
      </trkpt>
      <trkpt lat="47.50801" lon="6.7582">
        <ele>424.3</ele>
        <time>2014-06-08T08:25:45.000Z</time>
      </trkpt>
      <trkpt lat="47.50804" lon="6.75816">
        <ele>422.4</ele>
        <time>2014-06-08T08:25:47.000Z</time>
      </trkpt>
      <trkpt lat="47.50807" lon="6.75814">
        <ele>420</ele>
        <time>2014-06-08T08:25:48.000Z</time>
      </trkpt>
      <trkpt lat="47.50809" lon="6.75811">
        <ele>419</ele>
        <time>2014-06-08T08:25:49.000Z</time>
      </trkpt>
      <trkpt lat="47.50812" lon="6.75808">
        <ele>417.2</ele>
        <time>2014-06-08T08:25:50.000Z</time>
      </trkpt>
      <trkpt lat="47.50815" lon="6.75805">
        <ele>418.2</ele>
        <time>2014-06-08T08:25:51.000Z</time>
      </trkpt>
      <trkpt lat="47.50817" lon="6.75802">
        <ele>418.6</ele>
        <time>2014-06-08T08:25:52.000Z</time>
      </trkpt>
      <trkpt lat="47.50819" lon="6.75799">
        <ele>419.1</ele>
        <time>2014-06-08T08:25:53.000Z</time>
      </trkpt>
      <trkpt lat="47.50821" lon="6.75797">
        <ele>417.5</ele>
        <time>2014-06-08T08:25:54.000Z</time>
      </trkpt>
      <trkpt lat="47.50823" lon="6.75795">
        <ele>415.9</ele>
        <time>2014-06-08T08:25:56.000Z</time>
      </trkpt>
      <trkpt lat="47.50825" lon="6.75793">
        <ele>415.2</ele>
        <time>2014-06-08T08:25:57.000Z</time>
      </trkpt>
      <trkpt lat="47.50829" lon="6.7579">
        <ele>413.5</ele>
        <time>2014-06-08T08:25:59.000Z</time>
      </trkpt>
      <trkpt lat="47.5083" lon="6.7579">
        <ele>413.1</ele>
        <time>2014-06-08T08:26:00.000Z</time>
      </trkpt>
      <trkpt lat="47.50834" lon="6.75789">
        <ele>412.1</ele>
        <time>2014-06-08T08:26:03.000Z</time>
      </trkpt>
      <trkpt lat="47.50835" lon="6.75789">
        <ele>411.7</ele>
        <time>2014-06-08T08:26:04.000Z</time>
      </trkpt>
      <trkpt lat="47.50838" lon="6.75789">
        <ele>413</ele>
        <time>2014-06-08T08:26:06.000Z</time>
      </trkpt>
      <trkpt lat="47.5084" lon="6.75789">
        <ele>413.1</ele>
        <time>2014-06-08T08:26:07.000Z</time>
      </trkpt>
      <trkpt lat="47.50843" lon="6.75789">
        <ele>413</ele>
        <time>2014-06-08T08:26:09.000Z</time>
      </trkpt>
      <trkpt lat="47.50845" lon="6.7579">
        <ele>412.8</ele>
        <time>2014-06-08T08:26:10.000Z</time>
      </trkpt>
      <trkpt lat="47.50847" lon="6.7579">
        <ele>412.6</ele>
        <time>2014-06-08T08:26:11.000Z</time>
      </trkpt>
      <trkpt lat="47.5085" lon="6.75791">
        <ele>413.1</ele>
        <time>2014-06-08T08:26:12.000Z</time>
      </trkpt>
      <trkpt lat="47.50852" lon="6.7579">
        <ele>413.2</ele>
        <time>2014-06-08T08:26:13.000Z</time>
      </trkpt>
      <trkpt lat="47.50855" lon="6.7579">
        <ele>413</ele>
        <time>2014-06-08T08:26:14.000Z</time>
      </trkpt>
      <trkpt lat="47.50858" lon="6.75787">
        <ele>412.6</ele>
        <time>2014-06-08T08:26:16.000Z</time>
      </trkpt>
      <trkpt lat="47.5086" lon="6.75785">
        <ele>413.1</ele>
        <time>2014-06-08T08:26:17.000Z</time>
      </trkpt>
      <trkpt lat="47.50863" lon="6.75785">
        <ele>412.5</ele>
        <time>2014-06-08T08:26:19.000Z</time>
      </trkpt>
      <trkpt lat="47.50865" lon="6.75784">
        <ele>413.8</ele>
        <time>2014-06-08T08:26:20.000Z</time>
      </trkpt>
      <trkpt lat="47.50869" lon="6.75783">
        <ele>413</ele>
        <time>2014-06-08T08:26:22.000Z</time>
      </trkpt>
      <trkpt lat="47.50871" lon="6.75783">
        <ele>412.8</ele>
        <time>2014-06-08T08:26:23.000Z</time>
      </trkpt>
      <trkpt lat="47.50873" lon="6.75782">
        <ele>413.3</ele>
        <time>2014-06-08T08:26:24.000Z</time>
      </trkpt>
      <trkpt lat="47.50876" lon="6.75782">
        <ele>414</ele>
        <time>2014-06-08T08:26:25.000Z</time>
      </trkpt>
      <trkpt lat="47.50878" lon="6.75782">
        <ele>412.3</ele>
        <time>2014-06-08T08:26:26.000Z</time>
      </trkpt>
      <trkpt lat="47.50881" lon="6.75783">
        <ele>411.3</ele>
        <time>2014-06-08T08:26:27.000Z</time>
      </trkpt>
      <trkpt lat="47.50884" lon="6.75785">
        <ele>408.3</ele>
        <time>2014-06-08T08:26:28.000Z</time>
      </trkpt>
      <trkpt lat="47.50887" lon="6.75787">
        <ele>409.7</ele>
        <time>2014-06-08T08:26:29.000Z</time>
      </trkpt>
      <trkpt lat="47.50889" lon="6.75789">
        <ele>407.9</ele>
        <time>2014-06-08T08:26:30.000Z</time>
      </trkpt>
      <trkpt lat="47.50892" lon="6.7579">
        <ele>407.8</ele>
        <time>2014-06-08T08:26:31.000Z</time>
      </trkpt>
      <trkpt lat="47.50896" lon="6.75792">
        <ele>408.9</ele>
        <time>2014-06-08T08:26:32.000Z</time>
      </trkpt>
      <trkpt lat="47.50899" lon="6.75793">
        <ele>410.3</ele>
        <time>2014-06-08T08:26:33.000Z</time>
      </trkpt>
      <trkpt lat="47.50902" lon="6.75795">
        <ele>410.3</ele>
        <time>2014-06-08T08:26:34.000Z</time>
      </trkpt>
      <trkpt lat="47.50906" lon="6.75796">
        <ele>410.4</ele>
        <time>2014-06-08T08:26:35.000Z</time>
      </trkpt>
      <trkpt lat="47.50909" lon="6.75797">
        <ele>410.1</ele>
        <time>2014-06-08T08:26:36.000Z</time>
      </trkpt>
      <trkpt lat="47.50912" lon="6.75797">
        <ele>410.2</ele>
        <time>2014-06-08T08:26:37.000Z</time>
      </trkpt>
      <trkpt lat="47.50916" lon="6.75798">
        <ele>410.2</ele>
        <time>2014-06-08T08:26:38.000Z</time>
      </trkpt>
      <trkpt lat="47.50919" lon="6.75799">
        <ele>410.4</ele>
        <time>2014-06-08T08:26:39.000Z</time>
      </trkpt>
      <trkpt lat="47.50926" lon="6.758">
        <ele>411.1</ele>
        <time>2014-06-08T08:26:42.000Z</time>
      </trkpt>
      <trkpt lat="47.50928" lon="6.758">
        <ele>417.9</ele>
        <time>2014-06-08T08:26:43.000Z</time>
      </trkpt>
      <trkpt lat="47.50932" lon="6.758">
        <ele>419.1</ele>
        <time>2014-06-08T08:26:44.000Z</time>
      </trkpt>
      <trkpt lat="47.50936" lon="6.758">
        <ele>419.7</ele>
        <time>2014-06-08T08:26:45.000Z</time>
      </trkpt>
      <trkpt lat="47.5094" lon="6.758">
        <ele>419.7</ele>
        <time>2014-06-08T08:26:46.000Z</time>
      </trkpt>
      <trkpt lat="47.50953" lon="6.75808">
        <ele>414.3</ele>
        <time>2014-06-08T08:26:47.000Z</time>
      </trkpt>
      <trkpt lat="47.50959" lon="6.75809">
        <ele>413.3</ele>
        <time>2014-06-08T08:26:48.000Z</time>
      </trkpt>
      <trkpt lat="47.50965" lon="6.75811">
        <ele>411.6</ele>
        <time>2014-06-08T08:26:49.000Z</time>
      </trkpt>
      <trkpt lat="47.50972" lon="6.75812">
        <ele>411.3</ele>
        <time>2014-06-08T08:26:50.000Z</time>
      </trkpt>
      <trkpt lat="47.50979" lon="6.75817">
        <ele>407.4</ele>
        <time>2014-06-08T08:26:51.000Z</time>
      </trkpt>
      <trkpt lat="47.50985" lon="6.75818">
        <ele>406.4</ele>
        <time>2014-06-08T08:26:52.000Z</time>
      </trkpt>
      <trkpt lat="47.50991" lon="6.75818">
        <ele>406.3</ele>
        <time>2014-06-08T08:26:53.000Z</time>
      </trkpt>
      <trkpt lat="47.50997" lon="6.75819">
        <ele>405.9</ele>
        <time>2014-06-08T08:26:54.000Z</time>
      </trkpt>
      <trkpt lat="47.51004" lon="6.75819">
        <ele>404.4</ele>
        <time>2014-06-08T08:26:55.000Z</time>
      </trkpt>
      <trkpt lat="47.51011" lon="6.7582">
        <ele>403.8</ele>
        <time>2014-06-08T08:26:56.000Z</time>
      </trkpt>
      <trkpt lat="47.51017" lon="6.75821">
        <ele>403.6</ele>
        <time>2014-06-08T08:26:57.000Z</time>
      </trkpt>
      <trkpt lat="47.51024" lon="6.7582">
        <ele>401.5</ele>
        <time>2014-06-08T08:26:58.000Z</time>
      </trkpt>
      <trkpt lat="47.51032" lon="6.7582">
        <ele>399.5</ele>
        <time>2014-06-08T08:26:59.000Z</time>
      </trkpt>
      <trkpt lat="47.51037" lon="6.75817">
        <ele>399.2</ele>
        <time>2014-06-08T08:27:00.000Z</time>
      </trkpt>
      <trkpt lat="47.51042" lon="6.75815">
        <ele>398.8</ele>
        <time>2014-06-08T08:27:01.000Z</time>
      </trkpt>
      <trkpt lat="47.51045" lon="6.75814">
        <ele>398.2</ele>
        <time>2014-06-08T08:27:02.000Z</time>
      </trkpt>
      <trkpt lat="47.51047" lon="6.75814">
        <ele>397</ele>
        <time>2014-06-08T08:27:03.000Z</time>
      </trkpt>
      <trkpt lat="47.51049" lon="6.75813">
        <ele>393.8</ele>
        <time>2014-06-08T08:27:04.000Z</time>
      </trkpt>
      <trkpt lat="47.51052" lon="6.75813">
        <ele>392.7</ele>
        <time>2014-06-08T08:27:05.000Z</time>
      </trkpt>
      <trkpt lat="47.51054" lon="6.75812">
        <ele>392.3</ele>
        <time>2014-06-08T08:27:06.000Z</time>
      </trkpt>
      <trkpt lat="47.51057" lon="6.75811">
        <ele>392.2</ele>
        <time>2014-06-08T08:27:07.000Z</time>
      </trkpt>
      <trkpt lat="47.5106" lon="6.75814">
        <ele>390.1</ele>
        <time>2014-06-08T08:27:08.000Z</time>
      </trkpt>
      <trkpt lat="47.51062" lon="6.75812">
        <ele>389.7</ele>
        <time>2014-06-08T08:27:09.000Z</time>
      </trkpt>
      <trkpt lat="47.51067" lon="6.7581">
        <ele>389.8</ele>
        <time>2014-06-08T08:27:10.000Z</time>
      </trkpt>
      <trkpt lat="47.5107" lon="6.75809">
        <ele>391.8</ele>
        <time>2014-06-08T08:27:11.000Z</time>
      </trkpt>
      <trkpt lat="47.51073" lon="6.75807">
        <ele>392.5</ele>
        <time>2014-06-08T08:27:12.000Z</time>
      </trkpt>
      <trkpt lat="47.51077" lon="6.75805">
        <ele>390.6</ele>
        <time>2014-06-08T08:27:13.000Z</time>
      </trkpt>
      <trkpt lat="47.5108" lon="6.75804">
        <ele>388.1</ele>
        <time>2014-06-08T08:27:14.000Z</time>
      </trkpt>
      <trkpt lat="47.51083" lon="6.75803">
        <ele>387.2</ele>
        <time>2014-06-08T08:27:15.000Z</time>
      </trkpt>
      <trkpt lat="47.51085" lon="6.75803">
        <ele>387.1</ele>
        <time>2014-06-08T08:27:16.000Z</time>
      </trkpt>
      <trkpt lat="47.51088" lon="6.75804">
        <ele>386.8</ele>
        <time>2014-06-08T08:27:17.000Z</time>
      </trkpt>
      <trkpt lat="47.51091" lon="6.75804">
        <ele>384.9</ele>
        <time>2014-06-08T08:27:18.000Z</time>
      </trkpt>
      <trkpt lat="47.51095" lon="6.75804">
        <ele>381.6</ele>
        <time>2014-06-08T08:27:19.000Z</time>
      </trkpt>
      <trkpt lat="47.51099" lon="6.75803">
        <ele>380.3</ele>
        <time>2014-06-08T08:27:20.000Z</time>
      </trkpt>
      <trkpt lat="47.51102" lon="6.75802">
        <ele>379.9</ele>
        <time>2014-06-08T08:27:20.999Z</time>
      </trkpt>
      <trkpt lat="47.51108" lon="6.75801">
        <ele>377.7</ele>
        <time>2014-06-08T08:27:22.000Z</time>
      </trkpt>
      <trkpt lat="47.51113" lon="6.758">
        <ele>376.3</ele>
        <time>2014-06-08T08:27:23.000Z</time>
      </trkpt>
      <trkpt lat="47.51117" lon="6.75799">
        <ele>372.4</ele>
        <time>2014-06-08T08:27:24.000Z</time>
      </trkpt>
      <trkpt lat="47.51121" lon="6.75799">
        <ele>367.9</ele>
        <time>2014-06-08T08:27:25.000Z</time>
      </trkpt>
      <trkpt lat="47.51124" lon="6.75798">
        <ele>363.2</ele>
        <time>2014-06-08T08:27:26.000Z</time>
      </trkpt>
      <trkpt lat="47.51127" lon="6.75797">
        <ele>360.5</ele>
        <time>2014-06-08T08:27:27.000Z</time>
      </trkpt>
      <trkpt lat="47.51129" lon="6.75796">
        <ele>358.7</ele>
        <time>2014-06-08T08:27:28.000Z</time>
      </trkpt>
      <trkpt lat="47.51132" lon="6.75796">
        <ele>357.6</ele>
        <time>2014-06-08T08:27:29.000Z</time>
      </trkpt>
      <trkpt lat="47.51135" lon="6.75796">
        <ele>356.3</ele>
        <time>2014-06-08T08:27:30.000Z</time>
      </trkpt>
      <trkpt lat="47.51138" lon="6.75796">
        <ele>354.8</ele>
        <time>2014-06-08T08:27:31.000Z</time>
      </trkpt>
      <trkpt lat="47.51141" lon="6.75796">
        <ele>354.1</ele>
        <time>2014-06-08T08:27:32.000Z</time>
      </trkpt>
      <trkpt lat="47.51144" lon="6.75795">
        <ele>352</ele>
        <time>2014-06-08T08:27:33.000Z</time>
      </trkpt>
      <trkpt lat="47.51146" lon="6.75794">
        <ele>351.1</ele>
        <time>2014-06-08T08:27:34.000Z</time>
      </trkpt>
      <trkpt lat="47.5115" lon="6.75791">
        <ele>346.7</ele>
        <time>2014-06-08T08:27:36.000Z</time>
      </trkpt>
      <trkpt lat="47.51153" lon="6.7579">
        <ele>347.5</ele>
        <time>2014-06-08T08:27:37.000Z</time>
      </trkpt>
      <trkpt lat="47.51156" lon="6.75789">
        <ele>347.8</ele>
        <time>2014-06-08T08:27:38.000Z</time>
      </trkpt>
      <trkpt lat="47.5116" lon="6.75787">
        <ele>347.1</ele>
        <time>2014-06-08T08:27:39.000Z</time>
      </trkpt>
      <trkpt lat="47.51167" lon="6.75782">
        <ele>346.2</ele>
        <time>2014-06-08T08:27:42.000Z</time>
      </trkpt>
      <trkpt lat="47.5117" lon="6.75778">
        <ele>348.1</ele>
        <time>2014-06-08T08:27:44.000Z</time>
      </trkpt>
      <trkpt lat="47.51171" lon="6.75776">
        <ele>348.6</ele>
        <time>2014-06-08T08:27:45.000Z</time>
      </trkpt>
      <trkpt lat="47.51175" lon="6.75777">
        <ele>350.5</ele>
        <time>2014-06-08T08:27:50.000Z</time>
      </trkpt>
      <trkpt lat="47.51175" lon="6.7578">
        <ele>352.7</ele>
        <time>2014-06-08T08:27:51.000Z</time>
      </trkpt>
      <trkpt lat="47.51176" lon="6.75785">
        <ele>353.4</ele>
        <time>2014-06-08T08:27:52.000Z</time>
      </trkpt>
      <trkpt lat="47.51177" lon="6.75789">
        <ele>354.4</ele>
        <time>2014-06-08T08:27:53.000Z</time>
      </trkpt>
      <trkpt lat="47.51178" lon="6.75794">
        <ele>354.6</ele>
        <time>2014-06-08T08:27:54.000Z</time>
      </trkpt>
      <trkpt lat="47.51178" lon="6.75798">
        <ele>355.1</ele>
        <time>2014-06-08T08:27:54.997Z</time>
      </trkpt>
      <trkpt lat="47.5118" lon="6.75801">
        <ele>352.9</ele>
        <time>2014-06-08T08:27:56.000Z</time>
      </trkpt>
      <trkpt lat="47.51182" lon="6.75805">
        <ele>351.9</ele>
        <time>2014-06-08T08:27:57.000Z</time>
      </trkpt>
      <trkpt lat="47.51184" lon="6.75809">
        <ele>351.8</ele>
        <time>2014-06-08T08:27:58.000Z</time>
      </trkpt>
      <trkpt lat="47.51185" lon="6.75814">
        <ele>351.6</ele>
        <time>2014-06-08T08:27:59.000Z</time>
      </trkpt>
      <trkpt lat="47.51187" lon="6.75819">
        <ele>352.2</ele>
        <time>2014-06-08T08:28:00.000Z</time>
      </trkpt>
      <trkpt lat="47.51189" lon="6.75824">
        <ele>352.4</ele>
        <time>2014-06-08T08:28:01.000Z</time>
      </trkpt>
      <trkpt lat="47.5119" lon="6.75828">
        <ele>353.9</ele>
        <time>2014-06-08T08:28:02.000Z</time>
      </trkpt>
      <trkpt lat="47.51191" lon="6.75832">
        <ele>354.2</ele>
        <time>2014-06-08T08:28:03.000Z</time>
      </trkpt>
      <trkpt lat="47.51192" lon="6.75836">
        <ele>354.8</ele>
        <time>2014-06-08T08:28:04.000Z</time>
      </trkpt>
      <trkpt lat="47.51192" lon="6.7584">
        <ele>355.4</ele>
        <time>2014-06-08T08:28:05.000Z</time>
      </trkpt>
      <trkpt lat="47.51195" lon="6.7585">
        <ele>360.5</ele>
        <time>2014-06-08T08:28:06.000Z</time>
      </trkpt>
      <trkpt lat="47.51196" lon="6.75856">
        <ele>360.7</ele>
        <time>2014-06-08T08:28:07.000Z</time>
      </trkpt>
      <trkpt lat="47.51197" lon="6.75861">
        <ele>360.1</ele>
        <time>2014-06-08T08:28:08.000Z</time>
      </trkpt>
      <trkpt lat="47.51199" lon="6.75864">
        <ele>359.8</ele>
        <time>2014-06-08T08:28:09.000Z</time>
      </trkpt>
      <trkpt lat="47.512" lon="6.75868">
        <ele>360.9</ele>
        <time>2014-06-08T08:28:10.000Z</time>
      </trkpt>
      <trkpt lat="47.51201" lon="6.75873">
        <ele>359.7</ele>
        <time>2014-06-08T08:28:11.000Z</time>
      </trkpt>
      <trkpt lat="47.51203" lon="6.75877">
        <ele>359.6</ele>
        <time>2014-06-08T08:28:12.000Z</time>
      </trkpt>
      <trkpt lat="47.51204" lon="6.75882">
        <ele>359.5</ele>
        <time>2014-06-08T08:28:13.000Z</time>
      </trkpt>
      <trkpt lat="47.51205" lon="6.75886">
        <ele>359.3</ele>
        <time>2014-06-08T08:28:14.000Z</time>
      </trkpt>
      <trkpt lat="47.51206" lon="6.75891">
        <ele>359.6</ele>
        <time>2014-06-08T08:28:15.000Z</time>
      </trkpt>
      <trkpt lat="47.51207" lon="6.75896">
        <ele>359.8</ele>
        <time>2014-06-08T08:28:16.000Z</time>
      </trkpt>
      <trkpt lat="47.51208" lon="6.759">
        <ele>359.3</ele>
        <time>2014-06-08T08:28:17.000Z</time>
      </trkpt>
      <trkpt lat="47.51209" lon="6.75904">
        <ele>360</ele>
        <time>2014-06-08T08:28:18.000Z</time>
      </trkpt>
      <trkpt lat="47.5121" lon="6.75908">
        <ele>360.5</ele>
        <time>2014-06-08T08:28:19.000Z</time>
      </trkpt>
      <trkpt lat="47.51211" lon="6.75911">
        <ele>360.7</ele>
        <time>2014-06-08T08:28:20.000Z</time>
      </trkpt>
      <trkpt lat="47.51212" lon="6.75914">
        <ele>360.1</ele>
        <time>2014-06-08T08:28:21.000Z</time>
      </trkpt>
      <trkpt lat="47.51213" lon="6.75917">
        <ele>361.4</ele>
        <time>2014-06-08T08:28:22.000Z</time>
      </trkpt>
      <trkpt lat="47.51214" lon="6.75922">
        <ele>362</ele>
        <time>2014-06-08T08:28:23.000Z</time>
      </trkpt>
      <trkpt lat="47.51215" lon="6.75927">
        <ele>362</ele>
        <time>2014-06-08T08:28:24.000Z</time>
      </trkpt>
      <trkpt lat="47.51216" lon="6.75931">
        <ele>362.3</ele>
        <time>2014-06-08T08:28:25.000Z</time>
      </trkpt>
      <trkpt lat="47.51217" lon="6.75936">
        <ele>362.5</ele>
        <time>2014-06-08T08:28:25.998Z</time>
      </trkpt>
      <trkpt lat="47.51217" lon="6.7594">
        <ele>362.5</ele>
        <time>2014-06-08T08:28:27.000Z</time>
      </trkpt>
      <trkpt lat="47.51218" lon="6.75943">
        <ele>362.3</ele>
        <time>2014-06-08T08:28:28.000Z</time>
      </trkpt>
      <trkpt lat="47.51218" lon="6.75946">
        <ele>363.1</ele>
        <time>2014-06-08T08:28:29.000Z</time>
      </trkpt>
      <trkpt lat="47.51219" lon="6.7595">
        <ele>363.4</ele>
        <time>2014-06-08T08:28:30.000Z</time>
      </trkpt>
      <trkpt lat="47.5122" lon="6.75953">
        <ele>363.8</ele>
        <time>2014-06-08T08:28:31.000Z</time>
      </trkpt>
      <trkpt lat="47.51221" lon="6.75956">
        <ele>364</ele>
        <time>2014-06-08T08:28:32.000Z</time>
      </trkpt>
      <trkpt lat="47.51221" lon="6.7596">
        <ele>368.4</ele>
        <time>2014-06-08T08:28:33.000Z</time>
      </trkpt>
      <trkpt lat="47.51222" lon="6.75963">
        <ele>368.8</ele>
        <time>2014-06-08T08:28:34.000Z</time>
      </trkpt>
      <trkpt lat="47.51223" lon="6.75968">
        <ele>369.2</ele>
        <time>2014-06-08T08:28:35.000Z</time>
      </trkpt>
      <trkpt lat="47.51223" lon="6.75972">
        <ele>371.6</ele>
        <time>2014-06-08T08:28:36.000Z</time>
      </trkpt>
      <trkpt lat="47.51224" lon="6.75977">
        <ele>372.4</ele>
        <time>2014-06-08T08:28:37.000Z</time>
      </trkpt>
      <trkpt lat="47.51224" lon="6.75982">
        <ele>373.9</ele>
        <time>2014-06-08T08:28:38.000Z</time>
      </trkpt>
      <trkpt lat="47.51225" lon="6.75987">
        <ele>372.8</ele>
        <time>2014-06-08T08:28:39.000Z</time>
      </trkpt>
      <trkpt lat="47.51228" lon="6.75999">
        <ele>374.3</ele>
        <time>2014-06-08T08:28:42.000Z</time>
      </trkpt>
      <trkpt lat="47.51229" lon="6.76003">
        <ele>374.6</ele>
        <time>2014-06-08T08:28:43.000Z</time>
      </trkpt>
      <trkpt lat="47.5123" lon="6.76005">
        <ele>375.1</ele>
        <time>2014-06-08T08:28:44.000Z</time>
      </trkpt>
      <trkpt lat="47.51231" lon="6.7601">
        <ele>375.4</ele>
        <time>2014-06-08T08:28:46.000Z</time>
      </trkpt>
      <trkpt lat="47.51231" lon="6.76013">
        <ele>379.2</ele>
        <time>2014-06-08T08:28:47.000Z</time>
      </trkpt>
      <trkpt lat="47.51231" lon="6.76018">
        <ele>380.2</ele>
        <time>2014-06-08T08:28:48.000Z</time>
      </trkpt>
      <trkpt lat="47.51231" lon="6.76024">
        <ele>379.5</ele>
        <time>2014-06-08T08:28:49.000Z</time>
      </trkpt>
      <trkpt lat="47.51231" lon="6.76029">
        <ele>380.3</ele>
        <time>2014-06-08T08:28:50.000Z</time>
      </trkpt>
      <trkpt lat="47.51232" lon="6.76035">
        <ele>381</ele>
        <time>2014-06-08T08:28:51.000Z</time>
      </trkpt>
      <trkpt lat="47.51233" lon="6.7604">
        <ele>381</ele>
        <time>2014-06-08T08:28:52.000Z</time>
      </trkpt>
      <trkpt lat="47.51234" lon="6.76045">
        <ele>381</ele>
        <time>2014-06-08T08:28:53.000Z</time>
      </trkpt>
      <trkpt lat="47.51235" lon="6.7605">
        <ele>381.2</ele>
        <time>2014-06-08T08:28:54.000Z</time>
      </trkpt>
      <trkpt lat="47.51236" lon="6.76056">
        <ele>381</ele>
        <time>2014-06-08T08:28:55.000Z</time>
      </trkpt>
      <trkpt lat="47.51236" lon="6.76062">
        <ele>379.5</ele>
        <time>2014-06-08T08:28:56.000Z</time>
      </trkpt>
      <trkpt lat="47.51237" lon="6.76068">
        <ele>379.3</ele>
        <time>2014-06-08T08:28:57.000Z</time>
      </trkpt>
      <trkpt lat="47.51237" lon="6.76073">
        <ele>380.2</ele>
        <time>2014-06-08T08:28:58.000Z</time>
      </trkpt>
      <trkpt lat="47.51237" lon="6.76079">
        <ele>378.9</ele>
        <time>2014-06-08T08:28:59.000Z</time>
      </trkpt>
      <trkpt lat="47.51238" lon="6.76085">
        <ele>378.2</ele>
        <time>2014-06-08T08:29:00.000Z</time>
      </trkpt>
      <trkpt lat="47.51238" lon="6.76091">
        <ele>378.5</ele>
        <time>2014-06-08T08:29:01.000Z</time>
      </trkpt>
      <trkpt lat="47.51238" lon="6.76097">
        <ele>378</ele>
        <time>2014-06-08T08:29:02.000Z</time>
      </trkpt>
      <trkpt lat="47.51238" lon="6.76104">
        <ele>376.9</ele>
        <time>2014-06-08T08:29:03.000Z</time>
      </trkpt>
      <trkpt lat="47.51239" lon="6.7611">
        <ele>376</ele>
        <time>2014-06-08T08:29:04.000Z</time>
      </trkpt>
      <trkpt lat="47.51239" lon="6.76116">
        <ele>375</ele>
        <time>2014-06-08T08:29:05.000Z</time>
      </trkpt>
      <trkpt lat="47.51239" lon="6.76122">
        <ele>374.4</ele>
        <time>2014-06-08T08:29:06.000Z</time>
      </trkpt>
      <trkpt lat="47.51239" lon="6.76126">
        <ele>374.3</ele>
        <time>2014-06-08T08:29:07.000Z</time>
      </trkpt>
      <trkpt lat="47.51239" lon="6.76131">
        <ele>374.7</ele>
        <time>2014-06-08T08:29:08.000Z</time>
      </trkpt>
      <trkpt lat="47.5124" lon="6.76136">
        <ele>375.7</ele>
        <time>2014-06-08T08:29:09.000Z</time>
      </trkpt>
      <trkpt lat="47.5124" lon="6.76141">
        <ele>375.3</ele>
        <time>2014-06-08T08:29:10.000Z</time>
      </trkpt>
      <trkpt lat="47.51241" lon="6.76147">
        <ele>374.5</ele>
        <time>2014-06-08T08:29:11.000Z</time>
      </trkpt>
      <trkpt lat="47.51243" lon="6.76152">
        <ele>374.1</ele>
        <time>2014-06-08T08:29:12.000Z</time>
      </trkpt>
      <trkpt lat="47.51244" lon="6.76158">
        <ele>373</ele>
        <time>2014-06-08T08:29:13.000Z</time>
      </trkpt>
      <trkpt lat="47.51245" lon="6.76163">
        <ele>372.7</ele>
        <time>2014-06-08T08:29:14.000Z</time>
      </trkpt>
      <trkpt lat="47.51246" lon="6.76167">
        <ele>372.6</ele>
        <time>2014-06-08T08:29:15.000Z</time>
      </trkpt>
      <trkpt lat="47.51247" lon="6.76172">
        <ele>372.1</ele>
        <time>2014-06-08T08:29:16.000Z</time>
      </trkpt>
      <trkpt lat="47.51248" lon="6.76177">
        <ele>370.9</ele>
        <time>2014-06-08T08:29:17.000Z</time>
      </trkpt>
      <trkpt lat="47.51249" lon="6.76182">
        <ele>371</ele>
        <time>2014-06-08T08:29:18.000Z</time>
      </trkpt>
      <trkpt lat="47.51251" lon="6.76186">
        <ele>371.4</ele>
        <time>2014-06-08T08:29:19.000Z</time>
      </trkpt>
      <trkpt lat="47.51252" lon="6.76191">
        <ele>371.4</ele>
        <time>2014-06-08T08:29:20.000Z</time>
      </trkpt>
      <trkpt lat="47.51253" lon="6.76195">
        <ele>369.7</ele>
        <time>2014-06-08T08:29:21.000Z</time>
      </trkpt>
      <trkpt lat="47.51255" lon="6.76198">
        <ele>367.9</ele>
        <time>2014-06-08T08:29:22.000Z</time>
      </trkpt>
      <trkpt lat="47.51256" lon="6.76202">
        <ele>367</ele>
        <time>2014-06-08T08:29:23.000Z</time>
      </trkpt>
      <trkpt lat="47.51257" lon="6.76206">
        <ele>367.1</ele>
        <time>2014-06-08T08:29:24.000Z</time>
      </trkpt>
      <trkpt lat="47.5126" lon="6.7621">
        <ele>366.8</ele>
        <time>2014-06-08T08:29:25.000Z</time>
      </trkpt>
      <trkpt lat="47.51262" lon="6.76213">
        <ele>366.8</ele>
        <time>2014-06-08T08:29:26.000Z</time>
      </trkpt>
      <trkpt lat="47.51264" lon="6.76217">
        <ele>366.8</ele>
        <time>2014-06-08T08:29:27.000Z</time>
      </trkpt>
      <trkpt lat="47.51267" lon="6.7622">
        <ele>366.9</ele>
        <time>2014-06-08T08:29:28.000Z</time>
      </trkpt>
      <trkpt lat="47.51269" lon="6.76223">
        <ele>366.6</ele>
        <time>2014-06-08T08:29:29.000Z</time>
      </trkpt>
      <trkpt lat="47.51271" lon="6.76226">
        <ele>366.6</ele>
        <time>2014-06-08T08:29:30.000Z</time>
      </trkpt>
      <trkpt lat="47.51272" lon="6.7623">
        <ele>369.1</ele>
        <time>2014-06-08T08:29:31.000Z</time>
      </trkpt>
      <trkpt lat="47.51274" lon="6.76234">
        <ele>369.6</ele>
        <time>2014-06-08T08:29:32.000Z</time>
      </trkpt>
      <trkpt lat="47.51275" lon="6.76238">
        <ele>369.6</ele>
        <time>2014-06-08T08:29:33.000Z</time>
      </trkpt>
      <trkpt lat="47.51276" lon="6.76242">
        <ele>369.8</ele>
        <time>2014-06-08T08:29:34.000Z</time>
      </trkpt>
      <trkpt lat="47.51278" lon="6.76246">
        <ele>369.7</ele>
        <time>2014-06-08T08:29:35.000Z</time>
      </trkpt>
      <trkpt lat="47.51279" lon="6.76249">
        <ele>369.1</ele>
        <time>2014-06-08T08:29:36.000Z</time>
      </trkpt>
      <trkpt lat="47.5128" lon="6.76253">
        <ele>368.4</ele>
        <time>2014-06-08T08:29:37.000Z</time>
      </trkpt>
      <trkpt lat="47.51281" lon="6.76257">
        <ele>368.4</ele>
        <time>2014-06-08T08:29:38.000Z</time>
      </trkpt>
      <trkpt lat="47.51283" lon="6.76261">
        <ele>369.7</ele>
        <time>2014-06-08T08:29:39.000Z</time>
      </trkpt>
      <trkpt lat="47.51286" lon="6.76272">
        <ele>370.9</ele>
        <time>2014-06-08T08:29:42.000Z</time>
      </trkpt>
      <trkpt lat="47.51288" lon="6.76275">
        <ele>373.8</ele>
        <time>2014-06-08T08:29:43.000Z</time>
      </trkpt>
      <trkpt lat="47.51289" lon="6.76279">
        <ele>373.6</ele>
        <time>2014-06-08T08:29:44.000Z</time>
      </trkpt>
      <trkpt lat="47.51291" lon="6.76283">
        <ele>372.9</ele>
        <time>2014-06-08T08:29:45.000Z</time>
      </trkpt>
      <trkpt lat="47.51292" lon="6.76287">
        <ele>373.4</ele>
        <time>2014-06-08T08:29:46.000Z</time>
      </trkpt>
      <trkpt lat="47.51293" lon="6.76291">
        <ele>373.4</ele>
        <time>2014-06-08T08:29:47.000Z</time>
      </trkpt>
      <trkpt lat="47.51294" lon="6.76295">
        <ele>373.5</ele>
        <time>2014-06-08T08:29:48.000Z</time>
      </trkpt>
      <trkpt lat="47.51296" lon="6.76299">
        <ele>373.4</ele>
        <time>2014-06-08T08:29:49.000Z</time>
      </trkpt>
      <trkpt lat="47.51297" lon="6.76303">
        <ele>373.5</ele>
        <time>2014-06-08T08:29:50.000Z</time>
      </trkpt>
      <trkpt lat="47.51299" lon="6.76307">
        <ele>371.7</ele>
        <time>2014-06-08T08:29:51.000Z</time>
      </trkpt>
      <trkpt lat="47.51299" lon="6.7631">
        <ele>370.6</ele>
        <time>2014-06-08T08:29:52.000Z</time>
      </trkpt>
      <trkpt lat="47.51299" lon="6.76314">
        <ele>369.8</ele>
        <time>2014-06-08T08:29:53.000Z</time>
      </trkpt>
      <trkpt lat="47.513" lon="6.76318">
        <ele>368.6</ele>
        <time>2014-06-08T08:29:54.000Z</time>
      </trkpt>
      <trkpt lat="47.51302" lon="6.76321">
        <ele>368.4</ele>
        <time>2014-06-08T08:29:55.000Z</time>
      </trkpt>
      <trkpt lat="47.51304" lon="6.76324">
        <ele>367.7</ele>
        <time>2014-06-08T08:29:56.000Z</time>
      </trkpt>
      <trkpt lat="47.51306" lon="6.76328">
        <ele>366.6</ele>
        <time>2014-06-08T08:29:57.000Z</time>
      </trkpt>
      <trkpt lat="47.51309" lon="6.76332">
        <ele>366.6</ele>
        <time>2014-06-08T08:29:58.000Z</time>
      </trkpt>
      <trkpt lat="47.5131" lon="6.76336">
        <ele>368.4</ele>
        <time>2014-06-08T08:29:59.000Z</time>
      </trkpt>
      <trkpt lat="47.51311" lon="6.7634">
        <ele>368.8</ele>
        <time>2014-06-08T08:30:00.000Z</time>
      </trkpt>
      <trkpt lat="47.51311" lon="6.76344">
        <ele>368.4</ele>
        <time>2014-06-08T08:30:01.000Z</time>
      </trkpt>
      <trkpt lat="47.51312" lon="6.76347">
        <ele>368.8</ele>
        <time>2014-06-08T08:30:02.000Z</time>
      </trkpt>
      <trkpt lat="47.51314" lon="6.76351">
        <ele>369</ele>
        <time>2014-06-08T08:30:03.000Z</time>
      </trkpt>
      <trkpt lat="47.51316" lon="6.76354">
        <ele>369.1</ele>
        <time>2014-06-08T08:30:04.000Z</time>
      </trkpt>
      <trkpt lat="47.51318" lon="6.76359">
        <ele>369</ele>
        <time>2014-06-08T08:30:05.000Z</time>
      </trkpt>
      <trkpt lat="47.51319" lon="6.76363">
        <ele>368.6</ele>
        <time>2014-06-08T08:30:06.000Z</time>
      </trkpt>
      <trkpt lat="47.51321" lon="6.76367">
        <ele>367.5</ele>
        <time>2014-06-08T08:30:07.000Z</time>
      </trkpt>
      <trkpt lat="47.51322" lon="6.76372">
        <ele>367.1</ele>
        <time>2014-06-08T08:30:08.000Z</time>
      </trkpt>
      <trkpt lat="47.51324" lon="6.76376">
        <ele>367.3</ele>
        <time>2014-06-08T08:30:09.000Z</time>
      </trkpt>
      <trkpt lat="47.51326" lon="6.76381">
        <ele>366.9</ele>
        <time>2014-06-08T08:30:10.000Z</time>
      </trkpt>
      <trkpt lat="47.51327" lon="6.76385">
        <ele>367.3</ele>
        <time>2014-06-08T08:30:11.000Z</time>
      </trkpt>
      <trkpt lat="47.51329" lon="6.7639">
        <ele>367.5</ele>
        <time>2014-06-08T08:30:12.000Z</time>
      </trkpt>
      <trkpt lat="47.5133" lon="6.76394">
        <ele>367.2</ele>
        <time>2014-06-08T08:30:13.000Z</time>
      </trkpt>
      <trkpt lat="47.51332" lon="6.76398">
        <ele>367.4</ele>
        <time>2014-06-08T08:30:14.000Z</time>
      </trkpt>
      <trkpt lat="47.51333" lon="6.76402">
        <ele>367.5</ele>
        <time>2014-06-08T08:30:15.000Z</time>
      </trkpt>
      <trkpt lat="47.51334" lon="6.76405">
        <ele>368.7</ele>
        <time>2014-06-08T08:30:16.000Z</time>
      </trkpt>
      <trkpt lat="47.51336" lon="6.76408">
        <ele>368.4</ele>
        <time>2014-06-08T08:30:17.000Z</time>
      </trkpt>
      <trkpt lat="47.51337" lon="6.76411">
        <ele>369</ele>
        <time>2014-06-08T08:30:18.000Z</time>
      </trkpt>
      <trkpt lat="47.51339" lon="6.76415">
        <ele>371.5</ele>
        <time>2014-06-08T08:30:20.000Z</time>
      </trkpt>
      <trkpt lat="47.5134" lon="6.76417">
        <ele>372.1</ele>
        <time>2014-06-08T08:30:21.000Z</time>
      </trkpt>
      <trkpt lat="47.51344" lon="6.76419">
        <ele>373.1</ele>
        <time>2014-06-08T08:30:23.000Z</time>
      </trkpt>
      <trkpt lat="47.51346" lon="6.76419">
        <ele>372.9</ele>
        <time>2014-06-08T08:30:24.000Z</time>
      </trkpt>
      <trkpt lat="47.51348" lon="6.76418">
        <ele>372.4</ele>
        <time>2014-06-08T08:30:25.000Z</time>
      </trkpt>
      <trkpt lat="47.51351" lon="6.76417">
        <ele>372.6</ele>
        <time>2014-06-08T08:30:26.000Z</time>
      </trkpt>
      <trkpt lat="47.51353" lon="6.76416">
        <ele>373.6</ele>
        <time>2014-06-08T08:30:27.000Z</time>
      </trkpt>
      <trkpt lat="47.51355" lon="6.76415">
        <ele>373</ele>
        <time>2014-06-08T08:30:28.000Z</time>
      </trkpt>
      <trkpt lat="47.51358" lon="6.76414">
        <ele>373</ele>
        <time>2014-06-08T08:30:29.000Z</time>
      </trkpt>
      <trkpt lat="47.5136" lon="6.76414">
        <ele>373.3</ele>
        <time>2014-06-08T08:30:30.000Z</time>
      </trkpt>
      <trkpt lat="47.51364" lon="6.76413">
        <ele>374.4</ele>
        <time>2014-06-08T08:30:32.000Z</time>
      </trkpt>
      <trkpt lat="47.51366" lon="6.76413">
        <ele>373.9</ele>
        <time>2014-06-08T08:30:33.000Z</time>
      </trkpt>
      <trkpt lat="47.5137" lon="6.76413">
        <ele>371.5</ele>
        <time>2014-06-08T08:30:35.000Z</time>
      </trkpt>
      <trkpt lat="47.51372" lon="6.76413">
        <ele>371</ele>
        <time>2014-06-08T08:30:36.000Z</time>
      </trkpt>
      <trkpt lat="47.51375" lon="6.76413">
        <ele>371.5</ele>
        <time>2014-06-08T08:30:37.000Z</time>
      </trkpt>
      <trkpt lat="47.51377" lon="6.76413">
        <ele>372</ele>
        <time>2014-06-08T08:30:38.000Z</time>
      </trkpt>
      <trkpt lat="47.5138" lon="6.76412">
        <ele>373.9</ele>
        <time>2014-06-08T08:30:39.000Z</time>
      </trkpt>
      <trkpt lat="47.51385" lon="6.76407">
        <ele>376.1</ele>
        <time>2014-06-08T08:30:42.000Z</time>
      </trkpt>
      <trkpt lat="47.51389" lon="6.76405">
        <ele>382.7</ele>
        <time>2014-06-08T08:30:46.000Z</time>
      </trkpt>
      <trkpt lat="47.5139" lon="6.76404">
        <ele>382.5</ele>
        <time>2014-06-08T08:30:47.000Z</time>
      </trkpt>
      <trkpt lat="47.51393" lon="6.764">
        <ele>385.7</ele>
        <time>2014-06-08T08:30:50.000Z</time>
      </trkpt>
      <trkpt lat="47.51394" lon="6.76399">
        <ele>388</ele>
        <time>2014-06-08T08:30:51.000Z</time>
      </trkpt>
      <trkpt lat="47.51397" lon="6.76396">
        <ele>389.9</ele>
        <time>2014-06-08T08:30:54.000Z</time>
      </trkpt>
      <trkpt lat="47.51398" lon="6.76395">
        <ele>387.9</ele>
        <time>2014-06-08T08:30:55.000Z</time>
      </trkpt>
      <trkpt lat="47.51402" lon="6.76393">
        <ele>387.6</ele>
        <time>2014-06-08T08:30:57.000Z</time>
      </trkpt>
      <trkpt lat="47.51404" lon="6.76393">
        <ele>385.1</ele>
        <time>2014-06-08T08:30:58.000Z</time>
      </trkpt>
      <trkpt lat="47.51407" lon="6.76392">
        <ele>384</ele>
        <time>2014-06-08T08:31:00.000Z</time>
      </trkpt>
      <trkpt lat="47.51409" lon="6.76393">
        <ele>382.2</ele>
        <time>2014-06-08T08:31:01.000Z</time>
      </trkpt>
      <trkpt lat="47.51412" lon="6.76394">
        <ele>382.1</ele>
        <time>2014-06-08T08:31:03.000Z</time>
      </trkpt>
      <trkpt lat="47.51414" lon="6.76394">
        <ele>381.9</ele>
        <time>2014-06-08T08:31:04.000Z</time>
      </trkpt>
      <trkpt lat="47.51418" lon="6.76394">
        <ele>383.3</ele>
        <time>2014-06-08T08:31:06.000Z</time>
      </trkpt>
      <trkpt lat="47.51419" lon="6.76393">
        <ele>385.5</ele>
        <time>2014-06-08T08:31:07.000Z</time>
      </trkpt>
      <trkpt lat="47.51422" lon="6.76392">
        <ele>387.2</ele>
        <time>2014-06-08T08:31:09.000Z</time>
      </trkpt>
      <trkpt lat="47.51424" lon="6.76391">
        <ele>386.4</ele>
        <time>2014-06-08T08:31:10.000Z</time>
      </trkpt>
      <trkpt lat="47.51428" lon="6.7639">
        <ele>387.1</ele>
        <time>2014-06-08T08:31:12.000Z</time>
      </trkpt>
      <trkpt lat="47.5143" lon="6.7639">
        <ele>387.9</ele>
        <time>2014-06-08T08:31:13.000Z</time>
      </trkpt>
      <trkpt lat="47.51434" lon="6.7639">
        <ele>388.7</ele>
        <time>2014-06-08T08:31:15.000Z</time>
      </trkpt>
      <trkpt lat="47.51436" lon="6.76389">
        <ele>389.5</ele>
        <time>2014-06-08T08:31:16.000Z</time>
      </trkpt>
      <trkpt lat="47.5144" lon="6.76386">
        <ele>388.7</ele>
        <time>2014-06-08T08:31:18.000Z</time>
      </trkpt>
      <trkpt lat="47.51442" lon="6.76384">
        <ele>388.3</ele>
        <time>2014-06-08T08:31:19.000Z</time>
      </trkpt>
      <trkpt lat="47.51445" lon="6.7638">
        <ele>391.2</ele>
        <time>2014-06-08T08:31:21.000Z</time>
      </trkpt>
      <trkpt lat="47.51446" lon="6.7638">
        <ele>392.5</ele>
        <time>2014-06-08T08:31:22.000Z</time>
      </trkpt>
      <trkpt lat="47.5145" lon="6.76378">
        <ele>395.7</ele>
        <time>2014-06-08T08:31:26.000Z</time>
      </trkpt>
      <trkpt lat="47.5145" lon="6.76377">
        <ele>395.7</ele>
        <time>2014-06-08T08:31:27.000Z</time>
      </trkpt>
      <trkpt lat="47.51454" lon="6.76378">
        <ele>395</ele>
        <time>2014-06-08T08:31:30.000Z</time>
      </trkpt>
      <trkpt lat="47.51455" lon="6.76378">
        <ele>393.1</ele>
        <time>2014-06-08T08:31:31.000Z</time>
      </trkpt>
      <trkpt lat="47.51457" lon="6.76378">
        <ele>391.9</ele>
        <time>2014-06-08T08:31:32.000Z</time>
      </trkpt>
      <trkpt lat="47.5146" lon="6.76378">
        <ele>390.7</ele>
        <time>2014-06-08T08:31:33.000Z</time>
      </trkpt>
      <trkpt lat="47.51463" lon="6.76379">
        <ele>389.8</ele>
        <time>2014-06-08T08:31:34.000Z</time>
      </trkpt>
      <trkpt lat="47.51465" lon="6.76379">
        <ele>389.2</ele>
        <time>2014-06-08T08:31:35.000Z</time>
      </trkpt>
      <trkpt lat="47.51468" lon="6.76379">
        <ele>389.1</ele>
        <time>2014-06-08T08:31:36.000Z</time>
      </trkpt>
      <trkpt lat="47.51471" lon="6.76379">
        <ele>390</ele>
        <time>2014-06-08T08:31:37.000Z</time>
      </trkpt>
      <trkpt lat="47.51473" lon="6.76379">
        <ele>389.6</ele>
        <time>2014-06-08T08:31:38.000Z</time>
      </trkpt>
      <trkpt lat="47.51476" lon="6.76379">
        <ele>390.9</ele>
        <time>2014-06-08T08:31:39.000Z</time>
      </trkpt>
      <trkpt lat="47.51482" lon="6.76378">
        <ele>393.8</ele>
        <time>2014-06-08T08:31:42.000Z</time>
      </trkpt>
      <trkpt lat="47.51486" lon="6.76377">
        <ele>397.8</ele>
        <time>2014-06-08T08:31:44.000Z</time>
      </trkpt>
      <trkpt lat="47.51488" lon="6.76375">
        <ele>398.9</ele>
        <time>2014-06-08T08:31:45.000Z</time>
      </trkpt>
      <trkpt lat="47.51492" lon="6.76374">
        <ele>398.6</ele>
        <time>2014-06-08T08:31:47.000Z</time>
      </trkpt>
      <trkpt lat="47.51494" lon="6.76374">
        <ele>398.7</ele>
        <time>2014-06-08T08:31:48.000Z</time>
      </trkpt>
      <trkpt lat="47.51497" lon="6.76374">
        <ele>396.5</ele>
        <time>2014-06-08T08:31:50.000Z</time>
      </trkpt>
      <trkpt lat="47.51499" lon="6.76374">
        <ele>395.8</ele>
        <time>2014-06-08T08:31:51.000Z</time>
      </trkpt>
      <trkpt lat="47.51502" lon="6.76373">
        <ele>394.5</ele>
        <time>2014-06-08T08:31:52.000Z</time>
      </trkpt>
      <trkpt lat="47.51504" lon="6.76371">
        <ele>393.2</ele>
        <time>2014-06-08T08:31:53.000Z</time>
      </trkpt>
      <trkpt lat="47.51505" lon="6.7637">
        <ele>392.2</ele>
        <time>2014-06-08T08:31:53.998Z</time>
      </trkpt>
      <trkpt lat="47.51508" lon="6.76368">
        <ele>392.7</ele>
        <time>2014-06-08T08:31:55.000Z</time>
      </trkpt>
      <trkpt lat="47.51511" lon="6.76365">
        <ele>395.5</ele>
        <time>2014-06-08T08:31:57.000Z</time>
      </trkpt>
      <trkpt lat="47.51512" lon="6.76363">
        <ele>396.4</ele>
        <time>2014-06-08T08:31:58.000Z</time>
      </trkpt>
      <trkpt lat="47.51515" lon="6.7636">
        <ele>397.2</ele>
        <time>2014-06-08T08:32:00.998Z</time>
      </trkpt>
      <trkpt lat="47.51517" lon="6.76359">
        <ele>396.4</ele>
        <time>2014-06-08T08:32:02.000Z</time>
      </trkpt>
      <trkpt lat="47.51521" lon="6.76354">
        <ele>398.8</ele>
        <time>2014-06-08T08:32:04.000Z</time>
      </trkpt>
      <trkpt lat="47.51522" lon="6.76353">
        <ele>398</ele>
        <time>2014-06-08T08:32:05.000Z</time>
      </trkpt>
      <trkpt lat="47.51526" lon="6.76353">
        <ele>400.9</ele>
        <time>2014-06-08T08:32:08.000Z</time>
      </trkpt>
      <trkpt lat="47.51528" lon="6.76353">
        <ele>400.1</ele>
        <time>2014-06-08T08:32:09.000Z</time>
      </trkpt>
      <trkpt lat="47.51532" lon="6.76351">
        <ele>398.2</ele>
        <time>2014-06-08T08:32:11.000Z</time>
      </trkpt>
      <trkpt lat="47.51534" lon="6.7635">
        <ele>398.2</ele>
        <time>2014-06-08T08:32:12.000Z</time>
      </trkpt>
      <trkpt lat="47.51537" lon="6.7635">
        <ele>398.1</ele>
        <time>2014-06-08T08:32:13.000Z</time>
      </trkpt>
      <trkpt lat="47.51539" lon="6.76349">
        <ele>398.4</ele>
        <time>2014-06-08T08:32:14.000Z</time>
      </trkpt>
      <trkpt lat="47.51542" lon="6.76348">
        <ele>395.7</ele>
        <time>2014-06-08T08:32:15.000Z</time>
      </trkpt>
      <trkpt lat="47.51545" lon="6.76347">
        <ele>394.6</ele>
        <time>2014-06-08T08:32:16.000Z</time>
      </trkpt>
      <trkpt lat="47.51547" lon="6.76347">
        <ele>395</ele>
        <time>2014-06-08T08:32:17.000Z</time>
      </trkpt>
      <trkpt lat="47.5155" lon="6.76346">
        <ele>395.5</ele>
        <time>2014-06-08T08:32:18.000Z</time>
      </trkpt>
      <trkpt lat="47.51552" lon="6.76347">
        <ele>395.5</ele>
        <time>2014-06-08T08:32:19.000Z</time>
      </trkpt>
      <trkpt lat="47.51555" lon="6.76347">
        <ele>397.6</ele>
        <time>2014-06-08T08:32:20.000Z</time>
      </trkpt>
      <trkpt lat="47.51559" lon="6.76346">
        <ele>398.9</ele>
        <time>2014-06-08T08:32:22.000Z</time>
      </trkpt>
      <trkpt lat="47.5156" lon="6.76344">
        <ele>398.8</ele>
        <time>2014-06-08T08:32:23.000Z</time>
      </trkpt>
      <trkpt lat="47.51564" lon="6.7634">
        <ele>400.5</ele>
        <time>2014-06-08T08:32:25.000Z</time>
      </trkpt>
      <trkpt lat="47.51565" lon="6.76338">
        <ele>401.4</ele>
        <time>2014-06-08T08:32:26.040Z</time>
      </trkpt>
      <trkpt lat="47.51568" lon="6.76334">
        <ele>404.8</ele>
        <time>2014-06-08T08:32:29.000Z</time>
      </trkpt>
      <trkpt lat="47.51569" lon="6.76333">
        <ele>405.1</ele>
        <time>2014-06-08T08:32:30.000Z</time>
      </trkpt>
      <trkpt lat="47.51572" lon="6.76333">
        <ele>409</ele>
        <time>2014-06-08T08:32:32.998Z</time>
      </trkpt>
      <trkpt lat="47.51574" lon="6.76334">
        <ele>406.3</ele>
        <time>2014-06-08T08:32:34.000Z</time>
      </trkpt>
      <trkpt lat="47.51577" lon="6.76334">
        <ele>405.7</ele>
        <time>2014-06-08T08:32:37.000Z</time>
      </trkpt>
      <trkpt lat="47.51579" lon="6.76335">
        <ele>404.6</ele>
        <time>2014-06-08T08:32:38.000Z</time>
      </trkpt>
      <trkpt lat="47.51582" lon="6.76336">
        <ele>405.2</ele>
        <time>2014-06-08T08:32:40.000Z</time>
      </trkpt>
      <trkpt lat="47.51586" lon="6.76337">
        <ele>405</ele>
        <time>2014-06-08T08:32:43.000Z</time>
      </trkpt>
      <trkpt lat="47.5159" lon="6.76338">
        <ele>404.1</ele>
        <time>2014-06-08T08:32:45.000Z</time>
      </trkpt>
      <trkpt lat="47.51592" lon="6.76337">
        <ele>404.7</ele>
        <time>2014-06-08T08:32:46.000Z</time>
      </trkpt>
      <trkpt lat="47.51596" lon="6.76336">
        <ele>404.7</ele>
        <time>2014-06-08T08:32:48.000Z</time>
      </trkpt>
      <trkpt lat="47.51598" lon="6.76335">
        <ele>404.6</ele>
        <time>2014-06-08T08:32:49.000Z</time>
      </trkpt>
      <trkpt lat="47.51601" lon="6.76334">
        <ele>403</ele>
        <time>2014-06-08T08:32:51.000Z</time>
      </trkpt>
      <trkpt lat="47.51603" lon="6.76333">
        <ele>403.3</ele>
        <time>2014-06-08T08:32:52.000Z</time>
      </trkpt>
      <trkpt lat="47.51606" lon="6.76332">
        <ele>402.6</ele>
        <time>2014-06-08T08:32:54.000Z</time>
      </trkpt>
      <trkpt lat="47.51608" lon="6.76332">
        <ele>402.9</ele>
        <time>2014-06-08T08:32:55.000Z</time>
      </trkpt>
      <trkpt lat="47.51612" lon="6.7633">
        <ele>402.7</ele>
        <time>2014-06-08T08:32:57.000Z</time>
      </trkpt>
      <trkpt lat="47.51614" lon="6.76329">
        <ele>402</ele>
        <time>2014-06-08T08:32:58.000Z</time>
      </trkpt>
      <trkpt lat="47.51616" lon="6.76329">
        <ele>402.2</ele>
        <time>2014-06-08T08:32:59.000Z</time>
      </trkpt>
      <trkpt lat="47.51618" lon="6.76328">
        <ele>403.1</ele>
        <time>2014-06-08T08:33:00.000Z</time>
      </trkpt>
      <trkpt lat="47.51621" lon="6.76328">
        <ele>403.7</ele>
        <time>2014-06-08T08:33:01.000Z</time>
      </trkpt>
      <trkpt lat="47.51623" lon="6.76328">
        <ele>405.6</ele>
        <time>2014-06-08T08:33:02.000Z</time>
      </trkpt>
      <trkpt lat="47.51626" lon="6.76325">
        <ele>406.8</ele>
        <time>2014-06-08T08:33:04.000Z</time>
      </trkpt>
      <trkpt lat="47.51628" lon="6.76324">
        <ele>406.3</ele>
        <time>2014-06-08T08:33:05.000Z</time>
      </trkpt>
      <trkpt lat="47.51632" lon="6.76321">
        <ele>408.7</ele>
        <time>2014-06-08T08:33:07.000Z</time>
      </trkpt>
      <trkpt lat="47.51634" lon="6.7632">
        <ele>408.9</ele>
        <time>2014-06-08T08:33:08.000Z</time>
      </trkpt>
      <trkpt lat="47.51637" lon="6.76319">
        <ele>409.1</ele>
        <time>2014-06-08T08:33:10.000Z</time>
      </trkpt>
      <trkpt lat="47.51639" lon="6.76318">
        <ele>409.6</ele>
        <time>2014-06-08T08:33:11.000Z</time>
      </trkpt>
      <trkpt lat="47.51643" lon="6.76318">
        <ele>408</ele>
        <time>2014-06-08T08:33:13.000Z</time>
      </trkpt>
      <trkpt lat="47.51644" lon="6.76318">
        <ele>407.1</ele>
        <time>2014-06-08T08:33:14.000Z</time>
      </trkpt>
      <trkpt lat="47.51647" lon="6.76317">
        <ele>405.4</ele>
        <time>2014-06-08T08:33:16.000Z</time>
      </trkpt>
      <trkpt lat="47.51649" lon="6.76317">
        <ele>404.9</ele>
        <time>2014-06-08T08:33:17.000Z</time>
      </trkpt>
      <trkpt lat="47.51652" lon="6.76313">
        <ele>405.5</ele>
        <time>2014-06-08T08:33:19.000Z</time>
      </trkpt>
      <trkpt lat="47.51654" lon="6.76311">
        <ele>405.6</ele>
        <time>2014-06-08T08:33:20.000Z</time>
      </trkpt>
      <trkpt lat="47.51657" lon="6.7631">
        <ele>405.2</ele>
        <time>2014-06-08T08:33:21.000Z</time>
      </trkpt>
      <trkpt lat="47.5166" lon="6.76309">
        <ele>405.6</ele>
        <time>2014-06-08T08:33:22.000Z</time>
      </trkpt>
      <trkpt lat="47.51663" lon="6.76308">
        <ele>405.5</ele>
        <time>2014-06-08T08:33:23.000Z</time>
      </trkpt>
      <trkpt lat="47.51666" lon="6.76309">
        <ele>405.7</ele>
        <time>2014-06-08T08:33:24.000Z</time>
      </trkpt>
      <trkpt lat="47.51669" lon="6.76309">
        <ele>406.2</ele>
        <time>2014-06-08T08:33:25.000Z</time>
      </trkpt>
      <trkpt lat="47.51671" lon="6.76309">
        <ele>406.4</ele>
        <time>2014-06-08T08:33:26.000Z</time>
      </trkpt>
      <trkpt lat="47.51674" lon="6.76308">
        <ele>407</ele>
        <time>2014-06-08T08:33:27.000Z</time>
      </trkpt>
      <trkpt lat="47.51676" lon="6.76307">
        <ele>407.9</ele>
        <time>2014-06-08T08:33:28.000Z</time>
      </trkpt>
      <trkpt lat="47.5168" lon="6.76305">
        <ele>409.5</ele>
        <time>2014-06-08T08:33:30.000Z</time>
      </trkpt>
      <trkpt lat="47.51681" lon="6.76304">
        <ele>409.2</ele>
        <time>2014-06-08T08:33:31.000Z</time>
      </trkpt>
      <trkpt lat="47.51685" lon="6.76302">
        <ele>409</ele>
        <time>2014-06-08T08:33:33.000Z</time>
      </trkpt>
      <trkpt lat="47.51687" lon="6.76302">
        <ele>409</ele>
        <time>2014-06-08T08:33:34.000Z</time>
      </trkpt>
      <trkpt lat="47.5169" lon="6.76301">
        <ele>408.9</ele>
        <time>2014-06-08T08:33:35.000Z</time>
      </trkpt>
      <trkpt lat="47.51692" lon="6.76301">
        <ele>409.1</ele>
        <time>2014-06-08T08:33:36.000Z</time>
      </trkpt>
      <trkpt lat="47.51694" lon="6.763">
        <ele>409.5</ele>
        <time>2014-06-08T08:33:37.000Z</time>
      </trkpt>
      <trkpt lat="47.51696" lon="6.763">
        <ele>407.3</ele>
        <time>2014-06-08T08:33:38.000Z</time>
      </trkpt>
      <trkpt lat="47.51701" lon="6.763">
        <ele>404.6</ele>
        <time>2014-06-08T08:33:40.000Z</time>
      </trkpt>
      <trkpt lat="47.51715" lon="6.76296">
        <ele>406.9</ele>
        <time>2014-06-08T08:33:48.000Z</time>
      </trkpt>
      <trkpt lat="47.51719" lon="6.76295">
        <ele>408</ele>
        <time>2014-06-08T08:33:51.000Z</time>
      </trkpt>
      <trkpt lat="47.51721" lon="6.76294">
        <ele>407.8</ele>
        <time>2014-06-08T08:33:52.000Z</time>
      </trkpt>
      <trkpt lat="47.51725" lon="6.76292">
        <ele>406.4</ele>
        <time>2014-06-08T08:33:54.000Z</time>
      </trkpt>
      <trkpt lat="47.51727" lon="6.7629">
        <ele>406.9</ele>
        <time>2014-06-08T08:33:55.000Z</time>
      </trkpt>
      <trkpt lat="47.5173" lon="6.76288">
        <ele>406.2</ele>
        <time>2014-06-08T08:33:57.000Z</time>
      </trkpt>
      <trkpt lat="47.51732" lon="6.76288">
        <ele>405.2</ele>
        <time>2014-06-08T08:33:58.000Z</time>
      </trkpt>
      <trkpt lat="47.51734" lon="6.76287">
        <ele>404.2</ele>
        <time>2014-06-08T08:33:59.000Z</time>
      </trkpt>
      <trkpt lat="47.51736" lon="6.76287">
        <ele>399.8</ele>
        <time>2014-06-08T08:34:00.000Z</time>
      </trkpt>
      <trkpt lat="47.51739" lon="6.76285">
        <ele>399.6</ele>
        <time>2014-06-08T08:34:01.000Z</time>
      </trkpt>
      <trkpt lat="47.51741" lon="6.76284">
        <ele>397.6</ele>
        <time>2014-06-08T08:34:02.000Z</time>
      </trkpt>
      <trkpt lat="47.51745" lon="6.76282">
        <ele>396.5</ele>
        <time>2014-06-08T08:34:04.000Z</time>
      </trkpt>
      <trkpt lat="47.51747" lon="6.76282">
        <ele>396.7</ele>
        <time>2014-06-08T08:34:05.000Z</time>
      </trkpt>
      <trkpt lat="47.51751" lon="6.76283">
        <ele>395.4</ele>
        <time>2014-06-08T08:34:07.000Z</time>
      </trkpt>
      <trkpt lat="47.51753" lon="6.76283">
        <ele>394.6</ele>
        <time>2014-06-08T08:34:08.000Z</time>
      </trkpt>
      <trkpt lat="47.51755" lon="6.76284">
        <ele>394</ele>
        <time>2014-06-08T08:34:09.000Z</time>
      </trkpt>
      <trkpt lat="47.51758" lon="6.76284">
        <ele>393.9</ele>
        <time>2014-06-08T08:34:10.000Z</time>
      </trkpt>
      <trkpt lat="47.5176" lon="6.76284">
        <ele>393.6</ele>
        <time>2014-06-08T08:34:11.000Z</time>
      </trkpt>
      <trkpt lat="47.51763" lon="6.76284">
        <ele>393.8</ele>
        <time>2014-06-08T08:34:12.000Z</time>
      </trkpt>
      <trkpt lat="47.51766" lon="6.76284">
        <ele>393.8</ele>
        <time>2014-06-08T08:34:13.000Z</time>
      </trkpt>
      <trkpt lat="47.51769" lon="6.76283">
        <ele>393.4</ele>
        <time>2014-06-08T08:34:14.000Z</time>
      </trkpt>
      <trkpt lat="47.51771" lon="6.76284">
        <ele>392.6</ele>
        <time>2014-06-08T08:34:15.000Z</time>
      </trkpt>
      <trkpt lat="47.51774" lon="6.76284">
        <ele>392.3</ele>
        <time>2014-06-08T08:34:16.000Z</time>
      </trkpt>
      <trkpt lat="47.51777" lon="6.76285">
        <ele>392</ele>
        <time>2014-06-08T08:34:18.000Z</time>
      </trkpt>
      <trkpt lat="47.51778" lon="6.76286">
        <ele>391.8</ele>
        <time>2014-06-08T08:34:19.000Z</time>
      </trkpt>
      <trkpt lat="47.51782" lon="6.76289">
        <ele>390.8</ele>
        <time>2014-06-08T08:34:22.000Z</time>
      </trkpt>
      <trkpt lat="47.51784" lon="6.7629">
        <ele>390.8</ele>
        <time>2014-06-08T08:34:23.000Z</time>
      </trkpt>
      <trkpt lat="47.51784" lon="6.76294">
        <ele>385.3</ele>
        <time>2014-06-08T08:35:38.000Z</time>
      </trkpt>
      <trkpt lat="47.51784" lon="6.76298">
        <ele>385.4</ele>
        <time>2014-06-08T08:35:39.000Z</time>
      </trkpt>
      <trkpt lat="47.51786" lon="6.76292">
        <ele>387.5</ele>
        <time>2014-06-08T08:36:16.000Z</time>
      </trkpt>
      <trkpt lat="47.51786" lon="6.76292">
        <ele>387.5</ele>
        <time>2014-06-08T08:36:17.000Z</time>
      </trkpt>
      <trkpt lat="47.51785" lon="6.76296">
        <ele>385.3</ele>
        <time>2014-06-08T08:38:13.000Z</time>
      </trkpt>
      <trkpt lat="47.51784" lon="6.76299">
        <ele>385.2</ele>
        <time>2014-06-08T08:38:14.000Z</time>
      </trkpt>
      <trkpt lat="47.51783" lon="6.76304">
        <ele>386.8</ele>
        <time>2014-06-08T08:38:16.000Z</time>
      </trkpt>
      <trkpt lat="47.51782" lon="6.76308">
        <ele>388</ele>
        <time>2014-06-08T08:38:17.000Z</time>
      </trkpt>
      <trkpt lat="47.51781" lon="6.76313">
        <ele>387</ele>
        <time>2014-06-08T08:38:18.000Z</time>
      </trkpt>
      <trkpt lat="47.5178" lon="6.76318">
        <ele>386.9</ele>
        <time>2014-06-08T08:38:19.000Z</time>
      </trkpt>
      <trkpt lat="47.51779" lon="6.76322">
        <ele>387.6</ele>
        <time>2014-06-08T08:38:20.000Z</time>
      </trkpt>
      <trkpt lat="47.51778" lon="6.76326">
        <ele>388</ele>
        <time>2014-06-08T08:38:21.000Z</time>
      </trkpt>
      <trkpt lat="47.51779" lon="6.76331">
        <ele>387.5</ele>
        <time>2014-06-08T08:38:29.000Z</time>
      </trkpt>
      <trkpt lat="47.51782" lon="6.76334">
        <ele>388.6</ele>
        <time>2014-06-08T08:38:30.000Z</time>
      </trkpt>
      <trkpt lat="47.51784" lon="6.76336">
        <ele>391.7</ele>
        <time>2014-06-08T08:38:31.000Z</time>
      </trkpt>
      <trkpt lat="47.51786" lon="6.76337">
        <ele>393.4</ele>
        <time>2014-06-08T08:38:32.000Z</time>
      </trkpt>
      <trkpt lat="47.5179" lon="6.76339">
        <ele>394.6</ele>
        <time>2014-06-08T08:38:34.000Z</time>
      </trkpt>
      <trkpt lat="47.51793" lon="6.7634">
        <ele>395.2</ele>
        <time>2014-06-08T08:38:35.000Z</time>
      </trkpt>
      <trkpt lat="47.51796" lon="6.76343">
        <ele>392.6</ele>
        <time>2014-06-08T08:38:36.000Z</time>
      </trkpt>
      <trkpt lat="47.518" lon="6.76346">
        <ele>393</ele>
        <time>2014-06-08T08:38:37.000Z</time>
      </trkpt>
      <trkpt lat="47.51803" lon="6.76348">
        <ele>394.2</ele>
        <time>2014-06-08T08:38:38.000Z</time>
      </trkpt>
      <trkpt lat="47.51806" lon="6.7635">
        <ele>396.1</ele>
        <time>2014-06-08T08:38:39.000Z</time>
      </trkpt>
      <trkpt lat="47.51808" lon="6.76352">
        <ele>396.9</ele>
        <time>2014-06-08T08:38:40.000Z</time>
      </trkpt>
      <trkpt lat="47.51831" lon="6.7636">
        <ele>403.7</ele>
        <time>2014-06-08T08:38:48.000Z</time>
      </trkpt>
      <trkpt lat="47.51834" lon="6.7636">
        <ele>403.5</ele>
        <time>2014-06-08T08:38:49.000Z</time>
      </trkpt>
      <trkpt lat="47.51837" lon="6.7636">
        <ele>402.7</ele>
        <time>2014-06-08T08:38:50.000Z</time>
      </trkpt>
      <trkpt lat="47.5184" lon="6.76361">
        <ele>401</ele>
        <time>2014-06-08T08:38:51.000Z</time>
      </trkpt>
      <trkpt lat="47.51843" lon="6.76361">
        <ele>398.7</ele>
        <time>2014-06-08T08:38:52.000Z</time>
      </trkpt>
      <trkpt lat="47.51847" lon="6.7636">
        <ele>395.3</ele>
        <time>2014-06-08T08:38:53.000Z</time>
      </trkpt>
      <trkpt lat="47.51851" lon="6.76358">
        <ele>394.5</ele>
        <time>2014-06-08T08:38:54.000Z</time>
      </trkpt>
      <trkpt lat="47.51855" lon="6.76355">
        <ele>393.2</ele>
        <time>2014-06-08T08:38:55.000Z</time>
      </trkpt>
      <trkpt lat="47.51857" lon="6.76354">
        <ele>392.3</ele>
        <time>2014-06-08T08:38:56.000Z</time>
      </trkpt>
      <trkpt lat="47.51859" lon="6.76354">
        <ele>392.2</ele>
        <time>2014-06-08T08:38:57.000Z</time>
      </trkpt>
      <trkpt lat="47.51862" lon="6.76354">
        <ele>392.1</ele>
        <time>2014-06-08T08:38:58.000Z</time>
      </trkpt>
      <trkpt lat="47.51865" lon="6.76355">
        <ele>392.2</ele>
        <time>2014-06-08T08:38:59.000Z</time>
      </trkpt>
      <trkpt lat="47.51867" lon="6.76355">
        <ele>392.7</ele>
        <time>2014-06-08T08:39:00.000Z</time>
      </trkpt>
      <trkpt lat="47.5187" lon="6.76356">
        <ele>393.7</ele>
        <time>2014-06-08T08:39:01.000Z</time>
      </trkpt>
      <trkpt lat="47.51873" lon="6.76358">
        <ele>394.9</ele>
        <time>2014-06-08T08:39:02.000Z</time>
      </trkpt>
      <trkpt lat="47.51877" lon="6.76359">
        <ele>394.7</ele>
        <time>2014-06-08T08:39:03.000Z</time>
      </trkpt>
      <trkpt lat="47.5188" lon="6.7636">
        <ele>393.3</ele>
        <time>2014-06-08T08:39:04.000Z</time>
      </trkpt>
      <trkpt lat="47.51883" lon="6.76359">
        <ele>392.5</ele>
        <time>2014-06-08T08:39:05.000Z</time>
      </trkpt>
      <trkpt lat="47.51885" lon="6.76358">
        <ele>392</ele>
        <time>2014-06-08T08:39:06.000Z</time>
      </trkpt>
      <trkpt lat="47.51888" lon="6.76356">
        <ele>392.3</ele>
        <time>2014-06-08T08:39:07.000Z</time>
      </trkpt>
      <trkpt lat="47.51891" lon="6.76355">
        <ele>392</ele>
        <time>2014-06-08T08:39:08.000Z</time>
      </trkpt>
      <trkpt lat="47.51894" lon="6.76354">
        <ele>394.7</ele>
        <time>2014-06-08T08:39:09.000Z</time>
      </trkpt>
      <trkpt lat="47.51897" lon="6.76354">
        <ele>395.3</ele>
        <time>2014-06-08T08:39:10.000Z</time>
      </trkpt>
      <trkpt lat="47.519" lon="6.76354">
        <ele>396.1</ele>
        <time>2014-06-08T08:39:11.000Z</time>
      </trkpt>
      <trkpt lat="47.51903" lon="6.76355">
        <ele>397.7</ele>
        <time>2014-06-08T08:39:12.000Z</time>
      </trkpt>
      <trkpt lat="47.51907" lon="6.76356">
        <ele>396.4</ele>
        <time>2014-06-08T08:39:14.000Z</time>
      </trkpt>
      <trkpt lat="47.51909" lon="6.76356">
        <ele>395.7</ele>
        <time>2014-06-08T08:39:15.000Z</time>
      </trkpt>
      <trkpt lat="47.51911" lon="6.76356">
        <ele>396.9</ele>
        <time>2014-06-08T08:39:16.000Z</time>
      </trkpt>
      <trkpt lat="47.51913" lon="6.76355">
        <ele>397.1</ele>
        <time>2014-06-08T08:39:17.000Z</time>
      </trkpt>
      <trkpt lat="47.51916" lon="6.76354">
        <ele>397.7</ele>
        <time>2014-06-08T08:39:18.000Z</time>
      </trkpt>
      <trkpt lat="47.51919" lon="6.76353">
        <ele>396.6</ele>
        <time>2014-06-08T08:39:19.000Z</time>
      </trkpt>
      <trkpt lat="47.51922" lon="6.76352">
        <ele>396.8</ele>
        <time>2014-06-08T08:39:20.000Z</time>
      </trkpt>
      <trkpt lat="47.51925" lon="6.76351">
        <ele>397.2</ele>
        <time>2014-06-08T08:39:21.000Z</time>
      </trkpt>
      <trkpt lat="47.51929" lon="6.76351">
        <ele>397.6</ele>
        <time>2014-06-08T08:39:22.000Z</time>
      </trkpt>
      <trkpt lat="47.51932" lon="6.7635">
        <ele>397</ele>
        <time>2014-06-08T08:39:23.000Z</time>
      </trkpt>
      <trkpt lat="47.51934" lon="6.7635">
        <ele>398.3</ele>
        <time>2014-06-08T08:39:24.000Z</time>
      </trkpt>
      <trkpt lat="47.51937" lon="6.7635">
        <ele>398.8</ele>
        <time>2014-06-08T08:39:25.000Z</time>
      </trkpt>
      <trkpt lat="47.5194" lon="6.7635">
        <ele>398.9</ele>
        <time>2014-06-08T08:39:26.000Z</time>
      </trkpt>
      <trkpt lat="47.51943" lon="6.7635">
        <ele>398.6</ele>
        <time>2014-06-08T08:39:27.000Z</time>
      </trkpt>
      <trkpt lat="47.51945" lon="6.76352">
        <ele>400.7</ele>
        <time>2014-06-08T08:39:28.000Z</time>
      </trkpt>
      <trkpt lat="47.51946" lon="6.76354">
        <ele>401.8</ele>
        <time>2014-06-08T08:39:29.000Z</time>
      </trkpt>
      <trkpt lat="47.5195" lon="6.76356">
        <ele>402.8</ele>
        <time>2014-06-08T08:39:32.000Z</time>
      </trkpt>
      <trkpt lat="47.5195" lon="6.76356">
        <ele>403.1</ele>
        <time>2014-06-08T08:39:33.000Z</time>
      </trkpt>
      <trkpt lat="47.51954" lon="6.76359">
        <ele>404.3</ele>
        <time>2014-06-08T08:39:45.000Z</time>
      </trkpt>
      <trkpt lat="47.51954" lon="6.7636">
        <ele>404.1</ele>
        <time>2014-06-08T08:39:46.000Z</time>
      </trkpt>
      <trkpt lat="47.51958" lon="6.76363">
        <ele>404.1</ele>
        <time>2014-06-08T08:40:28.000Z</time>
      </trkpt>
      <trkpt lat="47.51958" lon="6.76363">
        <ele>404.1</ele>
        <time>2014-06-08T08:40:29.000Z</time>
      </trkpt>
      <trkpt lat="47.51962" lon="6.76365">
        <ele>400.7</ele>
        <time>2014-06-08T08:42:28.000Z</time>
      </trkpt>
      <trkpt lat="47.51963" lon="6.76365">
        <ele>400.4</ele>
        <time>2014-06-08T08:42:29.000Z</time>
      </trkpt>
      <trkpt lat="47.51963" lon="6.76358">
        <ele>399.1</ele>
        <time>2014-06-08T08:45:55.000Z</time>
      </trkpt>
      <trkpt lat="47.51963" lon="6.76358">
        <ele>399.5</ele>
        <time>2014-06-08T08:45:56.000Z</time>
      </trkpt>
      <trkpt lat="47.5196" lon="6.76363">
        <ele>404</ele>
        <time>2014-06-08T08:50:19.000Z</time>
      </trkpt>
      <trkpt lat="47.51961" lon="6.76364">
        <ele>404.6</ele>
        <time>2014-06-08T08:50:20.000Z</time>
      </trkpt>
      <trkpt lat="47.51961" lon="6.76369">
        <ele>404.3</ele>
        <time>2014-06-08T08:50:23.000Z</time>
      </trkpt>
      <trkpt lat="47.51961" lon="6.76372">
        <ele>401.6</ele>
        <time>2014-06-08T08:50:24.000Z</time>
      </trkpt>
      <trkpt lat="47.51961" lon="6.76377">
        <ele>404</ele>
        <time>2014-06-08T08:50:25.998Z</time>
      </trkpt>
      <trkpt lat="47.51962" lon="6.76381">
        <ele>403</ele>
        <time>2014-06-08T08:50:26.913Z</time>
      </trkpt>
      <trkpt lat="47.51963" lon="6.76386">
        <ele>403.4</ele>
        <time>2014-06-08T08:50:28.000Z</time>
      </trkpt>
      <trkpt lat="47.51965" lon="6.76389">
        <ele>405.4</ele>
        <time>2014-06-08T08:50:29.000Z</time>
      </trkpt>
      <trkpt lat="47.51966" lon="6.76392">
        <ele>405.1</ele>
        <time>2014-06-08T08:50:30.000Z</time>
      </trkpt>
      <trkpt lat="47.51968" lon="6.76394">
        <ele>405.5</ele>
        <time>2014-06-08T08:50:31.000Z</time>
      </trkpt>
      <trkpt lat="47.5197" lon="6.76397">
        <ele>405.6</ele>
        <time>2014-06-08T08:50:32.000Z</time>
      </trkpt>
      <trkpt lat="47.51973" lon="6.76398">
        <ele>405.5</ele>
        <time>2014-06-08T08:50:33.000Z</time>
      </trkpt>
      <trkpt lat="47.51975" lon="6.764">
        <ele>404.8</ele>
        <time>2014-06-08T08:50:34.000Z</time>
      </trkpt>
      <trkpt lat="47.51978" lon="6.76401">
        <ele>404.9</ele>
        <time>2014-06-08T08:50:34.998Z</time>
      </trkpt>
      <trkpt lat="47.51982" lon="6.76402">
        <ele>402.4</ele>
        <time>2014-06-08T08:50:36.000Z</time>
      </trkpt>
      <trkpt lat="47.51984" lon="6.76404">
        <ele>402.5</ele>
        <time>2014-06-08T08:50:37.025Z</time>
      </trkpt>
      <trkpt lat="47.51989" lon="6.76404">
        <ele>399.1</ele>
        <time>2014-06-08T08:50:38.000Z</time>
      </trkpt>
      <trkpt lat="47.51991" lon="6.76405">
        <ele>399.2</ele>
        <time>2014-06-08T08:50:38.999Z</time>
      </trkpt>
      <trkpt lat="47.51996" lon="6.76407">
        <ele>398.8</ele>
        <time>2014-06-08T08:50:40.000Z</time>
      </trkpt>
      <trkpt lat="47.52024" lon="6.7642">
        <ele>394.7</ele>
        <time>2014-06-08T08:50:48.000Z</time>
      </trkpt>
      <trkpt lat="47.52028" lon="6.76422">
        <ele>394.4</ele>
        <time>2014-06-08T08:50:49.000Z</time>
      </trkpt>
      <trkpt lat="47.52032" lon="6.76424">
        <ele>393</ele>
        <time>2014-06-08T08:50:50.000Z</time>
      </trkpt>
      <trkpt lat="47.52036" lon="6.76426">
        <ele>392.5</ele>
        <time>2014-06-08T08:50:51.000Z</time>
      </trkpt>
      <trkpt lat="47.5204" lon="6.76428">
        <ele>392.6</ele>
        <time>2014-06-08T08:50:52.000Z</time>
      </trkpt>
      <trkpt lat="47.52044" lon="6.7643">
        <ele>391.4</ele>
        <time>2014-06-08T08:50:53.000Z</time>
      </trkpt>
      <trkpt lat="47.52048" lon="6.76432">
        <ele>391.6</ele>
        <time>2014-06-08T08:50:54.000Z</time>
      </trkpt>
      <trkpt lat="47.52052" lon="6.76434">
        <ele>391.4</ele>
        <time>2014-06-08T08:50:55.000Z</time>
      </trkpt>
      <trkpt lat="47.52055" lon="6.76436">
        <ele>391.4</ele>
        <time>2014-06-08T08:50:56.000Z</time>
      </trkpt>
      <trkpt lat="47.52059" lon="6.76437">
        <ele>391.2</ele>
        <time>2014-06-08T08:50:57.000Z</time>
      </trkpt>
      <trkpt lat="47.52062" lon="6.76439">
        <ele>391</ele>
        <time>2014-06-08T08:50:58.000Z</time>
      </trkpt>
      <trkpt lat="47.52066" lon="6.76441">
        <ele>390.9</ele>
        <time>2014-06-08T08:50:59.000Z</time>
      </trkpt>
      <trkpt lat="47.52069" lon="6.76443">
        <ele>390.6</ele>
        <time>2014-06-08T08:51:00.000Z</time>
      </trkpt>
      <trkpt lat="47.52073" lon="6.76445">
        <ele>390.2</ele>
        <time>2014-06-08T08:51:01.000Z</time>
      </trkpt>
      <trkpt lat="47.52077" lon="6.76447">
        <ele>390</ele>
        <time>2014-06-08T08:51:02.000Z</time>
      </trkpt>
      <trkpt lat="47.5208" lon="6.76448">
        <ele>390.1</ele>
        <time>2014-06-08T08:51:03.000Z</time>
      </trkpt>
      <trkpt lat="47.52084" lon="6.7645">
        <ele>390.1</ele>
        <time>2014-06-08T08:51:04.000Z</time>
      </trkpt>
      <trkpt lat="47.52087" lon="6.76452">
        <ele>389.8</ele>
        <time>2014-06-08T08:51:05.000Z</time>
      </trkpt>
      <trkpt lat="47.52091" lon="6.76454">
        <ele>389.5</ele>
        <time>2014-06-08T08:51:06.000Z</time>
      </trkpt>
      <trkpt lat="47.52094" lon="6.76456">
        <ele>389.8</ele>
        <time>2014-06-08T08:51:07.000Z</time>
      </trkpt>
      <trkpt lat="47.52098" lon="6.76457">
        <ele>389.9</ele>
        <time>2014-06-08T08:51:08.000Z</time>
      </trkpt>
      <trkpt lat="47.52102" lon="6.76459">
        <ele>389.2</ele>
        <time>2014-06-08T08:51:09.000Z</time>
      </trkpt>
      <trkpt lat="47.52105" lon="6.76461">
        <ele>389.2</ele>
        <time>2014-06-08T08:51:10.000Z</time>
      </trkpt>
      <trkpt lat="47.52109" lon="6.76463">
        <ele>389.7</ele>
        <time>2014-06-08T08:51:11.000Z</time>
      </trkpt>
      <trkpt lat="47.52112" lon="6.76465">
        <ele>389.8</ele>
        <time>2014-06-08T08:51:12.000Z</time>
      </trkpt>
      <trkpt lat="47.52115" lon="6.76466">
        <ele>389.7</ele>
        <time>2014-06-08T08:51:13.000Z</time>
      </trkpt>
      <trkpt lat="47.52118" lon="6.76468">
        <ele>389.6</ele>
        <time>2014-06-08T08:51:14.000Z</time>
      </trkpt>
      <trkpt lat="47.52121" lon="6.76469">
        <ele>389.9</ele>
        <time>2014-06-08T08:51:15.000Z</time>
      </trkpt>
      <trkpt lat="47.52124" lon="6.7647">
        <ele>390</ele>
        <time>2014-06-08T08:51:16.000Z</time>
      </trkpt>
      <trkpt lat="47.52127" lon="6.76472">
        <ele>389.8</ele>
        <time>2014-06-08T08:51:17.000Z</time>
      </trkpt>
      <trkpt lat="47.5213" lon="6.76473">
        <ele>389.8</ele>
        <time>2014-06-08T08:51:18.000Z</time>
      </trkpt>
      <trkpt lat="47.52133" lon="6.76475">
        <ele>389.5</ele>
        <time>2014-06-08T08:51:19.000Z</time>
      </trkpt>
      <trkpt lat="47.52136" lon="6.76477">
        <ele>389.6</ele>
        <time>2014-06-08T08:51:20.000Z</time>
      </trkpt>
      <trkpt lat="47.52139" lon="6.76478">
        <ele>389.9</ele>
        <time>2014-06-08T08:51:21.000Z</time>
      </trkpt>
      <trkpt lat="47.52142" lon="6.7648">
        <ele>390</ele>
        <time>2014-06-08T08:51:22.000Z</time>
      </trkpt>
      <trkpt lat="47.52145" lon="6.76481">
        <ele>390.6</ele>
        <time>2014-06-08T08:51:23.000Z</time>
      </trkpt>
      <trkpt lat="47.52147" lon="6.76483">
        <ele>389.6</ele>
        <time>2014-06-08T08:51:24.000Z</time>
      </trkpt>
      <trkpt lat="47.5215" lon="6.76484">
        <ele>388.8</ele>
        <time>2014-06-08T08:51:25.000Z</time>
      </trkpt>
      <trkpt lat="47.52153" lon="6.76486">
        <ele>388.5</ele>
        <time>2014-06-08T08:51:26.000Z</time>
      </trkpt>
      <trkpt lat="47.52155" lon="6.76487">
        <ele>388.2</ele>
        <time>2014-06-08T08:51:27.000Z</time>
      </trkpt>
      <trkpt lat="47.52158" lon="6.76489">
        <ele>388.5</ele>
        <time>2014-06-08T08:51:28.000Z</time>
      </trkpt>
      <trkpt lat="47.52161" lon="6.7649">
        <ele>389</ele>
        <time>2014-06-08T08:51:29.000Z</time>
      </trkpt>
      <trkpt lat="47.52163" lon="6.76492">
        <ele>388.9</ele>
        <time>2014-06-08T08:51:30.000Z</time>
      </trkpt>
      <trkpt lat="47.52166" lon="6.76493">
        <ele>389.5</ele>
        <time>2014-06-08T08:51:31.000Z</time>
      </trkpt>
      <trkpt lat="47.52168" lon="6.76494">
        <ele>389.7</ele>
        <time>2014-06-08T08:51:32.000Z</time>
      </trkpt>
      <trkpt lat="47.52171" lon="6.76496">
        <ele>390</ele>
        <time>2014-06-08T08:51:33.000Z</time>
      </trkpt>
      <trkpt lat="47.52173" lon="6.76497">
        <ele>389.8</ele>
        <time>2014-06-08T08:51:34.000Z</time>
      </trkpt>
      <trkpt lat="47.52176" lon="6.76498">
        <ele>389.7</ele>
        <time>2014-06-08T08:51:35.000Z</time>
      </trkpt>
      <trkpt lat="47.52178" lon="6.765">
        <ele>389.6</ele>
        <time>2014-06-08T08:51:36.000Z</time>
      </trkpt>
      <trkpt lat="47.52181" lon="6.76501">
        <ele>389.9</ele>
        <time>2014-06-08T08:51:37.000Z</time>
      </trkpt>
      <trkpt lat="47.52184" lon="6.76503">
        <ele>390.1</ele>
        <time>2014-06-08T08:51:38.000Z</time>
      </trkpt>
      <trkpt lat="47.52187" lon="6.76504">
        <ele>390.4</ele>
        <time>2014-06-08T08:51:39.000Z</time>
      </trkpt>
      <trkpt lat="47.52195" lon="6.76508">
        <ele>391.5</ele>
        <time>2014-06-08T08:51:42.000Z</time>
      </trkpt>
      <trkpt lat="47.52198" lon="6.7651">
        <ele>391.7</ele>
        <time>2014-06-08T08:51:43.000Z</time>
      </trkpt>
      <trkpt lat="47.522" lon="6.76511">
        <ele>391.4</ele>
        <time>2014-06-08T08:51:44.000Z</time>
      </trkpt>
      <trkpt lat="47.52203" lon="6.76512">
        <ele>392</ele>
        <time>2014-06-08T08:51:45.000Z</time>
      </trkpt>
      <trkpt lat="47.52205" lon="6.76513">
        <ele>392.3</ele>
        <time>2014-06-08T08:51:46.000Z</time>
      </trkpt>
      <trkpt lat="47.52207" lon="6.76515">
        <ele>392.2</ele>
        <time>2014-06-08T08:51:47.000Z</time>
      </trkpt>
      <trkpt lat="47.52209" lon="6.76516">
        <ele>392.4</ele>
        <time>2014-06-08T08:51:48.000Z</time>
      </trkpt>
      <trkpt lat="47.52213" lon="6.76519">
        <ele>392.7</ele>
        <time>2014-06-08T08:51:50.000Z</time>
      </trkpt>
      <trkpt lat="47.52216" lon="6.7652">
        <ele>393</ele>
        <time>2014-06-08T08:51:51.000Z</time>
      </trkpt>
      <trkpt lat="47.52218" lon="6.76521">
        <ele>393.6</ele>
        <time>2014-06-08T08:51:52.000Z</time>
      </trkpt>
      <trkpt lat="47.5222" lon="6.76522">
        <ele>394.4</ele>
        <time>2014-06-08T08:51:53.000Z</time>
      </trkpt>
      <trkpt lat="47.52222" lon="6.76523">
        <ele>394.7</ele>
        <time>2014-06-08T08:51:54.000Z</time>
      </trkpt>
      <trkpt lat="47.52224" lon="6.76524">
        <ele>395</ele>
        <time>2014-06-08T08:51:55.000Z</time>
      </trkpt>
      <trkpt lat="47.52226" lon="6.76525">
        <ele>394</ele>
        <time>2014-06-08T08:51:56.000Z</time>
      </trkpt>
      <trkpt lat="47.52228" lon="6.76526">
        <ele>393.3</ele>
        <time>2014-06-08T08:51:57.000Z</time>
      </trkpt>
      <trkpt lat="47.52231" lon="6.76528">
        <ele>393.5</ele>
        <time>2014-06-08T08:51:58.000Z</time>
      </trkpt>
      <trkpt lat="47.52233" lon="6.76529">
        <ele>393.3</ele>
        <time>2014-06-08T08:51:59.000Z</time>
      </trkpt>
      <trkpt lat="47.52235" lon="6.7653">
        <ele>394.1</ele>
        <time>2014-06-08T08:52:00.000Z</time>
      </trkpt>
      <trkpt lat="47.52237" lon="6.76531">
        <ele>394.7</ele>
        <time>2014-06-08T08:52:01.000Z</time>
      </trkpt>
      <trkpt lat="47.5224" lon="6.76532">
        <ele>395.1</ele>
        <time>2014-06-08T08:52:02.000Z</time>
      </trkpt>
      <trkpt lat="47.52242" lon="6.76534">
        <ele>394.8</ele>
        <time>2014-06-08T08:52:03.000Z</time>
      </trkpt>
      <trkpt lat="47.52244" lon="6.76535">
        <ele>395.4</ele>
        <time>2014-06-08T08:52:04.000Z</time>
      </trkpt>
      <trkpt lat="47.52246" lon="6.76536">
        <ele>395.8</ele>
        <time>2014-06-08T08:52:05.000Z</time>
      </trkpt>
      <trkpt lat="47.52249" lon="6.76537">
        <ele>395.7</ele>
        <time>2014-06-08T08:52:06.000Z</time>
      </trkpt>
      <trkpt lat="47.52251" lon="6.76538">
        <ele>394.6</ele>
        <time>2014-06-08T08:52:07.000Z</time>
      </trkpt>
      <trkpt lat="47.52255" lon="6.7654">
        <ele>394.6</ele>
        <time>2014-06-08T08:52:09.000Z</time>
      </trkpt>
      <trkpt lat="47.52257" lon="6.76541">
        <ele>394.7</ele>
        <time>2014-06-08T08:52:10.000Z</time>
      </trkpt>
      <trkpt lat="47.52259" lon="6.76542">
        <ele>394.6</ele>
        <time>2014-06-08T08:52:11.000Z</time>
      </trkpt>
      <trkpt lat="47.52261" lon="6.76543">
        <ele>393.8</ele>
        <time>2014-06-08T08:52:12.000Z</time>
      </trkpt>
      <trkpt lat="47.52263" lon="6.76545">
        <ele>393.3</ele>
        <time>2014-06-08T08:52:13.000Z</time>
      </trkpt>
      <trkpt lat="47.52266" lon="6.76546">
        <ele>394</ele>
        <time>2014-06-08T08:52:14.000Z</time>
      </trkpt>
      <trkpt lat="47.52268" lon="6.76547">
        <ele>394.5</ele>
        <time>2014-06-08T08:52:15.000Z</time>
      </trkpt>
      <trkpt lat="47.52271" lon="6.76548">
        <ele>394.8</ele>
        <time>2014-06-08T08:52:16.000Z</time>
      </trkpt>
      <trkpt lat="47.52273" lon="6.76549">
        <ele>394.8</ele>
        <time>2014-06-08T08:52:17.000Z</time>
      </trkpt>
      <trkpt lat="47.52275" lon="6.7655">
        <ele>395.2</ele>
        <time>2014-06-08T08:52:18.000Z</time>
      </trkpt>
      <trkpt lat="47.52277" lon="6.76552">
        <ele>395.3</ele>
        <time>2014-06-08T08:52:19.000Z</time>
      </trkpt>
      <trkpt lat="47.52279" lon="6.76553">
        <ele>395.5</ele>
        <time>2014-06-08T08:52:20.000Z</time>
      </trkpt>
      <trkpt lat="47.52282" lon="6.76554">
        <ele>394.9</ele>
        <time>2014-06-08T08:52:21.000Z</time>
      </trkpt>
      <trkpt lat="47.52284" lon="6.76555">
        <ele>394.8</ele>
        <time>2014-06-08T08:52:22.000Z</time>
      </trkpt>
      <trkpt lat="47.52287" lon="6.76556">
        <ele>396</ele>
        <time>2014-06-08T08:52:23.000Z</time>
      </trkpt>
      <trkpt lat="47.52289" lon="6.76557">
        <ele>396.9</ele>
        <time>2014-06-08T08:52:24.000Z</time>
      </trkpt>
      <trkpt lat="47.52293" lon="6.76559">
        <ele>398.2</ele>
        <time>2014-06-08T08:52:26.000Z</time>
      </trkpt>
      <trkpt lat="47.52295" lon="6.7656">
        <ele>398.5</ele>
        <time>2014-06-08T08:52:27.000Z</time>
      </trkpt>
      <trkpt lat="47.52297" lon="6.76561">
        <ele>398.3</ele>
        <time>2014-06-08T08:52:28.000Z</time>
      </trkpt>
      <trkpt lat="47.52299" lon="6.76563">
        <ele>398.2</ele>
        <time>2014-06-08T08:52:29.000Z</time>
      </trkpt>
      <trkpt lat="47.52301" lon="6.76564">
        <ele>398.7</ele>
        <time>2014-06-08T08:52:30.000Z</time>
      </trkpt>
      <trkpt lat="47.52303" lon="6.76565">
        <ele>398.7</ele>
        <time>2014-06-08T08:52:31.000Z</time>
      </trkpt>
      <trkpt lat="47.52306" lon="6.76566">
        <ele>399.4</ele>
        <time>2014-06-08T08:52:32.000Z</time>
      </trkpt>
      <trkpt lat="47.52308" lon="6.76567">
        <ele>400</ele>
        <time>2014-06-08T08:52:33.000Z</time>
      </trkpt>
      <trkpt lat="47.52311" lon="6.76568">
        <ele>399.7</ele>
        <time>2014-06-08T08:52:34.000Z</time>
      </trkpt>
      <trkpt lat="47.52313" lon="6.76569">
        <ele>400.1</ele>
        <time>2014-06-08T08:52:35.000Z</time>
      </trkpt>
      <trkpt lat="47.52315" lon="6.7657">
        <ele>400.4</ele>
        <time>2014-06-08T08:52:36.000Z</time>
      </trkpt>
      <trkpt lat="47.52317" lon="6.76572">
        <ele>400.2</ele>
        <time>2014-06-08T08:52:37.000Z</time>
      </trkpt>
      <trkpt lat="47.5232" lon="6.76573">
        <ele>400.3</ele>
        <time>2014-06-08T08:52:38.000Z</time>
      </trkpt>
      <trkpt lat="47.52322" lon="6.76574">
        <ele>400</ele>
        <time>2014-06-08T08:52:39.000Z</time>
      </trkpt>
      <trkpt lat="47.52326" lon="6.76576">
        <ele>399.4</ele>
        <time>2014-06-08T08:52:41.300Z</time>
      </trkpt>
      <trkpt lat="47.52327" lon="6.76577">
        <ele>399.3</ele>
        <time>2014-06-08T08:52:42.000Z</time>
      </trkpt>
      <trkpt lat="47.52331" lon="6.76579">
        <ele>399.4</ele>
        <time>2014-06-08T08:52:44.000Z</time>
      </trkpt>
      <trkpt lat="47.52335" lon="6.76581">
        <ele>400.7</ele>
        <time>2014-06-08T08:52:46.000Z</time>
      </trkpt>
      <trkpt lat="47.52337" lon="6.76582">
        <ele>400.7</ele>
        <time>2014-06-08T08:52:47.000Z</time>
      </trkpt>
      <trkpt lat="47.5234" lon="6.76584">
        <ele>401.9</ele>
        <time>2014-06-08T08:52:49.000Z</time>
      </trkpt>
      <trkpt lat="47.52342" lon="6.76586">
        <ele>402.3</ele>
        <time>2014-06-08T08:52:50.000Z</time>
      </trkpt>
      <trkpt lat="47.52346" lon="6.76589">
        <ele>403.5</ele>
        <time>2014-06-08T08:52:52.000Z</time>
      </trkpt>
      <trkpt lat="47.52348" lon="6.7659">
        <ele>403.9</ele>
        <time>2014-06-08T08:52:53.000Z</time>
      </trkpt>
      <trkpt lat="47.5235" lon="6.76592">
        <ele>404.2</ele>
        <time>2014-06-08T08:52:54.000Z</time>
      </trkpt>
      <trkpt lat="47.52352" lon="6.76593">
        <ele>404.2</ele>
        <time>2014-06-08T08:52:55.000Z</time>
      </trkpt>
      <trkpt lat="47.52354" lon="6.76594">
        <ele>405.1</ele>
        <time>2014-06-08T08:52:56.000Z</time>
      </trkpt>
      <trkpt lat="47.52356" lon="6.76595">
        <ele>406.3</ele>
        <time>2014-06-08T08:52:57.000Z</time>
      </trkpt>
      <trkpt lat="47.52359" lon="6.76595">
        <ele>406.6</ele>
        <time>2014-06-08T08:52:58.000Z</time>
      </trkpt>
      <trkpt lat="47.52361" lon="6.76596">
        <ele>407</ele>
        <time>2014-06-08T08:52:59.000Z</time>
      </trkpt>
      <trkpt lat="47.52364" lon="6.76598">
        <ele>407.2</ele>
        <time>2014-06-08T08:53:00.000Z</time>
      </trkpt>
      <trkpt lat="47.52367" lon="6.76599">
        <ele>408.1</ele>
        <time>2014-06-08T08:53:01.000Z</time>
      </trkpt>
      <trkpt lat="47.52369" lon="6.766">
        <ele>408.6</ele>
        <time>2014-06-08T08:53:02.000Z</time>
      </trkpt>
      <trkpt lat="47.52371" lon="6.76602">
        <ele>410.1</ele>
        <time>2014-06-08T08:53:03.000Z</time>
      </trkpt>
      <trkpt lat="47.52373" lon="6.76603">
        <ele>411.1</ele>
        <time>2014-06-08T08:53:04.000Z</time>
      </trkpt>
      <trkpt lat="47.52376" lon="6.76605">
        <ele>410.8</ele>
        <time>2014-06-08T08:53:05.000Z</time>
      </trkpt>
      <trkpt lat="47.52378" lon="6.76606">
        <ele>410.9</ele>
        <time>2014-06-08T08:53:06.000Z</time>
      </trkpt>
      <trkpt lat="47.5238" lon="6.76607">
        <ele>411</ele>
        <time>2014-06-08T08:53:07.000Z</time>
      </trkpt>
      <trkpt lat="47.52382" lon="6.76608">
        <ele>411.2</ele>
        <time>2014-06-08T08:53:08.000Z</time>
      </trkpt>
      <trkpt lat="47.52385" lon="6.76609">
        <ele>410.8</ele>
        <time>2014-06-08T08:53:09.000Z</time>
      </trkpt>
      <trkpt lat="47.52388" lon="6.7661">
        <ele>410.3</ele>
        <time>2014-06-08T08:53:10.000Z</time>
      </trkpt>
      <trkpt lat="47.5239" lon="6.76611">
        <ele>410.2</ele>
        <time>2014-06-08T08:53:11.000Z</time>
      </trkpt>
      <trkpt lat="47.52393" lon="6.76612">
        <ele>410.1</ele>
        <time>2014-06-08T08:53:12.000Z</time>
      </trkpt>
      <trkpt lat="47.52396" lon="6.76613">
        <ele>410.1</ele>
        <time>2014-06-08T08:53:12.999Z</time>
      </trkpt>
      <trkpt lat="47.52399" lon="6.76614">
        <ele>409.4</ele>
        <time>2014-06-08T08:53:14.000Z</time>
      </trkpt>
      <trkpt lat="47.52401" lon="6.76615">
        <ele>409.2</ele>
        <time>2014-06-08T08:53:15.000Z</time>
      </trkpt>
      <trkpt lat="47.52404" lon="6.76616">
        <ele>408.8</ele>
        <time>2014-06-08T08:53:16.000Z</time>
      </trkpt>
      <trkpt lat="47.52408" lon="6.76618">
        <ele>407.9</ele>
        <time>2014-06-08T08:53:17.000Z</time>
      </trkpt>
      <trkpt lat="47.5241" lon="6.76619">
        <ele>407.5</ele>
        <time>2014-06-08T08:53:18.000Z</time>
      </trkpt>
      <trkpt lat="47.52413" lon="6.76621">
        <ele>406.9</ele>
        <time>2014-06-08T08:53:18.998Z</time>
      </trkpt>
      <trkpt lat="47.52415" lon="6.76623">
        <ele>406.9</ele>
        <time>2014-06-08T08:53:20.000Z</time>
      </trkpt>
      <trkpt lat="47.52418" lon="6.76625">
        <ele>406.8</ele>
        <time>2014-06-08T08:53:21.000Z</time>
      </trkpt>
      <trkpt lat="47.52421" lon="6.76628">
        <ele>406.5</ele>
        <time>2014-06-08T08:53:22.000Z</time>
      </trkpt>
      <trkpt lat="47.52424" lon="6.7663">
        <ele>406.9</ele>
        <time>2014-06-08T08:53:23.000Z</time>
      </trkpt>
      <trkpt lat="47.52427" lon="6.76632">
        <ele>406.8</ele>
        <time>2014-06-08T08:53:24.000Z</time>
      </trkpt>
      <trkpt lat="47.5243" lon="6.76635">
        <ele>406.4</ele>
        <time>2014-06-08T08:53:25.000Z</time>
      </trkpt>
      <trkpt lat="47.52433" lon="6.76637">
        <ele>406</ele>
        <time>2014-06-08T08:53:26.000Z</time>
      </trkpt>
      <trkpt lat="47.52436" lon="6.76641">
        <ele>405</ele>
        <time>2014-06-08T08:53:27.000Z</time>
      </trkpt>
      <trkpt lat="47.52439" lon="6.76644">
        <ele>404.3</ele>
        <time>2014-06-08T08:53:28.000Z</time>
      </trkpt>
      <trkpt lat="47.52442" lon="6.76647">
        <ele>404.6</ele>
        <time>2014-06-08T08:53:29.000Z</time>
      </trkpt>
      <trkpt lat="47.52445" lon="6.7665">
        <ele>404.9</ele>
        <time>2014-06-08T08:53:30.000Z</time>
      </trkpt>
      <trkpt lat="47.52448" lon="6.76654">
        <ele>404.3</ele>
        <time>2014-06-08T08:53:31.000Z</time>
      </trkpt>
      <trkpt lat="47.52451" lon="6.76657">
        <ele>404.4</ele>
        <time>2014-06-08T08:53:32.000Z</time>
      </trkpt>
      <trkpt lat="47.52454" lon="6.7666">
        <ele>405.6</ele>
        <time>2014-06-08T08:53:33.000Z</time>
      </trkpt>
      <trkpt lat="47.52457" lon="6.76664">
        <ele>406</ele>
        <time>2014-06-08T08:53:34.000Z</time>
      </trkpt>
      <trkpt lat="47.5246" lon="6.76668">
        <ele>405.7</ele>
        <time>2014-06-08T08:53:35.000Z</time>
      </trkpt>
      <trkpt lat="47.52463" lon="6.76672">
        <ele>404.5</ele>
        <time>2014-06-08T08:53:36.000Z</time>
      </trkpt>
      <trkpt lat="47.52466" lon="6.76676">
        <ele>404.5</ele>
        <time>2014-06-08T08:53:37.000Z</time>
      </trkpt>
      <trkpt lat="47.5247" lon="6.7668">
        <ele>404.3</ele>
        <time>2014-06-08T08:53:38.000Z</time>
      </trkpt>
      <trkpt lat="47.52473" lon="6.76684">
        <ele>404.3</ele>
        <time>2014-06-08T08:53:39.000Z</time>
      </trkpt>
      <trkpt lat="47.52503" lon="6.76721">
        <ele>401</ele>
        <time>2014-06-08T08:53:48.000Z</time>
      </trkpt>
      <trkpt lat="47.52506" lon="6.76727">
        <ele>400.7</ele>
        <time>2014-06-08T08:53:49.000Z</time>
      </trkpt>
      <trkpt lat="47.52509" lon="6.76732">
        <ele>400.9</ele>
        <time>2014-06-08T08:53:50.000Z</time>
      </trkpt>
      <trkpt lat="47.52513" lon="6.76737">
        <ele>400.6</ele>
        <time>2014-06-08T08:53:51.000Z</time>
      </trkpt>
      <trkpt lat="47.52518" lon="6.76738">
        <ele>400.8</ele>
        <time>2014-06-08T08:53:52.000Z</time>
      </trkpt>
      <trkpt lat="47.52523" lon="6.76736">
        <ele>400.2</ele>
        <time>2014-06-08T08:53:53.000Z</time>
      </trkpt>
      <trkpt lat="47.52527" lon="6.76731">
        <ele>399.1</ele>
        <time>2014-06-08T08:53:54.000Z</time>
      </trkpt>
      <trkpt lat="47.52532" lon="6.76726">
        <ele>398</ele>
        <time>2014-06-08T08:53:55.000Z</time>
      </trkpt>
      <trkpt lat="47.52537" lon="6.7672">
        <ele>396.8</ele>
        <time>2014-06-08T08:53:56.000Z</time>
      </trkpt>
      <trkpt lat="47.52541" lon="6.76715">
        <ele>396.2</ele>
        <time>2014-06-08T08:53:57.000Z</time>
      </trkpt>
      <trkpt lat="47.52546" lon="6.76709">
        <ele>395.6</ele>
        <time>2014-06-08T08:53:58.000Z</time>
      </trkpt>
      <trkpt lat="47.52551" lon="6.76704">
        <ele>395.1</ele>
        <time>2014-06-08T08:53:59.000Z</time>
      </trkpt>
      <trkpt lat="47.52554" lon="6.76699">
        <ele>394.5</ele>
        <time>2014-06-08T08:54:00.000Z</time>
      </trkpt>
      <trkpt lat="47.52558" lon="6.76695">
        <ele>394.3</ele>
        <time>2014-06-08T08:54:01.000Z</time>
      </trkpt>
      <trkpt lat="47.52562" lon="6.76691">
        <ele>394.3</ele>
        <time>2014-06-08T08:54:02.000Z</time>
      </trkpt>
      <trkpt lat="47.52565" lon="6.76688">
        <ele>393.8</ele>
        <time>2014-06-08T08:54:03.000Z</time>
      </trkpt>
      <trkpt lat="47.52569" lon="6.76684">
        <ele>393.1</ele>
        <time>2014-06-08T08:54:04.000Z</time>
      </trkpt>
      <trkpt lat="47.52572" lon="6.7668">
        <ele>392.9</ele>
        <time>2014-06-08T08:54:05.000Z</time>
      </trkpt>
      <trkpt lat="47.52576" lon="6.76676">
        <ele>392.3</ele>
        <time>2014-06-08T08:54:05.999Z</time>
      </trkpt>
      <trkpt lat="47.5258" lon="6.76672">
        <ele>391.8</ele>
        <time>2014-06-08T08:54:07.000Z</time>
      </trkpt>
      <trkpt lat="47.52585" lon="6.76667">
        <ele>391</ele>
        <time>2014-06-08T08:54:07.999Z</time>
      </trkpt>
      <trkpt lat="47.52589" lon="6.7666">
        <ele>390.6</ele>
        <time>2014-06-08T08:54:09.000Z</time>
      </trkpt>
      <trkpt lat="47.52593" lon="6.76652">
        <ele>390.2</ele>
        <time>2014-06-08T08:54:10.000Z</time>
      </trkpt>
      <trkpt lat="47.52596" lon="6.76644">
        <ele>389.8</ele>
        <time>2014-06-08T08:54:11.000Z</time>
      </trkpt>
      <trkpt lat="47.52599" lon="6.76636">
        <ele>389.4</ele>
        <time>2014-06-08T08:54:12.000Z</time>
      </trkpt>
      <trkpt lat="47.52603" lon="6.76628">
        <ele>388</ele>
        <time>2014-06-08T08:54:13.000Z</time>
      </trkpt>
      <trkpt lat="47.52607" lon="6.76619">
        <ele>386.8</ele>
        <time>2014-06-08T08:54:13.999Z</time>
      </trkpt>
      <trkpt lat="47.52611" lon="6.7661">
        <ele>386.4</ele>
        <time>2014-06-08T08:54:15.000Z</time>
      </trkpt>
      <trkpt lat="47.52615" lon="6.76601">
        <ele>385.6</ele>
        <time>2014-06-08T08:54:16.000Z</time>
      </trkpt>
      <trkpt lat="47.52619" lon="6.76591">
        <ele>383.6</ele>
        <time>2014-06-08T08:54:17.000Z</time>
      </trkpt>
      <trkpt lat="47.52622" lon="6.76581">
        <ele>383.2</ele>
        <time>2014-06-08T08:54:18.000Z</time>
      </trkpt>
      <trkpt lat="47.52624" lon="6.7657">
        <ele>382.6</ele>
        <time>2014-06-08T08:54:19.001Z</time>
      </trkpt>
      <trkpt lat="47.52628" lon="6.76561">
        <ele>382.6</ele>
        <time>2014-06-08T08:54:20.000Z</time>
      </trkpt>
      <trkpt lat="47.52631" lon="6.76552">
        <ele>382.6</ele>
        <time>2014-06-08T08:54:21.000Z</time>
      </trkpt>
      <trkpt lat="47.52633" lon="6.76547">
        <ele>382.2</ele>
        <time>2014-06-08T08:54:22.000Z</time>
      </trkpt>
      <trkpt lat="47.52636" lon="6.76545">
        <ele>382.2</ele>
        <time>2014-06-08T08:54:23.000Z</time>
      </trkpt>
      <trkpt lat="47.52639" lon="6.76545">
        <ele>381.8</ele>
        <time>2014-06-08T08:54:24.000Z</time>
      </trkpt>
      <trkpt lat="47.52641" lon="6.76547">
        <ele>381.4</ele>
        <time>2014-06-08T08:54:25.000Z</time>
      </trkpt>
      <trkpt lat="47.52643" lon="6.76551">
        <ele>381.3</ele>
        <time>2014-06-08T08:54:26.000Z</time>
      </trkpt>
      <trkpt lat="47.52645" lon="6.76553">
        <ele>381.7</ele>
        <time>2014-06-08T08:54:27.000Z</time>
      </trkpt>
      <trkpt lat="47.52646" lon="6.76556">
        <ele>382</ele>
        <time>2014-06-08T08:54:28.000Z</time>
      </trkpt>
      <trkpt lat="47.52647" lon="6.76559">
        <ele>382.1</ele>
        <time>2014-06-08T08:54:29.000Z</time>
      </trkpt>
      <trkpt lat="47.52648" lon="6.76563">
        <ele>382</ele>
        <time>2014-06-08T08:54:30.000Z</time>
      </trkpt>
      <trkpt lat="47.52649" lon="6.76566">
        <ele>381.5</ele>
        <time>2014-06-08T08:54:31.000Z</time>
      </trkpt>
      <trkpt lat="47.5265" lon="6.7657">
        <ele>381.1</ele>
        <time>2014-06-08T08:54:32.000Z</time>
      </trkpt>
      <trkpt lat="47.52651" lon="6.76575">
        <ele>380.8</ele>
        <time>2014-06-08T08:54:33.000Z</time>
      </trkpt>
      <trkpt lat="47.52652" lon="6.76579">
        <ele>380.4</ele>
        <time>2014-06-08T08:54:34.000Z</time>
      </trkpt>
      <trkpt lat="47.52653" lon="6.76584">
        <ele>380.2</ele>
        <time>2014-06-08T08:54:35.000Z</time>
      </trkpt>
      <trkpt lat="47.52654" lon="6.76589">
        <ele>380.2</ele>
        <time>2014-06-08T08:54:36.000Z</time>
      </trkpt>
      <trkpt lat="47.52655" lon="6.76594">
        <ele>380.3</ele>
        <time>2014-06-08T08:54:37.000Z</time>
      </trkpt>
      <trkpt lat="47.52657" lon="6.76599">
        <ele>380.6</ele>
        <time>2014-06-08T08:54:38.000Z</time>
      </trkpt>
      <trkpt lat="47.52658" lon="6.76605">
        <ele>380.8</ele>
        <time>2014-06-08T08:54:39.000Z</time>
      </trkpt>
      <trkpt lat="47.52663" lon="6.76621">
        <ele>381.3</ele>
        <time>2014-06-08T08:54:42.000Z</time>
      </trkpt>
      <trkpt lat="47.52665" lon="6.76626">
        <ele>380.9</ele>
        <time>2014-06-08T08:54:43.000Z</time>
      </trkpt>
      <trkpt lat="47.52666" lon="6.76632">
        <ele>380.8</ele>
        <time>2014-06-08T08:54:44.000Z</time>
      </trkpt>
      <trkpt lat="47.52668" lon="6.76637">
        <ele>380.8</ele>
        <time>2014-06-08T08:54:45.000Z</time>
      </trkpt>
      <trkpt lat="47.52669" lon="6.76642">
        <ele>380.1</ele>
        <time>2014-06-08T08:54:46.000Z</time>
      </trkpt>
      <trkpt lat="47.52671" lon="6.76647">
        <ele>380.3</ele>
        <time>2014-06-08T08:54:47.000Z</time>
      </trkpt>
      <trkpt lat="47.52673" lon="6.76651">
        <ele>380.6</ele>
        <time>2014-06-08T08:54:48.000Z</time>
      </trkpt>
      <trkpt lat="47.52674" lon="6.76656">
        <ele>380.4</ele>
        <time>2014-06-08T08:54:49.000Z</time>
      </trkpt>
      <trkpt lat="47.52676" lon="6.76661">
        <ele>380.4</ele>
        <time>2014-06-08T08:54:50.000Z</time>
      </trkpt>
      <trkpt lat="47.52678" lon="6.76666">
        <ele>380.7</ele>
        <time>2014-06-08T08:54:51.000Z</time>
      </trkpt>
      <trkpt lat="47.5268" lon="6.76671">
        <ele>380.4</ele>
        <time>2014-06-08T08:54:52.000Z</time>
      </trkpt>
      <trkpt lat="47.52681" lon="6.76677">
        <ele>380.1</ele>
        <time>2014-06-08T08:54:53.000Z</time>
      </trkpt>
      <trkpt lat="47.52683" lon="6.76682">
        <ele>379.8</ele>
        <time>2014-06-08T08:54:54.000Z</time>
      </trkpt>
      <trkpt lat="47.52684" lon="6.76687">
        <ele>379.7</ele>
        <time>2014-06-08T08:54:55.000Z</time>
      </trkpt>
      <trkpt lat="47.52686" lon="6.76691">
        <ele>379.9</ele>
        <time>2014-06-08T08:54:56.000Z</time>
      </trkpt>
      <trkpt lat="47.52687" lon="6.76696">
        <ele>379.8</ele>
        <time>2014-06-08T08:54:57.000Z</time>
      </trkpt>
      <trkpt lat="47.52689" lon="6.76701">
        <ele>379.6</ele>
        <time>2014-06-08T08:54:58.000Z</time>
      </trkpt>
      <trkpt lat="47.52691" lon="6.76706">
        <ele>380.1</ele>
        <time>2014-06-08T08:54:59.000Z</time>
      </trkpt>
      <trkpt lat="47.52693" lon="6.76711">
        <ele>380.1</ele>
        <time>2014-06-08T08:54:59.998Z</time>
      </trkpt>
      <trkpt lat="47.52695" lon="6.76716">
        <ele>380</ele>
        <time>2014-06-08T08:55:01.000Z</time>
      </trkpt>
      <trkpt lat="47.52696" lon="6.76722">
        <ele>380.1</ele>
        <time>2014-06-08T08:55:02.000Z</time>
      </trkpt>
      <trkpt lat="47.52698" lon="6.76727">
        <ele>380.1</ele>
        <time>2014-06-08T08:55:03.000Z</time>
      </trkpt>
      <trkpt lat="47.527" lon="6.76732">
        <ele>380.4</ele>
        <time>2014-06-08T08:55:04.000Z</time>
      </trkpt>
      <trkpt lat="47.52702" lon="6.76737">
        <ele>379</ele>
        <time>2014-06-08T08:55:05.000Z</time>
      </trkpt>
      <trkpt lat="47.52705" lon="6.76743">
        <ele>377.7</ele>
        <time>2014-06-08T08:55:06.000Z</time>
      </trkpt>
      <trkpt lat="47.52707" lon="6.76748">
        <ele>377.4</ele>
        <time>2014-06-08T08:55:07.000Z</time>
      </trkpt>
      <trkpt lat="47.5271" lon="6.76753">
        <ele>377.9</ele>
        <time>2014-06-08T08:55:08.000Z</time>
      </trkpt>
      <trkpt lat="47.52711" lon="6.76758">
        <ele>377.6</ele>
        <time>2014-06-08T08:55:09.000Z</time>
      </trkpt>
      <trkpt lat="47.52713" lon="6.76764">
        <ele>377.5</ele>
        <time>2014-06-08T08:55:10.000Z</time>
      </trkpt>
      <trkpt lat="47.52716" lon="6.76769">
        <ele>377.5</ele>
        <time>2014-06-08T08:55:11.000Z</time>
      </trkpt>
      <trkpt lat="47.52718" lon="6.76775">
        <ele>377.6</ele>
        <time>2014-06-08T08:55:12.000Z</time>
      </trkpt>
      <trkpt lat="47.52719" lon="6.7678">
        <ele>377.5</ele>
        <time>2014-06-08T08:55:13.000Z</time>
      </trkpt>
      <trkpt lat="47.52721" lon="6.76785">
        <ele>377.1</ele>
        <time>2014-06-08T08:55:14.000Z</time>
      </trkpt>
      <trkpt lat="47.52722" lon="6.7679">
        <ele>376.8</ele>
        <time>2014-06-08T08:55:15.000Z</time>
      </trkpt>
      <trkpt lat="47.52723" lon="6.76794">
        <ele>376.3</ele>
        <time>2014-06-08T08:55:16.000Z</time>
      </trkpt>
      <trkpt lat="47.52726" lon="6.76799">
        <ele>377.2</ele>
        <time>2014-06-08T08:55:17.000Z</time>
      </trkpt>
      <trkpt lat="47.52728" lon="6.76804">
        <ele>377.6</ele>
        <time>2014-06-08T08:55:18.000Z</time>
      </trkpt>
      <trkpt lat="47.52729" lon="6.76809">
        <ele>377.2</ele>
        <time>2014-06-08T08:55:19.000Z</time>
      </trkpt>
      <trkpt lat="47.52731" lon="6.76813">
        <ele>377.4</ele>
        <time>2014-06-08T08:55:20.000Z</time>
      </trkpt>
      <trkpt lat="47.52733" lon="6.76818">
        <ele>377.5</ele>
        <time>2014-06-08T08:55:21.000Z</time>
      </trkpt>
      <trkpt lat="47.52735" lon="6.76823">
        <ele>377.2</ele>
        <time>2014-06-08T08:55:22.000Z</time>
      </trkpt>
      <trkpt lat="47.52736" lon="6.76828">
        <ele>377.3</ele>
        <time>2014-06-08T08:55:23.000Z</time>
      </trkpt>
      <trkpt lat="47.52738" lon="6.76832">
        <ele>377.3</ele>
        <time>2014-06-08T08:55:24.000Z</time>
      </trkpt>
      <trkpt lat="47.52739" lon="6.76837">
        <ele>377.2</ele>
        <time>2014-06-08T08:55:25.000Z</time>
      </trkpt>
      <trkpt lat="47.52741" lon="6.76841">
        <ele>378.3</ele>
        <time>2014-06-08T08:55:26.000Z</time>
      </trkpt>
      <trkpt lat="47.52742" lon="6.76844">
        <ele>378.5</ele>
        <time>2014-06-08T08:55:27.000Z</time>
      </trkpt>
      <trkpt lat="47.52744" lon="6.76848">
        <ele>379.2</ele>
        <time>2014-06-08T08:55:27.999Z</time>
      </trkpt>
      <trkpt lat="47.52746" lon="6.76851">
        <ele>378.6</ele>
        <time>2014-06-08T08:55:29.000Z</time>
      </trkpt>
      <trkpt lat="47.52747" lon="6.76854">
        <ele>378.7</ele>
        <time>2014-06-08T08:55:30.000Z</time>
      </trkpt>
      <trkpt lat="47.52749" lon="6.76857">
        <ele>379.1</ele>
        <time>2014-06-08T08:55:31.000Z</time>
      </trkpt>
      <trkpt lat="47.5275" lon="6.7686">
        <ele>379.4</ele>
        <time>2014-06-08T08:55:32.000Z</time>
      </trkpt>
      <trkpt lat="47.52751" lon="6.76864">
        <ele>379.8</ele>
        <time>2014-06-08T08:55:33.000Z</time>
      </trkpt>
      <trkpt lat="47.5275" lon="6.76869">
        <ele>378.4</ele>
        <time>2014-06-08T08:55:34.000Z</time>
      </trkpt>
      <trkpt lat="47.5275" lon="6.76873">
        <ele>378.6</ele>
        <time>2014-06-08T08:55:35.000Z</time>
      </trkpt>
      <trkpt lat="47.5275" lon="6.76877">
        <ele>378.9</ele>
        <time>2014-06-08T08:55:36.000Z</time>
      </trkpt>
      <trkpt lat="47.5275" lon="6.7688">
        <ele>381.3</ele>
        <time>2014-06-08T08:55:37.000Z</time>
      </trkpt>
      <trkpt lat="47.52751" lon="6.76884">
        <ele>383.3</ele>
        <time>2014-06-08T08:55:38.000Z</time>
      </trkpt>
      <trkpt lat="47.52751" lon="6.76887">
        <ele>380.9</ele>
        <time>2014-06-08T08:55:39.000Z</time>
      </trkpt>
      <trkpt lat="47.52753" lon="6.76896">
        <ele>379.7</ele>
        <time>2014-06-08T08:55:42.000Z</time>
      </trkpt>
      <trkpt lat="47.52754" lon="6.76902">
        <ele>380.3</ele>
        <time>2014-06-08T08:55:44.000Z</time>
      </trkpt>
      <trkpt lat="47.52754" lon="6.76904">
        <ele>381.1</ele>
        <time>2014-06-08T08:55:45.000Z</time>
      </trkpt>
      <trkpt lat="47.52752" lon="6.76909">
        <ele>386.1</ele>
        <time>2014-06-08T08:55:47.000Z</time>
      </trkpt>
      <trkpt lat="47.5275" lon="6.76911">
        <ele>386.3</ele>
        <time>2014-06-08T08:55:48.000Z</time>
      </trkpt>
      <trkpt lat="47.5275" lon="6.76915">
        <ele>390</ele>
        <time>2014-06-08T08:55:50.000Z</time>
      </trkpt>
      <trkpt lat="47.5275" lon="6.76918">
        <ele>391</ele>
        <time>2014-06-08T08:55:51.000Z</time>
      </trkpt>
      <trkpt lat="47.52751" lon="6.76923">
        <ele>392.1</ele>
        <time>2014-06-08T08:55:53.000Z</time>
      </trkpt>
      <trkpt lat="47.52752" lon="6.76926">
        <ele>390.5</ele>
        <time>2014-06-08T08:55:54.000Z</time>
      </trkpt>
      <trkpt lat="47.52752" lon="6.7693">
        <ele>391</ele>
        <time>2014-06-08T08:55:55.000Z</time>
      </trkpt>
      <trkpt lat="47.52752" lon="6.76934">
        <ele>391.7</ele>
        <time>2014-06-08T08:55:56.000Z</time>
      </trkpt>
      <trkpt lat="47.52753" lon="6.7694">
        <ele>392.5</ele>
        <time>2014-06-08T08:55:58.000Z</time>
      </trkpt>
      <trkpt lat="47.52753" lon="6.76942">
        <ele>392.5</ele>
        <time>2014-06-08T08:55:59.000Z</time>
      </trkpt>
      <trkpt lat="47.52754" lon="6.76947">
        <ele>392.8</ele>
        <time>2014-06-08T08:56:01.000Z</time>
      </trkpt>
      <trkpt lat="47.52755" lon="6.7695">
        <ele>393.3</ele>
        <time>2014-06-08T08:56:02.000Z</time>
      </trkpt>
      <trkpt lat="47.52755" lon="6.76954">
        <ele>394</ele>
        <time>2014-06-08T08:56:03.000Z</time>
      </trkpt>
      <trkpt lat="47.52756" lon="6.76958">
        <ele>394.6</ele>
        <time>2014-06-08T08:56:04.000Z</time>
      </trkpt>
      <trkpt lat="47.52756" lon="6.76962">
        <ele>395.3</ele>
        <time>2014-06-08T08:56:05.000Z</time>
      </trkpt>
      <trkpt lat="47.52757" lon="6.76967">
        <ele>396.3</ele>
        <time>2014-06-08T08:56:06.000Z</time>
      </trkpt>
      <trkpt lat="47.52758" lon="6.76971">
        <ele>394.3</ele>
        <time>2014-06-08T08:56:07.000Z</time>
      </trkpt>
      <trkpt lat="47.52759" lon="6.76976">
        <ele>392.4</ele>
        <time>2014-06-08T08:56:08.000Z</time>
      </trkpt>
      <trkpt lat="47.5276" lon="6.76981">
        <ele>392</ele>
        <time>2014-06-08T08:56:09.000Z</time>
      </trkpt>
      <trkpt lat="47.52761" lon="6.76986">
        <ele>391.8</ele>
        <time>2014-06-08T08:56:10.000Z</time>
      </trkpt>
      <trkpt lat="47.52762" lon="6.76991">
        <ele>392.6</ele>
        <time>2014-06-08T08:56:12.000Z</time>
      </trkpt>
      <trkpt lat="47.52763" lon="6.76993">
        <ele>392.9</ele>
        <time>2014-06-08T08:56:13.000Z</time>
      </trkpt>
      <trkpt lat="47.52766" lon="6.76994">
        <ele>395.6</ele>
        <time>2014-06-08T08:56:39.000Z</time>
      </trkpt>
      <trkpt lat="47.52768" lon="6.76998">
        <ele>395.8</ele>
        <time>2014-06-08T08:56:42.000Z</time>
      </trkpt>
      <trkpt lat="47.52771" lon="6.77001">
        <ele>399.2</ele>
        <time>2014-06-08T08:56:44.000Z</time>
      </trkpt>
      <trkpt lat="47.52773" lon="6.77002">
        <ele>399.9</ele>
        <time>2014-06-08T08:56:45.000Z</time>
      </trkpt>
      <trkpt lat="47.52776" lon="6.77004">
        <ele>400.6</ele>
        <time>2014-06-08T08:56:46.000Z</time>
      </trkpt>
      <trkpt lat="47.5278" lon="6.77005">
        <ele>400.9</ele>
        <time>2014-06-08T08:56:47.000Z</time>
      </trkpt>
      <trkpt lat="47.52784" lon="6.77006">
        <ele>400.8</ele>
        <time>2014-06-08T08:56:48.000Z</time>
      </trkpt>
      <trkpt lat="47.52794" lon="6.77005">
        <ele>398</ele>
        <time>2014-06-08T08:56:49.000Z</time>
      </trkpt>
      <trkpt lat="47.528" lon="6.77002">
        <ele>397.6</ele>
        <time>2014-06-08T08:56:50.000Z</time>
      </trkpt>
      <trkpt lat="47.52807" lon="6.77002">
        <ele>395.3</ele>
        <time>2014-06-08T08:56:51.000Z</time>
      </trkpt>
      <trkpt lat="47.52814" lon="6.77003">
        <ele>394</ele>
        <time>2014-06-08T08:56:52.000Z</time>
      </trkpt>
      <trkpt lat="47.52821" lon="6.77002">
        <ele>392.8</ele>
        <time>2014-06-08T08:56:53.000Z</time>
      </trkpt>
      <trkpt lat="47.52831" lon="6.77007">
        <ele>391.1</ele>
        <time>2014-06-08T08:56:54.000Z</time>
      </trkpt>
      <trkpt lat="47.52839" lon="6.7701">
        <ele>390.5</ele>
        <time>2014-06-08T08:56:55.000Z</time>
      </trkpt>
      <trkpt lat="47.52843" lon="6.77018">
        <ele>393</ele>
        <time>2014-06-08T08:56:56.000Z</time>
      </trkpt>
      <trkpt lat="47.52847" lon="6.77027">
        <ele>392.7</ele>
        <time>2014-06-08T08:56:57.000Z</time>
      </trkpt>
      <trkpt lat="47.52851" lon="6.77035">
        <ele>392.4</ele>
        <time>2014-06-08T08:56:58.000Z</time>
      </trkpt>
      <trkpt lat="47.52852" lon="6.7704">
        <ele>392.2</ele>
        <time>2014-06-08T08:57:00.000Z</time>
      </trkpt>
      <trkpt lat="47.52852" lon="6.77042">
        <ele>393.3</ele>
        <time>2014-06-08T08:57:01.000Z</time>
      </trkpt>
      <trkpt lat="47.52856" lon="6.77044">
        <ele>391.8</ele>
        <time>2014-06-08T08:57:23.000Z</time>
      </trkpt>
      <trkpt lat="47.52856" lon="6.77045">
        <ele>392</ele>
        <time>2014-06-08T08:57:24.000Z</time>
      </trkpt>
      <trkpt lat="47.5286" lon="6.77042">
        <ele>391.4</ele>
        <time>2014-06-08T08:57:32.000Z</time>
      </trkpt>
      <trkpt lat="47.5286" lon="6.7704">
        <ele>392.1</ele>
        <time>2014-06-08T08:57:33.000Z</time>
      </trkpt>
      <trkpt lat="47.52862" lon="6.77036">
        <ele>390.3</ele>
        <time>2014-06-08T08:57:36.000Z</time>
      </trkpt>
      <trkpt lat="47.52863" lon="6.77035">
        <ele>389.6</ele>
        <time>2014-06-08T08:57:37.000Z</time>
      </trkpt>
      <trkpt lat="47.52864" lon="6.77031">
        <ele>388.3</ele>
        <time>2014-06-08T08:57:39.000Z</time>
      </trkpt>
      <trkpt lat="47.52865" lon="6.77026">
        <ele>386.5</ele>
        <time>2014-06-08T08:57:42.000Z</time>
      </trkpt>
      <trkpt lat="47.52865" lon="6.7702">
        <ele>386.6</ele>
        <time>2014-06-08T08:57:45.000Z</time>
      </trkpt>
      <trkpt lat="47.52865" lon="6.77018">
        <ele>385.1</ele>
        <time>2014-06-08T08:57:46.000Z</time>
      </trkpt>
      <trkpt lat="47.52865" lon="6.77014">
        <ele>386</ele>
        <time>2014-06-08T08:57:47.000Z</time>
      </trkpt>
      <trkpt lat="47.52866" lon="6.7701">
        <ele>386</ele>
        <time>2014-06-08T08:57:48.000Z</time>
      </trkpt>
      <trkpt lat="47.52866" lon="6.77005">
        <ele>384.4</ele>
        <time>2014-06-08T08:57:49.000Z</time>
      </trkpt>
      <trkpt lat="47.52867" lon="6.76999">
        <ele>383.5</ele>
        <time>2014-06-08T08:57:50.000Z</time>
      </trkpt>
      <trkpt lat="47.52868" lon="6.76993">
        <ele>382.3</ele>
        <time>2014-06-08T08:57:51.000Z</time>
      </trkpt>
      <trkpt lat="47.52869" lon="6.76987">
        <ele>382.2</ele>
        <time>2014-06-08T08:57:52.000Z</time>
      </trkpt>
      <trkpt lat="47.52869" lon="6.76982">
        <ele>381.5</ele>
        <time>2014-06-08T08:57:53.000Z</time>
      </trkpt>
      <trkpt lat="47.5287" lon="6.76976">
        <ele>382.3</ele>
        <time>2014-06-08T08:57:54.000Z</time>
      </trkpt>
      <trkpt lat="47.5287" lon="6.76971">
        <ele>381.8</ele>
        <time>2014-06-08T08:57:55.000Z</time>
      </trkpt>
      <trkpt lat="47.5287" lon="6.76966">
        <ele>381.5</ele>
        <time>2014-06-08T08:57:56.000Z</time>
      </trkpt>
      <trkpt lat="47.52871" lon="6.7696">
        <ele>379.8</ele>
        <time>2014-06-08T08:57:57.000Z</time>
      </trkpt>
      <trkpt lat="47.52871" lon="6.76955">
        <ele>379</ele>
        <time>2014-06-08T08:57:58.000Z</time>
      </trkpt>
      <trkpt lat="47.52872" lon="6.7695">
        <ele>379.2</ele>
        <time>2014-06-08T08:57:59.000Z</time>
      </trkpt>
      <trkpt lat="47.52873" lon="6.76946">
        <ele>379.1</ele>
        <time>2014-06-08T08:58:00.000Z</time>
      </trkpt>
      <trkpt lat="47.52873" lon="6.76941">
        <ele>379.1</ele>
        <time>2014-06-08T08:58:01.000Z</time>
      </trkpt>
      <trkpt lat="47.52874" lon="6.76936">
        <ele>379.4</ele>
        <time>2014-06-08T08:58:02.000Z</time>
      </trkpt>
      <trkpt lat="47.52875" lon="6.76931">
        <ele>379.4</ele>
        <time>2014-06-08T08:58:03.000Z</time>
      </trkpt>
      <trkpt lat="47.52876" lon="6.76927">
        <ele>379.8</ele>
        <time>2014-06-08T08:58:04.000Z</time>
      </trkpt>
      <trkpt lat="47.52876" lon="6.76922">
        <ele>379.3</ele>
        <time>2014-06-08T08:58:05.000Z</time>
      </trkpt>
      <trkpt lat="47.52877" lon="6.76918">
        <ele>379</ele>
        <time>2014-06-08T08:58:06.000Z</time>
      </trkpt>
      <trkpt lat="47.52878" lon="6.76914">
        <ele>378.2</ele>
        <time>2014-06-08T08:58:07.000Z</time>
      </trkpt>
      <trkpt lat="47.52878" lon="6.76909">
        <ele>377.9</ele>
        <time>2014-06-08T08:58:08.000Z</time>
      </trkpt>
      <trkpt lat="47.52879" lon="6.76905">
        <ele>377.5</ele>
        <time>2014-06-08T08:58:08.999Z</time>
      </trkpt>
      <trkpt lat="47.5288" lon="6.769">
        <ele>377.9</ele>
        <time>2014-06-08T08:58:10.000Z</time>
      </trkpt>
      <trkpt lat="47.5288" lon="6.76896">
        <ele>377.6</ele>
        <time>2014-06-08T08:58:11.000Z</time>
      </trkpt>
      <trkpt lat="47.52881" lon="6.76892">
        <ele>377.9</ele>
        <time>2014-06-08T08:58:12.000Z</time>
      </trkpt>
      <trkpt lat="47.52882" lon="6.76888">
        <ele>380.1</ele>
        <time>2014-06-08T08:58:13.000Z</time>
      </trkpt>
      <trkpt lat="47.52883" lon="6.76884">
        <ele>380.6</ele>
        <time>2014-06-08T08:58:14.000Z</time>
      </trkpt>
      <trkpt lat="47.52883" lon="6.7688">
        <ele>381.2</ele>
        <time>2014-06-08T08:58:15.000Z</time>
      </trkpt>
      <trkpt lat="47.52884" lon="6.76875">
        <ele>381.5</ele>
        <time>2014-06-08T08:58:16.000Z</time>
      </trkpt>
      <trkpt lat="47.52886" lon="6.76869">
        <ele>381.2</ele>
        <time>2014-06-08T08:58:17.000Z</time>
      </trkpt>
      <trkpt lat="47.52887" lon="6.76863">
        <ele>381.4</ele>
        <time>2014-06-08T08:58:18.000Z</time>
      </trkpt>
      <trkpt lat="47.52889" lon="6.76857">
        <ele>381.3</ele>
        <time>2014-06-08T08:58:19.000Z</time>
      </trkpt>
      <trkpt lat="47.52891" lon="6.76851">
        <ele>382.7</ele>
        <time>2014-06-08T08:58:20.000Z</time>
      </trkpt>
      <trkpt lat="47.52894" lon="6.76845">
        <ele>382.7</ele>
        <time>2014-06-08T08:58:21.000Z</time>
      </trkpt>
      <trkpt lat="47.52898" lon="6.76841">
        <ele>382.9</ele>
        <time>2014-06-08T08:58:22.000Z</time>
      </trkpt>
      <trkpt lat="47.52901" lon="6.76837">
        <ele>386.9</ele>
        <time>2014-06-08T08:58:23.000Z</time>
      </trkpt>
      <trkpt lat="47.52905" lon="6.76835">
        <ele>387.6</ele>
        <time>2014-06-08T08:58:24.000Z</time>
      </trkpt>
      <trkpt lat="47.52908" lon="6.76833">
        <ele>387.8</ele>
        <time>2014-06-08T08:58:25.000Z</time>
      </trkpt>
      <trkpt lat="47.5291" lon="6.76832">
        <ele>387.5</ele>
        <time>2014-06-08T08:58:26.000Z</time>
      </trkpt>
      <trkpt lat="47.52913" lon="6.76829">
        <ele>386.3</ele>
        <time>2014-06-08T08:58:30.000Z</time>
      </trkpt>
      <trkpt lat="47.52914" lon="6.76827">
        <ele>385.7</ele>
        <time>2014-06-08T08:58:31.000Z</time>
      </trkpt>
      <trkpt lat="47.52917" lon="6.76825">
        <ele>383.4</ele>
        <time>2014-06-08T08:58:43.000Z</time>
      </trkpt>
      <trkpt lat="47.52918" lon="6.76822">
        <ele>389</ele>
        <time>2014-06-08T08:58:44.000Z</time>
      </trkpt>
      <trkpt lat="47.52921" lon="6.76817">
        <ele>391.7</ele>
        <time>2014-06-08T08:58:47.000Z</time>
      </trkpt>
      <trkpt lat="47.52922" lon="6.76817">
        <ele>391</ele>
        <time>2014-06-08T08:58:48.000Z</time>
      </trkpt>
      <trkpt lat="47.52925" lon="6.76814">
        <ele>395.4</ele>
        <time>2014-06-08T08:58:50.000Z</time>
      </trkpt>
      <trkpt lat="47.52926" lon="6.76813">
        <ele>396.8</ele>
        <time>2014-06-08T08:58:51.000Z</time>
      </trkpt>
      <trkpt lat="47.52929" lon="6.76809">
        <ele>393.3</ele>
        <time>2014-06-08T08:58:53.000Z</time>
      </trkpt>
      <trkpt lat="47.52931" lon="6.76808">
        <ele>392.9</ele>
        <time>2014-06-08T08:58:54.000Z</time>
      </trkpt>
      <trkpt lat="47.52933" lon="6.76806">
        <ele>393.1</ele>
        <time>2014-06-08T08:58:56.000Z</time>
      </trkpt>
      <trkpt lat="47.52935" lon="6.76804">
        <ele>395.4</ele>
        <time>2014-06-08T08:58:57.000Z</time>
      </trkpt>
      <trkpt lat="47.52936" lon="6.76801">
        <ele>396</ele>
        <time>2014-06-08T08:58:58.000Z</time>
      </trkpt>
      <trkpt lat="47.52937" lon="6.76798">
        <ele>397.8</ele>
        <time>2014-06-08T08:58:59.000Z</time>
      </trkpt>
      <trkpt lat="47.52939" lon="6.76795">
        <ele>397.1</ele>
        <time>2014-06-08T08:59:00.000Z</time>
      </trkpt>
      <trkpt lat="47.52941" lon="6.76792">
        <ele>397.9</ele>
        <time>2014-06-08T08:59:01.000Z</time>
      </trkpt>
      <trkpt lat="47.52943" lon="6.7679">
        <ele>399.3</ele>
        <time>2014-06-08T08:59:02.000Z</time>
      </trkpt>
      <trkpt lat="47.52945" lon="6.76787">
        <ele>403.2</ele>
        <time>2014-06-08T08:59:03.000Z</time>
      </trkpt>
      <trkpt lat="47.52947" lon="6.76782">
        <ele>404.1</ele>
        <time>2014-06-08T08:59:05.000Z</time>
      </trkpt>
      <trkpt lat="47.52949" lon="6.7678">
        <ele>402.2</ele>
        <time>2014-06-08T08:59:06.000Z</time>
      </trkpt>
      <trkpt lat="47.52953" lon="6.76778">
        <ele>401.6</ele>
        <time>2014-06-08T08:59:08.000Z</time>
      </trkpt>
      <trkpt lat="47.52955" lon="6.76778">
        <ele>400.6</ele>
        <time>2014-06-08T08:59:09.000Z</time>
      </trkpt>
      <trkpt lat="47.52958" lon="6.76777">
        <ele>399.8</ele>
        <time>2014-06-08T08:59:10.000Z</time>
      </trkpt>
      <trkpt lat="47.5296" lon="6.76777">
        <ele>399.3</ele>
        <time>2014-06-08T08:59:11.000Z</time>
      </trkpt>
      <trkpt lat="47.52962" lon="6.76776">
        <ele>398.8</ele>
        <time>2014-06-08T08:59:12.000Z</time>
      </trkpt>
      <trkpt lat="47.52964" lon="6.76774">
        <ele>401.5</ele>
        <time>2014-06-08T08:59:13.000Z</time>
      </trkpt>
      <trkpt lat="47.52968" lon="6.76771">
        <ele>404.4</ele>
        <time>2014-06-08T08:59:15.000Z</time>
      </trkpt>
      <trkpt lat="47.5297" lon="6.76769">
        <ele>405.5</ele>
        <time>2014-06-08T08:59:16.000Z</time>
      </trkpt>
      <trkpt lat="47.52972" lon="6.76767">
        <ele>406.8</ele>
        <time>2014-06-08T08:59:17.000Z</time>
      </trkpt>
      <trkpt lat="47.52974" lon="6.76766">
        <ele>407</ele>
        <time>2014-06-08T08:59:18.000Z</time>
      </trkpt>
      <trkpt lat="47.52977" lon="6.76765">
        <ele>407</ele>
        <time>2014-06-08T08:59:19.000Z</time>
      </trkpt>
      <trkpt lat="47.52979" lon="6.76763">
        <ele>406.2</ele>
        <time>2014-06-08T08:59:20.000Z</time>
      </trkpt>
      <trkpt lat="47.52982" lon="6.76762">
        <ele>405.3</ele>
        <time>2014-06-08T08:59:21.000Z</time>
      </trkpt>
      <trkpt lat="47.52984" lon="6.76761">
        <ele>405.3</ele>
        <time>2014-06-08T08:59:21.999Z</time>
      </trkpt>
      <trkpt lat="47.52988" lon="6.76759">
        <ele>403.4</ele>
        <time>2014-06-08T08:59:23.000Z</time>
      </trkpt>
      <trkpt lat="47.52991" lon="6.76757">
        <ele>402.1</ele>
        <time>2014-06-08T08:59:24.000Z</time>
      </trkpt>
      <trkpt lat="47.52994" lon="6.76755">
        <ele>401.1</ele>
        <time>2014-06-08T08:59:25.000Z</time>
      </trkpt>
      <trkpt lat="47.52998" lon="6.76753">
        <ele>399.5</ele>
        <time>2014-06-08T08:59:26.000Z</time>
      </trkpt>
      <trkpt lat="47.53" lon="6.7675">
        <ele>399.5</ele>
        <time>2014-06-08T08:59:27.000Z</time>
      </trkpt>
      <trkpt lat="47.53002" lon="6.76748">
        <ele>399.8</ele>
        <time>2014-06-08T08:59:27.999Z</time>
      </trkpt>
      <trkpt lat="47.53004" lon="6.76744">
        <ele>398</ele>
        <time>2014-06-08T08:59:29.000Z</time>
      </trkpt>
      <trkpt lat="47.53006" lon="6.76741">
        <ele>396.2</ele>
        <time>2014-06-08T08:59:30.000Z</time>
      </trkpt>
      <trkpt lat="47.53009" lon="6.76739">
        <ele>398</ele>
        <time>2014-06-08T08:59:31.000Z</time>
      </trkpt>
      <trkpt lat="47.53011" lon="6.76737">
        <ele>397.3</ele>
        <time>2014-06-08T08:59:32.000Z</time>
      </trkpt>
      <trkpt lat="47.53014" lon="6.76735">
        <ele>397.1</ele>
        <time>2014-06-08T08:59:33.000Z</time>
      </trkpt>
      <trkpt lat="47.53017" lon="6.76733">
        <ele>397.7</ele>
        <time>2014-06-08T08:59:34.000Z</time>
      </trkpt>
      <trkpt lat="47.5302" lon="6.76732">
        <ele>397</ele>
        <time>2014-06-08T08:59:35.000Z</time>
      </trkpt>
      <trkpt lat="47.53023" lon="6.7673">
        <ele>397.6</ele>
        <time>2014-06-08T08:59:36.000Z</time>
      </trkpt>
      <trkpt lat="47.53025" lon="6.76728">
        <ele>397.3</ele>
        <time>2014-06-08T08:59:37.000Z</time>
      </trkpt>
      <trkpt lat="47.53028" lon="6.76726">
        <ele>397.3</ele>
        <time>2014-06-08T08:59:38.000Z</time>
      </trkpt>
      <trkpt lat="47.53031" lon="6.76722">
        <ele>395.2</ele>
        <time>2014-06-08T08:59:39.000Z</time>
      </trkpt>
      <trkpt lat="47.53041" lon="6.76713">
        <ele>392.9</ele>
        <time>2014-06-08T08:59:42.000Z</time>
      </trkpt>
      <trkpt lat="47.53045" lon="6.7671">
        <ele>392.8</ele>
        <time>2014-06-08T08:59:43.000Z</time>
      </trkpt>
      <trkpt lat="47.53049" lon="6.76706">
        <ele>392.4</ele>
        <time>2014-06-08T08:59:44.000Z</time>
      </trkpt>
      <trkpt lat="47.53052" lon="6.76702">
        <ele>392.2</ele>
        <time>2014-06-08T08:59:45.000Z</time>
      </trkpt>
      <trkpt lat="47.53055" lon="6.76698">
        <ele>394</ele>
        <time>2014-06-08T08:59:46.000Z</time>
      </trkpt>
      <trkpt lat="47.53059" lon="6.76693">
        <ele>393.5</ele>
        <time>2014-06-08T08:59:47.000Z</time>
      </trkpt>
      <trkpt lat="47.53063" lon="6.76689">
        <ele>393.5</ele>
        <time>2014-06-08T08:59:48.000Z</time>
      </trkpt>
      <trkpt lat="47.53067" lon="6.76684">
        <ele>393.9</ele>
        <time>2014-06-08T08:59:49.000Z</time>
      </trkpt>
      <trkpt lat="47.5307" lon="6.7668">
        <ele>400.4</ele>
        <time>2014-06-08T08:59:50.000Z</time>
      </trkpt>
      <trkpt lat="47.53073" lon="6.76676">
        <ele>402.7</ele>
        <time>2014-06-08T08:59:51.000Z</time>
      </trkpt>
      <trkpt lat="47.53076" lon="6.76673">
        <ele>403.4</ele>
        <time>2014-06-08T08:59:52.000Z</time>
      </trkpt>
      <trkpt lat="47.53079" lon="6.76671">
        <ele>403.2</ele>
        <time>2014-06-08T08:59:53.000Z</time>
      </trkpt>
      <trkpt lat="47.53082" lon="6.76668">
        <ele>399.8</ele>
        <time>2014-06-08T08:59:54.000Z</time>
      </trkpt>
      <trkpt lat="47.53086" lon="6.76665">
        <ele>399.1</ele>
        <time>2014-06-08T08:59:55.000Z</time>
      </trkpt>
      <trkpt lat="47.53089" lon="6.76661">
        <ele>398.8</ele>
        <time>2014-06-08T08:59:56.000Z</time>
      </trkpt>
      <trkpt lat="47.53091" lon="6.76658">
        <ele>397</ele>
        <time>2014-06-08T08:59:57.000Z</time>
      </trkpt>
      <trkpt lat="47.53094" lon="6.76655">
        <ele>398.6</ele>
        <time>2014-06-08T08:59:58.000Z</time>
      </trkpt>
      <trkpt lat="47.53096" lon="6.76651">
        <ele>398.6</ele>
        <time>2014-06-08T08:59:59.000Z</time>
      </trkpt>
      <trkpt lat="47.53099" lon="6.76649">
        <ele>397.4</ele>
        <time>2014-06-08T09:00:00.000Z</time>
      </trkpt>
      <trkpt lat="47.53103" lon="6.76647">
        <ele>397.3</ele>
        <time>2014-06-08T09:00:01.000Z</time>
      </trkpt>
      <trkpt lat="47.53107" lon="6.76646">
        <ele>398.6</ele>
        <time>2014-06-08T09:00:02.000Z</time>
      </trkpt>
      <trkpt lat="47.53111" lon="6.76646">
        <ele>400.3</ele>
        <time>2014-06-08T09:00:03.000Z</time>
      </trkpt>
      <trkpt lat="47.53115" lon="6.76647">
        <ele>401.7</ele>
        <time>2014-06-08T09:00:04.000Z</time>
      </trkpt>
      <trkpt lat="47.53118" lon="6.76647">
        <ele>403</ele>
        <time>2014-06-08T09:00:05.000Z</time>
      </trkpt>
      <trkpt lat="47.53121" lon="6.76648">
        <ele>403.6</ele>
        <time>2014-06-08T09:00:06.000Z</time>
      </trkpt>
      <trkpt lat="47.53125" lon="6.7665">
        <ele>405.1</ele>
        <time>2014-06-08T09:00:07.000Z</time>
      </trkpt>
      <trkpt lat="47.53129" lon="6.76652">
        <ele>405.3</ele>
        <time>2014-06-08T09:00:08.000Z</time>
      </trkpt>
      <trkpt lat="47.53133" lon="6.76654">
        <ele>404.9</ele>
        <time>2014-06-08T09:00:09.000Z</time>
      </trkpt>
      <trkpt lat="47.53138" lon="6.76657">
        <ele>404.6</ele>
        <time>2014-06-08T09:00:10.000Z</time>
      </trkpt>
      <trkpt lat="47.53142" lon="6.7666">
        <ele>404.8</ele>
        <time>2014-06-08T09:00:11.000Z</time>
      </trkpt>
      <trkpt lat="47.53147" lon="6.76664">
        <ele>403</ele>
        <time>2014-06-08T09:00:12.000Z</time>
      </trkpt>
      <trkpt lat="47.53151" lon="6.76667">
        <ele>402.5</ele>
        <time>2014-06-08T09:00:13.000Z</time>
      </trkpt>
      <trkpt lat="47.53155" lon="6.7667">
        <ele>403.7</ele>
        <time>2014-06-08T09:00:14.000Z</time>
      </trkpt>
      <trkpt lat="47.53159" lon="6.76673">
        <ele>403.5</ele>
        <time>2014-06-08T09:00:15.000Z</time>
      </trkpt>
      <trkpt lat="47.53163" lon="6.76676">
        <ele>403.3</ele>
        <time>2014-06-08T09:00:16.000Z</time>
      </trkpt>
      <trkpt lat="47.53167" lon="6.76678">
        <ele>404.9</ele>
        <time>2014-06-08T09:00:17.000Z</time>
      </trkpt>
      <trkpt lat="47.5317" lon="6.76681">
        <ele>405.4</ele>
        <time>2014-06-08T09:00:18.000Z</time>
      </trkpt>
      <trkpt lat="47.53173" lon="6.76682">
        <ele>405.6</ele>
        <time>2014-06-08T09:00:19.000Z</time>
      </trkpt>
      <trkpt lat="47.53176" lon="6.76684">
        <ele>405.5</ele>
        <time>2014-06-08T09:00:20.000Z</time>
      </trkpt>
      <trkpt lat="47.53179" lon="6.76685">
        <ele>405.5</ele>
        <time>2014-06-08T09:00:21.000Z</time>
      </trkpt>
      <trkpt lat="47.53182" lon="6.76686">
        <ele>405.7</ele>
        <time>2014-06-08T09:00:22.000Z</time>
      </trkpt>
      <trkpt lat="47.53185" lon="6.76688">
        <ele>405.4</ele>
        <time>2014-06-08T09:00:23.000Z</time>
      </trkpt>
      <trkpt lat="47.53188" lon="6.76689">
        <ele>405.5</ele>
        <time>2014-06-08T09:00:24.000Z</time>
      </trkpt>
      <trkpt lat="47.53191" lon="6.76691">
        <ele>403.6</ele>
        <time>2014-06-08T09:00:25.000Z</time>
      </trkpt>
      <trkpt lat="47.53194" lon="6.76694">
        <ele>403.6</ele>
        <time>2014-06-08T09:00:26.000Z</time>
      </trkpt>
      <trkpt lat="47.53197" lon="6.76696">
        <ele>402.7</ele>
        <time>2014-06-08T09:00:27.000Z</time>
      </trkpt>
      <trkpt lat="47.53201" lon="6.76699">
        <ele>402.8</ele>
        <time>2014-06-08T09:00:28.000Z</time>
      </trkpt>
      <trkpt lat="47.53204" lon="6.76701">
        <ele>402.7</ele>
        <time>2014-06-08T09:00:29.000Z</time>
      </trkpt>
      <trkpt lat="47.53208" lon="6.76704">
        <ele>401.3</ele>
        <time>2014-06-08T09:00:30.000Z</time>
      </trkpt>
      <trkpt lat="47.53211" lon="6.76706">
        <ele>401.6</ele>
        <time>2014-06-08T09:00:31.000Z</time>
      </trkpt>
      <trkpt lat="47.53214" lon="6.76708">
        <ele>401.7</ele>
        <time>2014-06-08T09:00:32.000Z</time>
      </trkpt>
      <trkpt lat="47.53217" lon="6.7671">
        <ele>401.9</ele>
        <time>2014-06-08T09:00:33.000Z</time>
      </trkpt>
      <trkpt lat="47.53221" lon="6.76712">
        <ele>401.7</ele>
        <time>2014-06-08T09:00:34.000Z</time>
      </trkpt>
      <trkpt lat="47.53225" lon="6.76715">
        <ele>402.2</ele>
        <time>2014-06-08T09:00:35.000Z</time>
      </trkpt>
      <trkpt lat="47.53229" lon="6.76718">
        <ele>404.4</ele>
        <time>2014-06-08T09:00:36.000Z</time>
      </trkpt>
      <trkpt lat="47.53233" lon="6.76721">
        <ele>405.6</ele>
        <time>2014-06-08T09:00:37.000Z</time>
      </trkpt>
      <trkpt lat="47.53237" lon="6.76724">
        <ele>407.3</ele>
        <time>2014-06-08T09:00:38.000Z</time>
      </trkpt>
      <trkpt lat="47.53242" lon="6.76726">
        <ele>406.8</ele>
        <time>2014-06-08T09:00:39.000Z</time>
      </trkpt>
      <trkpt lat="47.53251" lon="6.7673">
        <ele>407.2</ele>
        <time>2014-06-08T09:00:42.000Z</time>
      </trkpt>
      <trkpt lat="47.53256" lon="6.76732">
        <ele>408.2</ele>
        <time>2014-06-08T09:00:43.000Z</time>
      </trkpt>
      <trkpt lat="47.5326" lon="6.76736">
        <ele>406.2</ele>
        <time>2014-06-08T09:00:44.000Z</time>
      </trkpt>
      <trkpt lat="47.53264" lon="6.7674">
        <ele>404.6</ele>
        <time>2014-06-08T09:00:45.000Z</time>
      </trkpt>
      <trkpt lat="47.53268" lon="6.76744">
        <ele>403.6</ele>
        <time>2014-06-08T09:00:46.000Z</time>
      </trkpt>
      <trkpt lat="47.53272" lon="6.76747">
        <ele>405.7</ele>
        <time>2014-06-08T09:00:47.000Z</time>
      </trkpt>
      <trkpt lat="47.53277" lon="6.76751">
        <ele>406.3</ele>
        <time>2014-06-08T09:00:48.000Z</time>
      </trkpt>
      <trkpt lat="47.5328" lon="6.76754">
        <ele>406</ele>
        <time>2014-06-08T09:00:49.000Z</time>
      </trkpt>
      <trkpt lat="47.53284" lon="6.76756">
        <ele>406.7</ele>
        <time>2014-06-08T09:00:50.000Z</time>
      </trkpt>
      <trkpt lat="47.53287" lon="6.76759">
        <ele>406.7</ele>
        <time>2014-06-08T09:00:51.000Z</time>
      </trkpt>
      <trkpt lat="47.53291" lon="6.76762">
        <ele>408.6</ele>
        <time>2014-06-08T09:00:52.000Z</time>
      </trkpt>
      <trkpt lat="47.53294" lon="6.76765">
        <ele>410.4</ele>
        <time>2014-06-08T09:00:53.000Z</time>
      </trkpt>
      <trkpt lat="47.53296" lon="6.76769">
        <ele>412.4</ele>
        <time>2014-06-08T09:00:54.000Z</time>
      </trkpt>
      <trkpt lat="47.53299" lon="6.76772">
        <ele>412.5</ele>
        <time>2014-06-08T09:00:55.000Z</time>
      </trkpt>
      <trkpt lat="47.53306" lon="6.76782">
        <ele>418.1</ele>
        <time>2014-06-08T09:00:56.000Z</time>
      </trkpt>
      <trkpt lat="47.53308" lon="6.76786">
        <ele>417.1</ele>
        <time>2014-06-08T09:00:57.000Z</time>
      </trkpt>
      <trkpt lat="47.5331" lon="6.76788">
        <ele>417</ele>
        <time>2014-06-08T09:00:58.000Z</time>
      </trkpt>
      <trkpt lat="47.53313" lon="6.76791">
        <ele>420.5</ele>
        <time>2014-06-08T09:00:59.000Z</time>
      </trkpt>
      <trkpt lat="47.53316" lon="6.76794">
        <ele>421.1</ele>
        <time>2014-06-08T09:01:00.000Z</time>
      </trkpt>
      <trkpt lat="47.53318" lon="6.76797">
        <ele>420.9</ele>
        <time>2014-06-08T09:01:01.000Z</time>
      </trkpt>
      <trkpt lat="47.53321" lon="6.768">
        <ele>420.2</ele>
        <time>2014-06-08T09:01:02.000Z</time>
      </trkpt>
      <trkpt lat="47.53323" lon="6.76801">
        <ele>419.4</ele>
        <time>2014-06-08T09:01:03.000Z</time>
      </trkpt>
      <trkpt lat="47.53326" lon="6.76802">
        <ele>419.3</ele>
        <time>2014-06-08T09:01:04.000Z</time>
      </trkpt>
      <trkpt lat="47.53328" lon="6.76805">
        <ele>419.1</ele>
        <time>2014-06-08T09:01:05.000Z</time>
      </trkpt>
      <trkpt lat="47.53329" lon="6.76807">
        <ele>422.2</ele>
        <time>2014-06-08T09:01:06.000Z</time>
      </trkpt>
      <trkpt lat="47.53332" lon="6.76812">
        <ele>423.9</ele>
        <time>2014-06-08T09:01:09.000Z</time>
      </trkpt>
      <trkpt lat="47.53334" lon="6.76813">
        <ele>424.4</ele>
        <time>2014-06-08T09:01:10.000Z</time>
      </trkpt>
      <trkpt lat="47.53336" lon="6.76813">
        <ele>424.2</ele>
        <time>2014-06-08T09:01:11.000Z</time>
      </trkpt>
      <trkpt lat="47.53339" lon="6.76813">
        <ele>422.8</ele>
        <time>2014-06-08T09:01:12.000Z</time>
      </trkpt>
      <trkpt lat="47.53342" lon="6.76814">
        <ele>422</ele>
        <time>2014-06-08T09:01:13.000Z</time>
      </trkpt>
      <trkpt lat="47.53345" lon="6.76816">
        <ele>420.1</ele>
        <time>2014-06-08T09:01:14.000Z</time>
      </trkpt>
      <trkpt lat="47.53348" lon="6.76819">
        <ele>418.3</ele>
        <time>2014-06-08T09:01:15.000Z</time>
      </trkpt>
      <trkpt lat="47.53351" lon="6.76821">
        <ele>418.1</ele>
        <time>2014-06-08T09:01:16.000Z</time>
      </trkpt>
      <trkpt lat="47.53354" lon="6.76825">
        <ele>417.1</ele>
        <time>2014-06-08T09:01:17.000Z</time>
      </trkpt>
      <trkpt lat="47.53356" lon="6.76828">
        <ele>417.3</ele>
        <time>2014-06-08T09:01:18.000Z</time>
      </trkpt>
      <trkpt lat="47.53359" lon="6.76831">
        <ele>416.9</ele>
        <time>2014-06-08T09:01:19.000Z</time>
      </trkpt>
      <trkpt lat="47.53361" lon="6.76835">
        <ele>417</ele>
        <time>2014-06-08T09:01:20.000Z</time>
      </trkpt>
      <trkpt lat="47.53363" lon="6.76839">
        <ele>417.1</ele>
        <time>2014-06-08T09:01:21.000Z</time>
      </trkpt>
      <trkpt lat="47.53364" lon="6.76844">
        <ele>417.3</ele>
        <time>2014-06-08T09:01:22.000Z</time>
      </trkpt>
      <trkpt lat="47.53366" lon="6.7685">
        <ele>417</ele>
        <time>2014-06-08T09:01:23.000Z</time>
      </trkpt>
      <trkpt lat="47.53367" lon="6.76887">
        <ele>416.1</ele>
        <time>2014-06-08T09:01:24.000Z</time>
      </trkpt>
      <trkpt lat="47.53371" lon="6.76899">
        <ele>414.8</ele>
        <time>2014-06-08T09:01:25.000Z</time>
      </trkpt>
      <trkpt lat="47.53373" lon="6.76909">
        <ele>415.2</ele>
        <time>2014-06-08T09:01:26.000Z</time>
      </trkpt>
      <trkpt lat="47.53375" lon="6.76916">
        <ele>414</ele>
        <time>2014-06-08T09:01:27.000Z</time>
      </trkpt>
      <trkpt lat="47.53378" lon="6.76926">
        <ele>412.9</ele>
        <time>2014-06-08T09:01:28.000Z</time>
      </trkpt>
      <trkpt lat="47.53379" lon="6.76934">
        <ele>413.4</ele>
        <time>2014-06-08T09:01:29.000Z</time>
      </trkpt>
      <trkpt lat="47.53382" lon="6.76946">
        <ele>412.8</ele>
        <time>2014-06-08T09:01:30.000Z</time>
      </trkpt>
      <trkpt lat="47.53384" lon="6.76955">
        <ele>412.8</ele>
        <time>2014-06-08T09:01:31.000Z</time>
      </trkpt>
      <trkpt lat="47.53385" lon="6.76961">
        <ele>413.2</ele>
        <time>2014-06-08T09:01:32.000Z</time>
      </trkpt>
      <trkpt lat="47.53384" lon="6.7697">
        <ele>413.6</ele>
        <time>2014-06-08T09:01:33.000Z</time>
      </trkpt>
      <trkpt lat="47.53383" lon="6.76979">
        <ele>413.1</ele>
        <time>2014-06-08T09:01:34.000Z</time>
      </trkpt>
      <trkpt lat="47.53383" lon="6.76987">
        <ele>413.6</ele>
        <time>2014-06-08T09:01:35.000Z</time>
      </trkpt>
      <trkpt lat="47.53385" lon="6.76995">
        <ele>413.7</ele>
        <time>2014-06-08T09:01:36.000Z</time>
      </trkpt>
      <trkpt lat="47.53386" lon="6.77004">
        <ele>413.3</ele>
        <time>2014-06-08T09:01:37.000Z</time>
      </trkpt>
      <trkpt lat="47.53389" lon="6.77013">
        <ele>413.3</ele>
        <time>2014-06-08T09:01:38.000Z</time>
      </trkpt>
      <trkpt lat="47.5339" lon="6.77019">
        <ele>412.7</ele>
        <time>2014-06-08T09:01:39.000Z</time>
      </trkpt>
      <trkpt lat="47.53392" lon="6.77026">
        <ele>413.2</ele>
        <time>2014-06-08T09:01:40.000Z</time>
      </trkpt>
      <trkpt lat="47.53391" lon="6.77056">
        <ele>415.3</ele>
        <time>2014-06-08T09:01:44.000Z</time>
      </trkpt>
      <trkpt lat="47.53392" lon="6.77065">
        <ele>416.6</ele>
        <time>2014-06-08T09:01:45.000Z</time>
      </trkpt>
      <trkpt lat="47.53392" lon="6.77069">
        <ele>417.5</ele>
        <time>2014-06-08T09:01:46.027Z</time>
      </trkpt>
      <trkpt lat="47.53392" lon="6.77084">
        <ele>412.7</ele>
        <time>2014-06-08T09:01:47.000Z</time>
      </trkpt>
      <trkpt lat="47.53396" lon="6.77093">
        <ele>411.4</ele>
        <time>2014-06-08T09:01:48.000Z</time>
      </trkpt>
      <trkpt lat="47.53397" lon="6.77101">
        <ele>410.8</ele>
        <time>2014-06-08T09:01:49.000Z</time>
      </trkpt>
      <trkpt lat="47.53397" lon="6.77108">
        <ele>409</ele>
        <time>2014-06-08T09:01:50.000Z</time>
      </trkpt>
      <trkpt lat="47.53397" lon="6.77115">
        <ele>406.5</ele>
        <time>2014-06-08T09:01:51.000Z</time>
      </trkpt>
      <trkpt lat="47.53397" lon="6.77121">
        <ele>404.5</ele>
        <time>2014-06-08T09:01:52.000Z</time>
      </trkpt>
      <trkpt lat="47.53397" lon="6.77124">
        <ele>404.9</ele>
        <time>2014-06-08T09:01:53.024Z</time>
      </trkpt>
      <trkpt lat="47.53398" lon="6.77133">
        <ele>402.7</ele>
        <time>2014-06-08T09:01:54.000Z</time>
      </trkpt>
      <trkpt lat="47.53398" lon="6.77138">
        <ele>401.9</ele>
        <time>2014-06-08T09:01:55.000Z</time>
      </trkpt>
      <trkpt lat="47.53401" lon="6.77164">
        <ele>400.4</ele>
        <time>2014-06-08T09:01:56.000Z</time>
      </trkpt>
      <trkpt lat="47.53402" lon="6.77175">
        <ele>399.7</ele>
        <time>2014-06-08T09:01:57.000Z</time>
      </trkpt>
      <trkpt lat="47.53401" lon="6.77185">
        <ele>399.2</ele>
        <time>2014-06-08T09:01:58.000Z</time>
      </trkpt>
      <trkpt lat="47.53401" lon="6.77192">
        <ele>399.2</ele>
        <time>2014-06-08T09:01:58.999Z</time>
      </trkpt>
      <trkpt lat="47.53401" lon="6.772">
        <ele>399.3</ele>
        <time>2014-06-08T09:01:59.949Z</time>
      </trkpt>
      <trkpt lat="47.534" lon="6.77207">
        <ele>400.7</ele>
        <time>2014-06-08T09:02:00.947Z</time>
      </trkpt>
      <trkpt lat="47.534" lon="6.7721">
        <ele>399.7</ele>
        <time>2014-06-08T09:02:01.992Z</time>
      </trkpt>
      <trkpt lat="47.53399" lon="6.77214">
        <ele>397.2</ele>
        <time>2014-06-08T09:02:03.000Z</time>
      </trkpt>
      <trkpt lat="47.53395" lon="6.77214">
        <ele>390.5</ele>
        <time>2014-06-08T09:02:04.000Z</time>
      </trkpt>
      <trkpt lat="47.53392" lon="6.77213">
        <ele>384.5</ele>
        <time>2014-06-08T09:02:05.000Z</time>
      </trkpt>
      <trkpt lat="47.53395" lon="6.77212">
        <ele>378.3</ele>
        <time>2014-06-08T09:02:14.000Z</time>
      </trkpt>
      <trkpt lat="47.53397" lon="6.77212">
        <ele>378.1</ele>
        <time>2014-06-08T09:02:15.000Z</time>
      </trkpt>
      <trkpt lat="47.53401" lon="6.77213">
        <ele>377.9</ele>
        <time>2014-06-08T09:02:17.000Z</time>
      </trkpt>
      <trkpt lat="47.53403" lon="6.77213">
        <ele>378.3</ele>
        <time>2014-06-08T09:02:18.000Z</time>
      </trkpt>
      <trkpt lat="47.53408" lon="6.77215">
        <ele>378.6</ele>
        <time>2014-06-08T09:02:19.956Z</time>
      </trkpt>
      <trkpt lat="47.53409" lon="6.77214">
        <ele>383.3</ele>
        <time>2014-06-08T09:02:20.952Z</time>
      </trkpt>
      <trkpt lat="47.53413" lon="6.77216">
        <ele>381.8</ele>
        <time>2014-06-08T09:02:24.000Z</time>
      </trkpt>
      <trkpt lat="47.53414" lon="6.77216">
        <ele>381.9</ele>
        <time>2014-06-08T09:02:25.000Z</time>
      </trkpt>
      <trkpt lat="47.53416" lon="6.77218">
        <ele>384.6</ele>
        <time>2014-06-08T09:02:28.963Z</time>
      </trkpt>
      <trkpt lat="47.53418" lon="6.77219">
        <ele>385</ele>
        <time>2014-06-08T09:02:30.000Z</time>
      </trkpt>
      <trkpt lat="47.53422" lon="6.77221">
        <ele>386.4</ele>
        <time>2014-06-08T09:02:32.964Z</time>
      </trkpt>
      <trkpt lat="47.53424" lon="6.77221">
        <ele>386.7</ele>
        <time>2014-06-08T09:02:33.941Z</time>
      </trkpt>
      <trkpt lat="47.53427" lon="6.77223">
        <ele>386.9</ele>
        <time>2014-06-08T09:02:35.985Z</time>
      </trkpt>
      <trkpt lat="47.53428" lon="6.77224">
        <ele>385.2</ele>
        <time>2014-06-08T09:02:37.000Z</time>
      </trkpt>
      <trkpt lat="47.53431" lon="6.77225">
        <ele>384.9</ele>
        <time>2014-06-08T09:02:38.999Z</time>
      </trkpt>
      <trkpt lat="47.53436" lon="6.77231">
        <ele>383.1</ele>
        <time>2014-06-08T09:02:42.000Z</time>
      </trkpt>
      <trkpt lat="47.53439" lon="6.77234">
        <ele>384.8</ele>
        <time>2014-06-08T09:02:44.000Z</time>
      </trkpt>
      <trkpt lat="47.53441" lon="6.77235">
        <ele>384.5</ele>
        <time>2014-06-08T09:02:45.000Z</time>
      </trkpt>
      <trkpt lat="47.53445" lon="6.77237">
        <ele>383.3</ele>
        <time>2014-06-08T09:02:47.000Z</time>
      </trkpt>
      <trkpt lat="47.53446" lon="6.77237">
        <ele>383.8</ele>
        <time>2014-06-08T09:02:48.000Z</time>
      </trkpt>
      <trkpt lat="47.53449" lon="6.77238">
        <ele>382.8</ele>
        <time>2014-06-08T09:02:50.000Z</time>
      </trkpt>
      <trkpt lat="47.53451" lon="6.77239">
        <ele>381.4</ele>
        <time>2014-06-08T09:02:51.000Z</time>
      </trkpt>
      <trkpt lat="47.53453" lon="6.77242">
        <ele>379.6</ele>
        <time>2014-06-08T09:02:52.999Z</time>
      </trkpt>
      <trkpt lat="47.53456" lon="6.77247">
        <ele>382.1</ele>
        <time>2014-06-08T09:02:54.000Z</time>
      </trkpt>
      <trkpt lat="47.53457" lon="6.7725">
        <ele>383.1</ele>
        <time>2014-06-08T09:02:55.000Z</time>
      </trkpt>
      <trkpt lat="47.53459" lon="6.77252">
        <ele>382.8</ele>
        <time>2014-06-08T09:02:56.000Z</time>
      </trkpt>
      <trkpt lat="47.53461" lon="6.77256">
        <ele>383.3</ele>
        <time>2014-06-08T09:02:58.001Z</time>
      </trkpt>
      <trkpt lat="47.53464" lon="6.77257">
        <ele>382.7</ele>
        <time>2014-06-08T09:02:59.000Z</time>
      </trkpt>
      <trkpt lat="47.53467" lon="6.77259">
        <ele>383.8</ele>
        <time>2014-06-08T09:03:01.000Z</time>
      </trkpt>
      <trkpt lat="47.53469" lon="6.77259">
        <ele>383.9</ele>
        <time>2014-06-08T09:03:02.000Z</time>
      </trkpt>
      <trkpt lat="47.53472" lon="6.7726">
        <ele>383.6</ele>
        <time>2014-06-08T09:03:04.000Z</time>
      </trkpt>
      <trkpt lat="47.53474" lon="6.77261">
        <ele>384.3</ele>
        <time>2014-06-08T09:03:05.000Z</time>
      </trkpt>
      <trkpt lat="47.53478" lon="6.77264">
        <ele>384.7</ele>
        <time>2014-06-08T09:03:08.000Z</time>
      </trkpt>
      <trkpt lat="47.53479" lon="6.77264">
        <ele>384.7</ele>
        <time>2014-06-08T09:03:09.000Z</time>
      </trkpt>
      <trkpt lat="47.53484" lon="6.77264">
        <ele>385</ele>
        <time>2014-06-08T09:03:12.000Z</time>
      </trkpt>
      <trkpt lat="47.53485" lon="6.77264">
        <ele>385.1</ele>
        <time>2014-06-08T09:03:13.000Z</time>
      </trkpt>
      <trkpt lat="47.53489" lon="6.77262">
        <ele>387.8</ele>
        <time>2014-06-08T09:03:16.000Z</time>
      </trkpt>
      <trkpt lat="47.5349" lon="6.77262">
        <ele>388.8</ele>
        <time>2014-06-08T09:03:17.000Z</time>
      </trkpt>
      <trkpt lat="47.53493" lon="6.77262">
        <ele>388.4</ele>
        <time>2014-06-08T09:03:19.000Z</time>
      </trkpt>
      <trkpt lat="47.53495" lon="6.77262">
        <ele>388.4</ele>
        <time>2014-06-08T09:03:20.000Z</time>
      </trkpt>
      <trkpt lat="47.53499" lon="6.77263">
        <ele>390.9</ele>
        <time>2014-06-08T09:03:22.000Z</time>
      </trkpt>
      <trkpt lat="47.535" lon="6.77262">
        <ele>391.8</ele>
        <time>2014-06-08T09:03:23.000Z</time>
      </trkpt>
      <trkpt lat="47.53504" lon="6.7726">
        <ele>394.3</ele>
        <time>2014-06-08T09:03:32.000Z</time>
      </trkpt>
      <trkpt lat="47.53505" lon="6.7726">
        <ele>394</ele>
        <time>2014-06-08T09:03:33.000Z</time>
      </trkpt>
      <trkpt lat="47.53509" lon="6.77259">
        <ele>401.2</ele>
        <time>2014-06-08T09:03:43.000Z</time>
      </trkpt>
      <trkpt lat="47.5351" lon="6.77259">
        <ele>400.6</ele>
        <time>2014-06-08T09:03:44.000Z</time>
      </trkpt>
      <trkpt lat="47.53514" lon="6.7726">
        <ele>400.8</ele>
        <time>2014-06-08T09:03:47.000Z</time>
      </trkpt>
      <trkpt lat="47.53516" lon="6.77261">
        <ele>401.6</ele>
        <time>2014-06-08T09:03:48.000Z</time>
      </trkpt>
      <trkpt lat="47.53519" lon="6.77262">
        <ele>400.7</ele>
        <time>2014-06-08T09:03:50.000Z</time>
      </trkpt>
      <trkpt lat="47.53521" lon="6.77262">
        <ele>400.2</ele>
        <time>2014-06-08T09:03:51.000Z</time>
      </trkpt>
      <trkpt lat="47.53524" lon="6.77262">
        <ele>400.6</ele>
        <time>2014-06-08T09:03:53.000Z</time>
      </trkpt>
      <trkpt lat="47.53526" lon="6.77262">
        <ele>400.7</ele>
        <time>2014-06-08T09:03:54.000Z</time>
      </trkpt>
      <trkpt lat="47.53529" lon="6.77261">
        <ele>406.8</ele>
        <time>2014-06-08T09:03:57.000Z</time>
      </trkpt>
      <trkpt lat="47.53531" lon="6.77261">
        <ele>403.2</ele>
        <time>2014-06-08T09:03:58.000Z</time>
      </trkpt>
      <trkpt lat="47.53534" lon="6.77261">
        <ele>402.6</ele>
        <time>2014-06-08T09:04:00.000Z</time>
      </trkpt>
      <trkpt lat="47.53535" lon="6.77261">
        <ele>402.4</ele>
        <time>2014-06-08T09:04:01.000Z</time>
      </trkpt>
      <trkpt lat="47.53538" lon="6.77261">
        <ele>402.4</ele>
        <time>2014-06-08T09:04:03.000Z</time>
      </trkpt>
      <trkpt lat="47.5354" lon="6.77261">
        <ele>401.5</ele>
        <time>2014-06-08T09:04:04.000Z</time>
      </trkpt>
      <trkpt lat="47.53544" lon="6.7726">
        <ele>403.3</ele>
        <time>2014-06-08T09:04:06.000Z</time>
      </trkpt>
      <trkpt lat="47.53546" lon="6.7726">
        <ele>404.3</ele>
        <time>2014-06-08T09:04:07.000Z</time>
      </trkpt>
      <trkpt lat="47.53549" lon="6.77262">
        <ele>404.6</ele>
        <time>2014-06-08T09:04:09.000Z</time>
      </trkpt>
      <trkpt lat="47.5355" lon="6.77264">
        <ele>403.7</ele>
        <time>2014-06-08T09:04:10.000Z</time>
      </trkpt>
      <trkpt lat="47.53555" lon="6.77265">
        <ele>402.8</ele>
        <time>2014-06-08T09:04:12.000Z</time>
      </trkpt>
      <trkpt lat="47.53557" lon="6.77266">
        <ele>402.9</ele>
        <time>2014-06-08T09:04:13.000Z</time>
      </trkpt>
      <trkpt lat="47.5356" lon="6.77266">
        <ele>401.9</ele>
        <time>2014-06-08T09:04:15.000Z</time>
      </trkpt>
      <trkpt lat="47.53563" lon="6.77266">
        <ele>401.5</ele>
        <time>2014-06-08T09:04:16.000Z</time>
      </trkpt>
      <trkpt lat="47.53567" lon="6.77266">
        <ele>407.7</ele>
        <time>2014-06-08T09:04:18.000Z</time>
      </trkpt>
      <trkpt lat="47.53568" lon="6.77267">
        <ele>408.4</ele>
        <time>2014-06-08T09:04:19.000Z</time>
      </trkpt>
      <trkpt lat="47.53571" lon="6.77269">
        <ele>407.8</ele>
        <time>2014-06-08T09:04:21.000Z</time>
      </trkpt>
      <trkpt lat="47.53573" lon="6.7727">
        <ele>407.7</ele>
        <time>2014-06-08T09:04:22.000Z</time>
      </trkpt>
      <trkpt lat="47.53575" lon="6.77271">
        <ele>408.8</ele>
        <time>2014-06-08T09:04:23.000Z</time>
      </trkpt>
      <trkpt lat="47.53578" lon="6.77272">
        <ele>408.7</ele>
        <time>2014-06-08T09:04:24.000Z</time>
      </trkpt>
      <trkpt lat="47.5358" lon="6.77273">
        <ele>408.8</ele>
        <time>2014-06-08T09:04:25.000Z</time>
      </trkpt>
      <trkpt lat="47.53582" lon="6.77274">
        <ele>409.3</ele>
        <time>2014-06-08T09:04:26.000Z</time>
      </trkpt>
      <trkpt lat="47.53585" lon="6.77276">
        <ele>411.9</ele>
        <time>2014-06-08T09:04:27.000Z</time>
      </trkpt>
      <trkpt lat="47.53587" lon="6.77278">
        <ele>412.5</ele>
        <time>2014-06-08T09:04:28.000Z</time>
      </trkpt>
      <trkpt lat="47.53589" lon="6.77279">
        <ele>412.9</ele>
        <time>2014-06-08T09:04:29.000Z</time>
      </trkpt>
      <trkpt lat="47.53592" lon="6.77281">
        <ele>413</ele>
        <time>2014-06-08T09:04:30.000Z</time>
      </trkpt>
      <trkpt lat="47.53593" lon="6.77281">
        <ele>413.7</ele>
        <time>2014-06-08T09:04:30.999Z</time>
      </trkpt>
      <trkpt lat="47.53597" lon="6.77284">
        <ele>414.5</ele>
        <time>2014-06-08T09:04:32.000Z</time>
      </trkpt>
      <trkpt lat="47.536" lon="6.77285">
        <ele>414.3</ele>
        <time>2014-06-08T09:04:33.000Z</time>
      </trkpt>
      <trkpt lat="47.53602" lon="6.77286">
        <ele>416.3</ele>
        <time>2014-06-08T09:04:34.000Z</time>
      </trkpt>
      <trkpt lat="47.53604" lon="6.77288">
        <ele>416.9</ele>
        <time>2014-06-08T09:04:35.000Z</time>
      </trkpt>
      <trkpt lat="47.53607" lon="6.7729">
        <ele>418.3</ele>
        <time>2014-06-08T09:04:36.000Z</time>
      </trkpt>
      <trkpt lat="47.53609" lon="6.77291">
        <ele>419</ele>
        <time>2014-06-08T09:04:37.000Z</time>
      </trkpt>
      <trkpt lat="47.53612" lon="6.77293">
        <ele>421.1</ele>
        <time>2014-06-08T09:04:38.000Z</time>
      </trkpt>
      <trkpt lat="47.53614" lon="6.77294">
        <ele>422.4</ele>
        <time>2014-06-08T09:04:39.000Z</time>
      </trkpt>
      <trkpt lat="47.53619" lon="6.77297">
        <ele>424.1</ele>
        <time>2014-06-08T09:04:42.000Z</time>
      </trkpt>
      <trkpt lat="47.5362" lon="6.77298">
        <ele>424.1</ele>
        <time>2014-06-08T09:04:43.000Z</time>
      </trkpt>
      <trkpt lat="47.53623" lon="6.773">
        <ele>423.6</ele>
        <time>2014-06-08T09:04:44.000Z</time>
      </trkpt>
      <trkpt lat="47.53625" lon="6.77301">
        <ele>423.4</ele>
        <time>2014-06-08T09:04:45.000Z</time>
      </trkpt>
      <trkpt lat="47.53627" lon="6.77303">
        <ele>426.1</ele>
        <time>2014-06-08T09:04:46.000Z</time>
      </trkpt>
      <trkpt lat="47.5363" lon="6.77306">
        <ele>426.8</ele>
        <time>2014-06-08T09:04:47.000Z</time>
      </trkpt>
      <trkpt lat="47.53632" lon="6.77308">
        <ele>427.8</ele>
        <time>2014-06-08T09:04:48.000Z</time>
      </trkpt>
      <trkpt lat="47.53634" lon="6.7731">
        <ele>427.7</ele>
        <time>2014-06-08T09:04:49.000Z</time>
      </trkpt>
      <trkpt lat="47.53637" lon="6.77312">
        <ele>429.6</ele>
        <time>2014-06-08T09:04:50.000Z</time>
      </trkpt>
      <trkpt lat="47.53639" lon="6.77314">
        <ele>432.5</ele>
        <time>2014-06-08T09:04:51.000Z</time>
      </trkpt>
      <trkpt lat="47.53642" lon="6.77316">
        <ele>430.5</ele>
        <time>2014-06-08T09:04:52.000Z</time>
      </trkpt>
      <trkpt lat="47.53644" lon="6.77319">
        <ele>429.6</ele>
        <time>2014-06-08T09:04:53.000Z</time>
      </trkpt>
      <trkpt lat="47.53646" lon="6.77321">
        <ele>429.8</ele>
        <time>2014-06-08T09:04:54.000Z</time>
      </trkpt>
      <trkpt lat="47.53648" lon="6.77322">
        <ele>430.2</ele>
        <time>2014-06-08T09:04:55.000Z</time>
      </trkpt>
      <trkpt lat="47.53651" lon="6.77324">
        <ele>430.1</ele>
        <time>2014-06-08T09:04:56.000Z</time>
      </trkpt>
      <trkpt lat="47.53653" lon="6.77325">
        <ele>429.5</ele>
        <time>2014-06-08T09:04:57.000Z</time>
      </trkpt>
      <trkpt lat="47.53656" lon="6.77327">
        <ele>429.4</ele>
        <time>2014-06-08T09:04:58.000Z</time>
      </trkpt>
      <trkpt lat="47.53659" lon="6.77328">
        <ele>430.3</ele>
        <time>2014-06-08T09:04:59.000Z</time>
      </trkpt>
      <trkpt lat="47.53662" lon="6.77328">
        <ele>430.4</ele>
        <time>2014-06-08T09:05:00.000Z</time>
      </trkpt>
      <trkpt lat="47.53665" lon="6.77327">
        <ele>429.7</ele>
        <time>2014-06-08T09:05:02.000Z</time>
      </trkpt>
      <trkpt lat="47.53666" lon="6.77327">
        <ele>429.6</ele>
        <time>2014-06-08T09:05:03.000Z</time>
      </trkpt>
      <trkpt lat="47.5367" lon="6.77326">
        <ele>431.2</ele>
        <time>2014-06-08T09:05:07.000Z</time>
      </trkpt>
      <trkpt lat="47.53672" lon="6.77326">
        <ele>430.6</ele>
        <time>2014-06-08T09:05:08.000Z</time>
      </trkpt>
      <trkpt lat="47.53675" lon="6.77325">
        <ele>430.7</ele>
        <time>2014-06-08T09:05:10.000Z</time>
      </trkpt>
      <trkpt lat="47.53676" lon="6.77324">
        <ele>431</ele>
        <time>2014-06-08T09:05:11.000Z</time>
      </trkpt>
      <trkpt lat="47.5368" lon="6.77322">
        <ele>430.9</ele>
        <time>2014-06-08T09:05:13.000Z</time>
      </trkpt>
      <trkpt lat="47.53682" lon="6.77322">
        <ele>430.5</ele>
        <time>2014-06-08T09:05:14.000Z</time>
      </trkpt>
      <trkpt lat="47.53685" lon="6.77322">
        <ele>431.8</ele>
        <time>2014-06-08T09:05:17.000Z</time>
      </trkpt>
      <trkpt lat="47.53686" lon="6.77323">
        <ele>431</ele>
        <time>2014-06-08T09:05:18.000Z</time>
      </trkpt>
      <trkpt lat="47.53691" lon="6.77324">
        <ele>429.5</ele>
        <time>2014-06-08T09:05:21.000Z</time>
      </trkpt>
      <trkpt lat="47.53692" lon="6.77323">
        <ele>429</ele>
        <time>2014-06-08T09:05:22.000Z</time>
      </trkpt>
      <trkpt lat="47.53695" lon="6.77322">
        <ele>428</ele>
        <time>2014-06-08T09:05:24.000Z</time>
      </trkpt>
      <trkpt lat="47.53697" lon="6.77321">
        <ele>427.6</ele>
        <time>2014-06-08T09:05:25.000Z</time>
      </trkpt>
      <trkpt lat="47.537" lon="6.77319">
        <ele>426.3</ele>
        <time>2014-06-08T09:05:27.000Z</time>
      </trkpt>
      <trkpt lat="47.53702" lon="6.77317">
        <ele>425.6</ele>
        <time>2014-06-08T09:05:28.000Z</time>
      </trkpt>
      <trkpt lat="47.53705" lon="6.77313">
        <ele>424</ele>
        <time>2014-06-08T09:05:30.000Z</time>
      </trkpt>
      <trkpt lat="47.53706" lon="6.77311">
        <ele>423.6</ele>
        <time>2014-06-08T09:05:31.000Z</time>
      </trkpt>
      <trkpt lat="47.53709" lon="6.7731">
        <ele>424.6</ele>
        <time>2014-06-08T09:05:33.000Z</time>
      </trkpt>
      <trkpt lat="47.5371" lon="6.7731">
        <ele>424.4</ele>
        <time>2014-06-08T09:05:34.000Z</time>
      </trkpt>
      <trkpt lat="47.53713" lon="6.7731">
        <ele>423.5</ele>
        <time>2014-06-08T09:05:36.000Z</time>
      </trkpt>
      <trkpt lat="47.53715" lon="6.77308">
        <ele>423</ele>
        <time>2014-06-08T09:05:37.000Z</time>
      </trkpt>
      <trkpt lat="47.53717" lon="6.77304">
        <ele>422.1</ele>
        <time>2014-06-08T09:05:39.000Z</time>
      </trkpt>
      <trkpt lat="47.53716" lon="6.77301">
        <ele>421.7</ele>
        <time>2014-06-08T09:05:40.000Z</time>
      </trkpt>
      <trkpt lat="47.53725" lon="6.77282">
        <ele>423.1</ele>
        <time>2014-06-08T09:05:48.000Z</time>
      </trkpt>
      <trkpt lat="47.53727" lon="6.77277">
        <ele>422.2</ele>
        <time>2014-06-08T09:05:50.000Z</time>
      </trkpt>
      <trkpt lat="47.53728" lon="6.77274">
        <ele>422.2</ele>
        <time>2014-06-08T09:05:51.000Z</time>
      </trkpt>
      <trkpt lat="47.5373" lon="6.77269">
        <ele>423</ele>
        <time>2014-06-08T09:05:53.000Z</time>
      </trkpt>
      <trkpt lat="47.53731" lon="6.77267">
        <ele>422.5</ele>
        <time>2014-06-08T09:05:54.000Z</time>
      </trkpt>
      <trkpt lat="47.53733" lon="6.77264">
        <ele>426.2</ele>
        <time>2014-06-08T09:05:55.000Z</time>
      </trkpt>
      <trkpt lat="47.53734" lon="6.77261">
        <ele>425.9</ele>
        <time>2014-06-08T09:05:56.000Z</time>
      </trkpt>
      <trkpt lat="47.53735" lon="6.77258">
        <ele>425.5</ele>
        <time>2014-06-08T09:05:57.000Z</time>
      </trkpt>
      <trkpt lat="47.53737" lon="6.77254">
        <ele>426.2</ele>
        <time>2014-06-08T09:05:58.000Z</time>
      </trkpt>
      <trkpt lat="47.53739" lon="6.77249">
        <ele>428.1</ele>
        <time>2014-06-08T09:06:00.000Z</time>
      </trkpt>
      <trkpt lat="47.5374" lon="6.77248">
        <ele>429.3</ele>
        <time>2014-06-08T09:06:01.000Z</time>
      </trkpt>
      <trkpt lat="47.53744" lon="6.77246">
        <ele>429.9</ele>
        <time>2014-06-08T09:06:04.000Z</time>
      </trkpt>
      <trkpt lat="47.53745" lon="6.77243">
        <ele>429.6</ele>
        <time>2014-06-08T09:06:05.000Z</time>
      </trkpt>
      <trkpt lat="47.53747" lon="6.77241">
        <ele>429</ele>
        <time>2014-06-08T09:06:06.000Z</time>
      </trkpt>
      <trkpt lat="47.53748" lon="6.77238">
        <ele>428.6</ele>
        <time>2014-06-08T09:06:07.000Z</time>
      </trkpt>
      <trkpt lat="47.53752" lon="6.77237">
        <ele>425.3</ele>
        <time>2014-06-08T09:06:09.000Z</time>
      </trkpt>
      <trkpt lat="47.53754" lon="6.77237">
        <ele>425.6</ele>
        <time>2014-06-08T09:06:10.000Z</time>
      </trkpt>
      <trkpt lat="47.53758" lon="6.77235">
        <ele>425.6</ele>
        <time>2014-06-08T09:06:12.000Z</time>
      </trkpt>
      <trkpt lat="47.5376" lon="6.77232">
        <ele>426.3</ele>
        <time>2014-06-08T09:06:13.000Z</time>
      </trkpt>
      <trkpt lat="47.53761" lon="6.77229">
        <ele>427</ele>
        <time>2014-06-08T09:06:14.000Z</time>
      </trkpt>
      <trkpt lat="47.53762" lon="6.77225">
        <ele>425.9</ele>
        <time>2014-06-08T09:06:15.000Z</time>
      </trkpt>
      <trkpt lat="47.53763" lon="6.77221">
        <ele>425.2</ele>
        <time>2014-06-08T09:06:16.000Z</time>
      </trkpt>
      <trkpt lat="47.53764" lon="6.77217">
        <ele>425.2</ele>
        <time>2014-06-08T09:06:17.000Z</time>
      </trkpt>
      <trkpt lat="47.53764" lon="6.77213">
        <ele>424.5</ele>
        <time>2014-06-08T09:06:18.000Z</time>
      </trkpt>
      <trkpt lat="47.53765" lon="6.77209">
        <ele>424.1</ele>
        <time>2014-06-08T09:06:19.000Z</time>
      </trkpt>
      <trkpt lat="47.53766" lon="6.77203">
        <ele>424.2</ele>
        <time>2014-06-08T09:06:21.000Z</time>
      </trkpt>
      <trkpt lat="47.53767" lon="6.772">
        <ele>424.3</ele>
        <time>2014-06-08T09:06:22.000Z</time>
      </trkpt>
      <trkpt lat="47.53766" lon="6.77194">
        <ele>425.7</ele>
        <time>2014-06-08T09:06:24.000Z</time>
      </trkpt>
      <trkpt lat="47.53766" lon="6.77191">
        <ele>428.1</ele>
        <time>2014-06-08T09:06:25.000Z</time>
      </trkpt>
      <trkpt lat="47.53766" lon="6.77185">
        <ele>428.5</ele>
        <time>2014-06-08T09:06:27.000Z</time>
      </trkpt>
      <trkpt lat="47.53766" lon="6.77182">
        <ele>427.7</ele>
        <time>2014-06-08T09:06:28.000Z</time>
      </trkpt>
      <trkpt lat="47.53766" lon="6.77177">
        <ele>428</ele>
        <time>2014-06-08T09:06:30.000Z</time>
      </trkpt>
      <trkpt lat="47.53766" lon="6.77174">
        <ele>427.9</ele>
        <time>2014-06-08T09:06:31.000Z</time>
      </trkpt>
      <trkpt lat="47.53767" lon="6.77168">
        <ele>428.7</ele>
        <time>2014-06-08T09:06:33.000Z</time>
      </trkpt>
      <trkpt lat="47.53768" lon="6.77165">
        <ele>428.9</ele>
        <time>2014-06-08T09:06:34.000Z</time>
      </trkpt>
      <trkpt lat="47.53768" lon="6.7716">
        <ele>429.8</ele>
        <time>2014-06-08T09:06:37.000Z</time>
      </trkpt>
      <trkpt lat="47.53768" lon="6.77159">
        <ele>430.1</ele>
        <time>2014-06-08T09:06:38.000Z</time>
      </trkpt>
      <trkpt lat="47.53767" lon="6.77152">
        <ele>429.1</ele>
        <time>2014-06-08T09:06:42.000Z</time>
      </trkpt>
      <trkpt lat="47.53767" lon="6.7715">
        <ele>431.7</ele>
        <time>2014-06-08T09:06:43.000Z</time>
      </trkpt>
      <trkpt lat="47.53767" lon="6.77144">
        <ele>431.6</ele>
        <time>2014-06-08T09:06:46.000Z</time>
      </trkpt>
      <trkpt lat="47.53768" lon="6.77141">
        <ele>431.5</ele>
        <time>2014-06-08T09:06:47.000Z</time>
      </trkpt>
      <trkpt lat="47.53769" lon="6.77135">
        <ele>432.2</ele>
        <time>2014-06-08T09:06:49.000Z</time>
      </trkpt>
      <trkpt lat="47.53769" lon="6.77132">
        <ele>431.8</ele>
        <time>2014-06-08T09:06:50.000Z</time>
      </trkpt>
      <trkpt lat="47.5377" lon="6.77128">
        <ele>431.6</ele>
        <time>2014-06-08T09:06:51.000Z</time>
      </trkpt>
      <trkpt lat="47.5377" lon="6.77125">
        <ele>431.8</ele>
        <time>2014-06-08T09:06:52.000Z</time>
      </trkpt>
      <trkpt lat="47.53771" lon="6.77118">
        <ele>433.6</ele>
        <time>2014-06-08T09:06:54.000Z</time>
      </trkpt>
      <trkpt lat="47.53771" lon="6.77115">
        <ele>433.5</ele>
        <time>2014-06-08T09:06:55.000Z</time>
      </trkpt>
      <trkpt lat="47.53771" lon="6.77109">
        <ele>435.2</ele>
        <time>2014-06-08T09:06:57.000Z</time>
      </trkpt>
      <trkpt lat="47.53771" lon="6.77107">
        <ele>434.8</ele>
        <time>2014-06-08T09:06:58.000Z</time>
      </trkpt>
      <trkpt lat="47.5377" lon="6.77101">
        <ele>434.2</ele>
        <time>2014-06-08T09:07:00.000Z</time>
      </trkpt>
      <trkpt lat="47.5377" lon="6.77098">
        <ele>434.2</ele>
        <time>2014-06-08T09:07:01.000Z</time>
      </trkpt>
      <trkpt lat="47.53771" lon="6.77093">
        <ele>435.7</ele>
        <time>2014-06-08T09:07:03.000Z</time>
      </trkpt>
      <trkpt lat="47.53771" lon="6.77089">
        <ele>435.7</ele>
        <time>2014-06-08T09:07:04.000Z</time>
      </trkpt>
      <trkpt lat="47.53772" lon="6.77086">
        <ele>435.5</ele>
        <time>2014-06-08T09:07:05.000Z</time>
      </trkpt>
      <trkpt lat="47.53773" lon="6.77083">
        <ele>436</ele>
        <time>2014-06-08T09:07:06.000Z</time>
      </trkpt>
      <trkpt lat="47.53774" lon="6.77077">
        <ele>439.2</ele>
        <time>2014-06-08T09:07:08.000Z</time>
      </trkpt>
      <trkpt lat="47.53774" lon="6.77073">
        <ele>439.6</ele>
        <time>2014-06-08T09:07:09.000Z</time>
      </trkpt>
      <trkpt lat="47.53775" lon="6.77067">
        <ele>440.4</ele>
        <time>2014-06-08T09:07:11.000Z</time>
      </trkpt>
      <trkpt lat="47.53775" lon="6.77064">
        <ele>440.9</ele>
        <time>2014-06-08T09:07:12.000Z</time>
      </trkpt>
      <trkpt lat="47.53775" lon="6.7706">
        <ele>440.4</ele>
        <time>2014-06-08T09:07:14.000Z</time>
      </trkpt>
      <trkpt lat="47.53775" lon="6.77056">
        <ele>440.3</ele>
        <time>2014-06-08T09:07:15.000Z</time>
      </trkpt>
      <trkpt lat="47.53775" lon="6.77053">
        <ele>439.8</ele>
        <time>2014-06-08T09:07:16.000Z</time>
      </trkpt>
      <trkpt lat="47.53775" lon="6.7705">
        <ele>440.4</ele>
        <time>2014-06-08T09:07:17.000Z</time>
      </trkpt>
      <trkpt lat="47.53775" lon="6.77044">
        <ele>441.6</ele>
        <time>2014-06-08T09:07:19.000Z</time>
      </trkpt>
      <trkpt lat="47.53775" lon="6.77042">
        <ele>440.8</ele>
        <time>2014-06-08T09:07:20.000Z</time>
      </trkpt>
      <trkpt lat="47.53775" lon="6.77037">
        <ele>441.4</ele>
        <time>2014-06-08T09:07:22.000Z</time>
      </trkpt>
      <trkpt lat="47.53775" lon="6.77034">
        <ele>441.5</ele>
        <time>2014-06-08T09:07:23.000Z</time>
      </trkpt>
      <trkpt lat="47.53775" lon="6.77028">
        <ele>442.9</ele>
        <time>2014-06-08T09:07:25.000Z</time>
      </trkpt>
      <trkpt lat="47.53775" lon="6.77025">
        <ele>442.7</ele>
        <time>2014-06-08T09:07:26.000Z</time>
      </trkpt>
      <trkpt lat="47.53775" lon="6.7702">
        <ele>442.1</ele>
        <time>2014-06-08T09:07:28.000Z</time>
      </trkpt>
      <trkpt lat="47.53775" lon="6.77018">
        <ele>442.3</ele>
        <time>2014-06-08T09:07:29.000Z</time>
      </trkpt>
      <trkpt lat="47.53775" lon="6.77015">
        <ele>442.2</ele>
        <time>2014-06-08T09:07:30.000Z</time>
      </trkpt>
      <trkpt lat="47.53775" lon="6.77011">
        <ele>441.6</ele>
        <time>2014-06-08T09:07:31.000Z</time>
      </trkpt>
      <trkpt lat="47.53775" lon="6.77007">
        <ele>441.7</ele>
        <time>2014-06-08T09:07:32.000Z</time>
      </trkpt>
      <trkpt lat="47.53775" lon="6.77002">
        <ele>440.4</ele>
        <time>2014-06-08T09:07:33.000Z</time>
      </trkpt>
      <trkpt lat="47.53775" lon="6.76999">
        <ele>439.1</ele>
        <time>2014-06-08T09:07:34.000Z</time>
      </trkpt>
      <trkpt lat="47.53774" lon="6.76995">
        <ele>438.4</ele>
        <time>2014-06-08T09:07:35.000Z</time>
      </trkpt>
      <trkpt lat="47.53773" lon="6.76989">
        <ele>438.2</ele>
        <time>2014-06-08T09:07:37.000Z</time>
      </trkpt>
      <trkpt lat="47.53772" lon="6.76987">
        <ele>437.3</ele>
        <time>2014-06-08T09:07:38.000Z</time>
      </trkpt>
      <trkpt lat="47.53772" lon="6.76984">
        <ele>436.9</ele>
        <time>2014-06-08T09:07:39.000Z</time>
      </trkpt>
      <trkpt lat="47.53771" lon="6.76976">
        <ele>436.4</ele>
        <time>2014-06-08T09:07:42.000Z</time>
      </trkpt>
      <trkpt lat="47.53771" lon="6.7697">
        <ele>435</ele>
        <time>2014-06-08T09:07:44.000Z</time>
      </trkpt>
      <trkpt lat="47.5377" lon="6.76967">
        <ele>434.6</ele>
        <time>2014-06-08T09:07:45.000Z</time>
      </trkpt>
      <trkpt lat="47.5377" lon="6.76961">
        <ele>432.3</ele>
        <time>2014-06-08T09:07:47.000Z</time>
      </trkpt>
      <trkpt lat="47.5377" lon="6.76959">
        <ele>432.7</ele>
        <time>2014-06-08T09:07:48.000Z</time>
      </trkpt>
      <trkpt lat="47.53771" lon="6.76954">
        <ele>434.8</ele>
        <time>2014-06-08T09:07:50.000Z</time>
      </trkpt>
      <trkpt lat="47.53771" lon="6.7695">
        <ele>435.3</ele>
        <time>2014-06-08T09:07:51.000Z</time>
      </trkpt>
      <trkpt lat="47.53771" lon="6.76946">
        <ele>435.4</ele>
        <time>2014-06-08T09:07:52.000Z</time>
      </trkpt>
      <trkpt lat="47.53772" lon="6.76942">
        <ele>435.9</ele>
        <time>2014-06-08T09:07:53.000Z</time>
      </trkpt>
      <trkpt lat="47.53773" lon="6.76938">
        <ele>436.1</ele>
        <time>2014-06-08T09:07:54.000Z</time>
      </trkpt>
      <trkpt lat="47.53773" lon="6.76935">
        <ele>436</ele>
        <time>2014-06-08T09:07:55.000Z</time>
      </trkpt>
      <trkpt lat="47.53774" lon="6.76931">
        <ele>435.8</ele>
        <time>2014-06-08T09:07:56.000Z</time>
      </trkpt>
      <trkpt lat="47.53775" lon="6.76927">
        <ele>436.1</ele>
        <time>2014-06-08T09:07:57.000Z</time>
      </trkpt>
      <trkpt lat="47.53776" lon="6.76922">
        <ele>434.6</ele>
        <time>2014-06-08T09:07:59.000Z</time>
      </trkpt>
      <trkpt lat="47.53777" lon="6.7692">
        <ele>434.4</ele>
        <time>2014-06-08T09:08:00.000Z</time>
      </trkpt>
      <trkpt lat="47.53777" lon="6.76914">
        <ele>436.8</ele>
        <time>2014-06-08T09:08:03.000Z</time>
      </trkpt>
      <trkpt lat="47.53778" lon="6.76911">
        <ele>437.4</ele>
        <time>2014-06-08T09:08:04.000Z</time>
      </trkpt>
      <trkpt lat="47.53778" lon="6.76907">
        <ele>438.1</ele>
        <time>2014-06-08T09:08:06.000Z</time>
      </trkpt>
      <trkpt lat="47.53778" lon="6.76904">
        <ele>438.1</ele>
        <time>2014-06-08T09:08:07.000Z</time>
      </trkpt>
      <trkpt lat="47.53779" lon="6.76898">
        <ele>438.2</ele>
        <time>2014-06-08T09:08:09.000Z</time>
      </trkpt>
      <trkpt lat="47.5378" lon="6.76894">
        <ele>439.3</ele>
        <time>2014-06-08T09:08:10.000Z</time>
      </trkpt>
      <trkpt lat="47.53781" lon="6.7689">
        <ele>439.4</ele>
        <time>2014-06-08T09:08:11.000Z</time>
      </trkpt>
      <trkpt lat="47.53782" lon="6.76886">
        <ele>439.7</ele>
        <time>2014-06-08T09:08:12.000Z</time>
      </trkpt>
      <trkpt lat="47.53782" lon="6.76881">
        <ele>440</ele>
        <time>2014-06-08T09:08:13.000Z</time>
      </trkpt>
      <trkpt lat="47.53783" lon="6.76877">
        <ele>440.5</ele>
        <time>2014-06-08T09:08:14.000Z</time>
      </trkpt>
      <trkpt lat="47.53784" lon="6.76873">
        <ele>442.4</ele>
        <time>2014-06-08T09:08:15.000Z</time>
      </trkpt>
      <trkpt lat="47.53784" lon="6.7687">
        <ele>442</ele>
        <time>2014-06-08T09:08:16.000Z</time>
      </trkpt>
      <trkpt lat="47.53784" lon="6.76864">
        <ele>441.8</ele>
        <time>2014-06-08T09:08:18.000Z</time>
      </trkpt>
      <trkpt lat="47.53784" lon="6.76862">
        <ele>438.1</ele>
        <time>2014-06-08T09:08:19.000Z</time>
      </trkpt>
      <trkpt lat="47.53785" lon="6.76857">
        <ele>437.7</ele>
        <time>2014-06-08T09:08:21.000Z</time>
      </trkpt>
      <trkpt lat="47.53786" lon="6.76853">
        <ele>438.5</ele>
        <time>2014-06-08T09:08:22.000Z</time>
      </trkpt>
      <trkpt lat="47.53787" lon="6.7685">
        <ele>438.3</ele>
        <time>2014-06-08T09:08:23.000Z</time>
      </trkpt>
      <trkpt lat="47.53787" lon="6.76846">
        <ele>441.2</ele>
        <time>2014-06-08T09:08:24.000Z</time>
      </trkpt>
      <trkpt lat="47.53787" lon="6.76841">
        <ele>441.6</ele>
        <time>2014-06-08T09:08:25.000Z</time>
      </trkpt>
      <trkpt lat="47.53787" lon="6.76837">
        <ele>441.8</ele>
        <time>2014-06-08T09:08:26.000Z</time>
      </trkpt>
      <trkpt lat="47.53788" lon="6.76833">
        <ele>441.7</ele>
        <time>2014-06-08T09:08:27.000Z</time>
      </trkpt>
      <trkpt lat="47.53788" lon="6.7683">
        <ele>441.6</ele>
        <time>2014-06-08T09:08:28.000Z</time>
      </trkpt>
      <trkpt lat="47.53789" lon="6.76824">
        <ele>441.3</ele>
        <time>2014-06-08T09:08:30.000Z</time>
      </trkpt>
      <trkpt lat="47.53789" lon="6.76822">
        <ele>441.3</ele>
        <time>2014-06-08T09:08:31.000Z</time>
      </trkpt>
      <trkpt lat="47.5379" lon="6.76817">
        <ele>442.1</ele>
        <time>2014-06-08T09:08:33.000Z</time>
      </trkpt>
      <trkpt lat="47.53791" lon="6.76814">
        <ele>441.9</ele>
        <time>2014-06-08T09:08:34.000Z</time>
      </trkpt>
      <trkpt lat="47.53791" lon="6.76811">
        <ele>442.2</ele>
        <time>2014-06-08T09:08:35.000Z</time>
      </trkpt>
      <trkpt lat="47.53792" lon="6.76807">
        <ele>442.9</ele>
        <time>2014-06-08T09:08:36.000Z</time>
      </trkpt>
      <trkpt lat="47.53793" lon="6.768">
        <ele>443.7</ele>
        <time>2014-06-08T09:08:38.000Z</time>
      </trkpt>
      <trkpt lat="47.53793" lon="6.76797">
        <ele>443</ele>
        <time>2014-06-08T09:08:39.000Z</time>
      </trkpt>
      <trkpt lat="47.53795" lon="6.76794">
        <ele>443.3</ele>
        <time>2014-06-08T09:08:40.000Z</time>
      </trkpt>
      <trkpt lat="47.53798" lon="6.7677">
        <ele>447</ele>
        <time>2014-06-08T09:08:48.000Z</time>
      </trkpt>
      <trkpt lat="47.53799" lon="6.76764">
        <ele>448.9</ele>
        <time>2014-06-08T09:08:50.000Z</time>
      </trkpt>
      <trkpt lat="47.538" lon="6.76761">
        <ele>448.4</ele>
        <time>2014-06-08T09:08:51.000Z</time>
      </trkpt>
      <trkpt lat="47.53801" lon="6.76755">
        <ele>448.9</ele>
        <time>2014-06-08T09:08:53.000Z</time>
      </trkpt>
      <trkpt lat="47.53802" lon="6.76753">
        <ele>449.8</ele>
        <time>2014-06-08T09:08:54.000Z</time>
      </trkpt>
      <trkpt lat="47.53803" lon="6.7675">
        <ele>450.3</ele>
        <time>2014-06-08T09:08:55.000Z</time>
      </trkpt>
      <trkpt lat="47.53804" lon="6.76747">
        <ele>449.6</ele>
        <time>2014-06-08T09:08:56.000Z</time>
      </trkpt>
      <trkpt lat="47.53805" lon="6.76743">
        <ele>448.8</ele>
        <time>2014-06-08T09:08:57.000Z</time>
      </trkpt>
      <trkpt lat="47.53806" lon="6.7674">
        <ele>448.8</ele>
        <time>2014-06-08T09:08:58.000Z</time>
      </trkpt>
      <trkpt lat="47.53807" lon="6.76737">
        <ele>449.3</ele>
        <time>2014-06-08T09:08:59.000Z</time>
      </trkpt>
      <trkpt lat="47.53808" lon="6.76733">
        <ele>449.2</ele>
        <time>2014-06-08T09:09:00.000Z</time>
      </trkpt>
      <trkpt lat="47.53808" lon="6.76726">
        <ele>450.5</ele>
        <time>2014-06-08T09:09:02.000Z</time>
      </trkpt>
      <trkpt lat="47.53808" lon="6.76723">
        <ele>450.6</ele>
        <time>2014-06-08T09:09:03.000Z</time>
      </trkpt>
      <trkpt lat="47.53809" lon="6.7672">
        <ele>450.3</ele>
        <time>2014-06-08T09:09:04.000Z</time>
      </trkpt>
      <trkpt lat="47.5381" lon="6.76717">
        <ele>450</ele>
        <time>2014-06-08T09:09:05.000Z</time>
      </trkpt>
      <trkpt lat="47.53812" lon="6.76714">
        <ele>449.9</ele>
        <time>2014-06-08T09:09:06.000Z</time>
      </trkpt>
      <trkpt lat="47.53813" lon="6.76711">
        <ele>450.1</ele>
        <time>2014-06-08T09:09:07.000Z</time>
      </trkpt>
      <trkpt lat="47.53815" lon="6.76706">
        <ele>451.7</ele>
        <time>2014-06-08T09:09:09.000Z</time>
      </trkpt>
      <trkpt lat="47.53816" lon="6.76704">
        <ele>452.5</ele>
        <time>2014-06-08T09:09:10.000Z</time>
      </trkpt>
      <trkpt lat="47.53819" lon="6.76701">
        <ele>452</ele>
        <time>2014-06-08T09:09:12.000Z</time>
      </trkpt>
      <trkpt lat="47.5382" lon="6.767">
        <ele>452</ele>
        <time>2014-06-08T09:09:13.000Z</time>
      </trkpt>
      <trkpt lat="47.53822" lon="6.76696">
        <ele>451.2</ele>
        <time>2014-06-08T09:09:15.000Z</time>
      </trkpt>
      <trkpt lat="47.53823" lon="6.76694">
        <ele>451.7</ele>
        <time>2014-06-08T09:09:16.000Z</time>
      </trkpt>
      <trkpt lat="47.53826" lon="6.76689">
        <ele>452.4</ele>
        <time>2014-06-08T09:09:19.000Z</time>
      </trkpt>
      <trkpt lat="47.53827" lon="6.76689">
        <ele>452.7</ele>
        <time>2014-06-08T09:09:20.000Z</time>
      </trkpt>
      <trkpt lat="47.53829" lon="6.76684">
        <ele>451.6</ele>
        <time>2014-06-08T09:12:49.000Z</time>
      </trkpt>
      <trkpt lat="47.5383" lon="6.76683">
        <ele>451.5</ele>
        <time>2014-06-08T09:12:50.000Z</time>
      </trkpt>
      <trkpt lat="47.53832" lon="6.76678">
        <ele>452.9</ele>
        <time>2014-06-08T09:12:54.000Z</time>
      </trkpt>
      <trkpt lat="47.53833" lon="6.76677">
        <ele>453</ele>
        <time>2014-06-08T09:12:55.000Z</time>
      </trkpt>
      <trkpt lat="47.53836" lon="6.76674">
        <ele>451.8</ele>
        <time>2014-06-08T09:12:57.000Z</time>
      </trkpt>
      <trkpt lat="47.53837" lon="6.76672">
        <ele>452.7</ele>
        <time>2014-06-08T09:12:58.000Z</time>
      </trkpt>
      <trkpt lat="47.53839" lon="6.76669">
        <ele>452.4</ele>
        <time>2014-06-08T09:12:59.000Z</time>
      </trkpt>
      <trkpt lat="47.53841" lon="6.76665">
        <ele>450.9</ele>
        <time>2014-06-08T09:13:00.000Z</time>
      </trkpt>
      <trkpt lat="47.53842" lon="6.76662">
        <ele>450.9</ele>
        <time>2014-06-08T09:13:01.000Z</time>
      </trkpt>
      <trkpt lat="47.53844" lon="6.76659">
        <ele>450.7</ele>
        <time>2014-06-08T09:13:02.000Z</time>
      </trkpt>
      <trkpt lat="47.53846" lon="6.76656">
        <ele>450.5</ele>
        <time>2014-06-08T09:13:03.000Z</time>
      </trkpt>
      <trkpt lat="47.53848" lon="6.76654">
        <ele>449.9</ele>
        <time>2014-06-08T09:13:04.000Z</time>
      </trkpt>
      <trkpt lat="47.5385" lon="6.76651">
        <ele>449.2</ele>
        <time>2014-06-08T09:13:05.000Z</time>
      </trkpt>
      <trkpt lat="47.53852" lon="6.76648">
        <ele>448.8</ele>
        <time>2014-06-08T09:13:06.000Z</time>
      </trkpt>
      <trkpt lat="47.53854" lon="6.76645">
        <ele>448.6</ele>
        <time>2014-06-08T09:13:07.000Z</time>
      </trkpt>
      <trkpt lat="47.53855" lon="6.76641">
        <ele>448.7</ele>
        <time>2014-06-08T09:13:08.000Z</time>
      </trkpt>
      <trkpt lat="47.53857" lon="6.76638">
        <ele>449</ele>
        <time>2014-06-08T09:13:09.000Z</time>
      </trkpt>
      <trkpt lat="47.53859" lon="6.76634">
        <ele>448.8</ele>
        <time>2014-06-08T09:13:10.000Z</time>
      </trkpt>
      <trkpt lat="47.53861" lon="6.76631">
        <ele>448.8</ele>
        <time>2014-06-08T09:13:11.000Z</time>
      </trkpt>
      <trkpt lat="47.53863" lon="6.76627">
        <ele>448.2</ele>
        <time>2014-06-08T09:13:12.000Z</time>
      </trkpt>
      <trkpt lat="47.53864" lon="6.76624">
        <ele>446.8</ele>
        <time>2014-06-08T09:13:13.000Z</time>
      </trkpt>
      <trkpt lat="47.53866" lon="6.76619">
        <ele>444.8</ele>
        <time>2014-06-08T09:13:14.000Z</time>
      </trkpt>
      <trkpt lat="47.53868" lon="6.76615">
        <ele>444.7</ele>
        <time>2014-06-08T09:13:15.000Z</time>
      </trkpt>
      <trkpt lat="47.53869" lon="6.76611">
        <ele>444.4</ele>
        <time>2014-06-08T09:13:16.000Z</time>
      </trkpt>
      <trkpt lat="47.53871" lon="6.76607">
        <ele>444.2</ele>
        <time>2014-06-08T09:13:17.000Z</time>
      </trkpt>
      <trkpt lat="47.53872" lon="6.76603">
        <ele>443.4</ele>
        <time>2014-06-08T09:13:18.000Z</time>
      </trkpt>
      <trkpt lat="47.53874" lon="6.76598">
        <ele>442.9</ele>
        <time>2014-06-08T09:13:19.000Z</time>
      </trkpt>
      <trkpt lat="47.53876" lon="6.76594">
        <ele>444.9</ele>
        <time>2014-06-08T09:13:20.000Z</time>
      </trkpt>
      <trkpt lat="47.53879" lon="6.7659">
        <ele>445.8</ele>
        <time>2014-06-08T09:13:21.000Z</time>
      </trkpt>
      <trkpt lat="47.53883" lon="6.76587">
        <ele>445.8</ele>
        <time>2014-06-08T09:13:22.000Z</time>
      </trkpt>
      <trkpt lat="47.53887" lon="6.76585">
        <ele>445.1</ele>
        <time>2014-06-08T09:13:23.000Z</time>
      </trkpt>
      <trkpt lat="47.53891" lon="6.76583">
        <ele>447</ele>
        <time>2014-06-08T09:13:24.000Z</time>
      </trkpt>
      <trkpt lat="47.53894" lon="6.7658">
        <ele>450</ele>
        <time>2014-06-08T09:13:25.000Z</time>
      </trkpt>
      <trkpt lat="47.53897" lon="6.76577">
        <ele>453.2</ele>
        <time>2014-06-08T09:13:26.000Z</time>
      </trkpt>
      <trkpt lat="47.53899" lon="6.76574">
        <ele>454</ele>
        <time>2014-06-08T09:13:27.000Z</time>
      </trkpt>
      <trkpt lat="47.53901" lon="6.7657">
        <ele>453</ele>
        <time>2014-06-08T09:13:28.000Z</time>
      </trkpt>
      <trkpt lat="47.53905" lon="6.76557">
        <ele>452.5</ele>
        <time>2014-06-08T09:13:29.000Z</time>
      </trkpt>
      <trkpt lat="47.53908" lon="6.76551">
        <ele>452.3</ele>
        <time>2014-06-08T09:13:30.000Z</time>
      </trkpt>
      <trkpt lat="47.53913" lon="6.76549">
        <ele>450.5</ele>
        <time>2014-06-08T09:13:31.000Z</time>
      </trkpt>
      <trkpt lat="47.53916" lon="6.76544">
        <ele>449.7</ele>
        <time>2014-06-08T09:13:32.000Z</time>
      </trkpt>
      <trkpt lat="47.5392" lon="6.76537">
        <ele>450.9</ele>
        <time>2014-06-08T09:13:33.000Z</time>
      </trkpt>
      <trkpt lat="47.53923" lon="6.76532">
        <ele>451.1</ele>
        <time>2014-06-08T09:13:34.000Z</time>
      </trkpt>
      <trkpt lat="47.53926" lon="6.76528">
        <ele>450.9</ele>
        <time>2014-06-08T09:13:35.000Z</time>
      </trkpt>
      <trkpt lat="47.53928" lon="6.76525">
        <ele>451.3</ele>
        <time>2014-06-08T09:13:36.000Z</time>
      </trkpt>
      <trkpt lat="47.5393" lon="6.76521">
        <ele>451.7</ele>
        <time>2014-06-08T09:13:37.000Z</time>
      </trkpt>
      <trkpt lat="47.53933" lon="6.76516">
        <ele>452.6</ele>
        <time>2014-06-08T09:13:38.000Z</time>
      </trkpt>
      <trkpt lat="47.53935" lon="6.76513">
        <ele>450.7</ele>
        <time>2014-06-08T09:13:39.000Z</time>
      </trkpt>
      <trkpt lat="47.53937" lon="6.7651">
        <ele>449.4</ele>
        <time>2014-06-08T09:13:40.000Z</time>
      </trkpt>
      <trkpt lat="47.5394" lon="6.76501">
        <ele>448.3</ele>
        <time>2014-06-08T09:13:43.000Z</time>
      </trkpt>
      <trkpt lat="47.53939" lon="6.76495">
        <ele>446.1</ele>
        <time>2014-06-08T09:13:44.000Z</time>
      </trkpt>
      <trkpt lat="47.5394" lon="6.76491">
        <ele>445.4</ele>
        <time>2014-06-08T09:13:45.000Z</time>
      </trkpt>
      <trkpt lat="47.53941" lon="6.76486">
        <ele>444.6</ele>
        <time>2014-06-08T09:13:46.000Z</time>
      </trkpt>
      <trkpt lat="47.53943" lon="6.76482">
        <ele>444</ele>
        <time>2014-06-08T09:13:47.000Z</time>
      </trkpt>
      <trkpt lat="47.53944" lon="6.76478">
        <ele>443.7</ele>
        <time>2014-06-08T09:13:47.999Z</time>
      </trkpt>
      <trkpt lat="47.5395" lon="6.76471">
        <ele>444.6</ele>
        <time>2014-06-08T09:13:48.925Z</time>
      </trkpt>
      <trkpt lat="47.53954" lon="6.76465">
        <ele>440.9</ele>
        <time>2014-06-08T09:13:50.000Z</time>
      </trkpt>
      <trkpt lat="47.53957" lon="6.76459">
        <ele>440.9</ele>
        <time>2014-06-08T09:13:51.000Z</time>
      </trkpt>
      <trkpt lat="47.5396" lon="6.76454">
        <ele>440.7</ele>
        <time>2014-06-08T09:13:52.000Z</time>
      </trkpt>
      <trkpt lat="47.53962" lon="6.76449">
        <ele>440.2</ele>
        <time>2014-06-08T09:13:53.000Z</time>
      </trkpt>
      <trkpt lat="47.53964" lon="6.76444">
        <ele>440.3</ele>
        <time>2014-06-08T09:13:53.999Z</time>
      </trkpt>
      <trkpt lat="47.53967" lon="6.76439">
        <ele>437</ele>
        <time>2014-06-08T09:13:55.000Z</time>
      </trkpt>
      <trkpt lat="47.53969" lon="6.76434">
        <ele>437</ele>
        <time>2014-06-08T09:13:56.000Z</time>
      </trkpt>
      <trkpt lat="47.53971" lon="6.76429">
        <ele>436.7</ele>
        <time>2014-06-08T09:13:57.000Z</time>
      </trkpt>
      <trkpt lat="47.53973" lon="6.76423">
        <ele>438.9</ele>
        <time>2014-06-08T09:13:58.000Z</time>
      </trkpt>
      <trkpt lat="47.53976" lon="6.76418">
        <ele>439.4</ele>
        <time>2014-06-08T09:13:59.000Z</time>
      </trkpt>
      <trkpt lat="47.53979" lon="6.76412">
        <ele>440</ele>
        <time>2014-06-08T09:14:00.000Z</time>
      </trkpt>
      <trkpt lat="47.53983" lon="6.76408">
        <ele>439.7</ele>
        <time>2014-06-08T09:14:01.000Z</time>
      </trkpt>
      <trkpt lat="47.53986" lon="6.76403">
        <ele>440.4</ele>
        <time>2014-06-08T09:14:02.000Z</time>
      </trkpt>
      <trkpt lat="47.53988" lon="6.76399">
        <ele>440.6</ele>
        <time>2014-06-08T09:14:02.999Z</time>
      </trkpt>
      <trkpt lat="47.53991" lon="6.76395">
        <ele>440.6</ele>
        <time>2014-06-08T09:14:04.000Z</time>
      </trkpt>
      <trkpt lat="47.53994" lon="6.76391">
        <ele>440.6</ele>
        <time>2014-06-08T09:14:05.000Z</time>
      </trkpt>
      <trkpt lat="47.53996" lon="6.76387">
        <ele>441</ele>
        <time>2014-06-08T09:14:06.000Z</time>
      </trkpt>
      <trkpt lat="47.53998" lon="6.76383">
        <ele>442.4</ele>
        <time>2014-06-08T09:14:07.000Z</time>
      </trkpt>
      <trkpt lat="47.54" lon="6.7638">
        <ele>443.5</ele>
        <time>2014-06-08T09:14:08.000Z</time>
      </trkpt>
      <trkpt lat="47.54001" lon="6.76376">
        <ele>444.6</ele>
        <time>2014-06-08T09:14:09.000Z</time>
      </trkpt>
      <trkpt lat="47.54003" lon="6.76373">
        <ele>445.8</ele>
        <time>2014-06-08T09:14:10.000Z</time>
      </trkpt>
      <trkpt lat="47.54005" lon="6.7637">
        <ele>445.4</ele>
        <time>2014-06-08T09:14:11.000Z</time>
      </trkpt>
      <trkpt lat="47.54008" lon="6.76368">
        <ele>447.1</ele>
        <time>2014-06-08T09:14:12.000Z</time>
      </trkpt>
      <trkpt lat="47.54011" lon="6.76365">
        <ele>447.6</ele>
        <time>2014-06-08T09:14:13.000Z</time>
      </trkpt>
      <trkpt lat="47.54013" lon="6.76361">
        <ele>447.9</ele>
        <time>2014-06-08T09:14:14.000Z</time>
      </trkpt>
      <trkpt lat="47.54015" lon="6.76356">
        <ele>448.2</ele>
        <time>2014-06-08T09:14:15.000Z</time>
      </trkpt>
      <trkpt lat="47.54017" lon="6.76352">
        <ele>447.7</ele>
        <time>2014-06-08T09:14:16.000Z</time>
      </trkpt>
      <trkpt lat="47.54018" lon="6.76347">
        <ele>449</ele>
        <time>2014-06-08T09:14:17.000Z</time>
      </trkpt>
      <trkpt lat="47.54019" lon="6.76342">
        <ele>449.7</ele>
        <time>2014-06-08T09:14:18.000Z</time>
      </trkpt>
      <trkpt lat="47.54021" lon="6.76337">
        <ele>448.5</ele>
        <time>2014-06-08T09:14:19.000Z</time>
      </trkpt>
      <trkpt lat="47.54024" lon="6.76333">
        <ele>447.8</ele>
        <time>2014-06-08T09:14:20.000Z</time>
      </trkpt>
      <trkpt lat="47.54026" lon="6.76328">
        <ele>448.1</ele>
        <time>2014-06-08T09:14:21.000Z</time>
      </trkpt>
      <trkpt lat="47.54029" lon="6.76324">
        <ele>447.7</ele>
        <time>2014-06-08T09:14:22.000Z</time>
      </trkpt>
      <trkpt lat="47.54031" lon="6.7632">
        <ele>447.6</ele>
        <time>2014-06-08T09:14:23.000Z</time>
      </trkpt>
      <trkpt lat="47.54033" lon="6.76317">
        <ele>447.4</ele>
        <time>2014-06-08T09:14:24.000Z</time>
      </trkpt>
      <trkpt lat="47.54035" lon="6.76313">
        <ele>447.4</ele>
        <time>2014-06-08T09:14:25.000Z</time>
      </trkpt>
      <trkpt lat="47.54038" lon="6.76308">
        <ele>447.2</ele>
        <time>2014-06-08T09:14:27.000Z</time>
      </trkpt>
      <trkpt lat="47.54039" lon="6.76306">
        <ele>449.2</ele>
        <time>2014-06-08T09:14:28.000Z</time>
      </trkpt>
      <trkpt lat="47.5404" lon="6.76302">
        <ele>450.4</ele>
        <time>2014-06-08T09:14:30.000Z</time>
      </trkpt>
      <trkpt lat="47.54041" lon="6.763">
        <ele>450.6</ele>
        <time>2014-06-08T09:14:31.000Z</time>
      </trkpt>
      <trkpt lat="47.54042" lon="6.76295">
        <ele>451.2</ele>
        <time>2014-06-08T09:14:33.000Z</time>
      </trkpt>
      <trkpt lat="47.54043" lon="6.76292">
        <ele>450.7</ele>
        <time>2014-06-08T09:14:34.000Z</time>
      </trkpt>
      <trkpt lat="47.54044" lon="6.76288">
        <ele>450.8</ele>
        <time>2014-06-08T09:14:35.000Z</time>
      </trkpt>
      <trkpt lat="47.54044" lon="6.76284">
        <ele>450.4</ele>
        <time>2014-06-08T09:14:36.000Z</time>
      </trkpt>
      <trkpt lat="47.54045" lon="6.7628">
        <ele>450.5</ele>
        <time>2014-06-08T09:14:37.000Z</time>
      </trkpt>
      <trkpt lat="47.54047" lon="6.76275">
        <ele>450.6</ele>
        <time>2014-06-08T09:14:38.000Z</time>
      </trkpt>
      <trkpt lat="47.54047" lon="6.76272">
        <ele>450.8</ele>
        <time>2014-06-08T09:14:38.998Z</time>
      </trkpt>
      <trkpt lat="47.54051" lon="6.76257">
        <ele>450.1</ele>
        <time>2014-06-08T09:14:42.000Z</time>
      </trkpt>
      <trkpt lat="47.54052" lon="6.76253">
        <ele>449.9</ele>
        <time>2014-06-08T09:14:43.000Z</time>
      </trkpt>
      <trkpt lat="47.54054" lon="6.76248">
        <ele>450.4</ele>
        <time>2014-06-08T09:14:44.000Z</time>
      </trkpt>
      <trkpt lat="47.54055" lon="6.76244">
        <ele>450.6</ele>
        <time>2014-06-08T09:14:45.000Z</time>
      </trkpt>
      <trkpt lat="47.54057" lon="6.76239">
        <ele>451.3</ele>
        <time>2014-06-08T09:14:46.000Z</time>
      </trkpt>
      <trkpt lat="47.54059" lon="6.76234">
        <ele>450.9</ele>
        <time>2014-06-08T09:14:47.000Z</time>
      </trkpt>
      <trkpt lat="47.54061" lon="6.76228">
        <ele>452.4</ele>
        <time>2014-06-08T09:14:48.000Z</time>
      </trkpt>
      <trkpt lat="47.54063" lon="6.76221">
        <ele>451.9</ele>
        <time>2014-06-08T09:14:49.000Z</time>
      </trkpt>
      <trkpt lat="47.54066" lon="6.76214">
        <ele>451.1</ele>
        <time>2014-06-08T09:14:50.000Z</time>
      </trkpt>
      <trkpt lat="47.54069" lon="6.76206">
        <ele>451.3</ele>
        <time>2014-06-08T09:14:51.000Z</time>
      </trkpt>
      <trkpt lat="47.54072" lon="6.76197">
        <ele>450.8</ele>
        <time>2014-06-08T09:14:52.000Z</time>
      </trkpt>
      <trkpt lat="47.54074" lon="6.76188">
        <ele>451.9</ele>
        <time>2014-06-08T09:14:53.000Z</time>
      </trkpt>
      <trkpt lat="47.54077" lon="6.76179">
        <ele>452</ele>
        <time>2014-06-08T09:14:54.000Z</time>
      </trkpt>
      <trkpt lat="47.54079" lon="6.76171">
        <ele>452</ele>
        <time>2014-06-08T09:14:55.000Z</time>
      </trkpt>
      <trkpt lat="47.54081" lon="6.76163">
        <ele>451.1</ele>
        <time>2014-06-08T09:14:56.000Z</time>
      </trkpt>
      <trkpt lat="47.54083" lon="6.76156">
        <ele>451.8</ele>
        <time>2014-06-08T09:14:57.000Z</time>
      </trkpt>
      <trkpt lat="47.54085" lon="6.7615">
        <ele>451.5</ele>
        <time>2014-06-08T09:14:58.000Z</time>
      </trkpt>
      <trkpt lat="47.54086" lon="6.76143">
        <ele>451.3</ele>
        <time>2014-06-08T09:14:59.000Z</time>
      </trkpt>
      <trkpt lat="47.54087" lon="6.76137">
        <ele>450.1</ele>
        <time>2014-06-08T09:15:00.000Z</time>
      </trkpt>
      <trkpt lat="47.54087" lon="6.7613">
        <ele>449.2</ele>
        <time>2014-06-08T09:15:01.000Z</time>
      </trkpt>
      <trkpt lat="47.54087" lon="6.76123">
        <ele>448.5</ele>
        <time>2014-06-08T09:15:02.000Z</time>
      </trkpt>
      <trkpt lat="47.54087" lon="6.76117">
        <ele>448.5</ele>
        <time>2014-06-08T09:15:03.000Z</time>
      </trkpt>
      <trkpt lat="47.54088" lon="6.7611">
        <ele>449.7</ele>
        <time>2014-06-08T09:15:04.000Z</time>
      </trkpt>
      <trkpt lat="47.54089" lon="6.76103">
        <ele>446.5</ele>
        <time>2014-06-08T09:15:05.000Z</time>
      </trkpt>
      <trkpt lat="47.54091" lon="6.76095">
        <ele>444.6</ele>
        <time>2014-06-08T09:15:06.000Z</time>
      </trkpt>
      <trkpt lat="47.54093" lon="6.76088">
        <ele>444.3</ele>
        <time>2014-06-08T09:15:07.000Z</time>
      </trkpt>
      <trkpt lat="47.54096" lon="6.76081">
        <ele>443.5</ele>
        <time>2014-06-08T09:15:08.000Z</time>
      </trkpt>
      <trkpt lat="47.54099" lon="6.76074">
        <ele>443.2</ele>
        <time>2014-06-08T09:15:09.000Z</time>
      </trkpt>
      <trkpt lat="47.54101" lon="6.76066">
        <ele>442.7</ele>
        <time>2014-06-08T09:15:10.000Z</time>
      </trkpt>
      <trkpt lat="47.54103" lon="6.76059">
        <ele>442.4</ele>
        <time>2014-06-08T09:15:11.000Z</time>
      </trkpt>
      <trkpt lat="47.54105" lon="6.76052">
        <ele>443.4</ele>
        <time>2014-06-08T09:15:12.000Z</time>
      </trkpt>
      <trkpt lat="47.54106" lon="6.76046">
        <ele>442.9</ele>
        <time>2014-06-08T09:15:13.000Z</time>
      </trkpt>
      <trkpt lat="47.54107" lon="6.7604">
        <ele>443</ele>
        <time>2014-06-08T09:15:14.000Z</time>
      </trkpt>
      <trkpt lat="47.54108" lon="6.76035">
        <ele>443.3</ele>
        <time>2014-06-08T09:15:15.000Z</time>
      </trkpt>
      <trkpt lat="47.5411" lon="6.7603">
        <ele>443.3</ele>
        <time>2014-06-08T09:15:16.000Z</time>
      </trkpt>
      <trkpt lat="47.54111" lon="6.76025">
        <ele>443.9</ele>
        <time>2014-06-08T09:15:17.000Z</time>
      </trkpt>
      <trkpt lat="47.54113" lon="6.7602">
        <ele>444.6</ele>
        <time>2014-06-08T09:15:18.000Z</time>
      </trkpt>
      <trkpt lat="47.54114" lon="6.76015">
        <ele>445.1</ele>
        <time>2014-06-08T09:15:19.000Z</time>
      </trkpt>
      <trkpt lat="47.54116" lon="6.76009">
        <ele>446</ele>
        <time>2014-06-08T09:15:20.000Z</time>
      </trkpt>
      <trkpt lat="47.54118" lon="6.76004">
        <ele>446.2</ele>
        <time>2014-06-08T09:15:21.000Z</time>
      </trkpt>
      <trkpt lat="47.54119" lon="6.75998">
        <ele>446</ele>
        <time>2014-06-08T09:15:22.000Z</time>
      </trkpt>
      <trkpt lat="47.5412" lon="6.75993">
        <ele>445.4</ele>
        <time>2014-06-08T09:15:23.000Z</time>
      </trkpt>
      <trkpt lat="47.54122" lon="6.75987">
        <ele>445.6</ele>
        <time>2014-06-08T09:15:24.000Z</time>
      </trkpt>
      <trkpt lat="47.54123" lon="6.75981">
        <ele>445.6</ele>
        <time>2014-06-08T09:15:25.000Z</time>
      </trkpt>
      <trkpt lat="47.54124" lon="6.75975">
        <ele>445.8</ele>
        <time>2014-06-08T09:15:26.000Z</time>
      </trkpt>
      <trkpt lat="47.54125" lon="6.75969">
        <ele>446.2</ele>
        <time>2014-06-08T09:15:27.000Z</time>
      </trkpt>
      <trkpt lat="47.54125" lon="6.75964">
        <ele>446.6</ele>
        <time>2014-06-08T09:15:28.000Z</time>
      </trkpt>
      <trkpt lat="47.54126" lon="6.75959">
        <ele>447.2</ele>
        <time>2014-06-08T09:15:29.000Z</time>
      </trkpt>
      <trkpt lat="47.54127" lon="6.75953">
        <ele>446.8</ele>
        <time>2014-06-08T09:15:30.000Z</time>
      </trkpt>
      <trkpt lat="47.54127" lon="6.75949">
        <ele>445.6</ele>
        <time>2014-06-08T09:15:31.000Z</time>
      </trkpt>
      <trkpt lat="47.54127" lon="6.75943">
        <ele>444</ele>
        <time>2014-06-08T09:15:32.000Z</time>
      </trkpt>
      <trkpt lat="47.54127" lon="6.75938">
        <ele>443.6</ele>
        <time>2014-06-08T09:15:33.000Z</time>
      </trkpt>
      <trkpt lat="47.54127" lon="6.75932">
        <ele>444.6</ele>
        <time>2014-06-08T09:15:34.000Z</time>
      </trkpt>
      <trkpt lat="47.54126" lon="6.75926">
        <ele>444.7</ele>
        <time>2014-06-08T09:15:35.000Z</time>
      </trkpt>
      <trkpt lat="47.54126" lon="6.75921">
        <ele>445.5</ele>
        <time>2014-06-08T09:15:36.000Z</time>
      </trkpt>
      <trkpt lat="47.54126" lon="6.75915">
        <ele>445.7</ele>
        <time>2014-06-08T09:15:37.000Z</time>
      </trkpt>
      <trkpt lat="47.54127" lon="6.75908">
        <ele>445.1</ele>
        <time>2014-06-08T09:15:38.000Z</time>
      </trkpt>
      <trkpt lat="47.54127" lon="6.75902">
        <ele>444.7</ele>
        <time>2014-06-08T09:15:39.000Z</time>
      </trkpt>
      <trkpt lat="47.54127" lon="6.75892">
        <ele>444.8</ele>
        <time>2014-06-08T09:15:41.272Z</time>
      </trkpt>
      <trkpt lat="47.54127" lon="6.75888">
        <ele>444.8</ele>
        <time>2014-06-08T09:15:42.000Z</time>
      </trkpt>
      <trkpt lat="47.54128" lon="6.75867">
        <ele>445.9</ele>
        <time>2014-06-08T09:15:46.000Z</time>
      </trkpt>
      <trkpt lat="47.54131" lon="6.75859">
        <ele>448.4</ele>
        <time>2014-06-08T09:15:47.000Z</time>
      </trkpt>
      <trkpt lat="47.54133" lon="6.7585">
        <ele>449</ele>
        <time>2014-06-08T09:15:48.000Z</time>
      </trkpt>
      <trkpt lat="47.54136" lon="6.75841">
        <ele>448.7</ele>
        <time>2014-06-08T09:15:49.000Z</time>
      </trkpt>
      <trkpt lat="47.54138" lon="6.75832">
        <ele>448.7</ele>
        <time>2014-06-08T09:15:50.000Z</time>
      </trkpt>
      <trkpt lat="47.5414" lon="6.75826">
        <ele>446.5</ele>
        <time>2014-06-08T09:15:51.000Z</time>
      </trkpt>
      <trkpt lat="47.54141" lon="6.75822">
        <ele>446.4</ele>
        <time>2014-06-08T09:15:52.000Z</time>
      </trkpt>
      <trkpt lat="47.54142" lon="6.75816">
        <ele>436</ele>
        <time>2014-06-08T09:16:33.000Z</time>
      </trkpt>
      <trkpt lat="47.54142" lon="6.75815">
        <ele>436</ele>
        <time>2014-06-08T09:16:34.000Z</time>
      </trkpt>
      <trkpt lat="47.54145" lon="6.75812">
        <ele>440.1</ele>
        <time>2014-06-08T09:18:14.000Z</time>
      </trkpt>
      <trkpt lat="47.54147" lon="6.7581">
        <ele>440.9</ele>
        <time>2014-06-08T09:18:15.000Z</time>
      </trkpt>
      <trkpt lat="47.54149" lon="6.75806">
        <ele>442.5</ele>
        <time>2014-06-08T09:18:17.000Z</time>
      </trkpt>
      <trkpt lat="47.5415" lon="6.75803">
        <ele>441.7</ele>
        <time>2014-06-08T09:18:18.000Z</time>
      </trkpt>
      <trkpt lat="47.54152" lon="6.758">
        <ele>441.8</ele>
        <time>2014-06-08T09:18:19.000Z</time>
      </trkpt>
      <trkpt lat="47.54153" lon="6.75796">
        <ele>442.3</ele>
        <time>2014-06-08T09:18:20.000Z</time>
      </trkpt>
      <trkpt lat="47.54155" lon="6.75792">
        <ele>442.8</ele>
        <time>2014-06-08T09:18:21.000Z</time>
      </trkpt>
      <trkpt lat="47.54156" lon="6.75788">
        <ele>442.3</ele>
        <time>2014-06-08T09:18:22.000Z</time>
      </trkpt>
      <trkpt lat="47.54158" lon="6.75784">
        <ele>444.1</ele>
        <time>2014-06-08T09:18:23.000Z</time>
      </trkpt>
      <trkpt lat="47.54159" lon="6.75781">
        <ele>444</ele>
        <time>2014-06-08T09:18:24.000Z</time>
      </trkpt>
      <trkpt lat="47.54161" lon="6.75777">
        <ele>444</ele>
        <time>2014-06-08T09:18:25.000Z</time>
      </trkpt>
      <trkpt lat="47.54162" lon="6.75774">
        <ele>444</ele>
        <time>2014-06-08T09:18:26.000Z</time>
      </trkpt>
      <trkpt lat="47.54163" lon="6.75771">
        <ele>444.7</ele>
        <time>2014-06-08T09:18:27.000Z</time>
      </trkpt>
      <trkpt lat="47.54164" lon="6.75767">
        <ele>443.3</ele>
        <time>2014-06-08T09:18:28.000Z</time>
      </trkpt>
      <trkpt lat="47.54165" lon="6.75763">
        <ele>444.2</ele>
        <time>2014-06-08T09:18:29.000Z</time>
      </trkpt>
      <trkpt lat="47.54167" lon="6.75758">
        <ele>444.7</ele>
        <time>2014-06-08T09:18:30.000Z</time>
      </trkpt>
      <trkpt lat="47.54168" lon="6.75753">
        <ele>445.2</ele>
        <time>2014-06-08T09:18:31.000Z</time>
      </trkpt>
      <trkpt lat="47.54169" lon="6.7575">
        <ele>446.3</ele>
        <time>2014-06-08T09:18:32.000Z</time>
      </trkpt>
      <trkpt lat="47.5417" lon="6.75744">
        <ele>442</ele>
        <time>2014-06-08T09:18:34.000Z</time>
      </trkpt>
      <trkpt lat="47.54171" lon="6.7574">
        <ele>441</ele>
        <time>2014-06-08T09:18:35.000Z</time>
      </trkpt>
      <trkpt lat="47.54172" lon="6.75737">
        <ele>439.9</ele>
        <time>2014-06-08T09:18:36.000Z</time>
      </trkpt>
      <trkpt lat="47.54174" lon="6.75734">
        <ele>439.9</ele>
        <time>2014-06-08T09:18:37.000Z</time>
      </trkpt>
      <trkpt lat="47.54175" lon="6.7573">
        <ele>439.9</ele>
        <time>2014-06-08T09:18:38.000Z</time>
      </trkpt>
      <trkpt lat="47.54176" lon="6.75726">
        <ele>439.9</ele>
        <time>2014-06-08T09:18:39.000Z</time>
      </trkpt>
      <trkpt lat="47.54181" lon="6.7569">
        <ele>442</ele>
        <time>2014-06-08T09:18:46.735Z</time>
      </trkpt>
      <trkpt lat="47.54182" lon="6.75684">
        <ele>442</ele>
        <time>2014-06-08T09:18:48.000Z</time>
      </trkpt>
      <trkpt lat="47.54183" lon="6.7568">
        <ele>444.4</ele>
        <time>2014-06-08T09:18:49.000Z</time>
      </trkpt>
      <trkpt lat="47.54184" lon="6.75676">
        <ele>445.2</ele>
        <time>2014-06-08T09:18:50.000Z</time>
      </trkpt>
      <trkpt lat="47.54185" lon="6.75672">
        <ele>446.5</ele>
        <time>2014-06-08T09:18:51.000Z</time>
      </trkpt>
      <trkpt lat="47.54187" lon="6.75667">
        <ele>446.6</ele>
        <time>2014-06-08T09:18:52.000Z</time>
      </trkpt>
      <trkpt lat="47.54189" lon="6.75662">
        <ele>444.4</ele>
        <time>2014-06-08T09:18:53.000Z</time>
      </trkpt>
      <trkpt lat="47.5419" lon="6.75658">
        <ele>444.8</ele>
        <time>2014-06-08T09:18:54.000Z</time>
      </trkpt>
      <trkpt lat="47.54191" lon="6.75654">
        <ele>445.5</ele>
        <time>2014-06-08T09:18:55.000Z</time>
      </trkpt>
      <trkpt lat="47.54193" lon="6.7565">
        <ele>445.3</ele>
        <time>2014-06-08T09:18:56.000Z</time>
      </trkpt>
      <trkpt lat="47.54194" lon="6.75647">
        <ele>445.8</ele>
        <time>2014-06-08T09:18:57.000Z</time>
      </trkpt>
      <trkpt lat="47.54194" lon="6.75644">
        <ele>446.5</ele>
        <time>2014-06-08T09:18:58.000Z</time>
      </trkpt>
      <trkpt lat="47.54195" lon="6.7564">
        <ele>447.9</ele>
        <time>2014-06-08T09:18:59.000Z</time>
      </trkpt>
      <trkpt lat="47.54196" lon="6.75636">
        <ele>448.8</ele>
        <time>2014-06-08T09:19:00.000Z</time>
      </trkpt>
      <trkpt lat="47.54197" lon="6.75632">
        <ele>448.7</ele>
        <time>2014-06-08T09:19:01.000Z</time>
      </trkpt>
      <trkpt lat="47.54198" lon="6.75628">
        <ele>448.9</ele>
        <time>2014-06-08T09:19:02.000Z</time>
      </trkpt>
      <trkpt lat="47.54199" lon="6.75623">
        <ele>449.4</ele>
        <time>2014-06-08T09:19:03.000Z</time>
      </trkpt>
      <trkpt lat="47.542" lon="6.75618">
        <ele>450.1</ele>
        <time>2014-06-08T09:19:04.000Z</time>
      </trkpt>
      <trkpt lat="47.54201" lon="6.75614">
        <ele>451</ele>
        <time>2014-06-08T09:19:05.000Z</time>
      </trkpt>
      <trkpt lat="47.54202" lon="6.75609">
        <ele>452.5</ele>
        <time>2014-06-08T09:19:06.000Z</time>
      </trkpt>
      <trkpt lat="47.54203" lon="6.75605">
        <ele>453.7</ele>
        <time>2014-06-08T09:19:07.000Z</time>
      </trkpt>
      <trkpt lat="47.54204" lon="6.75602">
        <ele>453.5</ele>
        <time>2014-06-08T09:19:08.000Z</time>
      </trkpt>
      <trkpt lat="47.54205" lon="6.75599">
        <ele>454.2</ele>
        <time>2014-06-08T09:19:09.000Z</time>
      </trkpt>
      <trkpt lat="47.54207" lon="6.75596">
        <ele>453.8</ele>
        <time>2014-06-08T09:19:10.000Z</time>
      </trkpt>
      <trkpt lat="47.54208" lon="6.75593">
        <ele>453.9</ele>
        <time>2014-06-08T09:19:11.000Z</time>
      </trkpt>
      <trkpt lat="47.54209" lon="6.7559">
        <ele>453.6</ele>
        <time>2014-06-08T09:19:12.000Z</time>
      </trkpt>
      <trkpt lat="47.54211" lon="6.75586">
        <ele>457</ele>
        <time>2014-06-08T09:19:13.000Z</time>
      </trkpt>
      <trkpt lat="47.54213" lon="6.75582">
        <ele>458.6</ele>
        <time>2014-06-08T09:19:14.000Z</time>
      </trkpt>
      <trkpt lat="47.54215" lon="6.75577">
        <ele>459</ele>
        <time>2014-06-08T09:19:15.000Z</time>
      </trkpt>
      <trkpt lat="47.54217" lon="6.75573">
        <ele>459.4</ele>
        <time>2014-06-08T09:19:16.000Z</time>
      </trkpt>
      <trkpt lat="47.54219" lon="6.75569">
        <ele>460.5</ele>
        <time>2014-06-08T09:19:17.000Z</time>
      </trkpt>
      <trkpt lat="47.5422" lon="6.75566">
        <ele>461.6</ele>
        <time>2014-06-08T09:19:18.000Z</time>
      </trkpt>
      <trkpt lat="47.54221" lon="6.75563">
        <ele>462</ele>
        <time>2014-06-08T09:19:19.000Z</time>
      </trkpt>
      <trkpt lat="47.54223" lon="6.75557">
        <ele>462.4</ele>
        <time>2014-06-08T09:19:21.000Z</time>
      </trkpt>
      <trkpt lat="47.54224" lon="6.75555">
        <ele>462.7</ele>
        <time>2014-06-08T09:19:22.000Z</time>
      </trkpt>
      <trkpt lat="47.54225" lon="6.75551">
        <ele>460.8</ele>
        <time>2014-06-08T09:19:23.000Z</time>
      </trkpt>
      <trkpt lat="47.54226" lon="6.75548">
        <ele>460.8</ele>
        <time>2014-06-08T09:19:24.000Z</time>
      </trkpt>
      <trkpt lat="47.54228" lon="6.75542">
        <ele>461</ele>
        <time>2014-06-08T09:19:26.000Z</time>
      </trkpt>
      <trkpt lat="47.54229" lon="6.7554">
        <ele>463.5</ele>
        <time>2014-06-08T09:19:27.000Z</time>
      </trkpt>
      <trkpt lat="47.5423" lon="6.75534">
        <ele>465</ele>
        <time>2014-06-08T09:19:29.000Z</time>
      </trkpt>
      <trkpt lat="47.54231" lon="6.75533">
        <ele>465.6</ele>
        <time>2014-06-08T09:19:29.998Z</time>
      </trkpt>
      <trkpt lat="47.54232" lon="6.75529">
        <ele>465.4</ele>
        <time>2014-06-08T09:19:31.000Z</time>
      </trkpt>
      <trkpt lat="47.54233" lon="6.75526">
        <ele>464.4</ele>
        <time>2014-06-08T09:19:32.000Z</time>
      </trkpt>
      <trkpt lat="47.54233" lon="6.75521">
        <ele>463.8</ele>
        <time>2014-06-08T09:19:34.000Z</time>
      </trkpt>
      <trkpt lat="47.54233" lon="6.75518">
        <ele>463.4</ele>
        <time>2014-06-08T09:19:35.000Z</time>
      </trkpt>
      <trkpt lat="47.54234" lon="6.75515">
        <ele>464.1</ele>
        <time>2014-06-08T09:19:36.000Z</time>
      </trkpt>
      <trkpt lat="47.54235" lon="6.75512">
        <ele>463.9</ele>
        <time>2014-06-08T09:19:37.000Z</time>
      </trkpt>
      <trkpt lat="47.54236" lon="6.75508">
        <ele>465.2</ele>
        <time>2014-06-08T09:19:38.000Z</time>
      </trkpt>
      <trkpt lat="47.54238" lon="6.75505">
        <ele>465.7</ele>
        <time>2014-06-08T09:19:39.000Z</time>
      </trkpt>
      <trkpt lat="47.54242" lon="6.75496">
        <ele>467.7</ele>
        <time>2014-06-08T09:19:42.000Z</time>
      </trkpt>
      <trkpt lat="47.54244" lon="6.75493">
        <ele>469</ele>
        <time>2014-06-08T09:19:43.000Z</time>
      </trkpt>
      <trkpt lat="47.54245" lon="6.7549">
        <ele>468.2</ele>
        <time>2014-06-08T09:19:44.000Z</time>
      </trkpt>
      <trkpt lat="47.54247" lon="6.75487">
        <ele>467.4</ele>
        <time>2014-06-08T09:19:45.000Z</time>
      </trkpt>
      <trkpt lat="47.54249" lon="6.75483">
        <ele>467</ele>
        <time>2014-06-08T09:19:46.000Z</time>
      </trkpt>
      <trkpt lat="47.5425" lon="6.75481">
        <ele>467.5</ele>
        <time>2014-06-08T09:19:47.000Z</time>
      </trkpt>
      <trkpt lat="47.54251" lon="6.75478">
        <ele>466.4</ele>
        <time>2014-06-08T09:19:48.000Z</time>
      </trkpt>
      <trkpt lat="47.54253" lon="6.75473">
        <ele>467.6</ele>
        <time>2014-06-08T09:19:50.000Z</time>
      </trkpt>
      <trkpt lat="47.54253" lon="6.75471">
        <ele>468</ele>
        <time>2014-06-08T09:19:51.000Z</time>
      </trkpt>
      <trkpt lat="47.54254" lon="6.75466">
        <ele>469.8</ele>
        <time>2014-06-08T09:19:53.000Z</time>
      </trkpt>
      <trkpt lat="47.54254" lon="6.75463">
        <ele>470.2</ele>
        <time>2014-06-08T09:19:54.000Z</time>
      </trkpt>
      <trkpt lat="47.54256" lon="6.75459">
        <ele>469.9</ele>
        <time>2014-06-08T09:19:55.000Z</time>
      </trkpt>
      <trkpt lat="47.54257" lon="6.75455">
        <ele>470.4</ele>
        <time>2014-06-08T09:19:56.000Z</time>
      </trkpt>
      <trkpt lat="47.54258" lon="6.75451">
        <ele>469.9</ele>
        <time>2014-06-08T09:19:57.000Z</time>
      </trkpt>
      <trkpt lat="47.5426" lon="6.75447">
        <ele>468.5</ele>
        <time>2014-06-08T09:19:58.000Z</time>
      </trkpt>
      <trkpt lat="47.54262" lon="6.75443">
        <ele>468.2</ele>
        <time>2014-06-08T09:19:59.000Z</time>
      </trkpt>
      <trkpt lat="47.54264" lon="6.7544">
        <ele>467.2</ele>
        <time>2014-06-08T09:20:00.000Z</time>
      </trkpt>
      <trkpt lat="47.54265" lon="6.75436">
        <ele>467.8</ele>
        <time>2014-06-08T09:20:01.000Z</time>
      </trkpt>
      <trkpt lat="47.54267" lon="6.75432">
        <ele>468.8</ele>
        <time>2014-06-08T09:20:02.000Z</time>
      </trkpt>
      <trkpt lat="47.54269" lon="6.75427">
        <ele>472</ele>
        <time>2014-06-08T09:20:03.000Z</time>
      </trkpt>
      <trkpt lat="47.5427" lon="6.75422">
        <ele>473.3</ele>
        <time>2014-06-08T09:20:04.000Z</time>
      </trkpt>
      <trkpt lat="47.54272" lon="6.75417">
        <ele>474</ele>
        <time>2014-06-08T09:20:05.000Z</time>
      </trkpt>
      <trkpt lat="47.54274" lon="6.75412">
        <ele>474</ele>
        <time>2014-06-08T09:20:06.000Z</time>
      </trkpt>
      <trkpt lat="47.54276" lon="6.75408">
        <ele>474.5</ele>
        <time>2014-06-08T09:20:07.000Z</time>
      </trkpt>
      <trkpt lat="47.54278" lon="6.75405">
        <ele>474.7</ele>
        <time>2014-06-08T09:20:08.000Z</time>
      </trkpt>
      <trkpt lat="47.5428" lon="6.75401">
        <ele>475.1</ele>
        <time>2014-06-08T09:20:09.000Z</time>
      </trkpt>
      <trkpt lat="47.54282" lon="6.75398">
        <ele>475.3</ele>
        <time>2014-06-08T09:20:10.000Z</time>
      </trkpt>
      <trkpt lat="47.54284" lon="6.75394">
        <ele>475.4</ele>
        <time>2014-06-08T09:20:11.000Z</time>
      </trkpt>
      <trkpt lat="47.54286" lon="6.7539">
        <ele>475.3</ele>
        <time>2014-06-08T09:20:12.000Z</time>
      </trkpt>
      <trkpt lat="47.54287" lon="6.75387">
        <ele>475.2</ele>
        <time>2014-06-08T09:20:13.000Z</time>
      </trkpt>
      <trkpt lat="47.54288" lon="6.75383">
        <ele>474</ele>
        <time>2014-06-08T09:20:14.000Z</time>
      </trkpt>
      <trkpt lat="47.54291" lon="6.75378">
        <ele>474.7</ele>
        <time>2014-06-08T09:20:16.000Z</time>
      </trkpt>
      <trkpt lat="47.54292" lon="6.75376">
        <ele>474.6</ele>
        <time>2014-06-08T09:20:17.000Z</time>
      </trkpt>
      <trkpt lat="47.54294" lon="6.75372">
        <ele>475.1</ele>
        <time>2014-06-08T09:20:19.000Z</time>
      </trkpt>
      <trkpt lat="47.54295" lon="6.7537">
        <ele>474.9</ele>
        <time>2014-06-08T09:20:20.000Z</time>
      </trkpt>
      <trkpt lat="47.54296" lon="6.75367">
        <ele>478.3</ele>
        <time>2014-06-08T09:20:21.000Z</time>
      </trkpt>
      <trkpt lat="47.54298" lon="6.75364">
        <ele>477.9</ele>
        <time>2014-06-08T09:20:22.000Z</time>
      </trkpt>
      <trkpt lat="47.54299" lon="6.75361">
        <ele>477.9</ele>
        <time>2014-06-08T09:20:23.000Z</time>
      </trkpt>
      <trkpt lat="47.543" lon="6.75358">
        <ele>478</ele>
        <time>2014-06-08T09:20:24.000Z</time>
      </trkpt>
      <trkpt lat="47.54302" lon="6.75354">
        <ele>478.7</ele>
        <time>2014-06-08T09:20:25.999Z</time>
      </trkpt>
      <trkpt lat="47.54304" lon="6.75351">
        <ele>479.6</ele>
        <time>2014-06-08T09:20:27.000Z</time>
      </trkpt>
      <trkpt lat="47.54306" lon="6.75348">
        <ele>481.3</ele>
        <time>2014-06-08T09:20:28.000Z</time>
      </trkpt>
      <trkpt lat="47.54308" lon="6.75344">
        <ele>482.1</ele>
        <time>2014-06-08T09:20:29.000Z</time>
      </trkpt>
      <trkpt lat="47.5431" lon="6.75341">
        <ele>483.3</ele>
        <time>2014-06-08T09:20:30.000Z</time>
      </trkpt>
      <trkpt lat="47.54312" lon="6.75337">
        <ele>483.5</ele>
        <time>2014-06-08T09:20:31.000Z</time>
      </trkpt>
      <trkpt lat="47.54313" lon="6.75334">
        <ele>481.1</ele>
        <time>2014-06-08T09:20:32.000Z</time>
      </trkpt>
      <trkpt lat="47.54314" lon="6.75331">
        <ele>480.4</ele>
        <time>2014-06-08T09:20:33.000Z</time>
      </trkpt>
      <trkpt lat="47.54316" lon="6.75326">
        <ele>479.9</ele>
        <time>2014-06-08T09:20:35.000Z</time>
      </trkpt>
      <trkpt lat="47.54317" lon="6.75324">
        <ele>479.7</ele>
        <time>2014-06-08T09:20:36.000Z</time>
      </trkpt>
      <trkpt lat="47.5432" lon="6.75322">
        <ele>481.7</ele>
        <time>2014-06-08T09:20:38.000Z</time>
      </trkpt>
      <trkpt lat="47.54321" lon="6.75321">
        <ele>481.5</ele>
        <time>2014-06-08T09:20:39.000Z</time>
      </trkpt>
      <trkpt lat="47.54323" lon="6.75319">
        <ele>481.5</ele>
        <time>2014-06-08T09:20:40.000Z</time>
      </trkpt>
      <trkpt lat="47.54326" lon="6.75316">
        <ele>481.7</ele>
        <time>2014-06-08T09:20:43.000Z</time>
      </trkpt>
      <trkpt lat="47.5433" lon="6.75314">
        <ele>480.1</ele>
        <time>2014-06-08T09:20:46.000Z</time>
      </trkpt>
      <trkpt lat="47.54332" lon="6.75312">
        <ele>478.8</ele>
        <time>2014-06-08T09:20:47.000Z</time>
      </trkpt>
      <trkpt lat="47.54335" lon="6.7531">
        <ele>475.1</ele>
        <time>2014-06-08T09:20:48.000Z</time>
      </trkpt>
      <trkpt lat="47.54339" lon="6.75307">
        <ele>475.3</ele>
        <time>2014-06-08T09:20:49.000Z</time>
      </trkpt>
      <trkpt lat="47.54343" lon="6.75302">
        <ele>475.4</ele>
        <time>2014-06-08T09:20:50.000Z</time>
      </trkpt>
      <trkpt lat="47.54346" lon="6.75297">
        <ele>475.6</ele>
        <time>2014-06-08T09:20:51.000Z</time>
      </trkpt>
      <trkpt lat="47.5435" lon="6.75291">
        <ele>474.7</ele>
        <time>2014-06-08T09:20:52.000Z</time>
      </trkpt>
      <trkpt lat="47.54353" lon="6.75285">
        <ele>475.5</ele>
        <time>2014-06-08T09:20:53.000Z</time>
      </trkpt>
      <trkpt lat="47.54356" lon="6.75278">
        <ele>476.9</ele>
        <time>2014-06-08T09:20:54.000Z</time>
      </trkpt>
      <trkpt lat="47.54359" lon="6.75272">
        <ele>477.1</ele>
        <time>2014-06-08T09:20:55.000Z</time>
      </trkpt>
      <trkpt lat="47.54362" lon="6.75266">
        <ele>477.2</ele>
        <time>2014-06-08T09:20:56.000Z</time>
      </trkpt>
      <trkpt lat="47.54365" lon="6.75261">
        <ele>477.7</ele>
        <time>2014-06-08T09:20:57.000Z</time>
      </trkpt>
      <trkpt lat="47.54367" lon="6.75256">
        <ele>478.2</ele>
        <time>2014-06-08T09:20:58.000Z</time>
      </trkpt>
      <trkpt lat="47.54369" lon="6.75253">
        <ele>479</ele>
        <time>2014-06-08T09:20:59.000Z</time>
      </trkpt>
      <trkpt lat="47.5437" lon="6.75249">
        <ele>479.1</ele>
        <time>2014-06-08T09:21:00.000Z</time>
      </trkpt>
      <trkpt lat="47.54372" lon="6.75246">
        <ele>481.1</ele>
        <time>2014-06-08T09:21:01.000Z</time>
      </trkpt>
      <trkpt lat="47.54374" lon="6.75244">
        <ele>483.2</ele>
        <time>2014-06-08T09:21:02.000Z</time>
      </trkpt>
      <trkpt lat="47.54376" lon="6.75241">
        <ele>483.5</ele>
        <time>2014-06-08T09:21:04.000Z</time>
      </trkpt>
      <trkpt lat="47.54378" lon="6.7524">
        <ele>485.1</ele>
        <time>2014-06-08T09:21:05.000Z</time>
      </trkpt>
      <trkpt lat="47.54379" lon="6.75238">
        <ele>485.9</ele>
        <time>2014-06-08T09:21:06.000Z</time>
      </trkpt>
      <trkpt lat="47.54381" lon="6.75235">
        <ele>487.2</ele>
        <time>2014-06-08T09:21:07.000Z</time>
      </trkpt>
      <trkpt lat="47.54383" lon="6.75232">
        <ele>487.6</ele>
        <time>2014-06-08T09:21:08.000Z</time>
      </trkpt>
      <trkpt lat="47.54386" lon="6.75228">
        <ele>487.7</ele>
        <time>2014-06-08T09:21:09.000Z</time>
      </trkpt>
      <trkpt lat="47.54388" lon="6.75226">
        <ele>486.6</ele>
        <time>2014-06-08T09:21:10.000Z</time>
      </trkpt>
      <trkpt lat="47.5439" lon="6.75223">
        <ele>486.6</ele>
        <time>2014-06-08T09:21:11.000Z</time>
      </trkpt>
      <trkpt lat="47.54393" lon="6.75221">
        <ele>487.6</ele>
        <time>2014-06-08T09:21:12.000Z</time>
      </trkpt>
      <trkpt lat="47.54397" lon="6.75218">
        <ele>487.2</ele>
        <time>2014-06-08T09:21:13.000Z</time>
      </trkpt>
      <trkpt lat="47.544" lon="6.75215">
        <ele>487</ele>
        <time>2014-06-08T09:21:14.000Z</time>
      </trkpt>
      <trkpt lat="47.54403" lon="6.75212">
        <ele>486.8</ele>
        <time>2014-06-08T09:21:15.000Z</time>
      </trkpt>
      <trkpt lat="47.54406" lon="6.75209">
        <ele>486.7</ele>
        <time>2014-06-08T09:21:16.000Z</time>
      </trkpt>
      <trkpt lat="47.54409" lon="6.75206">
        <ele>487.1</ele>
        <time>2014-06-08T09:21:17.000Z</time>
      </trkpt>
      <trkpt lat="47.54412" lon="6.75203">
        <ele>491.2</ele>
        <time>2014-06-08T09:21:18.000Z</time>
      </trkpt>
      <trkpt lat="47.54415" lon="6.752">
        <ele>491.7</ele>
        <time>2014-06-08T09:21:19.000Z</time>
      </trkpt>
      <trkpt lat="47.54418" lon="6.75197">
        <ele>491.2</ele>
        <time>2014-06-08T09:21:20.000Z</time>
      </trkpt>
      <trkpt lat="47.5442" lon="6.75194">
        <ele>490.5</ele>
        <time>2014-06-08T09:21:21.000Z</time>
      </trkpt>
      <trkpt lat="47.54423" lon="6.75191">
        <ele>489.1</ele>
        <time>2014-06-08T09:21:22.000Z</time>
      </trkpt>
      <trkpt lat="47.54425" lon="6.75189">
        <ele>489</ele>
        <time>2014-06-08T09:21:23.000Z</time>
      </trkpt>
      <trkpt lat="47.54427" lon="6.75186">
        <ele>488</ele>
        <time>2014-06-08T09:21:24.000Z</time>
      </trkpt>
      <trkpt lat="47.54429" lon="6.75182">
        <ele>486.4</ele>
        <time>2014-06-08T09:21:25.000Z</time>
      </trkpt>
      <trkpt lat="47.54432" lon="6.75178">
        <ele>486.8</ele>
        <time>2014-06-08T09:21:26.000Z</time>
      </trkpt>
      <trkpt lat="47.54434" lon="6.75175">
        <ele>486.9</ele>
        <time>2014-06-08T09:21:27.000Z</time>
      </trkpt>
      <trkpt lat="47.54437" lon="6.75171">
        <ele>486.8</ele>
        <time>2014-06-08T09:21:28.000Z</time>
      </trkpt>
      <trkpt lat="47.5444" lon="6.75167">
        <ele>487</ele>
        <time>2014-06-08T09:21:29.000Z</time>
      </trkpt>
      <trkpt lat="47.54443" lon="6.75164">
        <ele>486.1</ele>
        <time>2014-06-08T09:21:30.000Z</time>
      </trkpt>
      <trkpt lat="47.54445" lon="6.75161">
        <ele>487.2</ele>
        <time>2014-06-08T09:21:31.000Z</time>
      </trkpt>
      <trkpt lat="47.54448" lon="6.75158">
        <ele>489</ele>
        <time>2014-06-08T09:21:32.000Z</time>
      </trkpt>
      <trkpt lat="47.54451" lon="6.75156">
        <ele>489.9</ele>
        <time>2014-06-08T09:21:33.000Z</time>
      </trkpt>
      <trkpt lat="47.54454" lon="6.75155">
        <ele>491.9</ele>
        <time>2014-06-08T09:21:34.000Z</time>
      </trkpt>
      <trkpt lat="47.54456" lon="6.75153">
        <ele>492.4</ele>
        <time>2014-06-08T09:21:35.000Z</time>
      </trkpt>
      <trkpt lat="47.5446" lon="6.7515">
        <ele>492.5</ele>
        <time>2014-06-08T09:21:36.000Z</time>
      </trkpt>
      <trkpt lat="47.54463" lon="6.75148">
        <ele>491.7</ele>
        <time>2014-06-08T09:21:37.000Z</time>
      </trkpt>
      <trkpt lat="47.54466" lon="6.75145">
        <ele>490.6</ele>
        <time>2014-06-08T09:21:38.000Z</time>
      </trkpt>
      <trkpt lat="47.54468" lon="6.75143">
        <ele>489.7</ele>
        <time>2014-06-08T09:21:39.000Z</time>
      </trkpt>
      <trkpt lat="47.54471" lon="6.7514">
        <ele>488.8</ele>
        <time>2014-06-08T09:21:40.000Z</time>
      </trkpt>
      <trkpt lat="47.54477" lon="6.75132">
        <ele>483.7</ele>
        <time>2014-06-08T09:21:43.000Z</time>
      </trkpt>
      <trkpt lat="47.5448" lon="6.75128">
        <ele>486.9</ele>
        <time>2014-06-08T09:21:44.000Z</time>
      </trkpt>
      <trkpt lat="47.54489" lon="6.75116">
        <ele>488.6</ele>
        <time>2014-06-08T09:21:45.000Z</time>
      </trkpt>
      <trkpt lat="47.54496" lon="6.75113">
        <ele>488</ele>
        <time>2014-06-08T09:21:46.000Z</time>
      </trkpt>
      <trkpt lat="47.54501" lon="6.75108">
        <ele>487.9</ele>
        <time>2014-06-08T09:21:47.000Z</time>
      </trkpt>
      <trkpt lat="47.54507" lon="6.75104">
        <ele>487</ele>
        <time>2014-06-08T09:21:48.000Z</time>
      </trkpt>
      <trkpt lat="47.54512" lon="6.75101">
        <ele>486.2</ele>
        <time>2014-06-08T09:21:49.000Z</time>
      </trkpt>
      <trkpt lat="47.54519" lon="6.75097">
        <ele>482.6</ele>
        <time>2014-06-08T09:21:50.000Z</time>
      </trkpt>
      <trkpt lat="47.54525" lon="6.75092">
        <ele>480.4</ele>
        <time>2014-06-08T09:21:51.000Z</time>
      </trkpt>
      <trkpt lat="47.54533" lon="6.75088">
        <ele>477.5</ele>
        <time>2014-06-08T09:21:52.000Z</time>
      </trkpt>
      <trkpt lat="47.54538" lon="6.75084">
        <ele>476.4</ele>
        <time>2014-06-08T09:21:53.000Z</time>
      </trkpt>
      <trkpt lat="47.54544" lon="6.75079">
        <ele>476.1</ele>
        <time>2014-06-08T09:21:54.001Z</time>
      </trkpt>
      <trkpt lat="47.5455" lon="6.75077">
        <ele>473.2</ele>
        <time>2014-06-08T09:21:55.000Z</time>
      </trkpt>
      <trkpt lat="47.54556" lon="6.75072">
        <ele>471.5</ele>
        <time>2014-06-08T09:21:56.000Z</time>
      </trkpt>
      <trkpt lat="47.54561" lon="6.75066">
        <ele>470.4</ele>
        <time>2014-06-08T09:21:57.000Z</time>
      </trkpt>
      <trkpt lat="47.54568" lon="6.75061">
        <ele>468.9</ele>
        <time>2014-06-08T09:21:58.000Z</time>
      </trkpt>
      <trkpt lat="47.54576" lon="6.75058">
        <ele>466.4</ele>
        <time>2014-06-08T09:21:59.000Z</time>
      </trkpt>
      <trkpt lat="47.5458" lon="6.75057">
        <ele>464.4</ele>
        <time>2014-06-08T09:22:00.000Z</time>
      </trkpt>
      <trkpt lat="47.54582" lon="6.75056">
        <ele>463.2</ele>
        <time>2014-06-08T09:22:01.000Z</time>
      </trkpt>
      <trkpt lat="47.54586" lon="6.75056">
        <ele>460.3</ele>
        <time>2014-06-08T09:22:24.000Z</time>
      </trkpt>
      <trkpt lat="47.54589" lon="6.75055">
        <ele>459.2</ele>
        <time>2014-06-08T09:22:25.000Z</time>
      </trkpt>
      <trkpt lat="47.54593" lon="6.75055">
        <ele>458.4</ele>
        <time>2014-06-08T09:22:26.000Z</time>
      </trkpt>
      <trkpt lat="47.54595" lon="6.75053">
        <ele>457.7</ele>
        <time>2014-06-08T09:22:27.000Z</time>
      </trkpt>
      <trkpt lat="47.54599" lon="6.75052">
        <ele>457.5</ele>
        <time>2014-06-08T09:22:28.000Z</time>
      </trkpt>
      <trkpt lat="47.54606" lon="6.75049">
        <ele>457.2</ele>
        <time>2014-06-08T09:22:29.000Z</time>
      </trkpt>
      <trkpt lat="47.5461" lon="6.75048">
        <ele>457.2</ele>
        <time>2014-06-08T09:22:30.000Z</time>
      </trkpt>
      <trkpt lat="47.54615" lon="6.75046">
        <ele>457.1</ele>
        <time>2014-06-08T09:22:31.000Z</time>
      </trkpt>
      <trkpt lat="47.54621" lon="6.75044">
        <ele>457.7</ele>
        <time>2014-06-08T09:22:32.000Z</time>
      </trkpt>
      <trkpt lat="47.54625" lon="6.75041">
        <ele>457.9</ele>
        <time>2014-06-08T09:22:33.000Z</time>
      </trkpt>
      <trkpt lat="47.5463" lon="6.75038">
        <ele>457.7</ele>
        <time>2014-06-08T09:22:34.000Z</time>
      </trkpt>
      <trkpt lat="47.54635" lon="6.75035">
        <ele>457.2</ele>
        <time>2014-06-08T09:22:35.000Z</time>
      </trkpt>
      <trkpt lat="47.54641" lon="6.75032">
        <ele>457.5</ele>
        <time>2014-06-08T09:22:36.000Z</time>
      </trkpt>
      <trkpt lat="47.54647" lon="6.75031">
        <ele>456.4</ele>
        <time>2014-06-08T09:22:37.000Z</time>
      </trkpt>
      <trkpt lat="47.54652" lon="6.75028">
        <ele>456.4</ele>
        <time>2014-06-08T09:22:38.000Z</time>
      </trkpt>
      <trkpt lat="47.54659" lon="6.75027">
        <ele>455.3</ele>
        <time>2014-06-08T09:22:39.000Z</time>
      </trkpt>
      <trkpt lat="47.54665" lon="6.75025">
        <ele>453.9</ele>
        <time>2014-06-08T09:22:40.000Z</time>
      </trkpt>
      <trkpt lat="47.54714" lon="6.75006">
        <ele>448.5</ele>
        <time>2014-06-08T09:22:48.000Z</time>
      </trkpt>
      <trkpt lat="47.54721" lon="6.75003">
        <ele>448.7</ele>
        <time>2014-06-08T09:22:49.000Z</time>
      </trkpt>
      <trkpt lat="47.54727" lon="6.75">
        <ele>448.5</ele>
        <time>2014-06-08T09:22:50.000Z</time>
      </trkpt>
      <trkpt lat="47.54732" lon="6.74997">
        <ele>447.9</ele>
        <time>2014-06-08T09:22:51.000Z</time>
      </trkpt>
      <trkpt lat="47.54735" lon="6.74994">
        <ele>448.3</ele>
        <time>2014-06-08T09:22:52.000Z</time>
      </trkpt>
      <trkpt lat="47.54737" lon="6.74992">
        <ele>448.1</ele>
        <time>2014-06-08T09:22:53.000Z</time>
      </trkpt>
      <trkpt lat="47.54738" lon="6.74986">
        <ele>452.1</ele>
        <time>2014-06-08T09:23:28.000Z</time>
      </trkpt>
      <trkpt lat="47.54739" lon="6.74985">
        <ele>453</ele>
        <time>2014-06-08T09:23:29.000Z</time>
      </trkpt>
      <trkpt lat="47.54741" lon="6.74983">
        <ele>453.7</ele>
        <time>2014-06-08T09:23:30.000Z</time>
      </trkpt>
      <trkpt lat="47.54743" lon="6.74981">
        <ele>454.7</ele>
        <time>2014-06-08T09:23:31.000Z</time>
      </trkpt>
      <trkpt lat="47.54745" lon="6.74979">
        <ele>455.5</ele>
        <time>2014-06-08T09:23:32.000Z</time>
      </trkpt>
      <trkpt lat="47.54747" lon="6.74978">
        <ele>455.6</ele>
        <time>2014-06-08T09:23:33.000Z</time>
      </trkpt>
      <trkpt lat="47.54749" lon="6.74977">
        <ele>455.7</ele>
        <time>2014-06-08T09:23:34.000Z</time>
      </trkpt>
      <trkpt lat="47.54751" lon="6.74975">
        <ele>456.1</ele>
        <time>2014-06-08T09:23:35.000Z</time>
      </trkpt>
      <trkpt lat="47.54754" lon="6.74972">
        <ele>456.1</ele>
        <time>2014-06-08T09:23:36.000Z</time>
      </trkpt>
      <trkpt lat="47.54757" lon="6.7497">
        <ele>456.2</ele>
        <time>2014-06-08T09:23:37.000Z</time>
      </trkpt>
      <trkpt lat="47.54759" lon="6.74968">
        <ele>456.3</ele>
        <time>2014-06-08T09:23:38.000Z</time>
      </trkpt>
      <trkpt lat="47.54761" lon="6.74966">
        <ele>457.4</ele>
        <time>2014-06-08T09:23:39.000Z</time>
      </trkpt>
      <trkpt lat="47.54768" lon="6.74967">
        <ele>455.7</ele>
        <time>2014-06-08T09:23:42.000Z</time>
      </trkpt>
      <trkpt lat="47.54771" lon="6.74966">
        <ele>454.6</ele>
        <time>2014-06-08T09:23:43.000Z</time>
      </trkpt>
      <trkpt lat="47.54774" lon="6.74964">
        <ele>454.1</ele>
        <time>2014-06-08T09:23:44.000Z</time>
      </trkpt>
      <trkpt lat="47.54776" lon="6.74963">
        <ele>454</ele>
        <time>2014-06-08T09:23:45.002Z</time>
      </trkpt>
      <trkpt lat="47.54779" lon="6.7496">
        <ele>453.7</ele>
        <time>2014-06-08T09:23:46.000Z</time>
      </trkpt>
      <trkpt lat="47.54782" lon="6.74957">
        <ele>453.6</ele>
        <time>2014-06-08T09:23:47.000Z</time>
      </trkpt>
      <trkpt lat="47.54785" lon="6.74955">
        <ele>453.6</ele>
        <time>2014-06-08T09:23:48.000Z</time>
      </trkpt>
      <trkpt lat="47.54788" lon="6.74952">
        <ele>453.7</ele>
        <time>2014-06-08T09:23:49.000Z</time>
      </trkpt>
      <trkpt lat="47.54791" lon="6.7495">
        <ele>453.1</ele>
        <time>2014-06-08T09:23:50.000Z</time>
      </trkpt>
      <trkpt lat="47.54793" lon="6.74946">
        <ele>452.4</ele>
        <time>2014-06-08T09:23:51.000Z</time>
      </trkpt>
      <trkpt lat="47.54795" lon="6.74942">
        <ele>452.1</ele>
        <time>2014-06-08T09:23:52.000Z</time>
      </trkpt>
      <trkpt lat="47.54796" lon="6.74938">
        <ele>452.8</ele>
        <time>2014-06-08T09:23:53.000Z</time>
      </trkpt>
      <trkpt lat="47.54797" lon="6.74934">
        <ele>453</ele>
        <time>2014-06-08T09:23:54.000Z</time>
      </trkpt>
      <trkpt lat="47.54798" lon="6.7493">
        <ele>453.3</ele>
        <time>2014-06-08T09:23:55.000Z</time>
      </trkpt>
      <trkpt lat="47.54799" lon="6.74927">
        <ele>454.7</ele>
        <time>2014-06-08T09:23:56.000Z</time>
      </trkpt>
      <trkpt lat="47.548" lon="6.74922">
        <ele>455.2</ele>
        <time>2014-06-08T09:23:58.000Z</time>
      </trkpt>
      <trkpt lat="47.54801" lon="6.74919">
        <ele>455.6</ele>
        <time>2014-06-08T09:23:59.000Z</time>
      </trkpt>
      <trkpt lat="47.54802" lon="6.74913">
        <ele>455.5</ele>
        <time>2014-06-08T09:24:01.000Z</time>
      </trkpt>
      <trkpt lat="47.54802" lon="6.7491">
        <ele>455.2</ele>
        <time>2014-06-08T09:24:02.000Z</time>
      </trkpt>
      <trkpt lat="47.54802" lon="6.74905">
        <ele>456.9</ele>
        <time>2014-06-08T09:24:04.000Z</time>
      </trkpt>
      <trkpt lat="47.54802" lon="6.74903">
        <ele>457.9</ele>
        <time>2014-06-08T09:24:05.000Z</time>
      </trkpt>
      <trkpt lat="47.54802" lon="6.74897">
        <ele>457.8</ele>
        <time>2014-06-08T09:24:07.000Z</time>
      </trkpt>
      <trkpt lat="47.54802" lon="6.74893">
        <ele>457.1</ele>
        <time>2014-06-08T09:24:08.000Z</time>
      </trkpt>
      <trkpt lat="47.54803" lon="6.74889">
        <ele>457.3</ele>
        <time>2014-06-08T09:24:09.000Z</time>
      </trkpt>
      <trkpt lat="47.54803" lon="6.74885">
        <ele>456.9</ele>
        <time>2014-06-08T09:24:10.000Z</time>
      </trkpt>
      <trkpt lat="47.54803" lon="6.74881">
        <ele>456.1</ele>
        <time>2014-06-08T09:24:11.000Z</time>
      </trkpt>
      <trkpt lat="47.54803" lon="6.74875">
        <ele>449.1</ele>
        <time>2014-06-08T09:24:12.000Z</time>
      </trkpt>
      <trkpt lat="47.54803" lon="6.74869">
        <ele>447.5</ele>
        <time>2014-06-08T09:24:13.000Z</time>
      </trkpt>
      <trkpt lat="47.54802" lon="6.74863">
        <ele>446.2</ele>
        <time>2014-06-08T09:24:14.000Z</time>
      </trkpt>
      <trkpt lat="47.54802" lon="6.74857">
        <ele>446.1</ele>
        <time>2014-06-08T09:24:15.000Z</time>
      </trkpt>
      <trkpt lat="47.54802" lon="6.74852">
        <ele>445.9</ele>
        <time>2014-06-08T09:24:16.000Z</time>
      </trkpt>
      <trkpt lat="47.54803" lon="6.74848">
        <ele>448.9</ele>
        <time>2014-06-08T09:24:17.000Z</time>
      </trkpt>
      <trkpt lat="47.54803" lon="6.74844">
        <ele>449.1</ele>
        <time>2014-06-08T09:24:18.000Z</time>
      </trkpt>
      <trkpt lat="47.54803" lon="6.74838">
        <ele>449.1</ele>
        <time>2014-06-08T09:24:20.000Z</time>
      </trkpt>
      <trkpt lat="47.54804" lon="6.74836">
        <ele>448.6</ele>
        <time>2014-06-08T09:24:21.000Z</time>
      </trkpt>
      <trkpt lat="47.54805" lon="6.7483">
        <ele>447.9</ele>
        <time>2014-06-08T09:24:23.000Z</time>
      </trkpt>
      <trkpt lat="47.54805" lon="6.74827">
        <ele>448.8</ele>
        <time>2014-06-08T09:24:24.000Z</time>
      </trkpt>
      <trkpt lat="47.54805" lon="6.74823">
        <ele>448.6</ele>
        <time>2014-06-08T09:24:25.000Z</time>
      </trkpt>
      <trkpt lat="47.54806" lon="6.74819">
        <ele>448.7</ele>
        <time>2014-06-08T09:24:26.000Z</time>
      </trkpt>
      <trkpt lat="47.54806" lon="6.74815">
        <ele>445.9</ele>
        <time>2014-06-08T09:24:27.000Z</time>
      </trkpt>
      <trkpt lat="47.54806" lon="6.74812">
        <ele>446.2</ele>
        <time>2014-06-08T09:24:28.000Z</time>
      </trkpt>
      <trkpt lat="47.54805" lon="6.74807">
        <ele>448.5</ele>
        <time>2014-06-08T09:24:29.000Z</time>
      </trkpt>
      <trkpt lat="47.54805" lon="6.74803">
        <ele>451.1</ele>
        <time>2014-06-08T09:24:30.000Z</time>
      </trkpt>
      <trkpt lat="47.54805" lon="6.74798">
        <ele>451.4</ele>
        <time>2014-06-08T09:24:31.000Z</time>
      </trkpt>
      <trkpt lat="47.54805" lon="6.74793">
        <ele>452.1</ele>
        <time>2014-06-08T09:24:32.000Z</time>
      </trkpt>
      <trkpt lat="47.54806" lon="6.74789">
        <ele>453.9</ele>
        <time>2014-06-08T09:24:33.000Z</time>
      </trkpt>
      <trkpt lat="47.54805" lon="6.74785">
        <ele>454.6</ele>
        <time>2014-06-08T09:24:34.000Z</time>
      </trkpt>
      <trkpt lat="47.54805" lon="6.74781">
        <ele>455.1</ele>
        <time>2014-06-08T09:24:35.000Z</time>
      </trkpt>
      <trkpt lat="47.54805" lon="6.74778">
        <ele>454.9</ele>
        <time>2014-06-08T09:24:36.000Z</time>
      </trkpt>
      <trkpt lat="47.54804" lon="6.74772">
        <ele>454.5</ele>
        <time>2014-06-08T09:24:38.000Z</time>
      </trkpt>
      <trkpt lat="47.54804" lon="6.74769">
        <ele>453.7</ele>
        <time>2014-06-08T09:24:39.000Z</time>
      </trkpt>
      <trkpt lat="47.54803" lon="6.74758">
        <ele>447.3</ele>
        <time>2014-06-08T09:24:42.000Z</time>
      </trkpt>
      <trkpt lat="47.54803" lon="6.74755">
        <ele>447.4</ele>
        <time>2014-06-08T09:24:43.000Z</time>
      </trkpt>
      <trkpt lat="47.54802" lon="6.74752">
        <ele>447</ele>
        <time>2014-06-08T09:24:44.000Z</time>
      </trkpt>
      <trkpt lat="47.54802" lon="6.74748">
        <ele>446.3</ele>
        <time>2014-06-08T09:24:45.000Z</time>
      </trkpt>
      <trkpt lat="47.54801" lon="6.74744">
        <ele>445.8</ele>
        <time>2014-06-08T09:24:46.000Z</time>
      </trkpt>
      <trkpt lat="47.54801" lon="6.7474">
        <ele>446.8</ele>
        <time>2014-06-08T09:24:47.000Z</time>
      </trkpt>
      <trkpt lat="47.548" lon="6.74737">
        <ele>447.5</ele>
        <time>2014-06-08T09:24:48.000Z</time>
      </trkpt>
      <trkpt lat="47.548" lon="6.74733">
        <ele>450</ele>
        <time>2014-06-08T09:24:49.000Z</time>
      </trkpt>
      <trkpt lat="47.548" lon="6.74729">
        <ele>450.7</ele>
        <time>2014-06-08T09:24:50.000Z</time>
      </trkpt>
      <trkpt lat="47.54799" lon="6.74725">
        <ele>450.8</ele>
        <time>2014-06-08T09:24:51.000Z</time>
      </trkpt>
      <trkpt lat="47.54799" lon="6.74721">
        <ele>449.9</ele>
        <time>2014-06-08T09:24:52.000Z</time>
      </trkpt>
      <trkpt lat="47.54798" lon="6.74715">
        <ele>449.9</ele>
        <time>2014-06-08T09:24:54.000Z</time>
      </trkpt>
      <trkpt lat="47.54797" lon="6.74711">
        <ele>449.4</ele>
        <time>2014-06-08T09:24:55.000Z</time>
      </trkpt>
      <trkpt lat="47.54796" lon="6.74706">
        <ele>449.3</ele>
        <time>2014-06-08T09:24:56.000Z</time>
      </trkpt>
      <trkpt lat="47.54795" lon="6.74699">
        <ele>450.1</ele>
        <time>2014-06-08T09:24:57.000Z</time>
      </trkpt>
      <trkpt lat="47.54794" lon="6.74692">
        <ele>450.6</ele>
        <time>2014-06-08T09:24:58.000Z</time>
      </trkpt>
      <trkpt lat="47.54793" lon="6.74686">
        <ele>449.9</ele>
        <time>2014-06-08T09:24:59.000Z</time>
      </trkpt>
      <trkpt lat="47.54792" lon="6.7468">
        <ele>449</ele>
        <time>2014-06-08T09:25:00.000Z</time>
      </trkpt>
      <trkpt lat="47.54792" lon="6.74675">
        <ele>449.1</ele>
        <time>2014-06-08T09:25:01.000Z</time>
      </trkpt>
      <trkpt lat="47.54791" lon="6.7467">
        <ele>448.9</ele>
        <time>2014-06-08T09:25:02.000Z</time>
      </trkpt>
      <trkpt lat="47.54789" lon="6.74665">
        <ele>450.4</ele>
        <time>2014-06-08T09:25:06.000Z</time>
      </trkpt>
      <trkpt lat="47.54788" lon="6.74664">
        <ele>450.6</ele>
        <time>2014-06-08T09:25:07.000Z</time>
      </trkpt>
      <trkpt lat="47.54786" lon="6.74659">
        <ele>449.7</ele>
        <time>2014-06-08T09:25:14.000Z</time>
      </trkpt>
      <trkpt lat="47.54784" lon="6.74657">
        <ele>452.1</ele>
        <time>2014-06-08T09:25:15.000Z</time>
      </trkpt>
      <trkpt lat="47.54781" lon="6.74654">
        <ele>453.3</ele>
        <time>2014-06-08T09:25:16.000Z</time>
      </trkpt>
      <trkpt lat="47.54779" lon="6.74651">
        <ele>453.6</ele>
        <time>2014-06-08T09:25:17.000Z</time>
      </trkpt>
      <trkpt lat="47.54776" lon="6.74648">
        <ele>453.7</ele>
        <time>2014-06-08T09:25:18.000Z</time>
      </trkpt>
      <trkpt lat="47.54773" lon="6.74644">
        <ele>453.7</ele>
        <time>2014-06-08T09:25:19.000Z</time>
      </trkpt>
      <trkpt lat="47.54771" lon="6.7464">
        <ele>454</ele>
        <time>2014-06-08T09:25:20.000Z</time>
      </trkpt>
      <trkpt lat="47.54769" lon="6.74636">
        <ele>454.7</ele>
        <time>2014-06-08T09:25:21.000Z</time>
      </trkpt>
      <trkpt lat="47.54766" lon="6.74632">
        <ele>454.4</ele>
        <time>2014-06-08T09:25:22.000Z</time>
      </trkpt>
      <trkpt lat="47.54764" lon="6.74627">
        <ele>454</ele>
        <time>2014-06-08T09:25:23.000Z</time>
      </trkpt>
      <trkpt lat="47.54762" lon="6.74622">
        <ele>454.6</ele>
        <time>2014-06-08T09:25:24.000Z</time>
      </trkpt>
      <trkpt lat="47.54761" lon="6.74616">
        <ele>454.7</ele>
        <time>2014-06-08T09:25:25.000Z</time>
      </trkpt>
      <trkpt lat="47.54759" lon="6.74611">
        <ele>454.9</ele>
        <time>2014-06-08T09:25:26.000Z</time>
      </trkpt>
      <trkpt lat="47.54757" lon="6.74604">
        <ele>455.2</ele>
        <time>2014-06-08T09:25:27.000Z</time>
      </trkpt>
      <trkpt lat="47.54755" lon="6.74598">
        <ele>454.8</ele>
        <time>2014-06-08T09:25:28.000Z</time>
      </trkpt>
      <trkpt lat="47.54753" lon="6.74592">
        <ele>453.8</ele>
        <time>2014-06-08T09:25:29.000Z</time>
      </trkpt>
      <trkpt lat="47.54751" lon="6.74587">
        <ele>454</ele>
        <time>2014-06-08T09:25:30.000Z</time>
      </trkpt>
      <trkpt lat="47.54748" lon="6.74581">
        <ele>453.9</ele>
        <time>2014-06-08T09:25:31.000Z</time>
      </trkpt>
      <trkpt lat="47.54746" lon="6.74575">
        <ele>453.8</ele>
        <time>2014-06-08T09:25:32.000Z</time>
      </trkpt>
      <trkpt lat="47.54744" lon="6.7457">
        <ele>454</ele>
        <time>2014-06-08T09:25:33.000Z</time>
      </trkpt>
      <trkpt lat="47.54741" lon="6.74564">
        <ele>453.7</ele>
        <time>2014-06-08T09:25:34.000Z</time>
      </trkpt>
      <trkpt lat="47.5474" lon="6.74559">
        <ele>453.5</ele>
        <time>2014-06-08T09:25:35.000Z</time>
      </trkpt>
      <trkpt lat="47.54738" lon="6.74554">
        <ele>453.4</ele>
        <time>2014-06-08T09:25:36.000Z</time>
      </trkpt>
      <trkpt lat="47.54737" lon="6.74549">
        <ele>453</ele>
        <time>2014-06-08T09:25:37.000Z</time>
      </trkpt>
      <trkpt lat="47.54736" lon="6.74545">
        <ele>452.2</ele>
        <time>2014-06-08T09:25:38.000Z</time>
      </trkpt>
      <trkpt lat="47.54735" lon="6.74541">
        <ele>451.2</ele>
        <time>2014-06-08T09:25:39.000Z</time>
      </trkpt>
      <trkpt lat="47.54731" lon="6.7453">
        <ele>443.1</ele>
        <time>2014-06-08T09:25:42.000Z</time>
      </trkpt>
      <trkpt lat="47.54729" lon="6.74527">
        <ele>443.2</ele>
        <time>2014-06-08T09:25:43.000Z</time>
      </trkpt>
      <trkpt lat="47.54728" lon="6.74522">
        <ele>443.6</ele>
        <time>2014-06-08T09:25:44.000Z</time>
      </trkpt>
      <trkpt lat="47.54728" lon="6.74518">
        <ele>446.2</ele>
        <time>2014-06-08T09:25:45.000Z</time>
      </trkpt>
      <trkpt lat="47.54727" lon="6.74513">
        <ele>447.1</ele>
        <time>2014-06-08T09:25:46.000Z</time>
      </trkpt>
      <trkpt lat="47.54727" lon="6.74509">
        <ele>447.5</ele>
        <time>2014-06-08T09:25:47.000Z</time>
      </trkpt>
      <trkpt lat="47.54726" lon="6.74504">
        <ele>447.5</ele>
        <time>2014-06-08T09:25:48.000Z</time>
      </trkpt>
      <trkpt lat="47.54726" lon="6.745">
        <ele>447.4</ele>
        <time>2014-06-08T09:25:49.000Z</time>
      </trkpt>
      <trkpt lat="47.54725" lon="6.74495">
        <ele>447.7</ele>
        <time>2014-06-08T09:25:50.000Z</time>
      </trkpt>
      <trkpt lat="47.54725" lon="6.74491">
        <ele>446.7</ele>
        <time>2014-06-08T09:25:51.000Z</time>
      </trkpt>
      <trkpt lat="47.54724" lon="6.74486">
        <ele>445.2</ele>
        <time>2014-06-08T09:25:52.000Z</time>
      </trkpt>
      <trkpt lat="47.54723" lon="6.74482">
        <ele>443.9</ele>
        <time>2014-06-08T09:25:53.000Z</time>
      </trkpt>
      <trkpt lat="47.54723" lon="6.74479">
        <ele>445.2</ele>
        <time>2014-06-08T09:25:54.000Z</time>
      </trkpt>
      <trkpt lat="47.54722" lon="6.74476">
        <ele>445.7</ele>
        <time>2014-06-08T09:25:55.000Z</time>
      </trkpt>
      <trkpt lat="47.54721" lon="6.74472">
        <ele>445.5</ele>
        <time>2014-06-08T09:25:56.000Z</time>
      </trkpt>
      <trkpt lat="47.5472" lon="6.74468">
        <ele>445.3</ele>
        <time>2014-06-08T09:25:57.000Z</time>
      </trkpt>
      <trkpt lat="47.54719" lon="6.74463">
        <ele>444.8</ele>
        <time>2014-06-08T09:25:58.000Z</time>
      </trkpt>
      <trkpt lat="47.54718" lon="6.74458">
        <ele>445</ele>
        <time>2014-06-08T09:25:59.000Z</time>
      </trkpt>
      <trkpt lat="47.54717" lon="6.74453">
        <ele>446</ele>
        <time>2014-06-08T09:26:00.000Z</time>
      </trkpt>
      <trkpt lat="47.54716" lon="6.74448">
        <ele>445.1</ele>
        <time>2014-06-08T09:26:01.000Z</time>
      </trkpt>
      <trkpt lat="47.54715" lon="6.74443">
        <ele>445.3</ele>
        <time>2014-06-08T09:26:02.000Z</time>
      </trkpt>
      <trkpt lat="47.54715" lon="6.74437">
        <ele>445.6</ele>
        <time>2014-06-08T09:26:03.000Z</time>
      </trkpt>
      <trkpt lat="47.54714" lon="6.74431">
        <ele>445.7</ele>
        <time>2014-06-08T09:26:04.000Z</time>
      </trkpt>
      <trkpt lat="47.54713" lon="6.74424">
        <ele>446.7</ele>
        <time>2014-06-08T09:26:05.000Z</time>
      </trkpt>
      <trkpt lat="47.54712" lon="6.74417">
        <ele>444.3</ele>
        <time>2014-06-08T09:26:06.000Z</time>
      </trkpt>
      <trkpt lat="47.54711" lon="6.7441">
        <ele>443.5</ele>
        <time>2014-06-08T09:26:07.000Z</time>
      </trkpt>
      <trkpt lat="47.5471" lon="6.74403">
        <ele>443.9</ele>
        <time>2014-06-08T09:26:08.000Z</time>
      </trkpt>
      <trkpt lat="47.54709" lon="6.74395">
        <ele>442.9</ele>
        <time>2014-06-08T09:26:09.000Z</time>
      </trkpt>
      <trkpt lat="47.54708" lon="6.74386">
        <ele>441.4</ele>
        <time>2014-06-08T09:26:10.000Z</time>
      </trkpt>
      <trkpt lat="47.54708" lon="6.74377">
        <ele>441.5</ele>
        <time>2014-06-08T09:26:11.000Z</time>
      </trkpt>
      <trkpt lat="47.54708" lon="6.74368">
        <ele>440.7</ele>
        <time>2014-06-08T09:26:12.000Z</time>
      </trkpt>
      <trkpt lat="47.54707" lon="6.74359">
        <ele>439.5</ele>
        <time>2014-06-08T09:26:13.000Z</time>
      </trkpt>
      <trkpt lat="47.54707" lon="6.74351">
        <ele>441</ele>
        <time>2014-06-08T09:26:14.000Z</time>
      </trkpt>
      <trkpt lat="47.54706" lon="6.74344">
        <ele>441.1</ele>
        <time>2014-06-08T09:26:15.000Z</time>
      </trkpt>
      <trkpt lat="47.54707" lon="6.74336">
        <ele>441.2</ele>
        <time>2014-06-08T09:26:16.000Z</time>
      </trkpt>
      <trkpt lat="47.54708" lon="6.74327">
        <ele>442.3</ele>
        <time>2014-06-08T09:26:17.000Z</time>
      </trkpt>
      <trkpt lat="47.54709" lon="6.74319">
        <ele>441.9</ele>
        <time>2014-06-08T09:26:18.000Z</time>
      </trkpt>
      <trkpt lat="47.54709" lon="6.74312">
        <ele>442.1</ele>
        <time>2014-06-08T09:26:19.000Z</time>
      </trkpt>
      <trkpt lat="47.5471" lon="6.74305">
        <ele>441.4</ele>
        <time>2014-06-08T09:26:20.000Z</time>
      </trkpt>
      <trkpt lat="47.54709" lon="6.74298">
        <ele>441.5</ele>
        <time>2014-06-08T09:26:21.000Z</time>
      </trkpt>
      <trkpt lat="47.54709" lon="6.74292">
        <ele>441</ele>
        <time>2014-06-08T09:26:22.000Z</time>
      </trkpt>
      <trkpt lat="47.54708" lon="6.74286">
        <ele>440</ele>
        <time>2014-06-08T09:26:23.000Z</time>
      </trkpt>
      <trkpt lat="47.54708" lon="6.7428">
        <ele>439.7</ele>
        <time>2014-06-08T09:26:24.000Z</time>
      </trkpt>
      <trkpt lat="47.54707" lon="6.74274">
        <ele>439.6</ele>
        <time>2014-06-08T09:26:25.000Z</time>
      </trkpt>
      <trkpt lat="47.54707" lon="6.74267">
        <ele>439.2</ele>
        <time>2014-06-08T09:26:26.000Z</time>
      </trkpt>
      <trkpt lat="47.54707" lon="6.74261">
        <ele>439</ele>
        <time>2014-06-08T09:26:27.000Z</time>
      </trkpt>
      <trkpt lat="47.54706" lon="6.74254">
        <ele>438</ele>
        <time>2014-06-08T09:26:28.000Z</time>
      </trkpt>
      <trkpt lat="47.54705" lon="6.74246">
        <ele>435.3</ele>
        <time>2014-06-08T09:26:29.000Z</time>
      </trkpt>
      <trkpt lat="47.54704" lon="6.74238">
        <ele>433.8</ele>
        <time>2014-06-08T09:26:30.000Z</time>
      </trkpt>
      <trkpt lat="47.54702" lon="6.7423">
        <ele>435.6</ele>
        <time>2014-06-08T09:26:31.000Z</time>
      </trkpt>
      <trkpt lat="47.54702" lon="6.74222">
        <ele>436.6</ele>
        <time>2014-06-08T09:26:32.000Z</time>
      </trkpt>
      <trkpt lat="47.54701" lon="6.74212">
        <ele>435.5</ele>
        <time>2014-06-08T09:26:33.000Z</time>
      </trkpt>
      <trkpt lat="47.54702" lon="6.74202">
        <ele>434.2</ele>
        <time>2014-06-08T09:26:34.000Z</time>
      </trkpt>
      <trkpt lat="47.54702" lon="6.74192">
        <ele>432.4</ele>
        <time>2014-06-08T09:26:35.000Z</time>
      </trkpt>
      <trkpt lat="47.54703" lon="6.74159">
        <ele>428.6</ele>
        <time>2014-06-08T09:26:36.000Z</time>
      </trkpt>
      <trkpt lat="47.54704" lon="6.74148">
        <ele>426.6</ele>
        <time>2014-06-08T09:26:37.000Z</time>
      </trkpt>
      <trkpt lat="47.54704" lon="6.74136">
        <ele>425.3</ele>
        <time>2014-06-08T09:26:38.000Z</time>
      </trkpt>
      <trkpt lat="47.54702" lon="6.74127">
        <ele>424.7</ele>
        <time>2014-06-08T09:26:39.000Z</time>
      </trkpt>
      <trkpt lat="47.54698" lon="6.74107">
        <ele>419</ele>
        <time>2014-06-08T09:26:42.000Z</time>
      </trkpt>
      <trkpt lat="47.54698" lon="6.74096">
        <ele>417.8</ele>
        <time>2014-06-08T09:26:43.000Z</time>
      </trkpt>
      <trkpt lat="47.54699" lon="6.74087">
        <ele>417.3</ele>
        <time>2014-06-08T09:26:44.000Z</time>
      </trkpt>
      <trkpt lat="47.547" lon="6.74074">
        <ele>415.9</ele>
        <time>2014-06-08T09:26:45.000Z</time>
      </trkpt>
      <trkpt lat="47.54699" lon="6.74063">
        <ele>414.7</ele>
        <time>2014-06-08T09:26:46.000Z</time>
      </trkpt>
      <trkpt lat="47.54698" lon="6.74053">
        <ele>414</ele>
        <time>2014-06-08T09:26:47.000Z</time>
      </trkpt>
      <trkpt lat="47.54697" lon="6.74039">
        <ele>412.9</ele>
        <time>2014-06-08T09:26:48.000Z</time>
      </trkpt>
      <trkpt lat="47.54695" lon="6.74027">
        <ele>412.7</ele>
        <time>2014-06-08T09:26:49.000Z</time>
      </trkpt>
      <trkpt lat="47.54693" lon="6.74017">
        <ele>411.8</ele>
        <time>2014-06-08T09:26:50.000Z</time>
      </trkpt>
      <trkpt lat="47.54691" lon="6.74006">
        <ele>411.2</ele>
        <time>2014-06-08T09:26:51.000Z</time>
      </trkpt>
      <trkpt lat="47.5469" lon="6.73996">
        <ele>410.7</ele>
        <time>2014-06-08T09:26:52.000Z</time>
      </trkpt>
      <trkpt lat="47.54689" lon="6.73987">
        <ele>410.9</ele>
        <time>2014-06-08T09:26:53.000Z</time>
      </trkpt>
      <trkpt lat="47.54688" lon="6.73979">
        <ele>412.3</ele>
        <time>2014-06-08T09:26:54.000Z</time>
      </trkpt>
      <trkpt lat="47.5469" lon="6.7397">
        <ele>412.2</ele>
        <time>2014-06-08T09:26:55.000Z</time>
      </trkpt>
      <trkpt lat="47.54691" lon="6.7396">
        <ele>412.5</ele>
        <time>2014-06-08T09:26:56.000Z</time>
      </trkpt>
      <trkpt lat="47.54691" lon="6.73949">
        <ele>412.3</ele>
        <time>2014-06-08T09:26:57.000Z</time>
      </trkpt>
      <trkpt lat="47.54691" lon="6.73939">
        <ele>412.1</ele>
        <time>2014-06-08T09:26:58.000Z</time>
      </trkpt>
      <trkpt lat="47.5469" lon="6.73925">
        <ele>411.5</ele>
        <time>2014-06-08T09:26:59.000Z</time>
      </trkpt>
      <trkpt lat="47.5469" lon="6.73915">
        <ele>410.9</ele>
        <time>2014-06-08T09:27:00.000Z</time>
      </trkpt>
      <trkpt lat="47.5469" lon="6.73904">
        <ele>411.2</ele>
        <time>2014-06-08T09:27:01.000Z</time>
      </trkpt>
      <trkpt lat="47.54689" lon="6.73892">
        <ele>410.3</ele>
        <time>2014-06-08T09:27:02.000Z</time>
      </trkpt>
      <trkpt lat="47.54688" lon="6.73881">
        <ele>409.3</ele>
        <time>2014-06-08T09:27:03.000Z</time>
      </trkpt>
      <trkpt lat="47.5469" lon="6.73868">
        <ele>408.2</ele>
        <time>2014-06-08T09:27:04.000Z</time>
      </trkpt>
      <trkpt lat="47.54692" lon="6.73858">
        <ele>408.6</ele>
        <time>2014-06-08T09:27:05.000Z</time>
      </trkpt>
      <trkpt lat="47.54696" lon="6.7385">
        <ele>408.4</ele>
        <time>2014-06-08T09:27:06.000Z</time>
      </trkpt>
      <trkpt lat="47.54696" lon="6.73841">
        <ele>409.1</ele>
        <time>2014-06-08T09:27:07.000Z</time>
      </trkpt>
      <trkpt lat="47.54696" lon="6.73832">
        <ele>410.3</ele>
        <time>2014-06-08T09:27:08.000Z</time>
      </trkpt>
      <trkpt lat="47.54697" lon="6.73823">
        <ele>411.3</ele>
        <time>2014-06-08T09:27:09.000Z</time>
      </trkpt>
      <trkpt lat="47.54699" lon="6.73813">
        <ele>410.4</ele>
        <time>2014-06-08T09:27:10.000Z</time>
      </trkpt>
      <trkpt lat="47.547" lon="6.73803">
        <ele>409.2</ele>
        <time>2014-06-08T09:27:11.000Z</time>
      </trkpt>
      <trkpt lat="47.54702" lon="6.73793">
        <ele>407.9</ele>
        <time>2014-06-08T09:27:12.000Z</time>
      </trkpt>
      <trkpt lat="47.54704" lon="6.73784">
        <ele>407.7</ele>
        <time>2014-06-08T09:27:13.000Z</time>
      </trkpt>
      <trkpt lat="47.54705" lon="6.73775">
        <ele>407.3</ele>
        <time>2014-06-08T09:27:14.000Z</time>
      </trkpt>
      <trkpt lat="47.54707" lon="6.73766">
        <ele>406.6</ele>
        <time>2014-06-08T09:27:15.000Z</time>
      </trkpt>
      <trkpt lat="47.54707" lon="6.73755">
        <ele>406.3</ele>
        <time>2014-06-08T09:27:16.000Z</time>
      </trkpt>
      <trkpt lat="47.54707" lon="6.73748">
        <ele>405.9</ele>
        <time>2014-06-08T09:27:17.000Z</time>
      </trkpt>
      <trkpt lat="47.54706" lon="6.73739">
        <ele>403.6</ele>
        <time>2014-06-08T09:27:18.000Z</time>
      </trkpt>
      <trkpt lat="47.54706" lon="6.73734">
        <ele>403.5</ele>
        <time>2014-06-08T09:27:19.000Z</time>
      </trkpt>
      <trkpt lat="47.54707" lon="6.73729">
        <ele>403.2</ele>
        <time>2014-06-08T09:27:20.000Z</time>
      </trkpt>
      <trkpt lat="47.54709" lon="6.73725">
        <ele>402.3</ele>
        <time>2014-06-08T09:27:21.000Z</time>
      </trkpt>
      <trkpt lat="47.54709" lon="6.73721">
        <ele>402.9</ele>
        <time>2014-06-08T09:27:22.000Z</time>
      </trkpt>
      <trkpt lat="47.54712" lon="6.73715">
        <ele>403.7</ele>
        <time>2014-06-08T09:27:23.000Z</time>
      </trkpt>
      <trkpt lat="47.54715" lon="6.73711">
        <ele>403</ele>
        <time>2014-06-08T09:27:24.000Z</time>
      </trkpt>
      <trkpt lat="47.54717" lon="6.73706">
        <ele>403.5</ele>
        <time>2014-06-08T09:27:25.000Z</time>
      </trkpt>
      <trkpt lat="47.54719" lon="6.73701">
        <ele>404.1</ele>
        <time>2014-06-08T09:27:26.000Z</time>
      </trkpt>
      <trkpt lat="47.54722" lon="6.73697">
        <ele>404</ele>
        <time>2014-06-08T09:27:27.000Z</time>
      </trkpt>
      <trkpt lat="47.54725" lon="6.73693">
        <ele>403.7</ele>
        <time>2014-06-08T09:27:28.000Z</time>
      </trkpt>
      <trkpt lat="47.54727" lon="6.73689">
        <ele>403.5</ele>
        <time>2014-06-08T09:27:29.000Z</time>
      </trkpt>
      <trkpt lat="47.5473" lon="6.73686">
        <ele>403.5</ele>
        <time>2014-06-08T09:27:30.000Z</time>
      </trkpt>
      <trkpt lat="47.54732" lon="6.73682">
        <ele>405.2</ele>
        <time>2014-06-08T09:27:31.000Z</time>
      </trkpt>
      <trkpt lat="47.54732" lon="6.73676">
        <ele>402.8</ele>
        <time>2014-06-08T09:27:34.000Z</time>
      </trkpt>
      <trkpt lat="47.54732" lon="6.73675">
        <ele>400.5</ele>
        <time>2014-06-08T09:27:35.000Z</time>
      </trkpt>
      <trkpt lat="47.5473" lon="6.73671">
        <ele>400.3</ele>
        <time>2014-06-08T09:27:38.000Z</time>
      </trkpt>
      <trkpt lat="47.54729" lon="6.73669">
        <ele>400.4</ele>
        <time>2014-06-08T09:27:39.000Z</time>
      </trkpt>
      <trkpt lat="47.54728" lon="6.73667">
        <ele>400</ele>
        <time>2014-06-08T09:27:40.000Z</time>
      </trkpt>
      <trkpt lat="47.54727" lon="6.73661">
        <ele>395</ele>
        <time>2014-06-08T09:27:43.000Z</time>
      </trkpt>
      <trkpt lat="47.54725" lon="6.73656">
        <ele>392.5</ele>
        <time>2014-06-08T09:27:46.000Z</time>
      </trkpt>
      <trkpt lat="47.54724" lon="6.73655">
        <ele>394.2</ele>
        <time>2014-06-08T09:27:47.000Z</time>
      </trkpt>
      <trkpt lat="47.5472" lon="6.73654">
        <ele>397.3</ele>
        <time>2014-06-08T09:27:50.000Z</time>
      </trkpt>
      <trkpt lat="47.54719" lon="6.73654">
        <ele>397.6</ele>
        <time>2014-06-08T09:27:51.000Z</time>
      </trkpt>
      <trkpt lat="47.54715" lon="6.73651">
        <ele>401.8</ele>
        <time>2014-06-08T09:27:57.000Z</time>
      </trkpt>
      <trkpt lat="47.54714" lon="6.73651">
        <ele>401.8</ele>
        <time>2014-06-08T09:27:58.000Z</time>
      </trkpt>
      <trkpt lat="47.54711" lon="6.7365">
        <ele>406.9</ele>
        <time>2014-06-08T09:28:03.000Z</time>
      </trkpt>
      <trkpt lat="47.5471" lon="6.7365">
        <ele>407.5</ele>
        <time>2014-06-08T09:28:04.000Z</time>
      </trkpt>
      <trkpt lat="47.54706" lon="6.73649">
        <ele>409.2</ele>
        <time>2014-06-08T09:28:07.000Z</time>
      </trkpt>
      <trkpt lat="47.54705" lon="6.73649">
        <ele>411.3</ele>
        <time>2014-06-08T09:28:08.000Z</time>
      </trkpt>
      <trkpt lat="47.54701" lon="6.7365">
        <ele>412.6</ele>
        <time>2014-06-08T09:28:12.000Z</time>
      </trkpt>
      <trkpt lat="47.547" lon="6.73651">
        <ele>412.1</ele>
        <time>2014-06-08T09:28:13.000Z</time>
      </trkpt>
      <trkpt lat="47.54695" lon="6.73651">
        <ele>412.3</ele>
        <time>2014-06-08T09:28:16.000Z</time>
      </trkpt>
      <trkpt lat="47.54694" lon="6.73652">
        <ele>413.3</ele>
        <time>2014-06-08T09:28:17.000Z</time>
      </trkpt>
      <trkpt lat="47.5469" lon="6.73653">
        <ele>415</ele>
        <time>2014-06-08T09:28:20.000Z</time>
      </trkpt>
      <trkpt lat="47.54689" lon="6.73653">
        <ele>415.8</ele>
        <time>2014-06-08T09:28:21.000Z</time>
      </trkpt>
      <trkpt lat="47.54685" lon="6.73655">
        <ele>416</ele>
        <time>2014-06-08T09:28:24.000Z</time>
      </trkpt>
      <trkpt lat="47.54684" lon="6.73655">
        <ele>415.2</ele>
        <time>2014-06-08T09:28:25.000Z</time>
      </trkpt>
      <trkpt lat="47.5468" lon="6.73654">
        <ele>416.8</ele>
        <time>2014-06-08T09:28:32.000Z</time>
      </trkpt>
      <trkpt lat="47.54679" lon="6.73655">
        <ele>417.5</ele>
        <time>2014-06-08T09:28:33.000Z</time>
      </trkpt>
      <trkpt lat="47.54675" lon="6.73657">
        <ele>419.9</ele>
        <time>2014-06-08T09:28:37.000Z</time>
      </trkpt>
      <trkpt lat="47.54674" lon="6.73658">
        <ele>421</ele>
        <time>2014-06-08T09:28:38.000Z</time>
      </trkpt>
      <trkpt lat="47.54671" lon="6.73659">
        <ele>422.8</ele>
        <time>2014-06-08T09:28:40.000Z</time>
      </trkpt>
      <trkpt lat="47.54661" lon="6.7366">
        <ele>418.6</ele>
        <time>2014-06-08T09:28:48.000Z</time>
      </trkpt>
      <trkpt lat="47.54658" lon="6.73659">
        <ele>421.9</ele>
        <time>2014-06-08T09:28:50.000Z</time>
      </trkpt>
      <trkpt lat="47.54657" lon="6.73658">
        <ele>422.3</ele>
        <time>2014-06-08T09:28:51.000Z</time>
      </trkpt>
      <trkpt lat="47.54653" lon="6.73656">
        <ele>419</ele>
        <time>2014-06-08T09:28:54.000Z</time>
      </trkpt>
      <trkpt lat="47.54651" lon="6.73655">
        <ele>420.6</ele>
        <time>2014-06-08T09:28:55.000Z</time>
      </trkpt>
      <trkpt lat="47.54647" lon="6.73652">
        <ele>422.3</ele>
        <time>2014-06-08T09:28:57.000Z</time>
      </trkpt>
      <trkpt lat="47.54645" lon="6.73651">
        <ele>422.6</ele>
        <time>2014-06-08T09:28:58.000Z</time>
      </trkpt>
      <trkpt lat="47.54641" lon="6.73648">
        <ele>425.9</ele>
        <time>2014-06-08T09:29:00.000Z</time>
      </trkpt>
      <trkpt lat="47.5464" lon="6.73647">
        <ele>426.3</ele>
        <time>2014-06-08T09:29:01.000Z</time>
      </trkpt>
      <trkpt lat="47.54638" lon="6.73645">
        <ele>430.1</ele>
        <time>2014-06-08T09:29:02.000Z</time>
      </trkpt>
      <trkpt lat="47.54636" lon="6.73643">
        <ele>431.7</ele>
        <time>2014-06-08T09:29:03.000Z</time>
      </trkpt>
      <trkpt lat="47.54634" lon="6.7364">
        <ele>431.6</ele>
        <time>2014-06-08T09:29:04.000Z</time>
      </trkpt>
      <trkpt lat="47.54632" lon="6.73637">
        <ele>431.5</ele>
        <time>2014-06-08T09:29:05.000Z</time>
      </trkpt>
      <trkpt lat="47.54629" lon="6.73631">
        <ele>433.2</ele>
        <time>2014-06-08T09:29:09.000Z</time>
      </trkpt>
      <trkpt lat="47.54629" lon="6.7363">
        <ele>434.8</ele>
        <time>2014-06-08T09:29:10.000Z</time>
      </trkpt>
      <trkpt lat="47.54628" lon="6.73624">
        <ele>432.5</ele>
        <time>2014-06-08T09:29:14.000Z</time>
      </trkpt>
      <trkpt lat="47.54627" lon="6.73623">
        <ele>434.2</ele>
        <time>2014-06-08T09:29:15.000Z</time>
      </trkpt>
      <trkpt lat="47.54624" lon="6.73619">
        <ele>433.7</ele>
        <time>2014-06-08T09:29:17.000Z</time>
      </trkpt>
      <trkpt lat="47.54623" lon="6.73617">
        <ele>433.9</ele>
        <time>2014-06-08T09:29:18.000Z</time>
      </trkpt>
      <trkpt lat="47.54621" lon="6.73614">
        <ele>434.2</ele>
        <time>2014-06-08T09:29:20.000Z</time>
      </trkpt>
      <trkpt lat="47.54619" lon="6.73612">
        <ele>434.3</ele>
        <time>2014-06-08T09:29:21.000Z</time>
      </trkpt>
      <trkpt lat="47.54616" lon="6.73607">
        <ele>433.2</ele>
        <time>2014-06-08T09:29:23.000Z</time>
      </trkpt>
      <trkpt lat="47.54614" lon="6.73604">
        <ele>432.7</ele>
        <time>2014-06-08T09:29:24.000Z</time>
      </trkpt>
      <trkpt lat="47.54612" lon="6.73601">
        <ele>432.1</ele>
        <time>2014-06-08T09:29:25.000Z</time>
      </trkpt>
      <trkpt lat="47.5461" lon="6.73598">
        <ele>433.1</ele>
        <time>2014-06-08T09:29:26.000Z</time>
      </trkpt>
      <trkpt lat="47.54609" lon="6.73595">
        <ele>433.8</ele>
        <time>2014-06-08T09:29:27.000Z</time>
      </trkpt>
      <trkpt lat="47.54607" lon="6.73591">
        <ele>437.1</ele>
        <time>2014-06-08T09:29:28.000Z</time>
      </trkpt>
      <trkpt lat="47.54605" lon="6.73586">
        <ele>438.5</ele>
        <time>2014-06-08T09:29:29.000Z</time>
      </trkpt>
      <trkpt lat="47.54602" lon="6.73581">
        <ele>437.6</ele>
        <time>2014-06-08T09:29:30.000Z</time>
      </trkpt>
      <trkpt lat="47.546" lon="6.73575">
        <ele>434.4</ele>
        <time>2014-06-08T09:29:31.000Z</time>
      </trkpt>
      <trkpt lat="47.54597" lon="6.73569">
        <ele>431.6</ele>
        <time>2014-06-08T09:29:32.000Z</time>
      </trkpt>
      <trkpt lat="47.54595" lon="6.73562">
        <ele>431.1</ele>
        <time>2014-06-08T09:29:33.000Z</time>
      </trkpt>
      <trkpt lat="47.54593" lon="6.73556">
        <ele>430.4</ele>
        <time>2014-06-08T09:29:34.000Z</time>
      </trkpt>
      <trkpt lat="47.54591" lon="6.7355">
        <ele>429.4</ele>
        <time>2014-06-08T09:29:35.000Z</time>
      </trkpt>
      <trkpt lat="47.54589" lon="6.73545">
        <ele>430.2</ele>
        <time>2014-06-08T09:29:36.000Z</time>
      </trkpt>
      <trkpt lat="47.54587" lon="6.7354">
        <ele>431.4</ele>
        <time>2014-06-08T09:29:37.000Z</time>
      </trkpt>
      <trkpt lat="47.54584" lon="6.73534">
        <ele>431.7</ele>
        <time>2014-06-08T09:29:38.000Z</time>
      </trkpt>
      <trkpt lat="47.54581" lon="6.73528">
        <ele>432.6</ele>
        <time>2014-06-08T09:29:39.000Z</time>
      </trkpt>
      <trkpt lat="47.5457" lon="6.73494">
        <ele>428.8</ele>
        <time>2014-06-08T09:29:42.000Z</time>
      </trkpt>
      <trkpt lat="47.54568" lon="6.73489">
        <ele>428.5</ele>
        <time>2014-06-08T09:29:43.000Z</time>
      </trkpt>
      <trkpt lat="47.54567" lon="6.73481">
        <ele>428.2</ele>
        <time>2014-06-08T09:29:44.000Z</time>
      </trkpt>
      <trkpt lat="47.54565" lon="6.73474">
        <ele>427.1</ele>
        <time>2014-06-08T09:29:45.000Z</time>
      </trkpt>
      <trkpt lat="47.54563" lon="6.73467">
        <ele>426.1</ele>
        <time>2014-06-08T09:29:46.000Z</time>
      </trkpt>
      <trkpt lat="47.54561" lon="6.73458">
        <ele>425.8</ele>
        <time>2014-06-08T09:29:47.000Z</time>
      </trkpt>
      <trkpt lat="47.54559" lon="6.73449">
        <ele>424.3</ele>
        <time>2014-06-08T09:29:48.000Z</time>
      </trkpt>
      <trkpt lat="47.54557" lon="6.73441">
        <ele>423.3</ele>
        <time>2014-06-08T09:29:49.000Z</time>
      </trkpt>
      <trkpt lat="47.54553" lon="6.73434">
        <ele>423.1</ele>
        <time>2014-06-08T09:29:50.000Z</time>
      </trkpt>
      <trkpt lat="47.54551" lon="6.73425">
        <ele>420.8</ele>
        <time>2014-06-08T09:29:51.000Z</time>
      </trkpt>
      <trkpt lat="47.54547" lon="6.73414">
        <ele>419.4</ele>
        <time>2014-06-08T09:29:52.000Z</time>
      </trkpt>
      <trkpt lat="47.54546" lon="6.73404">
        <ele>418.7</ele>
        <time>2014-06-08T09:29:53.000Z</time>
      </trkpt>
      <trkpt lat="47.54543" lon="6.73393">
        <ele>417.8</ele>
        <time>2014-06-08T09:29:54.000Z</time>
      </trkpt>
      <trkpt lat="47.54539" lon="6.73382">
        <ele>417.7</ele>
        <time>2014-06-08T09:29:55.000Z</time>
      </trkpt>
      <trkpt lat="47.54536" lon="6.73369">
        <ele>417.6</ele>
        <time>2014-06-08T09:29:56.000Z</time>
      </trkpt>
      <trkpt lat="47.54533" lon="6.73359">
        <ele>417</ele>
        <time>2014-06-08T09:29:57.000Z</time>
      </trkpt>
      <trkpt lat="47.5453" lon="6.73349">
        <ele>416.6</ele>
        <time>2014-06-08T09:29:58.000Z</time>
      </trkpt>
      <trkpt lat="47.54526" lon="6.73342">
        <ele>417.1</ele>
        <time>2014-06-08T09:29:59.000Z</time>
      </trkpt>
      <trkpt lat="47.54524" lon="6.73335">
        <ele>417</ele>
        <time>2014-06-08T09:30:00.000Z</time>
      </trkpt>
      <trkpt lat="47.54521" lon="6.73326">
        <ele>417</ele>
        <time>2014-06-08T09:30:01.000Z</time>
      </trkpt>
      <trkpt lat="47.54518" lon="6.73319">
        <ele>417.7</ele>
        <time>2014-06-08T09:30:02.000Z</time>
      </trkpt>
      <trkpt lat="47.54516" lon="6.73315">
        <ele>417.9</ele>
        <time>2014-06-08T09:30:03.000Z</time>
      </trkpt>
      <trkpt lat="47.54515" lon="6.73308">
        <ele>418.8</ele>
        <time>2014-06-08T09:30:04.000Z</time>
      </trkpt>
      <trkpt lat="47.54512" lon="6.73302">
        <ele>419.1</ele>
        <time>2014-06-08T09:30:05.000Z</time>
      </trkpt>
      <trkpt lat="47.54509" lon="6.73294">
        <ele>420.1</ele>
        <time>2014-06-08T09:30:06.000Z</time>
      </trkpt>
      <trkpt lat="47.54506" lon="6.73287">
        <ele>419.5</ele>
        <time>2014-06-08T09:30:07.000Z</time>
      </trkpt>
      <trkpt lat="47.54504" lon="6.73275">
        <ele>419.4</ele>
        <time>2014-06-08T09:30:08.000Z</time>
      </trkpt>
      <trkpt lat="47.545" lon="6.7327">
        <ele>418.9</ele>
        <time>2014-06-08T09:30:09.000Z</time>
      </trkpt>
      <trkpt lat="47.54498" lon="6.73265">
        <ele>419.6</ele>
        <time>2014-06-08T09:30:10.000Z</time>
      </trkpt>
      <trkpt lat="47.54497" lon="6.73259">
        <ele>429.8</ele>
        <time>2014-06-08T09:30:11.000Z</time>
      </trkpt>
      <trkpt lat="47.54495" lon="6.73253">
        <ele>430</ele>
        <time>2014-06-08T09:30:12.000Z</time>
      </trkpt>
      <trkpt lat="47.54494" lon="6.73247">
        <ele>430.3</ele>
        <time>2014-06-08T09:30:13.000Z</time>
      </trkpt>
      <trkpt lat="47.54492" lon="6.73241">
        <ele>429.9</ele>
        <time>2014-06-08T09:30:14.000Z</time>
      </trkpt>
      <trkpt lat="47.54488" lon="6.73235">
        <ele>430.8</ele>
        <time>2014-06-08T09:30:15.000Z</time>
      </trkpt>
      <trkpt lat="47.54486" lon="6.73232">
        <ele>431.8</ele>
        <time>2014-06-08T09:30:16.000Z</time>
      </trkpt>
      <trkpt lat="47.54484" lon="6.73228">
        <ele>432</ele>
        <time>2014-06-08T09:30:17.000Z</time>
      </trkpt>
      <trkpt lat="47.54483" lon="6.73224">
        <ele>432</ele>
        <time>2014-06-08T09:30:18.000Z</time>
      </trkpt>
      <trkpt lat="47.54482" lon="6.73217">
        <ele>430.8</ele>
        <time>2014-06-08T09:30:19.000Z</time>
      </trkpt>
      <trkpt lat="47.5448" lon="6.73209">
        <ele>428.9</ele>
        <time>2014-06-08T09:30:20.000Z</time>
      </trkpt>
      <trkpt lat="47.54479" lon="6.73205">
        <ele>426.9</ele>
        <time>2014-06-08T09:30:21.000Z</time>
      </trkpt>
      <trkpt lat="47.54479" lon="6.732">
        <ele>424.4</ele>
        <time>2014-06-08T09:30:22.000Z</time>
      </trkpt>
      <trkpt lat="47.54479" lon="6.73194">
        <ele>423.4</ele>
        <time>2014-06-08T09:30:23.000Z</time>
      </trkpt>
      <trkpt lat="47.54479" lon="6.7319">
        <ele>424.4</ele>
        <time>2014-06-08T09:30:24.000Z</time>
      </trkpt>
      <trkpt lat="47.54479" lon="6.73185">
        <ele>423.1</ele>
        <time>2014-06-08T09:30:25.000Z</time>
      </trkpt>
      <trkpt lat="47.54478" lon="6.7318">
        <ele>422.6</ele>
        <time>2014-06-08T09:30:26.000Z</time>
      </trkpt>
      <trkpt lat="47.54477" lon="6.73176">
        <ele>422.7</ele>
        <time>2014-06-08T09:30:27.000Z</time>
      </trkpt>
      <trkpt lat="47.54477" lon="6.73171">
        <ele>423.5</ele>
        <time>2014-06-08T09:30:28.000Z</time>
      </trkpt>
      <trkpt lat="47.54478" lon="6.73166">
        <ele>421.5</ele>
        <time>2014-06-08T09:30:29.000Z</time>
      </trkpt>
      <trkpt lat="47.5448" lon="6.73161">
        <ele>420.9</ele>
        <time>2014-06-08T09:30:30.000Z</time>
      </trkpt>
      <trkpt lat="47.54482" lon="6.73156">
        <ele>420.4</ele>
        <time>2014-06-08T09:30:31.000Z</time>
      </trkpt>
      <trkpt lat="47.54484" lon="6.73151">
        <ele>419.4</ele>
        <time>2014-06-08T09:30:32.000Z</time>
      </trkpt>
      <trkpt lat="47.54486" lon="6.73146">
        <ele>418.7</ele>
        <time>2014-06-08T09:30:33.000Z</time>
      </trkpt>
      <trkpt lat="47.54489" lon="6.7314">
        <ele>418.1</ele>
        <time>2014-06-08T09:30:34.000Z</time>
      </trkpt>
      <trkpt lat="47.54491" lon="6.73136">
        <ele>418</ele>
        <time>2014-06-08T09:30:35.000Z</time>
      </trkpt>
      <trkpt lat="47.54492" lon="6.73132">
        <ele>417.5</ele>
        <time>2014-06-08T09:30:36.000Z</time>
      </trkpt>
      <trkpt lat="47.54492" lon="6.73126">
        <ele>417.2</ele>
        <time>2014-06-08T09:30:38.000Z</time>
      </trkpt>
      <trkpt lat="47.54492" lon="6.73124">
        <ele>417</ele>
        <time>2014-06-08T09:30:39.000Z</time>
      </trkpt>
      <trkpt lat="47.54489" lon="6.73124">
        <ele>410</ele>
        <time>2014-06-08T09:31:21.000Z</time>
      </trkpt>
      <trkpt lat="47.54487" lon="6.73123">
        <ele>410.7</ele>
        <time>2014-06-08T09:31:22.000Z</time>
      </trkpt>
      <trkpt lat="47.54483" lon="6.73121">
        <ele>414.5</ele>
        <time>2014-06-08T09:31:24.000Z</time>
      </trkpt>
      <trkpt lat="47.5448" lon="6.7312">
        <ele>415.4</ele>
        <time>2014-06-08T09:31:25.000Z</time>
      </trkpt>
      <trkpt lat="47.54477" lon="6.73119">
        <ele>415.7</ele>
        <time>2014-06-08T09:31:26.000Z</time>
      </trkpt>
      <trkpt lat="47.54473" lon="6.73118">
        <ele>416.1</ele>
        <time>2014-06-08T09:31:27.000Z</time>
      </trkpt>
      <trkpt lat="47.54469" lon="6.73118">
        <ele>415.9</ele>
        <time>2014-06-08T09:31:28.000Z</time>
      </trkpt>
      <trkpt lat="47.54466" lon="6.73118">
        <ele>416.3</ele>
        <time>2014-06-08T09:31:29.000Z</time>
      </trkpt>
      <trkpt lat="47.54462" lon="6.73119">
        <ele>416.6</ele>
        <time>2014-06-08T09:31:30.000Z</time>
      </trkpt>
      <trkpt lat="47.54458" lon="6.73119">
        <ele>416.6</ele>
        <time>2014-06-08T09:31:31.000Z</time>
      </trkpt>
      <trkpt lat="47.54453" lon="6.73118">
        <ele>416</ele>
        <time>2014-06-08T09:31:32.000Z</time>
      </trkpt>
      <trkpt lat="47.54443" lon="6.73117">
        <ele>416.1</ele>
        <time>2014-06-08T09:31:33.000Z</time>
      </trkpt>
      <trkpt lat="47.54433" lon="6.73112">
        <ele>414.7</ele>
        <time>2014-06-08T09:31:34.000Z</time>
      </trkpt>
      <trkpt lat="47.54424" lon="6.73109">
        <ele>414.8</ele>
        <time>2014-06-08T09:31:35.000Z</time>
      </trkpt>
      <trkpt lat="47.54417" lon="6.73105">
        <ele>414.7</ele>
        <time>2014-06-08T09:31:36.000Z</time>
      </trkpt>
      <trkpt lat="47.54408" lon="6.73102">
        <ele>415.2</ele>
        <time>2014-06-08T09:31:37.000Z</time>
      </trkpt>
      <trkpt lat="47.54398" lon="6.73099">
        <ele>414.7</ele>
        <time>2014-06-08T09:31:38.000Z</time>
      </trkpt>
      <trkpt lat="47.54392" lon="6.73094">
        <ele>415.4</ele>
        <time>2014-06-08T09:31:39.000Z</time>
      </trkpt>
      <trkpt lat="47.54384" lon="6.73091">
        <ele>415.3</ele>
        <time>2014-06-08T09:31:40.000Z</time>
      </trkpt>
      <trkpt lat="47.54307" lon="6.73068">
        <ele>411.5</ele>
        <time>2014-06-08T09:31:48.000Z</time>
      </trkpt>
      <trkpt lat="47.54297" lon="6.73064">
        <ele>411.1</ele>
        <time>2014-06-08T09:31:49.000Z</time>
      </trkpt>
      <trkpt lat="47.54287" lon="6.73059">
        <ele>411.1</ele>
        <time>2014-06-08T09:31:50.000Z</time>
      </trkpt>
      <trkpt lat="47.54278" lon="6.73057">
        <ele>410.1</ele>
        <time>2014-06-08T09:31:51.000Z</time>
      </trkpt>
      <trkpt lat="47.54263" lon="6.73049">
        <ele>405.2</ele>
        <time>2014-06-08T09:31:52.000Z</time>
      </trkpt>
      <trkpt lat="47.54253" lon="6.73044">
        <ele>398.2</ele>
        <time>2014-06-08T09:31:53.000Z</time>
      </trkpt>
      <trkpt lat="47.54243" lon="6.73043">
        <ele>396.9</ele>
        <time>2014-06-08T09:31:54.000Z</time>
      </trkpt>
      <trkpt lat="47.54235" lon="6.73041">
        <ele>396.1</ele>
        <time>2014-06-08T09:31:55.001Z</time>
      </trkpt>
      <trkpt lat="47.54223" lon="6.73037">
        <ele>396.4</ele>
        <time>2014-06-08T09:31:56.000Z</time>
      </trkpt>
      <trkpt lat="47.54215" lon="6.73034">
        <ele>396.4</ele>
        <time>2014-06-08T09:31:57.000Z</time>
      </trkpt>
      <trkpt lat="47.54207" lon="6.73032">
        <ele>396.6</ele>
        <time>2014-06-08T09:31:58.000Z</time>
      </trkpt>
      <trkpt lat="47.54198" lon="6.7303">
        <ele>396.4</ele>
        <time>2014-06-08T09:31:59.000Z</time>
      </trkpt>
      <trkpt lat="47.5419" lon="6.73028">
        <ele>396.5</ele>
        <time>2014-06-08T09:32:00.000Z</time>
      </trkpt>
      <trkpt lat="47.54181" lon="6.73026">
        <ele>396.4</ele>
        <time>2014-06-08T09:32:01.000Z</time>
      </trkpt>
      <trkpt lat="47.54174" lon="6.73022">
        <ele>396.3</ele>
        <time>2014-06-08T09:32:02.000Z</time>
      </trkpt>
      <trkpt lat="47.54166" lon="6.73017">
        <ele>395.8</ele>
        <time>2014-06-08T09:32:03.000Z</time>
      </trkpt>
      <trkpt lat="47.54159" lon="6.73011">
        <ele>396.2</ele>
        <time>2014-06-08T09:32:04.000Z</time>
      </trkpt>
      <trkpt lat="47.54154" lon="6.73002">
        <ele>396.7</ele>
        <time>2014-06-08T09:32:05.000Z</time>
      </trkpt>
      <trkpt lat="47.54149" lon="6.72995">
        <ele>396.6</ele>
        <time>2014-06-08T09:32:06.000Z</time>
      </trkpt>
      <trkpt lat="47.54142" lon="6.72987">
        <ele>396.8</ele>
        <time>2014-06-08T09:32:07.000Z</time>
      </trkpt>
      <trkpt lat="47.54134" lon="6.72987">
        <ele>397.2</ele>
        <time>2014-06-08T09:32:08.000Z</time>
      </trkpt>
      <trkpt lat="47.54125" lon="6.72982">
        <ele>397.5</ele>
        <time>2014-06-08T09:32:09.000Z</time>
      </trkpt>
      <trkpt lat="47.54118" lon="6.72977">
        <ele>397.4</ele>
        <time>2014-06-08T09:32:10.000Z</time>
      </trkpt>
      <trkpt lat="47.54111" lon="6.72973">
        <ele>397.4</ele>
        <time>2014-06-08T09:32:11.000Z</time>
      </trkpt>
      <trkpt lat="47.54103" lon="6.72964">
        <ele>397.3</ele>
        <time>2014-06-08T09:32:12.000Z</time>
      </trkpt>
      <trkpt lat="47.54095" lon="6.72955">
        <ele>397.5</ele>
        <time>2014-06-08T09:32:13.000Z</time>
      </trkpt>
      <trkpt lat="47.54089" lon="6.72947">
        <ele>397.4</ele>
        <time>2014-06-08T09:32:14.000Z</time>
      </trkpt>
      <trkpt lat="47.54081" lon="6.72938">
        <ele>395</ele>
        <time>2014-06-08T09:32:15.000Z</time>
      </trkpt>
      <trkpt lat="47.54075" lon="6.72929">
        <ele>394.5</ele>
        <time>2014-06-08T09:32:16.000Z</time>
      </trkpt>
      <trkpt lat="47.54067" lon="6.72922">
        <ele>393</ele>
        <time>2014-06-08T09:32:17.000Z</time>
      </trkpt>
      <trkpt lat="47.54058" lon="6.72916">
        <ele>389.8</ele>
        <time>2014-06-08T09:32:18.000Z</time>
      </trkpt>
      <trkpt lat="47.54052" lon="6.72906">
        <ele>389.5</ele>
        <time>2014-06-08T09:32:19.000Z</time>
      </trkpt>
      <trkpt lat="47.54045" lon="6.72896">
        <ele>389.5</ele>
        <time>2014-06-08T09:32:20.000Z</time>
      </trkpt>
      <trkpt lat="47.5404" lon="6.72887">
        <ele>389.3</ele>
        <time>2014-06-08T09:32:21.000Z</time>
      </trkpt>
      <trkpt lat="47.54033" lon="6.72878">
        <ele>388.5</ele>
        <time>2014-06-08T09:32:22.000Z</time>
      </trkpt>
      <trkpt lat="47.54027" lon="6.72869">
        <ele>387.9</ele>
        <time>2014-06-08T09:32:23.000Z</time>
      </trkpt>
      <trkpt lat="47.54023" lon="6.72858">
        <ele>387.3</ele>
        <time>2014-06-08T09:32:24.000Z</time>
      </trkpt>
      <trkpt lat="47.5402" lon="6.72847">
        <ele>385.3</ele>
        <time>2014-06-08T09:32:25.000Z</time>
      </trkpt>
      <trkpt lat="47.54017" lon="6.72837">
        <ele>385.1</ele>
        <time>2014-06-08T09:32:26.000Z</time>
      </trkpt>
      <trkpt lat="47.54015" lon="6.72831">
        <ele>384.9</ele>
        <time>2014-06-08T09:32:27.000Z</time>
      </trkpt>
      <trkpt lat="47.54014" lon="6.72824">
        <ele>385.9</ele>
        <time>2014-06-08T09:32:28.000Z</time>
      </trkpt>
      <trkpt lat="47.54012" lon="6.72815">
        <ele>386.5</ele>
        <time>2014-06-08T09:32:29.000Z</time>
      </trkpt>
      <trkpt lat="47.54011" lon="6.7281">
        <ele>386.6</ele>
        <time>2014-06-08T09:32:30.000Z</time>
      </trkpt>
      <trkpt lat="47.54008" lon="6.72806">
        <ele>385.7</ele>
        <time>2014-06-08T09:32:31.000Z</time>
      </trkpt>
      <trkpt lat="47.54006" lon="6.72801">
        <ele>385.4</ele>
        <time>2014-06-08T09:32:32.000Z</time>
      </trkpt>
      <trkpt lat="47.54004" lon="6.72795">
        <ele>385.5</ele>
        <time>2014-06-08T09:32:33.000Z</time>
      </trkpt>
      <trkpt lat="47.53999" lon="6.72786">
        <ele>387.1</ele>
        <time>2014-06-08T09:32:34.000Z</time>
      </trkpt>
      <trkpt lat="47.53996" lon="6.72781">
        <ele>388.1</ele>
        <time>2014-06-08T09:32:35.000Z</time>
      </trkpt>
      <trkpt lat="47.53993" lon="6.72775">
        <ele>388.5</ele>
        <time>2014-06-08T09:32:36.000Z</time>
      </trkpt>
      <trkpt lat="47.5399" lon="6.72774">
        <ele>389.8</ele>
        <time>2014-06-08T09:32:37.000Z</time>
      </trkpt>
      <trkpt lat="47.53988" lon="6.72773">
        <ele>390.4</ele>
        <time>2014-06-08T09:32:38.000Z</time>
      </trkpt>
      <trkpt lat="47.53986" lon="6.72771">
        <ele>391.2</ele>
        <time>2014-06-08T09:32:39.000Z</time>
      </trkpt>
      <trkpt lat="47.53982" lon="6.7277">
        <ele>391.1</ele>
        <time>2014-06-08T09:32:40.000Z</time>
      </trkpt>
      <trkpt lat="47.5394" lon="6.72749">
        <ele>387.7</ele>
        <time>2014-06-08T09:32:48.000Z</time>
      </trkpt>
      <trkpt lat="47.5393" lon="6.72745">
        <ele>387.2</ele>
        <time>2014-06-08T09:32:49.000Z</time>
      </trkpt>
      <trkpt lat="47.53922" lon="6.72742">
        <ele>386.2</ele>
        <time>2014-06-08T09:32:50.000Z</time>
      </trkpt>
      <trkpt lat="47.53913" lon="6.7274">
        <ele>386.3</ele>
        <time>2014-06-08T09:32:51.000Z</time>
      </trkpt>
      <trkpt lat="47.53904" lon="6.72736">
        <ele>383.6</ele>
        <time>2014-06-08T09:32:52.000Z</time>
      </trkpt>
      <trkpt lat="47.53897" lon="6.72734">
        <ele>383.6</ele>
        <time>2014-06-08T09:32:53.000Z</time>
      </trkpt>
      <trkpt lat="47.53889" lon="6.72736">
        <ele>383</ele>
        <time>2014-06-08T09:32:54.000Z</time>
      </trkpt>
      <trkpt lat="47.53882" lon="6.72737">
        <ele>380.7</ele>
        <time>2014-06-08T09:32:55.000Z</time>
      </trkpt>
      <trkpt lat="47.53875" lon="6.72738">
        <ele>380.4</ele>
        <time>2014-06-08T09:32:56.000Z</time>
      </trkpt>
      <trkpt lat="47.53866" lon="6.72738">
        <ele>379.4</ele>
        <time>2014-06-08T09:32:57.000Z</time>
      </trkpt>
      <trkpt lat="47.53859" lon="6.72737">
        <ele>378.5</ele>
        <time>2014-06-08T09:32:58.000Z</time>
      </trkpt>
      <trkpt lat="47.53854" lon="6.72737">
        <ele>378.4</ele>
        <time>2014-06-08T09:32:59.000Z</time>
      </trkpt>
      <trkpt lat="47.53846" lon="6.72737">
        <ele>378.3</ele>
        <time>2014-06-08T09:33:00.000Z</time>
      </trkpt>
      <trkpt lat="47.53839" lon="6.72737">
        <ele>378.7</ele>
        <time>2014-06-08T09:33:01.000Z</time>
      </trkpt>
      <trkpt lat="47.53832" lon="6.72739">
        <ele>378.4</ele>
        <time>2014-06-08T09:33:02.000Z</time>
      </trkpt>
      <trkpt lat="47.53824" lon="6.72743">
        <ele>378.2</ele>
        <time>2014-06-08T09:33:03.000Z</time>
      </trkpt>
      <trkpt lat="47.53818" lon="6.72747">
        <ele>378.2</ele>
        <time>2014-06-08T09:33:04.000Z</time>
      </trkpt>
      <trkpt lat="47.53812" lon="6.72747">
        <ele>377.9</ele>
        <time>2014-06-08T09:33:05.000Z</time>
      </trkpt>
      <trkpt lat="47.53804" lon="6.7275">
        <ele>377.7</ele>
        <time>2014-06-08T09:33:06.000Z</time>
      </trkpt>
      <trkpt lat="47.53797" lon="6.72743">
        <ele>378.9</ele>
        <time>2014-06-08T09:33:07.000Z</time>
      </trkpt>
      <trkpt lat="47.53791" lon="6.72737">
        <ele>379.8</ele>
        <time>2014-06-08T09:33:08.000Z</time>
      </trkpt>
      <trkpt lat="47.53784" lon="6.7273">
        <ele>380</ele>
        <time>2014-06-08T09:33:09.000Z</time>
      </trkpt>
      <trkpt lat="47.53777" lon="6.72726">
        <ele>378.6</ele>
        <time>2014-06-08T09:33:10.000Z</time>
      </trkpt>
      <trkpt lat="47.53769" lon="6.72722">
        <ele>376.5</ele>
        <time>2014-06-08T09:33:11.000Z</time>
      </trkpt>
      <trkpt lat="47.53762" lon="6.7272">
        <ele>374.5</ele>
        <time>2014-06-08T09:33:12.000Z</time>
      </trkpt>
      <trkpt lat="47.53755" lon="6.7272">
        <ele>370.7</ele>
        <time>2014-06-08T09:33:13.000Z</time>
      </trkpt>
      <trkpt lat="47.5375" lon="6.72724">
        <ele>367.8</ele>
        <time>2014-06-08T09:33:14.000Z</time>
      </trkpt>
      <trkpt lat="47.53746" lon="6.72726">
        <ele>366.2</ele>
        <time>2014-06-08T09:33:15.000Z</time>
      </trkpt>
      <trkpt lat="47.53742" lon="6.72728">
        <ele>366.1</ele>
        <time>2014-06-08T09:33:16.000Z</time>
      </trkpt>
      <trkpt lat="47.53737" lon="6.72727">
        <ele>365.6</ele>
        <time>2014-06-08T09:33:17.000Z</time>
      </trkpt>
      <trkpt lat="47.53731" lon="6.72726">
        <ele>364.8</ele>
        <time>2014-06-08T09:33:18.000Z</time>
      </trkpt>
      <trkpt lat="47.53728" lon="6.72727">
        <ele>364.8</ele>
        <time>2014-06-08T09:33:19.000Z</time>
      </trkpt>
      <trkpt lat="47.53724" lon="6.72726">
        <ele>364.5</ele>
        <time>2014-06-08T09:33:20.000Z</time>
      </trkpt>
      <trkpt lat="47.53721" lon="6.72725">
        <ele>364.1</ele>
        <time>2014-06-08T09:33:21.000Z</time>
      </trkpt>
      <trkpt lat="47.5372" lon="6.72726">
        <ele>363.7</ele>
        <time>2014-06-08T09:33:22.000Z</time>
      </trkpt>
      <trkpt lat="47.53715" lon="6.72726">
        <ele>363.4</ele>
        <time>2014-06-08T09:33:24.000Z</time>
      </trkpt>
      <trkpt lat="47.53714" lon="6.72726">
        <ele>362.9</ele>
        <time>2014-06-08T09:33:25.000Z</time>
      </trkpt>
      <trkpt lat="47.53711" lon="6.72721">
        <ele>356.2</ele>
        <time>2014-06-08T09:33:36.000Z</time>
      </trkpt>
      <trkpt lat="47.5371" lon="6.72721">
        <ele>356</ele>
        <time>2014-06-08T09:33:37.000Z</time>
      </trkpt>
      <trkpt lat="47.53706" lon="6.72724">
        <ele>352.1</ele>
        <time>2014-06-08T09:36:16.000Z</time>
      </trkpt>
      <trkpt lat="47.53706" lon="6.72724">
        <ele>352</ele>
        <time>2014-06-08T09:36:17.000Z</time>
      </trkpt>
      <trkpt lat="47.53705" lon="6.72724">
        <ele>351.9</ele>
        <time>2014-06-08T09:36:39.000Z</time>
      </trkpt>
      <trkpt lat="47.53691" lon="6.72725">
        <ele>353.5</ele>
        <time>2014-06-08T09:36:46.760Z</time>
      </trkpt>
      <trkpt lat="47.53687" lon="6.72724">
        <ele>353.7</ele>
        <time>2014-06-08T09:36:48.000Z</time>
      </trkpt>
      <trkpt lat="47.53685" lon="6.72724">
        <ele>354.9</ele>
        <time>2014-06-08T09:36:49.000Z</time>
      </trkpt>
      <trkpt lat="47.53682" lon="6.72723">
        <ele>355.2</ele>
        <time>2014-06-08T09:36:50.000Z</time>
      </trkpt>
      <trkpt lat="47.53679" lon="6.72722">
        <ele>355</ele>
        <time>2014-06-08T09:36:51.000Z</time>
      </trkpt>
      <trkpt lat="47.53677" lon="6.72721">
        <ele>355</ele>
        <time>2014-06-08T09:36:52.000Z</time>
      </trkpt>
      <trkpt lat="47.53674" lon="6.7272">
        <ele>355</ele>
        <time>2014-06-08T09:36:53.000Z</time>
      </trkpt>
      <trkpt lat="47.53671" lon="6.72718">
        <ele>355.9</ele>
        <time>2014-06-08T09:36:54.000Z</time>
      </trkpt>
      <trkpt lat="47.53668" lon="6.72716">
        <ele>355.5</ele>
        <time>2014-06-08T09:36:55.000Z</time>
      </trkpt>
      <trkpt lat="47.53666" lon="6.72714">
        <ele>357.3</ele>
        <time>2014-06-08T09:36:56.000Z</time>
      </trkpt>
      <trkpt lat="47.53663" lon="6.72713">
        <ele>357.9</ele>
        <time>2014-06-08T09:36:57.000Z</time>
      </trkpt>
      <trkpt lat="47.5366" lon="6.72711">
        <ele>358.4</ele>
        <time>2014-06-08T09:36:58.000Z</time>
      </trkpt>
      <trkpt lat="47.53657" lon="6.7271">
        <ele>359.1</ele>
        <time>2014-06-08T09:36:59.000Z</time>
      </trkpt>
      <trkpt lat="47.53654" lon="6.72708">
        <ele>359.7</ele>
        <time>2014-06-08T09:37:00.000Z</time>
      </trkpt>
      <trkpt lat="47.53651" lon="6.72707">
        <ele>358.4</ele>
        <time>2014-06-08T09:37:01.000Z</time>
      </trkpt>
      <trkpt lat="47.53648" lon="6.72706">
        <ele>358.1</ele>
        <time>2014-06-08T09:37:02.000Z</time>
      </trkpt>
      <trkpt lat="47.53645" lon="6.72705">
        <ele>358.3</ele>
        <time>2014-06-08T09:37:03.000Z</time>
      </trkpt>
      <trkpt lat="47.53642" lon="6.72704">
        <ele>358.4</ele>
        <time>2014-06-08T09:37:04.000Z</time>
      </trkpt>
      <trkpt lat="47.53639" lon="6.72703">
        <ele>358.8</ele>
        <time>2014-06-08T09:37:05.000Z</time>
      </trkpt>
      <trkpt lat="47.53635" lon="6.72702">
        <ele>359</ele>
        <time>2014-06-08T09:37:06.000Z</time>
      </trkpt>
      <trkpt lat="47.53632" lon="6.72702">
        <ele>358.7</ele>
        <time>2014-06-08T09:37:07.000Z</time>
      </trkpt>
      <trkpt lat="47.53625" lon="6.72702">
        <ele>359.6</ele>
        <time>2014-06-08T09:37:08.000Z</time>
      </trkpt>
      <trkpt lat="47.53622" lon="6.72703">
        <ele>359.1</ele>
        <time>2014-06-08T09:37:09.000Z</time>
      </trkpt>
      <trkpt lat="47.53618" lon="6.72703">
        <ele>359</ele>
        <time>2014-06-08T09:37:10.000Z</time>
      </trkpt>
      <trkpt lat="47.53615" lon="6.72703">
        <ele>360.4</ele>
        <time>2014-06-08T09:37:11.000Z</time>
      </trkpt>
      <trkpt lat="47.53612" lon="6.72704">
        <ele>360.2</ele>
        <time>2014-06-08T09:37:12.000Z</time>
      </trkpt>
      <trkpt lat="47.53607" lon="6.72703">
        <ele>359.6</ele>
        <time>2014-06-08T09:37:13.000Z</time>
      </trkpt>
      <trkpt lat="47.53604" lon="6.72701">
        <ele>360</ele>
        <time>2014-06-08T09:37:14.000Z</time>
      </trkpt>
      <trkpt lat="47.53601" lon="6.727">
        <ele>360.2</ele>
        <time>2014-06-08T09:37:15.000Z</time>
      </trkpt>
      <trkpt lat="47.53596" lon="6.72698">
        <ele>359.4</ele>
        <time>2014-06-08T09:37:16.000Z</time>
      </trkpt>
      <trkpt lat="47.53592" lon="6.72696">
        <ele>359.3</ele>
        <time>2014-06-08T09:37:17.000Z</time>
      </trkpt>
      <trkpt lat="47.53589" lon="6.72695">
        <ele>359.6</ele>
        <time>2014-06-08T09:37:18.000Z</time>
      </trkpt>
      <trkpt lat="47.53585" lon="6.72694">
        <ele>359.7</ele>
        <time>2014-06-08T09:37:19.000Z</time>
      </trkpt>
      <trkpt lat="47.53581" lon="6.72694">
        <ele>359.7</ele>
        <time>2014-06-08T09:37:20.000Z</time>
      </trkpt>
      <trkpt lat="47.53577" lon="6.72693">
        <ele>360.2</ele>
        <time>2014-06-08T09:37:21.000Z</time>
      </trkpt>
      <trkpt lat="47.53573" lon="6.72692">
        <ele>359.7</ele>
        <time>2014-06-08T09:37:22.000Z</time>
      </trkpt>
      <trkpt lat="47.53569" lon="6.72691">
        <ele>358.3</ele>
        <time>2014-06-08T09:37:23.000Z</time>
      </trkpt>
      <trkpt lat="47.53565" lon="6.7269">
        <ele>357.4</ele>
        <time>2014-06-08T09:37:24.000Z</time>
      </trkpt>
      <trkpt lat="47.53561" lon="6.7269">
        <ele>358</ele>
        <time>2014-06-08T09:37:25.000Z</time>
      </trkpt>
      <trkpt lat="47.53557" lon="6.72689">
        <ele>357.8</ele>
        <time>2014-06-08T09:37:26.000Z</time>
      </trkpt>
      <trkpt lat="47.53553" lon="6.7269">
        <ele>357.8</ele>
        <time>2014-06-08T09:37:27.000Z</time>
      </trkpt>
      <trkpt lat="47.53549" lon="6.72692">
        <ele>357.8</ele>
        <time>2014-06-08T09:37:28.000Z</time>
      </trkpt>
      <trkpt lat="47.53545" lon="6.72694">
        <ele>358.4</ele>
        <time>2014-06-08T09:37:29.000Z</time>
      </trkpt>
      <trkpt lat="47.53542" lon="6.72697">
        <ele>358.1</ele>
        <time>2014-06-08T09:37:30.000Z</time>
      </trkpt>
      <trkpt lat="47.53539" lon="6.727">
        <ele>357.9</ele>
        <time>2014-06-08T09:37:31.000Z</time>
      </trkpt>
      <trkpt lat="47.53536" lon="6.72704">
        <ele>357.7</ele>
        <time>2014-06-08T09:37:32.000Z</time>
      </trkpt>
      <trkpt lat="47.53533" lon="6.72707">
        <ele>358</ele>
        <time>2014-06-08T09:37:33.000Z</time>
      </trkpt>
      <trkpt lat="47.5353" lon="6.7271">
        <ele>358</ele>
        <time>2014-06-08T09:37:34.000Z</time>
      </trkpt>
      <trkpt lat="47.53527" lon="6.72712">
        <ele>357.9</ele>
        <time>2014-06-08T09:37:35.000Z</time>
      </trkpt>
      <trkpt lat="47.53525" lon="6.72715">
        <ele>358</ele>
        <time>2014-06-08T09:37:36.000Z</time>
      </trkpt>
      <trkpt lat="47.53522" lon="6.72717">
        <ele>357.4</ele>
        <time>2014-06-08T09:37:37.000Z</time>
      </trkpt>
      <trkpt lat="47.5352" lon="6.72719">
        <ele>357.5</ele>
        <time>2014-06-08T09:37:38.000Z</time>
      </trkpt>
      <trkpt lat="47.53517" lon="6.72721">
        <ele>357.1</ele>
        <time>2014-06-08T09:37:39.000Z</time>
      </trkpt>
      <trkpt lat="47.53515" lon="6.72724">
        <ele>357.4</ele>
        <time>2014-06-08T09:37:40.000Z</time>
      </trkpt>
      <trkpt lat="47.53492" lon="6.72748">
        <ele>355.7</ele>
        <time>2014-06-08T09:37:48.000Z</time>
      </trkpt>
      <trkpt lat="47.53488" lon="6.7275">
        <ele>356.4</ele>
        <time>2014-06-08T09:37:49.000Z</time>
      </trkpt>
      <trkpt lat="47.53484" lon="6.72753">
        <ele>355.3</ele>
        <time>2014-06-08T09:37:50.000Z</time>
      </trkpt>
      <trkpt lat="47.5348" lon="6.72755">
        <ele>354.4</ele>
        <time>2014-06-08T09:37:51.000Z</time>
      </trkpt>
      <trkpt lat="47.53476" lon="6.72757">
        <ele>354</ele>
        <time>2014-06-08T09:37:52.000Z</time>
      </trkpt>
      <trkpt lat="47.53471" lon="6.72758">
        <ele>353.9</ele>
        <time>2014-06-08T09:37:53.000Z</time>
      </trkpt>
      <trkpt lat="47.53467" lon="6.72759">
        <ele>353</ele>
        <time>2014-06-08T09:37:54.000Z</time>
      </trkpt>
      <trkpt lat="47.53462" lon="6.72761">
        <ele>353.2</ele>
        <time>2014-06-08T09:37:55.000Z</time>
      </trkpt>
      <trkpt lat="47.53459" lon="6.72764">
        <ele>353.6</ele>
        <time>2014-06-08T09:37:56.000Z</time>
      </trkpt>
      <trkpt lat="47.53456" lon="6.72767">
        <ele>353.5</ele>
        <time>2014-06-08T09:37:57.000Z</time>
      </trkpt>
      <trkpt lat="47.53453" lon="6.7277">
        <ele>353.7</ele>
        <time>2014-06-08T09:37:58.000Z</time>
      </trkpt>
      <trkpt lat="47.5345" lon="6.72773">
        <ele>354.5</ele>
        <time>2014-06-08T09:37:59.000Z</time>
      </trkpt>
      <trkpt lat="47.53448" lon="6.72775">
        <ele>353.7</ele>
        <time>2014-06-08T09:38:00.000Z</time>
      </trkpt>
      <trkpt lat="47.53445" lon="6.72778">
        <ele>354</ele>
        <time>2014-06-08T09:38:01.000Z</time>
      </trkpt>
      <trkpt lat="47.53443" lon="6.72779">
        <ele>353.8</ele>
        <time>2014-06-08T09:38:02.000Z</time>
      </trkpt>
      <trkpt lat="47.53441" lon="6.72781">
        <ele>353.6</ele>
        <time>2014-06-08T09:38:03.000Z</time>
      </trkpt>
      <trkpt lat="47.53439" lon="6.72783">
        <ele>353.9</ele>
        <time>2014-06-08T09:38:04.000Z</time>
      </trkpt>
      <trkpt lat="47.53435" lon="6.72787">
        <ele>354.6</ele>
        <time>2014-06-08T09:38:06.000Z</time>
      </trkpt>
      <trkpt lat="47.53434" lon="6.72789">
        <ele>355.9</ele>
        <time>2014-06-08T09:38:07.000Z</time>
      </trkpt>
      <trkpt lat="47.53431" lon="6.72792">
        <ele>356.5</ele>
        <time>2014-06-08T09:38:09.000Z</time>
      </trkpt>
      <trkpt lat="47.53429" lon="6.72794">
        <ele>356.9</ele>
        <time>2014-06-08T09:38:10.000Z</time>
      </trkpt>
      <trkpt lat="47.53426" lon="6.72796">
        <ele>359.2</ele>
        <time>2014-06-08T09:38:13.000Z</time>
      </trkpt>
      <trkpt lat="47.53425" lon="6.72797">
        <ele>360.2</ele>
        <time>2014-06-08T09:38:14.000Z</time>
      </trkpt>
      <trkpt lat="47.53423" lon="6.72801">
        <ele>363</ele>
        <time>2014-06-08T09:38:19.000Z</time>
      </trkpt>
      <trkpt lat="47.53422" lon="6.72803">
        <ele>364.1</ele>
        <time>2014-06-08T09:38:20.000Z</time>
      </trkpt>
      <trkpt lat="47.53419" lon="6.72807">
        <ele>365.4</ele>
        <time>2014-06-08T09:38:22.000Z</time>
      </trkpt>
      <trkpt lat="47.53418" lon="6.7281">
        <ele>365.4</ele>
        <time>2014-06-08T09:38:23.000Z</time>
      </trkpt>
      <trkpt lat="47.53415" lon="6.72815">
        <ele>366.8</ele>
        <time>2014-06-08T09:38:25.000Z</time>
      </trkpt>
      <trkpt lat="47.53415" lon="6.72817">
        <ele>367.5</ele>
        <time>2014-06-08T09:38:26.000Z</time>
      </trkpt>
      <trkpt lat="47.53413" lon="6.72821">
        <ele>367</ele>
        <time>2014-06-08T09:38:28.000Z</time>
      </trkpt>
      <trkpt lat="47.53412" lon="6.72824">
        <ele>366.8</ele>
        <time>2014-06-08T09:38:29.000Z</time>
      </trkpt>
      <trkpt lat="47.5341" lon="6.72828">
        <ele>367.7</ele>
        <time>2014-06-08T09:38:31.000Z</time>
      </trkpt>
      <trkpt lat="47.53409" lon="6.7283">
        <ele>366.9</ele>
        <time>2014-06-08T09:38:32.000Z</time>
      </trkpt>
      <trkpt lat="47.53407" lon="6.72834">
        <ele>368.4</ele>
        <time>2014-06-08T09:38:34.000Z</time>
      </trkpt>
      <trkpt lat="47.53405" lon="6.72836">
        <ele>368</ele>
        <time>2014-06-08T09:38:35.000Z</time>
      </trkpt>
      <trkpt lat="47.53403" lon="6.72839">
        <ele>367.4</ele>
        <time>2014-06-08T09:38:37.000Z</time>
      </trkpt>
      <trkpt lat="47.53402" lon="6.72841">
        <ele>367.9</ele>
        <time>2014-06-08T09:38:38.000Z</time>
      </trkpt>
      <trkpt lat="47.53401" lon="6.72845">
        <ele>367.7</ele>
        <time>2014-06-08T09:38:40.000Z</time>
      </trkpt>
      <trkpt lat="47.53397" lon="6.72848">
        <ele>364.7</ele>
        <time>2014-06-08T09:38:43.000Z</time>
      </trkpt>
      <trkpt lat="47.53395" lon="6.72853">
        <ele>368.9</ele>
        <time>2014-06-08T09:38:45.000Z</time>
      </trkpt>
      <trkpt lat="47.53394" lon="6.72856">
        <ele>369.8</ele>
        <time>2014-06-08T09:38:46.000Z</time>
      </trkpt>
      <trkpt lat="47.53393" lon="6.72861">
        <ele>370.5</ele>
        <time>2014-06-08T09:38:48.000Z</time>
      </trkpt>
      <trkpt lat="47.53392" lon="6.72863">
        <ele>370.9</ele>
        <time>2014-06-08T09:38:49.000Z</time>
      </trkpt>
      <trkpt lat="47.53391" lon="6.72867">
        <ele>371.3</ele>
        <time>2014-06-08T09:38:51.000Z</time>
      </trkpt>
      <trkpt lat="47.5339" lon="6.7287">
        <ele>371.4</ele>
        <time>2014-06-08T09:38:52.000Z</time>
      </trkpt>
      <trkpt lat="47.53388" lon="6.72875">
        <ele>371.6</ele>
        <time>2014-06-08T09:38:54.000Z</time>
      </trkpt>
      <trkpt lat="47.53386" lon="6.72878">
        <ele>370.4</ele>
        <time>2014-06-08T09:38:55.000Z</time>
      </trkpt>
      <trkpt lat="47.53384" lon="6.72881">
        <ele>370.7</ele>
        <time>2014-06-08T09:38:56.000Z</time>
      </trkpt>
      <trkpt lat="47.53381" lon="6.72883">
        <ele>370.3</ele>
        <time>2014-06-08T09:38:57.000Z</time>
      </trkpt>
      <trkpt lat="47.53379" lon="6.72886">
        <ele>370.9</ele>
        <time>2014-06-08T09:38:58.000Z</time>
      </trkpt>
      <trkpt lat="47.53376" lon="6.72889">
        <ele>372.5</ele>
        <time>2014-06-08T09:38:59.000Z</time>
      </trkpt>
      <trkpt lat="47.53374" lon="6.72891">
        <ele>371.3</ele>
        <time>2014-06-08T09:39:00.000Z</time>
      </trkpt>
      <trkpt lat="47.53371" lon="6.72894">
        <ele>370.4</ele>
        <time>2014-06-08T09:39:01.000Z</time>
      </trkpt>
      <trkpt lat="47.53368" lon="6.72896">
        <ele>369.1</ele>
        <time>2014-06-08T09:39:02.000Z</time>
      </trkpt>
      <trkpt lat="47.53365" lon="6.72899">
        <ele>367.4</ele>
        <time>2014-06-08T09:39:03.000Z</time>
      </trkpt>
      <trkpt lat="47.53362" lon="6.72902">
        <ele>367.8</ele>
        <time>2014-06-08T09:39:04.000Z</time>
      </trkpt>
      <trkpt lat="47.53358" lon="6.72905">
        <ele>367.3</ele>
        <time>2014-06-08T09:39:05.000Z</time>
      </trkpt>
      <trkpt lat="47.53355" lon="6.72908">
        <ele>368.2</ele>
        <time>2014-06-08T09:39:06.000Z</time>
      </trkpt>
      <trkpt lat="47.53352" lon="6.7291">
        <ele>368</ele>
        <time>2014-06-08T09:39:07.000Z</time>
      </trkpt>
      <trkpt lat="47.53349" lon="6.72913">
        <ele>367.9</ele>
        <time>2014-06-08T09:39:08.000Z</time>
      </trkpt>
      <trkpt lat="47.53346" lon="6.72916">
        <ele>367.9</ele>
        <time>2014-06-08T09:39:09.000Z</time>
      </trkpt>
      <trkpt lat="47.53343" lon="6.72919">
        <ele>367.5</ele>
        <time>2014-06-08T09:39:10.000Z</time>
      </trkpt>
      <trkpt lat="47.53339" lon="6.72923">
        <ele>367.1</ele>
        <time>2014-06-08T09:39:11.000Z</time>
      </trkpt>
      <trkpt lat="47.53336" lon="6.72926">
        <ele>366.4</ele>
        <time>2014-06-08T09:39:12.000Z</time>
      </trkpt>
      <trkpt lat="47.53333" lon="6.72928">
        <ele>366.1</ele>
        <time>2014-06-08T09:39:13.000Z</time>
      </trkpt>
      <trkpt lat="47.5333" lon="6.72931">
        <ele>366.8</ele>
        <time>2014-06-08T09:39:14.000Z</time>
      </trkpt>
      <trkpt lat="47.53326" lon="6.72934">
        <ele>367.8</ele>
        <time>2014-06-08T09:39:15.000Z</time>
      </trkpt>
      <trkpt lat="47.53323" lon="6.72937">
        <ele>368.2</ele>
        <time>2014-06-08T09:39:16.000Z</time>
      </trkpt>
      <trkpt lat="47.5332" lon="6.7294">
        <ele>368.8</ele>
        <time>2014-06-08T09:39:17.000Z</time>
      </trkpt>
      <trkpt lat="47.53317" lon="6.72943">
        <ele>368.4</ele>
        <time>2014-06-08T09:39:18.000Z</time>
      </trkpt>
      <trkpt lat="47.53314" lon="6.72946">
        <ele>368.2</ele>
        <time>2014-06-08T09:39:19.000Z</time>
      </trkpt>
      <trkpt lat="47.53311" lon="6.72949">
        <ele>366.5</ele>
        <time>2014-06-08T09:39:20.000Z</time>
      </trkpt>
      <trkpt lat="47.53308" lon="6.72951">
        <ele>365.2</ele>
        <time>2014-06-08T09:39:21.000Z</time>
      </trkpt>
      <trkpt lat="47.53306" lon="6.72953">
        <ele>364.5</ele>
        <time>2014-06-08T09:39:22.000Z</time>
      </trkpt>
      <trkpt lat="47.53303" lon="6.72955">
        <ele>364.7</ele>
        <time>2014-06-08T09:39:23.000Z</time>
      </trkpt>
      <trkpt lat="47.533" lon="6.72957">
        <ele>364.8</ele>
        <time>2014-06-08T09:39:24.000Z</time>
      </trkpt>
      <trkpt lat="47.53297" lon="6.72959">
        <ele>364.4</ele>
        <time>2014-06-08T09:39:25.000Z</time>
      </trkpt>
      <trkpt lat="47.53294" lon="6.72961">
        <ele>363.8</ele>
        <time>2014-06-08T09:39:26.000Z</time>
      </trkpt>
      <trkpt lat="47.53292" lon="6.72963">
        <ele>362.9</ele>
        <time>2014-06-08T09:39:27.000Z</time>
      </trkpt>
      <trkpt lat="47.53289" lon="6.72965">
        <ele>362.7</ele>
        <time>2014-06-08T09:39:28.000Z</time>
      </trkpt>
      <trkpt lat="47.53287" lon="6.72967">
        <ele>362.7</ele>
        <time>2014-06-08T09:39:29.000Z</time>
      </trkpt>
      <trkpt lat="47.53284" lon="6.72968">
        <ele>363.8</ele>
        <time>2014-06-08T09:39:30.000Z</time>
      </trkpt>
      <trkpt lat="47.53282" lon="6.7297">
        <ele>364</ele>
        <time>2014-06-08T09:39:31.000Z</time>
      </trkpt>
      <trkpt lat="47.53279" lon="6.72972">
        <ele>363.2</ele>
        <time>2014-06-08T09:39:32.000Z</time>
      </trkpt>
      <trkpt lat="47.53276" lon="6.72975">
        <ele>363</ele>
        <time>2014-06-08T09:39:33.000Z</time>
      </trkpt>
      <trkpt lat="47.53273" lon="6.72977">
        <ele>363.4</ele>
        <time>2014-06-08T09:39:34.000Z</time>
      </trkpt>
      <trkpt lat="47.5327" lon="6.7298">
        <ele>363.5</ele>
        <time>2014-06-08T09:39:35.000Z</time>
      </trkpt>
      <trkpt lat="47.53268" lon="6.72981">
        <ele>363.3</ele>
        <time>2014-06-08T09:39:36.000Z</time>
      </trkpt>
      <trkpt lat="47.53265" lon="6.72982">
        <ele>363.1</ele>
        <time>2014-06-08T09:39:37.000Z</time>
      </trkpt>
      <trkpt lat="47.53263" lon="6.72984">
        <ele>362.6</ele>
        <time>2014-06-08T09:39:38.000Z</time>
      </trkpt>
      <trkpt lat="47.5326" lon="6.72985">
        <ele>362.6</ele>
        <time>2014-06-08T09:39:39.000Z</time>
      </trkpt>
      <trkpt lat="47.53258" lon="6.72987">
        <ele>363.9</ele>
        <time>2014-06-08T09:39:40.000Z</time>
      </trkpt>
      <trkpt lat="47.53239" lon="6.73">
        <ele>365</ele>
        <time>2014-06-08T09:39:48.000Z</time>
      </trkpt>
      <trkpt lat="47.53236" lon="6.73002">
        <ele>364.7</ele>
        <time>2014-06-08T09:39:49.000Z</time>
      </trkpt>
      <trkpt lat="47.53233" lon="6.73003">
        <ele>365.7</ele>
        <time>2014-06-08T09:39:50.000Z</time>
      </trkpt>
      <trkpt lat="47.53231" lon="6.73005">
        <ele>365.5</ele>
        <time>2014-06-08T09:39:51.000Z</time>
      </trkpt>
      <trkpt lat="47.53228" lon="6.73007">
        <ele>365.4</ele>
        <time>2014-06-08T09:39:52.000Z</time>
      </trkpt>
      <trkpt lat="47.53225" lon="6.73009">
        <ele>366.7</ele>
        <time>2014-06-08T09:39:53.000Z</time>
      </trkpt>
      <trkpt lat="47.53223" lon="6.73012">
        <ele>366.8</ele>
        <time>2014-06-08T09:39:54.000Z</time>
      </trkpt>
      <trkpt lat="47.53221" lon="6.73014">
        <ele>366.7</ele>
        <time>2014-06-08T09:39:55.000Z</time>
      </trkpt>
      <trkpt lat="47.53218" lon="6.73016">
        <ele>366.5</ele>
        <time>2014-06-08T09:39:56.000Z</time>
      </trkpt>
      <trkpt lat="47.53216" lon="6.73018">
        <ele>366.8</ele>
        <time>2014-06-08T09:39:57.000Z</time>
      </trkpt>
      <trkpt lat="47.53213" lon="6.7302">
        <ele>367.1</ele>
        <time>2014-06-08T09:39:58.000Z</time>
      </trkpt>
      <trkpt lat="47.53211" lon="6.73022">
        <ele>367.7</ele>
        <time>2014-06-08T09:39:59.000Z</time>
      </trkpt>
      <trkpt lat="47.53209" lon="6.73023">
        <ele>367.7</ele>
        <time>2014-06-08T09:40:00.000Z</time>
      </trkpt>
      <trkpt lat="47.53207" lon="6.73025">
        <ele>367.7</ele>
        <time>2014-06-08T09:40:01.000Z</time>
      </trkpt>
      <trkpt lat="47.53205" lon="6.73027">
        <ele>369.1</ele>
        <time>2014-06-08T09:40:02.000Z</time>
      </trkpt>
      <trkpt lat="47.53203" lon="6.73029">
        <ele>370</ele>
        <time>2014-06-08T09:40:03.000Z</time>
      </trkpt>
      <trkpt lat="47.53201" lon="6.73031">
        <ele>370.5</ele>
        <time>2014-06-08T09:40:04.000Z</time>
      </trkpt>
      <trkpt lat="47.53199" lon="6.73033">
        <ele>370.8</ele>
        <time>2014-06-08T09:40:05.000Z</time>
      </trkpt>
      <trkpt lat="47.53197" lon="6.73035">
        <ele>369.4</ele>
        <time>2014-06-08T09:40:06.000Z</time>
      </trkpt>
      <trkpt lat="47.53195" lon="6.73037">
        <ele>370.7</ele>
        <time>2014-06-08T09:40:07.000Z</time>
      </trkpt>
      <trkpt lat="47.53193" lon="6.73039">
        <ele>371.1</ele>
        <time>2014-06-08T09:40:08.000Z</time>
      </trkpt>
      <trkpt lat="47.53191" lon="6.73042">
        <ele>371.1</ele>
        <time>2014-06-08T09:40:09.000Z</time>
      </trkpt>
      <trkpt lat="47.53189" lon="6.73044">
        <ele>371.6</ele>
        <time>2014-06-08T09:40:10.000Z</time>
      </trkpt>
      <trkpt lat="47.53187" lon="6.73046">
        <ele>372</ele>
        <time>2014-06-08T09:40:11.000Z</time>
      </trkpt>
      <trkpt lat="47.53185" lon="6.73048">
        <ele>372.1</ele>
        <time>2014-06-08T09:40:12.000Z</time>
      </trkpt>
      <trkpt lat="47.53183" lon="6.7305">
        <ele>371.9</ele>
        <time>2014-06-08T09:40:13.000Z</time>
      </trkpt>
      <trkpt lat="47.53181" lon="6.73052">
        <ele>372.1</ele>
        <time>2014-06-08T09:40:14.000Z</time>
      </trkpt>
      <trkpt lat="47.53178" lon="6.73055">
        <ele>372</ele>
        <time>2014-06-08T09:40:15.000Z</time>
      </trkpt>
      <trkpt lat="47.53176" lon="6.73057">
        <ele>372.1</ele>
        <time>2014-06-08T09:40:16.000Z</time>
      </trkpt>
      <trkpt lat="47.53174" lon="6.73059">
        <ele>372.3</ele>
        <time>2014-06-08T09:40:17.000Z</time>
      </trkpt>
      <trkpt lat="47.53172" lon="6.73062">
        <ele>372.5</ele>
        <time>2014-06-08T09:40:18.000Z</time>
      </trkpt>
      <trkpt lat="47.5317" lon="6.73064">
        <ele>372.5</ele>
        <time>2014-06-08T09:40:19.000Z</time>
      </trkpt>
      <trkpt lat="47.53168" lon="6.73066">
        <ele>372.8</ele>
        <time>2014-06-08T09:40:20.000Z</time>
      </trkpt>
      <trkpt lat="47.53166" lon="6.73069">
        <ele>372.9</ele>
        <time>2014-06-08T09:40:21.000Z</time>
      </trkpt>
      <trkpt lat="47.53164" lon="6.73072">
        <ele>373.1</ele>
        <time>2014-06-08T09:40:22.000Z</time>
      </trkpt>
      <trkpt lat="47.53162" lon="6.73075">
        <ele>373.2</ele>
        <time>2014-06-08T09:40:23.000Z</time>
      </trkpt>
      <trkpt lat="47.5316" lon="6.73077">
        <ele>373.2</ele>
        <time>2014-06-08T09:40:24.000Z</time>
      </trkpt>
      <trkpt lat="47.53158" lon="6.7308">
        <ele>373</ele>
        <time>2014-06-08T09:40:25.000Z</time>
      </trkpt>
      <trkpt lat="47.53156" lon="6.73083">
        <ele>373.1</ele>
        <time>2014-06-08T09:40:26.000Z</time>
      </trkpt>
      <trkpt lat="47.53154" lon="6.73086">
        <ele>373.5</ele>
        <time>2014-06-08T09:40:27.000Z</time>
      </trkpt>
      <trkpt lat="47.53152" lon="6.73089">
        <ele>373.8</ele>
        <time>2014-06-08T09:40:28.000Z</time>
      </trkpt>
      <trkpt lat="47.5315" lon="6.73091">
        <ele>374.2</ele>
        <time>2014-06-08T09:40:29.000Z</time>
      </trkpt>
      <trkpt lat="47.53148" lon="6.73094">
        <ele>374</ele>
        <time>2014-06-08T09:40:30.000Z</time>
      </trkpt>
      <trkpt lat="47.53146" lon="6.73097">
        <ele>374.1</ele>
        <time>2014-06-08T09:40:31.000Z</time>
      </trkpt>
      <trkpt lat="47.53144" lon="6.731">
        <ele>374.2</ele>
        <time>2014-06-08T09:40:32.000Z</time>
      </trkpt>
      <trkpt lat="47.53142" lon="6.73103">
        <ele>374.5</ele>
        <time>2014-06-08T09:40:33.000Z</time>
      </trkpt>
      <trkpt lat="47.5314" lon="6.73105">
        <ele>374.6</ele>
        <time>2014-06-08T09:40:34.000Z</time>
      </trkpt>
      <trkpt lat="47.53138" lon="6.73108">
        <ele>374.6</ele>
        <time>2014-06-08T09:40:35.000Z</time>
      </trkpt>
      <trkpt lat="47.53136" lon="6.73111">
        <ele>375.1</ele>
        <time>2014-06-08T09:40:36.000Z</time>
      </trkpt>
      <trkpt lat="47.53134" lon="6.73114">
        <ele>375</ele>
        <time>2014-06-08T09:40:37.000Z</time>
      </trkpt>
      <trkpt lat="47.53132" lon="6.73117">
        <ele>375.3</ele>
        <time>2014-06-08T09:40:38.000Z</time>
      </trkpt>
      <trkpt lat="47.5313" lon="6.7312">
        <ele>375.3</ele>
        <time>2014-06-08T09:40:39.000Z</time>
      </trkpt>
      <trkpt lat="47.53125" lon="6.73126">
        <ele>375.4</ele>
        <time>2014-06-08T09:40:41.467Z</time>
      </trkpt>
      <trkpt lat="47.53122" lon="6.73131">
        <ele>375.3</ele>
        <time>2014-06-08T09:40:43.000Z</time>
      </trkpt>
      <trkpt lat="47.53121" lon="6.73134">
        <ele>375.5</ele>
        <time>2014-06-08T09:40:44.000Z</time>
      </trkpt>
      <trkpt lat="47.5312" lon="6.73138">
        <ele>378.1</ele>
        <time>2014-06-08T09:40:45.000Z</time>
      </trkpt>
      <trkpt lat="47.53119" lon="6.73141">
        <ele>380.5</ele>
        <time>2014-06-08T09:40:46.000Z</time>
      </trkpt>
      <trkpt lat="47.53118" lon="6.73145">
        <ele>378.9</ele>
        <time>2014-06-08T09:40:47.000Z</time>
      </trkpt>
      <trkpt lat="47.53116" lon="6.73149">
        <ele>379</ele>
        <time>2014-06-08T09:40:47.988Z</time>
      </trkpt>
      <trkpt lat="47.53115" lon="6.73153">
        <ele>379.4</ele>
        <time>2014-06-08T09:40:49.000Z</time>
      </trkpt>
      <trkpt lat="47.53113" lon="6.73157">
        <ele>380</ele>
        <time>2014-06-08T09:40:50.000Z</time>
      </trkpt>
      <trkpt lat="47.53111" lon="6.73161">
        <ele>380.2</ele>
        <time>2014-06-08T09:40:51.000Z</time>
      </trkpt>
      <trkpt lat="47.5311" lon="6.73165">
        <ele>379.8</ele>
        <time>2014-06-08T09:40:52.000Z</time>
      </trkpt>
      <trkpt lat="47.53108" lon="6.73169">
        <ele>379.7</ele>
        <time>2014-06-08T09:40:53.000Z</time>
      </trkpt>
      <trkpt lat="47.53106" lon="6.73172">
        <ele>379.7</ele>
        <time>2014-06-08T09:40:54.000Z</time>
      </trkpt>
      <trkpt lat="47.53104" lon="6.73176">
        <ele>380.2</ele>
        <time>2014-06-08T09:40:55.000Z</time>
      </trkpt>
      <trkpt lat="47.53102" lon="6.7318">
        <ele>380.4</ele>
        <time>2014-06-08T09:40:56.000Z</time>
      </trkpt>
      <trkpt lat="47.531" lon="6.73184">
        <ele>381</ele>
        <time>2014-06-08T09:40:57.000Z</time>
      </trkpt>
      <trkpt lat="47.53098" lon="6.73189">
        <ele>380.7</ele>
        <time>2014-06-08T09:40:58.000Z</time>
      </trkpt>
      <trkpt lat="47.53095" lon="6.73193">
        <ele>381</ele>
        <time>2014-06-08T09:40:59.000Z</time>
      </trkpt>
      <trkpt lat="47.53093" lon="6.73197">
        <ele>381.4</ele>
        <time>2014-06-08T09:41:00.000Z</time>
      </trkpt>
      <trkpt lat="47.53091" lon="6.73202">
        <ele>381.1</ele>
        <time>2014-06-08T09:41:01.000Z</time>
      </trkpt>
      <trkpt lat="47.53088" lon="6.73206">
        <ele>380.7</ele>
        <time>2014-06-08T09:41:02.000Z</time>
      </trkpt>
      <trkpt lat="47.53086" lon="6.7321">
        <ele>380.6</ele>
        <time>2014-06-08T09:41:02.999Z</time>
      </trkpt>
      <trkpt lat="47.53084" lon="6.73213">
        <ele>380.1</ele>
        <time>2014-06-08T09:41:04.000Z</time>
      </trkpt>
      <trkpt lat="47.53082" lon="6.73217">
        <ele>379.9</ele>
        <time>2014-06-08T09:41:05.000Z</time>
      </trkpt>
      <trkpt lat="47.5308" lon="6.73221">
        <ele>379.7</ele>
        <time>2014-06-08T09:41:06.000Z</time>
      </trkpt>
      <trkpt lat="47.53078" lon="6.73225">
        <ele>379.2</ele>
        <time>2014-06-08T09:41:07.000Z</time>
      </trkpt>
      <trkpt lat="47.53076" lon="6.73229">
        <ele>378.8</ele>
        <time>2014-06-08T09:41:08.000Z</time>
      </trkpt>
      <trkpt lat="47.53073" lon="6.73233">
        <ele>378.5</ele>
        <time>2014-06-08T09:41:09.000Z</time>
      </trkpt>
      <trkpt lat="47.5307" lon="6.73238">
        <ele>378.3</ele>
        <time>2014-06-08T09:41:10.000Z</time>
      </trkpt>
      <trkpt lat="47.53066" lon="6.73245">
        <ele>378.2</ele>
        <time>2014-06-08T09:41:11.000Z</time>
      </trkpt>
      <trkpt lat="47.53063" lon="6.73251">
        <ele>378.5</ele>
        <time>2014-06-08T09:41:12.000Z</time>
      </trkpt>
      <trkpt lat="47.5306" lon="6.73257">
        <ele>378.2</ele>
        <time>2014-06-08T09:41:13.000Z</time>
      </trkpt>
      <trkpt lat="47.53056" lon="6.73263">
        <ele>378.3</ele>
        <time>2014-06-08T09:41:14.000Z</time>
      </trkpt>
      <trkpt lat="47.53053" lon="6.73268">
        <ele>378.4</ele>
        <time>2014-06-08T09:41:14.998Z</time>
      </trkpt>
      <trkpt lat="47.5305" lon="6.73273">
        <ele>379</ele>
        <time>2014-06-08T09:41:16.000Z</time>
      </trkpt>
      <trkpt lat="47.53047" lon="6.73278">
        <ele>378.8</ele>
        <time>2014-06-08T09:41:17.000Z</time>
      </trkpt>
      <trkpt lat="47.53045" lon="6.73283">
        <ele>378.5</ele>
        <time>2014-06-08T09:41:18.023Z</time>
      </trkpt>
      <trkpt lat="47.53042" lon="6.73288">
        <ele>378.6</ele>
        <time>2014-06-08T09:41:19.000Z</time>
      </trkpt>
      <trkpt lat="47.53039" lon="6.73293">
        <ele>378.6</ele>
        <time>2014-06-08T09:41:19.998Z</time>
      </trkpt>
      <trkpt lat="47.53036" lon="6.73297">
        <ele>378.8</ele>
        <time>2014-06-08T09:41:21.000Z</time>
      </trkpt>
      <trkpt lat="47.53033" lon="6.73302">
        <ele>378.8</ele>
        <time>2014-06-08T09:41:21.998Z</time>
      </trkpt>
      <trkpt lat="47.53031" lon="6.73308">
        <ele>380.2</ele>
        <time>2014-06-08T09:41:23.000Z</time>
      </trkpt>
      <trkpt lat="47.53028" lon="6.73313">
        <ele>380.6</ele>
        <time>2014-06-08T09:41:24.000Z</time>
      </trkpt>
      <trkpt lat="47.53026" lon="6.73318">
        <ele>381.4</ele>
        <time>2014-06-08T09:41:25.000Z</time>
      </trkpt>
      <trkpt lat="47.53022" lon="6.73322">
        <ele>380.9</ele>
        <time>2014-06-08T09:41:26.000Z</time>
      </trkpt>
      <trkpt lat="47.5302" lon="6.73326">
        <ele>381.1</ele>
        <time>2014-06-08T09:41:26.998Z</time>
      </trkpt>
      <trkpt lat="47.53018" lon="6.7333">
        <ele>381.1</ele>
        <time>2014-06-08T09:41:28.000Z</time>
      </trkpt>
      <trkpt lat="47.53015" lon="6.73333">
        <ele>380.9</ele>
        <time>2014-06-08T09:41:29.000Z</time>
      </trkpt>
      <trkpt lat="47.53013" lon="6.73336">
        <ele>380.7</ele>
        <time>2014-06-08T09:41:30.000Z</time>
      </trkpt>
      <trkpt lat="47.5301" lon="6.7334">
        <ele>380.4</ele>
        <time>2014-06-08T09:41:31.000Z</time>
      </trkpt>
      <trkpt lat="47.53008" lon="6.73344">
        <ele>380.5</ele>
        <time>2014-06-08T09:41:31.999Z</time>
      </trkpt>
      <trkpt lat="47.53005" lon="6.73347">
        <ele>379.8</ele>
        <time>2014-06-08T09:41:33.000Z</time>
      </trkpt>
      <trkpt lat="47.53003" lon="6.73351">
        <ele>379.8</ele>
        <time>2014-06-08T09:41:34.024Z</time>
      </trkpt>
      <trkpt lat="47.53" lon="6.73354">
        <ele>380.7</ele>
        <time>2014-06-08T09:41:35.000Z</time>
      </trkpt>
      <trkpt lat="47.52997" lon="6.73358">
        <ele>381.1</ele>
        <time>2014-06-08T09:41:35.998Z</time>
      </trkpt>
      <trkpt lat="47.52995" lon="6.73361">
        <ele>380.9</ele>
        <time>2014-06-08T09:41:37.000Z</time>
      </trkpt>
      <trkpt lat="47.52992" lon="6.73365">
        <ele>381.2</ele>
        <time>2014-06-08T09:41:37.998Z</time>
      </trkpt>
      <trkpt lat="47.52989" lon="6.73369">
        <ele>380.9</ele>
        <time>2014-06-08T09:41:39.000Z</time>
      </trkpt>
      <trkpt lat="47.52983" lon="6.73379">
        <ele>380.8</ele>
        <time>2014-06-08T09:41:42.000Z</time>
      </trkpt>
      <trkpt lat="47.52981" lon="6.73382">
        <ele>380.6</ele>
        <time>2014-06-08T09:41:43.000Z</time>
      </trkpt>
      <trkpt lat="47.52979" lon="6.73384">
        <ele>380.8</ele>
        <time>2014-06-08T09:41:44.000Z</time>
      </trkpt>
      <trkpt lat="47.52976" lon="6.73387">
        <ele>380.5</ele>
        <time>2014-06-08T09:41:46.000Z</time>
      </trkpt>
      <trkpt lat="47.52974" lon="6.73387">
        <ele>380.6</ele>
        <time>2014-06-08T09:41:47.000Z</time>
      </trkpt>
      <trkpt lat="47.5297" lon="6.73385">
        <ele>380.6</ele>
        <time>2014-06-08T09:41:49.000Z</time>
      </trkpt>
      <trkpt lat="47.52968" lon="6.73383">
        <ele>381.8</ele>
        <time>2014-06-08T09:41:50.000Z</time>
      </trkpt>
      <trkpt lat="47.52966" lon="6.7338">
        <ele>382.4</ele>
        <time>2014-06-08T09:41:51.000Z</time>
      </trkpt>
      <trkpt lat="47.52964" lon="6.73378">
        <ele>382.4</ele>
        <time>2014-06-08T09:41:52.000Z</time>
      </trkpt>
      <trkpt lat="47.52963" lon="6.73375">
        <ele>383.3</ele>
        <time>2014-06-08T09:41:53.000Z</time>
      </trkpt>
      <trkpt lat="47.52962" lon="6.73372">
        <ele>384.1</ele>
        <time>2014-06-08T09:41:54.000Z</time>
      </trkpt>
      <trkpt lat="47.5296" lon="6.73369">
        <ele>384.6</ele>
        <time>2014-06-08T09:41:55.000Z</time>
      </trkpt>
      <trkpt lat="47.52958" lon="6.73367">
        <ele>384.7</ele>
        <time>2014-06-08T09:41:56.000Z</time>
      </trkpt>
      <trkpt lat="47.52956" lon="6.73366">
        <ele>383.8</ele>
        <time>2014-06-08T09:41:57.000Z</time>
      </trkpt>
      <trkpt lat="47.52953" lon="6.73367">
        <ele>382.3</ele>
        <time>2014-06-08T09:41:58.000Z</time>
      </trkpt>
      <trkpt lat="47.52951" lon="6.7337">
        <ele>381.1</ele>
        <time>2014-06-08T09:41:59.000Z</time>
      </trkpt>
      <trkpt lat="47.52949" lon="6.73375">
        <ele>380.9</ele>
        <time>2014-06-08T09:42:00.000Z</time>
      </trkpt>
      <trkpt lat="47.52949" lon="6.7338">
        <ele>381.1</ele>
        <time>2014-06-08T09:42:01.000Z</time>
      </trkpt>
      <trkpt lat="47.52949" lon="6.73386">
        <ele>381</ele>
        <time>2014-06-08T09:42:02.000Z</time>
      </trkpt>
      <trkpt lat="47.52949" lon="6.73391">
        <ele>382.3</ele>
        <time>2014-06-08T09:42:03.000Z</time>
      </trkpt>
      <trkpt lat="47.52949" lon="6.73396">
        <ele>383.4</ele>
        <time>2014-06-08T09:42:04.000Z</time>
      </trkpt>
      <trkpt lat="47.5295" lon="6.73402">
        <ele>384.8</ele>
        <time>2014-06-08T09:42:06.000Z</time>
      </trkpt>
      <trkpt lat="47.5295" lon="6.73404">
        <ele>385.4</ele>
        <time>2014-06-08T09:42:07.000Z</time>
      </trkpt>
      <trkpt lat="47.52948" lon="6.73408">
        <ele>389.3</ele>
        <time>2014-06-08T09:42:11.000Z</time>
      </trkpt>
      <trkpt lat="47.52946" lon="6.73409">
        <ele>388.6</ele>
        <time>2014-06-08T09:42:12.000Z</time>
      </trkpt>
      <trkpt lat="47.52944" lon="6.73415">
        <ele>389.6</ele>
        <time>2014-06-08T09:42:14.000Z</time>
      </trkpt>
      <trkpt lat="47.52944" lon="6.73418">
        <ele>390</ele>
        <time>2014-06-08T09:42:15.000Z</time>
      </trkpt>
      <trkpt lat="47.52946" lon="6.73423">
        <ele>390.8</ele>
        <time>2014-06-08T09:42:17.000Z</time>
      </trkpt>
      <trkpt lat="47.52947" lon="6.73426">
        <ele>391.6</ele>
        <time>2014-06-08T09:42:18.000Z</time>
      </trkpt>
      <trkpt lat="47.52949" lon="6.73429">
        <ele>390.3</ele>
        <time>2014-06-08T09:42:19.000Z</time>
      </trkpt>
      <trkpt lat="47.52952" lon="6.73432">
        <ele>390.3</ele>
        <time>2014-06-08T09:42:20.000Z</time>
      </trkpt>
      <trkpt lat="47.52955" lon="6.73434">
        <ele>392.9</ele>
        <time>2014-06-08T09:42:22.000Z</time>
      </trkpt>
      <trkpt lat="47.52956" lon="6.73435">
        <ele>393.3</ele>
        <time>2014-06-08T09:42:23.000Z</time>
      </trkpt>
      <trkpt lat="47.52955" lon="6.7344">
        <ele>394.4</ele>
        <time>2014-06-08T09:42:30.000Z</time>
      </trkpt>
      <trkpt lat="47.52955" lon="6.73442">
        <ele>393.5</ele>
        <time>2014-06-08T09:42:31.000Z</time>
      </trkpt>
      <trkpt lat="47.52956" lon="6.73446">
        <ele>397.5</ele>
        <time>2014-06-08T09:42:33.000Z</time>
      </trkpt>
      <trkpt lat="47.52956" lon="6.73448">
        <ele>399.1</ele>
        <time>2014-06-08T09:42:34.000Z</time>
      </trkpt>
      <trkpt lat="47.52955" lon="6.73453">
        <ele>400.5</ele>
        <time>2014-06-08T09:42:36.000Z</time>
      </trkpt>
      <trkpt lat="47.52955" lon="6.73456">
        <ele>400.1</ele>
        <time>2014-06-08T09:42:37.000Z</time>
      </trkpt>
      <trkpt lat="47.52956" lon="6.73463">
        <ele>398.8</ele>
        <time>2014-06-08T09:42:39.000Z</time>
      </trkpt>
      <trkpt lat="47.52956" lon="6.73466">
        <ele>399.1</ele>
        <time>2014-06-08T09:42:40.000Z</time>
      </trkpt>
      <trkpt lat="47.52965" lon="6.73505">
        <ele>399.5</ele>
        <time>2014-06-08T09:42:48.000Z</time>
      </trkpt>
      <trkpt lat="47.52965" lon="6.7351">
        <ele>398.4</ele>
        <time>2014-06-08T09:42:49.000Z</time>
      </trkpt>
      <trkpt lat="47.52964" lon="6.73515">
        <ele>397.7</ele>
        <time>2014-06-08T09:42:50.000Z</time>
      </trkpt>
      <trkpt lat="47.52963" lon="6.73523">
        <ele>395.1</ele>
        <time>2014-06-08T09:42:51.000Z</time>
      </trkpt>
      <trkpt lat="47.52962" lon="6.73532">
        <ele>393</ele>
        <time>2014-06-08T09:42:52.000Z</time>
      </trkpt>
      <trkpt lat="47.5296" lon="6.7354">
        <ele>392</ele>
        <time>2014-06-08T09:42:53.000Z</time>
      </trkpt>
      <trkpt lat="47.52959" lon="6.73549">
        <ele>391.8</ele>
        <time>2014-06-08T09:42:54.000Z</time>
      </trkpt>
      <trkpt lat="47.52958" lon="6.73557">
        <ele>392.5</ele>
        <time>2014-06-08T09:42:55.000Z</time>
      </trkpt>
      <trkpt lat="47.52957" lon="6.73564">
        <ele>392.6</ele>
        <time>2014-06-08T09:42:56.000Z</time>
      </trkpt>
      <trkpt lat="47.52957" lon="6.73571">
        <ele>393</ele>
        <time>2014-06-08T09:42:57.000Z</time>
      </trkpt>
      <trkpt lat="47.52957" lon="6.73578">
        <ele>393.3</ele>
        <time>2014-06-08T09:42:58.000Z</time>
      </trkpt>
      <trkpt lat="47.52958" lon="6.73584">
        <ele>393.5</ele>
        <time>2014-06-08T09:42:59.000Z</time>
      </trkpt>
      <trkpt lat="47.52959" lon="6.7359">
        <ele>391.8</ele>
        <time>2014-06-08T09:43:00.000Z</time>
      </trkpt>
      <trkpt lat="47.5296" lon="6.73596">
        <ele>390.1</ele>
        <time>2014-06-08T09:43:01.000Z</time>
      </trkpt>
      <trkpt lat="47.52962" lon="6.73601">
        <ele>389.4</ele>
        <time>2014-06-08T09:43:02.000Z</time>
      </trkpt>
      <trkpt lat="47.52964" lon="6.73606">
        <ele>389</ele>
        <time>2014-06-08T09:43:03.000Z</time>
      </trkpt>
      <trkpt lat="47.52965" lon="6.73611">
        <ele>388.8</ele>
        <time>2014-06-08T09:43:04.000Z</time>
      </trkpt>
      <trkpt lat="47.52966" lon="6.73615">
        <ele>388.7</ele>
        <time>2014-06-08T09:43:05.000Z</time>
      </trkpt>
      <trkpt lat="47.52967" lon="6.7362">
        <ele>388.3</ele>
        <time>2014-06-08T09:43:06.000Z</time>
      </trkpt>
      <trkpt lat="47.52968" lon="6.73624">
        <ele>387.7</ele>
        <time>2014-06-08T09:43:07.000Z</time>
      </trkpt>
      <trkpt lat="47.52969" lon="6.73629">
        <ele>386.9</ele>
        <time>2014-06-08T09:43:08.000Z</time>
      </trkpt>
      <trkpt lat="47.5297" lon="6.73634">
        <ele>385.7</ele>
        <time>2014-06-08T09:43:09.000Z</time>
      </trkpt>
      <trkpt lat="47.52971" lon="6.73639">
        <ele>385.9</ele>
        <time>2014-06-08T09:43:10.000Z</time>
      </trkpt>
      <trkpt lat="47.52972" lon="6.73643">
        <ele>386</ele>
        <time>2014-06-08T09:43:11.000Z</time>
      </trkpt>
      <trkpt lat="47.52973" lon="6.73649">
        <ele>385.1</ele>
        <time>2014-06-08T09:43:12.000Z</time>
      </trkpt>
      <trkpt lat="47.52974" lon="6.73654">
        <ele>384.5</ele>
        <time>2014-06-08T09:43:13.000Z</time>
      </trkpt>
      <trkpt lat="47.52976" lon="6.7366">
        <ele>381.6</ele>
        <time>2014-06-08T09:43:14.000Z</time>
      </trkpt>
      <trkpt lat="47.52977" lon="6.73666">
        <ele>381</ele>
        <time>2014-06-08T09:43:15.000Z</time>
      </trkpt>
      <trkpt lat="47.52979" lon="6.73672">
        <ele>380.4</ele>
        <time>2014-06-08T09:43:16.000Z</time>
      </trkpt>
      <trkpt lat="47.5298" lon="6.73678">
        <ele>380.6</ele>
        <time>2014-06-08T09:43:17.000Z</time>
      </trkpt>
      <trkpt lat="47.52981" lon="6.73684">
        <ele>380.5</ele>
        <time>2014-06-08T09:43:18.000Z</time>
      </trkpt>
      <trkpt lat="47.52982" lon="6.7369">
        <ele>380.2</ele>
        <time>2014-06-08T09:43:19.000Z</time>
      </trkpt>
      <trkpt lat="47.52983" lon="6.73695">
        <ele>380.2</ele>
        <time>2014-06-08T09:43:20.000Z</time>
      </trkpt>
      <trkpt lat="47.52984" lon="6.737">
        <ele>382.6</ele>
        <time>2014-06-08T09:43:21.000Z</time>
      </trkpt>
      <trkpt lat="47.52985" lon="6.73705">
        <ele>382.7</ele>
        <time>2014-06-08T09:43:22.000Z</time>
      </trkpt>
      <trkpt lat="47.52987" lon="6.7371">
        <ele>381.8</ele>
        <time>2014-06-08T09:43:23.000Z</time>
      </trkpt>
      <trkpt lat="47.52987" lon="6.73714">
        <ele>382.8</ele>
        <time>2014-06-08T09:43:24.000Z</time>
      </trkpt>
      <trkpt lat="47.52987" lon="6.73719">
        <ele>383.6</ele>
        <time>2014-06-08T09:43:25.000Z</time>
      </trkpt>
      <trkpt lat="47.52987" lon="6.73724">
        <ele>384.3</ele>
        <time>2014-06-08T09:43:26.000Z</time>
      </trkpt>
      <trkpt lat="47.52987" lon="6.73729">
        <ele>384.8</ele>
        <time>2014-06-08T09:43:27.000Z</time>
      </trkpt>
      <trkpt lat="47.52987" lon="6.73733">
        <ele>385</ele>
        <time>2014-06-08T09:43:28.000Z</time>
      </trkpt>
      <trkpt lat="47.52987" lon="6.73736">
        <ele>385.3</ele>
        <time>2014-06-08T09:43:29.000Z</time>
      </trkpt>
      <trkpt lat="47.52988" lon="6.7374">
        <ele>385.5</ele>
        <time>2014-06-08T09:43:30.000Z</time>
      </trkpt>
      <trkpt lat="47.52988" lon="6.73743">
        <ele>386.1</ele>
        <time>2014-06-08T09:43:31.000Z</time>
      </trkpt>
      <trkpt lat="47.52989" lon="6.73747">
        <ele>386.2</ele>
        <time>2014-06-08T09:43:32.000Z</time>
      </trkpt>
      <trkpt lat="47.5299" lon="6.73751">
        <ele>384.8</ele>
        <time>2014-06-08T09:43:33.000Z</time>
      </trkpt>
      <trkpt lat="47.52991" lon="6.73755">
        <ele>385.1</ele>
        <time>2014-06-08T09:43:34.000Z</time>
      </trkpt>
      <trkpt lat="47.52992" lon="6.73759">
        <ele>385.2</ele>
        <time>2014-06-08T09:43:35.000Z</time>
      </trkpt>
      <trkpt lat="47.52993" lon="6.73763">
        <ele>385.2</ele>
        <time>2014-06-08T09:43:36.000Z</time>
      </trkpt>
      <trkpt lat="47.52994" lon="6.73767">
        <ele>385</ele>
        <time>2014-06-08T09:43:37.000Z</time>
      </trkpt>
      <trkpt lat="47.52995" lon="6.73771">
        <ele>385.5</ele>
        <time>2014-06-08T09:43:38.000Z</time>
      </trkpt>
      <trkpt lat="47.52996" lon="6.73775">
        <ele>385.9</ele>
        <time>2014-06-08T09:43:39.000Z</time>
      </trkpt>
      <trkpt lat="47.52998" lon="6.73785">
        <ele>385.4</ele>
        <time>2014-06-08T09:43:42.000Z</time>
      </trkpt>
      <trkpt lat="47.52999" lon="6.73788">
        <ele>384.9</ele>
        <time>2014-06-08T09:43:43.000Z</time>
      </trkpt>
      <trkpt lat="47.53" lon="6.73792">
        <ele>385.9</ele>
        <time>2014-06-08T09:43:44.000Z</time>
      </trkpt>
      <trkpt lat="47.53001" lon="6.73796">
        <ele>385.5</ele>
        <time>2014-06-08T09:43:45.000Z</time>
      </trkpt>
      <trkpt lat="47.53002" lon="6.738">
        <ele>385.8</ele>
        <time>2014-06-08T09:43:46.000Z</time>
      </trkpt>
      <trkpt lat="47.53003" lon="6.73806">
        <ele>385.2</ele>
        <time>2014-06-08T09:43:47.000Z</time>
      </trkpt>
      <trkpt lat="47.53005" lon="6.73811">
        <ele>384.9</ele>
        <time>2014-06-08T09:43:48.000Z</time>
      </trkpt>
      <trkpt lat="47.53006" lon="6.73816">
        <ele>384.9</ele>
        <time>2014-06-08T09:43:49.000Z</time>
      </trkpt>
      <trkpt lat="47.53007" lon="6.7382">
        <ele>388.1</ele>
        <time>2014-06-08T09:43:50.000Z</time>
      </trkpt>
      <trkpt lat="47.53007" lon="6.73825">
        <ele>389.5</ele>
        <time>2014-06-08T09:43:51.000Z</time>
      </trkpt>
      <trkpt lat="47.53008" lon="6.73829">
        <ele>388.8</ele>
        <time>2014-06-08T09:43:52.000Z</time>
      </trkpt>
      <trkpt lat="47.53008" lon="6.73833">
        <ele>388.8</ele>
        <time>2014-06-08T09:43:53.000Z</time>
      </trkpt>
      <trkpt lat="47.53008" lon="6.73838">
        <ele>389.9</ele>
        <time>2014-06-08T09:43:54.000Z</time>
      </trkpt>
      <trkpt lat="47.53009" lon="6.73842">
        <ele>389.4</ele>
        <time>2014-06-08T09:43:55.000Z</time>
      </trkpt>
      <trkpt lat="47.53009" lon="6.73846">
        <ele>389.4</ele>
        <time>2014-06-08T09:43:56.000Z</time>
      </trkpt>
      <trkpt lat="47.53009" lon="6.73849">
        <ele>390</ele>
        <time>2014-06-08T09:43:57.000Z</time>
      </trkpt>
      <trkpt lat="47.5301" lon="6.73853">
        <ele>389.8</ele>
        <time>2014-06-08T09:43:58.000Z</time>
      </trkpt>
      <trkpt lat="47.53011" lon="6.73858">
        <ele>390.9</ele>
        <time>2014-06-08T09:44:00.000Z</time>
      </trkpt>
      <trkpt lat="47.53011" lon="6.73861">
        <ele>391.1</ele>
        <time>2014-06-08T09:44:01.000Z</time>
      </trkpt>
      <trkpt lat="47.53012" lon="6.73867">
        <ele>394.4</ele>
        <time>2014-06-08T09:44:03.000Z</time>
      </trkpt>
      <trkpt lat="47.53013" lon="6.7387">
        <ele>393.5</ele>
        <time>2014-06-08T09:44:04.000Z</time>
      </trkpt>
      <trkpt lat="47.53014" lon="6.73875">
        <ele>395</ele>
        <time>2014-06-08T09:44:06.000Z</time>
      </trkpt>
      <trkpt lat="47.53015" lon="6.73876">
        <ele>396.9</ele>
        <time>2014-06-08T09:44:07.000Z</time>
      </trkpt>
      <trkpt lat="47.53017" lon="6.73882">
        <ele>397.2</ele>
        <time>2014-06-08T09:44:11.000Z</time>
      </trkpt>
      <trkpt lat="47.53017" lon="6.73884">
        <ele>395.8</ele>
        <time>2014-06-08T09:44:12.000Z</time>
      </trkpt>
      <trkpt lat="47.53019" lon="6.73889">
        <ele>398.9</ele>
        <time>2014-06-08T09:44:14.000Z</time>
      </trkpt>
      <trkpt lat="47.5302" lon="6.73892">
        <ele>398.7</ele>
        <time>2014-06-08T09:44:15.000Z</time>
      </trkpt>
      <trkpt lat="47.5302" lon="6.73897">
        <ele>398.3</ele>
        <time>2014-06-08T09:44:17.000Z</time>
      </trkpt>
      <trkpt lat="47.53019" lon="6.73899">
        <ele>398.4</ele>
        <time>2014-06-08T09:44:18.000Z</time>
      </trkpt>
      <trkpt lat="47.53018" lon="6.73904">
        <ele>399.2</ele>
        <time>2014-06-08T09:44:21.000Z</time>
      </trkpt>
      <trkpt lat="47.53019" lon="6.73906">
        <ele>399.3</ele>
        <time>2014-06-08T09:44:22.000Z</time>
      </trkpt>
      <trkpt lat="47.53022" lon="6.73911">
        <ele>402.4</ele>
        <time>2014-06-08T09:44:24.000Z</time>
      </trkpt>
      <trkpt lat="47.53023" lon="6.73913">
        <ele>403.8</ele>
        <time>2014-06-08T09:44:25.000Z</time>
      </trkpt>
      <trkpt lat="47.53025" lon="6.73918">
        <ele>405.4</ele>
        <time>2014-06-08T09:44:28.000Z</time>
      </trkpt>
      <trkpt lat="47.53026" lon="6.7392">
        <ele>405.6</ele>
        <time>2014-06-08T09:44:29.000Z</time>
      </trkpt>
      <trkpt lat="47.53028" lon="6.73926">
        <ele>404.9</ele>
        <time>2014-06-08T09:44:32.000Z</time>
      </trkpt>
      <trkpt lat="47.53029" lon="6.73927">
        <ele>405.9</ele>
        <time>2014-06-08T09:44:33.000Z</time>
      </trkpt>
      <trkpt lat="47.53032" lon="6.73931">
        <ele>406.4</ele>
        <time>2014-06-08T09:44:35.000Z</time>
      </trkpt>
      <trkpt lat="47.53033" lon="6.73932">
        <ele>407.4</ele>
        <time>2014-06-08T09:44:36.000Z</time>
      </trkpt>
      <trkpt lat="47.53036" lon="6.73936">
        <ele>407.3</ele>
        <time>2014-06-08T09:44:38.000Z</time>
      </trkpt>
      <trkpt lat="47.53038" lon="6.73938">
        <ele>405.7</ele>
        <time>2014-06-08T09:44:39.000Z</time>
      </trkpt>
      <trkpt lat="47.5304" lon="6.73947">
        <ele>406.8</ele>
        <time>2014-06-08T09:44:46.881Z</time>
      </trkpt>
      <trkpt lat="47.53042" lon="6.73952">
        <ele>409</ele>
        <time>2014-06-08T09:44:58.000Z</time>
      </trkpt>
      <trkpt lat="47.53042" lon="6.73953">
        <ele>409.2</ele>
        <time>2014-06-08T09:44:59.000Z</time>
      </trkpt>
      <trkpt lat="47.53044" lon="6.73959">
        <ele>407.8</ele>
        <time>2014-06-08T09:45:07.000Z</time>
      </trkpt>
      <trkpt lat="47.53045" lon="6.73961">
        <ele>406.2</ele>
        <time>2014-06-08T09:45:08.000Z</time>
      </trkpt>
      <trkpt lat="47.53046" lon="6.73965">
        <ele>409.1</ele>
        <time>2014-06-08T09:45:09.000Z</time>
      </trkpt>
      <trkpt lat="47.53048" lon="6.73968">
        <ele>408.7</ele>
        <time>2014-06-08T09:45:10.000Z</time>
      </trkpt>
      <trkpt lat="47.53048" lon="6.73971">
        <ele>407.4</ele>
        <time>2014-06-08T09:45:11.000Z</time>
      </trkpt>
      <trkpt lat="47.53048" lon="6.73975">
        <ele>406.8</ele>
        <time>2014-06-08T09:45:12.000Z</time>
      </trkpt>
      <trkpt lat="47.53047" lon="6.73978">
        <ele>405.5</ele>
        <time>2014-06-08T09:45:13.000Z</time>
      </trkpt>
      <trkpt lat="47.53046" lon="6.73982">
        <ele>406.5</ele>
        <time>2014-06-08T09:45:14.000Z</time>
      </trkpt>
      <trkpt lat="47.53046" lon="6.73987">
        <ele>407.3</ele>
        <time>2014-06-08T09:45:16.000Z</time>
      </trkpt>
      <trkpt lat="47.53046" lon="6.7399">
        <ele>407.3</ele>
        <time>2014-06-08T09:45:17.000Z</time>
      </trkpt>
      <trkpt lat="47.53045" lon="6.73994">
        <ele>403.7</ele>
        <time>2014-06-08T09:45:19.000Z</time>
      </trkpt>
      <trkpt lat="47.53044" lon="6.73997">
        <ele>402.5</ele>
        <time>2014-06-08T09:45:20.000Z</time>
      </trkpt>
      <trkpt lat="47.53043" lon="6.74003">
        <ele>402.5</ele>
        <time>2014-06-08T09:45:22.000Z</time>
      </trkpt>
      <trkpt lat="47.53043" lon="6.74005">
        <ele>402.4</ele>
        <time>2014-06-08T09:45:23.000Z</time>
      </trkpt>
      <trkpt lat="47.53045" lon="6.7401">
        <ele>404.7</ele>
        <time>2014-06-08T09:45:26.000Z</time>
      </trkpt>
      <trkpt lat="47.53045" lon="6.74012">
        <ele>401.6</ele>
        <time>2014-06-08T09:45:27.000Z</time>
      </trkpt>
      <trkpt lat="47.53042" lon="6.74016">
        <ele>402.2</ele>
        <time>2014-06-08T09:45:29.000Z</time>
      </trkpt>
      <trkpt lat="47.5304" lon="6.74018">
        <ele>402.9</ele>
        <time>2014-06-08T09:45:30.000Z</time>
      </trkpt>
      <trkpt lat="47.53038" lon="6.74024">
        <ele>404.5</ele>
        <time>2014-06-08T09:45:34.000Z</time>
      </trkpt>
      <trkpt lat="47.53038" lon="6.74025">
        <ele>405.1</ele>
        <time>2014-06-08T09:45:35.000Z</time>
      </trkpt>
      <trkpt lat="47.53037" lon="6.74031">
        <ele>410.3</ele>
        <time>2014-06-08T09:45:39.000Z</time>
      </trkpt>
      <trkpt lat="47.53036" lon="6.74034">
        <ele>411.3</ele>
        <time>2014-06-08T09:45:40.920Z</time>
      </trkpt>
      <trkpt lat="47.53033" lon="6.74037">
        <ele>412.4</ele>
        <time>2014-06-08T09:45:45.000Z</time>
      </trkpt>
      <trkpt lat="47.53032" lon="6.74039">
        <ele>413</ele>
        <time>2014-06-08T09:45:46.000Z</time>
      </trkpt>
      <trkpt lat="47.53032" lon="6.74044">
        <ele>414.9</ele>
        <time>2014-06-08T09:45:49.000Z</time>
      </trkpt>
      <trkpt lat="47.53032" lon="6.74046">
        <ele>415.1</ele>
        <time>2014-06-08T09:45:50.000Z</time>
      </trkpt>
      <trkpt lat="47.53029" lon="6.74051">
        <ele>414.5</ele>
        <time>2014-06-08T09:45:52.000Z</time>
      </trkpt>
      <trkpt lat="47.53027" lon="6.74053">
        <ele>413.4</ele>
        <time>2014-06-08T09:45:53.000Z</time>
      </trkpt>
      <trkpt lat="47.53025" lon="6.74059">
        <ele>415</ele>
        <time>2014-06-08T09:45:55.000Z</time>
      </trkpt>
      <trkpt lat="47.53024" lon="6.74061">
        <ele>416.5</ele>
        <time>2014-06-08T09:45:56.000Z</time>
      </trkpt>
      <trkpt lat="47.53022" lon="6.74065">
        <ele>416.5</ele>
        <time>2014-06-08T09:45:59.000Z</time>
      </trkpt>
      <trkpt lat="47.53021" lon="6.74067">
        <ele>415.2</ele>
        <time>2014-06-08T09:46:00.000Z</time>
      </trkpt>
      <trkpt lat="47.53018" lon="6.7407">
        <ele>414.8</ele>
        <time>2014-06-08T09:46:02.000Z</time>
      </trkpt>
      <trkpt lat="47.53017" lon="6.74072">
        <ele>414.4</ele>
        <time>2014-06-08T09:46:03.000Z</time>
      </trkpt>
      <trkpt lat="47.53013" lon="6.74076">
        <ele>415.8</ele>
        <time>2014-06-08T09:46:05.000Z</time>
      </trkpt>
      <trkpt lat="47.53012" lon="6.74078">
        <ele>416.1</ele>
        <time>2014-06-08T09:46:06.000Z</time>
      </trkpt>
      <trkpt lat="47.53011" lon="6.74082">
        <ele>416.3</ele>
        <time>2014-06-08T09:46:08.000Z</time>
      </trkpt>
      <trkpt lat="47.5301" lon="6.74085">
        <ele>416.6</ele>
        <time>2014-06-08T09:46:09.000Z</time>
      </trkpt>
      <trkpt lat="47.53008" lon="6.74089">
        <ele>415.6</ele>
        <time>2014-06-08T09:46:11.000Z</time>
      </trkpt>
      <trkpt lat="47.53006" lon="6.74091">
        <ele>416.4</ele>
        <time>2014-06-08T09:46:12.000Z</time>
      </trkpt>
      <trkpt lat="47.53003" lon="6.74094">
        <ele>414.8</ele>
        <time>2014-06-08T09:46:14.000Z</time>
      </trkpt>
      <trkpt lat="47.53001" lon="6.74096">
        <ele>415.1</ele>
        <time>2014-06-08T09:46:15.000Z</time>
      </trkpt>
      <trkpt lat="47.52998" lon="6.74099">
        <ele>417.3</ele>
        <time>2014-06-08T09:46:17.000Z</time>
      </trkpt>
      <trkpt lat="47.52997" lon="6.74101">
        <ele>417.8</ele>
        <time>2014-06-08T09:46:18.000Z</time>
      </trkpt>
      <trkpt lat="47.52995" lon="6.74106">
        <ele>418.3</ele>
        <time>2014-06-08T09:46:22.000Z</time>
      </trkpt>
      <trkpt lat="47.52994" lon="6.74107">
        <ele>418.1</ele>
        <time>2014-06-08T09:46:23.000Z</time>
      </trkpt>
      <trkpt lat="47.52993" lon="6.74113">
        <ele>419.1</ele>
        <time>2014-06-08T09:46:26.000Z</time>
      </trkpt>
      <trkpt lat="47.52993" lon="6.74114">
        <ele>419.6</ele>
        <time>2014-06-08T09:46:27.000Z</time>
      </trkpt>
      <trkpt lat="47.52992" lon="6.74118">
        <ele>421.1</ele>
        <time>2014-06-08T09:46:29.000Z</time>
      </trkpt>
      <trkpt lat="47.52992" lon="6.74121">
        <ele>419.2</ele>
        <time>2014-06-08T09:46:30.000Z</time>
      </trkpt>
      <trkpt lat="47.5299" lon="6.74126">
        <ele>419</ele>
        <time>2014-06-08T09:46:35.000Z</time>
      </trkpt>
      <trkpt lat="47.52989" lon="6.74128">
        <ele>419.9</ele>
        <time>2014-06-08T09:46:36.000Z</time>
      </trkpt>
      <trkpt lat="47.52987" lon="6.74132">
        <ele>417.2</ele>
        <time>2014-06-08T09:46:38.000Z</time>
      </trkpt>
      <trkpt lat="47.52986" lon="6.74134">
        <ele>416.5</ele>
        <time>2014-06-08T09:46:39.000Z</time>
      </trkpt>
      <trkpt lat="47.52985" lon="6.74137">
        <ele>417.6</ele>
        <time>2014-06-08T09:46:40.000Z</time>
      </trkpt>
      <trkpt lat="47.52976" lon="6.7415">
        <ele>418.8</ele>
        <time>2014-06-08T09:46:49.000Z</time>
      </trkpt>
      <trkpt lat="47.52973" lon="6.74155">
        <ele>420.8</ele>
        <time>2014-06-08T09:46:52.000Z</time>
      </trkpt>
      <trkpt lat="47.52972" lon="6.74156">
        <ele>419.4</ele>
        <time>2014-06-08T09:46:53.000Z</time>
      </trkpt>
      <trkpt lat="47.5297" lon="6.7416">
        <ele>417.3</ele>
        <time>2014-06-08T09:46:55.000Z</time>
      </trkpt>
      <trkpt lat="47.52968" lon="6.74163">
        <ele>418.1</ele>
        <time>2014-06-08T09:46:56.000Z</time>
      </trkpt>
      <trkpt lat="47.52965" lon="6.74167">
        <ele>417.2</ele>
        <time>2014-06-08T09:46:58.000Z</time>
      </trkpt>
      <trkpt lat="47.52964" lon="6.7417">
        <ele>416</ele>
        <time>2014-06-08T09:46:59.000Z</time>
      </trkpt>
      <trkpt lat="47.52963" lon="6.74175">
        <ele>415</ele>
        <time>2014-06-08T09:47:01.000Z</time>
      </trkpt>
      <trkpt lat="47.52962" lon="6.74177">
        <ele>416.3</ele>
        <time>2014-06-08T09:47:02.000Z</time>
      </trkpt>
      <trkpt lat="47.5296" lon="6.7418">
        <ele>416.4</ele>
        <time>2014-06-08T09:47:04.000Z</time>
      </trkpt>
      <trkpt lat="47.52958" lon="6.74182">
        <ele>415.4</ele>
        <time>2014-06-08T09:47:05.000Z</time>
      </trkpt>
      <trkpt lat="47.52956" lon="6.74186">
        <ele>415.5</ele>
        <time>2014-06-08T09:47:08.000Z</time>
      </trkpt>
      <trkpt lat="47.52955" lon="6.74187">
        <ele>417.2</ele>
        <time>2014-06-08T09:47:09.000Z</time>
      </trkpt>
      <trkpt lat="47.52953" lon="6.74192">
        <ele>416.7</ele>
        <time>2014-06-08T09:47:13.000Z</time>
      </trkpt>
      <trkpt lat="47.52952" lon="6.74193">
        <ele>417.9</ele>
        <time>2014-06-08T09:47:14.000Z</time>
      </trkpt>
      <trkpt lat="47.52951" lon="6.74198">
        <ele>419.3</ele>
        <time>2014-06-08T09:47:18.000Z</time>
      </trkpt>
      <trkpt lat="47.52951" lon="6.74199">
        <ele>419.7</ele>
        <time>2014-06-08T09:47:19.000Z</time>
      </trkpt>
      <trkpt lat="47.52947" lon="6.742">
        <ele>418.8</ele>
        <time>2014-06-08T09:47:22.000Z</time>
      </trkpt>
      <trkpt lat="47.52946" lon="6.74201">
        <ele>418.4</ele>
        <time>2014-06-08T09:47:23.000Z</time>
      </trkpt>
      <trkpt lat="47.52942" lon="6.74202">
        <ele>417.6</ele>
        <time>2014-06-08T09:47:25.000Z</time>
      </trkpt>
      <trkpt lat="47.52939" lon="6.74202">
        <ele>415.7</ele>
        <time>2014-06-08T09:47:26.000Z</time>
      </trkpt>
      <trkpt lat="47.52936" lon="6.74201">
        <ele>415</ele>
        <time>2014-06-08T09:47:27.000Z</time>
      </trkpt>
      <trkpt lat="47.52933" lon="6.742">
        <ele>415.3</ele>
        <time>2014-06-08T09:47:28.000Z</time>
      </trkpt>
      <trkpt lat="47.52929" lon="6.74197">
        <ele>418.8</ele>
        <time>2014-06-08T09:47:30.000Z</time>
      </trkpt>
      <trkpt lat="47.52928" lon="6.74196">
        <ele>418.7</ele>
        <time>2014-06-08T09:47:31.000Z</time>
      </trkpt>
      <trkpt lat="47.52926" lon="6.74194">
        <ele>418.9</ele>
        <time>2014-06-08T09:47:32.000Z</time>
      </trkpt>
      <trkpt lat="47.52924" lon="6.74193">
        <ele>418.8</ele>
        <time>2014-06-08T09:47:33.000Z</time>
      </trkpt>
      <trkpt lat="47.52921" lon="6.74191">
        <ele>418.6</ele>
        <time>2014-06-08T09:47:34.000Z</time>
      </trkpt>
      <trkpt lat="47.52919" lon="6.7419">
        <ele>418.6</ele>
        <time>2014-06-08T09:47:35.000Z</time>
      </trkpt>
      <trkpt lat="47.52917" lon="6.74189">
        <ele>418.1</ele>
        <time>2014-06-08T09:47:36.000Z</time>
      </trkpt>
      <trkpt lat="47.52914" lon="6.74187">
        <ele>418.8</ele>
        <time>2014-06-08T09:47:37.000Z</time>
      </trkpt>
      <trkpt lat="47.52912" lon="6.74185">
        <ele>418.4</ele>
        <time>2014-06-08T09:47:38.000Z</time>
      </trkpt>
      <trkpt lat="47.5291" lon="6.74183">
        <ele>418.8</ele>
        <time>2014-06-08T09:47:39.000Z</time>
      </trkpt>
      <trkpt lat="47.52895" lon="6.7417">
        <ele>426.2</ele>
        <time>2014-06-08T09:47:46.805Z</time>
      </trkpt>
      <trkpt lat="47.52893" lon="6.74168">
        <ele>426.1</ele>
        <time>2014-06-08T09:47:48.000Z</time>
      </trkpt>
      <trkpt lat="47.5289" lon="6.74166">
        <ele>426.8</ele>
        <time>2014-06-08T09:47:49.000Z</time>
      </trkpt>
      <trkpt lat="47.52889" lon="6.74163">
        <ele>429.1</ele>
        <time>2014-06-08T09:47:50.000Z</time>
      </trkpt>
      <trkpt lat="47.52887" lon="6.7416">
        <ele>427.4</ele>
        <time>2014-06-08T09:47:51.000Z</time>
      </trkpt>
      <trkpt lat="47.52885" lon="6.74156">
        <ele>427.7</ele>
        <time>2014-06-08T09:47:52.000Z</time>
      </trkpt>
      <trkpt lat="47.52884" lon="6.74153">
        <ele>427.6</ele>
        <time>2014-06-08T09:47:52.998Z</time>
      </trkpt>
      <trkpt lat="47.52883" lon="6.74148">
        <ele>428.7</ele>
        <time>2014-06-08T09:47:54.000Z</time>
      </trkpt>
      <trkpt lat="47.52882" lon="6.74144">
        <ele>427.6</ele>
        <time>2014-06-08T09:47:55.000Z</time>
      </trkpt>
      <trkpt lat="47.5288" lon="6.7414">
        <ele>426.6</ele>
        <time>2014-06-08T09:47:56.000Z</time>
      </trkpt>
      <trkpt lat="47.52878" lon="6.74136">
        <ele>425.3</ele>
        <time>2014-06-08T09:47:57.000Z</time>
      </trkpt>
      <trkpt lat="47.52876" lon="6.74133">
        <ele>425</ele>
        <time>2014-06-08T09:47:58.000Z</time>
      </trkpt>
      <trkpt lat="47.52873" lon="6.7413">
        <ele>422.3</ele>
        <time>2014-06-08T09:47:59.000Z</time>
      </trkpt>
      <trkpt lat="47.52871" lon="6.74126">
        <ele>423.9</ele>
        <time>2014-06-08T09:48:00.000Z</time>
      </trkpt>
      <trkpt lat="47.52869" lon="6.74122">
        <ele>423.7</ele>
        <time>2014-06-08T09:48:01.000Z</time>
      </trkpt>
      <trkpt lat="47.52867" lon="6.74118">
        <ele>423.8</ele>
        <time>2014-06-08T09:48:02.000Z</time>
      </trkpt>
      <trkpt lat="47.52865" lon="6.74113">
        <ele>424.2</ele>
        <time>2014-06-08T09:48:03.000Z</time>
      </trkpt>
      <trkpt lat="47.52863" lon="6.74108">
        <ele>425.8</ele>
        <time>2014-06-08T09:48:04.000Z</time>
      </trkpt>
      <trkpt lat="47.52862" lon="6.74105">
        <ele>427.1</ele>
        <time>2014-06-08T09:48:05.000Z</time>
      </trkpt>
      <trkpt lat="47.5286" lon="6.74101">
        <ele>426.8</ele>
        <time>2014-06-08T09:48:06.000Z</time>
      </trkpt>
      <trkpt lat="47.52858" lon="6.74099">
        <ele>424.2</ele>
        <time>2014-06-08T09:48:07.000Z</time>
      </trkpt>
      <trkpt lat="47.52855" lon="6.74096">
        <ele>423.3</ele>
        <time>2014-06-08T09:48:08.000Z</time>
      </trkpt>
      <trkpt lat="47.52853" lon="6.74095">
        <ele>423.2</ele>
        <time>2014-06-08T09:48:09.000Z</time>
      </trkpt>
      <trkpt lat="47.5285" lon="6.74096">
        <ele>422.4</ele>
        <time>2014-06-08T09:48:11.000Z</time>
      </trkpt>
      <trkpt lat="47.52848" lon="6.74098">
        <ele>422.2</ele>
        <time>2014-06-08T09:48:12.000Z</time>
      </trkpt>
      <trkpt lat="47.52845" lon="6.741">
        <ele>424.4</ele>
        <time>2014-06-08T09:48:14.000Z</time>
      </trkpt>
      <trkpt lat="47.52844" lon="6.74102">
        <ele>425.1</ele>
        <time>2014-06-08T09:48:15.000Z</time>
      </trkpt>
      <trkpt lat="47.5284" lon="6.74105">
        <ele>424.5</ele>
        <time>2014-06-08T09:48:17.000Z</time>
      </trkpt>
      <trkpt lat="47.52838" lon="6.74105">
        <ele>425.5</ele>
        <time>2014-06-08T09:48:18.000Z</time>
      </trkpt>
      <trkpt lat="47.52834" lon="6.74104">
        <ele>425.7</ele>
        <time>2014-06-08T09:48:20.000Z</time>
      </trkpt>
      <trkpt lat="47.52831" lon="6.74104">
        <ele>425.4</ele>
        <time>2014-06-08T09:48:21.000Z</time>
      </trkpt>
      <trkpt lat="47.52827" lon="6.74102">
        <ele>423.5</ele>
        <time>2014-06-08T09:48:23.000Z</time>
      </trkpt>
      <trkpt lat="47.52825" lon="6.74101">
        <ele>424</ele>
        <time>2014-06-08T09:48:24.000Z</time>
      </trkpt>
      <trkpt lat="47.52822" lon="6.741">
        <ele>424.3</ele>
        <time>2014-06-08T09:48:26.000Z</time>
      </trkpt>
      <trkpt lat="47.5282" lon="6.741">
        <ele>424.4</ele>
        <time>2014-06-08T09:48:27.000Z</time>
      </trkpt>
      <trkpt lat="47.52818" lon="6.74101">
        <ele>424.5</ele>
        <time>2014-06-08T09:48:28.000Z</time>
      </trkpt>
      <trkpt lat="47.52815" lon="6.74101">
        <ele>425.8</ele>
        <time>2014-06-08T09:48:29.000Z</time>
      </trkpt>
      <trkpt lat="47.52812" lon="6.74101">
        <ele>426.1</ele>
        <time>2014-06-08T09:48:30.000Z</time>
      </trkpt>
      <trkpt lat="47.52809" lon="6.741">
        <ele>426.3</ele>
        <time>2014-06-08T09:48:31.000Z</time>
      </trkpt>
      <trkpt lat="47.52805" lon="6.741">
        <ele>426.4</ele>
        <time>2014-06-08T09:48:32.000Z</time>
      </trkpt>
      <trkpt lat="47.52801" lon="6.74099">
        <ele>426.7</ele>
        <time>2014-06-08T09:48:33.000Z</time>
      </trkpt>
      <trkpt lat="47.52798" lon="6.74098">
        <ele>427</ele>
        <time>2014-06-08T09:48:34.000Z</time>
      </trkpt>
      <trkpt lat="47.52795" lon="6.74097">
        <ele>427.4</ele>
        <time>2014-06-08T09:48:35.000Z</time>
      </trkpt>
      <trkpt lat="47.52792" lon="6.74096">
        <ele>427.8</ele>
        <time>2014-06-08T09:48:36.000Z</time>
      </trkpt>
      <trkpt lat="47.52788" lon="6.74094">
        <ele>429</ele>
        <time>2014-06-08T09:48:37.000Z</time>
      </trkpt>
      <trkpt lat="47.52784" lon="6.74093">
        <ele>428.3</ele>
        <time>2014-06-08T09:48:38.000Z</time>
      </trkpt>
      <trkpt lat="47.52779" lon="6.74091">
        <ele>427.8</ele>
        <time>2014-06-08T09:48:39.000Z</time>
      </trkpt>
      <trkpt lat="47.52767" lon="6.74087">
        <ele>430.2</ele>
        <time>2014-06-08T09:48:42.000Z</time>
      </trkpt>
      <trkpt lat="47.52763" lon="6.74085">
        <ele>431.2</ele>
        <time>2014-06-08T09:48:43.000Z</time>
      </trkpt>
      <trkpt lat="47.52759" lon="6.74083">
        <ele>431.2</ele>
        <time>2014-06-08T09:48:44.000Z</time>
      </trkpt>
      <trkpt lat="47.52754" lon="6.74082">
        <ele>431</ele>
        <time>2014-06-08T09:48:45.000Z</time>
      </trkpt>
      <trkpt lat="47.52749" lon="6.74081">
        <ele>430.8</ele>
        <time>2014-06-08T09:48:46.000Z</time>
      </trkpt>
      <trkpt lat="47.52745" lon="6.74081">
        <ele>429.4</ele>
        <time>2014-06-08T09:48:47.000Z</time>
      </trkpt>
      <trkpt lat="47.52742" lon="6.74082">
        <ele>430.8</ele>
        <time>2014-06-08T09:48:48.000Z</time>
      </trkpt>
      <trkpt lat="47.52739" lon="6.74083">
        <ele>430.3</ele>
        <time>2014-06-08T09:48:49.000Z</time>
      </trkpt>
      <trkpt lat="47.52736" lon="6.74084">
        <ele>429.5</ele>
        <time>2014-06-08T09:48:50.000Z</time>
      </trkpt>
      <trkpt lat="47.52733" lon="6.74084">
        <ele>429.1</ele>
        <time>2014-06-08T09:48:51.000Z</time>
      </trkpt>
      <trkpt lat="47.52729" lon="6.74084">
        <ele>429.4</ele>
        <time>2014-06-08T09:48:52.000Z</time>
      </trkpt>
      <trkpt lat="47.52724" lon="6.74086">
        <ele>429.2</ele>
        <time>2014-06-08T09:48:53.000Z</time>
      </trkpt>
      <trkpt lat="47.52702" lon="6.74072">
        <ele>404.6</ele>
        <time>2014-06-08T09:48:54.000Z</time>
      </trkpt>
      <trkpt lat="47.52699" lon="6.74075">
        <ele>403.8</ele>
        <time>2014-06-08T09:48:55.000Z</time>
      </trkpt>
      <trkpt lat="47.52695" lon="6.74079">
        <ele>403.8</ele>
        <time>2014-06-08T09:48:56.000Z</time>
      </trkpt>
      <trkpt lat="47.5269" lon="6.74081">
        <ele>394.1</ele>
        <time>2014-06-08T09:48:57.000Z</time>
      </trkpt>
      <trkpt lat="47.52686" lon="6.74083">
        <ele>386.8</ele>
        <time>2014-06-08T09:48:58.000Z</time>
      </trkpt>
      <trkpt lat="47.5268" lon="6.74085">
        <ele>384.7</ele>
        <time>2014-06-08T09:48:59.000Z</time>
      </trkpt>
      <trkpt lat="47.52675" lon="6.74087">
        <ele>381.3</ele>
        <time>2014-06-08T09:49:00.000Z</time>
      </trkpt>
      <trkpt lat="47.5267" lon="6.74089">
        <ele>380.4</ele>
        <time>2014-06-08T09:49:01.000Z</time>
      </trkpt>
      <trkpt lat="47.52665" lon="6.74091">
        <ele>380.7</ele>
        <time>2014-06-08T09:49:02.000Z</time>
      </trkpt>
      <trkpt lat="47.5266" lon="6.74094">
        <ele>380.9</ele>
        <time>2014-06-08T09:49:03.000Z</time>
      </trkpt>
      <trkpt lat="47.52655" lon="6.74097">
        <ele>380</ele>
        <time>2014-06-08T09:49:04.000Z</time>
      </trkpt>
      <trkpt lat="47.52643" lon="6.74097">
        <ele>379.6</ele>
        <time>2014-06-08T09:49:05.000Z</time>
      </trkpt>
      <trkpt lat="47.52639" lon="6.74101">
        <ele>380.1</ele>
        <time>2014-06-08T09:49:06.000Z</time>
      </trkpt>
      <trkpt lat="47.52635" lon="6.74106">
        <ele>379.5</ele>
        <time>2014-06-08T09:49:07.000Z</time>
      </trkpt>
      <trkpt lat="47.5263" lon="6.7411">
        <ele>378.8</ele>
        <time>2014-06-08T09:49:08.000Z</time>
      </trkpt>
      <trkpt lat="47.52626" lon="6.74115">
        <ele>378.1</ele>
        <time>2014-06-08T09:49:09.000Z</time>
      </trkpt>
      <trkpt lat="47.52622" lon="6.7412">
        <ele>377.4</ele>
        <time>2014-06-08T09:49:10.000Z</time>
      </trkpt>
      <trkpt lat="47.52618" lon="6.74125">
        <ele>378.1</ele>
        <time>2014-06-08T09:49:11.000Z</time>
      </trkpt>
      <trkpt lat="47.52614" lon="6.74131">
        <ele>378.1</ele>
        <time>2014-06-08T09:49:12.000Z</time>
      </trkpt>
      <trkpt lat="47.5261" lon="6.74136">
        <ele>378.3</ele>
        <time>2014-06-08T09:49:13.000Z</time>
      </trkpt>
      <trkpt lat="47.52606" lon="6.74141">
        <ele>378.1</ele>
        <time>2014-06-08T09:49:14.000Z</time>
      </trkpt>
      <trkpt lat="47.52602" lon="6.74145">
        <ele>377.5</ele>
        <time>2014-06-08T09:49:15.000Z</time>
      </trkpt>
      <trkpt lat="47.52598" lon="6.7415">
        <ele>377.2</ele>
        <time>2014-06-08T09:49:16.000Z</time>
      </trkpt>
      <trkpt lat="47.52595" lon="6.74155">
        <ele>376.6</ele>
        <time>2014-06-08T09:49:17.000Z</time>
      </trkpt>
      <trkpt lat="47.52591" lon="6.74161">
        <ele>376.3</ele>
        <time>2014-06-08T09:49:18.000Z</time>
      </trkpt>
      <trkpt lat="47.52587" lon="6.74165">
        <ele>376</ele>
        <time>2014-06-08T09:49:19.000Z</time>
      </trkpt>
      <trkpt lat="47.52584" lon="6.74171">
        <ele>376</ele>
        <time>2014-06-08T09:49:20.000Z</time>
      </trkpt>
      <trkpt lat="47.5258" lon="6.74175">
        <ele>375.5</ele>
        <time>2014-06-08T09:49:21.000Z</time>
      </trkpt>
      <trkpt lat="47.52576" lon="6.74181">
        <ele>375</ele>
        <time>2014-06-08T09:49:22.000Z</time>
      </trkpt>
      <trkpt lat="47.52572" lon="6.74186">
        <ele>374.8</ele>
        <time>2014-06-08T09:49:23.000Z</time>
      </trkpt>
      <trkpt lat="47.52568" lon="6.74192">
        <ele>374.8</ele>
        <time>2014-06-08T09:49:24.000Z</time>
      </trkpt>
      <trkpt lat="47.52565" lon="6.74197">
        <ele>374.9</ele>
        <time>2014-06-08T09:49:25.000Z</time>
      </trkpt>
      <trkpt lat="47.52561" lon="6.74203">
        <ele>374.4</ele>
        <time>2014-06-08T09:49:26.000Z</time>
      </trkpt>
      <trkpt lat="47.52557" lon="6.74209">
        <ele>374.4</ele>
        <time>2014-06-08T09:49:27.000Z</time>
      </trkpt>
      <trkpt lat="47.52554" lon="6.74214">
        <ele>374.5</ele>
        <time>2014-06-08T09:49:28.000Z</time>
      </trkpt>
      <trkpt lat="47.5255" lon="6.7422">
        <ele>374.2</ele>
        <time>2014-06-08T09:49:29.000Z</time>
      </trkpt>
      <trkpt lat="47.52546" lon="6.74226">
        <ele>373.4</ele>
        <time>2014-06-08T09:49:30.000Z</time>
      </trkpt>
      <trkpt lat="47.52542" lon="6.74232">
        <ele>373.5</ele>
        <time>2014-06-08T09:49:31.000Z</time>
      </trkpt>
      <trkpt lat="47.52539" lon="6.74237">
        <ele>373.6</ele>
        <time>2014-06-08T09:49:32.000Z</time>
      </trkpt>
      <trkpt lat="47.52535" lon="6.74242">
        <ele>373.3</ele>
        <time>2014-06-08T09:49:33.000Z</time>
      </trkpt>
      <trkpt lat="47.52531" lon="6.74248">
        <ele>373</ele>
        <time>2014-06-08T09:49:34.000Z</time>
      </trkpt>
      <trkpt lat="47.52527" lon="6.74253">
        <ele>373</ele>
        <time>2014-06-08T09:49:35.000Z</time>
      </trkpt>
      <trkpt lat="47.52523" lon="6.74258">
        <ele>372.7</ele>
        <time>2014-06-08T09:49:36.000Z</time>
      </trkpt>
      <trkpt lat="47.52519" lon="6.74263">
        <ele>372.3</ele>
        <time>2014-06-08T09:49:37.000Z</time>
      </trkpt>
      <trkpt lat="47.52516" lon="6.74268">
        <ele>372.2</ele>
        <time>2014-06-08T09:49:38.000Z</time>
      </trkpt>
      <trkpt lat="47.52512" lon="6.74273">
        <ele>372.3</ele>
        <time>2014-06-08T09:49:39.000Z</time>
      </trkpt>
      <trkpt lat="47.52509" lon="6.74278">
        <ele>372.2</ele>
        <time>2014-06-08T09:49:40.000Z</time>
      </trkpt>
      <trkpt lat="47.52501" lon="6.7429">
        <ele>371.7</ele>
        <time>2014-06-08T09:49:43.000Z</time>
      </trkpt>
      <trkpt lat="47.52496" lon="6.74296">
        <ele>371.3</ele>
        <time>2014-06-08T09:49:44.000Z</time>
      </trkpt>
      <trkpt lat="47.52492" lon="6.74301">
        <ele>370.7</ele>
        <time>2014-06-08T09:49:45.000Z</time>
      </trkpt>
      <trkpt lat="47.52489" lon="6.74307">
        <ele>371.1</ele>
        <time>2014-06-08T09:49:46.000Z</time>
      </trkpt>
      <trkpt lat="47.52485" lon="6.74312">
        <ele>370.7</ele>
        <time>2014-06-08T09:49:47.000Z</time>
      </trkpt>
      <trkpt lat="47.52482" lon="6.74318">
        <ele>370.5</ele>
        <time>2014-06-08T09:49:48.000Z</time>
      </trkpt>
      <trkpt lat="47.52478" lon="6.74323">
        <ele>369.9</ele>
        <time>2014-06-08T09:49:49.000Z</time>
      </trkpt>
      <trkpt lat="47.52474" lon="6.74329">
        <ele>369.2</ele>
        <time>2014-06-08T09:49:50.000Z</time>
      </trkpt>
      <trkpt lat="47.5247" lon="6.74334">
        <ele>369.2</ele>
        <time>2014-06-08T09:49:51.000Z</time>
      </trkpt>
      <trkpt lat="47.52466" lon="6.7434">
        <ele>369</ele>
        <time>2014-06-08T09:49:52.000Z</time>
      </trkpt>
      <trkpt lat="47.52463" lon="6.74345">
        <ele>368.8</ele>
        <time>2014-06-08T09:49:53.000Z</time>
      </trkpt>
      <trkpt lat="47.52459" lon="6.74349">
        <ele>368.4</ele>
        <time>2014-06-08T09:49:54.000Z</time>
      </trkpt>
      <trkpt lat="47.52457" lon="6.74354">
        <ele>368</ele>
        <time>2014-06-08T09:49:55.000Z</time>
      </trkpt>
      <trkpt lat="47.52456" lon="6.74358">
        <ele>367.9</ele>
        <time>2014-06-08T09:49:56.000Z</time>
      </trkpt>
      <trkpt lat="47.52457" lon="6.74363">
        <ele>367.7</ele>
        <time>2014-06-08T09:49:57.000Z</time>
      </trkpt>
      <trkpt lat="47.52459" lon="6.74366">
        <ele>367.9</ele>
        <time>2014-06-08T09:49:58.000Z</time>
      </trkpt>
      <trkpt lat="47.52462" lon="6.74367">
        <ele>368.2</ele>
        <time>2014-06-08T09:49:59.000Z</time>
      </trkpt>
      <trkpt lat="47.52465" lon="6.74367">
        <ele>368.6</ele>
        <time>2014-06-08T09:50:00.000Z</time>
      </trkpt>
      <trkpt lat="47.52468" lon="6.74367">
        <ele>368.5</ele>
        <time>2014-06-08T09:50:01.000Z</time>
      </trkpt>
      <trkpt lat="47.52471" lon="6.74367">
        <ele>368.9</ele>
        <time>2014-06-08T09:50:02.000Z</time>
      </trkpt>
      <trkpt lat="47.52474" lon="6.74368">
        <ele>369.1</ele>
        <time>2014-06-08T09:50:03.000Z</time>
      </trkpt>
      <trkpt lat="47.52477" lon="6.74368">
        <ele>369.3</ele>
        <time>2014-06-08T09:50:04.000Z</time>
      </trkpt>
      <trkpt lat="47.5248" lon="6.74368">
        <ele>369.8</ele>
        <time>2014-06-08T09:50:05.000Z</time>
      </trkpt>
      <trkpt lat="47.52483" lon="6.74369">
        <ele>370.5</ele>
        <time>2014-06-08T09:50:06.000Z</time>
      </trkpt>
      <trkpt lat="47.52486" lon="6.74369">
        <ele>370.3</ele>
        <time>2014-06-08T09:50:07.000Z</time>
      </trkpt>
      <trkpt lat="47.52489" lon="6.74369">
        <ele>370.7</ele>
        <time>2014-06-08T09:50:08.000Z</time>
      </trkpt>
      <trkpt lat="47.52492" lon="6.74369">
        <ele>371</ele>
        <time>2014-06-08T09:50:09.000Z</time>
      </trkpt>
      <trkpt lat="47.52495" lon="6.74369">
        <ele>372</ele>
        <time>2014-06-08T09:50:10.000Z</time>
      </trkpt>
      <trkpt lat="47.52498" lon="6.74369">
        <ele>372.1</ele>
        <time>2014-06-08T09:50:11.000Z</time>
      </trkpt>
      <trkpt lat="47.52502" lon="6.7437">
        <ele>372</ele>
        <time>2014-06-08T09:50:12.000Z</time>
      </trkpt>
      <trkpt lat="47.52506" lon="6.7437">
        <ele>371.9</ele>
        <time>2014-06-08T09:50:13.000Z</time>
      </trkpt>
      <trkpt lat="47.5251" lon="6.74371">
        <ele>372</ele>
        <time>2014-06-08T09:50:14.000Z</time>
      </trkpt>
      <trkpt lat="47.52514" lon="6.74371">
        <ele>372</ele>
        <time>2014-06-08T09:50:15.000Z</time>
      </trkpt>
      <trkpt lat="47.52518" lon="6.74371">
        <ele>372.1</ele>
        <time>2014-06-08T09:50:16.000Z</time>
      </trkpt>
      <trkpt lat="47.52522" lon="6.74371">
        <ele>372.3</ele>
        <time>2014-06-08T09:50:17.000Z</time>
      </trkpt>
      <trkpt lat="47.52526" lon="6.74371">
        <ele>372.4</ele>
        <time>2014-06-08T09:50:18.000Z</time>
      </trkpt>
      <trkpt lat="47.52529" lon="6.74371">
        <ele>372.4</ele>
        <time>2014-06-08T09:50:19.000Z</time>
      </trkpt>
      <trkpt lat="47.52533" lon="6.74371">
        <ele>372.7</ele>
        <time>2014-06-08T09:50:20.000Z</time>
      </trkpt>
      <trkpt lat="47.52537" lon="6.74372">
        <ele>372.9</ele>
        <time>2014-06-08T09:50:21.000Z</time>
      </trkpt>
      <trkpt lat="47.52541" lon="6.74372">
        <ele>372.8</ele>
        <time>2014-06-08T09:50:22.000Z</time>
      </trkpt>
      <trkpt lat="47.52544" lon="6.74372">
        <ele>372.7</ele>
        <time>2014-06-08T09:50:23.000Z</time>
      </trkpt>
      <trkpt lat="47.52548" lon="6.74372">
        <ele>372.8</ele>
        <time>2014-06-08T09:50:24.000Z</time>
      </trkpt>
      <trkpt lat="47.52551" lon="6.74372">
        <ele>373.2</ele>
        <time>2014-06-08T09:50:25.000Z</time>
      </trkpt>
      <trkpt lat="47.52555" lon="6.74373">
        <ele>372.9</ele>
        <time>2014-06-08T09:50:26.000Z</time>
      </trkpt>
      <trkpt lat="47.52559" lon="6.74373">
        <ele>373</ele>
        <time>2014-06-08T09:50:27.000Z</time>
      </trkpt>
      <trkpt lat="47.52562" lon="6.74374">
        <ele>373.5</ele>
        <time>2014-06-08T09:50:28.000Z</time>
      </trkpt>
      <trkpt lat="47.52565" lon="6.74375">
        <ele>373.6</ele>
        <time>2014-06-08T09:50:29.000Z</time>
      </trkpt>
      <trkpt lat="47.52569" lon="6.74379">
        <ele>371.6</ele>
        <time>2014-06-08T09:50:30.000Z</time>
      </trkpt>
      <trkpt lat="47.52573" lon="6.7438">
        <ele>372.1</ele>
        <time>2014-06-08T09:50:31.000Z</time>
      </trkpt>
      <trkpt lat="47.52577" lon="6.74383">
        <ele>372.3</ele>
        <time>2014-06-08T09:50:32.000Z</time>
      </trkpt>
      <trkpt lat="47.52581" lon="6.74386">
        <ele>372.1</ele>
        <time>2014-06-08T09:50:33.000Z</time>
      </trkpt>
      <trkpt lat="47.52586" lon="6.7439">
        <ele>371.8</ele>
        <time>2014-06-08T09:50:34.000Z</time>
      </trkpt>
      <trkpt lat="47.52592" lon="6.74393">
        <ele>371.8</ele>
        <time>2014-06-08T09:50:35.000Z</time>
      </trkpt>
      <trkpt lat="47.52597" lon="6.74396">
        <ele>371.8</ele>
        <time>2014-06-08T09:50:36.000Z</time>
      </trkpt>
      <trkpt lat="47.52604" lon="6.74402">
        <ele>372.2</ele>
        <time>2014-06-08T09:50:37.000Z</time>
      </trkpt>
      <trkpt lat="47.52609" lon="6.74412">
        <ele>372.1</ele>
        <time>2014-06-08T09:50:38.000Z</time>
      </trkpt>
      <trkpt lat="47.52611" lon="6.74422">
        <ele>371.6</ele>
        <time>2014-06-08T09:50:39.000Z</time>
      </trkpt>
      <trkpt lat="47.52617" lon="6.74491">
        <ele>371.5</ele>
        <time>2014-06-08T09:50:48.000Z</time>
      </trkpt>
      <trkpt lat="47.52617" lon="6.74496">
        <ele>371.6</ele>
        <time>2014-06-08T09:50:49.000Z</time>
      </trkpt>
      <trkpt lat="47.52618" lon="6.74502">
        <ele>371.4</ele>
        <time>2014-06-08T09:50:50.000Z</time>
      </trkpt>
      <trkpt lat="47.52619" lon="6.74508">
        <ele>371.7</ele>
        <time>2014-06-08T09:50:51.000Z</time>
      </trkpt>
      <trkpt lat="47.5262" lon="6.74514">
        <ele>371.9</ele>
        <time>2014-06-08T09:50:52.000Z</time>
      </trkpt>
      <trkpt lat="47.5262" lon="6.74519">
        <ele>371.9</ele>
        <time>2014-06-08T09:50:53.000Z</time>
      </trkpt>
      <trkpt lat="47.5262" lon="6.74525">
        <ele>371.9</ele>
        <time>2014-06-08T09:50:54.000Z</time>
      </trkpt>
      <trkpt lat="47.5262" lon="6.7453">
        <ele>372.3</ele>
        <time>2014-06-08T09:50:55.000Z</time>
      </trkpt>
      <trkpt lat="47.5262" lon="6.74535">
        <ele>372.9</ele>
        <time>2014-06-08T09:50:56.000Z</time>
      </trkpt>
      <trkpt lat="47.52621" lon="6.74541">
        <ele>372.6</ele>
        <time>2014-06-08T09:50:57.000Z</time>
      </trkpt>
      <trkpt lat="47.52621" lon="6.74546">
        <ele>372.8</ele>
        <time>2014-06-08T09:50:58.000Z</time>
      </trkpt>
      <trkpt lat="47.52621" lon="6.74551">
        <ele>373</ele>
        <time>2014-06-08T09:50:59.000Z</time>
      </trkpt>
      <trkpt lat="47.52621" lon="6.74557">
        <ele>373.4</ele>
        <time>2014-06-08T09:51:00.000Z</time>
      </trkpt>
      <trkpt lat="47.52621" lon="6.74562">
        <ele>373.3</ele>
        <time>2014-06-08T09:51:01.000Z</time>
      </trkpt>
      <trkpt lat="47.52622" lon="6.74567">
        <ele>373.8</ele>
        <time>2014-06-08T09:51:02.000Z</time>
      </trkpt>
      <trkpt lat="47.52622" lon="6.74572">
        <ele>373.8</ele>
        <time>2014-06-08T09:51:03.000Z</time>
      </trkpt>
      <trkpt lat="47.52622" lon="6.74576">
        <ele>374.2</ele>
        <time>2014-06-08T09:51:04.000Z</time>
      </trkpt>
      <trkpt lat="47.52622" lon="6.74581">
        <ele>375</ele>
        <time>2014-06-08T09:51:05.000Z</time>
      </trkpt>
      <trkpt lat="47.52622" lon="6.74586">
        <ele>375.4</ele>
        <time>2014-06-08T09:51:06.000Z</time>
      </trkpt>
      <trkpt lat="47.52622" lon="6.74591">
        <ele>375.7</ele>
        <time>2014-06-08T09:51:07.000Z</time>
      </trkpt>
      <trkpt lat="47.52622" lon="6.74596">
        <ele>376</ele>
        <time>2014-06-08T09:51:08.000Z</time>
      </trkpt>
      <trkpt lat="47.52622" lon="6.746">
        <ele>376.3</ele>
        <time>2014-06-08T09:51:09.000Z</time>
      </trkpt>
      <trkpt lat="47.52623" lon="6.74605">
        <ele>376.5</ele>
        <time>2014-06-08T09:51:10.000Z</time>
      </trkpt>
      <trkpt lat="47.52623" lon="6.74609">
        <ele>376.9</ele>
        <time>2014-06-08T09:51:11.000Z</time>
      </trkpt>
      <trkpt lat="47.52622" lon="6.74613">
        <ele>377.1</ele>
        <time>2014-06-08T09:51:12.000Z</time>
      </trkpt>
      <trkpt lat="47.52622" lon="6.74618">
        <ele>377.2</ele>
        <time>2014-06-08T09:51:13.000Z</time>
      </trkpt>
      <trkpt lat="47.52622" lon="6.74622">
        <ele>377.4</ele>
        <time>2014-06-08T09:51:14.000Z</time>
      </trkpt>
      <trkpt lat="47.52622" lon="6.74626">
        <ele>377.7</ele>
        <time>2014-06-08T09:51:15.000Z</time>
      </trkpt>
      <trkpt lat="47.52622" lon="6.74631">
        <ele>378</ele>
        <time>2014-06-08T09:51:16.000Z</time>
      </trkpt>
      <trkpt lat="47.52621" lon="6.74635">
        <ele>377.9</ele>
        <time>2014-06-08T09:51:17.000Z</time>
      </trkpt>
      <trkpt lat="47.52621" lon="6.7464">
        <ele>378</ele>
        <time>2014-06-08T09:51:18.000Z</time>
      </trkpt>
      <trkpt lat="47.5262" lon="6.74644">
        <ele>378.5</ele>
        <time>2014-06-08T09:51:19.000Z</time>
      </trkpt>
      <trkpt lat="47.52619" lon="6.74649">
        <ele>378.6</ele>
        <time>2014-06-08T09:51:20.000Z</time>
      </trkpt>
      <trkpt lat="47.52618" lon="6.74653">
        <ele>378.7</ele>
        <time>2014-06-08T09:51:20.969Z</time>
      </trkpt>
      <trkpt lat="47.52617" lon="6.74657">
        <ele>379</ele>
        <time>2014-06-08T09:51:22.000Z</time>
      </trkpt>
      <trkpt lat="47.52616" lon="6.74661">
        <ele>379.2</ele>
        <time>2014-06-08T09:51:23.000Z</time>
      </trkpt>
      <trkpt lat="47.52615" lon="6.74666">
        <ele>379.1</ele>
        <time>2014-06-08T09:51:24.000Z</time>
      </trkpt>
      <trkpt lat="47.52615" lon="6.7467">
        <ele>379.2</ele>
        <time>2014-06-08T09:51:25.000Z</time>
      </trkpt>
      <trkpt lat="47.52613" lon="6.74675">
        <ele>379.2</ele>
        <time>2014-06-08T09:51:26.000Z</time>
      </trkpt>
      <trkpt lat="47.52612" lon="6.74679">
        <ele>379.3</ele>
        <time>2014-06-08T09:51:27.000Z</time>
      </trkpt>
      <trkpt lat="47.52611" lon="6.74684">
        <ele>379.6</ele>
        <time>2014-06-08T09:51:28.000Z</time>
      </trkpt>
      <trkpt lat="47.5261" lon="6.74688">
        <ele>379.9</ele>
        <time>2014-06-08T09:51:29.000Z</time>
      </trkpt>
      <trkpt lat="47.52609" lon="6.74693">
        <ele>380.2</ele>
        <time>2014-06-08T09:51:30.000Z</time>
      </trkpt>
      <trkpt lat="47.52608" lon="6.74697">
        <ele>379.7</ele>
        <time>2014-06-08T09:51:31.000Z</time>
      </trkpt>
      <trkpt lat="47.52607" lon="6.74702">
        <ele>379.8</ele>
        <time>2014-06-08T09:51:32.000Z</time>
      </trkpt>
      <trkpt lat="47.52606" lon="6.74706">
        <ele>379.8</ele>
        <time>2014-06-08T09:51:33.000Z</time>
      </trkpt>
      <trkpt lat="47.52605" lon="6.74711">
        <ele>380.2</ele>
        <time>2014-06-08T09:51:34.000Z</time>
      </trkpt>
      <trkpt lat="47.52603" lon="6.74715">
        <ele>380.6</ele>
        <time>2014-06-08T09:51:35.000Z</time>
      </trkpt>
      <trkpt lat="47.52602" lon="6.7472">
        <ele>380.7</ele>
        <time>2014-06-08T09:51:36.000Z</time>
      </trkpt>
      <trkpt lat="47.52601" lon="6.74724">
        <ele>381.1</ele>
        <time>2014-06-08T09:51:37.000Z</time>
      </trkpt>
      <trkpt lat="47.52599" lon="6.74728">
        <ele>381.2</ele>
        <time>2014-06-08T09:51:38.000Z</time>
      </trkpt>
      <trkpt lat="47.52598" lon="6.74733">
        <ele>381.3</ele>
        <time>2014-06-08T09:51:39.000Z</time>
      </trkpt>
      <trkpt lat="47.52583" lon="6.74772">
        <ele>383</ele>
        <time>2014-06-08T09:51:48.000Z</time>
      </trkpt>
      <trkpt lat="47.52582" lon="6.74776">
        <ele>382.2</ele>
        <time>2014-06-08T09:51:49.000Z</time>
      </trkpt>
      <trkpt lat="47.5258" lon="6.74779">
        <ele>382.4</ele>
        <time>2014-06-08T09:51:50.000Z</time>
      </trkpt>
      <trkpt lat="47.52577" lon="6.74782">
        <ele>382.4</ele>
        <time>2014-06-08T09:51:51.000Z</time>
      </trkpt>
      <trkpt lat="47.52575" lon="6.74785">
        <ele>383.6</ele>
        <time>2014-06-08T09:51:52.000Z</time>
      </trkpt>
      <trkpt lat="47.52573" lon="6.74788">
        <ele>383.8</ele>
        <time>2014-06-08T09:51:53.000Z</time>
      </trkpt>
      <trkpt lat="47.5257" lon="6.7479">
        <ele>383.6</ele>
        <time>2014-06-08T09:51:54.000Z</time>
      </trkpt>
      <trkpt lat="47.52566" lon="6.74792">
        <ele>383.5</ele>
        <time>2014-06-08T09:51:55.000Z</time>
      </trkpt>
      <trkpt lat="47.52563" lon="6.74795">
        <ele>383</ele>
        <time>2014-06-08T09:51:56.000Z</time>
      </trkpt>
      <trkpt lat="47.52558" lon="6.74796">
        <ele>383.1</ele>
        <time>2014-06-08T09:51:57.000Z</time>
      </trkpt>
      <trkpt lat="47.52554" lon="6.74798">
        <ele>383.1</ele>
        <time>2014-06-08T09:51:58.000Z</time>
      </trkpt>
      <trkpt lat="47.5255" lon="6.74799">
        <ele>383</ele>
        <time>2014-06-08T09:51:59.000Z</time>
      </trkpt>
      <trkpt lat="47.52546" lon="6.748">
        <ele>382.6</ele>
        <time>2014-06-08T09:52:00.000Z</time>
      </trkpt>
      <trkpt lat="47.52539" lon="6.74799">
        <ele>384.5</ele>
        <time>2014-06-08T09:52:01.000Z</time>
      </trkpt>
      <trkpt lat="47.52535" lon="6.748">
        <ele>384.9</ele>
        <time>2014-06-08T09:52:02.000Z</time>
      </trkpt>
      <trkpt lat="47.52529" lon="6.74799">
        <ele>386</ele>
        <time>2014-06-08T09:52:03.000Z</time>
      </trkpt>
      <trkpt lat="47.52524" lon="6.74799">
        <ele>386</ele>
        <time>2014-06-08T09:52:04.000Z</time>
      </trkpt>
      <trkpt lat="47.5252" lon="6.74797">
        <ele>386.1</ele>
        <time>2014-06-08T09:52:05.000Z</time>
      </trkpt>
      <trkpt lat="47.52516" lon="6.74796">
        <ele>385.8</ele>
        <time>2014-06-08T09:52:06.000Z</time>
      </trkpt>
      <trkpt lat="47.52512" lon="6.74794">
        <ele>385.5</ele>
        <time>2014-06-08T09:52:07.000Z</time>
      </trkpt>
      <trkpt lat="47.52508" lon="6.74793">
        <ele>386.2</ele>
        <time>2014-06-08T09:52:08.000Z</time>
      </trkpt>
      <trkpt lat="47.52504" lon="6.7479">
        <ele>385.7</ele>
        <time>2014-06-08T09:52:09.000Z</time>
      </trkpt>
      <trkpt lat="47.525" lon="6.74788">
        <ele>386.6</ele>
        <time>2014-06-08T09:52:10.000Z</time>
      </trkpt>
      <trkpt lat="47.52496" lon="6.74786">
        <ele>387.2</ele>
        <time>2014-06-08T09:52:11.000Z</time>
      </trkpt>
      <trkpt lat="47.52492" lon="6.74784">
        <ele>387.1</ele>
        <time>2014-06-08T09:52:12.000Z</time>
      </trkpt>
      <trkpt lat="47.52486" lon="6.7478">
        <ele>385.5</ele>
        <time>2014-06-08T09:52:13.000Z</time>
      </trkpt>
      <trkpt lat="47.52481" lon="6.74778">
        <ele>384.8</ele>
        <time>2014-06-08T09:52:14.000Z</time>
      </trkpt>
      <trkpt lat="47.52475" lon="6.74775">
        <ele>383.9</ele>
        <time>2014-06-08T09:52:15.000Z</time>
      </trkpt>
      <trkpt lat="47.5247" lon="6.74774">
        <ele>382.7</ele>
        <time>2014-06-08T09:52:16.000Z</time>
      </trkpt>
      <trkpt lat="47.52464" lon="6.74771">
        <ele>380.7</ele>
        <time>2014-06-08T09:52:17.000Z</time>
      </trkpt>
      <trkpt lat="47.52459" lon="6.74768">
        <ele>380.2</ele>
        <time>2014-06-08T09:52:18.000Z</time>
      </trkpt>
      <trkpt lat="47.52454" lon="6.74766">
        <ele>380.7</ele>
        <time>2014-06-08T09:52:19.000Z</time>
      </trkpt>
      <trkpt lat="47.52448" lon="6.74764">
        <ele>380.5</ele>
        <time>2014-06-08T09:52:20.000Z</time>
      </trkpt>
      <trkpt lat="47.52443" lon="6.74762">
        <ele>380</ele>
        <time>2014-06-08T09:52:21.000Z</time>
      </trkpt>
      <trkpt lat="47.52439" lon="6.7476">
        <ele>379.4</ele>
        <time>2014-06-08T09:52:22.000Z</time>
      </trkpt>
      <trkpt lat="47.52435" lon="6.74758">
        <ele>379.4</ele>
        <time>2014-06-08T09:52:23.000Z</time>
      </trkpt>
      <trkpt lat="47.52432" lon="6.74754">
        <ele>379.4</ele>
        <time>2014-06-08T09:52:24.000Z</time>
      </trkpt>
      <trkpt lat="47.52428" lon="6.74751">
        <ele>379.3</ele>
        <time>2014-06-08T09:52:25.000Z</time>
      </trkpt>
      <trkpt lat="47.52424" lon="6.74746">
        <ele>379.3</ele>
        <time>2014-06-08T09:52:26.000Z</time>
      </trkpt>
      <trkpt lat="47.52418" lon="6.74741">
        <ele>379.8</ele>
        <time>2014-06-08T09:52:27.000Z</time>
      </trkpt>
      <trkpt lat="47.52413" lon="6.74738">
        <ele>382.1</ele>
        <time>2014-06-08T09:52:28.000Z</time>
      </trkpt>
      <trkpt lat="47.52409" lon="6.74734">
        <ele>381.9</ele>
        <time>2014-06-08T09:52:29.000Z</time>
      </trkpt>
      <trkpt lat="47.52406" lon="6.74732">
        <ele>382.3</ele>
        <time>2014-06-08T09:52:30.000Z</time>
      </trkpt>
      <trkpt lat="47.52401" lon="6.7473">
        <ele>382.2</ele>
        <time>2014-06-08T09:52:31.000Z</time>
      </trkpt>
      <trkpt lat="47.52396" lon="6.74728">
        <ele>382.2</ele>
        <time>2014-06-08T09:52:32.000Z</time>
      </trkpt>
      <trkpt lat="47.52391" lon="6.74725">
        <ele>382.9</ele>
        <time>2014-06-08T09:52:33.000Z</time>
      </trkpt>
      <trkpt lat="47.52385" lon="6.74724">
        <ele>382.5</ele>
        <time>2014-06-08T09:52:34.000Z</time>
      </trkpt>
      <trkpt lat="47.52376" lon="6.74721">
        <ele>381</ele>
        <time>2014-06-08T09:52:35.000Z</time>
      </trkpt>
      <trkpt lat="47.52369" lon="6.74718">
        <ele>381.1</ele>
        <time>2014-06-08T09:52:36.000Z</time>
      </trkpt>
      <trkpt lat="47.52363" lon="6.74715">
        <ele>380.7</ele>
        <time>2014-06-08T09:52:37.000Z</time>
      </trkpt>
      <trkpt lat="47.52356" lon="6.74712">
        <ele>379.8</ele>
        <time>2014-06-08T09:52:38.000Z</time>
      </trkpt>
      <trkpt lat="47.52348" lon="6.74708">
        <ele>377.8</ele>
        <time>2014-06-08T09:52:39.000Z</time>
      </trkpt>
      <trkpt lat="47.52299" lon="6.7469">
        <ele>374.2</ele>
        <time>2014-06-08T09:52:48.000Z</time>
      </trkpt>
      <trkpt lat="47.52295" lon="6.74692">
        <ele>372.4</ele>
        <time>2014-06-08T09:52:49.000Z</time>
      </trkpt>
      <trkpt lat="47.52291" lon="6.74693">
        <ele>369.9</ele>
        <time>2014-06-08T09:52:50.000Z</time>
      </trkpt>
      <trkpt lat="47.52289" lon="6.74697">
        <ele>370.4</ele>
        <time>2014-06-08T09:52:51.000Z</time>
      </trkpt>
      <trkpt lat="47.52287" lon="6.74703">
        <ele>371.1</ele>
        <time>2014-06-08T09:52:52.000Z</time>
      </trkpt>
      <trkpt lat="47.52286" lon="6.74706">
        <ele>371.5</ele>
        <time>2014-06-08T09:52:53.000Z</time>
      </trkpt>
      <trkpt lat="47.52284" lon="6.7471">
        <ele>371.5</ele>
        <time>2014-06-08T09:52:54.000Z</time>
      </trkpt>
      <trkpt lat="47.52283" lon="6.74713">
        <ele>371</ele>
        <time>2014-06-08T09:52:55.000Z</time>
      </trkpt>
      <trkpt lat="47.52281" lon="6.74717">
        <ele>371.1</ele>
        <time>2014-06-08T09:52:56.000Z</time>
      </trkpt>
      <trkpt lat="47.5228" lon="6.74721">
        <ele>370.6</ele>
        <time>2014-06-08T09:52:57.000Z</time>
      </trkpt>
      <trkpt lat="47.52279" lon="6.74725">
        <ele>369.8</ele>
        <time>2014-06-08T09:52:58.000Z</time>
      </trkpt>
      <trkpt lat="47.52278" lon="6.74729">
        <ele>370.4</ele>
        <time>2014-06-08T09:52:59.000Z</time>
      </trkpt>
      <trkpt lat="47.52276" lon="6.74733">
        <ele>369.9</ele>
        <time>2014-06-08T09:53:00.000Z</time>
      </trkpt>
      <trkpt lat="47.52275" lon="6.74736">
        <ele>370</ele>
        <time>2014-06-08T09:53:01.000Z</time>
      </trkpt>
      <trkpt lat="47.52274" lon="6.7474">
        <ele>370.3</ele>
        <time>2014-06-08T09:53:02.000Z</time>
      </trkpt>
      <trkpt lat="47.52273" lon="6.74744">
        <ele>370.3</ele>
        <time>2014-06-08T09:53:03.000Z</time>
      </trkpt>
      <trkpt lat="47.52271" lon="6.74748">
        <ele>370.8</ele>
        <time>2014-06-08T09:53:04.000Z</time>
      </trkpt>
      <trkpt lat="47.5227" lon="6.74752">
        <ele>370</ele>
        <time>2014-06-08T09:53:05.000Z</time>
      </trkpt>
      <trkpt lat="47.52269" lon="6.74756">
        <ele>370.4</ele>
        <time>2014-06-08T09:53:06.000Z</time>
      </trkpt>
      <trkpt lat="47.52268" lon="6.7476">
        <ele>370.7</ele>
        <time>2014-06-08T09:53:07.000Z</time>
      </trkpt>
      <trkpt lat="47.52267" lon="6.74764">
        <ele>370.9</ele>
        <time>2014-06-08T09:53:08.000Z</time>
      </trkpt>
      <trkpt lat="47.52266" lon="6.74768">
        <ele>371.1</ele>
        <time>2014-06-08T09:53:09.000Z</time>
      </trkpt>
      <trkpt lat="47.52264" lon="6.74771">
        <ele>371.2</ele>
        <time>2014-06-08T09:53:10.000Z</time>
      </trkpt>
      <trkpt lat="47.52263" lon="6.74775">
        <ele>371.2</ele>
        <time>2014-06-08T09:53:11.000Z</time>
      </trkpt>
      <trkpt lat="47.52262" lon="6.74779">
        <ele>370.9</ele>
        <time>2014-06-08T09:53:12.000Z</time>
      </trkpt>
      <trkpt lat="47.52261" lon="6.74783">
        <ele>371</ele>
        <time>2014-06-08T09:53:13.000Z</time>
      </trkpt>
      <trkpt lat="47.52259" lon="6.74787">
        <ele>371.1</ele>
        <time>2014-06-08T09:53:14.000Z</time>
      </trkpt>
      <trkpt lat="47.52258" lon="6.74791">
        <ele>371</ele>
        <time>2014-06-08T09:53:15.000Z</time>
      </trkpt>
      <trkpt lat="47.52257" lon="6.74795">
        <ele>371.3</ele>
        <time>2014-06-08T09:53:16.000Z</time>
      </trkpt>
      <trkpt lat="47.52256" lon="6.748">
        <ele>371</ele>
        <time>2014-06-08T09:53:17.000Z</time>
      </trkpt>
      <trkpt lat="47.52255" lon="6.74804">
        <ele>371.1</ele>
        <time>2014-06-08T09:53:18.000Z</time>
      </trkpt>
      <trkpt lat="47.52253" lon="6.74808">
        <ele>371.2</ele>
        <time>2014-06-08T09:53:19.000Z</time>
      </trkpt>
      <trkpt lat="47.52252" lon="6.74812">
        <ele>371.3</ele>
        <time>2014-06-08T09:53:20.000Z</time>
      </trkpt>
      <trkpt lat="47.52251" lon="6.74817">
        <ele>371.5</ele>
        <time>2014-06-08T09:53:21.000Z</time>
      </trkpt>
      <trkpt lat="47.5225" lon="6.74821">
        <ele>373</ele>
        <time>2014-06-08T09:53:22.000Z</time>
      </trkpt>
      <trkpt lat="47.5225" lon="6.74826">
        <ele>372.9</ele>
        <time>2014-06-08T09:53:23.000Z</time>
      </trkpt>
      <trkpt lat="47.52249" lon="6.74831">
        <ele>372.8</ele>
        <time>2014-06-08T09:53:24.000Z</time>
      </trkpt>
      <trkpt lat="47.52248" lon="6.74836">
        <ele>372.5</ele>
        <time>2014-06-08T09:53:25.000Z</time>
      </trkpt>
      <trkpt lat="47.52247" lon="6.74841">
        <ele>372.1</ele>
        <time>2014-06-08T09:53:26.000Z</time>
      </trkpt>
      <trkpt lat="47.52245" lon="6.74846">
        <ele>371.7</ele>
        <time>2014-06-08T09:53:27.000Z</time>
      </trkpt>
      <trkpt lat="47.52244" lon="6.74851">
        <ele>371.5</ele>
        <time>2014-06-08T09:53:28.000Z</time>
      </trkpt>
      <trkpt lat="47.52244" lon="6.74856">
        <ele>371.3</ele>
        <time>2014-06-08T09:53:29.000Z</time>
      </trkpt>
      <trkpt lat="47.52243" lon="6.74861">
        <ele>371</ele>
        <time>2014-06-08T09:53:30.000Z</time>
      </trkpt>
      <trkpt lat="47.52242" lon="6.74866">
        <ele>370.7</ele>
        <time>2014-06-08T09:53:31.000Z</time>
      </trkpt>
      <trkpt lat="47.52241" lon="6.74872">
        <ele>370.5</ele>
        <time>2014-06-08T09:53:32.000Z</time>
      </trkpt>
      <trkpt lat="47.5224" lon="6.74878">
        <ele>370.3</ele>
        <time>2014-06-08T09:53:33.000Z</time>
      </trkpt>
      <trkpt lat="47.5224" lon="6.74884">
        <ele>370.5</ele>
        <time>2014-06-08T09:53:34.000Z</time>
      </trkpt>
      <trkpt lat="47.52239" lon="6.74891">
        <ele>371</ele>
        <time>2014-06-08T09:53:35.000Z</time>
      </trkpt>
      <trkpt lat="47.52239" lon="6.74897">
        <ele>370.9</ele>
        <time>2014-06-08T09:53:36.000Z</time>
      </trkpt>
      <trkpt lat="47.52238" lon="6.74903">
        <ele>371.1</ele>
        <time>2014-06-08T09:53:37.000Z</time>
      </trkpt>
      <trkpt lat="47.52238" lon="6.74909">
        <ele>371.1</ele>
        <time>2014-06-08T09:53:38.000Z</time>
      </trkpt>
      <trkpt lat="47.52238" lon="6.74915">
        <ele>371.2</ele>
        <time>2014-06-08T09:53:39.000Z</time>
      </trkpt>
      <trkpt lat="47.52237" lon="6.74921">
        <ele>371.4</ele>
        <time>2014-06-08T09:53:40.000Z</time>
      </trkpt>
      <trkpt lat="47.52237" lon="6.74927">
        <ele>371.2</ele>
        <time>2014-06-08T09:53:41.000Z</time>
      </trkpt>
      <trkpt lat="47.52236" lon="6.74974">
        <ele>371.4</ele>
        <time>2014-06-08T09:53:49.000Z</time>
      </trkpt>
      <trkpt lat="47.52236" lon="6.74979">
        <ele>371.6</ele>
        <time>2014-06-08T09:53:50.000Z</time>
      </trkpt>
      <trkpt lat="47.52236" lon="6.74985">
        <ele>372</ele>
        <time>2014-06-08T09:53:51.000Z</time>
      </trkpt>
      <trkpt lat="47.52236" lon="6.7499">
        <ele>371.2</ele>
        <time>2014-06-08T09:53:52.000Z</time>
      </trkpt>
      <trkpt lat="47.52237" lon="6.74996">
        <ele>370.8</ele>
        <time>2014-06-08T09:53:53.000Z</time>
      </trkpt>
      <trkpt lat="47.52237" lon="6.75001">
        <ele>371.2</ele>
        <time>2014-06-08T09:53:54.000Z</time>
      </trkpt>
      <trkpt lat="47.52238" lon="6.75006">
        <ele>370.1</ele>
        <time>2014-06-08T09:53:55.000Z</time>
      </trkpt>
      <trkpt lat="47.52238" lon="6.75011">
        <ele>370.1</ele>
        <time>2014-06-08T09:53:56.000Z</time>
      </trkpt>
      <trkpt lat="47.52239" lon="6.75016">
        <ele>370</ele>
        <time>2014-06-08T09:53:57.000Z</time>
      </trkpt>
      <trkpt lat="47.52239" lon="6.75021">
        <ele>369.9</ele>
        <time>2014-06-08T09:53:58.001Z</time>
      </trkpt>
      <trkpt lat="47.5224" lon="6.75025">
        <ele>369.8</ele>
        <time>2014-06-08T09:53:59.000Z</time>
      </trkpt>
      <trkpt lat="47.5224" lon="6.7503">
        <ele>369.2</ele>
        <time>2014-06-08T09:54:00.000Z</time>
      </trkpt>
      <trkpt lat="47.5224" lon="6.75035">
        <ele>369.3</ele>
        <time>2014-06-08T09:54:01.000Z</time>
      </trkpt>
      <trkpt lat="47.52241" lon="6.7504">
        <ele>369.1</ele>
        <time>2014-06-08T09:54:02.000Z</time>
      </trkpt>
      <trkpt lat="47.52241" lon="6.75045">
        <ele>368.7</ele>
        <time>2014-06-08T09:54:03.000Z</time>
      </trkpt>
      <trkpt lat="47.52242" lon="6.7505">
        <ele>367.7</ele>
        <time>2014-06-08T09:54:04.000Z</time>
      </trkpt>
      <trkpt lat="47.52243" lon="6.75055">
        <ele>367.6</ele>
        <time>2014-06-08T09:54:05.000Z</time>
      </trkpt>
      <trkpt lat="47.52243" lon="6.75058">
        <ele>367.8</ele>
        <time>2014-06-08T09:54:06.000Z</time>
      </trkpt>
      <trkpt lat="47.52244" lon="6.75061">
        <ele>368.6</ele>
        <time>2014-06-08T09:54:07.000Z</time>
      </trkpt>
      <trkpt lat="47.52243" lon="6.75065">
        <ele>368.1</ele>
        <time>2014-06-08T09:54:08.000Z</time>
      </trkpt>
      <trkpt lat="47.52241" lon="6.75069">
        <ele>368.2</ele>
        <time>2014-06-08T09:54:09.000Z</time>
      </trkpt>
      <trkpt lat="47.52232" lon="6.75072">
        <ele>366.9</ele>
        <time>2014-06-08T09:54:10.000Z</time>
      </trkpt>
      <trkpt lat="47.52228" lon="6.75073">
        <ele>364.2</ele>
        <time>2014-06-08T09:54:11.000Z</time>
      </trkpt>
      <trkpt lat="47.52223" lon="6.75075">
        <ele>363.4</ele>
        <time>2014-06-08T09:54:12.000Z</time>
      </trkpt>
      <trkpt lat="47.52218" lon="6.75077">
        <ele>363.1</ele>
        <time>2014-06-08T09:54:13.000Z</time>
      </trkpt>
      <trkpt lat="47.52214" lon="6.75078">
        <ele>362.3</ele>
        <time>2014-06-08T09:54:14.000Z</time>
      </trkpt>
      <trkpt lat="47.5221" lon="6.75079">
        <ele>362.1</ele>
        <time>2014-06-08T09:54:15.000Z</time>
      </trkpt>
      <trkpt lat="47.52205" lon="6.7508">
        <ele>359.9</ele>
        <time>2014-06-08T09:54:16.000Z</time>
      </trkpt>
      <trkpt lat="47.52201" lon="6.75082">
        <ele>358.5</ele>
        <time>2014-06-08T09:54:17.000Z</time>
      </trkpt>
      <trkpt lat="47.52197" lon="6.75083">
        <ele>357.8</ele>
        <time>2014-06-08T09:54:18.000Z</time>
      </trkpt>
      <trkpt lat="47.52193" lon="6.75084">
        <ele>357.3</ele>
        <time>2014-06-08T09:54:19.000Z</time>
      </trkpt>
      <trkpt lat="47.52188" lon="6.75085">
        <ele>356.4</ele>
        <time>2014-06-08T09:54:20.000Z</time>
      </trkpt>
      <trkpt lat="47.52184" lon="6.75085">
        <ele>356.2</ele>
        <time>2014-06-08T09:54:21.000Z</time>
      </trkpt>
      <trkpt lat="47.52181" lon="6.75085">
        <ele>355.9</ele>
        <time>2014-06-08T09:54:22.000Z</time>
      </trkpt>
      <trkpt lat="47.52178" lon="6.75086">
        <ele>355.7</ele>
        <time>2014-06-08T09:54:23.000Z</time>
      </trkpt>
      <trkpt lat="47.52174" lon="6.75086">
        <ele>355.4</ele>
        <time>2014-06-08T09:54:24.000Z</time>
      </trkpt>
      <trkpt lat="47.52171" lon="6.75087">
        <ele>354.6</ele>
        <time>2014-06-08T09:54:25.000Z</time>
      </trkpt>
      <trkpt lat="47.52168" lon="6.75087">
        <ele>353.7</ele>
        <time>2014-06-08T09:54:26.000Z</time>
      </trkpt>
      <trkpt lat="47.52166" lon="6.75087">
        <ele>353.5</ele>
        <time>2014-06-08T09:54:27.000Z</time>
      </trkpt>
      <trkpt lat="47.52162" lon="6.75087">
        <ele>354.5</ele>
        <time>2014-06-08T09:54:28.000Z</time>
      </trkpt>
      <trkpt lat="47.5216" lon="6.75088">
        <ele>355.1</ele>
        <time>2014-06-08T09:54:29.000Z</time>
      </trkpt>
      <trkpt lat="47.52157" lon="6.75087">
        <ele>355.7</ele>
        <time>2014-06-08T09:54:30.000Z</time>
      </trkpt>
      <trkpt lat="47.52154" lon="6.75087">
        <ele>354.1</ele>
        <time>2014-06-08T09:54:31.000Z</time>
      </trkpt>
      <trkpt lat="47.5215" lon="6.75087">
        <ele>353.6</ele>
        <time>2014-06-08T09:54:32.000Z</time>
      </trkpt>
      <trkpt lat="47.52147" lon="6.75087">
        <ele>353.1</ele>
        <time>2014-06-08T09:54:33.000Z</time>
      </trkpt>
      <trkpt lat="47.52143" lon="6.75087">
        <ele>352.7</ele>
        <time>2014-06-08T09:54:34.000Z</time>
      </trkpt>
      <trkpt lat="47.52138" lon="6.75087">
        <ele>352.3</ele>
        <time>2014-06-08T09:54:35.000Z</time>
      </trkpt>
      <trkpt lat="47.52134" lon="6.75087">
        <ele>352.3</ele>
        <time>2014-06-08T09:54:36.000Z</time>
      </trkpt>
      <trkpt lat="47.5213" lon="6.75087">
        <ele>352.8</ele>
        <time>2014-06-08T09:54:37.000Z</time>
      </trkpt>
      <trkpt lat="47.52125" lon="6.75088">
        <ele>352.6</ele>
        <time>2014-06-08T09:54:38.000Z</time>
      </trkpt>
      <trkpt lat="47.52119" lon="6.75086">
        <ele>351.2</ele>
        <time>2014-06-08T09:54:39.000Z</time>
      </trkpt>
      <trkpt lat="47.52113" lon="6.75086">
        <ele>350.4</ele>
        <time>2014-06-08T09:54:40.000Z</time>
      </trkpt>
      <trkpt lat="47.52067" lon="6.75081">
        <ele>346.7</ele>
        <time>2014-06-08T09:54:48.000Z</time>
      </trkpt>
      <trkpt lat="47.52062" lon="6.75079">
        <ele>346.2</ele>
        <time>2014-06-08T09:54:49.000Z</time>
      </trkpt>
      <trkpt lat="47.52056" lon="6.75077">
        <ele>345</ele>
        <time>2014-06-08T09:54:50.000Z</time>
      </trkpt>
      <trkpt lat="47.52052" lon="6.75074">
        <ele>344.4</ele>
        <time>2014-06-08T09:54:51.000Z</time>
      </trkpt>
      <trkpt lat="47.52047" lon="6.75071">
        <ele>343.3</ele>
        <time>2014-06-08T09:54:52.000Z</time>
      </trkpt>
      <trkpt lat="47.52041" lon="6.75068">
        <ele>342.9</ele>
        <time>2014-06-08T09:54:53.000Z</time>
      </trkpt>
      <trkpt lat="47.52035" lon="6.75065">
        <ele>342.2</ele>
        <time>2014-06-08T09:54:53.999Z</time>
      </trkpt>
      <trkpt lat="47.5203" lon="6.7506">
        <ele>339.1</ele>
        <time>2014-06-08T09:54:55.000Z</time>
      </trkpt>
      <trkpt lat="47.52024" lon="6.75059">
        <ele>339</ele>
        <time>2014-06-08T09:54:56.000Z</time>
      </trkpt>
      <trkpt lat="47.52018" lon="6.75055">
        <ele>339</ele>
        <time>2014-06-08T09:54:57.000Z</time>
      </trkpt>
      <trkpt lat="47.52012" lon="6.75052">
        <ele>338.8</ele>
        <time>2014-06-08T09:54:58.000Z</time>
      </trkpt>
      <trkpt lat="47.52005" lon="6.75048">
        <ele>336.8</ele>
        <time>2014-06-08T09:54:59.000Z</time>
      </trkpt>
      <trkpt lat="47.51998" lon="6.75045">
        <ele>336.6</ele>
        <time>2014-06-08T09:55:00.000Z</time>
      </trkpt>
      <trkpt lat="47.51991" lon="6.75041">
        <ele>336.4</ele>
        <time>2014-06-08T09:55:01.000Z</time>
      </trkpt>
      <trkpt lat="47.51984" lon="6.75037">
        <ele>335.4</ele>
        <time>2014-06-08T09:55:01.999Z</time>
      </trkpt>
      <trkpt lat="47.51977" lon="6.75034">
        <ele>334.7</ele>
        <time>2014-06-08T09:55:03.000Z</time>
      </trkpt>
      <trkpt lat="47.51971" lon="6.75031">
        <ele>335</ele>
        <time>2014-06-08T09:55:04.000Z</time>
      </trkpt>
      <trkpt lat="47.51965" lon="6.75027">
        <ele>334.4</ele>
        <time>2014-06-08T09:55:04.998Z</time>
      </trkpt>
      <trkpt lat="47.51959" lon="6.75024">
        <ele>333.8</ele>
        <time>2014-06-08T09:55:06.000Z</time>
      </trkpt>
      <trkpt lat="47.51953" lon="6.75021">
        <ele>333.1</ele>
        <time>2014-06-08T09:55:07.000Z</time>
      </trkpt>
      <trkpt lat="47.51948" lon="6.75019">
        <ele>332.9</ele>
        <time>2014-06-08T09:55:08.001Z</time>
      </trkpt>
      <trkpt lat="47.51944" lon="6.75014">
        <ele>333.2</ele>
        <time>2014-06-08T09:55:09.000Z</time>
      </trkpt>
      <trkpt lat="47.5194" lon="6.7501">
        <ele>332</ele>
        <time>2014-06-08T09:55:10.000Z</time>
      </trkpt>
      <trkpt lat="47.51937" lon="6.75006">
        <ele>332.4</ele>
        <time>2014-06-08T09:55:11.000Z</time>
      </trkpt>
      <trkpt lat="47.51934" lon="6.75001">
        <ele>332.1</ele>
        <time>2014-06-08T09:55:12.000Z</time>
      </trkpt>
      <trkpt lat="47.51931" lon="6.74997">
        <ele>332.1</ele>
        <time>2014-06-08T09:55:13.000Z</time>
      </trkpt>
      <trkpt lat="47.51927" lon="6.74993">
        <ele>332.4</ele>
        <time>2014-06-08T09:55:14.000Z</time>
      </trkpt>
      <trkpt lat="47.51925" lon="6.74991">
        <ele>334.3</ele>
        <time>2014-06-08T09:55:15.000Z</time>
      </trkpt>
      <trkpt lat="47.51922" lon="6.74987">
        <ele>334.4</ele>
        <time>2014-06-08T09:55:16.000Z</time>
      </trkpt>
      <trkpt lat="47.5192" lon="6.74985">
        <ele>333.9</ele>
        <time>2014-06-08T09:55:17.000Z</time>
      </trkpt>
      <trkpt lat="47.51917" lon="6.74981">
        <ele>334.6</ele>
        <time>2014-06-08T09:55:20.000Z</time>
      </trkpt>
      <trkpt lat="47.51916" lon="6.7498">
        <ele>334.5</ele>
        <time>2014-06-08T09:55:21.000Z</time>
      </trkpt>
      <trkpt lat="47.51915" lon="6.74975">
        <ele>332.5</ele>
        <time>2014-06-08T09:58:00.000Z</time>
      </trkpt>
      <trkpt lat="47.51916" lon="6.74972">
        <ele>333.2</ele>
        <time>2014-06-08T09:58:01.000Z</time>
      </trkpt>
      <trkpt lat="47.51917" lon="6.74967">
        <ele>333.3</ele>
        <time>2014-06-08T09:58:02.000Z</time>
      </trkpt>
      <trkpt lat="47.51918" lon="6.74962">
        <ele>333.8</ele>
        <time>2014-06-08T09:58:03.000Z</time>
      </trkpt>
      <trkpt lat="47.51919" lon="6.74958">
        <ele>331.7</ele>
        <time>2014-06-08T09:58:04.000Z</time>
      </trkpt>
      <trkpt lat="47.51919" lon="6.74953">
        <ele>330.7</ele>
        <time>2014-06-08T09:58:05.000Z</time>
      </trkpt>
      <trkpt lat="47.51918" lon="6.74949">
        <ele>330.2</ele>
        <time>2014-06-08T09:58:06.000Z</time>
      </trkpt>
      <trkpt lat="47.51918" lon="6.74945">
        <ele>329.4</ele>
        <time>2014-06-08T09:58:07.000Z</time>
      </trkpt>
      <trkpt lat="47.51917" lon="6.7494">
        <ele>329.9</ele>
        <time>2014-06-08T09:58:09.000Z</time>
      </trkpt>
      <trkpt lat="47.51916" lon="6.74937">
        <ele>330.1</ele>
        <time>2014-06-08T09:58:10.000Z</time>
      </trkpt>
      <trkpt lat="47.51914" lon="6.74935">
        <ele>330.1</ele>
        <time>2014-06-08T09:58:11.000Z</time>
      </trkpt>
      <trkpt lat="47.51911" lon="6.74932">
        <ele>330.2</ele>
        <time>2014-06-08T09:58:12.000Z</time>
      </trkpt>
      <trkpt lat="47.51907" lon="6.74929">
        <ele>330.1</ele>
        <time>2014-06-08T09:58:13.000Z</time>
      </trkpt>
      <trkpt lat="47.51899" lon="6.74924">
        <ele>330.8</ele>
        <time>2014-06-08T09:58:14.000Z</time>
      </trkpt>
      <trkpt lat="47.51896" lon="6.74921">
        <ele>330.8</ele>
        <time>2014-06-08T09:58:15.000Z</time>
      </trkpt>
      <trkpt lat="47.51892" lon="6.74917">
        <ele>330.9</ele>
        <time>2014-06-08T09:58:16.000Z</time>
      </trkpt>
      <trkpt lat="47.51888" lon="6.74914">
        <ele>331.6</ele>
        <time>2014-06-08T09:58:17.000Z</time>
      </trkpt>
      <trkpt lat="47.51884" lon="6.7491">
        <ele>329.6</ele>
        <time>2014-06-08T09:58:18.000Z</time>
      </trkpt>
      <trkpt lat="47.5188" lon="6.74906">
        <ele>329.5</ele>
        <time>2014-06-08T09:58:19.000Z</time>
      </trkpt>
      <trkpt lat="47.51876" lon="6.74904">
        <ele>329.3</ele>
        <time>2014-06-08T09:58:20.000Z</time>
      </trkpt>
      <trkpt lat="47.51872" lon="6.74902">
        <ele>329.5</ele>
        <time>2014-06-08T09:58:21.000Z</time>
      </trkpt>
      <trkpt lat="47.51868" lon="6.74899">
        <ele>329.4</ele>
        <time>2014-06-08T09:58:22.000Z</time>
      </trkpt>
      <trkpt lat="47.51864" lon="6.74897">
        <ele>330.6</ele>
        <time>2014-06-08T09:58:23.000Z</time>
      </trkpt>
      <trkpt lat="47.51859" lon="6.74895">
        <ele>330.9</ele>
        <time>2014-06-08T09:58:24.000Z</time>
      </trkpt>
      <trkpt lat="47.51856" lon="6.74892">
        <ele>331</ele>
        <time>2014-06-08T09:58:25.000Z</time>
      </trkpt>
      <trkpt lat="47.51852" lon="6.74889">
        <ele>331.3</ele>
        <time>2014-06-08T09:58:26.000Z</time>
      </trkpt>
      <trkpt lat="47.51848" lon="6.74887">
        <ele>330.9</ele>
        <time>2014-06-08T09:58:27.000Z</time>
      </trkpt>
      <trkpt lat="47.51845" lon="6.74886">
        <ele>330.6</ele>
        <time>2014-06-08T09:58:28.000Z</time>
      </trkpt>
      <trkpt lat="47.51841" lon="6.74883">
        <ele>330.5</ele>
        <time>2014-06-08T09:58:29.000Z</time>
      </trkpt>
      <trkpt lat="47.51837" lon="6.7488">
        <ele>330.6</ele>
        <time>2014-06-08T09:58:30.000Z</time>
      </trkpt>
      <trkpt lat="47.51834" lon="6.74877">
        <ele>330.5</ele>
        <time>2014-06-08T09:58:31.000Z</time>
      </trkpt>
      <trkpt lat="47.51831" lon="6.74873">
        <ele>332.3</ele>
        <time>2014-06-08T09:58:32.000Z</time>
      </trkpt>
      <trkpt lat="47.51828" lon="6.7487">
        <ele>332.4</ele>
        <time>2014-06-08T09:58:33.000Z</time>
      </trkpt>
      <trkpt lat="47.51825" lon="6.74866">
        <ele>333.1</ele>
        <time>2014-06-08T09:58:34.000Z</time>
      </trkpt>
      <trkpt lat="47.51821" lon="6.74863">
        <ele>333.8</ele>
        <time>2014-06-08T09:58:35.000Z</time>
      </trkpt>
      <trkpt lat="47.51818" lon="6.74861">
        <ele>336.2</ele>
        <time>2014-06-08T09:58:36.000Z</time>
      </trkpt>
      <trkpt lat="47.51815" lon="6.7486">
        <ele>336.9</ele>
        <time>2014-06-08T09:58:37.000Z</time>
      </trkpt>
      <trkpt lat="47.51813" lon="6.74858">
        <ele>336</ele>
        <time>2014-06-08T09:58:38.000Z</time>
      </trkpt>
      <trkpt lat="47.51809" lon="6.74855">
        <ele>338.7</ele>
        <time>2014-06-08T09:58:40.000Z</time>
      </trkpt>
      <trkpt lat="47.51804" lon="6.74849">
        <ele>340.6</ele>
        <time>2014-06-08T09:58:44.000Z</time>
      </trkpt>
      <trkpt lat="47.51802" lon="6.74846">
        <ele>341.7</ele>
        <time>2014-06-08T09:58:46.000Z</time>
      </trkpt>
      <trkpt lat="47.518" lon="6.74845">
        <ele>341.8</ele>
        <time>2014-06-08T09:58:47.000Z</time>
      </trkpt>
      <trkpt lat="47.51797" lon="6.74842">
        <ele>341.1</ele>
        <time>2014-06-08T09:58:49.000Z</time>
      </trkpt>
      <trkpt lat="47.51796" lon="6.7484">
        <ele>341.6</ele>
        <time>2014-06-08T09:58:50.000Z</time>
      </trkpt>
      <trkpt lat="47.51794" lon="6.74837">
        <ele>342.2</ele>
        <time>2014-06-08T09:58:52.000Z</time>
      </trkpt>
      <trkpt lat="47.51793" lon="6.74835">
        <ele>341.6</ele>
        <time>2014-06-08T09:58:53.000Z</time>
      </trkpt>
      <trkpt lat="47.51791" lon="6.74829">
        <ele>343.4</ele>
        <time>2014-06-08T09:58:56.000Z</time>
      </trkpt>
      <trkpt lat="47.5179" lon="6.74827">
        <ele>342.9</ele>
        <time>2014-06-08T09:58:57.000Z</time>
      </trkpt>
      <trkpt lat="47.5179" lon="6.74822">
        <ele>343.9</ele>
        <time>2014-06-08T09:58:59.000Z</time>
      </trkpt>
      <trkpt lat="47.5179" lon="6.7482">
        <ele>343.7</ele>
        <time>2014-06-08T09:59:00.000Z</time>
      </trkpt>
      <trkpt lat="47.51791" lon="6.74815">
        <ele>345.7</ele>
        <time>2014-06-08T09:59:02.000Z</time>
      </trkpt>
      <trkpt lat="47.51791" lon="6.74812">
        <ele>346.6</ele>
        <time>2014-06-08T09:59:03.000Z</time>
      </trkpt>
      <trkpt lat="47.51793" lon="6.74808">
        <ele>346.5</ele>
        <time>2014-06-08T09:59:05.000Z</time>
      </trkpt>
      <trkpt lat="47.51794" lon="6.74806">
        <ele>346.9</ele>
        <time>2014-06-08T09:59:06.000Z</time>
      </trkpt>
      <trkpt lat="47.51796" lon="6.74803">
        <ele>348.2</ele>
        <time>2014-06-08T09:59:08.000Z</time>
      </trkpt>
      <trkpt lat="47.51797" lon="6.74801">
        <ele>348.6</ele>
        <time>2014-06-08T09:59:09.000Z</time>
      </trkpt>
      <trkpt lat="47.51799" lon="6.74797">
        <ele>348.6</ele>
        <time>2014-06-08T09:59:11.000Z</time>
      </trkpt>
      <trkpt lat="47.518" lon="6.74795">
        <ele>348.7</ele>
        <time>2014-06-08T09:59:12.000Z</time>
      </trkpt>
      <trkpt lat="47.51802" lon="6.74791">
        <ele>347.9</ele>
        <time>2014-06-08T09:59:14.000Z</time>
      </trkpt>
      <trkpt lat="47.51802" lon="6.74788">
        <ele>348.1</ele>
        <time>2014-06-08T09:59:15.000Z</time>
      </trkpt>
      <trkpt lat="47.51803" lon="6.74784">
        <ele>349.1</ele>
        <time>2014-06-08T09:59:17.000Z</time>
      </trkpt>
      <trkpt lat="47.51804" lon="6.74782">
        <ele>349.1</ele>
        <time>2014-06-08T09:59:18.000Z</time>
      </trkpt>
      <trkpt lat="47.51806" lon="6.74776">
        <ele>349.9</ele>
        <time>2014-06-08T09:59:21.000Z</time>
      </trkpt>
      <trkpt lat="47.51807" lon="6.74774">
        <ele>349</ele>
        <time>2014-06-08T09:59:22.000Z</time>
      </trkpt>
      <trkpt lat="47.51807" lon="6.74769">
        <ele>349</ele>
        <time>2014-06-08T09:59:24.000Z</time>
      </trkpt>
      <trkpt lat="47.51807" lon="6.74767">
        <ele>349.3</ele>
        <time>2014-06-08T09:59:25.000Z</time>
      </trkpt>
      <trkpt lat="47.51808" lon="6.74762">
        <ele>350.5</ele>
        <time>2014-06-08T09:59:27.000Z</time>
      </trkpt>
      <trkpt lat="47.51809" lon="6.74759">
        <ele>350.4</ele>
        <time>2014-06-08T09:59:28.000Z</time>
      </trkpt>
      <trkpt lat="47.51809" lon="6.74754">
        <ele>350.8</ele>
        <time>2014-06-08T09:59:30.000Z</time>
      </trkpt>
      <trkpt lat="47.5181" lon="6.74752">
        <ele>350.5</ele>
        <time>2014-06-08T09:59:31.000Z</time>
      </trkpt>
      <trkpt lat="47.5181" lon="6.74746">
        <ele>350.8</ele>
        <time>2014-06-08T09:59:33.000Z</time>
      </trkpt>
      <trkpt lat="47.5181" lon="6.74744">
        <ele>351.2</ele>
        <time>2014-06-08T09:59:34.000Z</time>
      </trkpt>
      <trkpt lat="47.5181" lon="6.74738">
        <ele>351.8</ele>
        <time>2014-06-08T09:59:36.000Z</time>
      </trkpt>
      <trkpt lat="47.51811" lon="6.74735">
        <ele>352.1</ele>
        <time>2014-06-08T09:59:37.000Z</time>
      </trkpt>
      <trkpt lat="47.51811" lon="6.74729">
        <ele>352.6</ele>
        <time>2014-06-08T09:59:39.000Z</time>
      </trkpt>
      <trkpt lat="47.51811" lon="6.74717">
        <ele>353.9</ele>
        <time>2014-06-08T09:59:43.000Z</time>
      </trkpt>
      <trkpt lat="47.51811" lon="6.7471">
        <ele>354.6</ele>
        <time>2014-06-08T09:59:45.000Z</time>
      </trkpt>
      <trkpt lat="47.51811" lon="6.74707">
        <ele>353.7</ele>
        <time>2014-06-08T09:59:46.001Z</time>
      </trkpt>
      <trkpt lat="47.51811" lon="6.74703">
        <ele>353.3</ele>
        <time>2014-06-08T09:59:47.000Z</time>
      </trkpt>
      <trkpt lat="47.5181" lon="6.74699">
        <ele>352.5</ele>
        <time>2014-06-08T09:59:48.000Z</time>
      </trkpt>
      <trkpt lat="47.5181" lon="6.74695">
        <ele>353.3</ele>
        <time>2014-06-08T09:59:49.000Z</time>
      </trkpt>
      <trkpt lat="47.51809" lon="6.74692">
        <ele>354</ele>
        <time>2014-06-08T09:59:50.000Z</time>
      </trkpt>
      <trkpt lat="47.51809" lon="6.74688">
        <ele>354.6</ele>
        <time>2014-06-08T09:59:50.999Z</time>
      </trkpt>
      <trkpt lat="47.51806" lon="6.74687">
        <ele>353.2</ele>
        <time>2014-06-08T09:59:52.000Z</time>
      </trkpt>
      <trkpt lat="47.51804" lon="6.74686">
        <ele>352.9</ele>
        <time>2014-06-08T09:59:53.000Z</time>
      </trkpt>
      <trkpt lat="47.51801" lon="6.74686">
        <ele>352.8</ele>
        <time>2014-06-08T09:59:54.000Z</time>
      </trkpt>
      <trkpt lat="47.51798" lon="6.74686">
        <ele>352.7</ele>
        <time>2014-06-08T09:59:55.000Z</time>
      </trkpt>
      <trkpt lat="47.51795" lon="6.74686">
        <ele>352.3</ele>
        <time>2014-06-08T09:59:56.000Z</time>
      </trkpt>
      <trkpt lat="47.51792" lon="6.74687">
        <ele>352.9</ele>
        <time>2014-06-08T09:59:57.000Z</time>
      </trkpt>
      <trkpt lat="47.5179" lon="6.74687">
        <ele>351.9</ele>
        <time>2014-06-08T09:59:58.000Z</time>
      </trkpt>
      <trkpt lat="47.51788" lon="6.74687">
        <ele>351.8</ele>
        <time>2014-06-08T09:59:59.000Z</time>
      </trkpt>
      <trkpt lat="47.51785" lon="6.74686">
        <ele>351.8</ele>
        <time>2014-06-08T10:00:00.000Z</time>
      </trkpt>
      <trkpt lat="47.51782" lon="6.74686">
        <ele>351.8</ele>
        <time>2014-06-08T10:00:01.000Z</time>
      </trkpt>
      <trkpt lat="47.51779" lon="6.74686">
        <ele>351.8</ele>
        <time>2014-06-08T10:00:02.000Z</time>
      </trkpt>
      <trkpt lat="47.51776" lon="6.74686">
        <ele>351.3</ele>
        <time>2014-06-08T10:00:03.000Z</time>
      </trkpt>
      <trkpt lat="47.51772" lon="6.74686">
        <ele>351.3</ele>
        <time>2014-06-08T10:00:04.000Z</time>
      </trkpt>
      <trkpt lat="47.51769" lon="6.74686">
        <ele>351.5</ele>
        <time>2014-06-08T10:00:05.000Z</time>
      </trkpt>
      <trkpt lat="47.51767" lon="6.74685">
        <ele>351.4</ele>
        <time>2014-06-08T10:00:06.000Z</time>
      </trkpt>
      <trkpt lat="47.51764" lon="6.74685">
        <ele>351</ele>
        <time>2014-06-08T10:00:07.000Z</time>
      </trkpt>
      <trkpt lat="47.51761" lon="6.74684">
        <ele>351.4</ele>
        <time>2014-06-08T10:00:08.000Z</time>
      </trkpt>
      <trkpt lat="47.51757" lon="6.74683">
        <ele>351.5</ele>
        <time>2014-06-08T10:00:09.000Z</time>
      </trkpt>
      <trkpt lat="47.51754" lon="6.74683">
        <ele>351.9</ele>
        <time>2014-06-08T10:00:09.999Z</time>
      </trkpt>
      <trkpt lat="47.51752" lon="6.74682">
        <ele>351.5</ele>
        <time>2014-06-08T10:00:11.000Z</time>
      </trkpt>
      <trkpt lat="47.5175" lon="6.74681">
        <ele>351.4</ele>
        <time>2014-06-08T10:00:12.000Z</time>
      </trkpt>
      <trkpt lat="47.51747" lon="6.74681">
        <ele>351.3</ele>
        <time>2014-06-08T10:00:14.000Z</time>
      </trkpt>
      <trkpt lat="47.51745" lon="6.74681">
        <ele>350.6</ele>
        <time>2014-06-08T10:00:15.000Z</time>
      </trkpt>
      <trkpt lat="47.51742" lon="6.74682">
        <ele>350.9</ele>
        <time>2014-06-08T10:00:16.000Z</time>
      </trkpt>
      <trkpt lat="47.51739" lon="6.74682">
        <ele>349.8</ele>
        <time>2014-06-08T10:00:17.000Z</time>
      </trkpt>
      <trkpt lat="47.51736" lon="6.74682">
        <ele>349.5</ele>
        <time>2014-06-08T10:00:18.000Z</time>
      </trkpt>
      <trkpt lat="47.51732" lon="6.74682">
        <ele>349.4</ele>
        <time>2014-06-08T10:00:19.000Z</time>
      </trkpt>
      <trkpt lat="47.51728" lon="6.74681">
        <ele>349</ele>
        <time>2014-06-08T10:00:20.000Z</time>
      </trkpt>
      <trkpt lat="47.51723" lon="6.7468">
        <ele>348.8</ele>
        <time>2014-06-08T10:00:21.000Z</time>
      </trkpt>
      <trkpt lat="47.51719" lon="6.7468">
        <ele>348.5</ele>
        <time>2014-06-08T10:00:22.000Z</time>
      </trkpt>
      <trkpt lat="47.51715" lon="6.7468">
        <ele>348.3</ele>
        <time>2014-06-08T10:00:22.999Z</time>
      </trkpt>
      <trkpt lat="47.5171" lon="6.74679">
        <ele>348.3</ele>
        <time>2014-06-08T10:00:24.000Z</time>
      </trkpt>
      <trkpt lat="47.51705" lon="6.74678">
        <ele>348.5</ele>
        <time>2014-06-08T10:00:25.000Z</time>
      </trkpt>
      <trkpt lat="47.51701" lon="6.74678">
        <ele>348.2</ele>
        <time>2014-06-08T10:00:25.999Z</time>
      </trkpt>
      <trkpt lat="47.51695" lon="6.74677">
        <ele>348.3</ele>
        <time>2014-06-08T10:00:27.000Z</time>
      </trkpt>
      <trkpt lat="47.5169" lon="6.74676">
        <ele>348</ele>
        <time>2014-06-08T10:00:28.000Z</time>
      </trkpt>
      <trkpt lat="47.51686" lon="6.74675">
        <ele>347.9</ele>
        <time>2014-06-08T10:00:29.000Z</time>
      </trkpt>
      <trkpt lat="47.51681" lon="6.74676">
        <ele>347.5</ele>
        <time>2014-06-08T10:00:30.000Z</time>
      </trkpt>
      <trkpt lat="47.51677" lon="6.74676">
        <ele>347.4</ele>
        <time>2014-06-08T10:00:30.999Z</time>
      </trkpt>
      <trkpt lat="47.51673" lon="6.74677">
        <ele>346.5</ele>
        <time>2014-06-08T10:00:32.000Z</time>
      </trkpt>
      <trkpt lat="47.51669" lon="6.74678">
        <ele>346.7</ele>
        <time>2014-06-08T10:00:33.000Z</time>
      </trkpt>
      <trkpt lat="47.51665" lon="6.74679">
        <ele>346.9</ele>
        <time>2014-06-08T10:00:34.001Z</time>
      </trkpt>
      <trkpt lat="47.51663" lon="6.74678">
        <ele>345.8</ele>
        <time>2014-06-08T10:00:35.000Z</time>
      </trkpt>
      <trkpt lat="47.5166" lon="6.74677">
        <ele>345.6</ele>
        <time>2014-06-08T10:00:36.000Z</time>
      </trkpt>
      <trkpt lat="47.51657" lon="6.74676">
        <ele>350.2</ele>
        <time>2014-06-08T10:00:39.000Z</time>
      </trkpt>
      <trkpt lat="47.51652" lon="6.7467">
        <ele>352</ele>
        <time>2014-06-08T10:00:43.000Z</time>
      </trkpt>
      <trkpt lat="47.51651" lon="6.74663">
        <ele>360</ele>
        <time>2014-06-08T10:00:50.000Z</time>
      </trkpt>
      <trkpt lat="47.51651" lon="6.74662">
        <ele>361.9</ele>
        <time>2014-06-08T10:00:51.000Z</time>
      </trkpt>
      <trkpt lat="47.51648" lon="6.74659">
        <ele>364.4</ele>
        <time>2014-06-08T10:00:54.000Z</time>
      </trkpt>
      <trkpt lat="47.51647" lon="6.74658">
        <ele>365.4</ele>
        <time>2014-06-08T10:00:55.000Z</time>
      </trkpt>
      <trkpt lat="47.51644" lon="6.74654">
        <ele>368.1</ele>
        <time>2014-06-08T10:00:58.000Z</time>
      </trkpt>
      <trkpt lat="47.51642" lon="6.74653">
        <ele>369.1</ele>
        <time>2014-06-08T10:00:59.000Z</time>
      </trkpt>
      <trkpt lat="47.5164" lon="6.74648">
        <ele>370.2</ele>
        <time>2014-06-08T10:01:02.000Z</time>
      </trkpt>
      <trkpt lat="47.51639" lon="6.74645">
        <ele>370.9</ele>
        <time>2014-06-08T10:01:03.000Z</time>
      </trkpt>
      <trkpt lat="47.51637" lon="6.74641">
        <ele>372.9</ele>
        <time>2014-06-08T10:01:05.000Z</time>
      </trkpt>
      <trkpt lat="47.51637" lon="6.74638">
        <ele>373.6</ele>
        <time>2014-06-08T10:01:06.000Z</time>
      </trkpt>
      <trkpt lat="47.51635" lon="6.74633">
        <ele>373</ele>
        <time>2014-06-08T10:01:08.000Z</time>
      </trkpt>
      <trkpt lat="47.51635" lon="6.74631">
        <ele>372.6</ele>
        <time>2014-06-08T10:01:09.000Z</time>
      </trkpt>
      <trkpt lat="47.51634" lon="6.74626">
        <ele>373.5</ele>
        <time>2014-06-08T10:01:11.000Z</time>
      </trkpt>
      <trkpt lat="47.51633" lon="6.74624">
        <ele>374.5</ele>
        <time>2014-06-08T10:01:12.000Z</time>
      </trkpt>
      <trkpt lat="47.51631" lon="6.74619">
        <ele>377.7</ele>
        <time>2014-06-08T10:01:15.000Z</time>
      </trkpt>
      <trkpt lat="47.51631" lon="6.74617">
        <ele>378.4</ele>
        <time>2014-06-08T10:01:16.000Z</time>
      </trkpt>
      <trkpt lat="47.51633" lon="6.74613">
        <ele>385.3</ele>
        <time>2014-06-08T10:01:20.000Z</time>
      </trkpt>
      <trkpt lat="47.51633" lon="6.74611">
        <ele>385.4</ele>
        <time>2014-06-08T10:01:21.000Z</time>
      </trkpt>
      <trkpt lat="47.51631" lon="6.74607">
        <ele>386.8</ele>
        <time>2014-06-08T10:01:23.000Z</time>
      </trkpt>
      <trkpt lat="47.51631" lon="6.74604">
        <ele>386.8</ele>
        <time>2014-06-08T10:01:24.000Z</time>
      </trkpt>
      <trkpt lat="47.5163" lon="6.74599">
        <ele>388.1</ele>
        <time>2014-06-08T10:01:26.000Z</time>
      </trkpt>
      <trkpt lat="47.51629" lon="6.74596">
        <ele>389.2</ele>
        <time>2014-06-08T10:01:27.000Z</time>
      </trkpt>
      <trkpt lat="47.51627" lon="6.74591">
        <ele>388.5</ele>
        <time>2014-06-08T10:01:29.000Z</time>
      </trkpt>
      <trkpt lat="47.51625" lon="6.74588">
        <ele>389</ele>
        <time>2014-06-08T10:01:30.000Z</time>
      </trkpt>
      <trkpt lat="47.51624" lon="6.74584">
        <ele>390</ele>
        <time>2014-06-08T10:01:32.000Z</time>
      </trkpt>
      <trkpt lat="47.51623" lon="6.74582">
        <ele>389.4</ele>
        <time>2014-06-08T10:01:33.000Z</time>
      </trkpt>
      <trkpt lat="47.51623" lon="6.74577">
        <ele>389.8</ele>
        <time>2014-06-08T10:01:35.000Z</time>
      </trkpt>
      <trkpt lat="47.51622" lon="6.74575">
        <ele>389.3</ele>
        <time>2014-06-08T10:01:36.000Z</time>
      </trkpt>
      <trkpt lat="47.5162" lon="6.7457">
        <ele>391.2</ele>
        <time>2014-06-08T10:01:38.000Z</time>
      </trkpt>
      <trkpt lat="47.5162" lon="6.74568">
        <ele>393.4</ele>
        <time>2014-06-08T10:01:39.000Z</time>
      </trkpt>
      <trkpt lat="47.51621" lon="6.74562">
        <ele>396.9</ele>
        <time>2014-06-08T10:01:42.000Z</time>
      </trkpt>
      <trkpt lat="47.51621" lon="6.7456">
        <ele>398.1</ele>
        <time>2014-06-08T10:01:43.000Z</time>
      </trkpt>
      <trkpt lat="47.51621" lon="6.74554">
        <ele>401.1</ele>
        <time>2014-06-08T10:01:45.000Z</time>
      </trkpt>
      <trkpt lat="47.51621" lon="6.74551">
        <ele>401.8</ele>
        <time>2014-06-08T10:01:46.000Z</time>
      </trkpt>
      <trkpt lat="47.5162" lon="6.74547">
        <ele>402.5</ele>
        <time>2014-06-08T10:01:48.000Z</time>
      </trkpt>
      <trkpt lat="47.51619" lon="6.74544">
        <ele>403</ele>
        <time>2014-06-08T10:01:49.000Z</time>
      </trkpt>
      <trkpt lat="47.51618" lon="6.74539">
        <ele>401.7</ele>
        <time>2014-06-08T10:01:51.000Z</time>
      </trkpt>
      <trkpt lat="47.51618" lon="6.74536">
        <ele>401.6</ele>
        <time>2014-06-08T10:01:52.000Z</time>
      </trkpt>
      <trkpt lat="47.51617" lon="6.74531">
        <ele>401.4</ele>
        <time>2014-06-08T10:01:54.000Z</time>
      </trkpt>
      <trkpt lat="47.51618" lon="6.74528">
        <ele>403.3</ele>
        <time>2014-06-08T10:01:55.000Z</time>
      </trkpt>
      <trkpt lat="47.51617" lon="6.74522">
        <ele>403.4</ele>
        <time>2014-06-08T10:01:57.000Z</time>
      </trkpt>
      <trkpt lat="47.51618" lon="6.74519">
        <ele>404.8</ele>
        <time>2014-06-08T10:01:58.000Z</time>
      </trkpt>
      <trkpt lat="47.51618" lon="6.74513">
        <ele>405.2</ele>
        <time>2014-06-08T10:02:00.000Z</time>
      </trkpt>
      <trkpt lat="47.51619" lon="6.7451">
        <ele>406.4</ele>
        <time>2014-06-08T10:02:01.000Z</time>
      </trkpt>
      <trkpt lat="47.5162" lon="6.74503">
        <ele>408.2</ele>
        <time>2014-06-08T10:02:03.000Z</time>
      </trkpt>
      <trkpt lat="47.5162" lon="6.745">
        <ele>407.3</ele>
        <time>2014-06-08T10:02:04.000Z</time>
      </trkpt>
      <trkpt lat="47.51621" lon="6.74494">
        <ele>405.3</ele>
        <time>2014-06-08T10:02:06.000Z</time>
      </trkpt>
      <trkpt lat="47.51622" lon="6.7449">
        <ele>406</ele>
        <time>2014-06-08T10:02:07.000Z</time>
      </trkpt>
      <trkpt lat="47.51622" lon="6.74484">
        <ele>405.6</ele>
        <time>2014-06-08T10:02:09.000Z</time>
      </trkpt>
      <trkpt lat="47.51622" lon="6.74481">
        <ele>406.2</ele>
        <time>2014-06-08T10:02:10.000Z</time>
      </trkpt>
      <trkpt lat="47.51622" lon="6.74476">
        <ele>410.2</ele>
        <time>2014-06-08T10:02:12.000Z</time>
      </trkpt>
      <trkpt lat="47.51623" lon="6.74473">
        <ele>409.5</ele>
        <time>2014-06-08T10:02:13.000Z</time>
      </trkpt>
      <trkpt lat="47.51625" lon="6.74468">
        <ele>406.9</ele>
        <time>2014-06-08T10:02:15.000Z</time>
      </trkpt>
      <trkpt lat="47.51626" lon="6.74465">
        <ele>405.2</ele>
        <time>2014-06-08T10:02:16.000Z</time>
      </trkpt>
      <trkpt lat="47.51626" lon="6.74461">
        <ele>405.2</ele>
        <time>2014-06-08T10:02:17.000Z</time>
      </trkpt>
      <trkpt lat="47.51626" lon="6.74458">
        <ele>405</ele>
        <time>2014-06-08T10:02:18.000Z</time>
      </trkpt>
      <trkpt lat="47.51625" lon="6.74454">
        <ele>406.3</ele>
        <time>2014-06-08T10:02:19.000Z</time>
      </trkpt>
      <trkpt lat="47.51624" lon="6.74451">
        <ele>406.6</ele>
        <time>2014-06-08T10:02:20.000Z</time>
      </trkpt>
      <trkpt lat="47.51624" lon="6.74447">
        <ele>407.2</ele>
        <time>2014-06-08T10:02:21.000Z</time>
      </trkpt>
      <trkpt lat="47.51624" lon="6.74443">
        <ele>407.3</ele>
        <time>2014-06-08T10:02:22.000Z</time>
      </trkpt>
      <trkpt lat="47.51624" lon="6.74439">
        <ele>405.6</ele>
        <time>2014-06-08T10:02:23.000Z</time>
      </trkpt>
      <trkpt lat="47.51624" lon="6.74434">
        <ele>404.3</ele>
        <time>2014-06-08T10:02:24.000Z</time>
      </trkpt>
      <trkpt lat="47.51623" lon="6.74429">
        <ele>403.3</ele>
        <time>2014-06-08T10:02:25.000Z</time>
      </trkpt>
      <trkpt lat="47.51623" lon="6.74425">
        <ele>402</ele>
        <time>2014-06-08T10:02:26.000Z</time>
      </trkpt>
      <trkpt lat="47.51622" lon="6.7442">
        <ele>402.6</ele>
        <time>2014-06-08T10:02:27.000Z</time>
      </trkpt>
      <trkpt lat="47.51621" lon="6.74417">
        <ele>402.5</ele>
        <time>2014-06-08T10:02:28.000Z</time>
      </trkpt>
      <trkpt lat="47.5162" lon="6.74412">
        <ele>398.5</ele>
        <time>2014-06-08T10:02:29.000Z</time>
      </trkpt>
      <trkpt lat="47.51619" lon="6.74408">
        <ele>397.6</ele>
        <time>2014-06-08T10:02:30.000Z</time>
      </trkpt>
      <trkpt lat="47.51618" lon="6.74404">
        <ele>395.3</ele>
        <time>2014-06-08T10:02:31.000Z</time>
      </trkpt>
      <trkpt lat="47.51617" lon="6.74399">
        <ele>393.3</ele>
        <time>2014-06-08T10:02:32.000Z</time>
      </trkpt>
      <trkpt lat="47.51616" lon="6.74395">
        <ele>396.1</ele>
        <time>2014-06-08T10:02:33.000Z</time>
      </trkpt>
      <trkpt lat="47.51617" lon="6.7439">
        <ele>396.8</ele>
        <time>2014-06-08T10:02:34.000Z</time>
      </trkpt>
      <trkpt lat="47.51618" lon="6.74385">
        <ele>396</ele>
        <time>2014-06-08T10:02:35.000Z</time>
      </trkpt>
      <trkpt lat="47.51619" lon="6.7438">
        <ele>395.1</ele>
        <time>2014-06-08T10:02:36.000Z</time>
      </trkpt>
      <trkpt lat="47.5162" lon="6.74374">
        <ele>391.4</ele>
        <time>2014-06-08T10:02:37.000Z</time>
      </trkpt>
      <trkpt lat="47.51621" lon="6.74369">
        <ele>391.4</ele>
        <time>2014-06-08T10:02:38.000Z</time>
      </trkpt>
      <trkpt lat="47.51622" lon="6.74364">
        <ele>392.5</ele>
        <time>2014-06-08T10:02:39.000Z</time>
      </trkpt>
      <trkpt lat="47.51624" lon="6.74359">
        <ele>391.5</ele>
        <time>2014-06-08T10:02:40.000Z</time>
      </trkpt>
      <trkpt lat="47.51632" lon="6.74325">
        <ele>394</ele>
        <time>2014-06-08T10:02:48.000Z</time>
      </trkpt>
      <trkpt lat="47.51632" lon="6.7432">
        <ele>393.2</ele>
        <time>2014-06-08T10:02:49.000Z</time>
      </trkpt>
      <trkpt lat="47.51633" lon="6.74316">
        <ele>393.9</ele>
        <time>2014-06-08T10:02:50.000Z</time>
      </trkpt>
      <trkpt lat="47.51633" lon="6.74311">
        <ele>393.8</ele>
        <time>2014-06-08T10:02:51.000Z</time>
      </trkpt>
      <trkpt lat="47.51634" lon="6.74305">
        <ele>390.2</ele>
        <time>2014-06-08T10:02:52.000Z</time>
      </trkpt>
      <trkpt lat="47.51634" lon="6.74301">
        <ele>390.4</ele>
        <time>2014-06-08T10:02:53.000Z</time>
      </trkpt>
      <trkpt lat="47.51635" lon="6.74297">
        <ele>390.9</ele>
        <time>2014-06-08T10:02:54.000Z</time>
      </trkpt>
      <trkpt lat="47.51635" lon="6.74292">
        <ele>391.1</ele>
        <time>2014-06-08T10:02:55.000Z</time>
      </trkpt>
      <trkpt lat="47.51635" lon="6.74288">
        <ele>390</ele>
        <time>2014-06-08T10:02:56.000Z</time>
      </trkpt>
      <trkpt lat="47.51635" lon="6.74284">
        <ele>388.7</ele>
        <time>2014-06-08T10:02:57.000Z</time>
      </trkpt>
      <trkpt lat="47.51634" lon="6.74279">
        <ele>391.3</ele>
        <time>2014-06-08T10:02:58.000Z</time>
      </trkpt>
      <trkpt lat="47.51633" lon="6.74275">
        <ele>392</ele>
        <time>2014-06-08T10:02:59.000Z</time>
      </trkpt>
      <trkpt lat="47.51633" lon="6.74272">
        <ele>393.1</ele>
        <time>2014-06-08T10:03:00.000Z</time>
      </trkpt>
      <trkpt lat="47.51633" lon="6.74268">
        <ele>393.6</ele>
        <time>2014-06-08T10:03:01.000Z</time>
      </trkpt>
      <trkpt lat="47.51632" lon="6.74263">
        <ele>390.4</ele>
        <time>2014-06-08T10:03:02.000Z</time>
      </trkpt>
      <trkpt lat="47.51632" lon="6.74258">
        <ele>388.3</ele>
        <time>2014-06-08T10:03:03.000Z</time>
      </trkpt>
      <trkpt lat="47.51632" lon="6.74254">
        <ele>388.8</ele>
        <time>2014-06-08T10:03:04.000Z</time>
      </trkpt>
      <trkpt lat="47.51632" lon="6.74249">
        <ele>388.9</ele>
        <time>2014-06-08T10:03:05.000Z</time>
      </trkpt>
      <trkpt lat="47.51631" lon="6.74244">
        <ele>390.9</ele>
        <time>2014-06-08T10:03:06.000Z</time>
      </trkpt>
      <trkpt lat="47.51629" lon="6.7424">
        <ele>391.6</ele>
        <time>2014-06-08T10:03:07.000Z</time>
      </trkpt>
      <trkpt lat="47.51627" lon="6.74235">
        <ele>392.1</ele>
        <time>2014-06-08T10:03:08.000Z</time>
      </trkpt>
      <trkpt lat="47.51626" lon="6.74231">
        <ele>389.7</ele>
        <time>2014-06-08T10:03:09.000Z</time>
      </trkpt>
      <trkpt lat="47.51627" lon="6.74226">
        <ele>386.8</ele>
        <time>2014-06-08T10:03:10.000Z</time>
      </trkpt>
      <trkpt lat="47.51629" lon="6.74221">
        <ele>385.5</ele>
        <time>2014-06-08T10:03:11.000Z</time>
      </trkpt>
      <trkpt lat="47.51631" lon="6.74217">
        <ele>384.8</ele>
        <time>2014-06-08T10:03:12.000Z</time>
      </trkpt>
      <trkpt lat="47.51633" lon="6.74214">
        <ele>386.5</ele>
        <time>2014-06-08T10:03:13.000Z</time>
      </trkpt>
      <trkpt lat="47.51634" lon="6.74211">
        <ele>384.3</ele>
        <time>2014-06-08T10:03:14.000Z</time>
      </trkpt>
      <trkpt lat="47.51636" lon="6.74206">
        <ele>383.5</ele>
        <time>2014-06-08T10:03:16.000Z</time>
      </trkpt>
      <trkpt lat="47.51636" lon="6.74203">
        <ele>384.2</ele>
        <time>2014-06-08T10:03:17.000Z</time>
      </trkpt>
      <trkpt lat="47.51635" lon="6.74198">
        <ele>384.5</ele>
        <time>2014-06-08T10:03:19.000Z</time>
      </trkpt>
      <trkpt lat="47.51634" lon="6.74194">
        <ele>384.7</ele>
        <time>2014-06-08T10:03:20.000Z</time>
      </trkpt>
      <trkpt lat="47.51633" lon="6.74188">
        <ele>385.4</ele>
        <time>2014-06-08T10:03:22.000Z</time>
      </trkpt>
      <trkpt lat="47.51633" lon="6.74184">
        <ele>385.5</ele>
        <time>2014-06-08T10:03:23.000Z</time>
      </trkpt>
      <trkpt lat="47.51632" lon="6.74181">
        <ele>386</ele>
        <time>2014-06-08T10:03:24.000Z</time>
      </trkpt>
      <trkpt lat="47.51631" lon="6.74177">
        <ele>387.5</ele>
        <time>2014-06-08T10:03:25.000Z</time>
      </trkpt>
      <trkpt lat="47.51631" lon="6.74173">
        <ele>387.6</ele>
        <time>2014-06-08T10:03:26.000Z</time>
      </trkpt>
      <trkpt lat="47.51631" lon="6.74169">
        <ele>389.4</ele>
        <time>2014-06-08T10:03:27.000Z</time>
      </trkpt>
      <trkpt lat="47.51631" lon="6.74166">
        <ele>390.3</ele>
        <time>2014-06-08T10:03:28.000Z</time>
      </trkpt>
      <trkpt lat="47.51632" lon="6.74163">
        <ele>390.8</ele>
        <time>2014-06-08T10:03:29.000Z</time>
      </trkpt>
      <trkpt lat="47.51633" lon="6.74156">
        <ele>390.2</ele>
        <time>2014-06-08T10:03:31.000Z</time>
      </trkpt>
      <trkpt lat="47.51634" lon="6.74154">
        <ele>390.2</ele>
        <time>2014-06-08T10:03:32.000Z</time>
      </trkpt>
      <trkpt lat="47.51634" lon="6.74149">
        <ele>393.9</ele>
        <time>2014-06-08T10:03:34.000Z</time>
      </trkpt>
      <trkpt lat="47.51634" lon="6.74147">
        <ele>397.1</ele>
        <time>2014-06-08T10:03:35.000Z</time>
      </trkpt>
      <trkpt lat="47.51636" lon="6.74142">
        <ele>399.6</ele>
        <time>2014-06-08T10:03:37.000Z</time>
      </trkpt>
      <trkpt lat="47.51637" lon="6.7414">
        <ele>399.4</ele>
        <time>2014-06-08T10:03:38.000Z</time>
      </trkpt>
      <trkpt lat="47.51639" lon="6.74135">
        <ele>401.5</ele>
        <time>2014-06-08T10:03:40.000Z</time>
      </trkpt>
      <trkpt lat="47.5164" lon="6.74128">
        <ele>403.6</ele>
        <time>2014-06-08T10:03:43.000Z</time>
      </trkpt>
      <trkpt lat="47.51642" lon="6.74123">
        <ele>404.4</ele>
        <time>2014-06-08T10:03:45.000Z</time>
      </trkpt>
      <trkpt lat="47.51643" lon="6.74121">
        <ele>406.1</ele>
        <time>2014-06-08T10:03:46.000Z</time>
      </trkpt>
      <trkpt lat="47.51647" lon="6.74118">
        <ele>408.3</ele>
        <time>2014-06-08T10:03:49.000Z</time>
      </trkpt>
      <trkpt lat="47.51647" lon="6.74116">
        <ele>408.8</ele>
        <time>2014-06-08T10:03:50.000Z</time>
      </trkpt>
      <trkpt lat="47.51644" lon="6.74112">
        <ele>414.6</ele>
        <time>2014-06-08T10:03:53.000Z</time>
      </trkpt>
      <trkpt lat="47.51644" lon="6.7411">
        <ele>413.7</ele>
        <time>2014-06-08T10:03:54.000Z</time>
      </trkpt>
      <trkpt lat="47.51647" lon="6.74106">
        <ele>413.9</ele>
        <time>2014-06-08T10:03:56.000Z</time>
      </trkpt>
      <trkpt lat="47.51648" lon="6.74104">
        <ele>413.5</ele>
        <time>2014-06-08T10:03:57.000Z</time>
      </trkpt>
      <trkpt lat="47.5165" lon="6.74099">
        <ele>412.8</ele>
        <time>2014-06-08T10:03:59.000Z</time>
      </trkpt>
      <trkpt lat="47.51651" lon="6.74096">
        <ele>411.5</ele>
        <time>2014-06-08T10:04:00.000Z</time>
      </trkpt>
      <trkpt lat="47.51653" lon="6.74092">
        <ele>409.9</ele>
        <time>2014-06-08T10:04:02.000Z</time>
      </trkpt>
      <trkpt lat="47.51654" lon="6.74089">
        <ele>409</ele>
        <time>2014-06-08T10:04:03.000Z</time>
      </trkpt>
      <trkpt lat="47.51656" lon="6.74085">
        <ele>410.6</ele>
        <time>2014-06-08T10:04:05.000Z</time>
      </trkpt>
      <trkpt lat="47.51657" lon="6.74083">
        <ele>410.2</ele>
        <time>2014-06-08T10:04:06.000Z</time>
      </trkpt>
      <trkpt lat="47.51658" lon="6.74077">
        <ele>409.9</ele>
        <time>2014-06-08T10:04:08.000Z</time>
      </trkpt>
      <trkpt lat="47.51659" lon="6.74075">
        <ele>408.8</ele>
        <time>2014-06-08T10:04:09.000Z</time>
      </trkpt>
      <trkpt lat="47.51661" lon="6.74069">
        <ele>408.5</ele>
        <time>2014-06-08T10:04:11.000Z</time>
      </trkpt>
      <trkpt lat="47.51662" lon="6.74067">
        <ele>409.6</ele>
        <time>2014-06-08T10:04:12.000Z</time>
      </trkpt>
      <trkpt lat="47.51665" lon="6.74064">
        <ele>411.3</ele>
        <time>2014-06-08T10:04:14.000Z</time>
      </trkpt>
      <trkpt lat="47.51666" lon="6.74062">
        <ele>412.5</ele>
        <time>2014-06-08T10:04:15.000Z</time>
      </trkpt>
      <trkpt lat="47.51667" lon="6.74058">
        <ele>412.9</ele>
        <time>2014-06-08T10:04:17.000Z</time>
      </trkpt>
      <trkpt lat="47.51668" lon="6.74056">
        <ele>412.4</ele>
        <time>2014-06-08T10:04:18.000Z</time>
      </trkpt>
      <trkpt lat="47.51669" lon="6.74051">
        <ele>413.5</ele>
        <time>2014-06-08T10:04:20.000Z</time>
      </trkpt>
      <trkpt lat="47.51669" lon="6.74048">
        <ele>415</ele>
        <time>2014-06-08T10:04:21.000Z</time>
      </trkpt>
      <trkpt lat="47.5167" lon="6.74042">
        <ele>415.3</ele>
        <time>2014-06-08T10:04:23.000Z</time>
      </trkpt>
      <trkpt lat="47.51671" lon="6.74039">
        <ele>414.6</ele>
        <time>2014-06-08T10:04:24.000Z</time>
      </trkpt>
      <trkpt lat="47.51672" lon="6.74034">
        <ele>417.5</ele>
        <time>2014-06-08T10:04:26.000Z</time>
      </trkpt>
      <trkpt lat="47.51672" lon="6.74031">
        <ele>418.1</ele>
        <time>2014-06-08T10:04:27.000Z</time>
      </trkpt>
      <trkpt lat="47.51674" lon="6.74027">
        <ele>419.8</ele>
        <time>2014-06-08T10:04:29.000Z</time>
      </trkpt>
      <trkpt lat="47.51674" lon="6.74025">
        <ele>419.8</ele>
        <time>2014-06-08T10:04:30.000Z</time>
      </trkpt>
      <trkpt lat="47.51675" lon="6.7402">
        <ele>415.5</ele>
        <time>2014-06-08T10:04:32.000Z</time>
      </trkpt>
      <trkpt lat="47.51676" lon="6.74018">
        <ele>414.9</ele>
        <time>2014-06-08T10:04:33.000Z</time>
      </trkpt>
      <trkpt lat="47.51678" lon="6.74014">
        <ele>419</ele>
        <time>2014-06-08T10:04:35.000Z</time>
      </trkpt>
      <trkpt lat="47.51679" lon="6.74012">
        <ele>419.9</ele>
        <time>2014-06-08T10:04:36.000Z</time>
      </trkpt>
      <trkpt lat="47.51681" lon="6.74008">
        <ele>418</ele>
        <time>2014-06-08T10:04:38.000Z</time>
      </trkpt>
      <trkpt lat="47.51682" lon="6.74005">
        <ele>417.9</ele>
        <time>2014-06-08T10:04:39.000Z</time>
      </trkpt>
      <trkpt lat="47.51683" lon="6.74003">
        <ele>417.5</ele>
        <time>2014-06-08T10:04:40.000Z</time>
      </trkpt>
      <trkpt lat="47.51694" lon="6.73989">
        <ele>416.5</ele>
        <time>2014-06-08T10:04:48.000Z</time>
      </trkpt>
      <trkpt lat="47.51695" lon="6.73987">
        <ele>417.1</ele>
        <time>2014-06-08T10:04:49.000Z</time>
      </trkpt>
      <trkpt lat="47.51697" lon="6.73984">
        <ele>417</ele>
        <time>2014-06-08T10:04:50.000Z</time>
      </trkpt>
      <trkpt lat="47.51699" lon="6.7398">
        <ele>415</ele>
        <time>2014-06-08T10:04:52.000Z</time>
      </trkpt>
      <trkpt lat="47.517" lon="6.73979">
        <ele>420.6</ele>
        <time>2014-06-08T10:04:53.000Z</time>
      </trkpt>
      <trkpt lat="47.51702" lon="6.73979">
        <ele>423.3</ele>
        <time>2014-06-08T10:04:54.000Z</time>
      </trkpt>
      <trkpt lat="47.51705" lon="6.7398">
        <ele>425.1</ele>
        <time>2014-06-08T10:04:55.000Z</time>
      </trkpt>
      <trkpt lat="47.51708" lon="6.73978">
        <ele>426.6</ele>
        <time>2014-06-08T10:04:57.000Z</time>
      </trkpt>
      <trkpt lat="47.51709" lon="6.73975">
        <ele>425.5</ele>
        <time>2014-06-08T10:04:58.000Z</time>
      </trkpt>
      <trkpt lat="47.51709" lon="6.73972">
        <ele>424.1</ele>
        <time>2014-06-08T10:04:59.000Z</time>
      </trkpt>
      <trkpt lat="47.5171" lon="6.73968">
        <ele>425.2</ele>
        <time>2014-06-08T10:05:00.000Z</time>
      </trkpt>
      <trkpt lat="47.51712" lon="6.73962">
        <ele>429.4</ele>
        <time>2014-06-08T10:05:02.000Z</time>
      </trkpt>
      <trkpt lat="47.51712" lon="6.7396">
        <ele>429.9</ele>
        <time>2014-06-08T10:05:03.000Z</time>
      </trkpt>
      <trkpt lat="47.51714" lon="6.73954">
        <ele>430.8</ele>
        <time>2014-06-08T10:05:05.000Z</time>
      </trkpt>
      <trkpt lat="47.51715" lon="6.73951">
        <ele>430.4</ele>
        <time>2014-06-08T10:05:06.000Z</time>
      </trkpt>
      <trkpt lat="47.51717" lon="6.73946">
        <ele>431.2</ele>
        <time>2014-06-08T10:05:08.000Z</time>
      </trkpt>
      <trkpt lat="47.51718" lon="6.73943">
        <ele>430.9</ele>
        <time>2014-06-08T10:05:09.000Z</time>
      </trkpt>
      <trkpt lat="47.5172" lon="6.73939">
        <ele>433.4</ele>
        <time>2014-06-08T10:05:11.000Z</time>
      </trkpt>
      <trkpt lat="47.51719" lon="6.73937">
        <ele>438</ele>
        <time>2014-06-08T10:05:12.000Z</time>
      </trkpt>
      <trkpt lat="47.51718" lon="6.73932">
        <ele>439.5</ele>
        <time>2014-06-08T10:05:14.000Z</time>
      </trkpt>
      <trkpt lat="47.51718" lon="6.7393">
        <ele>440.6</ele>
        <time>2014-06-08T10:05:15.000Z</time>
      </trkpt>
      <trkpt lat="47.51721" lon="6.73927">
        <ele>439.1</ele>
        <time>2014-06-08T10:05:17.000Z</time>
      </trkpt>
      <trkpt lat="47.51723" lon="6.73925">
        <ele>437.7</ele>
        <time>2014-06-08T10:05:18.000Z</time>
      </trkpt>
      <trkpt lat="47.51725" lon="6.73922">
        <ele>432.3</ele>
        <time>2014-06-08T10:05:19.000Z</time>
      </trkpt>
      <trkpt lat="47.51727" lon="6.73919">
        <ele>430</ele>
        <time>2014-06-08T10:05:20.000Z</time>
      </trkpt>
      <trkpt lat="47.51728" lon="6.73916">
        <ele>428.6</ele>
        <time>2014-06-08T10:05:21.000Z</time>
      </trkpt>
      <trkpt lat="47.51729" lon="6.73913">
        <ele>427</ele>
        <time>2014-06-08T10:05:22.000Z</time>
      </trkpt>
      <trkpt lat="47.5173" lon="6.7391">
        <ele>425.7</ele>
        <time>2014-06-08T10:05:23.000Z</time>
      </trkpt>
      <trkpt lat="47.5173" lon="6.73906">
        <ele>424.1</ele>
        <time>2014-06-08T10:05:24.000Z</time>
      </trkpt>
      <trkpt lat="47.51732" lon="6.73901">
        <ele>422.2</ele>
        <time>2014-06-08T10:05:26.000Z</time>
      </trkpt>
      <trkpt lat="47.51734" lon="6.73898">
        <ele>421.8</ele>
        <time>2014-06-08T10:05:27.000Z</time>
      </trkpt>
      <trkpt lat="47.51736" lon="6.73894">
        <ele>421.5</ele>
        <time>2014-06-08T10:05:29.000Z</time>
      </trkpt>
      <trkpt lat="47.51737" lon="6.73891">
        <ele>421.3</ele>
        <time>2014-06-08T10:05:30.000Z</time>
      </trkpt>
      <trkpt lat="47.51739" lon="6.73886">
        <ele>422</ele>
        <time>2014-06-08T10:05:32.000Z</time>
      </trkpt>
      <trkpt lat="47.51739" lon="6.73883">
        <ele>422.3</ele>
        <time>2014-06-08T10:05:33.000Z</time>
      </trkpt>
      <trkpt lat="47.51741" lon="6.73878">
        <ele>420.9</ele>
        <time>2014-06-08T10:05:35.000Z</time>
      </trkpt>
      <trkpt lat="47.51742" lon="6.73875">
        <ele>420.8</ele>
        <time>2014-06-08T10:05:36.000Z</time>
      </trkpt>
      <trkpt lat="47.51744" lon="6.7387">
        <ele>420.1</ele>
        <time>2014-06-08T10:05:38.000Z</time>
      </trkpt>
      <trkpt lat="47.51745" lon="6.73868">
        <ele>420.2</ele>
        <time>2014-06-08T10:05:39.000Z</time>
      </trkpt>
      <trkpt lat="47.51746" lon="6.73866">
        <ele>420.5</ele>
        <time>2014-06-08T10:05:40.000Z</time>
      </trkpt>
      <trkpt lat="47.51746" lon="6.73859">
        <ele>419.7</ele>
        <time>2014-06-08T10:05:43.000Z</time>
      </trkpt>
      <trkpt lat="47.51747" lon="6.73854">
        <ele>421.9</ele>
        <time>2014-06-08T10:05:45.000Z</time>
      </trkpt>
      <trkpt lat="47.51747" lon="6.73851">
        <ele>422.6</ele>
        <time>2014-06-08T10:05:46.000Z</time>
      </trkpt>
      <trkpt lat="47.51747" lon="6.73848">
        <ele>423</ele>
        <time>2014-06-08T10:05:47.000Z</time>
      </trkpt>
      <trkpt lat="47.51748" lon="6.73844">
        <ele>421.5</ele>
        <time>2014-06-08T10:05:48.000Z</time>
      </trkpt>
      <trkpt lat="47.51748" lon="6.73837">
        <ele>423.1</ele>
        <time>2014-06-08T10:05:50.000Z</time>
      </trkpt>
      <trkpt lat="47.51747" lon="6.73835">
        <ele>421</ele>
        <time>2014-06-08T10:05:51.000Z</time>
      </trkpt>
      <trkpt lat="47.51747" lon="6.73828">
        <ele>424.2</ele>
        <time>2014-06-08T10:05:54.000Z</time>
      </trkpt>
      <trkpt lat="47.51747" lon="6.73827">
        <ele>425.8</ele>
        <time>2014-06-08T10:05:54.998Z</time>
      </trkpt>
      <trkpt lat="47.51747" lon="6.73822">
        <ele>426.8</ele>
        <time>2014-06-08T10:05:57.000Z</time>
      </trkpt>
      <trkpt lat="47.51747" lon="6.7382">
        <ele>428.2</ele>
        <time>2014-06-08T10:05:58.000Z</time>
      </trkpt>
      <trkpt lat="47.51748" lon="6.73814">
        <ele>428.9</ele>
        <time>2014-06-08T10:06:01.000Z</time>
      </trkpt>
      <trkpt lat="47.51749" lon="6.73812">
        <ele>428.7</ele>
        <time>2014-06-08T10:06:02.000Z</time>
      </trkpt>
      <trkpt lat="47.5175" lon="6.73808">
        <ele>430.2</ele>
        <time>2014-06-08T10:06:04.000Z</time>
      </trkpt>
      <trkpt lat="47.5175" lon="6.73805">
        <ele>431.3</ele>
        <time>2014-06-08T10:06:05.000Z</time>
      </trkpt>
      <trkpt lat="47.5175" lon="6.73801">
        <ele>431.3</ele>
        <time>2014-06-08T10:06:06.985Z</time>
      </trkpt>
      <trkpt lat="47.51751" lon="6.73798">
        <ele>431.8</ele>
        <time>2014-06-08T10:06:08.000Z</time>
      </trkpt>
      <trkpt lat="47.5175" lon="6.73792">
        <ele>430.7</ele>
        <time>2014-06-08T10:06:10.998Z</time>
      </trkpt>
      <trkpt lat="47.5175" lon="6.73789">
        <ele>430</ele>
        <time>2014-06-08T10:06:11.943Z</time>
      </trkpt>
      <trkpt lat="47.5175" lon="6.73784">
        <ele>431.1</ele>
        <time>2014-06-08T10:06:13.967Z</time>
      </trkpt>
      <trkpt lat="47.5175" lon="6.73781">
        <ele>432.4</ele>
        <time>2014-06-08T10:06:15.000Z</time>
      </trkpt>
      <trkpt lat="47.51749" lon="6.73775">
        <ele>437</ele>
        <time>2014-06-08T10:06:17.998Z</time>
      </trkpt>
      <trkpt lat="47.51748" lon="6.73773">
        <ele>435.8</ele>
        <time>2014-06-08T10:06:18.922Z</time>
      </trkpt>
      <trkpt lat="47.51748" lon="6.73767">
        <ele>432.3</ele>
        <time>2014-06-08T10:06:22.000Z</time>
      </trkpt>
      <trkpt lat="47.51748" lon="6.73765">
        <ele>434.7</ele>
        <time>2014-06-08T10:06:23.000Z</time>
      </trkpt>
      <trkpt lat="47.51746" lon="6.73759">
        <ele>433.9</ele>
        <time>2014-06-08T10:06:25.944Z</time>
      </trkpt>
      <trkpt lat="47.51746" lon="6.73757">
        <ele>433.8</ele>
        <time>2014-06-08T10:06:26.951Z</time>
      </trkpt>
      <trkpt lat="47.51746" lon="6.73752">
        <ele>435.4</ele>
        <time>2014-06-08T10:06:29.000Z</time>
      </trkpt>
      <trkpt lat="47.51746" lon="6.73749">
        <ele>436.5</ele>
        <time>2014-06-08T10:06:30.000Z</time>
      </trkpt>
      <trkpt lat="47.51747" lon="6.73743">
        <ele>437.8</ele>
        <time>2014-06-08T10:06:31.943Z</time>
      </trkpt>
      <trkpt lat="47.51748" lon="6.7374">
        <ele>437.4</ele>
        <time>2014-06-08T10:06:32.927Z</time>
      </trkpt>
      <trkpt lat="47.51748" lon="6.73735">
        <ele>437</ele>
        <time>2014-06-08T10:06:34.000Z</time>
      </trkpt>
      <trkpt lat="47.51749" lon="6.73732">
        <ele>436.5</ele>
        <time>2014-06-08T10:06:35.000Z</time>
      </trkpt>
      <trkpt lat="47.5175" lon="6.73725">
        <ele>438</ele>
        <time>2014-06-08T10:06:37.000Z</time>
      </trkpt>
      <trkpt lat="47.5175" lon="6.73723">
        <ele>439.2</ele>
        <time>2014-06-08T10:06:37.998Z</time>
      </trkpt>
      <trkpt lat="47.51751" lon="6.7372">
        <ele>440.9</ele>
        <time>2014-06-08T10:06:38.923Z</time>
      </trkpt>
      <trkpt lat="47.51753" lon="6.73717">
        <ele>441.3</ele>
        <time>2014-06-08T10:06:39.948Z</time>
      </trkpt>
      <trkpt lat="47.51757" lon="6.73696">
        <ele>443.1</ele>
        <time>2014-06-08T10:06:48.000Z</time>
      </trkpt>
      <trkpt lat="47.51757" lon="6.73692">
        <ele>440.8</ele>
        <time>2014-06-08T10:06:50.000Z</time>
      </trkpt>
      <trkpt lat="47.51757" lon="6.73688">
        <ele>443.1</ele>
        <time>2014-06-08T10:06:51.000Z</time>
      </trkpt>
      <trkpt lat="47.51758" lon="6.73683">
        <ele>443.5</ele>
        <time>2014-06-08T10:06:52.000Z</time>
      </trkpt>
      <trkpt lat="47.51758" lon="6.73678">
        <ele>440.1</ele>
        <time>2014-06-08T10:06:53.000Z</time>
      </trkpt>
      <trkpt lat="47.51759" lon="6.73673">
        <ele>438.3</ele>
        <time>2014-06-08T10:06:54.000Z</time>
      </trkpt>
      <trkpt lat="47.51759" lon="6.73669">
        <ele>434.3</ele>
        <time>2014-06-08T10:06:55.000Z</time>
      </trkpt>
      <trkpt lat="47.5176" lon="6.73664">
        <ele>433.2</ele>
        <time>2014-06-08T10:06:56.000Z</time>
      </trkpt>
      <trkpt lat="47.51759" lon="6.7366">
        <ele>432.9</ele>
        <time>2014-06-08T10:06:57.000Z</time>
      </trkpt>
      <trkpt lat="47.51758" lon="6.73656">
        <ele>433</ele>
        <time>2014-06-08T10:06:58.000Z</time>
      </trkpt>
      <trkpt lat="47.51757" lon="6.73653">
        <ele>433.1</ele>
        <time>2014-06-08T10:06:59.000Z</time>
      </trkpt>
      <trkpt lat="47.51756" lon="6.73649">
        <ele>432.1</ele>
        <time>2014-06-08T10:07:00.000Z</time>
      </trkpt>
      <trkpt lat="47.51755" lon="6.73646">
        <ele>430.6</ele>
        <time>2014-06-08T10:07:01.000Z</time>
      </trkpt>
      <trkpt lat="47.51752" lon="6.73641">
        <ele>430.9</ele>
        <time>2014-06-08T10:07:03.000Z</time>
      </trkpt>
      <trkpt lat="47.51751" lon="6.73638">
        <ele>431.6</ele>
        <time>2014-06-08T10:07:04.000Z</time>
      </trkpt>
      <trkpt lat="47.5175" lon="6.73633">
        <ele>432.1</ele>
        <time>2014-06-08T10:07:06.000Z</time>
      </trkpt>
      <trkpt lat="47.51749" lon="6.73631">
        <ele>432.4</ele>
        <time>2014-06-08T10:07:07.000Z</time>
      </trkpt>
      <trkpt lat="47.51746" lon="6.73627">
        <ele>431.7</ele>
        <time>2014-06-08T10:07:10.000Z</time>
      </trkpt>
      <trkpt lat="47.51745" lon="6.73626">
        <ele>431.3</ele>
        <time>2014-06-08T10:07:11.000Z</time>
      </trkpt>
      <trkpt lat="47.51742" lon="6.73625">
        <ele>426.2</ele>
        <time>2014-06-08T10:07:13.000Z</time>
      </trkpt>
      <trkpt lat="47.5174" lon="6.73625">
        <ele>425.3</ele>
        <time>2014-06-08T10:07:14.000Z</time>
      </trkpt>
      <trkpt lat="47.51736" lon="6.73623">
        <ele>426.1</ele>
        <time>2014-06-08T10:07:18.000Z</time>
      </trkpt>
      <trkpt lat="47.51735" lon="6.73622">
        <ele>426.8</ele>
        <time>2014-06-08T10:07:19.000Z</time>
      </trkpt>
      <trkpt lat="47.51731" lon="6.73619">
        <ele>424.2</ele>
        <time>2014-06-08T10:07:22.000Z</time>
      </trkpt>
      <trkpt lat="47.5173" lon="6.73618">
        <ele>426.1</ele>
        <time>2014-06-08T10:07:23.000Z</time>
      </trkpt>
      <trkpt lat="47.51727" lon="6.73617">
        <ele>426.1</ele>
        <time>2014-06-08T10:07:25.000Z</time>
      </trkpt>
      <trkpt lat="47.51724" lon="6.73615">
        <ele>423.7</ele>
        <time>2014-06-08T10:07:26.000Z</time>
      </trkpt>
      <trkpt lat="47.51722" lon="6.73613">
        <ele>422.3</ele>
        <time>2014-06-08T10:07:27.000Z</time>
      </trkpt>
      <trkpt lat="47.51719" lon="6.73612">
        <ele>421.8</ele>
        <time>2014-06-08T10:07:28.000Z</time>
      </trkpt>
      <trkpt lat="47.51716" lon="6.7361">
        <ele>420.8</ele>
        <time>2014-06-08T10:07:29.000Z</time>
      </trkpt>
      <trkpt lat="47.51714" lon="6.73608">
        <ele>420.6</ele>
        <time>2014-06-08T10:07:30.000Z</time>
      </trkpt>
      <trkpt lat="47.51712" lon="6.73606">
        <ele>420.7</ele>
        <time>2014-06-08T10:07:31.000Z</time>
      </trkpt>
      <trkpt lat="47.5171" lon="6.73605">
        <ele>420.3</ele>
        <time>2014-06-08T10:07:32.000Z</time>
      </trkpt>
      <trkpt lat="47.51706" lon="6.73602">
        <ele>419.4</ele>
        <time>2014-06-08T10:07:34.000Z</time>
      </trkpt>
      <trkpt lat="47.51704" lon="6.73601">
        <ele>420.9</ele>
        <time>2014-06-08T10:07:35.000Z</time>
      </trkpt>
      <trkpt lat="47.517" lon="6.73599">
        <ele>421.6</ele>
        <time>2014-06-08T10:07:37.000Z</time>
      </trkpt>
      <trkpt lat="47.51698" lon="6.73598">
        <ele>421.4</ele>
        <time>2014-06-08T10:07:38.000Z</time>
      </trkpt>
      <trkpt lat="47.51695" lon="6.73596">
        <ele>422.2</ele>
        <time>2014-06-08T10:07:40.000Z</time>
      </trkpt>
      <trkpt lat="47.51693" lon="6.73593">
        <ele>423.2</ele>
        <time>2014-06-08T10:07:43.000Z</time>
      </trkpt>
      <trkpt lat="47.51689" lon="6.7359">
        <ele>424.3</ele>
        <time>2014-06-08T10:07:46.000Z</time>
      </trkpt>
      <trkpt lat="47.51687" lon="6.73589">
        <ele>425.1</ele>
        <time>2014-06-08T10:07:47.000Z</time>
      </trkpt>
      <trkpt lat="47.51685" lon="6.73588">
        <ele>425.3</ele>
        <time>2014-06-08T10:07:49.001Z</time>
      </trkpt>
      <trkpt lat="47.51682" lon="6.73587">
        <ele>424.1</ele>
        <time>2014-06-08T10:07:50.000Z</time>
      </trkpt>
      <trkpt lat="47.51678" lon="6.73586">
        <ele>423.2</ele>
        <time>2014-06-08T10:07:52.000Z</time>
      </trkpt>
      <trkpt lat="47.51677" lon="6.73585">
        <ele>424.9</ele>
        <time>2014-06-08T10:07:53.000Z</time>
      </trkpt>
      <trkpt lat="47.51674" lon="6.73583">
        <ele>426.3</ele>
        <time>2014-06-08T10:07:55.000Z</time>
      </trkpt>
      <trkpt lat="47.51672" lon="6.73582">
        <ele>425.1</ele>
        <time>2014-06-08T10:07:56.000Z</time>
      </trkpt>
      <trkpt lat="47.51668" lon="6.73581">
        <ele>428.5</ele>
        <time>2014-06-08T10:07:58.000Z</time>
      </trkpt>
      <trkpt lat="47.51666" lon="6.73581">
        <ele>430.6</ele>
        <time>2014-06-08T10:07:59.000Z</time>
      </trkpt>
      <trkpt lat="47.51662" lon="6.73579">
        <ele>437</ele>
        <time>2014-06-08T10:08:02.000Z</time>
      </trkpt>
      <trkpt lat="47.51661" lon="6.73578">
        <ele>437.8</ele>
        <time>2014-06-08T10:08:03.000Z</time>
      </trkpt>
      <trkpt lat="47.51658" lon="6.73578">
        <ele>438.3</ele>
        <time>2014-06-08T10:08:05.000Z</time>
      </trkpt>
      <trkpt lat="47.51656" lon="6.73578">
        <ele>440</ele>
        <time>2014-06-08T10:08:06.000Z</time>
      </trkpt>
      <trkpt lat="47.51653" lon="6.73578">
        <ele>441.4</ele>
        <time>2014-06-08T10:08:08.000Z</time>
      </trkpt>
      <trkpt lat="47.51651" lon="6.73578">
        <ele>440</ele>
        <time>2014-06-08T10:08:09.000Z</time>
      </trkpt>
      <trkpt lat="47.51648" lon="6.73577">
        <ele>437.8</ele>
        <time>2014-06-08T10:08:10.000Z</time>
      </trkpt>
      <trkpt lat="47.51646" lon="6.73576">
        <ele>436.4</ele>
        <time>2014-06-08T10:08:11.000Z</time>
      </trkpt>
      <trkpt lat="47.51642" lon="6.73574">
        <ele>435.4</ele>
        <time>2014-06-08T10:08:12.000Z</time>
      </trkpt>
      <trkpt lat="47.51639" lon="6.73573">
        <ele>434.2</ele>
        <time>2014-06-08T10:08:13.000Z</time>
      </trkpt>
      <trkpt lat="47.51636" lon="6.73572">
        <ele>433.9</ele>
        <time>2014-06-08T10:08:13.998Z</time>
      </trkpt>
      <trkpt lat="47.51633" lon="6.7357">
        <ele>434.2</ele>
        <time>2014-06-08T10:08:15.000Z</time>
      </trkpt>
      <trkpt lat="47.51631" lon="6.73569">
        <ele>434.1</ele>
        <time>2014-06-08T10:08:16.000Z</time>
      </trkpt>
      <trkpt lat="47.51629" lon="6.73569">
        <ele>434.9</ele>
        <time>2014-06-08T10:08:17.000Z</time>
      </trkpt>
      <trkpt lat="47.51627" lon="6.73568">
        <ele>436.3</ele>
        <time>2014-06-08T10:08:18.000Z</time>
      </trkpt>
      <trkpt lat="47.51624" lon="6.73568">
        <ele>436.4</ele>
        <time>2014-06-08T10:08:19.000Z</time>
      </trkpt>
      <trkpt lat="47.5162" lon="6.73567">
        <ele>436.2</ele>
        <time>2014-06-08T10:08:21.000Z</time>
      </trkpt>
      <trkpt lat="47.51618" lon="6.73567">
        <ele>434.5</ele>
        <time>2014-06-08T10:08:22.000Z</time>
      </trkpt>
      <trkpt lat="47.51615" lon="6.73566">
        <ele>433.7</ele>
        <time>2014-06-08T10:08:23.000Z</time>
      </trkpt>
      <trkpt lat="47.51612" lon="6.73564">
        <ele>432.4</ele>
        <time>2014-06-08T10:08:24.000Z</time>
      </trkpt>
      <trkpt lat="47.51609" lon="6.73562">
        <ele>432</ele>
        <time>2014-06-08T10:08:25.000Z</time>
      </trkpt>
      <trkpt lat="47.51605" lon="6.7356">
        <ele>431</ele>
        <time>2014-06-08T10:08:26.000Z</time>
      </trkpt>
      <trkpt lat="47.51602" lon="6.73558">
        <ele>431.2</ele>
        <time>2014-06-08T10:08:27.000Z</time>
      </trkpt>
      <trkpt lat="47.51599" lon="6.73557">
        <ele>432.4</ele>
        <time>2014-06-08T10:08:28.000Z</time>
      </trkpt>
      <trkpt lat="47.51595" lon="6.73556">
        <ele>433.5</ele>
        <time>2014-06-08T10:08:30.000Z</time>
      </trkpt>
      <trkpt lat="47.51593" lon="6.73554">
        <ele>437.1</ele>
        <time>2014-06-08T10:08:31.000Z</time>
      </trkpt>
      <trkpt lat="47.5159" lon="6.73552">
        <ele>440.3</ele>
        <time>2014-06-08T10:08:33.000Z</time>
      </trkpt>
      <trkpt lat="47.51588" lon="6.73551">
        <ele>440.5</ele>
        <time>2014-06-08T10:08:34.000Z</time>
      </trkpt>
      <trkpt lat="47.51587" lon="6.7355">
        <ele>441.2</ele>
        <time>2014-06-08T10:08:34.999Z</time>
      </trkpt>
      <trkpt lat="47.51582" lon="6.73549">
        <ele>440.3</ele>
        <time>2014-06-08T10:08:36.000Z</time>
      </trkpt>
      <trkpt lat="47.51579" lon="6.73548">
        <ele>439.9</ele>
        <time>2014-06-08T10:08:37.000Z</time>
      </trkpt>
      <trkpt lat="47.51576" lon="6.73547">
        <ele>439.7</ele>
        <time>2014-06-08T10:08:38.001Z</time>
      </trkpt>
      <trkpt lat="47.51571" lon="6.73546">
        <ele>440.4</ele>
        <time>2014-06-08T10:08:39.000Z</time>
      </trkpt>
      <trkpt lat="47.51568" lon="6.73545">
        <ele>442.7</ele>
        <time>2014-06-08T10:08:40.000Z</time>
      </trkpt>
      <trkpt lat="47.51548" lon="6.73545">
        <ele>445</ele>
        <time>2014-06-08T10:08:48.000Z</time>
      </trkpt>
      <trkpt lat="47.51544" lon="6.73544">
        <ele>446.5</ele>
        <time>2014-06-08T10:08:49.000Z</time>
      </trkpt>
      <trkpt lat="47.5154" lon="6.73543">
        <ele>443.5</ele>
        <time>2014-06-08T10:08:50.000Z</time>
      </trkpt>
      <trkpt lat="47.51529" lon="6.73538">
        <ele>447.5</ele>
        <time>2014-06-08T10:08:51.000Z</time>
      </trkpt>
      <trkpt lat="47.51524" lon="6.73536">
        <ele>447.1</ele>
        <time>2014-06-08T10:08:52.000Z</time>
      </trkpt>
      <trkpt lat="47.51521" lon="6.73535">
        <ele>447.4</ele>
        <time>2014-06-08T10:08:52.999Z</time>
      </trkpt>
      <trkpt lat="47.51517" lon="6.73534">
        <ele>446.9</ele>
        <time>2014-06-08T10:08:54.000Z</time>
      </trkpt>
      <trkpt lat="47.5151" lon="6.73532">
        <ele>443.9</ele>
        <time>2014-06-08T10:08:55.000Z</time>
      </trkpt>
      <trkpt lat="47.51508" lon="6.73535">
        <ele>444.6</ele>
        <time>2014-06-08T10:08:56.000Z</time>
      </trkpt>
      <trkpt lat="47.51503" lon="6.73533">
        <ele>443.1</ele>
        <time>2014-06-08T10:08:57.000Z</time>
      </trkpt>
      <trkpt lat="47.51499" lon="6.73531">
        <ele>442.2</ele>
        <time>2014-06-08T10:08:58.000Z</time>
      </trkpt>
      <trkpt lat="47.51494" lon="6.73529">
        <ele>442.1</ele>
        <time>2014-06-08T10:08:59.000Z</time>
      </trkpt>
      <trkpt lat="47.51491" lon="6.73528">
        <ele>441</ele>
        <time>2014-06-08T10:09:00.000Z</time>
      </trkpt>
      <trkpt lat="47.51487" lon="6.73527">
        <ele>439.6</ele>
        <time>2014-06-08T10:09:01.000Z</time>
      </trkpt>
      <trkpt lat="47.51483" lon="6.73527">
        <ele>440.4</ele>
        <time>2014-06-08T10:09:02.000Z</time>
      </trkpt>
      <trkpt lat="47.5148" lon="6.73526">
        <ele>440.8</ele>
        <time>2014-06-08T10:09:03.000Z</time>
      </trkpt>
      <trkpt lat="47.51476" lon="6.73525">
        <ele>438.4</ele>
        <time>2014-06-08T10:09:04.000Z</time>
      </trkpt>
      <trkpt lat="47.51472" lon="6.73524">
        <ele>438.7</ele>
        <time>2014-06-08T10:09:05.000Z</time>
      </trkpt>
      <trkpt lat="47.51469" lon="6.73522">
        <ele>441.6</ele>
        <time>2014-06-08T10:09:06.000Z</time>
      </trkpt>
      <trkpt lat="47.51467" lon="6.73521">
        <ele>442.3</ele>
        <time>2014-06-08T10:09:07.000Z</time>
      </trkpt>
      <trkpt lat="47.51464" lon="6.73521">
        <ele>443</ele>
        <time>2014-06-08T10:09:08.000Z</time>
      </trkpt>
      <trkpt lat="47.51461" lon="6.7352">
        <ele>441.1</ele>
        <time>2014-06-08T10:09:09.000Z</time>
      </trkpt>
      <trkpt lat="47.51457" lon="6.73519">
        <ele>440</ele>
        <time>2014-06-08T10:09:10.000Z</time>
      </trkpt>
      <trkpt lat="47.51454" lon="6.73518">
        <ele>437</ele>
        <time>2014-06-08T10:09:11.000Z</time>
      </trkpt>
      <trkpt lat="47.5145" lon="6.73517">
        <ele>436.1</ele>
        <time>2014-06-08T10:09:12.000Z</time>
      </trkpt>
      <trkpt lat="47.51447" lon="6.73516">
        <ele>434.9</ele>
        <time>2014-06-08T10:09:13.000Z</time>
      </trkpt>
      <trkpt lat="47.51444" lon="6.73516">
        <ele>433.7</ele>
        <time>2014-06-08T10:09:14.000Z</time>
      </trkpt>
      <trkpt lat="47.51442" lon="6.73518">
        <ele>431.3</ele>
        <time>2014-06-08T10:09:15.000Z</time>
      </trkpt>
      <trkpt lat="47.5144" lon="6.7352">
        <ele>429.9</ele>
        <time>2014-06-08T10:09:16.000Z</time>
      </trkpt>
      <trkpt lat="47.51438" lon="6.73522">
        <ele>429</ele>
        <time>2014-06-08T10:09:17.000Z</time>
      </trkpt>
      <trkpt lat="47.51437" lon="6.73526">
        <ele>426.6</ele>
        <time>2014-06-08T10:09:18.000Z</time>
      </trkpt>
      <trkpt lat="47.51437" lon="6.7353">
        <ele>424.3</ele>
        <time>2014-06-08T10:09:19.000Z</time>
      </trkpt>
      <trkpt lat="47.51436" lon="6.73533">
        <ele>422.3</ele>
        <time>2014-06-08T10:09:20.000Z</time>
      </trkpt>
      <trkpt lat="47.51436" lon="6.73537">
        <ele>422.2</ele>
        <time>2014-06-08T10:09:21.000Z</time>
      </trkpt>
      <trkpt lat="47.51435" lon="6.7354">
        <ele>422.3</ele>
        <time>2014-06-08T10:09:22.000Z</time>
      </trkpt>
      <trkpt lat="47.51433" lon="6.73545">
        <ele>421</ele>
        <time>2014-06-08T10:09:23.000Z</time>
      </trkpt>
      <trkpt lat="47.51432" lon="6.7355">
        <ele>421.2</ele>
        <time>2014-06-08T10:09:24.000Z</time>
      </trkpt>
      <trkpt lat="47.5143" lon="6.73554">
        <ele>421.2</ele>
        <time>2014-06-08T10:09:25.000Z</time>
      </trkpt>
      <trkpt lat="47.51428" lon="6.7356">
        <ele>419.9</ele>
        <time>2014-06-08T10:09:26.000Z</time>
      </trkpt>
      <trkpt lat="47.51424" lon="6.73569">
        <ele>418</ele>
        <time>2014-06-08T10:09:27.000Z</time>
      </trkpt>
      <trkpt lat="47.51422" lon="6.73578">
        <ele>417.9</ele>
        <time>2014-06-08T10:09:28.000Z</time>
      </trkpt>
      <trkpt lat="47.51421" lon="6.73585">
        <ele>417.8</ele>
        <time>2014-06-08T10:09:29.000Z</time>
      </trkpt>
      <trkpt lat="47.51422" lon="6.73591">
        <ele>417.7</ele>
        <time>2014-06-08T10:09:30.000Z</time>
      </trkpt>
      <trkpt lat="47.51423" lon="6.73598">
        <ele>417.2</ele>
        <time>2014-06-08T10:09:31.000Z</time>
      </trkpt>
      <trkpt lat="47.5142" lon="6.7361">
        <ele>418.1</ele>
        <time>2014-06-08T10:09:32.000Z</time>
      </trkpt>
      <trkpt lat="47.51419" lon="6.73617">
        <ele>418.6</ele>
        <time>2014-06-08T10:09:33.000Z</time>
      </trkpt>
      <trkpt lat="47.51419" lon="6.73622">
        <ele>418.7</ele>
        <time>2014-06-08T10:09:34.000Z</time>
      </trkpt>
      <trkpt lat="47.51418" lon="6.73626">
        <ele>418.9</ele>
        <time>2014-06-08T10:09:35.000Z</time>
      </trkpt>
      <trkpt lat="47.51418" lon="6.73632">
        <ele>418.9</ele>
        <time>2014-06-08T10:09:36.000Z</time>
      </trkpt>
      <trkpt lat="47.51417" lon="6.73636">
        <ele>418.8</ele>
        <time>2014-06-08T10:09:37.000Z</time>
      </trkpt>
      <trkpt lat="47.51411" lon="6.73641">
        <ele>421.3</ele>
        <time>2014-06-08T10:09:38.000Z</time>
      </trkpt>
      <trkpt lat="47.51409" lon="6.73649">
        <ele>421.2</ele>
        <time>2014-06-08T10:09:39.000Z</time>
      </trkpt>
      <trkpt lat="47.51405" lon="6.73661">
        <ele>420</ele>
        <time>2014-06-08T10:09:48.000Z</time>
      </trkpt>
      <trkpt lat="47.51408" lon="6.73656">
        <ele>429.2</ele>
        <time>2014-06-08T10:10:08.000Z</time>
      </trkpt>
      <trkpt lat="47.51409" lon="6.73655">
        <ele>429</ele>
        <time>2014-06-08T10:10:09.000Z</time>
      </trkpt>
      <trkpt lat="47.51409" lon="6.73649">
        <ele>428.4</ele>
        <time>2014-06-08T10:10:13.000Z</time>
      </trkpt>
      <trkpt lat="47.51409" lon="6.73648">
        <ele>427.1</ele>
        <time>2014-06-08T10:10:14.000Z</time>
      </trkpt>
      <trkpt lat="47.51412" lon="6.7365">
        <ele>431.2</ele>
        <time>2014-06-08T10:10:18.000Z</time>
      </trkpt>
      <trkpt lat="47.51413" lon="6.73653">
        <ele>431.4</ele>
        <time>2014-06-08T10:10:19.000Z</time>
      </trkpt>
      <trkpt lat="47.51414" lon="6.73659">
        <ele>429.9</ele>
        <time>2014-06-08T10:10:22.000Z</time>
      </trkpt>
      <trkpt lat="47.51414" lon="6.7366">
        <ele>429.9</ele>
        <time>2014-06-08T10:10:23.000Z</time>
      </trkpt>
      <trkpt lat="47.51415" lon="6.73666">
        <ele>431.2</ele>
        <time>2014-06-08T10:10:26.000Z</time>
      </trkpt>
      <trkpt lat="47.51415" lon="6.73669">
        <ele>430.5</ele>
        <time>2014-06-08T10:10:27.000Z</time>
      </trkpt>
      <trkpt lat="47.51416" lon="6.73673">
        <ele>430.6</ele>
        <time>2014-06-08T10:10:28.000Z</time>
      </trkpt>
      <trkpt lat="47.51416" lon="6.73677">
        <ele>430</ele>
        <time>2014-06-08T10:10:29.000Z</time>
      </trkpt>
      <trkpt lat="47.51416" lon="6.7368">
        <ele>429.7</ele>
        <time>2014-06-08T10:10:30.000Z</time>
      </trkpt>
      <trkpt lat="47.51416" lon="6.73684">
        <ele>429.7</ele>
        <time>2014-06-08T10:10:31.000Z</time>
      </trkpt>
      <trkpt lat="47.51415" lon="6.73689">
        <ele>429.7</ele>
        <time>2014-06-08T10:10:32.000Z</time>
      </trkpt>
      <trkpt lat="47.51415" lon="6.73694">
        <ele>429.3</ele>
        <time>2014-06-08T10:10:33.000Z</time>
      </trkpt>
      <trkpt lat="47.51415" lon="6.73699">
        <ele>428.9</ele>
        <time>2014-06-08T10:10:34.000Z</time>
      </trkpt>
      <trkpt lat="47.51416" lon="6.73705">
        <ele>428.1</ele>
        <time>2014-06-08T10:10:35.000Z</time>
      </trkpt>
      <trkpt lat="47.51416" lon="6.73712">
        <ele>426.4</ele>
        <time>2014-06-08T10:10:36.000Z</time>
      </trkpt>
      <trkpt lat="47.51417" lon="6.73719">
        <ele>425.5</ele>
        <time>2014-06-08T10:10:37.000Z</time>
      </trkpt>
      <trkpt lat="47.51417" lon="6.73726">
        <ele>425.3</ele>
        <time>2014-06-08T10:10:38.000Z</time>
      </trkpt>
      <trkpt lat="47.51418" lon="6.73733">
        <ele>424.6</ele>
        <time>2014-06-08T10:10:39.000Z</time>
      </trkpt>
      <trkpt lat="47.51418" lon="6.7374">
        <ele>421.8</ele>
        <time>2014-06-08T10:10:40.000Z</time>
      </trkpt>
      <trkpt lat="47.51421" lon="6.73779">
        <ele>419.1</ele>
        <time>2014-06-08T10:10:48.000Z</time>
      </trkpt>
      <trkpt lat="47.51421" lon="6.73784">
        <ele>418.3</ele>
        <time>2014-06-08T10:10:49.000Z</time>
      </trkpt>
      <trkpt lat="47.51421" lon="6.73789">
        <ele>417.7</ele>
        <time>2014-06-08T10:10:50.000Z</time>
      </trkpt>
      <trkpt lat="47.51422" lon="6.73795">
        <ele>418.3</ele>
        <time>2014-06-08T10:10:54.000Z</time>
      </trkpt>
      <trkpt lat="47.51422" lon="6.73796">
        <ele>418.1</ele>
        <time>2014-06-08T10:10:55.000Z</time>
      </trkpt>
      <trkpt lat="47.51421" lon="6.73801">
        <ele>411.3</ele>
        <time>2014-06-08T10:11:25.000Z</time>
      </trkpt>
      <trkpt lat="47.51421" lon="6.73803">
        <ele>410.9</ele>
        <time>2014-06-08T10:11:26.000Z</time>
      </trkpt>
      <trkpt lat="47.51421" lon="6.73809">
        <ele>408.5</ele>
        <time>2014-06-08T10:11:28.000Z</time>
      </trkpt>
      <trkpt lat="47.51421" lon="6.73812">
        <ele>408.3</ele>
        <time>2014-06-08T10:11:29.000Z</time>
      </trkpt>
      <trkpt lat="47.51421" lon="6.73817">
        <ele>406.3</ele>
        <time>2014-06-08T10:11:31.000Z</time>
      </trkpt>
      <trkpt lat="47.51421" lon="6.73819">
        <ele>407.1</ele>
        <time>2014-06-08T10:11:32.000Z</time>
      </trkpt>
      <trkpt lat="47.51419" lon="6.73823">
        <ele>408</ele>
        <time>2014-06-08T10:11:34.000Z</time>
      </trkpt>
      <trkpt lat="47.51418" lon="6.73825">
        <ele>406.7</ele>
        <time>2014-06-08T10:11:35.000Z</time>
      </trkpt>
      <trkpt lat="47.51415" lon="6.73829">
        <ele>407.7</ele>
        <time>2014-06-08T10:11:37.000Z</time>
      </trkpt>
      <trkpt lat="47.51414" lon="6.7383">
        <ele>408.4</ele>
        <time>2014-06-08T10:11:38.000Z</time>
      </trkpt>
      <trkpt lat="47.51412" lon="6.73834">
        <ele>410.4</ele>
        <time>2014-06-08T10:11:40.000Z</time>
      </trkpt>
      <trkpt lat="47.51409" lon="6.73839">
        <ele>409.8</ele>
        <time>2014-06-08T10:11:43.000Z</time>
      </trkpt>
      <trkpt lat="47.51407" lon="6.73842">
        <ele>409.2</ele>
        <time>2014-06-08T10:11:45.000Z</time>
      </trkpt>
      <trkpt lat="47.51406" lon="6.73845">
        <ele>411.7</ele>
        <time>2014-06-08T10:11:46.000Z</time>
      </trkpt>
      <trkpt lat="47.51404" lon="6.73849">
        <ele>415.3</ele>
        <time>2014-06-08T10:11:48.000Z</time>
      </trkpt>
      <trkpt lat="47.51403" lon="6.7385">
        <ele>415.4</ele>
        <time>2014-06-08T10:11:49.000Z</time>
      </trkpt>
      <trkpt lat="47.51399" lon="6.73853">
        <ele>415.2</ele>
        <time>2014-06-08T10:11:51.000Z</time>
      </trkpt>
      <trkpt lat="47.51396" lon="6.73855">
        <ele>415.6</ele>
        <time>2014-06-08T10:11:52.000Z</time>
      </trkpt>
      <trkpt lat="47.51393" lon="6.73857">
        <ele>415.9</ele>
        <time>2014-06-08T10:11:54.000Z</time>
      </trkpt>
      <trkpt lat="47.51391" lon="6.73858">
        <ele>415.8</ele>
        <time>2014-06-08T10:11:55.000Z</time>
      </trkpt>
      <trkpt lat="47.51388" lon="6.7386">
        <ele>419.5</ele>
        <time>2014-06-08T10:11:57.000Z</time>
      </trkpt>
      <trkpt lat="47.51387" lon="6.73862">
        <ele>420.4</ele>
        <time>2014-06-08T10:11:58.000Z</time>
      </trkpt>
      <trkpt lat="47.51383" lon="6.73865">
        <ele>419.5</ele>
        <time>2014-06-08T10:12:00.000Z</time>
      </trkpt>
      <trkpt lat="47.51381" lon="6.73866">
        <ele>419.8</ele>
        <time>2014-06-08T10:12:01.000Z</time>
      </trkpt>
      <trkpt lat="47.51378" lon="6.73868">
        <ele>423.1</ele>
        <time>2014-06-08T10:12:03.000Z</time>
      </trkpt>
      <trkpt lat="47.51376" lon="6.7387">
        <ele>425.1</ele>
        <time>2014-06-08T10:12:04.000Z</time>
      </trkpt>
      <trkpt lat="47.51373" lon="6.73872">
        <ele>426.9</ele>
        <time>2014-06-08T10:12:06.000Z</time>
      </trkpt>
      <trkpt lat="47.51371" lon="6.73873">
        <ele>426.4</ele>
        <time>2014-06-08T10:12:07.000Z</time>
      </trkpt>
      <trkpt lat="47.51367" lon="6.73873">
        <ele>424.8</ele>
        <time>2014-06-08T10:12:09.000Z</time>
      </trkpt>
      <trkpt lat="47.51365" lon="6.73873">
        <ele>424.7</ele>
        <time>2014-06-08T10:12:10.000Z</time>
      </trkpt>
      <trkpt lat="47.51362" lon="6.73871">
        <ele>425</ele>
        <time>2014-06-08T10:12:12.000Z</time>
      </trkpt>
      <trkpt lat="47.51361" lon="6.7387">
        <ele>425.4</ele>
        <time>2014-06-08T10:12:13.000Z</time>
      </trkpt>
      <trkpt lat="47.51358" lon="6.73868">
        <ele>425</ele>
        <time>2014-06-08T10:12:15.000Z</time>
      </trkpt>
      <trkpt lat="47.51356" lon="6.73867">
        <ele>425.1</ele>
        <time>2014-06-08T10:12:16.000Z</time>
      </trkpt>
      <trkpt lat="47.51354" lon="6.73866">
        <ele>424.1</ele>
        <time>2014-06-08T10:12:17.000Z</time>
      </trkpt>
      <trkpt lat="47.51351" lon="6.73866">
        <ele>424.4</ele>
        <time>2014-06-08T10:12:18.000Z</time>
      </trkpt>
      <trkpt lat="47.51347" lon="6.73867">
        <ele>425.1</ele>
        <time>2014-06-08T10:12:22.000Z</time>
      </trkpt>
      <trkpt lat="47.51347" lon="6.7387">
        <ele>425.6</ele>
        <time>2014-06-08T10:12:23.000Z</time>
      </trkpt>
      <trkpt lat="47.51345" lon="6.73875">
        <ele>425.3</ele>
        <time>2014-06-08T10:12:25.000Z</time>
      </trkpt>
      <trkpt lat="47.51345" lon="6.73878">
        <ele>425.9</ele>
        <time>2014-06-08T10:12:26.000Z</time>
      </trkpt>
      <trkpt lat="47.51346" lon="6.73883">
        <ele>426.7</ele>
        <time>2014-06-08T10:12:28.000Z</time>
      </trkpt>
      <trkpt lat="47.51346" lon="6.73885">
        <ele>426.7</ele>
        <time>2014-06-08T10:12:29.000Z</time>
      </trkpt>
      <trkpt lat="47.51344" lon="6.73891">
        <ele>422.9</ele>
        <time>2014-06-08T10:12:31.000Z</time>
      </trkpt>
      <trkpt lat="47.51343" lon="6.73893">
        <ele>423.2</ele>
        <time>2014-06-08T10:12:32.000Z</time>
      </trkpt>
      <trkpt lat="47.5134" lon="6.73896">
        <ele>424</ele>
        <time>2014-06-08T10:12:34.000Z</time>
      </trkpt>
      <trkpt lat="47.51339" lon="6.73898">
        <ele>424.7</ele>
        <time>2014-06-08T10:12:35.000Z</time>
      </trkpt>
      <trkpt lat="47.51335" lon="6.73897">
        <ele>423.2</ele>
        <time>2014-06-08T10:12:51.000Z</time>
      </trkpt>
      <trkpt lat="47.51335" lon="6.73896">
        <ele>423.5</ele>
        <time>2014-06-08T10:12:52.000Z</time>
      </trkpt>
      <trkpt lat="47.51332" lon="6.73893">
        <ele>429.4</ele>
        <time>2014-06-08T10:12:59.000Z</time>
      </trkpt>
      <trkpt lat="47.5133" lon="6.73892">
        <ele>432.3</ele>
        <time>2014-06-08T10:13:00.000Z</time>
      </trkpt>
      <trkpt lat="47.51328" lon="6.73891">
        <ele>433.7</ele>
        <time>2014-06-08T10:13:01.000Z</time>
      </trkpt>
      <trkpt lat="47.51325" lon="6.73889">
        <ele>434.9</ele>
        <time>2014-06-08T10:13:02.000Z</time>
      </trkpt>
      <trkpt lat="47.51321" lon="6.73888">
        <ele>435.3</ele>
        <time>2014-06-08T10:13:03.000Z</time>
      </trkpt>
      <trkpt lat="47.51318" lon="6.73887">
        <ele>435.6</ele>
        <time>2014-06-08T10:13:04.000Z</time>
      </trkpt>
      <trkpt lat="47.51314" lon="6.73886">
        <ele>435.5</ele>
        <time>2014-06-08T10:13:05.000Z</time>
      </trkpt>
      <trkpt lat="47.5131" lon="6.73886">
        <ele>436.2</ele>
        <time>2014-06-08T10:13:06.000Z</time>
      </trkpt>
      <trkpt lat="47.51307" lon="6.73885">
        <ele>436.1</ele>
        <time>2014-06-08T10:13:07.000Z</time>
      </trkpt>
      <trkpt lat="47.51304" lon="6.73884">
        <ele>436.1</ele>
        <time>2014-06-08T10:13:08.000Z</time>
      </trkpt>
      <trkpt lat="47.51301" lon="6.73883">
        <ele>436.5</ele>
        <time>2014-06-08T10:13:09.000Z</time>
      </trkpt>
      <trkpt lat="47.51297" lon="6.73882">
        <ele>440.3</ele>
        <time>2014-06-08T10:13:10.000Z</time>
      </trkpt>
      <trkpt lat="47.51293" lon="6.7388">
        <ele>441.4</ele>
        <time>2014-06-08T10:13:11.000Z</time>
      </trkpt>
      <trkpt lat="47.51289" lon="6.73878">
        <ele>441.8</ele>
        <time>2014-06-08T10:13:12.000Z</time>
      </trkpt>
      <trkpt lat="47.51285" lon="6.73876">
        <ele>441.7</ele>
        <time>2014-06-08T10:13:13.000Z</time>
      </trkpt>
      <trkpt lat="47.51281" lon="6.73875">
        <ele>441.7</ele>
        <time>2014-06-08T10:13:14.000Z</time>
      </trkpt>
      <trkpt lat="47.51277" lon="6.73873">
        <ele>442.1</ele>
        <time>2014-06-08T10:13:15.000Z</time>
      </trkpt>
      <trkpt lat="47.51273" lon="6.73872">
        <ele>441.2</ele>
        <time>2014-06-08T10:13:16.000Z</time>
      </trkpt>
      <trkpt lat="47.51268" lon="6.7387">
        <ele>440.9</ele>
        <time>2014-06-08T10:13:17.000Z</time>
      </trkpt>
      <trkpt lat="47.51264" lon="6.73869">
        <ele>440.6</ele>
        <time>2014-06-08T10:13:18.000Z</time>
      </trkpt>
      <trkpt lat="47.51259" lon="6.73867">
        <ele>439.6</ele>
        <time>2014-06-08T10:13:19.000Z</time>
      </trkpt>
      <trkpt lat="47.51255" lon="6.73866">
        <ele>440.1</ele>
        <time>2014-06-08T10:13:20.000Z</time>
      </trkpt>
      <trkpt lat="47.51252" lon="6.73864">
        <ele>439.8</ele>
        <time>2014-06-08T10:13:21.000Z</time>
      </trkpt>
      <trkpt lat="47.51247" lon="6.73862">
        <ele>439</ele>
        <time>2014-06-08T10:13:22.000Z</time>
      </trkpt>
      <trkpt lat="47.51243" lon="6.7386">
        <ele>438.8</ele>
        <time>2014-06-08T10:13:23.000Z</time>
      </trkpt>
      <trkpt lat="47.51238" lon="6.73858">
        <ele>442.5</ele>
        <time>2014-06-08T10:13:24.000Z</time>
      </trkpt>
      <trkpt lat="47.51226" lon="6.73851">
        <ele>439.8</ele>
        <time>2014-06-08T10:13:25.000Z</time>
      </trkpt>
      <trkpt lat="47.51222" lon="6.73848">
        <ele>440.1</ele>
        <time>2014-06-08T10:13:26.000Z</time>
      </trkpt>
      <trkpt lat="47.51218" lon="6.73846">
        <ele>439.2</ele>
        <time>2014-06-08T10:13:27.000Z</time>
      </trkpt>
      <trkpt lat="47.51213" lon="6.73843">
        <ele>438.7</ele>
        <time>2014-06-08T10:13:28.000Z</time>
      </trkpt>
      <trkpt lat="47.51206" lon="6.73838">
        <ele>437.9</ele>
        <time>2014-06-08T10:13:29.000Z</time>
      </trkpt>
      <trkpt lat="47.512" lon="6.73833">
        <ele>437</ele>
        <time>2014-06-08T10:13:30.000Z</time>
      </trkpt>
      <trkpt lat="47.51195" lon="6.73829">
        <ele>435.4</ele>
        <time>2014-06-08T10:13:31.000Z</time>
      </trkpt>
      <trkpt lat="47.51192" lon="6.73825">
        <ele>436.4</ele>
        <time>2014-06-08T10:13:36.000Z</time>
      </trkpt>
      <trkpt lat="47.51191" lon="6.73825">
        <ele>436.5</ele>
        <time>2014-06-08T10:13:37.000Z</time>
      </trkpt>
      <trkpt lat="47.51188" lon="6.73822">
        <ele>435.9</ele>
        <time>2014-06-08T10:13:40.000Z</time>
      </trkpt>
      <trkpt lat="47.51187" lon="6.73819">
        <ele>432.7</ele>
        <time>2014-06-08T10:13:48.000Z</time>
      </trkpt>
      <trkpt lat="47.51185" lon="6.73815">
        <ele>433.8</ele>
        <time>2014-06-08T10:13:59.000Z</time>
      </trkpt>
      <trkpt lat="47.51184" lon="6.73814">
        <ele>434</ele>
        <time>2014-06-08T10:14:00.000Z</time>
      </trkpt>
      <trkpt lat="47.51181" lon="6.7381">
        <ele>435.2</ele>
        <time>2014-06-08T10:14:02.000Z</time>
      </trkpt>
      <trkpt lat="47.51179" lon="6.73808">
        <ele>436.5</ele>
        <time>2014-06-08T10:14:03.000Z</time>
      </trkpt>
      <trkpt lat="47.51176" lon="6.73806">
        <ele>437.1</ele>
        <time>2014-06-08T10:14:04.000Z</time>
      </trkpt>
      <trkpt lat="47.51172" lon="6.73804">
        <ele>437.1</ele>
        <time>2014-06-08T10:14:05.000Z</time>
      </trkpt>
      <trkpt lat="47.51168" lon="6.73801">
        <ele>436.9</ele>
        <time>2014-06-08T10:14:06.000Z</time>
      </trkpt>
      <trkpt lat="47.51164" lon="6.73799">
        <ele>437</ele>
        <time>2014-06-08T10:14:07.000Z</time>
      </trkpt>
      <trkpt lat="47.51161" lon="6.73797">
        <ele>438.8</ele>
        <time>2014-06-08T10:14:08.000Z</time>
      </trkpt>
      <trkpt lat="47.51158" lon="6.73795">
        <ele>437.4</ele>
        <time>2014-06-08T10:14:09.000Z</time>
      </trkpt>
      <trkpt lat="47.51156" lon="6.73792">
        <ele>436.3</ele>
        <time>2014-06-08T10:14:10.000Z</time>
      </trkpt>
      <trkpt lat="47.51154" lon="6.73789">
        <ele>435.5</ele>
        <time>2014-06-08T10:14:11.000Z</time>
      </trkpt>
      <trkpt lat="47.51152" lon="6.73786">
        <ele>435.6</ele>
        <time>2014-06-08T10:14:12.000Z</time>
      </trkpt>
      <trkpt lat="47.5115" lon="6.73782">
        <ele>436.8</ele>
        <time>2014-06-08T10:14:13.000Z</time>
      </trkpt>
      <trkpt lat="47.51148" lon="6.73778">
        <ele>435.9</ele>
        <time>2014-06-08T10:14:14.000Z</time>
      </trkpt>
      <trkpt lat="47.51146" lon="6.73773">
        <ele>436.7</ele>
        <time>2014-06-08T10:14:15.000Z</time>
      </trkpt>
      <trkpt lat="47.51143" lon="6.73769">
        <ele>435.7</ele>
        <time>2014-06-08T10:14:16.000Z</time>
      </trkpt>
      <trkpt lat="47.51141" lon="6.73764">
        <ele>435.7</ele>
        <time>2014-06-08T10:14:17.000Z</time>
      </trkpt>
      <trkpt lat="47.51137" lon="6.7376">
        <ele>434.5</ele>
        <time>2014-06-08T10:14:18.000Z</time>
      </trkpt>
      <trkpt lat="47.51134" lon="6.73756">
        <ele>433.8</ele>
        <time>2014-06-08T10:14:19.000Z</time>
      </trkpt>
      <trkpt lat="47.5113" lon="6.73753">
        <ele>432.9</ele>
        <time>2014-06-08T10:14:20.000Z</time>
      </trkpt>
      <trkpt lat="47.51126" lon="6.7375">
        <ele>432.4</ele>
        <time>2014-06-08T10:14:21.000Z</time>
      </trkpt>
      <trkpt lat="47.51123" lon="6.73748">
        <ele>432.4</ele>
        <time>2014-06-08T10:14:22.000Z</time>
      </trkpt>
      <trkpt lat="47.51119" lon="6.73746">
        <ele>430.9</ele>
        <time>2014-06-08T10:14:23.000Z</time>
      </trkpt>
      <trkpt lat="47.51114" lon="6.73745">
        <ele>429.9</ele>
        <time>2014-06-08T10:14:24.000Z</time>
      </trkpt>
      <trkpt lat="47.5111" lon="6.73743">
        <ele>428.9</ele>
        <time>2014-06-08T10:14:25.000Z</time>
      </trkpt>
      <trkpt lat="47.51105" lon="6.73742">
        <ele>426.3</ele>
        <time>2014-06-08T10:14:26.000Z</time>
      </trkpt>
      <trkpt lat="47.51099" lon="6.73741">
        <ele>424.8</ele>
        <time>2014-06-08T10:14:27.000Z</time>
      </trkpt>
      <trkpt lat="47.51093" lon="6.73739">
        <ele>421.8</ele>
        <time>2014-06-08T10:14:28.000Z</time>
      </trkpt>
      <trkpt lat="47.51087" lon="6.73737">
        <ele>418</ele>
        <time>2014-06-08T10:14:29.000Z</time>
      </trkpt>
      <trkpt lat="47.51081" lon="6.73735">
        <ele>416.9</ele>
        <time>2014-06-08T10:14:30.000Z</time>
      </trkpt>
      <trkpt lat="47.51074" lon="6.73732">
        <ele>413</ele>
        <time>2014-06-08T10:14:31.000Z</time>
      </trkpt>
      <trkpt lat="47.51067" lon="6.73728">
        <ele>409.3</ele>
        <time>2014-06-08T10:14:32.000Z</time>
      </trkpt>
      <trkpt lat="47.51042" lon="6.73708">
        <ele>407.5</ele>
        <time>2014-06-08T10:14:33.000Z</time>
      </trkpt>
      <trkpt lat="47.51033" lon="6.73702">
        <ele>403.8</ele>
        <time>2014-06-08T10:14:34.000Z</time>
      </trkpt>
      <trkpt lat="47.51025" lon="6.73694">
        <ele>399</ele>
        <time>2014-06-08T10:14:35.000Z</time>
      </trkpt>
      <trkpt lat="47.51017" lon="6.73688">
        <ele>394.9</ele>
        <time>2014-06-08T10:14:36.000Z</time>
      </trkpt>
      <trkpt lat="47.51008" lon="6.73682">
        <ele>392.7</ele>
        <time>2014-06-08T10:14:37.000Z</time>
      </trkpt>
      <trkpt lat="47.50999" lon="6.73678">
        <ele>390.9</ele>
        <time>2014-06-08T10:14:38.000Z</time>
      </trkpt>
      <trkpt lat="47.50991" lon="6.73673">
        <ele>387.9</ele>
        <time>2014-06-08T10:14:39.000Z</time>
      </trkpt>
      <trkpt lat="47.50982" lon="6.73667">
        <ele>385.2</ele>
        <time>2014-06-08T10:14:40.000Z</time>
      </trkpt>
      <trkpt lat="47.5093" lon="6.73642">
        <ele>379.3</ele>
        <time>2014-06-08T10:14:48.000Z</time>
      </trkpt>
      <trkpt lat="47.50926" lon="6.73641">
        <ele>379</ele>
        <time>2014-06-08T10:14:49.000Z</time>
      </trkpt>
      <trkpt lat="47.50921" lon="6.73639">
        <ele>378.5</ele>
        <time>2014-06-08T10:14:50.000Z</time>
      </trkpt>
      <trkpt lat="47.50918" lon="6.73639">
        <ele>378.6</ele>
        <time>2014-06-08T10:14:51.000Z</time>
      </trkpt>
      <trkpt lat="47.50916" lon="6.73636">
        <ele>379</ele>
        <time>2014-06-08T10:14:52.000Z</time>
      </trkpt>
      <trkpt lat="47.50913" lon="6.73633">
        <ele>378.5</ele>
        <time>2014-06-08T10:14:54.000Z</time>
      </trkpt>
      <trkpt lat="47.50911" lon="6.73632">
        <ele>378.6</ele>
        <time>2014-06-08T10:14:55.000Z</time>
      </trkpt>
      <trkpt lat="47.50909" lon="6.7363">
        <ele>378.6</ele>
        <time>2014-06-08T10:14:56.001Z</time>
      </trkpt>
      <trkpt lat="47.50907" lon="6.73627">
        <ele>375.8</ele>
        <time>2014-06-08T10:14:57.000Z</time>
      </trkpt>
      <trkpt lat="47.50904" lon="6.73624">
        <ele>373.8</ele>
        <time>2014-06-08T10:14:58.000Z</time>
      </trkpt>
      <trkpt lat="47.50901" lon="6.73621">
        <ele>373</ele>
        <time>2014-06-08T10:14:59.000Z</time>
      </trkpt>
      <trkpt lat="47.50899" lon="6.73616">
        <ele>372.3</ele>
        <time>2014-06-08T10:15:00.000Z</time>
      </trkpt>
      <trkpt lat="47.50896" lon="6.73612">
        <ele>371.7</ele>
        <time>2014-06-08T10:15:01.000Z</time>
      </trkpt>
      <trkpt lat="47.50894" lon="6.73607">
        <ele>372.3</ele>
        <time>2014-06-08T10:15:02.000Z</time>
      </trkpt>
      <trkpt lat="47.50892" lon="6.73602">
        <ele>372.5</ele>
        <time>2014-06-08T10:15:03.000Z</time>
      </trkpt>
      <trkpt lat="47.50889" lon="6.73597">
        <ele>372.6</ele>
        <time>2014-06-08T10:15:04.000Z</time>
      </trkpt>
      <trkpt lat="47.50887" lon="6.73593">
        <ele>372.8</ele>
        <time>2014-06-08T10:15:05.000Z</time>
      </trkpt>
      <trkpt lat="47.50884" lon="6.73589">
        <ele>373.2</ele>
        <time>2014-06-08T10:15:06.000Z</time>
      </trkpt>
      <trkpt lat="47.50882" lon="6.73585">
        <ele>373.5</ele>
        <time>2014-06-08T10:15:07.000Z</time>
      </trkpt>
      <trkpt lat="47.5088" lon="6.73582">
        <ele>373.1</ele>
        <time>2014-06-08T10:15:08.000Z</time>
      </trkpt>
      <trkpt lat="47.50879" lon="6.73578">
        <ele>373.1</ele>
        <time>2014-06-08T10:15:09.000Z</time>
      </trkpt>
      <trkpt lat="47.50877" lon="6.73575">
        <ele>373.7</ele>
        <time>2014-06-08T10:15:10.000Z</time>
      </trkpt>
      <trkpt lat="47.50876" lon="6.73571">
        <ele>372</ele>
        <time>2014-06-08T10:15:11.000Z</time>
      </trkpt>
      <trkpt lat="47.50874" lon="6.73568">
        <ele>371.9</ele>
        <time>2014-06-08T10:15:12.000Z</time>
      </trkpt>
      <trkpt lat="47.50872" lon="6.73565">
        <ele>370.1</ele>
        <time>2014-06-08T10:15:13.000Z</time>
      </trkpt>
      <trkpt lat="47.50869" lon="6.73562">
        <ele>370.5</ele>
        <time>2014-06-08T10:15:14.000Z</time>
      </trkpt>
      <trkpt lat="47.50866" lon="6.73558">
        <ele>370.5</ele>
        <time>2014-06-08T10:15:15.000Z</time>
      </trkpt>
      <trkpt lat="47.50863" lon="6.73554">
        <ele>370.7</ele>
        <time>2014-06-08T10:15:16.000Z</time>
      </trkpt>
      <trkpt lat="47.50859" lon="6.73551">
        <ele>370.8</ele>
        <time>2014-06-08T10:15:17.000Z</time>
      </trkpt>
      <trkpt lat="47.50856" lon="6.73548">
        <ele>373.5</ele>
        <time>2014-06-08T10:15:18.000Z</time>
      </trkpt>
      <trkpt lat="47.50853" lon="6.73545">
        <ele>372.5</ele>
        <time>2014-06-08T10:15:19.000Z</time>
      </trkpt>
      <trkpt lat="47.5085" lon="6.73543">
        <ele>372</ele>
        <time>2014-06-08T10:15:20.000Z</time>
      </trkpt>
      <trkpt lat="47.50846" lon="6.73541">
        <ele>372.3</ele>
        <time>2014-06-08T10:15:21.000Z</time>
      </trkpt>
      <trkpt lat="47.50842" lon="6.73539">
        <ele>372.5</ele>
        <time>2014-06-08T10:15:22.000Z</time>
      </trkpt>
      <trkpt lat="47.50838" lon="6.73537">
        <ele>373.2</ele>
        <time>2014-06-08T10:15:23.000Z</time>
      </trkpt>
      <trkpt lat="47.50835" lon="6.73536">
        <ele>373</ele>
        <time>2014-06-08T10:15:24.000Z</time>
      </trkpt>
      <trkpt lat="47.50831" lon="6.73535">
        <ele>373.1</ele>
        <time>2014-06-08T10:15:25.000Z</time>
      </trkpt>
      <trkpt lat="47.50827" lon="6.73534">
        <ele>373.1</ele>
        <time>2014-06-08T10:15:26.000Z</time>
      </trkpt>
      <trkpt lat="47.50824" lon="6.73534">
        <ele>373.7</ele>
        <time>2014-06-08T10:15:27.000Z</time>
      </trkpt>
      <trkpt lat="47.5082" lon="6.73534">
        <ele>373.7</ele>
        <time>2014-06-08T10:15:28.000Z</time>
      </trkpt>
      <trkpt lat="47.50816" lon="6.73534">
        <ele>374</ele>
        <time>2014-06-08T10:15:29.000Z</time>
      </trkpt>
      <trkpt lat="47.50813" lon="6.73534">
        <ele>374.3</ele>
        <time>2014-06-08T10:15:30.000Z</time>
      </trkpt>
      <trkpt lat="47.5081" lon="6.73535">
        <ele>375</ele>
        <time>2014-06-08T10:15:31.000Z</time>
      </trkpt>
      <trkpt lat="47.50806" lon="6.73535">
        <ele>375.3</ele>
        <time>2014-06-08T10:15:32.000Z</time>
      </trkpt>
      <trkpt lat="47.50803" lon="6.73536">
        <ele>375.9</ele>
        <time>2014-06-08T10:15:33.000Z</time>
      </trkpt>
      <trkpt lat="47.508" lon="6.73537">
        <ele>372.2</ele>
        <time>2014-06-08T10:15:34.000Z</time>
      </trkpt>
      <trkpt lat="47.50797" lon="6.73538">
        <ele>370.7</ele>
        <time>2014-06-08T10:15:35.000Z</time>
      </trkpt>
      <trkpt lat="47.50793" lon="6.73539">
        <ele>371.1</ele>
        <time>2014-06-08T10:15:36.000Z</time>
      </trkpt>
      <trkpt lat="47.50789" lon="6.7354">
        <ele>371.2</ele>
        <time>2014-06-08T10:15:37.000Z</time>
      </trkpt>
      <trkpt lat="47.50785" lon="6.73541">
        <ele>371.6</ele>
        <time>2014-06-08T10:15:38.000Z</time>
      </trkpt>
      <trkpt lat="47.50781" lon="6.73542">
        <ele>371.4</ele>
        <time>2014-06-08T10:15:39.000Z</time>
      </trkpt>
      <trkpt lat="47.50777" lon="6.73544">
        <ele>371.9</ele>
        <time>2014-06-08T10:15:40.000Z</time>
      </trkpt>
      <trkpt lat="47.50749" lon="6.7356">
        <ele>372.1</ele>
        <time>2014-06-08T10:15:48.000Z</time>
      </trkpt>
      <trkpt lat="47.50746" lon="6.73562">
        <ele>372.4</ele>
        <time>2014-06-08T10:15:49.000Z</time>
      </trkpt>
      <trkpt lat="47.50743" lon="6.73564">
        <ele>372.6</ele>
        <time>2014-06-08T10:15:50.000Z</time>
      </trkpt>
      <trkpt lat="47.50739" lon="6.73566">
        <ele>372.8</ele>
        <time>2014-06-08T10:15:51.000Z</time>
      </trkpt>
      <trkpt lat="47.50735" lon="6.73568">
        <ele>372.8</ele>
        <time>2014-06-08T10:15:52.000Z</time>
      </trkpt>
      <trkpt lat="47.50731" lon="6.7357">
        <ele>372.9</ele>
        <time>2014-06-08T10:15:53.000Z</time>
      </trkpt>
      <trkpt lat="47.50727" lon="6.73573">
        <ele>373</ele>
        <time>2014-06-08T10:15:54.000Z</time>
      </trkpt>
      <trkpt lat="47.50723" lon="6.73575">
        <ele>372.8</ele>
        <time>2014-06-08T10:15:55.000Z</time>
      </trkpt>
      <trkpt lat="47.50719" lon="6.73577">
        <ele>373.3</ele>
        <time>2014-06-08T10:15:56.000Z</time>
      </trkpt>
      <trkpt lat="47.50715" lon="6.7358">
        <ele>373.3</ele>
        <time>2014-06-08T10:15:57.000Z</time>
      </trkpt>
      <trkpt lat="47.50711" lon="6.73583">
        <ele>373.2</ele>
        <time>2014-06-08T10:15:58.000Z</time>
      </trkpt>
      <trkpt lat="47.50707" lon="6.73585">
        <ele>373.4</ele>
        <time>2014-06-08T10:15:59.000Z</time>
      </trkpt>
      <trkpt lat="47.50703" lon="6.73588">
        <ele>373.5</ele>
        <time>2014-06-08T10:16:00.000Z</time>
      </trkpt>
      <trkpt lat="47.507" lon="6.73591">
        <ele>373.7</ele>
        <time>2014-06-08T10:16:01.000Z</time>
      </trkpt>
      <trkpt lat="47.50696" lon="6.73594">
        <ele>373.8</ele>
        <time>2014-06-08T10:16:02.000Z</time>
      </trkpt>
      <trkpt lat="47.50692" lon="6.73597">
        <ele>373.8</ele>
        <time>2014-06-08T10:16:03.000Z</time>
      </trkpt>
      <trkpt lat="47.50689" lon="6.736">
        <ele>373.5</ele>
        <time>2014-06-08T10:16:04.000Z</time>
      </trkpt>
      <trkpt lat="47.50685" lon="6.73603">
        <ele>373.5</ele>
        <time>2014-06-08T10:16:05.000Z</time>
      </trkpt>
      <trkpt lat="47.50682" lon="6.73605">
        <ele>372.4</ele>
        <time>2014-06-08T10:16:06.000Z</time>
      </trkpt>
      <trkpt lat="47.50678" lon="6.73608">
        <ele>371.2</ele>
        <time>2014-06-08T10:16:07.000Z</time>
      </trkpt>
      <trkpt lat="47.50675" lon="6.73611">
        <ele>371.2</ele>
        <time>2014-06-08T10:16:08.000Z</time>
      </trkpt>
      <trkpt lat="47.50671" lon="6.73615">
        <ele>370.7</ele>
        <time>2014-06-08T10:16:09.000Z</time>
      </trkpt>
      <trkpt lat="47.50668" lon="6.73618">
        <ele>370.7</ele>
        <time>2014-06-08T10:16:10.000Z</time>
      </trkpt>
      <trkpt lat="47.50666" lon="6.73622">
        <ele>371.3</ele>
        <time>2014-06-08T10:16:11.000Z</time>
      </trkpt>
      <trkpt lat="47.50664" lon="6.73625">
        <ele>371.6</ele>
        <time>2014-06-08T10:16:12.000Z</time>
      </trkpt>
      <trkpt lat="47.50662" lon="6.7363">
        <ele>373.1</ele>
        <time>2014-06-08T10:16:13.000Z</time>
      </trkpt>
      <trkpt lat="47.50661" lon="6.73634">
        <ele>373.2</ele>
        <time>2014-06-08T10:16:14.000Z</time>
      </trkpt>
      <trkpt lat="47.5066" lon="6.7364">
        <ele>373.5</ele>
        <time>2014-06-08T10:16:15.000Z</time>
      </trkpt>
      <trkpt lat="47.5066" lon="6.73645">
        <ele>373.4</ele>
        <time>2014-06-08T10:16:16.000Z</time>
      </trkpt>
      <trkpt lat="47.5066" lon="6.73651">
        <ele>373.3</ele>
        <time>2014-06-08T10:16:17.000Z</time>
      </trkpt>
      <trkpt lat="47.5066" lon="6.73656">
        <ele>373.3</ele>
        <time>2014-06-08T10:16:18.000Z</time>
      </trkpt>
      <trkpt lat="47.5066" lon="6.73662">
        <ele>373.3</ele>
        <time>2014-06-08T10:16:19.000Z</time>
      </trkpt>
      <trkpt lat="47.50661" lon="6.73667">
        <ele>372.5</ele>
        <time>2014-06-08T10:16:20.000Z</time>
      </trkpt>
      <trkpt lat="47.50661" lon="6.73673">
        <ele>371.8</ele>
        <time>2014-06-08T10:16:21.000Z</time>
      </trkpt>
      <trkpt lat="47.50661" lon="6.73678">
        <ele>370.9</ele>
        <time>2014-06-08T10:16:22.000Z</time>
      </trkpt>
      <trkpt lat="47.5066" lon="6.73684">
        <ele>370.8</ele>
        <time>2014-06-08T10:16:23.000Z</time>
      </trkpt>
      <trkpt lat="47.5066" lon="6.7369">
        <ele>370.4</ele>
        <time>2014-06-08T10:16:24.000Z</time>
      </trkpt>
      <trkpt lat="47.5066" lon="6.73696">
        <ele>370.4</ele>
        <time>2014-06-08T10:16:25.000Z</time>
      </trkpt>
      <trkpt lat="47.5066" lon="6.73703">
        <ele>370.1</ele>
        <time>2014-06-08T10:16:26.000Z</time>
      </trkpt>
      <trkpt lat="47.5066" lon="6.73709">
        <ele>370.3</ele>
        <time>2014-06-08T10:16:27.000Z</time>
      </trkpt>
      <trkpt lat="47.5066" lon="6.73716">
        <ele>370.7</ele>
        <time>2014-06-08T10:16:28.000Z</time>
      </trkpt>
      <trkpt lat="47.5066" lon="6.73723">
        <ele>370.3</ele>
        <time>2014-06-08T10:16:29.000Z</time>
      </trkpt>
      <trkpt lat="47.5066" lon="6.73729">
        <ele>370</ele>
        <time>2014-06-08T10:16:30.000Z</time>
      </trkpt>
      <trkpt lat="47.50659" lon="6.73736">
        <ele>369.6</ele>
        <time>2014-06-08T10:16:31.000Z</time>
      </trkpt>
      <trkpt lat="47.50659" lon="6.73743">
        <ele>369.4</ele>
        <time>2014-06-08T10:16:32.000Z</time>
      </trkpt>
      <trkpt lat="47.50659" lon="6.7375">
        <ele>369.3</ele>
        <time>2014-06-08T10:16:33.000Z</time>
      </trkpt>
      <trkpt lat="47.50658" lon="6.73757">
        <ele>369.2</ele>
        <time>2014-06-08T10:16:34.000Z</time>
      </trkpt>
      <trkpt lat="47.50658" lon="6.73763">
        <ele>369.3</ele>
        <time>2014-06-08T10:16:35.000Z</time>
      </trkpt>
      <trkpt lat="47.50657" lon="6.7377">
        <ele>368.3</ele>
        <time>2014-06-08T10:16:36.000Z</time>
      </trkpt>
      <trkpt lat="47.50658" lon="6.73777">
        <ele>367.8</ele>
        <time>2014-06-08T10:16:37.000Z</time>
      </trkpt>
      <trkpt lat="47.50658" lon="6.73782">
        <ele>367.2</ele>
        <time>2014-06-08T10:16:38.000Z</time>
      </trkpt>
      <trkpt lat="47.50658" lon="6.73789">
        <ele>367</ele>
        <time>2014-06-08T10:16:39.000Z</time>
      </trkpt>
      <trkpt lat="47.50657" lon="6.73797">
        <ele>366.4</ele>
        <time>2014-06-08T10:16:40.000Z</time>
      </trkpt>
      <trkpt lat="47.50656" lon="6.73816">
        <ele>365.6</ele>
        <time>2014-06-08T10:16:43.000Z</time>
      </trkpt>
      <trkpt lat="47.50655" lon="6.73825">
        <ele>364.8</ele>
        <time>2014-06-08T10:16:44.000Z</time>
      </trkpt>
      <trkpt lat="47.50654" lon="6.73832">
        <ele>363.1</ele>
        <time>2014-06-08T10:16:45.000Z</time>
      </trkpt>
      <trkpt lat="47.50653" lon="6.7384">
        <ele>362.7</ele>
        <time>2014-06-08T10:16:46.000Z</time>
      </trkpt>
      <trkpt lat="47.50652" lon="6.73848">
        <ele>361.6</ele>
        <time>2014-06-08T10:16:47.000Z</time>
      </trkpt>
      <trkpt lat="47.50652" lon="6.73857">
        <ele>361.3</ele>
        <time>2014-06-08T10:16:48.000Z</time>
      </trkpt>
      <trkpt lat="47.5065" lon="6.73866">
        <ele>360.7</ele>
        <time>2014-06-08T10:16:49.000Z</time>
      </trkpt>
      <trkpt lat="47.50648" lon="6.73873">
        <ele>360.9</ele>
        <time>2014-06-08T10:16:49.999Z</time>
      </trkpt>
      <trkpt lat="47.50646" lon="6.73881">
        <ele>362.1</ele>
        <time>2014-06-08T10:16:51.000Z</time>
      </trkpt>
      <trkpt lat="47.50643" lon="6.73887">
        <ele>361.8</ele>
        <time>2014-06-08T10:16:52.000Z</time>
      </trkpt>
      <trkpt lat="47.50642" lon="6.73894">
        <ele>363.1</ele>
        <time>2014-06-08T10:16:53.000Z</time>
      </trkpt>
      <trkpt lat="47.50639" lon="6.739">
        <ele>362.9</ele>
        <time>2014-06-08T10:16:54.000Z</time>
      </trkpt>
      <trkpt lat="47.50636" lon="6.73906">
        <ele>363.4</ele>
        <time>2014-06-08T10:16:55.000Z</time>
      </trkpt>
      <trkpt lat="47.50635" lon="6.73912">
        <ele>365.2</ele>
        <time>2014-06-08T10:16:56.000Z</time>
      </trkpt>
      <trkpt lat="47.50634" lon="6.73917">
        <ele>365.9</ele>
        <time>2014-06-08T10:16:57.000Z</time>
      </trkpt>
      <trkpt lat="47.50632" lon="6.73922">
        <ele>366.5</ele>
        <time>2014-06-08T10:16:58.000Z</time>
      </trkpt>
      <trkpt lat="47.5063" lon="6.73928">
        <ele>366.7</ele>
        <time>2014-06-08T10:16:59.000Z</time>
      </trkpt>
      <trkpt lat="47.50627" lon="6.73936">
        <ele>370.8</ele>
        <time>2014-06-08T10:17:00.000Z</time>
      </trkpt>
      <trkpt lat="47.50625" lon="6.73942">
        <ele>370.7</ele>
        <time>2014-06-08T10:17:01.000Z</time>
      </trkpt>
      <trkpt lat="47.50623" lon="6.73949">
        <ele>370.7</ele>
        <time>2014-06-08T10:17:02.000Z</time>
      </trkpt>
      <trkpt lat="47.50619" lon="6.73956">
        <ele>369.8</ele>
        <time>2014-06-08T10:17:03.000Z</time>
      </trkpt>
      <trkpt lat="47.50617" lon="6.73962">
        <ele>370.4</ele>
        <time>2014-06-08T10:17:04.000Z</time>
      </trkpt>
      <trkpt lat="47.50615" lon="6.7397">
        <ele>374.1</ele>
        <time>2014-06-08T10:17:05.000Z</time>
      </trkpt>
      <trkpt lat="47.50613" lon="6.73977">
        <ele>375.9</ele>
        <time>2014-06-08T10:17:06.000Z</time>
      </trkpt>
      <trkpt lat="47.50609" lon="6.73984">
        <ele>375.1</ele>
        <time>2014-06-08T10:17:07.000Z</time>
      </trkpt>
      <trkpt lat="47.50607" lon="6.7399">
        <ele>374.9</ele>
        <time>2014-06-08T10:17:08.000Z</time>
      </trkpt>
      <trkpt lat="47.50603" lon="6.73997">
        <ele>375.2</ele>
        <time>2014-06-08T10:17:09.000Z</time>
      </trkpt>
      <trkpt lat="47.506" lon="6.74003">
        <ele>374.6</ele>
        <time>2014-06-08T10:17:10.000Z</time>
      </trkpt>
      <trkpt lat="47.50597" lon="6.7401">
        <ele>372.1</ele>
        <time>2014-06-08T10:17:11.000Z</time>
      </trkpt>
      <trkpt lat="47.50594" lon="6.74018">
        <ele>372.3</ele>
        <time>2014-06-08T10:17:12.000Z</time>
      </trkpt>
      <trkpt lat="47.50591" lon="6.74026">
        <ele>372.4</ele>
        <time>2014-06-08T10:17:13.000Z</time>
      </trkpt>
      <trkpt lat="47.50588" lon="6.74032">
        <ele>372.4</ele>
        <time>2014-06-08T10:17:14.000Z</time>
      </trkpt>
      <trkpt lat="47.50585" lon="6.74039">
        <ele>371.2</ele>
        <time>2014-06-08T10:17:15.000Z</time>
      </trkpt>
      <trkpt lat="47.50582" lon="6.74046">
        <ele>371.1</ele>
        <time>2014-06-08T10:17:16.000Z</time>
      </trkpt>
      <trkpt lat="47.50579" lon="6.74052">
        <ele>371.3</ele>
        <time>2014-06-08T10:17:17.000Z</time>
      </trkpt>
      <trkpt lat="47.50576" lon="6.74058">
        <ele>371.2</ele>
        <time>2014-06-08T10:17:18.000Z</time>
      </trkpt>
      <trkpt lat="47.50573" lon="6.74064">
        <ele>371.4</ele>
        <time>2014-06-08T10:17:19.000Z</time>
      </trkpt>
      <trkpt lat="47.50571" lon="6.74071">
        <ele>371.5</ele>
        <time>2014-06-08T10:17:20.000Z</time>
      </trkpt>
      <trkpt lat="47.50568" lon="6.74077">
        <ele>370.6</ele>
        <time>2014-06-08T10:17:21.000Z</time>
      </trkpt>
      <trkpt lat="47.50564" lon="6.74084">
        <ele>371.7</ele>
        <time>2014-06-08T10:17:22.000Z</time>
      </trkpt>
      <trkpt lat="47.50561" lon="6.7409">
        <ele>372.2</ele>
        <time>2014-06-08T10:17:23.000Z</time>
      </trkpt>
      <trkpt lat="47.50558" lon="6.74097">
        <ele>373</ele>
        <time>2014-06-08T10:17:24.000Z</time>
      </trkpt>
      <trkpt lat="47.50556" lon="6.74102">
        <ele>373.5</ele>
        <time>2014-06-08T10:17:25.000Z</time>
      </trkpt>
      <trkpt lat="47.50553" lon="6.74107">
        <ele>373.1</ele>
        <time>2014-06-08T10:17:26.000Z</time>
      </trkpt>
      <trkpt lat="47.50551" lon="6.74113">
        <ele>372.9</ele>
        <time>2014-06-08T10:17:27.000Z</time>
      </trkpt>
      <trkpt lat="47.50551" lon="6.74118">
        <ele>372.2</ele>
        <time>2014-06-08T10:17:28.000Z</time>
      </trkpt>
      <trkpt lat="47.50548" lon="6.74124">
        <ele>373.1</ele>
        <time>2014-06-08T10:17:29.000Z</time>
      </trkpt>
      <trkpt lat="47.50545" lon="6.74131">
        <ele>373.8</ele>
        <time>2014-06-08T10:17:30.000Z</time>
      </trkpt>
      <trkpt lat="47.50542" lon="6.74136">
        <ele>373.9</ele>
        <time>2014-06-08T10:17:31.000Z</time>
      </trkpt>
      <trkpt lat="47.5054" lon="6.7414">
        <ele>371.7</ele>
        <time>2014-06-08T10:17:32.000Z</time>
      </trkpt>
      <trkpt lat="47.50537" lon="6.74143">
        <ele>371</ele>
        <time>2014-06-08T10:17:33.000Z</time>
      </trkpt>
      <trkpt lat="47.50534" lon="6.74146">
        <ele>370.9</ele>
        <time>2014-06-08T10:17:34.000Z</time>
      </trkpt>
      <trkpt lat="47.50532" lon="6.74151">
        <ele>372.8</ele>
        <time>2014-06-08T10:17:35.000Z</time>
      </trkpt>
      <trkpt lat="47.50528" lon="6.7416">
        <ele>373.2</ele>
        <time>2014-06-08T10:17:36.000Z</time>
      </trkpt>
      <trkpt lat="47.50525" lon="6.74166">
        <ele>372</ele>
        <time>2014-06-08T10:17:37.000Z</time>
      </trkpt>
      <trkpt lat="47.50523" lon="6.74172">
        <ele>371.4</ele>
        <time>2014-06-08T10:17:37.999Z</time>
      </trkpt>
      <trkpt lat="47.50518" lon="6.74175">
        <ele>367.9</ele>
        <time>2014-06-08T10:17:39.000Z</time>
      </trkpt>
      <trkpt lat="47.50515" lon="6.7418">
        <ele>367.5</ele>
        <time>2014-06-08T10:17:40.000Z</time>
      </trkpt>
      <trkpt lat="47.50507" lon="6.74203">
        <ele>359.2</ele>
        <time>2014-06-08T10:17:48.000Z</time>
      </trkpt>
      <trkpt lat="47.50505" lon="6.74206">
        <ele>360</ele>
        <time>2014-06-08T10:17:49.000Z</time>
      </trkpt>
      <trkpt lat="47.50502" lon="6.74211">
        <ele>360.5</ele>
        <time>2014-06-08T10:17:50.000Z</time>
      </trkpt>
      <trkpt lat="47.50498" lon="6.74217">
        <ele>360.3</ele>
        <time>2014-06-08T10:17:51.000Z</time>
      </trkpt>
      <trkpt lat="47.50496" lon="6.74222">
        <ele>360.7</ele>
        <time>2014-06-08T10:17:52.000Z</time>
      </trkpt>
      <trkpt lat="47.50493" lon="6.74225">
        <ele>361.4</ele>
        <time>2014-06-08T10:17:53.000Z</time>
      </trkpt>
      <trkpt lat="47.50489" lon="6.74233">
        <ele>362.5</ele>
        <time>2014-06-08T10:17:54.000Z</time>
      </trkpt>
      <trkpt lat="47.50486" lon="6.7424">
        <ele>364.4</ele>
        <time>2014-06-08T10:17:55.000Z</time>
      </trkpt>
      <trkpt lat="47.50483" lon="6.74246">
        <ele>365.1</ele>
        <time>2014-06-08T10:17:56.000Z</time>
      </trkpt>
      <trkpt lat="47.50481" lon="6.74251">
        <ele>367.9</ele>
        <time>2014-06-08T10:17:57.000Z</time>
      </trkpt>
      <trkpt lat="47.50479" lon="6.74256">
        <ele>368.3</ele>
        <time>2014-06-08T10:17:58.000Z</time>
      </trkpt>
      <trkpt lat="47.50476" lon="6.74267">
        <ele>368.4</ele>
        <time>2014-06-08T10:17:59.000Z</time>
      </trkpt>
      <trkpt lat="47.50473" lon="6.74274">
        <ele>368.3</ele>
        <time>2014-06-08T10:18:00.000Z</time>
      </trkpt>
      <trkpt lat="47.50469" lon="6.74281">
        <ele>367.9</ele>
        <time>2014-06-08T10:18:01.000Z</time>
      </trkpt>
      <trkpt lat="47.50466" lon="6.7429">
        <ele>368.3</ele>
        <time>2014-06-08T10:18:02.000Z</time>
      </trkpt>
      <trkpt lat="47.50463" lon="6.74299">
        <ele>368.2</ele>
        <time>2014-06-08T10:18:03.000Z</time>
      </trkpt>
      <trkpt lat="47.5046" lon="6.74307">
        <ele>367.7</ele>
        <time>2014-06-08T10:18:04.000Z</time>
      </trkpt>
      <trkpt lat="47.50456" lon="6.74315">
        <ele>366.5</ele>
        <time>2014-06-08T10:18:05.000Z</time>
      </trkpt>
      <trkpt lat="47.50452" lon="6.74322">
        <ele>367</ele>
        <time>2014-06-08T10:18:06.000Z</time>
      </trkpt>
      <trkpt lat="47.50449" lon="6.74329">
        <ele>366.4</ele>
        <time>2014-06-08T10:18:07.000Z</time>
      </trkpt>
      <trkpt lat="47.50445" lon="6.74335">
        <ele>366.6</ele>
        <time>2014-06-08T10:18:08.000Z</time>
      </trkpt>
      <trkpt lat="47.50442" lon="6.74341">
        <ele>367</ele>
        <time>2014-06-08T10:18:09.000Z</time>
      </trkpt>
      <trkpt lat="47.50439" lon="6.74347">
        <ele>368.1</ele>
        <time>2014-06-08T10:18:10.000Z</time>
      </trkpt>
      <trkpt lat="47.50436" lon="6.74353">
        <ele>370.3</ele>
        <time>2014-06-08T10:18:11.000Z</time>
      </trkpt>
      <trkpt lat="47.50434" lon="6.7436">
        <ele>368.2</ele>
        <time>2014-06-08T10:18:12.000Z</time>
      </trkpt>
      <trkpt lat="47.5043" lon="6.74364">
        <ele>368.8</ele>
        <time>2014-06-08T10:18:13.000Z</time>
      </trkpt>
      <trkpt lat="47.50427" lon="6.74368">
        <ele>368.5</ele>
        <time>2014-06-08T10:18:14.000Z</time>
      </trkpt>
      <trkpt lat="47.50425" lon="6.74375">
        <ele>369.3</ele>
        <time>2014-06-08T10:18:15.000Z</time>
      </trkpt>
      <trkpt lat="47.50421" lon="6.74381">
        <ele>370.6</ele>
        <time>2014-06-08T10:18:16.000Z</time>
      </trkpt>
      <trkpt lat="47.50419" lon="6.74387">
        <ele>369.8</ele>
        <time>2014-06-08T10:18:17.000Z</time>
      </trkpt>
      <trkpt lat="47.50417" lon="6.74392">
        <ele>370.6</ele>
        <time>2014-06-08T10:18:18.000Z</time>
      </trkpt>
      <trkpt lat="47.50415" lon="6.74397">
        <ele>371.3</ele>
        <time>2014-06-08T10:18:19.000Z</time>
      </trkpt>
      <trkpt lat="47.50414" lon="6.74403">
        <ele>371</ele>
        <time>2014-06-08T10:18:20.000Z</time>
      </trkpt>
      <trkpt lat="47.50412" lon="6.74408">
        <ele>370.9</ele>
        <time>2014-06-08T10:18:21.000Z</time>
      </trkpt>
      <trkpt lat="47.5041" lon="6.74415">
        <ele>371.3</ele>
        <time>2014-06-08T10:18:23.000Z</time>
      </trkpt>
      <trkpt lat="47.50408" lon="6.74414">
        <ele>368.4</ele>
        <time>2014-06-08T10:18:24.000Z</time>
      </trkpt>
      <trkpt lat="47.50406" lon="6.7442">
        <ele>368.2</ele>
        <time>2014-06-08T10:22:36.000Z</time>
      </trkpt>
      <trkpt lat="47.50406" lon="6.74422">
        <ele>367.8</ele>
        <time>2014-06-08T10:22:37.000Z</time>
      </trkpt>
      <trkpt lat="47.50407" lon="6.74427">
        <ele>366.8</ele>
        <time>2014-06-08T10:22:39.000Z</time>
      </trkpt>
      <trkpt lat="47.50408" lon="6.74428">
        <ele>364.3</ele>
        <time>2014-06-08T10:22:40.000Z</time>
      </trkpt>
      <trkpt lat="47.50439" lon="6.74437">
        <ele>363.6</ele>
        <time>2014-06-08T10:22:48.000Z</time>
      </trkpt>
      <trkpt lat="47.50444" lon="6.74439">
        <ele>363.1</ele>
        <time>2014-06-08T10:22:49.000Z</time>
      </trkpt>
      <trkpt lat="47.50447" lon="6.74446">
        <ele>362.7</ele>
        <time>2014-06-08T10:22:50.000Z</time>
      </trkpt>
      <trkpt lat="47.50448" lon="6.74452">
        <ele>362.7</ele>
        <time>2014-06-08T10:22:51.000Z</time>
      </trkpt>
      <trkpt lat="47.50448" lon="6.74459">
        <ele>361.4</ele>
        <time>2014-06-08T10:22:52.000Z</time>
      </trkpt>
      <trkpt lat="47.50449" lon="6.74466">
        <ele>360.6</ele>
        <time>2014-06-08T10:22:53.000Z</time>
      </trkpt>
      <trkpt lat="47.5045" lon="6.74474">
        <ele>360</ele>
        <time>2014-06-08T10:22:54.000Z</time>
      </trkpt>
      <trkpt lat="47.50451" lon="6.74482">
        <ele>359.8</ele>
        <time>2014-06-08T10:22:55.000Z</time>
      </trkpt>
      <trkpt lat="47.50451" lon="6.74489">
        <ele>360.1</ele>
        <time>2014-06-08T10:22:56.000Z</time>
      </trkpt>
      <trkpt lat="47.50452" lon="6.74496">
        <ele>360.7</ele>
        <time>2014-06-08T10:22:57.000Z</time>
      </trkpt>
      <trkpt lat="47.50452" lon="6.74503">
        <ele>361.5</ele>
        <time>2014-06-08T10:22:58.000Z</time>
      </trkpt>
      <trkpt lat="47.50453" lon="6.7451">
        <ele>361.7</ele>
        <time>2014-06-08T10:22:59.000Z</time>
      </trkpt>
      <trkpt lat="47.50453" lon="6.74518">
        <ele>361.3</ele>
        <time>2014-06-08T10:23:00.000Z</time>
      </trkpt>
      <trkpt lat="47.50454" lon="6.74526">
        <ele>360.4</ele>
        <time>2014-06-08T10:23:01.000Z</time>
      </trkpt>
      <trkpt lat="47.50454" lon="6.74534">
        <ele>359.9</ele>
        <time>2014-06-08T10:23:02.000Z</time>
      </trkpt>
      <trkpt lat="47.50454" lon="6.74541">
        <ele>359.3</ele>
        <time>2014-06-08T10:23:03.000Z</time>
      </trkpt>
      <trkpt lat="47.50454" lon="6.74548">
        <ele>359.3</ele>
        <time>2014-06-08T10:23:04.000Z</time>
      </trkpt>
      <trkpt lat="47.50454" lon="6.74556">
        <ele>358.7</ele>
        <time>2014-06-08T10:23:05.000Z</time>
      </trkpt>
      <trkpt lat="47.50455" lon="6.74564">
        <ele>358.4</ele>
        <time>2014-06-08T10:23:06.000Z</time>
      </trkpt>
      <trkpt lat="47.50455" lon="6.74571">
        <ele>357.7</ele>
        <time>2014-06-08T10:23:07.000Z</time>
      </trkpt>
      <trkpt lat="47.50456" lon="6.74579">
        <ele>357.8</ele>
        <time>2014-06-08T10:23:08.000Z</time>
      </trkpt>
      <trkpt lat="47.50456" lon="6.74587">
        <ele>358</ele>
        <time>2014-06-08T10:23:09.000Z</time>
      </trkpt>
      <trkpt lat="47.50457" lon="6.74595">
        <ele>357.7</ele>
        <time>2014-06-08T10:23:10.000Z</time>
      </trkpt>
      <trkpt lat="47.50457" lon="6.74603">
        <ele>357.6</ele>
        <time>2014-06-08T10:23:11.000Z</time>
      </trkpt>
      <trkpt lat="47.50458" lon="6.74611">
        <ele>357.8</ele>
        <time>2014-06-08T10:23:12.000Z</time>
      </trkpt>
      <trkpt lat="47.50458" lon="6.74618">
        <ele>357.9</ele>
        <time>2014-06-08T10:23:13.000Z</time>
      </trkpt>
      <trkpt lat="47.50459" lon="6.74625">
        <ele>357.9</ele>
        <time>2014-06-08T10:23:14.000Z</time>
      </trkpt>
      <trkpt lat="47.5046" lon="6.74634">
        <ele>358.7</ele>
        <time>2014-06-08T10:23:15.000Z</time>
      </trkpt>
      <trkpt lat="47.50462" lon="6.74641">
        <ele>360.4</ele>
        <time>2014-06-08T10:23:15.999Z</time>
      </trkpt>
      <trkpt lat="47.50468" lon="6.74641">
        <ele>358.1</ele>
        <time>2014-06-08T10:23:17.000Z</time>
      </trkpt>
      <trkpt lat="47.50474" lon="6.74641">
        <ele>358.1</ele>
        <time>2014-06-08T10:23:18.000Z</time>
      </trkpt>
      <trkpt lat="47.50479" lon="6.74641">
        <ele>356.8</ele>
        <time>2014-06-08T10:23:19.000Z</time>
      </trkpt>
      <trkpt lat="47.50484" lon="6.74639">
        <ele>355.5</ele>
        <time>2014-06-08T10:23:20.000Z</time>
      </trkpt>
      <trkpt lat="47.5049" lon="6.74637">
        <ele>355.1</ele>
        <time>2014-06-08T10:23:21.000Z</time>
      </trkpt>
      <trkpt lat="47.50496" lon="6.74634">
        <ele>354.7</ele>
        <time>2014-06-08T10:23:22.000Z</time>
      </trkpt>
      <trkpt lat="47.50502" lon="6.74632">
        <ele>354.1</ele>
        <time>2014-06-08T10:23:23.000Z</time>
      </trkpt>
      <trkpt lat="47.50507" lon="6.74633">
        <ele>352.7</ele>
        <time>2014-06-08T10:23:24.000Z</time>
      </trkpt>
      <trkpt lat="47.50511" lon="6.7464">
        <ele>351.7</ele>
        <time>2014-06-08T10:23:25.000Z</time>
      </trkpt>
      <trkpt lat="47.50513" lon="6.74647">
        <ele>352.7</ele>
        <time>2014-06-08T10:23:26.000Z</time>
      </trkpt>
      <trkpt lat="47.50514" lon="6.74656">
        <ele>353.2</ele>
        <time>2014-06-08T10:23:27.000Z</time>
      </trkpt>
      <trkpt lat="47.50513" lon="6.74665">
        <ele>352.7</ele>
        <time>2014-06-08T10:23:28.000Z</time>
      </trkpt>
      <trkpt lat="47.50513" lon="6.74674">
        <ele>352.3</ele>
        <time>2014-06-08T10:23:29.000Z</time>
      </trkpt>
      <trkpt lat="47.50512" lon="6.74683">
        <ele>351.9</ele>
        <time>2014-06-08T10:23:30.000Z</time>
      </trkpt>
      <trkpt lat="47.50512" lon="6.74691">
        <ele>352.2</ele>
        <time>2014-06-08T10:23:31.000Z</time>
      </trkpt>
      <trkpt lat="47.50511" lon="6.747">
        <ele>352.2</ele>
        <time>2014-06-08T10:23:32.000Z</time>
      </trkpt>
      <trkpt lat="47.5051" lon="6.74708">
        <ele>350.4</ele>
        <time>2014-06-08T10:23:33.000Z</time>
      </trkpt>
      <trkpt lat="47.50509" lon="6.74717">
        <ele>349.8</ele>
        <time>2014-06-08T10:23:34.000Z</time>
      </trkpt>
      <trkpt lat="47.50508" lon="6.74725">
        <ele>350</ele>
        <time>2014-06-08T10:23:35.000Z</time>
      </trkpt>
      <trkpt lat="47.50507" lon="6.74732">
        <ele>350.6</ele>
        <time>2014-06-08T10:23:36.000Z</time>
      </trkpt>
      <trkpt lat="47.50506" lon="6.7474">
        <ele>350.3</ele>
        <time>2014-06-08T10:23:37.000Z</time>
      </trkpt>
      <trkpt lat="47.50504" lon="6.74748">
        <ele>350</ele>
        <time>2014-06-08T10:23:38.000Z</time>
      </trkpt>
      <trkpt lat="47.50503" lon="6.74756">
        <ele>349</ele>
        <time>2014-06-08T10:23:39.000Z</time>
      </trkpt>
      <trkpt lat="47.50502" lon="6.74763">
        <ele>347.3</ele>
        <time>2014-06-08T10:23:40.000Z</time>
      </trkpt>
      <trkpt lat="47.50479" lon="6.74824">
        <ele>341.9</ele>
        <time>2014-06-08T10:23:48.000Z</time>
      </trkpt>
      <trkpt lat="47.50477" lon="6.74828">
        <ele>342.3</ele>
        <time>2014-06-08T10:23:49.000Z</time>
      </trkpt>
      <trkpt lat="47.50477" lon="6.74833">
        <ele>344.3</ele>
        <time>2014-06-08T10:23:50.000Z</time>
      </trkpt>
      <trkpt lat="47.50477" lon="6.74837">
        <ele>343.9</ele>
        <time>2014-06-08T10:23:51.000Z</time>
      </trkpt>
      <trkpt lat="47.50479" lon="6.74841">
        <ele>344.4</ele>
        <time>2014-06-08T10:23:52.000Z</time>
      </trkpt>
      <trkpt lat="47.50481" lon="6.74845">
        <ele>344.2</ele>
        <time>2014-06-08T10:23:53.000Z</time>
      </trkpt>
      <trkpt lat="47.50484" lon="6.74851">
        <ele>344.9</ele>
        <time>2014-06-08T10:23:54.000Z</time>
      </trkpt>
      <trkpt lat="47.50487" lon="6.74858">
        <ele>345</ele>
        <time>2014-06-08T10:23:55.000Z</time>
      </trkpt>
      <trkpt lat="47.50491" lon="6.74865">
        <ele>344.2</ele>
        <time>2014-06-08T10:23:56.000Z</time>
      </trkpt>
      <trkpt lat="47.50494" lon="6.74872">
        <ele>343.6</ele>
        <time>2014-06-08T10:23:56.999Z</time>
      </trkpt>
      <trkpt lat="47.50498" lon="6.74881">
        <ele>343.2</ele>
        <time>2014-06-08T10:23:58.000Z</time>
      </trkpt>
      <trkpt lat="47.50502" lon="6.7489">
        <ele>343</ele>
        <time>2014-06-08T10:23:59.000Z</time>
      </trkpt>
      <trkpt lat="47.50506" lon="6.749">
        <ele>342</ele>
        <time>2014-06-08T10:24:00.000Z</time>
      </trkpt>
      <trkpt lat="47.50509" lon="6.74911">
        <ele>341.3</ele>
        <time>2014-06-08T10:24:01.000Z</time>
      </trkpt>
      <trkpt lat="47.50513" lon="6.74922">
        <ele>340.4</ele>
        <time>2014-06-08T10:24:02.000Z</time>
      </trkpt>
      <trkpt lat="47.50513" lon="6.74935">
        <ele>339.1</ele>
        <time>2014-06-08T10:24:03.000Z</time>
      </trkpt>
      <trkpt lat="47.50513" lon="6.74949">
        <ele>338.8</ele>
        <time>2014-06-08T10:24:04.000Z</time>
      </trkpt>
      <trkpt lat="47.50511" lon="6.74962">
        <ele>336.5</ele>
        <time>2014-06-08T10:24:05.000Z</time>
      </trkpt>
      <trkpt lat="47.50509" lon="6.74975">
        <ele>335.9</ele>
        <time>2014-06-08T10:24:06.000Z</time>
      </trkpt>
      <trkpt lat="47.50508" lon="6.7499">
        <ele>336.1</ele>
        <time>2014-06-08T10:24:07.000Z</time>
      </trkpt>
      <trkpt lat="47.50506" lon="6.75004">
        <ele>335.7</ele>
        <time>2014-06-08T10:24:08.000Z</time>
      </trkpt>
      <trkpt lat="47.50506" lon="6.75019">
        <ele>335</ele>
        <time>2014-06-08T10:24:09.000Z</time>
      </trkpt>
      <trkpt lat="47.50505" lon="6.75035">
        <ele>334.4</ele>
        <time>2014-06-08T10:24:10.000Z</time>
      </trkpt>
      <trkpt lat="47.50505" lon="6.7505">
        <ele>333.6</ele>
        <time>2014-06-08T10:24:11.001Z</time>
      </trkpt>
      <trkpt lat="47.50504" lon="6.75064">
        <ele>332.9</ele>
        <time>2014-06-08T10:24:12.000Z</time>
      </trkpt>
      <trkpt lat="47.50504" lon="6.75079">
        <ele>330.9</ele>
        <time>2014-06-08T10:24:13.000Z</time>
      </trkpt>
      <trkpt lat="47.50504" lon="6.75093">
        <ele>328.2</ele>
        <time>2014-06-08T10:24:14.000Z</time>
      </trkpt>
      <trkpt lat="47.50505" lon="6.75107">
        <ele>327.6</ele>
        <time>2014-06-08T10:24:15.000Z</time>
      </trkpt>
      <trkpt lat="47.50506" lon="6.75118">
        <ele>326.2</ele>
        <time>2014-06-08T10:24:16.000Z</time>
      </trkpt>
      <trkpt lat="47.50506" lon="6.75129">
        <ele>324.4</ele>
        <time>2014-06-08T10:24:17.000Z</time>
      </trkpt>
      <trkpt lat="47.50506" lon="6.7514">
        <ele>325</ele>
        <time>2014-06-08T10:24:18.000Z</time>
      </trkpt>
      <trkpt lat="47.50502" lon="6.75144">
        <ele>323.9</ele>
        <time>2014-06-08T10:24:19.000Z</time>
      </trkpt>
      <trkpt lat="47.50501" lon="6.75149">
        <ele>322.8</ele>
        <time>2014-06-08T10:24:20.000Z</time>
      </trkpt>
      <trkpt lat="47.50498" lon="6.75152">
        <ele>322.8</ele>
        <time>2014-06-08T10:24:21.000Z</time>
      </trkpt>
      <trkpt lat="47.50494" lon="6.75154">
        <ele>322.1</ele>
        <time>2014-06-08T10:24:22.000Z</time>
      </trkpt>
      <trkpt lat="47.50489" lon="6.75155">
        <ele>321.8</ele>
        <time>2014-06-08T10:24:23.000Z</time>
      </trkpt>
      <trkpt lat="47.50485" lon="6.75158">
        <ele>322.1</ele>
        <time>2014-06-08T10:24:24.000Z</time>
      </trkpt>
      <trkpt lat="47.50481" lon="6.75161">
        <ele>322</ele>
        <time>2014-06-08T10:24:25.001Z</time>
      </trkpt>
      <trkpt lat="47.50483" lon="6.75175">
        <ele>321.6</ele>
        <time>2014-06-08T10:24:26.000Z</time>
      </trkpt>
      <trkpt lat="47.50483" lon="6.75183">
        <ele>320.7</ele>
        <time>2014-06-08T10:24:27.001Z</time>
      </trkpt>
      <trkpt lat="47.50483" lon="6.75194">
        <ele>321.3</ele>
        <time>2014-06-08T10:24:28.000Z</time>
      </trkpt>
      <trkpt lat="47.50484" lon="6.75204">
        <ele>321.1</ele>
        <time>2014-06-08T10:24:29.000Z</time>
      </trkpt>
      <trkpt lat="47.50485" lon="6.75214">
        <ele>321.5</ele>
        <time>2014-06-08T10:24:30.000Z</time>
      </trkpt>
      <trkpt lat="47.50486" lon="6.75224">
        <ele>321.2</ele>
        <time>2014-06-08T10:24:31.001Z</time>
      </trkpt>
      <trkpt lat="47.50488" lon="6.75233">
        <ele>322.2</ele>
        <time>2014-06-08T10:24:32.000Z</time>
      </trkpt>
      <trkpt lat="47.50488" lon="6.75243">
        <ele>322.3</ele>
        <time>2014-06-08T10:24:33.000Z</time>
      </trkpt>
      <trkpt lat="47.50489" lon="6.75253">
        <ele>322.7</ele>
        <time>2014-06-08T10:24:34.000Z</time>
      </trkpt>
      <trkpt lat="47.50491" lon="6.75262">
        <ele>323.1</ele>
        <time>2014-06-08T10:24:35.000Z</time>
      </trkpt>
      <trkpt lat="47.50492" lon="6.75269">
        <ele>323.4</ele>
        <time>2014-06-08T10:24:36.000Z</time>
      </trkpt>
      <trkpt lat="47.50493" lon="6.75277">
        <ele>323.7</ele>
        <time>2014-06-08T10:24:37.000Z</time>
      </trkpt>
      <trkpt lat="47.50493" lon="6.75285">
        <ele>324.2</ele>
        <time>2014-06-08T10:24:38.000Z</time>
      </trkpt>
      <trkpt lat="47.50494" lon="6.75293">
        <ele>324.1</ele>
        <time>2014-06-08T10:24:39.000Z</time>
      </trkpt>
      <trkpt lat="47.50495" lon="6.75301">
        <ele>324.1</ele>
        <time>2014-06-08T10:24:40.000Z</time>
      </trkpt>
      <trkpt lat="47.50506" lon="6.75357">
        <ele>325.1</ele>
        <time>2014-06-08T10:24:48.000Z</time>
      </trkpt>
      <trkpt lat="47.50512" lon="6.7536">
        <ele>325.9</ele>
        <time>2014-06-08T10:24:49.000Z</time>
      </trkpt>
      <trkpt lat="47.50516" lon="6.75367">
        <ele>326.7</ele>
        <time>2014-06-08T10:24:50.000Z</time>
      </trkpt>
      <trkpt lat="47.5052" lon="6.75372">
        <ele>326.8</ele>
        <time>2014-06-08T10:24:51.000Z</time>
      </trkpt>
      <trkpt lat="47.50526" lon="6.75374">
        <ele>326.5</ele>
        <time>2014-06-08T10:24:52.000Z</time>
      </trkpt>
      <trkpt lat="47.50531" lon="6.75377">
        <ele>326.6</ele>
        <time>2014-06-08T10:24:53.000Z</time>
      </trkpt>
      <trkpt lat="47.50536" lon="6.75379">
        <ele>326.7</ele>
        <time>2014-06-08T10:24:54.000Z</time>
      </trkpt>
      <trkpt lat="47.50541" lon="6.75381">
        <ele>326.5</ele>
        <time>2014-06-08T10:24:55.000Z</time>
      </trkpt>
      <trkpt lat="47.50547" lon="6.75383">
        <ele>326.5</ele>
        <time>2014-06-08T10:24:55.998Z</time>
      </trkpt>
      <trkpt lat="47.50551" lon="6.75386">
        <ele>327.7</ele>
        <time>2014-06-08T10:24:57.000Z</time>
      </trkpt>
      <trkpt lat="47.50556" lon="6.75387">
        <ele>327.5</ele>
        <time>2014-06-08T10:24:58.000Z</time>
      </trkpt>
      <trkpt lat="47.50561" lon="6.75388">
        <ele>328.2</ele>
        <time>2014-06-08T10:24:59.000Z</time>
      </trkpt>
      <trkpt lat="47.50566" lon="6.75389">
        <ele>328</ele>
        <time>2014-06-08T10:25:00.000Z</time>
      </trkpt>
      <trkpt lat="47.50571" lon="6.7539">
        <ele>327.1</ele>
        <time>2014-06-08T10:25:01.000Z</time>
      </trkpt>
      <trkpt lat="47.50576" lon="6.75393">
        <ele>326.2</ele>
        <time>2014-06-08T10:25:02.000Z</time>
      </trkpt>
      <trkpt lat="47.5058" lon="6.75394">
        <ele>326.6</ele>
        <time>2014-06-08T10:25:03.000Z</time>
      </trkpt>
      <trkpt lat="47.50584" lon="6.75395">
        <ele>327.1</ele>
        <time>2014-06-08T10:25:04.000Z</time>
      </trkpt>
      <trkpt lat="47.50588" lon="6.75397">
        <ele>327.4</ele>
        <time>2014-06-08T10:25:05.000Z</time>
      </trkpt>
      <trkpt lat="47.50592" lon="6.75395">
        <ele>328.3</ele>
        <time>2014-06-08T10:25:06.000Z</time>
      </trkpt>
      <trkpt lat="47.50596" lon="6.75396">
        <ele>329.1</ele>
        <time>2014-06-08T10:25:07.000Z</time>
      </trkpt>
      <trkpt lat="47.506" lon="6.75395">
        <ele>329.6</ele>
        <time>2014-06-08T10:25:08.000Z</time>
      </trkpt>
      <trkpt lat="47.50603" lon="6.75396">
        <ele>328.9</ele>
        <time>2014-06-08T10:25:09.000Z</time>
      </trkpt>
      <trkpt lat="47.50607" lon="6.75396">
        <ele>328.5</ele>
        <time>2014-06-08T10:25:10.000Z</time>
      </trkpt>
      <trkpt lat="47.50611" lon="6.75398">
        <ele>327.3</ele>
        <time>2014-06-08T10:25:11.000Z</time>
      </trkpt>
      <trkpt lat="47.50615" lon="6.75399">
        <ele>326.8</ele>
        <time>2014-06-08T10:25:12.000Z</time>
      </trkpt>
      <trkpt lat="47.5062" lon="6.754">
        <ele>326.4</ele>
        <time>2014-06-08T10:25:13.000Z</time>
      </trkpt>
      <trkpt lat="47.50624" lon="6.75403">
        <ele>324.8</ele>
        <time>2014-06-08T10:25:14.000Z</time>
      </trkpt>
      <trkpt lat="47.50627" lon="6.75402">
        <ele>324.7</ele>
        <time>2014-06-08T10:25:15.000Z</time>
      </trkpt>
      <trkpt lat="47.50631" lon="6.75403">
        <ele>324.8</ele>
        <time>2014-06-08T10:25:16.000Z</time>
      </trkpt>
      <trkpt lat="47.50635" lon="6.75403">
        <ele>324.9</ele>
        <time>2014-06-08T10:25:17.000Z</time>
      </trkpt>
      <trkpt lat="47.50638" lon="6.75404">
        <ele>324.7</ele>
        <time>2014-06-08T10:25:18.000Z</time>
      </trkpt>
      <trkpt lat="47.50642" lon="6.75405">
        <ele>324</ele>
        <time>2014-06-08T10:25:19.000Z</time>
      </trkpt>
      <trkpt lat="47.50646" lon="6.75406">
        <ele>324</ele>
        <time>2014-06-08T10:25:20.000Z</time>
      </trkpt>
      <trkpt lat="47.5065" lon="6.75407">
        <ele>325.4</ele>
        <time>2014-06-08T10:25:21.000Z</time>
      </trkpt>
      <trkpt lat="47.50653" lon="6.75406">
        <ele>326.4</ele>
        <time>2014-06-08T10:25:22.000Z</time>
      </trkpt>
      <trkpt lat="47.50657" lon="6.75408">
        <ele>327.1</ele>
        <time>2014-06-08T10:25:23.000Z</time>
      </trkpt>
      <trkpt lat="47.5066" lon="6.75409">
        <ele>326.7</ele>
        <time>2014-06-08T10:25:24.000Z</time>
      </trkpt>
      <trkpt lat="47.50663" lon="6.75411">
        <ele>328.2</ele>
        <time>2014-06-08T10:25:25.000Z</time>
      </trkpt>
      <trkpt lat="47.50666" lon="6.75414">
        <ele>329.3</ele>
        <time>2014-06-08T10:25:26.000Z</time>
      </trkpt>
      <trkpt lat="47.50668" lon="6.75417">
        <ele>329.9</ele>
        <time>2014-06-08T10:25:27.000Z</time>
      </trkpt>
      <trkpt lat="47.50671" lon="6.7542">
        <ele>330.1</ele>
        <time>2014-06-08T10:25:28.000Z</time>
      </trkpt>
      <trkpt lat="47.50673" lon="6.75424">
        <ele>330.1</ele>
        <time>2014-06-08T10:25:29.000Z</time>
      </trkpt>
      <trkpt lat="47.50675" lon="6.75427">
        <ele>330.1</ele>
        <time>2014-06-08T10:25:30.000Z</time>
      </trkpt>
      <trkpt lat="47.50677" lon="6.75431">
        <ele>330.5</ele>
        <time>2014-06-08T10:25:31.000Z</time>
      </trkpt>
      <trkpt lat="47.50678" lon="6.75435">
        <ele>330.6</ele>
        <time>2014-06-08T10:25:32.000Z</time>
      </trkpt>
      <trkpt lat="47.5068" lon="6.75439">
        <ele>330.5</ele>
        <time>2014-06-08T10:25:33.000Z</time>
      </trkpt>
      <trkpt lat="47.50681" lon="6.75443">
        <ele>330.1</ele>
        <time>2014-06-08T10:25:34.000Z</time>
      </trkpt>
      <trkpt lat="47.50683" lon="6.75447">
        <ele>330.9</ele>
        <time>2014-06-08T10:25:35.000Z</time>
      </trkpt>
      <trkpt lat="47.50684" lon="6.75451">
        <ele>331.1</ele>
        <time>2014-06-08T10:25:36.000Z</time>
      </trkpt>
      <trkpt lat="47.50686" lon="6.75455">
        <ele>331.5</ele>
        <time>2014-06-08T10:25:37.000Z</time>
      </trkpt>
      <trkpt lat="47.50687" lon="6.75459">
        <ele>331.8</ele>
        <time>2014-06-08T10:25:38.000Z</time>
      </trkpt>
      <trkpt lat="47.50688" lon="6.75463">
        <ele>332.4</ele>
        <time>2014-06-08T10:25:39.000Z</time>
      </trkpt>
      <trkpt lat="47.50689" lon="6.75466">
        <ele>332.3</ele>
        <time>2014-06-08T10:25:40.000Z</time>
      </trkpt>
      <trkpt lat="47.50691" lon="6.7547">
        <ele>332.5</ele>
        <time>2014-06-08T10:25:41.000Z</time>
      </trkpt>
      <trkpt lat="47.507" lon="6.75501">
        <ele>334.1</ele>
        <time>2014-06-08T10:25:49.000Z</time>
      </trkpt>
      <trkpt lat="47.50701" lon="6.75505">
        <ele>334.8</ele>
        <time>2014-06-08T10:25:50.000Z</time>
      </trkpt>
      <trkpt lat="47.50702" lon="6.75509">
        <ele>334.8</ele>
        <time>2014-06-08T10:25:51.000Z</time>
      </trkpt>
      <trkpt lat="47.50703" lon="6.75513">
        <ele>335</ele>
        <time>2014-06-08T10:25:52.000Z</time>
      </trkpt>
      <trkpt lat="47.50705" lon="6.75517">
        <ele>335</ele>
        <time>2014-06-08T10:25:53.000Z</time>
      </trkpt>
      <trkpt lat="47.50706" lon="6.7552">
        <ele>335</ele>
        <time>2014-06-08T10:25:54.000Z</time>
      </trkpt>
      <trkpt lat="47.50707" lon="6.75524">
        <ele>335.4</ele>
        <time>2014-06-08T10:25:55.000Z</time>
      </trkpt>
      <trkpt lat="47.50708" lon="6.75528">
        <ele>335.1</ele>
        <time>2014-06-08T10:25:56.000Z</time>
      </trkpt>
      <trkpt lat="47.50709" lon="6.75532">
        <ele>335.2</ele>
        <time>2014-06-08T10:25:57.000Z</time>
      </trkpt>
      <trkpt lat="47.5071" lon="6.75536">
        <ele>335.3</ele>
        <time>2014-06-08T10:25:58.000Z</time>
      </trkpt>
      <trkpt lat="47.5071" lon="6.7554">
        <ele>334.6</ele>
        <time>2014-06-08T10:25:59.000Z</time>
      </trkpt>
      <trkpt lat="47.50711" lon="6.75544">
        <ele>334.2</ele>
        <time>2014-06-08T10:26:00.000Z</time>
      </trkpt>
      <trkpt lat="47.50713" lon="6.75549">
        <ele>334.5</ele>
        <time>2014-06-08T10:26:01.000Z</time>
      </trkpt>
      <trkpt lat="47.50714" lon="6.75553">
        <ele>335</ele>
        <time>2014-06-08T10:26:02.000Z</time>
      </trkpt>
      <trkpt lat="47.50715" lon="6.75557">
        <ele>335</ele>
        <time>2014-06-08T10:26:03.000Z</time>
      </trkpt>
      <trkpt lat="47.50715" lon="6.75561">
        <ele>335.3</ele>
        <time>2014-06-08T10:26:04.000Z</time>
      </trkpt>
      <trkpt lat="47.50716" lon="6.75566">
        <ele>333.7</ele>
        <time>2014-06-08T10:26:05.000Z</time>
      </trkpt>
      <trkpt lat="47.50716" lon="6.7557">
        <ele>333.2</ele>
        <time>2014-06-08T10:26:06.000Z</time>
      </trkpt>
      <trkpt lat="47.50717" lon="6.75575">
        <ele>333.4</ele>
        <time>2014-06-08T10:26:07.000Z</time>
      </trkpt>
      <trkpt lat="47.50717" lon="6.75579">
        <ele>334.6</ele>
        <time>2014-06-08T10:26:08.000Z</time>
      </trkpt>
      <trkpt lat="47.50718" lon="6.75583">
        <ele>335.4</ele>
        <time>2014-06-08T10:26:09.000Z</time>
      </trkpt>
      <trkpt lat="47.50718" lon="6.75588">
        <ele>335.4</ele>
        <time>2014-06-08T10:26:10.000Z</time>
      </trkpt>
      <trkpt lat="47.50719" lon="6.75593">
        <ele>335.9</ele>
        <time>2014-06-08T10:26:11.000Z</time>
      </trkpt>
      <trkpt lat="47.50719" lon="6.75597">
        <ele>336.4</ele>
        <time>2014-06-08T10:26:11.999Z</time>
      </trkpt>
      <trkpt lat="47.50719" lon="6.75602">
        <ele>336.3</ele>
        <time>2014-06-08T10:26:13.000Z</time>
      </trkpt>
      <trkpt lat="47.50719" lon="6.75606">
        <ele>336.7</ele>
        <time>2014-06-08T10:26:13.999Z</time>
      </trkpt>
      <trkpt lat="47.5072" lon="6.7561">
        <ele>335.8</ele>
        <time>2014-06-08T10:26:15.000Z</time>
      </trkpt>
      <trkpt lat="47.5072" lon="6.75615">
        <ele>335.9</ele>
        <time>2014-06-08T10:26:16.000Z</time>
      </trkpt>
      <trkpt lat="47.5072" lon="6.75619">
        <ele>335.9</ele>
        <time>2014-06-08T10:26:16.999Z</time>
      </trkpt>
      <trkpt lat="47.5072" lon="6.75624">
        <ele>335.3</ele>
        <time>2014-06-08T10:26:18.000Z</time>
      </trkpt>
      <trkpt lat="47.5072" lon="6.75628">
        <ele>336</ele>
        <time>2014-06-08T10:26:19.000Z</time>
      </trkpt>
      <trkpt lat="47.5072" lon="6.75633">
        <ele>336.7</ele>
        <time>2014-06-08T10:26:20.000Z</time>
      </trkpt>
      <trkpt lat="47.5072" lon="6.75637">
        <ele>337.8</ele>
        <time>2014-06-08T10:26:21.000Z</time>
      </trkpt>
      <trkpt lat="47.5072" lon="6.75642">
        <ele>338.1</ele>
        <time>2014-06-08T10:26:22.000Z</time>
      </trkpt>
      <trkpt lat="47.50719" lon="6.75646">
        <ele>338.7</ele>
        <time>2014-06-08T10:26:23.000Z</time>
      </trkpt>
      <trkpt lat="47.5072" lon="6.75651">
        <ele>340.8</ele>
        <time>2014-06-08T10:26:24.000Z</time>
      </trkpt>
      <trkpt lat="47.5072" lon="6.75655">
        <ele>341.7</ele>
        <time>2014-06-08T10:26:25.000Z</time>
      </trkpt>
      <trkpt lat="47.5072" lon="6.7566">
        <ele>342.1</ele>
        <time>2014-06-08T10:26:26.000Z</time>
      </trkpt>
      <trkpt lat="47.5072" lon="6.75665">
        <ele>342.4</ele>
        <time>2014-06-08T10:26:27.000Z</time>
      </trkpt>
      <trkpt lat="47.5072" lon="6.75669">
        <ele>342.6</ele>
        <time>2014-06-08T10:26:28.000Z</time>
      </trkpt>
      <trkpt lat="47.5072" lon="6.75673">
        <ele>341.8</ele>
        <time>2014-06-08T10:26:29.000Z</time>
      </trkpt>
      <trkpt lat="47.5072" lon="6.75677">
        <ele>342.9</ele>
        <time>2014-06-08T10:26:30.000Z</time>
      </trkpt>
      <trkpt lat="47.5072" lon="6.75681">
        <ele>343.1</ele>
        <time>2014-06-08T10:26:31.000Z</time>
      </trkpt>
      <trkpt lat="47.5072" lon="6.75685">
        <ele>342.4</ele>
        <time>2014-06-08T10:26:32.000Z</time>
      </trkpt>
      <trkpt lat="47.5072" lon="6.75688">
        <ele>342.5</ele>
        <time>2014-06-08T10:26:33.000Z</time>
      </trkpt>
      <trkpt lat="47.5072" lon="6.75692">
        <ele>341.9</ele>
        <time>2014-06-08T10:26:34.000Z</time>
      </trkpt>
      <trkpt lat="47.5072" lon="6.75696">
        <ele>342.2</ele>
        <time>2014-06-08T10:26:35.000Z</time>
      </trkpt>
      <trkpt lat="47.50721" lon="6.757">
        <ele>341.9</ele>
        <time>2014-06-08T10:26:36.001Z</time>
      </trkpt>
      <trkpt lat="47.50721" lon="6.75703">
        <ele>342.3</ele>
        <time>2014-06-08T10:26:37.000Z</time>
      </trkpt>
      <trkpt lat="47.50721" lon="6.75709">
        <ele>343.4</ele>
        <time>2014-06-08T10:26:39.000Z</time>
      </trkpt>
      <trkpt lat="47.50722" lon="6.75712">
        <ele>342.2</ele>
        <time>2014-06-08T10:26:40.000Z</time>
      </trkpt>
      <trkpt lat="47.50727" lon="6.75737">
        <ele>346.2</ele>
        <time>2014-06-08T10:26:48.000Z</time>
      </trkpt>
      <trkpt lat="47.50726" lon="6.75743">
        <ele>346.3</ele>
        <time>2014-06-08T10:26:50.000Z</time>
      </trkpt>
      <trkpt lat="47.50725" lon="6.75747">
        <ele>346.7</ele>
        <time>2014-06-08T10:26:51.000Z</time>
      </trkpt>
      <trkpt lat="47.50725" lon="6.75752">
        <ele>348.4</ele>
        <time>2014-06-08T10:26:52.000Z</time>
      </trkpt>
      <trkpt lat="47.50724" lon="6.75756">
        <ele>348.9</ele>
        <time>2014-06-08T10:26:53.000Z</time>
      </trkpt>
      <trkpt lat="47.50723" lon="6.7576">
        <ele>349.7</ele>
        <time>2014-06-08T10:26:54.000Z</time>
      </trkpt>
      <trkpt lat="47.50723" lon="6.75764">
        <ele>349.4</ele>
        <time>2014-06-08T10:26:55.000Z</time>
      </trkpt>
      <trkpt lat="47.50722" lon="6.75767">
        <ele>349</ele>
        <time>2014-06-08T10:26:56.000Z</time>
      </trkpt>
      <trkpt lat="47.50722" lon="6.75771">
        <ele>348.4</ele>
        <time>2014-06-08T10:26:57.000Z</time>
      </trkpt>
      <trkpt lat="47.50723" lon="6.75775">
        <ele>347.7</ele>
        <time>2014-06-08T10:26:58.000Z</time>
      </trkpt>
      <trkpt lat="47.50723" lon="6.75778">
        <ele>347.8</ele>
        <time>2014-06-08T10:26:59.000Z</time>
      </trkpt>
      <trkpt lat="47.50723" lon="6.75783">
        <ele>348</ele>
        <time>2014-06-08T10:27:00.000Z</time>
      </trkpt>
      <trkpt lat="47.50724" lon="6.75787">
        <ele>348.2</ele>
        <time>2014-06-08T10:27:01.000Z</time>
      </trkpt>
      <trkpt lat="47.50724" lon="6.75791">
        <ele>347.8</ele>
        <time>2014-06-08T10:27:02.000Z</time>
      </trkpt>
      <trkpt lat="47.50725" lon="6.75795">
        <ele>348.3</ele>
        <time>2014-06-08T10:27:03.000Z</time>
      </trkpt>
      <trkpt lat="47.50725" lon="6.75799">
        <ele>348.2</ele>
        <time>2014-06-08T10:27:04.000Z</time>
      </trkpt>
      <trkpt lat="47.50725" lon="6.75803">
        <ele>348.4</ele>
        <time>2014-06-08T10:27:05.000Z</time>
      </trkpt>
      <trkpt lat="47.50726" lon="6.75807">
        <ele>347.9</ele>
        <time>2014-06-08T10:27:06.000Z</time>
      </trkpt>
      <trkpt lat="47.50726" lon="6.75811">
        <ele>349.2</ele>
        <time>2014-06-08T10:27:07.000Z</time>
      </trkpt>
      <trkpt lat="47.50726" lon="6.75815">
        <ele>347.7</ele>
        <time>2014-06-08T10:27:08.000Z</time>
      </trkpt>
      <trkpt lat="47.50726" lon="6.75818">
        <ele>348</ele>
        <time>2014-06-08T10:27:09.000Z</time>
      </trkpt>
      <trkpt lat="47.50726" lon="6.75822">
        <ele>348.9</ele>
        <time>2014-06-08T10:27:10.000Z</time>
      </trkpt>
      <trkpt lat="47.50726" lon="6.75825">
        <ele>349.6</ele>
        <time>2014-06-08T10:27:11.000Z</time>
      </trkpt>
      <trkpt lat="47.50726" lon="6.75829">
        <ele>350.4</ele>
        <time>2014-06-08T10:27:12.000Z</time>
      </trkpt>
      <trkpt lat="47.50726" lon="6.75833">
        <ele>351.3</ele>
        <time>2014-06-08T10:27:13.000Z</time>
      </trkpt>
      <trkpt lat="47.50726" lon="6.75837">
        <ele>351.7</ele>
        <time>2014-06-08T10:27:14.000Z</time>
      </trkpt>
      <trkpt lat="47.50726" lon="6.7584">
        <ele>352.5</ele>
        <time>2014-06-08T10:27:15.000Z</time>
      </trkpt>
      <trkpt lat="47.50726" lon="6.75844">
        <ele>352.4</ele>
        <time>2014-06-08T10:27:16.000Z</time>
      </trkpt>
      <trkpt lat="47.50727" lon="6.75848">
        <ele>351.3</ele>
        <time>2014-06-08T10:27:17.000Z</time>
      </trkpt>
      <trkpt lat="47.50727" lon="6.75851">
        <ele>353.2</ele>
        <time>2014-06-08T10:27:18.000Z</time>
      </trkpt>
      <trkpt lat="47.50728" lon="6.75855">
        <ele>354.1</ele>
        <time>2014-06-08T10:27:19.000Z</time>
      </trkpt>
      <trkpt lat="47.50729" lon="6.75859">
        <ele>353.9</ele>
        <time>2014-06-08T10:27:20.000Z</time>
      </trkpt>
      <trkpt lat="47.5073" lon="6.75863">
        <ele>354.2</ele>
        <time>2014-06-08T10:27:21.000Z</time>
      </trkpt>
      <trkpt lat="47.50731" lon="6.75867">
        <ele>354.8</ele>
        <time>2014-06-08T10:27:22.000Z</time>
      </trkpt>
      <trkpt lat="47.50731" lon="6.75871">
        <ele>354.9</ele>
        <time>2014-06-08T10:27:23.000Z</time>
      </trkpt>
      <trkpt lat="47.50731" lon="6.75875">
        <ele>355.8</ele>
        <time>2014-06-08T10:27:24.000Z</time>
      </trkpt>
      <trkpt lat="47.50731" lon="6.75879">
        <ele>355.9</ele>
        <time>2014-06-08T10:27:25.000Z</time>
      </trkpt>
      <trkpt lat="47.50731" lon="6.75882">
        <ele>356.4</ele>
        <time>2014-06-08T10:27:26.000Z</time>
      </trkpt>
      <trkpt lat="47.50731" lon="6.75886">
        <ele>356.5</ele>
        <time>2014-06-08T10:27:27.000Z</time>
      </trkpt>
      <trkpt lat="47.50731" lon="6.7589">
        <ele>356</ele>
        <time>2014-06-08T10:27:28.000Z</time>
      </trkpt>
      <trkpt lat="47.50731" lon="6.75893">
        <ele>356.8</ele>
        <time>2014-06-08T10:27:29.000Z</time>
      </trkpt>
      <trkpt lat="47.50731" lon="6.75897">
        <ele>357.1</ele>
        <time>2014-06-08T10:27:30.000Z</time>
      </trkpt>
      <trkpt lat="47.5073" lon="6.75901">
        <ele>357.5</ele>
        <time>2014-06-08T10:27:31.000Z</time>
      </trkpt>
      <trkpt lat="47.5073" lon="6.75905">
        <ele>357.6</ele>
        <time>2014-06-08T10:27:32.000Z</time>
      </trkpt>
      <trkpt lat="47.5073" lon="6.75908">
        <ele>357.6</ele>
        <time>2014-06-08T10:27:33.000Z</time>
      </trkpt>
      <trkpt lat="47.5073" lon="6.75912">
        <ele>357.6</ele>
        <time>2014-06-08T10:27:34.000Z</time>
      </trkpt>
      <trkpt lat="47.5073" lon="6.75916">
        <ele>357.7</ele>
        <time>2014-06-08T10:27:35.000Z</time>
      </trkpt>
      <trkpt lat="47.5073" lon="6.7592">
        <ele>358.5</ele>
        <time>2014-06-08T10:27:36.000Z</time>
      </trkpt>
      <trkpt lat="47.50729" lon="6.75924">
        <ele>358.6</ele>
        <time>2014-06-08T10:27:37.000Z</time>
      </trkpt>
      <trkpt lat="47.50729" lon="6.75928">
        <ele>358.3</ele>
        <time>2014-06-08T10:27:38.000Z</time>
      </trkpt>
      <trkpt lat="47.50729" lon="6.75932">
        <ele>357.2</ele>
        <time>2014-06-08T10:27:39.000Z</time>
      </trkpt>
      <trkpt lat="47.50728" lon="6.75935">
        <ele>357.7</ele>
        <time>2014-06-08T10:27:40.000Z</time>
      </trkpt>
      <trkpt lat="47.50734" lon="6.75967">
        <ele>353.6</ele>
        <time>2014-06-08T10:27:48.000Z</time>
      </trkpt>
      <trkpt lat="47.50734" lon="6.75971">
        <ele>353.9</ele>
        <time>2014-06-08T10:27:49.000Z</time>
      </trkpt>
      <trkpt lat="47.50735" lon="6.75975">
        <ele>354</ele>
        <time>2014-06-08T10:27:50.000Z</time>
      </trkpt>
      <trkpt lat="47.50734" lon="6.75979">
        <ele>354.5</ele>
        <time>2014-06-08T10:27:51.000Z</time>
      </trkpt>
      <trkpt lat="47.50734" lon="6.75983">
        <ele>351.7</ele>
        <time>2014-06-08T10:27:52.000Z</time>
      </trkpt>
      <trkpt lat="47.50734" lon="6.75987">
        <ele>351.2</ele>
        <time>2014-06-08T10:27:53.000Z</time>
      </trkpt>
      <trkpt lat="47.50734" lon="6.75991">
        <ele>351.5</ele>
        <time>2014-06-08T10:27:54.000Z</time>
      </trkpt>
      <trkpt lat="47.50734" lon="6.75995">
        <ele>350.4</ele>
        <time>2014-06-08T10:27:55.000Z</time>
      </trkpt>
      <trkpt lat="47.50735" lon="6.75998">
        <ele>350.1</ele>
        <time>2014-06-08T10:27:56.000Z</time>
      </trkpt>
      <trkpt lat="47.50735" lon="6.76002">
        <ele>349.4</ele>
        <time>2014-06-08T10:27:57.000Z</time>
      </trkpt>
      <trkpt lat="47.50735" lon="6.76006">
        <ele>349.5</ele>
        <time>2014-06-08T10:27:58.000Z</time>
      </trkpt>
      <trkpt lat="47.50735" lon="6.7601">
        <ele>349.8</ele>
        <time>2014-06-08T10:27:59.000Z</time>
      </trkpt>
      <trkpt lat="47.50735" lon="6.76013">
        <ele>350.1</ele>
        <time>2014-06-08T10:28:00.000Z</time>
      </trkpt>
      <trkpt lat="47.50735" lon="6.76017">
        <ele>351.5</ele>
        <time>2014-06-08T10:28:01.000Z</time>
      </trkpt>
      <trkpt lat="47.50734" lon="6.76021">
        <ele>352.4</ele>
        <time>2014-06-08T10:28:02.000Z</time>
      </trkpt>
      <trkpt lat="47.50734" lon="6.76025">
        <ele>352.4</ele>
        <time>2014-06-08T10:28:03.000Z</time>
      </trkpt>
      <trkpt lat="47.50733" lon="6.76029">
        <ele>353.9</ele>
        <time>2014-06-08T10:28:04.000Z</time>
      </trkpt>
      <trkpt lat="47.50732" lon="6.76032">
        <ele>354.1</ele>
        <time>2014-06-08T10:28:05.000Z</time>
      </trkpt>
      <trkpt lat="47.50732" lon="6.76036">
        <ele>354.1</ele>
        <time>2014-06-08T10:28:06.000Z</time>
      </trkpt>
      <trkpt lat="47.50731" lon="6.7604">
        <ele>354.7</ele>
        <time>2014-06-08T10:28:07.000Z</time>
      </trkpt>
      <trkpt lat="47.5073" lon="6.76045">
        <ele>355.3</ele>
        <time>2014-06-08T10:28:08.000Z</time>
      </trkpt>
      <trkpt lat="47.50728" lon="6.76049">
        <ele>355.6</ele>
        <time>2014-06-08T10:28:09.000Z</time>
      </trkpt>
      <trkpt lat="47.50727" lon="6.76053">
        <ele>356.1</ele>
        <time>2014-06-08T10:28:10.000Z</time>
      </trkpt>
      <trkpt lat="47.50726" lon="6.76057">
        <ele>356.9</ele>
        <time>2014-06-08T10:28:11.000Z</time>
      </trkpt>
      <trkpt lat="47.50724" lon="6.76061">
        <ele>356.8</ele>
        <time>2014-06-08T10:28:12.000Z</time>
      </trkpt>
      <trkpt lat="47.50723" lon="6.76065">
        <ele>356.9</ele>
        <time>2014-06-08T10:28:13.000Z</time>
      </trkpt>
      <trkpt lat="47.50723" lon="6.76069">
        <ele>356.5</ele>
        <time>2014-06-08T10:28:14.000Z</time>
      </trkpt>
      <trkpt lat="47.50722" lon="6.76073">
        <ele>356.8</ele>
        <time>2014-06-08T10:28:15.000Z</time>
      </trkpt>
      <trkpt lat="47.50722" lon="6.76078">
        <ele>356.7</ele>
        <time>2014-06-08T10:28:16.000Z</time>
      </trkpt>
      <trkpt lat="47.50722" lon="6.76082">
        <ele>356.8</ele>
        <time>2014-06-08T10:28:17.000Z</time>
      </trkpt>
      <trkpt lat="47.50721" lon="6.76088">
        <ele>357</ele>
        <time>2014-06-08T10:28:18.000Z</time>
      </trkpt>
      <trkpt lat="47.50721" lon="6.76093">
        <ele>357.2</ele>
        <time>2014-06-08T10:28:19.000Z</time>
      </trkpt>
      <trkpt lat="47.50721" lon="6.76099">
        <ele>358</ele>
        <time>2014-06-08T10:28:20.000Z</time>
      </trkpt>
      <trkpt lat="47.5072" lon="6.76105">
        <ele>357.9</ele>
        <time>2014-06-08T10:28:21.000Z</time>
      </trkpt>
      <trkpt lat="47.5072" lon="6.7611">
        <ele>358.8</ele>
        <time>2014-06-08T10:28:22.000Z</time>
      </trkpt>
      <trkpt lat="47.5072" lon="6.76116">
        <ele>358.8</ele>
        <time>2014-06-08T10:28:23.000Z</time>
      </trkpt>
      <trkpt lat="47.5072" lon="6.76122">
        <ele>358.7</ele>
        <time>2014-06-08T10:28:24.000Z</time>
      </trkpt>
      <trkpt lat="47.50721" lon="6.76128">
        <ele>358.8</ele>
        <time>2014-06-08T10:28:25.000Z</time>
      </trkpt>
      <trkpt lat="47.50721" lon="6.76134">
        <ele>359.6</ele>
        <time>2014-06-08T10:28:26.000Z</time>
      </trkpt>
      <trkpt lat="47.50722" lon="6.7614">
        <ele>359.4</ele>
        <time>2014-06-08T10:28:27.000Z</time>
      </trkpt>
      <trkpt lat="47.50722" lon="6.76146">
        <ele>359.2</ele>
        <time>2014-06-08T10:28:28.000Z</time>
      </trkpt>
      <trkpt lat="47.50722" lon="6.76152">
        <ele>359.7</ele>
        <time>2014-06-08T10:28:29.000Z</time>
      </trkpt>
      <trkpt lat="47.50721" lon="6.76157">
        <ele>360.1</ele>
        <time>2014-06-08T10:28:30.000Z</time>
      </trkpt>
      <trkpt lat="47.50721" lon="6.76163">
        <ele>360.2</ele>
        <time>2014-06-08T10:28:31.000Z</time>
      </trkpt>
      <trkpt lat="47.50721" lon="6.76169">
        <ele>361.5</ele>
        <time>2014-06-08T10:28:32.000Z</time>
      </trkpt>
      <trkpt lat="47.50721" lon="6.76175">
        <ele>362.3</ele>
        <time>2014-06-08T10:28:33.000Z</time>
      </trkpt>
      <trkpt lat="47.50721" lon="6.7618">
        <ele>363</ele>
        <time>2014-06-08T10:28:34.000Z</time>
      </trkpt>
      <trkpt lat="47.50721" lon="6.76186">
        <ele>364.4</ele>
        <time>2014-06-08T10:28:35.000Z</time>
      </trkpt>
      <trkpt lat="47.50721" lon="6.76191">
        <ele>365.2</ele>
        <time>2014-06-08T10:28:36.000Z</time>
      </trkpt>
      <trkpt lat="47.50722" lon="6.76197">
        <ele>366.5</ele>
        <time>2014-06-08T10:28:37.000Z</time>
      </trkpt>
      <trkpt lat="47.50723" lon="6.76202">
        <ele>367.6</ele>
        <time>2014-06-08T10:28:38.000Z</time>
      </trkpt>
      <trkpt lat="47.50724" lon="6.76207">
        <ele>368.6</ele>
        <time>2014-06-08T10:28:39.000Z</time>
      </trkpt>
      <trkpt lat="47.50725" lon="6.76213">
        <ele>369.6</ele>
        <time>2014-06-08T10:28:40.000Z</time>
      </trkpt>
      <trkpt lat="47.50731" lon="6.76252">
        <ele>370.4</ele>
        <time>2014-06-08T10:28:48.000Z</time>
      </trkpt>
      <trkpt lat="47.50732" lon="6.76257">
        <ele>371.7</ele>
        <time>2014-06-08T10:28:49.000Z</time>
      </trkpt>
      <trkpt lat="47.50734" lon="6.76261">
        <ele>372</ele>
        <time>2014-06-08T10:28:50.000Z</time>
      </trkpt>
      <trkpt lat="47.50735" lon="6.76266">
        <ele>372.1</ele>
        <time>2014-06-08T10:28:51.000Z</time>
      </trkpt>
      <trkpt lat="47.50737" lon="6.76271">
        <ele>372.2</ele>
        <time>2014-06-08T10:28:52.000Z</time>
      </trkpt>
      <trkpt lat="47.50738" lon="6.76276">
        <ele>372.3</ele>
        <time>2014-06-08T10:28:53.000Z</time>
      </trkpt>
      <trkpt lat="47.5074" lon="6.7628">
        <ele>372.5</ele>
        <time>2014-06-08T10:28:54.000Z</time>
      </trkpt>
      <trkpt lat="47.50742" lon="6.76285">
        <ele>372.8</ele>
        <time>2014-06-08T10:28:55.000Z</time>
      </trkpt>
      <trkpt lat="47.50743" lon="6.7629">
        <ele>372.9</ele>
        <time>2014-06-08T10:28:56.000Z</time>
      </trkpt>
      <trkpt lat="47.50745" lon="6.76294">
        <ele>372.6</ele>
        <time>2014-06-08T10:28:57.000Z</time>
      </trkpt>
      <trkpt lat="47.50747" lon="6.76298">
        <ele>373.4</ele>
        <time>2014-06-08T10:28:58.000Z</time>
      </trkpt>
      <trkpt lat="47.50749" lon="6.76303">
        <ele>373.2</ele>
        <time>2014-06-08T10:28:59.000Z</time>
      </trkpt>
      <trkpt lat="47.50751" lon="6.76307">
        <ele>373.4</ele>
        <time>2014-06-08T10:29:00.000Z</time>
      </trkpt>
      <trkpt lat="47.50752" lon="6.76311">
        <ele>374.7</ele>
        <time>2014-06-08T10:29:01.000Z</time>
      </trkpt>
      <trkpt lat="47.50754" lon="6.76315">
        <ele>375.1</ele>
        <time>2014-06-08T10:29:02.000Z</time>
      </trkpt>
      <trkpt lat="47.50755" lon="6.76319">
        <ele>376.1</ele>
        <time>2014-06-08T10:29:03.000Z</time>
      </trkpt>
      <trkpt lat="47.50757" lon="6.76323">
        <ele>376.6</ele>
        <time>2014-06-08T10:29:04.000Z</time>
      </trkpt>
      <trkpt lat="47.50758" lon="6.76327">
        <ele>377.9</ele>
        <time>2014-06-08T10:29:05.000Z</time>
      </trkpt>
      <trkpt lat="47.5076" lon="6.76331">
        <ele>378.8</ele>
        <time>2014-06-08T10:29:06.000Z</time>
      </trkpt>
      <trkpt lat="47.50761" lon="6.76335">
        <ele>379.1</ele>
        <time>2014-06-08T10:29:07.000Z</time>
      </trkpt>
      <trkpt lat="47.50763" lon="6.76339">
        <ele>379.7</ele>
        <time>2014-06-08T10:29:08.000Z</time>
      </trkpt>
      <trkpt lat="47.50765" lon="6.76343">
        <ele>380.9</ele>
        <time>2014-06-08T10:29:09.000Z</time>
      </trkpt>
      <trkpt lat="47.50766" lon="6.76347">
        <ele>380.4</ele>
        <time>2014-06-08T10:29:10.000Z</time>
      </trkpt>
      <trkpt lat="47.50768" lon="6.76351">
        <ele>380.7</ele>
        <time>2014-06-08T10:29:11.000Z</time>
      </trkpt>
      <trkpt lat="47.50769" lon="6.76355">
        <ele>380.6</ele>
        <time>2014-06-08T10:29:12.000Z</time>
      </trkpt>
      <trkpt lat="47.5077" lon="6.76358">
        <ele>380.7</ele>
        <time>2014-06-08T10:29:13.000Z</time>
      </trkpt>
      <trkpt lat="47.50771" lon="6.76362">
        <ele>381.1</ele>
        <time>2014-06-08T10:29:14.000Z</time>
      </trkpt>
      <trkpt lat="47.50773" lon="6.76366">
        <ele>382</ele>
        <time>2014-06-08T10:29:15.000Z</time>
      </trkpt>
      <trkpt lat="47.50774" lon="6.76369">
        <ele>381.8</ele>
        <time>2014-06-08T10:29:16.000Z</time>
      </trkpt>
      <trkpt lat="47.50775" lon="6.76373">
        <ele>381.9</ele>
        <time>2014-06-08T10:29:17.000Z</time>
      </trkpt>
      <trkpt lat="47.50777" lon="6.76376">
        <ele>382.4</ele>
        <time>2014-06-08T10:29:18.000Z</time>
      </trkpt>
      <trkpt lat="47.50778" lon="6.7638">
        <ele>382.4</ele>
        <time>2014-06-08T10:29:19.000Z</time>
      </trkpt>
      <trkpt lat="47.50779" lon="6.76384">
        <ele>382.5</ele>
        <time>2014-06-08T10:29:20.000Z</time>
      </trkpt>
      <trkpt lat="47.5078" lon="6.76387">
        <ele>382.8</ele>
        <time>2014-06-08T10:29:21.000Z</time>
      </trkpt>
      <trkpt lat="47.50781" lon="6.76391">
        <ele>382.9</ele>
        <time>2014-06-08T10:29:22.000Z</time>
      </trkpt>
      <trkpt lat="47.50782" lon="6.76395">
        <ele>383.4</ele>
        <time>2014-06-08T10:29:23.000Z</time>
      </trkpt>
      <trkpt lat="47.50783" lon="6.76398">
        <ele>383.7</ele>
        <time>2014-06-08T10:29:24.000Z</time>
      </trkpt>
      <trkpt lat="47.50783" lon="6.76401">
        <ele>384.6</ele>
        <time>2014-06-08T10:29:25.000Z</time>
      </trkpt>
      <trkpt lat="47.50784" lon="6.76405">
        <ele>384.5</ele>
        <time>2014-06-08T10:29:26.000Z</time>
      </trkpt>
      <trkpt lat="47.50785" lon="6.76409">
        <ele>384.8</ele>
        <time>2014-06-08T10:29:27.000Z</time>
      </trkpt>
      <trkpt lat="47.50786" lon="6.76412">
        <ele>385.1</ele>
        <time>2014-06-08T10:29:28.000Z</time>
      </trkpt>
      <trkpt lat="47.50786" lon="6.76416">
        <ele>385.6</ele>
        <time>2014-06-08T10:29:29.000Z</time>
      </trkpt>
      <trkpt lat="47.50787" lon="6.7642">
        <ele>386.4</ele>
        <time>2014-06-08T10:29:30.000Z</time>
      </trkpt>
      <trkpt lat="47.50787" lon="6.76423">
        <ele>386.3</ele>
        <time>2014-06-08T10:29:31.000Z</time>
      </trkpt>
      <trkpt lat="47.50788" lon="6.76427">
        <ele>386.4</ele>
        <time>2014-06-08T10:29:32.000Z</time>
      </trkpt>
      <trkpt lat="47.50788" lon="6.76431">
        <ele>387.2</ele>
        <time>2014-06-08T10:29:33.000Z</time>
      </trkpt>
      <trkpt lat="47.50789" lon="6.76434">
        <ele>387.5</ele>
        <time>2014-06-08T10:29:34.000Z</time>
      </trkpt>
      <trkpt lat="47.50789" lon="6.76438">
        <ele>387.4</ele>
        <time>2014-06-08T10:29:35.000Z</time>
      </trkpt>
      <trkpt lat="47.5079" lon="6.76442">
        <ele>387.7</ele>
        <time>2014-06-08T10:29:36.000Z</time>
      </trkpt>
      <trkpt lat="47.5079" lon="6.76445">
        <ele>389.5</ele>
        <time>2014-06-08T10:29:37.000Z</time>
      </trkpt>
      <trkpt lat="47.50791" lon="6.76449">
        <ele>389.9</ele>
        <time>2014-06-08T10:29:38.000Z</time>
      </trkpt>
      <trkpt lat="47.50791" lon="6.76453">
        <ele>390.1</ele>
        <time>2014-06-08T10:29:39.000Z</time>
      </trkpt>
      <trkpt lat="47.50792" lon="6.76456">
        <ele>390.4</ele>
        <time>2014-06-08T10:29:40.000Z</time>
      </trkpt>
      <trkpt lat="47.50792" lon="6.76468">
        <ele>390.9</ele>
        <time>2014-06-08T10:29:43.000Z</time>
      </trkpt>
      <trkpt lat="47.50794" lon="6.76473">
        <ele>391.3</ele>
        <time>2014-06-08T10:29:45.000Z</time>
      </trkpt>
      <trkpt lat="47.50794" lon="6.76476">
        <ele>391.8</ele>
        <time>2014-06-08T10:29:46.000Z</time>
      </trkpt>
      <trkpt lat="47.50794" lon="6.7648">
        <ele>391.5</ele>
        <time>2014-06-08T10:29:47.000Z</time>
      </trkpt>
      <trkpt lat="47.50794" lon="6.76484">
        <ele>391.4</ele>
        <time>2014-06-08T10:29:47.999Z</time>
      </trkpt>
      <trkpt lat="47.50792" lon="6.76488">
        <ele>391.4</ele>
        <time>2014-06-08T10:29:49.000Z</time>
      </trkpt>
      <trkpt lat="47.50792" lon="6.76492">
        <ele>391.6</ele>
        <time>2014-06-08T10:29:50.000Z</time>
      </trkpt>
      <trkpt lat="47.50791" lon="6.76496">
        <ele>390.8</ele>
        <time>2014-06-08T10:29:51.000Z</time>
      </trkpt>
      <trkpt lat="47.50791" lon="6.76501">
        <ele>391.9</ele>
        <time>2014-06-08T10:29:52.000Z</time>
      </trkpt>
      <trkpt lat="47.50792" lon="6.76505">
        <ele>392</ele>
        <time>2014-06-08T10:29:53.000Z</time>
      </trkpt>
      <trkpt lat="47.50793" lon="6.7651">
        <ele>391.4</ele>
        <time>2014-06-08T10:29:54.000Z</time>
      </trkpt>
      <trkpt lat="47.50795" lon="6.76515">
        <ele>392</ele>
        <time>2014-06-08T10:29:55.000Z</time>
      </trkpt>
      <trkpt lat="47.50797" lon="6.7652">
        <ele>391.9</ele>
        <time>2014-06-08T10:29:56.000Z</time>
      </trkpt>
      <trkpt lat="47.50799" lon="6.76525">
        <ele>391.5</ele>
        <time>2014-06-08T10:29:57.000Z</time>
      </trkpt>
      <trkpt lat="47.508" lon="6.7653">
        <ele>391.6</ele>
        <time>2014-06-08T10:29:58.000Z</time>
      </trkpt>
      <trkpt lat="47.50801" lon="6.76536">
        <ele>391.6</ele>
        <time>2014-06-08T10:29:59.000Z</time>
      </trkpt>
      <trkpt lat="47.50802" lon="6.76541">
        <ele>393.4</ele>
        <time>2014-06-08T10:30:00.000Z</time>
      </trkpt>
      <trkpt lat="47.50803" lon="6.76547">
        <ele>391.7</ele>
        <time>2014-06-08T10:30:01.000Z</time>
      </trkpt>
      <trkpt lat="47.50804" lon="6.76553">
        <ele>391.3</ele>
        <time>2014-06-08T10:30:02.000Z</time>
      </trkpt>
      <trkpt lat="47.50805" lon="6.7656">
        <ele>391.3</ele>
        <time>2014-06-08T10:30:03.000Z</time>
      </trkpt>
      <trkpt lat="47.50807" lon="6.76567">
        <ele>391.4</ele>
        <time>2014-06-08T10:30:04.000Z</time>
      </trkpt>
      <trkpt lat="47.50808" lon="6.76574">
        <ele>391.2</ele>
        <time>2014-06-08T10:30:05.002Z</time>
      </trkpt>
      <trkpt lat="47.5081" lon="6.76582">
        <ele>391.4</ele>
        <time>2014-06-08T10:30:06.000Z</time>
      </trkpt>
      <trkpt lat="47.50812" lon="6.76589">
        <ele>391.5</ele>
        <time>2014-06-08T10:30:07.000Z</time>
      </trkpt>
      <trkpt lat="47.50814" lon="6.76596">
        <ele>391.7</ele>
        <time>2014-06-08T10:30:08.000Z</time>
      </trkpt>
      <trkpt lat="47.50817" lon="6.76603">
        <ele>391.9</ele>
        <time>2014-06-08T10:30:09.000Z</time>
      </trkpt>
      <trkpt lat="47.5082" lon="6.76609">
        <ele>391.9</ele>
        <time>2014-06-08T10:30:10.000Z</time>
      </trkpt>
      <trkpt lat="47.50822" lon="6.76618">
        <ele>390.9</ele>
        <time>2014-06-08T10:30:11.000Z</time>
      </trkpt>
      <trkpt lat="47.50824" lon="6.76626">
        <ele>390</ele>
        <time>2014-06-08T10:30:12.000Z</time>
      </trkpt>
      <trkpt lat="47.50828" lon="6.76633">
        <ele>389.9</ele>
        <time>2014-06-08T10:30:13.000Z</time>
      </trkpt>
      <trkpt lat="47.50831" lon="6.76641">
        <ele>389.5</ele>
        <time>2014-06-08T10:30:14.000Z</time>
      </trkpt>
      <trkpt lat="47.50835" lon="6.7665">
        <ele>389.2</ele>
        <time>2014-06-08T10:30:15.000Z</time>
      </trkpt>
      <trkpt lat="47.50839" lon="6.76659">
        <ele>389.1</ele>
        <time>2014-06-08T10:30:16.000Z</time>
      </trkpt>
      <trkpt lat="47.50843" lon="6.76669">
        <ele>388.6</ele>
        <time>2014-06-08T10:30:17.000Z</time>
      </trkpt>
      <trkpt lat="47.50847" lon="6.76678">
        <ele>388.6</ele>
        <time>2014-06-08T10:30:18.000Z</time>
      </trkpt>
      <trkpt lat="47.50852" lon="6.76687">
        <ele>388.4</ele>
        <time>2014-06-08T10:30:19.000Z</time>
      </trkpt>
      <trkpt lat="47.50857" lon="6.76696">
        <ele>388.5</ele>
        <time>2014-06-08T10:30:20.000Z</time>
      </trkpt>
      <trkpt lat="47.50861" lon="6.76704">
        <ele>388.4</ele>
        <time>2014-06-08T10:30:21.000Z</time>
      </trkpt>
      <trkpt lat="47.50865" lon="6.76713">
        <ele>388.2</ele>
        <time>2014-06-08T10:30:22.000Z</time>
      </trkpt>
      <trkpt lat="47.50867" lon="6.76719">
        <ele>387.8</ele>
        <time>2014-06-08T10:30:23.000Z</time>
      </trkpt>
      <trkpt lat="47.50871" lon="6.76724">
        <ele>387.9</ele>
        <time>2014-06-08T10:30:24.001Z</time>
      </trkpt>
      <trkpt lat="47.50875" lon="6.76728">
        <ele>387.7</ele>
        <time>2014-06-08T10:30:25.000Z</time>
      </trkpt>
      <trkpt lat="47.50878" lon="6.76735">
        <ele>387</ele>
        <time>2014-06-08T10:30:26.000Z</time>
      </trkpt>
      <trkpt lat="47.50881" lon="6.76743">
        <ele>386.6</ele>
        <time>2014-06-08T10:30:27.000Z</time>
      </trkpt>
      <trkpt lat="47.50883" lon="6.76752">
        <ele>385.4</ele>
        <time>2014-06-08T10:30:28.000Z</time>
      </trkpt>
      <trkpt lat="47.50885" lon="6.7676">
        <ele>384.4</ele>
        <time>2014-06-08T10:30:29.000Z</time>
      </trkpt>
      <trkpt lat="47.50888" lon="6.76768">
        <ele>384</ele>
        <time>2014-06-08T10:30:30.000Z</time>
      </trkpt>
      <trkpt lat="47.50891" lon="6.76777">
        <ele>381.6</ele>
        <time>2014-06-08T10:30:31.000Z</time>
      </trkpt>
      <trkpt lat="47.50895" lon="6.76786">
        <ele>380.7</ele>
        <time>2014-06-08T10:30:32.000Z</time>
      </trkpt>
      <trkpt lat="47.50898" lon="6.76795">
        <ele>380.3</ele>
        <time>2014-06-08T10:30:33.000Z</time>
      </trkpt>
      <trkpt lat="47.50902" lon="6.76805">
        <ele>380.5</ele>
        <time>2014-06-08T10:30:34.000Z</time>
      </trkpt>
      <trkpt lat="47.50906" lon="6.76814">
        <ele>380.6</ele>
        <time>2014-06-08T10:30:35.000Z</time>
      </trkpt>
      <trkpt lat="47.5091" lon="6.76823">
        <ele>380.5</ele>
        <time>2014-06-08T10:30:36.000Z</time>
      </trkpt>
      <trkpt lat="47.50914" lon="6.76832">
        <ele>380.4</ele>
        <time>2014-06-08T10:30:37.000Z</time>
      </trkpt>
      <trkpt lat="47.50919" lon="6.76841">
        <ele>379.9</ele>
        <time>2014-06-08T10:30:38.000Z</time>
      </trkpt>
      <trkpt lat="47.50923" lon="6.76851">
        <ele>378.6</ele>
        <time>2014-06-08T10:30:39.000Z</time>
      </trkpt>
      <trkpt lat="47.50927" lon="6.76861">
        <ele>376.8</ele>
        <time>2014-06-08T10:30:40.000Z</time>
      </trkpt>
      <trkpt lat="47.50974" lon="6.76903">
        <ele>374.8</ele>
        <time>2014-06-08T10:30:48.000Z</time>
      </trkpt>
      <trkpt lat="47.50982" lon="6.76899">
        <ele>374.8</ele>
        <time>2014-06-08T10:30:49.000Z</time>
      </trkpt>
      <trkpt lat="47.50989" lon="6.76902">
        <ele>375.4</ele>
        <time>2014-06-08T10:30:50.000Z</time>
      </trkpt>
      <trkpt lat="47.50995" lon="6.76913">
        <ele>374.9</ele>
        <time>2014-06-08T10:30:51.000Z</time>
      </trkpt>
      <trkpt lat="47.50999" lon="6.7692">
        <ele>374.9</ele>
        <time>2014-06-08T10:30:52.000Z</time>
      </trkpt>
      <trkpt lat="47.51004" lon="6.76927">
        <ele>374.6</ele>
        <time>2014-06-08T10:30:53.000Z</time>
      </trkpt>
      <trkpt lat="47.51008" lon="6.76933">
        <ele>374.1</ele>
        <time>2014-06-08T10:30:53.999Z</time>
      </trkpt>
      <trkpt lat="47.51014" lon="6.76936">
        <ele>374</ele>
        <time>2014-06-08T10:30:55.000Z</time>
      </trkpt>
      <trkpt lat="47.5102" lon="6.76939">
        <ele>373.9</ele>
        <time>2014-06-08T10:30:56.000Z</time>
      </trkpt>
      <trkpt lat="47.51026" lon="6.76943">
        <ele>374</ele>
        <time>2014-06-08T10:30:57.000Z</time>
      </trkpt>
      <trkpt lat="47.51031" lon="6.76947">
        <ele>374.4</ele>
        <time>2014-06-08T10:30:58.000Z</time>
      </trkpt>
      <trkpt lat="47.51036" lon="6.76952">
        <ele>374.5</ele>
        <time>2014-06-08T10:30:59.000Z</time>
      </trkpt>
      <trkpt lat="47.51042" lon="6.76958">
        <ele>375.7</ele>
        <time>2014-06-08T10:31:00.000Z</time>
      </trkpt>
      <trkpt lat="47.51048" lon="6.76965">
        <ele>376.2</ele>
        <time>2014-06-08T10:31:01.000Z</time>
      </trkpt>
      <trkpt lat="47.51053" lon="6.76968">
        <ele>375.9</ele>
        <time>2014-06-08T10:31:02.000Z</time>
      </trkpt>
      <trkpt lat="47.51059" lon="6.76974">
        <ele>375.9</ele>
        <time>2014-06-08T10:31:03.000Z</time>
      </trkpt>
      <trkpt lat="47.51063" lon="6.76978">
        <ele>376.4</ele>
        <time>2014-06-08T10:31:04.000Z</time>
      </trkpt>
      <trkpt lat="47.51068" lon="6.76983">
        <ele>376.4</ele>
        <time>2014-06-08T10:31:04.999Z</time>
      </trkpt>
      <trkpt lat="47.51073" lon="6.76986">
        <ele>377.1</ele>
        <time>2014-06-08T10:31:06.000Z</time>
      </trkpt>
      <trkpt lat="47.51077" lon="6.76988">
        <ele>377</ele>
        <time>2014-06-08T10:31:07.000Z</time>
      </trkpt>
      <trkpt lat="47.51081" lon="6.76992">
        <ele>376.9</ele>
        <time>2014-06-08T10:31:08.000Z</time>
      </trkpt>
      <trkpt lat="47.51085" lon="6.76996">
        <ele>375.8</ele>
        <time>2014-06-08T10:31:09.000Z</time>
      </trkpt>
      <trkpt lat="47.51089" lon="6.77002">
        <ele>376.3</ele>
        <time>2014-06-08T10:31:10.000Z</time>
      </trkpt>
      <trkpt lat="47.51092" lon="6.77009">
        <ele>376.2</ele>
        <time>2014-06-08T10:31:11.000Z</time>
      </trkpt>
      <trkpt lat="47.51096" lon="6.77015">
        <ele>376.2</ele>
        <time>2014-06-08T10:31:12.000Z</time>
      </trkpt>
      <trkpt lat="47.51102" lon="6.77021">
        <ele>374.3</ele>
        <time>2014-06-08T10:31:13.000Z</time>
      </trkpt>
      <trkpt lat="47.51107" lon="6.77025">
        <ele>374.2</ele>
        <time>2014-06-08T10:31:14.000Z</time>
      </trkpt>
      <trkpt lat="47.51113" lon="6.7703">
        <ele>374.4</ele>
        <time>2014-06-08T10:31:15.000Z</time>
      </trkpt>
      <trkpt lat="47.51119" lon="6.77034">
        <ele>374.5</ele>
        <time>2014-06-08T10:31:16.000Z</time>
      </trkpt>
      <trkpt lat="47.51124" lon="6.77039">
        <ele>375.9</ele>
        <time>2014-06-08T10:31:17.000Z</time>
      </trkpt>
      <trkpt lat="47.51129" lon="6.77044">
        <ele>376.8</ele>
        <time>2014-06-08T10:31:18.000Z</time>
      </trkpt>
      <trkpt lat="47.51135" lon="6.77048">
        <ele>377.4</ele>
        <time>2014-06-08T10:31:19.000Z</time>
      </trkpt>
      <trkpt lat="47.5114" lon="6.77052">
        <ele>377.1</ele>
        <time>2014-06-08T10:31:20.000Z</time>
      </trkpt>
      <trkpt lat="47.51145" lon="6.77056">
        <ele>376.7</ele>
        <time>2014-06-08T10:31:20.998Z</time>
      </trkpt>
      <trkpt lat="47.51149" lon="6.7706">
        <ele>376.6</ele>
        <time>2014-06-08T10:31:22.000Z</time>
      </trkpt>
      <trkpt lat="47.51154" lon="6.77064">
        <ele>377</ele>
        <time>2014-06-08T10:31:23.000Z</time>
      </trkpt>
      <trkpt lat="47.51158" lon="6.77069">
        <ele>377.8</ele>
        <time>2014-06-08T10:31:24.000Z</time>
      </trkpt>
      <trkpt lat="47.51163" lon="6.77076">
        <ele>376.7</ele>
        <time>2014-06-08T10:31:25.000Z</time>
      </trkpt>
      <trkpt lat="47.51168" lon="6.77083">
        <ele>377.6</ele>
        <time>2014-06-08T10:31:26.000Z</time>
      </trkpt>
      <trkpt lat="47.51171" lon="6.77089">
        <ele>377</ele>
        <time>2014-06-08T10:31:27.000Z</time>
      </trkpt>
      <trkpt lat="47.51175" lon="6.77095">
        <ele>376.5</ele>
        <time>2014-06-08T10:31:28.000Z</time>
      </trkpt>
      <trkpt lat="47.51179" lon="6.77104">
        <ele>376</ele>
        <time>2014-06-08T10:31:29.000Z</time>
      </trkpt>
      <trkpt lat="47.51183" lon="6.77113">
        <ele>376.5</ele>
        <time>2014-06-08T10:31:30.000Z</time>
      </trkpt>
      <trkpt lat="47.51187" lon="6.77121">
        <ele>376.1</ele>
        <time>2014-06-08T10:31:31.000Z</time>
      </trkpt>
      <trkpt lat="47.5119" lon="6.77129">
        <ele>376.6</ele>
        <time>2014-06-08T10:31:32.000Z</time>
      </trkpt>
      <trkpt lat="47.51194" lon="6.77137">
        <ele>376.8</ele>
        <time>2014-06-08T10:31:33.000Z</time>
      </trkpt>
      <trkpt lat="47.51197" lon="6.77144">
        <ele>377</ele>
        <time>2014-06-08T10:31:34.000Z</time>
      </trkpt>
      <trkpt lat="47.51201" lon="6.77151">
        <ele>377.6</ele>
        <time>2014-06-08T10:31:35.000Z</time>
      </trkpt>
      <trkpt lat="47.51204" lon="6.77158">
        <ele>378.2</ele>
        <time>2014-06-08T10:31:36.000Z</time>
      </trkpt>
      <trkpt lat="47.51208" lon="6.77163">
        <ele>378.2</ele>
        <time>2014-06-08T10:31:37.000Z</time>
      </trkpt>
      <trkpt lat="47.51211" lon="6.77169">
        <ele>378.4</ele>
        <time>2014-06-08T10:31:38.000Z</time>
      </trkpt>
      <trkpt lat="47.51215" lon="6.77175">
        <ele>378.5</ele>
        <time>2014-06-08T10:31:39.000Z</time>
      </trkpt>
      <trkpt lat="47.51218" lon="6.7718">
        <ele>378.4</ele>
        <time>2014-06-08T10:31:40.000Z</time>
      </trkpt>
      <trkpt lat="47.51239" lon="6.77223">
        <ele>382</ele>
        <time>2014-06-08T10:31:48.000Z</time>
      </trkpt>
      <trkpt lat="47.51243" lon="6.77228">
        <ele>382.7</ele>
        <time>2014-06-08T10:31:49.000Z</time>
      </trkpt>
      <trkpt lat="47.51247" lon="6.77233">
        <ele>382.3</ele>
        <time>2014-06-08T10:31:50.000Z</time>
      </trkpt>
      <trkpt lat="47.51251" lon="6.77238">
        <ele>382.2</ele>
        <time>2014-06-08T10:31:51.000Z</time>
      </trkpt>
      <trkpt lat="47.51255" lon="6.77243">
        <ele>382.2</ele>
        <time>2014-06-08T10:31:52.000Z</time>
      </trkpt>
      <trkpt lat="47.51259" lon="6.77249">
        <ele>382.5</ele>
        <time>2014-06-08T10:31:53.000Z</time>
      </trkpt>
      <trkpt lat="47.51263" lon="6.77252">
        <ele>382.6</ele>
        <time>2014-06-08T10:31:54.000Z</time>
      </trkpt>
      <trkpt lat="47.51268" lon="6.77255">
        <ele>383.1</ele>
        <time>2014-06-08T10:31:55.000Z</time>
      </trkpt>
      <trkpt lat="47.51272" lon="6.77259">
        <ele>383.4</ele>
        <time>2014-06-08T10:31:56.000Z</time>
      </trkpt>
      <trkpt lat="47.51277" lon="6.77261">
        <ele>383.6</ele>
        <time>2014-06-08T10:31:57.000Z</time>
      </trkpt>
      <trkpt lat="47.51282" lon="6.77264">
        <ele>383.7</ele>
        <time>2014-06-08T10:31:58.000Z</time>
      </trkpt>
      <trkpt lat="47.51286" lon="6.77264">
        <ele>384.8</ele>
        <time>2014-06-08T10:31:59.000Z</time>
      </trkpt>
      <trkpt lat="47.51292" lon="6.77267">
        <ele>385.6</ele>
        <time>2014-06-08T10:32:00.000Z</time>
      </trkpt>
      <trkpt lat="47.51297" lon="6.77269">
        <ele>386.2</ele>
        <time>2014-06-08T10:32:01.000Z</time>
      </trkpt>
      <trkpt lat="47.51303" lon="6.77272">
        <ele>385.9</ele>
        <time>2014-06-08T10:32:02.000Z</time>
      </trkpt>
      <trkpt lat="47.51308" lon="6.77275">
        <ele>386.4</ele>
        <time>2014-06-08T10:32:03.000Z</time>
      </trkpt>
      <trkpt lat="47.51315" lon="6.7728">
        <ele>385.3</ele>
        <time>2014-06-08T10:32:04.000Z</time>
      </trkpt>
      <trkpt lat="47.51321" lon="6.77281">
        <ele>385</ele>
        <time>2014-06-08T10:32:05.000Z</time>
      </trkpt>
      <trkpt lat="47.51328" lon="6.77281">
        <ele>384.5</ele>
        <time>2014-06-08T10:32:06.000Z</time>
      </trkpt>
      <trkpt lat="47.51334" lon="6.77279">
        <ele>384.1</ele>
        <time>2014-06-08T10:32:07.000Z</time>
      </trkpt>
      <trkpt lat="47.51341" lon="6.77275">
        <ele>383.8</ele>
        <time>2014-06-08T10:32:08.000Z</time>
      </trkpt>
      <trkpt lat="47.51348" lon="6.77274">
        <ele>380.8</ele>
        <time>2014-06-08T10:32:09.000Z</time>
      </trkpt>
      <trkpt lat="47.51354" lon="6.77268">
        <ele>380</ele>
        <time>2014-06-08T10:32:10.000Z</time>
      </trkpt>
      <trkpt lat="47.51361" lon="6.7726">
        <ele>380.1</ele>
        <time>2014-06-08T10:32:11.000Z</time>
      </trkpt>
      <trkpt lat="47.51368" lon="6.77254">
        <ele>379.5</ele>
        <time>2014-06-08T10:32:12.000Z</time>
      </trkpt>
      <trkpt lat="47.51376" lon="6.77249">
        <ele>379</ele>
        <time>2014-06-08T10:32:13.000Z</time>
      </trkpt>
      <trkpt lat="47.51384" lon="6.77243">
        <ele>378.6</ele>
        <time>2014-06-08T10:32:14.000Z</time>
      </trkpt>
      <trkpt lat="47.51393" lon="6.77238">
        <ele>378.1</ele>
        <time>2014-06-08T10:32:14.999Z</time>
      </trkpt>
      <trkpt lat="47.51401" lon="6.77234">
        <ele>377.8</ele>
        <time>2014-06-08T10:32:16.000Z</time>
      </trkpt>
      <trkpt lat="47.5141" lon="6.7723">
        <ele>377.2</ele>
        <time>2014-06-08T10:32:17.000Z</time>
      </trkpt>
      <trkpt lat="47.51418" lon="6.77225">
        <ele>376.9</ele>
        <time>2014-06-08T10:32:18.000Z</time>
      </trkpt>
      <trkpt lat="47.51427" lon="6.77221">
        <ele>376.8</ele>
        <time>2014-06-08T10:32:19.000Z</time>
      </trkpt>
      <trkpt lat="47.51435" lon="6.77217">
        <ele>376.9</ele>
        <time>2014-06-08T10:32:20.000Z</time>
      </trkpt>
      <trkpt lat="47.51443" lon="6.77214">
        <ele>376.7</ele>
        <time>2014-06-08T10:32:21.000Z</time>
      </trkpt>
      <trkpt lat="47.5145" lon="6.7721">
        <ele>376.8</ele>
        <time>2014-06-08T10:32:22.000Z</time>
      </trkpt>
      <trkpt lat="47.51458" lon="6.77207">
        <ele>376.5</ele>
        <time>2014-06-08T10:32:23.000Z</time>
      </trkpt>
      <trkpt lat="47.51464" lon="6.77205">
        <ele>376.6</ele>
        <time>2014-06-08T10:32:24.000Z</time>
      </trkpt>
      <trkpt lat="47.5147" lon="6.77203">
        <ele>377.2</ele>
        <time>2014-06-08T10:32:25.000Z</time>
      </trkpt>
      <trkpt lat="47.51475" lon="6.77203">
        <ele>377.7</ele>
        <time>2014-06-08T10:32:26.000Z</time>
      </trkpt>
      <trkpt lat="47.51478" lon="6.77206">
        <ele>378.7</ele>
        <time>2014-06-08T10:32:27.000Z</time>
      </trkpt>
      <trkpt lat="47.5148" lon="6.77214">
        <ele>377.9</ele>
        <time>2014-06-08T10:32:28.000Z</time>
      </trkpt>
      <trkpt lat="47.51481" lon="6.77223">
        <ele>377.9</ele>
        <time>2014-06-08T10:32:29.000Z</time>
      </trkpt>
      <trkpt lat="47.51482" lon="6.77231">
        <ele>377.7</ele>
        <time>2014-06-08T10:32:30.000Z</time>
      </trkpt>
      <trkpt lat="47.51482" lon="6.7724">
        <ele>377.9</ele>
        <time>2014-06-08T10:32:31.000Z</time>
      </trkpt>
      <trkpt lat="47.51483" lon="6.77248">
        <ele>377.5</ele>
        <time>2014-06-08T10:32:32.000Z</time>
      </trkpt>
      <trkpt lat="47.51484" lon="6.77257">
        <ele>377.3</ele>
        <time>2014-06-08T10:32:33.000Z</time>
      </trkpt>
      <trkpt lat="47.51485" lon="6.77267">
        <ele>377.2</ele>
        <time>2014-06-08T10:32:34.000Z</time>
      </trkpt>
      <trkpt lat="47.51486" lon="6.77276">
        <ele>377.3</ele>
        <time>2014-06-08T10:32:35.000Z</time>
      </trkpt>
      <trkpt lat="47.51487" lon="6.77285">
        <ele>377.3</ele>
        <time>2014-06-08T10:32:36.000Z</time>
      </trkpt>
      <trkpt lat="47.51488" lon="6.77294">
        <ele>377</ele>
        <time>2014-06-08T10:32:37.000Z</time>
      </trkpt>
      <trkpt lat="47.51489" lon="6.77303">
        <ele>377.1</ele>
        <time>2014-06-08T10:32:38.000Z</time>
      </trkpt>
      <trkpt lat="47.51492" lon="6.7731">
        <ele>376.9</ele>
        <time>2014-06-08T10:32:39.000Z</time>
      </trkpt>
      <trkpt lat="47.51497" lon="6.77316">
        <ele>377.2</ele>
        <time>2014-06-08T10:32:40.000Z</time>
      </trkpt>
      <trkpt lat="47.51526" lon="6.77347">
        <ele>379.4</ele>
        <time>2014-06-08T10:32:48.000Z</time>
      </trkpt>
      <trkpt lat="47.51531" lon="6.77351">
        <ele>379.9</ele>
        <time>2014-06-08T10:32:49.000Z</time>
      </trkpt>
      <trkpt lat="47.51534" lon="6.77356">
        <ele>380.2</ele>
        <time>2014-06-08T10:32:50.000Z</time>
      </trkpt>
      <trkpt lat="47.51537" lon="6.7736">
        <ele>381.1</ele>
        <time>2014-06-08T10:32:51.000Z</time>
      </trkpt>
      <trkpt lat="47.51541" lon="6.77364">
        <ele>382.2</ele>
        <time>2014-06-08T10:32:52.000Z</time>
      </trkpt>
      <trkpt lat="47.51544" lon="6.7737">
        <ele>382.3</ele>
        <time>2014-06-08T10:32:53.000Z</time>
      </trkpt>
      <trkpt lat="47.51549" lon="6.77374">
        <ele>381.8</ele>
        <time>2014-06-08T10:32:54.000Z</time>
      </trkpt>
      <trkpt lat="47.51553" lon="6.77379">
        <ele>381.7</ele>
        <time>2014-06-08T10:32:55.001Z</time>
      </trkpt>
      <trkpt lat="47.51556" lon="6.77382">
        <ele>381.8</ele>
        <time>2014-06-08T10:32:56.000Z</time>
      </trkpt>
      <trkpt lat="47.51559" lon="6.77387">
        <ele>381.3</ele>
        <time>2014-06-08T10:32:57.000Z</time>
      </trkpt>
      <trkpt lat="47.51563" lon="6.77392">
        <ele>380.5</ele>
        <time>2014-06-08T10:32:58.000Z</time>
      </trkpt>
      <trkpt lat="47.51565" lon="6.77395">
        <ele>381</ele>
        <time>2014-06-08T10:32:59.000Z</time>
      </trkpt>
      <trkpt lat="47.51568" lon="6.77398">
        <ele>381.8</ele>
        <time>2014-06-08T10:33:00.000Z</time>
      </trkpt>
      <trkpt lat="47.51571" lon="6.77402">
        <ele>382.3</ele>
        <time>2014-06-08T10:33:01.000Z</time>
      </trkpt>
      <trkpt lat="47.51575" lon="6.77407">
        <ele>382.9</ele>
        <time>2014-06-08T10:33:02.000Z</time>
      </trkpt>
      <trkpt lat="47.51579" lon="6.77411">
        <ele>383.3</ele>
        <time>2014-06-08T10:33:03.000Z</time>
      </trkpt>
      <trkpt lat="47.51582" lon="6.77414">
        <ele>384.3</ele>
        <time>2014-06-08T10:33:04.000Z</time>
      </trkpt>
      <trkpt lat="47.51585" lon="6.77418">
        <ele>384.9</ele>
        <time>2014-06-08T10:33:05.000Z</time>
      </trkpt>
      <trkpt lat="47.51588" lon="6.77423">
        <ele>385.2</ele>
        <time>2014-06-08T10:33:06.000Z</time>
      </trkpt>
      <trkpt lat="47.51591" lon="6.77426">
        <ele>385.5</ele>
        <time>2014-06-08T10:33:07.000Z</time>
      </trkpt>
      <trkpt lat="47.51595" lon="6.7743">
        <ele>385.7</ele>
        <time>2014-06-08T10:33:08.001Z</time>
      </trkpt>
      <trkpt lat="47.51598" lon="6.77434">
        <ele>385.1</ele>
        <time>2014-06-08T10:33:09.000Z</time>
      </trkpt>
      <trkpt lat="47.51602" lon="6.77438">
        <ele>385.6</ele>
        <time>2014-06-08T10:33:10.000Z</time>
      </trkpt>
      <trkpt lat="47.51605" lon="6.77442">
        <ele>385.6</ele>
        <time>2014-06-08T10:33:11.000Z</time>
      </trkpt>
      <trkpt lat="47.51608" lon="6.77446">
        <ele>385.4</ele>
        <time>2014-06-08T10:33:12.000Z</time>
      </trkpt>
      <trkpt lat="47.51611" lon="6.77451">
        <ele>386.1</ele>
        <time>2014-06-08T10:33:13.000Z</time>
      </trkpt>
      <trkpt lat="47.51614" lon="6.77455">
        <ele>387</ele>
        <time>2014-06-08T10:33:14.000Z</time>
      </trkpt>
      <trkpt lat="47.51616" lon="6.77459">
        <ele>387.1</ele>
        <time>2014-06-08T10:33:15.000Z</time>
      </trkpt>
      <trkpt lat="47.51619" lon="6.77464">
        <ele>387.8</ele>
        <time>2014-06-08T10:33:16.000Z</time>
      </trkpt>
      <trkpt lat="47.51622" lon="6.77468">
        <ele>388.3</ele>
        <time>2014-06-08T10:33:17.000Z</time>
      </trkpt>
      <trkpt lat="47.51626" lon="6.77472">
        <ele>388.3</ele>
        <time>2014-06-08T10:33:18.000Z</time>
      </trkpt>
      <trkpt lat="47.51629" lon="6.77476">
        <ele>387.9</ele>
        <time>2014-06-08T10:33:19.000Z</time>
      </trkpt>
      <trkpt lat="47.51632" lon="6.77479">
        <ele>387.8</ele>
        <time>2014-06-08T10:33:19.999Z</time>
      </trkpt>
      <trkpt lat="47.51636" lon="6.77483">
        <ele>387.7</ele>
        <time>2014-06-08T10:33:21.000Z</time>
      </trkpt>
      <trkpt lat="47.51639" lon="6.77486">
        <ele>387.6</ele>
        <time>2014-06-08T10:33:22.000Z</time>
      </trkpt>
      <trkpt lat="47.51642" lon="6.7749">
        <ele>387.8</ele>
        <time>2014-06-08T10:33:23.000Z</time>
      </trkpt>
      <trkpt lat="47.51645" lon="6.77494">
        <ele>387.8</ele>
        <time>2014-06-08T10:33:24.000Z</time>
      </trkpt>
      <trkpt lat="47.51648" lon="6.77497">
        <ele>388.3</ele>
        <time>2014-06-08T10:33:25.000Z</time>
      </trkpt>
      <trkpt lat="47.51651" lon="6.775">
        <ele>388.3</ele>
        <time>2014-06-08T10:33:26.000Z</time>
      </trkpt>
      <trkpt lat="47.51654" lon="6.77503">
        <ele>388.6</ele>
        <time>2014-06-08T10:33:27.000Z</time>
      </trkpt>
      <trkpt lat="47.51657" lon="6.77506">
        <ele>388.5</ele>
        <time>2014-06-08T10:33:28.000Z</time>
      </trkpt>
      <trkpt lat="47.5166" lon="6.77509">
        <ele>388.7</ele>
        <time>2014-06-08T10:33:29.000Z</time>
      </trkpt>
      <trkpt lat="47.51663" lon="6.77512">
        <ele>388.5</ele>
        <time>2014-06-08T10:33:30.000Z</time>
      </trkpt>
      <trkpt lat="47.51666" lon="6.77516">
        <ele>388.9</ele>
        <time>2014-06-08T10:33:31.000Z</time>
      </trkpt>
      <trkpt lat="47.51669" lon="6.77519">
        <ele>389.4</ele>
        <time>2014-06-08T10:33:32.000Z</time>
      </trkpt>
      <trkpt lat="47.51672" lon="6.77523">
        <ele>389.3</ele>
        <time>2014-06-08T10:33:33.000Z</time>
      </trkpt>
      <trkpt lat="47.51675" lon="6.77527">
        <ele>389.6</ele>
        <time>2014-06-08T10:33:34.000Z</time>
      </trkpt>
      <trkpt lat="47.51679" lon="6.77531">
        <ele>389.7</ele>
        <time>2014-06-08T10:33:35.000Z</time>
      </trkpt>
      <trkpt lat="47.51681" lon="6.77534">
        <ele>390</ele>
        <time>2014-06-08T10:33:36.000Z</time>
      </trkpt>
      <trkpt lat="47.51684" lon="6.77538">
        <ele>390.4</ele>
        <time>2014-06-08T10:33:37.000Z</time>
      </trkpt>
      <trkpt lat="47.51687" lon="6.77542">
        <ele>390.6</ele>
        <time>2014-06-08T10:33:38.000Z</time>
      </trkpt>
      <trkpt lat="47.51689" lon="6.77545">
        <ele>390.6</ele>
        <time>2014-06-08T10:33:39.000Z</time>
      </trkpt>
      <trkpt lat="47.51691" lon="6.77548">
        <ele>390.5</ele>
        <time>2014-06-08T10:33:40.000Z</time>
      </trkpt>
      <trkpt lat="47.51698" lon="6.77556">
        <ele>390.5</ele>
        <time>2014-06-08T10:33:43.000Z</time>
      </trkpt>
      <trkpt lat="47.51699" lon="6.77552">
        <ele>393.7</ele>
        <time>2014-06-08T10:33:52.000Z</time>
      </trkpt>
      <trkpt lat="47.51701" lon="6.77548">
        <ele>393.7</ele>
        <time>2014-06-08T10:33:53.000Z</time>
      </trkpt>
      <trkpt lat="47.51703" lon="6.77545">
        <ele>392.6</ele>
        <time>2014-06-08T10:33:54.000Z</time>
      </trkpt>
      <trkpt lat="47.51707" lon="6.77542">
        <ele>394.3</ele>
        <time>2014-06-08T10:33:55.000Z</time>
      </trkpt>
      <trkpt lat="47.5171" lon="6.77539">
        <ele>395.1</ele>
        <time>2014-06-08T10:33:56.000Z</time>
      </trkpt>
      <trkpt lat="47.51713" lon="6.77535">
        <ele>395.1</ele>
        <time>2014-06-08T10:33:57.000Z</time>
      </trkpt>
      <trkpt lat="47.51715" lon="6.7753">
        <ele>394.7</ele>
        <time>2014-06-08T10:33:58.000Z</time>
      </trkpt>
      <trkpt lat="47.51717" lon="6.77525">
        <ele>394.4</ele>
        <time>2014-06-08T10:33:59.000Z</time>
      </trkpt>
      <trkpt lat="47.5172" lon="6.77521">
        <ele>393.3</ele>
        <time>2014-06-08T10:34:00.000Z</time>
      </trkpt>
      <trkpt lat="47.51721" lon="6.77515">
        <ele>392.7</ele>
        <time>2014-06-08T10:34:01.000Z</time>
      </trkpt>
      <trkpt lat="47.51723" lon="6.77509">
        <ele>392.5</ele>
        <time>2014-06-08T10:34:01.999Z</time>
      </trkpt>
      <trkpt lat="47.51724" lon="6.77502">
        <ele>392</ele>
        <time>2014-06-08T10:34:03.000Z</time>
      </trkpt>
      <trkpt lat="47.51725" lon="6.77496">
        <ele>391.8</ele>
        <time>2014-06-08T10:34:04.000Z</time>
      </trkpt>
      <trkpt lat="47.51725" lon="6.77489">
        <ele>392.8</ele>
        <time>2014-06-08T10:34:05.000Z</time>
      </trkpt>
      <trkpt lat="47.51727" lon="6.77482">
        <ele>392.9</ele>
        <time>2014-06-08T10:34:06.000Z</time>
      </trkpt>
      <trkpt lat="47.5173" lon="6.77477">
        <ele>393.2</ele>
        <time>2014-06-08T10:34:07.000Z</time>
      </trkpt>
      <trkpt lat="47.51734" lon="6.77474">
        <ele>393.3</ele>
        <time>2014-06-08T10:34:08.000Z</time>
      </trkpt>
      <trkpt lat="47.51737" lon="6.77471">
        <ele>393.5</ele>
        <time>2014-06-08T10:34:09.000Z</time>
      </trkpt>
      <trkpt lat="47.51743" lon="6.77475">
        <ele>393.2</ele>
        <time>2014-06-08T10:34:10.000Z</time>
      </trkpt>
      <trkpt lat="47.51747" lon="6.77476">
        <ele>393.7</ele>
        <time>2014-06-08T10:34:11.000Z</time>
      </trkpt>
      <trkpt lat="47.51751" lon="6.77475">
        <ele>393.9</ele>
        <time>2014-06-08T10:34:12.000Z</time>
      </trkpt>
      <trkpt lat="47.51755" lon="6.77478">
        <ele>393.1</ele>
        <time>2014-06-08T10:34:13.000Z</time>
      </trkpt>
      <trkpt lat="47.5176" lon="6.77478">
        <ele>392.2</ele>
        <time>2014-06-08T10:34:14.000Z</time>
      </trkpt>
      <trkpt lat="47.51764" lon="6.77478">
        <ele>390.9</ele>
        <time>2014-06-08T10:34:15.000Z</time>
      </trkpt>
      <trkpt lat="47.5177" lon="6.7748">
        <ele>390.1</ele>
        <time>2014-06-08T10:34:16.000Z</time>
      </trkpt>
      <trkpt lat="47.51774" lon="6.7748">
        <ele>390.8</ele>
        <time>2014-06-08T10:34:17.000Z</time>
      </trkpt>
      <trkpt lat="47.51778" lon="6.77481">
        <ele>391.7</ele>
        <time>2014-06-08T10:34:18.000Z</time>
      </trkpt>
      <trkpt lat="47.51783" lon="6.77483">
        <ele>391.4</ele>
        <time>2014-06-08T10:34:19.000Z</time>
      </trkpt>
      <trkpt lat="47.51787" lon="6.77484">
        <ele>391.5</ele>
        <time>2014-06-08T10:34:20.000Z</time>
      </trkpt>
      <trkpt lat="47.51793" lon="6.77487">
        <ele>390.9</ele>
        <time>2014-06-08T10:34:21.000Z</time>
      </trkpt>
      <trkpt lat="47.51799" lon="6.77488">
        <ele>390.7</ele>
        <time>2014-06-08T10:34:22.000Z</time>
      </trkpt>
      <trkpt lat="47.51802" lon="6.77486">
        <ele>390.7</ele>
        <time>2014-06-08T10:34:23.000Z</time>
      </trkpt>
      <trkpt lat="47.51805" lon="6.77483">
        <ele>390.5</ele>
        <time>2014-06-08T10:34:24.000Z</time>
      </trkpt>
      <trkpt lat="47.51805" lon="6.77478">
        <ele>389.4</ele>
        <time>2014-06-08T10:34:25.000Z</time>
      </trkpt>
      <trkpt lat="47.51804" lon="6.77474">
        <ele>388.6</ele>
        <time>2014-06-08T10:34:26.000Z</time>
      </trkpt>
      <trkpt lat="47.51804" lon="6.77468">
        <ele>387.8</ele>
        <time>2014-06-08T10:34:27.000Z</time>
      </trkpt>
      <trkpt lat="47.51803" lon="6.77462">
        <ele>387.4</ele>
        <time>2014-06-08T10:34:27.999Z</time>
      </trkpt>
      <trkpt lat="47.51803" lon="6.7746">
        <ele>386.5</ele>
        <time>2014-06-08T10:34:29.000Z</time>
      </trkpt>
      <trkpt lat="47.51802" lon="6.77456">
        <ele>386.3</ele>
        <time>2014-06-08T10:34:30.001Z</time>
      </trkpt>
      <trkpt lat="47.51798" lon="6.77455">
        <ele>386.3</ele>
        <time>2014-06-08T10:34:37.000Z</time>
      </trkpt>
      <trkpt lat="47.51797" lon="6.77455">
        <ele>386.2</ele>
        <time>2014-06-08T10:34:38.000Z</time>
      </trkpt>
      <trkpt lat="47.51793" lon="6.77453">
        <ele>394.7</ele>
        <time>2014-06-08T10:39:14.000Z</time>
      </trkpt>
      <trkpt lat="47.51793" lon="6.77453">
        <ele>394.8</ele>
        <time>2014-06-08T10:39:15.000Z</time>
      </trkpt>
      <trkpt lat="47.51795" lon="6.77458">
        <ele>390.3</ele>
        <time>2014-06-08T10:40:53.000Z</time>
      </trkpt>
      <trkpt lat="47.51795" lon="6.77459">
        <ele>389.7</ele>
        <time>2014-06-08T10:40:54.000Z</time>
      </trkpt>
    </trkseg>
  </trk>
</gpx>